<?xml version="1.0" encoding="UTF-8"?>
<gpx version="1.1" creator="https://www.youtrack.es" xsi:schemaLocation="http://www.topografix.com/GPX/1/1 http://www.topografix.com/GPX/1/1/gpx.xsd http://www.garmin.com/xmlschemas/GpxExtensions/v3 http://www.garmin.com/xmlschemas/GpxExtensionsv3.xsd http://www.garmin.com/xmlschemas/TrackPointExtension/v1 http://www.garmin.com/xmlschemas/TrackPointExtensionv1.xsd" xmlns:gpxtpx="http://www.garmin.com/xmlschemas/TrackPointExtension/v1" xmlns:gpxx="http://www.garmin.com/xmlschemas/GpxExtensions/v3" xmlns:xsi="http://www.w3.org/2001/XMLSchema-instance">
  <metadata>
    <link href="https://www.youtrack.es">
      <text>YouTrack.es</text>
    </link>
    <time>2026-05-08T23:05:05Z</time>
  </metadata>
  <trk>
    <src>https://www.youtrack.es</src>
    <link href="https://www.youtrack.es/ruta/33222-llumbreiru">
      <text>YouTrack.es</text>
    </link>
    <trkseg>
      <trkpt lat="42.6127450" lon="-5.5444270">
        <ele>848.0</ele>
        <time>2021-08-21T04:00:46Z</time>
      </trkpt>
      <trkpt lat="42.6127660" lon="-5.5444460">
        <ele>848.0</ele>
        <time>2021-08-21T04:00:48Z</time>
      </trkpt>
      <trkpt lat="42.6127660" lon="-5.5444460">
        <ele>848.0</ele>
        <time>2021-08-21T04:00:49Z</time>
      </trkpt>
      <trkpt lat="42.6127860" lon="-5.5444670">
        <ele>848.0</ele>
        <time>2021-08-21T04:00:50Z</time>
      </trkpt>
      <trkpt lat="42.6127860" lon="-5.5444670">
        <ele>848.0</ele>
        <time>2021-08-21T04:00:51Z</time>
      </trkpt>
      <trkpt lat="42.6128060" lon="-5.5444860">
        <ele>848.0</ele>
        <time>2021-08-21T04:00:52Z</time>
      </trkpt>
      <trkpt lat="42.6128060" lon="-5.5444860">
        <ele>847.0</ele>
        <time>2021-08-21T04:00:53Z</time>
      </trkpt>
      <trkpt lat="42.6128220" lon="-5.5445060">
        <ele>847.0</ele>
        <time>2021-08-21T04:00:54Z</time>
      </trkpt>
      <trkpt lat="42.6128430" lon="-5.5445330">
        <ele>847.0</ele>
        <time>2021-08-21T04:00:56Z</time>
      </trkpt>
      <trkpt lat="42.6128670" lon="-5.5445630">
        <ele>847.0</ele>
        <time>2021-08-21T04:00:58Z</time>
      </trkpt>
      <trkpt lat="42.6128930" lon="-5.5445880">
        <ele>847.0</ele>
        <time>2021-08-21T04:00:59Z</time>
      </trkpt>
      <trkpt lat="42.6129020" lon="-5.5445950">
        <ele>846.0</ele>
        <time>2021-08-21T04:01:00Z</time>
      </trkpt>
      <trkpt lat="42.6129230" lon="-5.5446110">
        <ele>846.0</ele>
        <time>2021-08-21T04:01:01Z</time>
      </trkpt>
      <trkpt lat="42.6129490" lon="-5.5446250">
        <ele>846.0</ele>
        <time>2021-08-21T04:01:02Z</time>
      </trkpt>
      <trkpt lat="42.6129730" lon="-5.5446410">
        <ele>846.0</ele>
        <time>2021-08-21T04:01:03Z</time>
      </trkpt>
      <trkpt lat="42.6129960" lon="-5.5446570">
        <ele>846.0</ele>
        <time>2021-08-21T04:01:04Z</time>
      </trkpt>
      <trkpt lat="42.6130200" lon="-5.5446700">
        <ele>846.0</ele>
        <time>2021-08-21T04:01:05Z</time>
      </trkpt>
      <trkpt lat="42.6130470" lon="-5.5446810">
        <ele>846.0</ele>
        <time>2021-08-21T04:01:06Z</time>
      </trkpt>
      <trkpt lat="42.6130740" lon="-5.5446880">
        <ele>846.0</ele>
        <time>2021-08-21T04:01:07Z</time>
      </trkpt>
      <trkpt lat="42.6130740" lon="-5.5446880">
        <ele>846.0</ele>
        <time>2021-08-21T04:01:08Z</time>
      </trkpt>
      <trkpt lat="42.6131690" lon="-5.5446810">
        <ele>845.0</ele>
        <time>2021-08-21T04:01:09Z</time>
      </trkpt>
      <trkpt lat="42.6131830" lon="-5.5446630">
        <ele>845.0</ele>
        <time>2021-08-21T04:01:11Z</time>
      </trkpt>
      <trkpt lat="42.6131980" lon="-5.5446450">
        <ele>845.0</ele>
        <time>2021-08-21T04:01:12Z</time>
      </trkpt>
      <trkpt lat="42.6132120" lon="-5.5446270">
        <ele>844.0</ele>
        <time>2021-08-21T04:01:13Z</time>
      </trkpt>
      <trkpt lat="42.6132120" lon="-5.5446270">
        <ele>844.0</ele>
        <time>2021-08-21T04:01:14Z</time>
      </trkpt>
      <trkpt lat="42.6132340" lon="-5.5445860">
        <ele>844.0</ele>
        <time>2021-08-21T04:01:15Z</time>
      </trkpt>
      <trkpt lat="42.6132340" lon="-5.5445860">
        <ele>844.0</ele>
        <time>2021-08-21T04:01:16Z</time>
      </trkpt>
      <trkpt lat="42.6132540" lon="-5.5445510">
        <ele>844.0</ele>
        <time>2021-08-21T04:01:17Z</time>
      </trkpt>
      <trkpt lat="42.6132700" lon="-5.5445280">
        <ele>844.0</ele>
        <time>2021-08-21T04:01:18Z</time>
      </trkpt>
      <trkpt lat="42.6132850" lon="-5.5445040">
        <ele>844.0</ele>
        <time>2021-08-21T04:01:19Z</time>
      </trkpt>
      <trkpt lat="42.6133050" lon="-5.5444770">
        <ele>845.0</ele>
        <time>2021-08-21T04:01:20Z</time>
      </trkpt>
      <trkpt lat="42.6133270" lon="-5.5444550">
        <ele>845.0</ele>
        <time>2021-08-21T04:01:21Z</time>
      </trkpt>
      <trkpt lat="42.6133480" lon="-5.5444360">
        <ele>845.0</ele>
        <time>2021-08-21T04:01:22Z</time>
      </trkpt>
      <trkpt lat="42.6133670" lon="-5.5443990">
        <ele>845.0</ele>
        <time>2021-08-21T04:01:23Z</time>
      </trkpt>
      <trkpt lat="42.6133750" lon="-5.5443880">
        <ele>845.0</ele>
        <time>2021-08-21T04:01:24Z</time>
      </trkpt>
      <trkpt lat="42.6133910" lon="-5.5443670">
        <ele>845.0</ele>
        <time>2021-08-21T04:01:25Z</time>
      </trkpt>
      <trkpt lat="42.6134060" lon="-5.5443460">
        <ele>845.0</ele>
        <time>2021-08-21T04:01:26Z</time>
      </trkpt>
      <trkpt lat="42.6134190" lon="-5.5443210">
        <ele>845.0</ele>
        <time>2021-08-21T04:01:27Z</time>
      </trkpt>
      <trkpt lat="42.6134340" lon="-5.5442980">
        <ele>845.0</ele>
        <time>2021-08-21T04:01:28Z</time>
      </trkpt>
      <trkpt lat="42.6134510" lon="-5.5442720">
        <ele>844.0</ele>
        <time>2021-08-21T04:01:29Z</time>
      </trkpt>
      <trkpt lat="42.6134700" lon="-5.5442450">
        <ele>845.0</ele>
        <time>2021-08-21T04:01:30Z</time>
      </trkpt>
      <trkpt lat="42.6134850" lon="-5.5442120">
        <ele>845.0</ele>
        <time>2021-08-21T04:01:31Z</time>
      </trkpt>
      <trkpt lat="42.6135020" lon="-5.5441750">
        <ele>844.0</ele>
        <time>2021-08-21T04:01:32Z</time>
      </trkpt>
      <trkpt lat="42.6135100" lon="-5.5441450">
        <ele>845.0</ele>
        <time>2021-08-21T04:01:33Z</time>
      </trkpt>
      <trkpt lat="42.6135100" lon="-5.5441450">
        <ele>845.0</ele>
        <time>2021-08-21T04:01:34Z</time>
      </trkpt>
      <trkpt lat="42.6135420" lon="-5.5440940">
        <ele>845.0</ele>
        <time>2021-08-21T04:01:35Z</time>
      </trkpt>
      <trkpt lat="42.6135730" lon="-5.5440420">
        <ele>845.0</ele>
        <time>2021-08-21T04:01:36Z</time>
      </trkpt>
      <trkpt lat="42.6135970" lon="-5.5440080">
        <ele>845.0</ele>
        <time>2021-08-21T04:01:37Z</time>
      </trkpt>
      <trkpt lat="42.6136220" lon="-5.5439750">
        <ele>845.0</ele>
        <time>2021-08-21T04:01:38Z</time>
      </trkpt>
      <trkpt lat="42.6136460" lon="-5.5439410">
        <ele>846.0</ele>
        <time>2021-08-21T04:01:39Z</time>
      </trkpt>
      <trkpt lat="42.6136700" lon="-5.5439100">
        <ele>846.0</ele>
        <time>2021-08-21T04:01:40Z</time>
      </trkpt>
      <trkpt lat="42.6136940" lon="-5.5438820">
        <ele>846.0</ele>
        <time>2021-08-21T04:01:41Z</time>
      </trkpt>
      <trkpt lat="42.6137100" lon="-5.5438400">
        <ele>846.0</ele>
        <time>2021-08-21T04:01:42Z</time>
      </trkpt>
      <trkpt lat="42.6137130" lon="-5.5438240">
        <ele>846.0</ele>
        <time>2021-08-21T04:01:43Z</time>
      </trkpt>
      <trkpt lat="42.6137200" lon="-5.5437940">
        <ele>846.0</ele>
        <time>2021-08-21T04:01:44Z</time>
      </trkpt>
      <trkpt lat="42.6137330" lon="-5.5437550">
        <ele>846.0</ele>
        <time>2021-08-21T04:01:45Z</time>
      </trkpt>
      <trkpt lat="42.6137520" lon="-5.5437100">
        <ele>846.0</ele>
        <time>2021-08-21T04:01:47Z</time>
      </trkpt>
      <trkpt lat="42.6137710" lon="-5.5436660">
        <ele>846.0</ele>
        <time>2021-08-21T04:01:49Z</time>
      </trkpt>
      <trkpt lat="42.6137900" lon="-5.5436210">
        <ele>846.0</ele>
        <time>2021-08-21T04:01:50Z</time>
      </trkpt>
      <trkpt lat="42.6138030" lon="-5.5436030">
        <ele>846.0</ele>
        <time>2021-08-21T04:01:51Z</time>
      </trkpt>
      <trkpt lat="42.6138150" lon="-5.5435840">
        <ele>846.0</ele>
        <time>2021-08-21T04:01:52Z</time>
      </trkpt>
      <trkpt lat="42.6138280" lon="-5.5435660">
        <ele>846.0</ele>
        <time>2021-08-21T04:01:53Z</time>
      </trkpt>
      <trkpt lat="42.6138820" lon="-5.5434760">
        <ele>846.0</ele>
        <time>2021-08-21T04:01:54Z</time>
      </trkpt>
      <trkpt lat="42.6138980" lon="-5.5434420">
        <ele>846.0</ele>
        <time>2021-08-21T04:01:55Z</time>
      </trkpt>
      <trkpt lat="42.6139150" lon="-5.5434080">
        <ele>846.0</ele>
        <time>2021-08-21T04:01:56Z</time>
      </trkpt>
      <trkpt lat="42.6139210" lon="-5.5433970">
        <ele>846.0</ele>
        <time>2021-08-21T04:01:57Z</time>
      </trkpt>
      <trkpt lat="42.6139270" lon="-5.5433870">
        <ele>846.0</ele>
        <time>2021-08-21T04:01:58Z</time>
      </trkpt>
      <trkpt lat="42.6139320" lon="-5.5433760">
        <ele>846.0</ele>
        <time>2021-08-21T04:01:59Z</time>
      </trkpt>
      <trkpt lat="42.6139380" lon="-5.5433650">
        <ele>846.0</ele>
        <time>2021-08-21T04:02:00Z</time>
      </trkpt>
      <trkpt lat="42.6139840" lon="-5.5432800">
        <ele>846.0</ele>
        <time>2021-08-21T04:02:02Z</time>
      </trkpt>
      <trkpt lat="42.6140540" lon="-5.5431810">
        <ele>846.0</ele>
        <time>2021-08-21T04:02:04Z</time>
      </trkpt>
      <trkpt lat="42.6140660" lon="-5.5431590">
        <ele>846.0</ele>
        <time>2021-08-21T04:02:06Z</time>
      </trkpt>
      <trkpt lat="42.6140790" lon="-5.5431370">
        <ele>846.0</ele>
        <time>2021-08-21T04:02:07Z</time>
      </trkpt>
      <trkpt lat="42.6140910" lon="-5.5431150">
        <ele>846.0</ele>
        <time>2021-08-21T04:02:08Z</time>
      </trkpt>
      <trkpt lat="42.6141040" lon="-5.5430930">
        <ele>846.0</ele>
        <time>2021-08-21T04:02:09Z</time>
      </trkpt>
      <trkpt lat="42.6141160" lon="-5.5430710">
        <ele>846.0</ele>
        <time>2021-08-21T04:02:10Z</time>
      </trkpt>
      <trkpt lat="42.6141270" lon="-5.5430430">
        <ele>846.0</ele>
        <time>2021-08-21T04:02:11Z</time>
      </trkpt>
      <trkpt lat="42.6141390" lon="-5.5430140">
        <ele>846.0</ele>
        <time>2021-08-21T04:02:12Z</time>
      </trkpt>
      <trkpt lat="42.6141500" lon="-5.5429860">
        <ele>846.0</ele>
        <time>2021-08-21T04:02:13Z</time>
      </trkpt>
      <trkpt lat="42.6141840" lon="-5.5429010">
        <ele>846.0</ele>
        <time>2021-08-21T04:02:14Z</time>
      </trkpt>
      <trkpt lat="42.6141890" lon="-5.5428690">
        <ele>846.0</ele>
        <time>2021-08-21T04:02:15Z</time>
      </trkpt>
      <trkpt lat="42.6141980" lon="-5.5428350">
        <ele>846.0</ele>
        <time>2021-08-21T04:02:16Z</time>
      </trkpt>
      <trkpt lat="42.6142070" lon="-5.5428010">
        <ele>846.0</ele>
        <time>2021-08-21T04:02:17Z</time>
      </trkpt>
      <trkpt lat="42.6142160" lon="-5.5427660">
        <ele>846.0</ele>
        <time>2021-08-21T04:02:18Z</time>
      </trkpt>
      <trkpt lat="42.6142250" lon="-5.5427320">
        <ele>846.0</ele>
        <time>2021-08-21T04:02:19Z</time>
      </trkpt>
      <trkpt lat="42.6142340" lon="-5.5426980">
        <ele>846.0</ele>
        <time>2021-08-21T04:02:20Z</time>
      </trkpt>
      <trkpt lat="42.6142410" lon="-5.5426450">
        <ele>846.0</ele>
        <time>2021-08-21T04:02:21Z</time>
      </trkpt>
      <trkpt lat="42.6142440" lon="-5.5426280">
        <ele>845.0</ele>
        <time>2021-08-21T04:02:22Z</time>
      </trkpt>
      <trkpt lat="42.6142420" lon="-5.5425930">
        <ele>845.0</ele>
        <time>2021-08-21T04:02:23Z</time>
      </trkpt>
      <trkpt lat="42.6142400" lon="-5.5425560">
        <ele>845.0</ele>
        <time>2021-08-21T04:02:24Z</time>
      </trkpt>
      <trkpt lat="42.6142330" lon="-5.5425190">
        <ele>845.0</ele>
        <time>2021-08-21T04:02:25Z</time>
      </trkpt>
      <trkpt lat="42.6142280" lon="-5.5424860">
        <ele>846.0</ele>
        <time>2021-08-21T04:02:26Z</time>
      </trkpt>
      <trkpt lat="42.6142220" lon="-5.5424490">
        <ele>846.0</ele>
        <time>2021-08-21T04:02:27Z</time>
      </trkpt>
      <trkpt lat="42.6142240" lon="-5.5424150">
        <ele>846.0</ele>
        <time>2021-08-21T04:02:28Z</time>
      </trkpt>
      <trkpt lat="42.6142250" lon="-5.5423790">
        <ele>846.0</ele>
        <time>2021-08-21T04:02:29Z</time>
      </trkpt>
      <trkpt lat="42.6142220" lon="-5.5423460">
        <ele>846.0</ele>
        <time>2021-08-21T04:02:30Z</time>
      </trkpt>
      <trkpt lat="42.6142130" lon="-5.5423180">
        <ele>845.0</ele>
        <time>2021-08-21T04:02:31Z</time>
      </trkpt>
      <trkpt lat="42.6141980" lon="-5.5422910">
        <ele>845.0</ele>
        <time>2021-08-21T04:02:32Z</time>
      </trkpt>
      <trkpt lat="42.6141790" lon="-5.5422630">
        <ele>845.0</ele>
        <time>2021-08-21T04:02:33Z</time>
      </trkpt>
      <trkpt lat="42.6141560" lon="-5.5422390">
        <ele>845.0</ele>
        <time>2021-08-21T04:02:34Z</time>
      </trkpt>
      <trkpt lat="42.6141350" lon="-5.5422160">
        <ele>845.0</ele>
        <time>2021-08-21T04:02:35Z</time>
      </trkpt>
      <trkpt lat="42.6141150" lon="-5.5421950">
        <ele>845.0</ele>
        <time>2021-08-21T04:02:36Z</time>
      </trkpt>
      <trkpt lat="42.6140910" lon="-5.5421800">
        <ele>845.0</ele>
        <time>2021-08-21T04:02:37Z</time>
      </trkpt>
      <trkpt lat="42.6140720" lon="-5.5421620">
        <ele>845.0</ele>
        <time>2021-08-21T04:02:38Z</time>
      </trkpt>
      <trkpt lat="42.6140480" lon="-5.5421480">
        <ele>845.0</ele>
        <time>2021-08-21T04:02:39Z</time>
      </trkpt>
      <trkpt lat="42.6140160" lon="-5.5421380">
        <ele>845.0</ele>
        <time>2021-08-21T04:02:40Z</time>
      </trkpt>
      <trkpt lat="42.6139890" lon="-5.5421320">
        <ele>845.0</ele>
        <time>2021-08-21T04:02:41Z</time>
      </trkpt>
      <trkpt lat="42.6139600" lon="-5.5421310">
        <ele>844.0</ele>
        <time>2021-08-21T04:02:42Z</time>
      </trkpt>
      <trkpt lat="42.6139300" lon="-5.5421320">
        <ele>844.0</ele>
        <time>2021-08-21T04:02:43Z</time>
      </trkpt>
      <trkpt lat="42.6139010" lon="-5.5421330">
        <ele>844.0</ele>
        <time>2021-08-21T04:02:44Z</time>
      </trkpt>
      <trkpt lat="42.6138720" lon="-5.5421370">
        <ele>844.0</ele>
        <time>2021-08-21T04:02:45Z</time>
      </trkpt>
      <trkpt lat="42.6138460" lon="-5.5421380">
        <ele>844.0</ele>
        <time>2021-08-21T04:02:46Z</time>
      </trkpt>
      <trkpt lat="42.6138210" lon="-5.5421380">
        <ele>844.0</ele>
        <time>2021-08-21T04:02:47Z</time>
      </trkpt>
      <trkpt lat="42.6137970" lon="-5.5421270">
        <ele>843.0</ele>
        <time>2021-08-21T04:02:48Z</time>
      </trkpt>
      <trkpt lat="42.6137660" lon="-5.5421100">
        <ele>843.0</ele>
        <time>2021-08-21T04:02:49Z</time>
      </trkpt>
      <trkpt lat="42.6137550" lon="-5.5421050">
        <ele>843.0</ele>
        <time>2021-08-21T04:02:50Z</time>
      </trkpt>
      <trkpt lat="42.6137320" lon="-5.5420860">
        <ele>843.0</ele>
        <time>2021-08-21T04:02:51Z</time>
      </trkpt>
      <trkpt lat="42.6137080" lon="-5.5420600">
        <ele>842.0</ele>
        <time>2021-08-21T04:02:52Z</time>
      </trkpt>
      <trkpt lat="42.6136840" lon="-5.5420370">
        <ele>842.0</ele>
        <time>2021-08-21T04:02:53Z</time>
      </trkpt>
      <trkpt lat="42.6136500" lon="-5.5420070">
        <ele>842.0</ele>
        <time>2021-08-21T04:02:54Z</time>
      </trkpt>
      <trkpt lat="42.6136380" lon="-5.5419970">
        <ele>842.0</ele>
        <time>2021-08-21T04:02:55Z</time>
      </trkpt>
      <trkpt lat="42.6136170" lon="-5.5419710">
        <ele>842.0</ele>
        <time>2021-08-21T04:02:56Z</time>
      </trkpt>
      <trkpt lat="42.6135960" lon="-5.5419480">
        <ele>842.0</ele>
        <time>2021-08-21T04:02:57Z</time>
      </trkpt>
      <trkpt lat="42.6135630" lon="-5.5419160">
        <ele>842.0</ele>
        <time>2021-08-21T04:02:58Z</time>
      </trkpt>
      <trkpt lat="42.6135510" lon="-5.5419040">
        <ele>842.0</ele>
        <time>2021-08-21T04:02:59Z</time>
      </trkpt>
      <trkpt lat="42.6135260" lon="-5.5418840">
        <ele>842.0</ele>
        <time>2021-08-21T04:03:00Z</time>
      </trkpt>
      <trkpt lat="42.6134990" lon="-5.5418640">
        <ele>843.0</ele>
        <time>2021-08-21T04:03:01Z</time>
      </trkpt>
      <trkpt lat="42.6134730" lon="-5.5418430">
        <ele>843.0</ele>
        <time>2021-08-21T04:03:02Z</time>
      </trkpt>
      <trkpt lat="42.6134460" lon="-5.5418240">
        <ele>843.0</ele>
        <time>2021-08-21T04:03:03Z</time>
      </trkpt>
      <trkpt lat="42.6134210" lon="-5.5418040">
        <ele>843.0</ele>
        <time>2021-08-21T04:03:04Z</time>
      </trkpt>
      <trkpt lat="42.6133970" lon="-5.5417830">
        <ele>843.0</ele>
        <time>2021-08-21T04:03:05Z</time>
      </trkpt>
      <trkpt lat="42.6133800" lon="-5.5417630">
        <ele>843.0</ele>
        <time>2021-08-21T04:03:06Z</time>
      </trkpt>
      <trkpt lat="42.6133600" lon="-5.5417460">
        <ele>843.0</ele>
        <time>2021-08-21T04:03:07Z</time>
      </trkpt>
      <trkpt lat="42.6133430" lon="-5.5417250">
        <ele>843.0</ele>
        <time>2021-08-21T04:03:08Z</time>
      </trkpt>
      <trkpt lat="42.6133280" lon="-5.5417040">
        <ele>843.0</ele>
        <time>2021-08-21T04:03:09Z</time>
      </trkpt>
      <trkpt lat="42.6133270" lon="-5.5416570">
        <ele>843.0</ele>
        <time>2021-08-21T04:03:10Z</time>
      </trkpt>
      <trkpt lat="42.6133270" lon="-5.5416400">
        <ele>843.0</ele>
        <time>2021-08-21T04:03:11Z</time>
      </trkpt>
      <trkpt lat="42.6133320" lon="-5.5416030">
        <ele>843.0</ele>
        <time>2021-08-21T04:03:12Z</time>
      </trkpt>
      <trkpt lat="42.6133360" lon="-5.5415710">
        <ele>843.0</ele>
        <time>2021-08-21T04:03:13Z</time>
      </trkpt>
      <trkpt lat="42.6133370" lon="-5.5415350">
        <ele>843.0</ele>
        <time>2021-08-21T04:03:14Z</time>
      </trkpt>
      <trkpt lat="42.6133350" lon="-5.5415020">
        <ele>843.0</ele>
        <time>2021-08-21T04:03:15Z</time>
      </trkpt>
      <trkpt lat="42.6133340" lon="-5.5414700">
        <ele>843.0</ele>
        <time>2021-08-21T04:03:16Z</time>
      </trkpt>
      <trkpt lat="42.6133400" lon="-5.5414360">
        <ele>843.0</ele>
        <time>2021-08-21T04:03:17Z</time>
      </trkpt>
      <trkpt lat="42.6133440" lon="-5.5413970">
        <ele>843.0</ele>
        <time>2021-08-21T04:03:18Z</time>
      </trkpt>
      <trkpt lat="42.6133540" lon="-5.5413560">
        <ele>843.0</ele>
        <time>2021-08-21T04:03:19Z</time>
      </trkpt>
      <trkpt lat="42.6133600" lon="-5.5412980">
        <ele>843.0</ele>
        <time>2021-08-21T04:03:20Z</time>
      </trkpt>
      <trkpt lat="42.6133590" lon="-5.5412780">
        <ele>842.0</ele>
        <time>2021-08-21T04:03:21Z</time>
      </trkpt>
      <trkpt lat="42.6133560" lon="-5.5412140">
        <ele>842.0</ele>
        <time>2021-08-21T04:03:22Z</time>
      </trkpt>
      <trkpt lat="42.6133540" lon="-5.5411940">
        <ele>842.0</ele>
        <time>2021-08-21T04:03:23Z</time>
      </trkpt>
      <trkpt lat="42.6133590" lon="-5.5411520">
        <ele>842.0</ele>
        <time>2021-08-21T04:03:24Z</time>
      </trkpt>
      <trkpt lat="42.6133600" lon="-5.5411110">
        <ele>842.0</ele>
        <time>2021-08-21T04:03:25Z</time>
      </trkpt>
      <trkpt lat="42.6133580" lon="-5.5410710">
        <ele>843.0</ele>
        <time>2021-08-21T04:03:26Z</time>
      </trkpt>
      <trkpt lat="42.6133530" lon="-5.5410150">
        <ele>843.0</ele>
        <time>2021-08-21T04:03:27Z</time>
      </trkpt>
      <trkpt lat="42.6133530" lon="-5.5409960">
        <ele>842.0</ele>
        <time>2021-08-21T04:03:28Z</time>
      </trkpt>
      <trkpt lat="42.6133500" lon="-5.5409590">
        <ele>842.0</ele>
        <time>2021-08-21T04:03:29Z</time>
      </trkpt>
      <trkpt lat="42.6133540" lon="-5.5409230">
        <ele>842.0</ele>
        <time>2021-08-21T04:03:30Z</time>
      </trkpt>
      <trkpt lat="42.6133520" lon="-5.5408890">
        <ele>842.0</ele>
        <time>2021-08-21T04:03:31Z</time>
      </trkpt>
      <trkpt lat="42.6133460" lon="-5.5408360">
        <ele>842.0</ele>
        <time>2021-08-21T04:03:32Z</time>
      </trkpt>
      <trkpt lat="42.6133420" lon="-5.5408200">
        <ele>842.0</ele>
        <time>2021-08-21T04:03:33Z</time>
      </trkpt>
      <trkpt lat="42.6133330" lon="-5.5407750">
        <ele>842.0</ele>
        <time>2021-08-21T04:03:34Z</time>
      </trkpt>
      <trkpt lat="42.6133290" lon="-5.5407620">
        <ele>842.0</ele>
        <time>2021-08-21T04:03:35Z</time>
      </trkpt>
      <trkpt lat="42.6133170" lon="-5.5407240">
        <ele>842.0</ele>
        <time>2021-08-21T04:03:36Z</time>
      </trkpt>
      <trkpt lat="42.6133120" lon="-5.5407110">
        <ele>842.0</ele>
        <time>2021-08-21T04:03:37Z</time>
      </trkpt>
      <trkpt lat="42.6133020" lon="-5.5406810">
        <ele>842.0</ele>
        <time>2021-08-21T04:03:38Z</time>
      </trkpt>
      <trkpt lat="42.6132810" lon="-5.5406570">
        <ele>842.0</ele>
        <time>2021-08-21T04:03:39Z</time>
      </trkpt>
      <trkpt lat="42.6132620" lon="-5.5406380">
        <ele>842.0</ele>
        <time>2021-08-21T04:03:40Z</time>
      </trkpt>
      <trkpt lat="42.6132460" lon="-5.5406050">
        <ele>842.0</ele>
        <time>2021-08-21T04:03:41Z</time>
      </trkpt>
      <trkpt lat="42.6132290" lon="-5.5405720">
        <ele>842.0</ele>
        <time>2021-08-21T04:03:42Z</time>
      </trkpt>
      <trkpt lat="42.6132130" lon="-5.5405390">
        <ele>842.0</ele>
        <time>2021-08-21T04:03:43Z</time>
      </trkpt>
      <trkpt lat="42.6131830" lon="-5.5404580">
        <ele>842.0</ele>
        <time>2021-08-21T04:03:44Z</time>
      </trkpt>
      <trkpt lat="42.6131830" lon="-5.5404580">
        <ele>842.0</ele>
        <time>2021-08-21T04:03:45Z</time>
      </trkpt>
      <trkpt lat="42.6131590" lon="-5.5403770">
        <ele>842.0</ele>
        <time>2021-08-21T04:03:47Z</time>
      </trkpt>
      <trkpt lat="42.6131550" lon="-5.5403630">
        <ele>842.0</ele>
        <time>2021-08-21T04:03:48Z</time>
      </trkpt>
      <trkpt lat="42.6131450" lon="-5.5403280">
        <ele>842.0</ele>
        <time>2021-08-21T04:03:49Z</time>
      </trkpt>
      <trkpt lat="42.6131310" lon="-5.5402990">
        <ele>842.0</ele>
        <time>2021-08-21T04:03:50Z</time>
      </trkpt>
      <trkpt lat="42.6131280" lon="-5.5402690">
        <ele>842.0</ele>
        <time>2021-08-21T04:03:51Z</time>
      </trkpt>
      <trkpt lat="42.6131180" lon="-5.5402450">
        <ele>842.0</ele>
        <time>2021-08-21T04:03:52Z</time>
      </trkpt>
      <trkpt lat="42.6131080" lon="-5.5402200">
        <ele>842.0</ele>
        <time>2021-08-21T04:03:53Z</time>
      </trkpt>
      <trkpt lat="42.6130940" lon="-5.5401990">
        <ele>842.0</ele>
        <time>2021-08-21T04:03:54Z</time>
      </trkpt>
      <trkpt lat="42.6130820" lon="-5.5401800">
        <ele>842.0</ele>
        <time>2021-08-21T04:03:55Z</time>
      </trkpt>
      <trkpt lat="42.6130650" lon="-5.5401600">
        <ele>842.0</ele>
        <time>2021-08-21T04:03:56Z</time>
      </trkpt>
      <trkpt lat="42.6130530" lon="-5.5401340">
        <ele>842.0</ele>
        <time>2021-08-21T04:03:57Z</time>
      </trkpt>
      <trkpt lat="42.6130410" lon="-5.5401030">
        <ele>842.0</ele>
        <time>2021-08-21T04:03:58Z</time>
      </trkpt>
      <trkpt lat="42.6130270" lon="-5.5400720">
        <ele>842.0</ele>
        <time>2021-08-21T04:03:59Z</time>
      </trkpt>
      <trkpt lat="42.6130140" lon="-5.5400460">
        <ele>842.0</ele>
        <time>2021-08-21T04:04:00Z</time>
      </trkpt>
      <trkpt lat="42.6130020" lon="-5.5400150">
        <ele>842.0</ele>
        <time>2021-08-21T04:04:01Z</time>
      </trkpt>
      <trkpt lat="42.6129890" lon="-5.5399800">
        <ele>842.0</ele>
        <time>2021-08-21T04:04:02Z</time>
      </trkpt>
      <trkpt lat="42.6129830" lon="-5.5399390">
        <ele>842.0</ele>
        <time>2021-08-21T04:04:03Z</time>
      </trkpt>
      <trkpt lat="42.6129790" lon="-5.5398950">
        <ele>842.0</ele>
        <time>2021-08-21T04:04:04Z</time>
      </trkpt>
      <trkpt lat="42.6129800" lon="-5.5398400">
        <ele>842.0</ele>
        <time>2021-08-21T04:04:05Z</time>
      </trkpt>
      <trkpt lat="42.6129770" lon="-5.5397950">
        <ele>842.0</ele>
        <time>2021-08-21T04:04:06Z</time>
      </trkpt>
      <trkpt lat="42.6129740" lon="-5.5397560">
        <ele>842.0</ele>
        <time>2021-08-21T04:04:07Z</time>
      </trkpt>
      <trkpt lat="42.6129680" lon="-5.5397180">
        <ele>842.0</ele>
        <time>2021-08-21T04:04:08Z</time>
      </trkpt>
      <trkpt lat="42.6129650" lon="-5.5396800">
        <ele>842.0</ele>
        <time>2021-08-21T04:04:09Z</time>
      </trkpt>
      <trkpt lat="42.6129560" lon="-5.5396400">
        <ele>842.0</ele>
        <time>2021-08-21T04:04:10Z</time>
      </trkpt>
      <trkpt lat="42.6129520" lon="-5.5396000">
        <ele>842.0</ele>
        <time>2021-08-21T04:04:11Z</time>
      </trkpt>
      <trkpt lat="42.6129570" lon="-5.5395450">
        <ele>842.0</ele>
        <time>2021-08-21T04:04:12Z</time>
      </trkpt>
      <trkpt lat="42.6129590" lon="-5.5395270">
        <ele>842.0</ele>
        <time>2021-08-21T04:04:13Z</time>
      </trkpt>
      <trkpt lat="42.6129490" lon="-5.5394930">
        <ele>842.0</ele>
        <time>2021-08-21T04:04:14Z</time>
      </trkpt>
      <trkpt lat="42.6129380" lon="-5.5394630">
        <ele>842.0</ele>
        <time>2021-08-21T04:04:15Z</time>
      </trkpt>
      <trkpt lat="42.6129270" lon="-5.5394330">
        <ele>842.0</ele>
        <time>2021-08-21T04:04:16Z</time>
      </trkpt>
      <trkpt lat="42.6129140" lon="-5.5394020">
        <ele>842.0</ele>
        <time>2021-08-21T04:04:17Z</time>
      </trkpt>
      <trkpt lat="42.6129020" lon="-5.5393710">
        <ele>842.0</ele>
        <time>2021-08-21T04:04:18Z</time>
      </trkpt>
      <trkpt lat="42.6128940" lon="-5.5393330">
        <ele>842.0</ele>
        <time>2021-08-21T04:04:19Z</time>
      </trkpt>
      <trkpt lat="42.6128840" lon="-5.5393040">
        <ele>842.0</ele>
        <time>2021-08-21T04:04:20Z</time>
      </trkpt>
      <trkpt lat="42.6128710" lon="-5.5392740">
        <ele>842.0</ele>
        <time>2021-08-21T04:04:21Z</time>
      </trkpt>
      <trkpt lat="42.6128590" lon="-5.5392430">
        <ele>842.0</ele>
        <time>2021-08-21T04:04:22Z</time>
      </trkpt>
      <trkpt lat="42.6128500" lon="-5.5392110">
        <ele>842.0</ele>
        <time>2021-08-21T04:04:23Z</time>
      </trkpt>
      <trkpt lat="42.6128410" lon="-5.5391790">
        <ele>842.0</ele>
        <time>2021-08-21T04:04:24Z</time>
      </trkpt>
      <trkpt lat="42.6128360" lon="-5.5391450">
        <ele>842.0</ele>
        <time>2021-08-21T04:04:25Z</time>
      </trkpt>
      <trkpt lat="42.6128280" lon="-5.5391150">
        <ele>842.0</ele>
        <time>2021-08-21T04:04:26Z</time>
      </trkpt>
      <trkpt lat="42.6128210" lon="-5.5390840">
        <ele>842.0</ele>
        <time>2021-08-21T04:04:27Z</time>
      </trkpt>
      <trkpt lat="42.6128110" lon="-5.5390510">
        <ele>842.0</ele>
        <time>2021-08-21T04:04:28Z</time>
      </trkpt>
      <trkpt lat="42.6128010" lon="-5.5390190">
        <ele>842.0</ele>
        <time>2021-08-21T04:04:29Z</time>
      </trkpt>
      <trkpt lat="42.6127940" lon="-5.5389850">
        <ele>842.0</ele>
        <time>2021-08-21T04:04:30Z</time>
      </trkpt>
      <trkpt lat="42.6127840" lon="-5.5389530">
        <ele>842.0</ele>
        <time>2021-08-21T04:04:31Z</time>
      </trkpt>
      <trkpt lat="42.6127760" lon="-5.5389190">
        <ele>842.0</ele>
        <time>2021-08-21T04:04:32Z</time>
      </trkpt>
      <trkpt lat="42.6127700" lon="-5.5388860">
        <ele>842.0</ele>
        <time>2021-08-21T04:04:33Z</time>
      </trkpt>
      <trkpt lat="42.6127700" lon="-5.5388860">
        <ele>842.0</ele>
        <time>2021-08-21T04:04:34Z</time>
      </trkpt>
      <trkpt lat="42.6127550" lon="-5.5388200">
        <ele>842.0</ele>
        <time>2021-08-21T04:04:35Z</time>
      </trkpt>
      <trkpt lat="42.6127470" lon="-5.5387890">
        <ele>842.0</ele>
        <time>2021-08-21T04:04:36Z</time>
      </trkpt>
      <trkpt lat="42.6127370" lon="-5.5387570">
        <ele>842.0</ele>
        <time>2021-08-21T04:04:37Z</time>
      </trkpt>
      <trkpt lat="42.6127280" lon="-5.5387240">
        <ele>842.0</ele>
        <time>2021-08-21T04:04:38Z</time>
      </trkpt>
      <trkpt lat="42.6127200" lon="-5.5386920">
        <ele>842.0</ele>
        <time>2021-08-21T04:04:39Z</time>
      </trkpt>
      <trkpt lat="42.6127120" lon="-5.5386620">
        <ele>842.0</ele>
        <time>2021-08-21T04:04:40Z</time>
      </trkpt>
      <trkpt lat="42.6127020" lon="-5.5386310">
        <ele>842.0</ele>
        <time>2021-08-21T04:04:41Z</time>
      </trkpt>
      <trkpt lat="42.6126930" lon="-5.5385980">
        <ele>842.0</ele>
        <time>2021-08-21T04:04:42Z</time>
      </trkpt>
      <trkpt lat="42.6126860" lon="-5.5385660">
        <ele>842.0</ele>
        <time>2021-08-21T04:04:43Z</time>
      </trkpt>
      <trkpt lat="42.6126790" lon="-5.5385330">
        <ele>842.0</ele>
        <time>2021-08-21T04:04:44Z</time>
      </trkpt>
      <trkpt lat="42.6126720" lon="-5.5385020">
        <ele>842.0</ele>
        <time>2021-08-21T04:04:45Z</time>
      </trkpt>
      <trkpt lat="42.6126650" lon="-5.5384700">
        <ele>842.0</ele>
        <time>2021-08-21T04:04:46Z</time>
      </trkpt>
      <trkpt lat="42.6126590" lon="-5.5384370">
        <ele>841.0</ele>
        <time>2021-08-21T04:04:47Z</time>
      </trkpt>
      <trkpt lat="42.6126540" lon="-5.5384020">
        <ele>841.0</ele>
        <time>2021-08-21T04:04:48Z</time>
      </trkpt>
      <trkpt lat="42.6126470" lon="-5.5383680">
        <ele>841.0</ele>
        <time>2021-08-21T04:04:49Z</time>
      </trkpt>
      <trkpt lat="42.6126390" lon="-5.5383370">
        <ele>841.0</ele>
        <time>2021-08-21T04:04:50Z</time>
      </trkpt>
      <trkpt lat="42.6126290" lon="-5.5383050">
        <ele>841.0</ele>
        <time>2021-08-21T04:04:51Z</time>
      </trkpt>
      <trkpt lat="42.6126220" lon="-5.5382760">
        <ele>841.0</ele>
        <time>2021-08-21T04:04:52Z</time>
      </trkpt>
      <trkpt lat="42.6126160" lon="-5.5382440">
        <ele>841.0</ele>
        <time>2021-08-21T04:04:53Z</time>
      </trkpt>
      <trkpt lat="42.6126100" lon="-5.5382130">
        <ele>841.0</ele>
        <time>2021-08-21T04:04:54Z</time>
      </trkpt>
      <trkpt lat="42.6126020" lon="-5.5381830">
        <ele>842.0</ele>
        <time>2021-08-21T04:04:55Z</time>
      </trkpt>
      <trkpt lat="42.6125940" lon="-5.5381530">
        <ele>842.0</ele>
        <time>2021-08-21T04:04:56Z</time>
      </trkpt>
      <trkpt lat="42.6125880" lon="-5.5381230">
        <ele>842.0</ele>
        <time>2021-08-21T04:04:57Z</time>
      </trkpt>
      <trkpt lat="42.6125790" lon="-5.5380960">
        <ele>842.0</ele>
        <time>2021-08-21T04:04:58Z</time>
      </trkpt>
      <trkpt lat="42.6125700" lon="-5.5380560">
        <ele>842.0</ele>
        <time>2021-08-21T04:04:59Z</time>
      </trkpt>
      <trkpt lat="42.6125660" lon="-5.5380420">
        <ele>842.0</ele>
        <time>2021-08-21T04:05:00Z</time>
      </trkpt>
      <trkpt lat="42.6125570" lon="-5.5380130">
        <ele>842.0</ele>
        <time>2021-08-21T04:05:01Z</time>
      </trkpt>
      <trkpt lat="42.6125530" lon="-5.5379850">
        <ele>842.0</ele>
        <time>2021-08-21T04:05:02Z</time>
      </trkpt>
      <trkpt lat="42.6125450" lon="-5.5379390">
        <ele>842.0</ele>
        <time>2021-08-21T04:05:03Z</time>
      </trkpt>
      <trkpt lat="42.6125420" lon="-5.5379230">
        <ele>842.0</ele>
        <time>2021-08-21T04:05:04Z</time>
      </trkpt>
      <trkpt lat="42.6125350" lon="-5.5378870">
        <ele>842.0</ele>
        <time>2021-08-21T04:05:05Z</time>
      </trkpt>
      <trkpt lat="42.6125360" lon="-5.5378490">
        <ele>842.0</ele>
        <time>2021-08-21T04:05:06Z</time>
      </trkpt>
      <trkpt lat="42.6125350" lon="-5.5378100">
        <ele>842.0</ele>
        <time>2021-08-21T04:05:07Z</time>
      </trkpt>
      <trkpt lat="42.6125250" lon="-5.5377570">
        <ele>842.0</ele>
        <time>2021-08-21T04:05:08Z</time>
      </trkpt>
      <trkpt lat="42.6125210" lon="-5.5377410">
        <ele>842.0</ele>
        <time>2021-08-21T04:05:09Z</time>
      </trkpt>
      <trkpt lat="42.6125140" lon="-5.5377050">
        <ele>842.0</ele>
        <time>2021-08-21T04:05:10Z</time>
      </trkpt>
      <trkpt lat="42.6125070" lon="-5.5376680">
        <ele>842.0</ele>
        <time>2021-08-21T04:05:11Z</time>
      </trkpt>
      <trkpt lat="42.6124990" lon="-5.5376270">
        <ele>842.0</ele>
        <time>2021-08-21T04:05:12Z</time>
      </trkpt>
      <trkpt lat="42.6124960" lon="-5.5375730">
        <ele>842.0</ele>
        <time>2021-08-21T04:05:13Z</time>
      </trkpt>
      <trkpt lat="42.6124950" lon="-5.5375550">
        <ele>842.0</ele>
        <time>2021-08-21T04:05:14Z</time>
      </trkpt>
      <trkpt lat="42.6124940" lon="-5.5375180">
        <ele>842.0</ele>
        <time>2021-08-21T04:05:15Z</time>
      </trkpt>
      <trkpt lat="42.6125050" lon="-5.5374770">
        <ele>842.0</ele>
        <time>2021-08-21T04:05:16Z</time>
      </trkpt>
      <trkpt lat="42.6125060" lon="-5.5374380">
        <ele>842.0</ele>
        <time>2021-08-21T04:05:17Z</time>
      </trkpt>
      <trkpt lat="42.6125040" lon="-5.5374010">
        <ele>842.0</ele>
        <time>2021-08-21T04:05:18Z</time>
      </trkpt>
      <trkpt lat="42.6124980" lon="-5.5373660">
        <ele>842.0</ele>
        <time>2021-08-21T04:05:19Z</time>
      </trkpt>
      <trkpt lat="42.6124950" lon="-5.5373280">
        <ele>842.0</ele>
        <time>2021-08-21T04:05:20Z</time>
      </trkpt>
      <trkpt lat="42.6124900" lon="-5.5372920">
        <ele>841.0</ele>
        <time>2021-08-21T04:05:21Z</time>
      </trkpt>
      <trkpt lat="42.6124870" lon="-5.5372570">
        <ele>841.0</ele>
        <time>2021-08-21T04:05:22Z</time>
      </trkpt>
      <trkpt lat="42.6124850" lon="-5.5372210">
        <ele>841.0</ele>
        <time>2021-08-21T04:05:23Z</time>
      </trkpt>
      <trkpt lat="42.6124830" lon="-5.5371850">
        <ele>841.0</ele>
        <time>2021-08-21T04:05:24Z</time>
      </trkpt>
      <trkpt lat="42.6124800" lon="-5.5371520">
        <ele>841.0</ele>
        <time>2021-08-21T04:05:25Z</time>
      </trkpt>
      <trkpt lat="42.6124800" lon="-5.5371190">
        <ele>841.0</ele>
        <time>2021-08-21T04:05:26Z</time>
      </trkpt>
      <trkpt lat="42.6124800" lon="-5.5370850">
        <ele>841.0</ele>
        <time>2021-08-21T04:05:27Z</time>
      </trkpt>
      <trkpt lat="42.6124720" lon="-5.5370500">
        <ele>841.0</ele>
        <time>2021-08-21T04:05:28Z</time>
      </trkpt>
      <trkpt lat="42.6124690" lon="-5.5370210">
        <ele>841.0</ele>
        <time>2021-08-21T04:05:29Z</time>
      </trkpt>
      <trkpt lat="42.6124710" lon="-5.5369930">
        <ele>841.0</ele>
        <time>2021-08-21T04:05:30Z</time>
      </trkpt>
      <trkpt lat="42.6124800" lon="-5.5369640">
        <ele>841.0</ele>
        <time>2021-08-21T04:05:31Z</time>
      </trkpt>
      <trkpt lat="42.6124900" lon="-5.5369330">
        <ele>841.0</ele>
        <time>2021-08-21T04:05:32Z</time>
      </trkpt>
      <trkpt lat="42.6125010" lon="-5.5369050">
        <ele>842.0</ele>
        <time>2021-08-21T04:05:33Z</time>
      </trkpt>
      <trkpt lat="42.6125140" lon="-5.5368790">
        <ele>842.0</ele>
        <time>2021-08-21T04:05:34Z</time>
      </trkpt>
      <trkpt lat="42.6125280" lon="-5.5368530">
        <ele>842.0</ele>
        <time>2021-08-21T04:05:35Z</time>
      </trkpt>
      <trkpt lat="42.6125450" lon="-5.5368300">
        <ele>842.0</ele>
        <time>2021-08-21T04:05:36Z</time>
      </trkpt>
      <trkpt lat="42.6125600" lon="-5.5368050">
        <ele>842.0</ele>
        <time>2021-08-21T04:05:37Z</time>
      </trkpt>
      <trkpt lat="42.6125850" lon="-5.5367640">
        <ele>842.0</ele>
        <time>2021-08-21T04:05:38Z</time>
      </trkpt>
      <trkpt lat="42.6125930" lon="-5.5367500">
        <ele>842.0</ele>
        <time>2021-08-21T04:05:39Z</time>
      </trkpt>
      <trkpt lat="42.6126200" lon="-5.5367080">
        <ele>842.0</ele>
        <time>2021-08-21T04:05:40Z</time>
      </trkpt>
      <trkpt lat="42.6126280" lon="-5.5366920">
        <ele>842.0</ele>
        <time>2021-08-21T04:05:41Z</time>
      </trkpt>
      <trkpt lat="42.6126420" lon="-5.5366570">
        <ele>842.0</ele>
        <time>2021-08-21T04:05:42Z</time>
      </trkpt>
      <trkpt lat="42.6126420" lon="-5.5366570">
        <ele>842.0</ele>
        <time>2021-08-21T04:05:43Z</time>
      </trkpt>
      <trkpt lat="42.6126680" lon="-5.5365680">
        <ele>842.0</ele>
        <time>2021-08-21T04:05:44Z</time>
      </trkpt>
      <trkpt lat="42.6126740" lon="-5.5365510">
        <ele>842.0</ele>
        <time>2021-08-21T04:05:45Z</time>
      </trkpt>
      <trkpt lat="42.6126890" lon="-5.5365220">
        <ele>842.0</ele>
        <time>2021-08-21T04:05:46Z</time>
      </trkpt>
      <trkpt lat="42.6126980" lon="-5.5364960">
        <ele>842.0</ele>
        <time>2021-08-21T04:05:47Z</time>
      </trkpt>
      <trkpt lat="42.6127080" lon="-5.5364680">
        <ele>842.0</ele>
        <time>2021-08-21T04:05:48Z</time>
      </trkpt>
      <trkpt lat="42.6127290" lon="-5.5364240">
        <ele>842.0</ele>
        <time>2021-08-21T04:05:49Z</time>
      </trkpt>
      <trkpt lat="42.6127350" lon="-5.5364090">
        <ele>842.0</ele>
        <time>2021-08-21T04:05:50Z</time>
      </trkpt>
      <trkpt lat="42.6127520" lon="-5.5363720">
        <ele>842.0</ele>
        <time>2021-08-21T04:05:51Z</time>
      </trkpt>
      <trkpt lat="42.6127580" lon="-5.5363600">
        <ele>842.0</ele>
        <time>2021-08-21T04:05:52Z</time>
      </trkpt>
      <trkpt lat="42.6127720" lon="-5.5363320">
        <ele>843.0</ele>
        <time>2021-08-21T04:05:53Z</time>
      </trkpt>
      <trkpt lat="42.6127830" lon="-5.5363050">
        <ele>843.0</ele>
        <time>2021-08-21T04:05:54Z</time>
      </trkpt>
      <trkpt lat="42.6128250" lon="-5.5362420">
        <ele>843.0</ele>
        <time>2021-08-21T04:05:56Z</time>
      </trkpt>
      <trkpt lat="42.6128330" lon="-5.5362280">
        <ele>843.0</ele>
        <time>2021-08-21T04:05:57Z</time>
      </trkpt>
      <trkpt lat="42.6128520" lon="-5.5362030">
        <ele>843.0</ele>
        <time>2021-08-21T04:05:58Z</time>
      </trkpt>
      <trkpt lat="42.6128740" lon="-5.5361780">
        <ele>843.0</ele>
        <time>2021-08-21T04:05:59Z</time>
      </trkpt>
      <trkpt lat="42.6129220" lon="-5.5361200">
        <ele>843.0</ele>
        <time>2021-08-21T04:06:01Z</time>
      </trkpt>
      <trkpt lat="42.6129310" lon="-5.5361070">
        <ele>842.0</ele>
        <time>2021-08-21T04:06:02Z</time>
      </trkpt>
      <trkpt lat="42.6129490" lon="-5.5360820">
        <ele>842.0</ele>
        <time>2021-08-21T04:06:03Z</time>
      </trkpt>
      <trkpt lat="42.6129620" lon="-5.5360590">
        <ele>842.0</ele>
        <time>2021-08-21T04:06:04Z</time>
      </trkpt>
      <trkpt lat="42.6129790" lon="-5.5360340">
        <ele>842.0</ele>
        <time>2021-08-21T04:06:05Z</time>
      </trkpt>
      <trkpt lat="42.6130010" lon="-5.5360090">
        <ele>842.0</ele>
        <time>2021-08-21T04:06:06Z</time>
      </trkpt>
      <trkpt lat="42.6130170" lon="-5.5359850">
        <ele>842.0</ele>
        <time>2021-08-21T04:06:07Z</time>
      </trkpt>
      <trkpt lat="42.6130490" lon="-5.5359480">
        <ele>842.0</ele>
        <time>2021-08-21T04:06:08Z</time>
      </trkpt>
      <trkpt lat="42.6130590" lon="-5.5359350">
        <ele>842.0</ele>
        <time>2021-08-21T04:06:09Z</time>
      </trkpt>
      <trkpt lat="42.6130820" lon="-5.5359080">
        <ele>842.0</ele>
        <time>2021-08-21T04:06:10Z</time>
      </trkpt>
      <trkpt lat="42.6130980" lon="-5.5358780">
        <ele>841.0</ele>
        <time>2021-08-21T04:06:11Z</time>
      </trkpt>
      <trkpt lat="42.6131140" lon="-5.5358490">
        <ele>841.0</ele>
        <time>2021-08-21T04:06:12Z</time>
      </trkpt>
      <trkpt lat="42.6131310" lon="-5.5358190">
        <ele>841.0</ele>
        <time>2021-08-21T04:06:13Z</time>
      </trkpt>
      <trkpt lat="42.6131530" lon="-5.5357790">
        <ele>841.0</ele>
        <time>2021-08-21T04:06:14Z</time>
      </trkpt>
      <trkpt lat="42.6131590" lon="-5.5357650">
        <ele>841.0</ele>
        <time>2021-08-21T04:06:15Z</time>
      </trkpt>
      <trkpt lat="42.6131730" lon="-5.5357380">
        <ele>841.0</ele>
        <time>2021-08-21T04:06:16Z</time>
      </trkpt>
      <trkpt lat="42.6131900" lon="-5.5357110">
        <ele>841.0</ele>
        <time>2021-08-21T04:06:17Z</time>
      </trkpt>
      <trkpt lat="42.6132160" lon="-5.5356700">
        <ele>841.0</ele>
        <time>2021-08-21T04:06:18Z</time>
      </trkpt>
      <trkpt lat="42.6132240" lon="-5.5356570">
        <ele>840.0</ele>
        <time>2021-08-21T04:06:19Z</time>
      </trkpt>
      <trkpt lat="42.6132440" lon="-5.5356320">
        <ele>840.0</ele>
        <time>2021-08-21T04:06:20Z</time>
      </trkpt>
      <trkpt lat="42.6132640" lon="-5.5356080">
        <ele>840.0</ele>
        <time>2021-08-21T04:06:21Z</time>
      </trkpt>
      <trkpt lat="42.6132800" lon="-5.5355840">
        <ele>840.0</ele>
        <time>2021-08-21T04:06:22Z</time>
      </trkpt>
      <trkpt lat="42.6132960" lon="-5.5355580">
        <ele>840.0</ele>
        <time>2021-08-21T04:06:23Z</time>
      </trkpt>
      <trkpt lat="42.6133130" lon="-5.5355310">
        <ele>840.0</ele>
        <time>2021-08-21T04:06:24Z</time>
      </trkpt>
      <trkpt lat="42.6133300" lon="-5.5355060">
        <ele>840.0</ele>
        <time>2021-08-21T04:06:25Z</time>
      </trkpt>
      <trkpt lat="42.6133440" lon="-5.5354820">
        <ele>840.0</ele>
        <time>2021-08-21T04:06:26Z</time>
      </trkpt>
      <trkpt lat="42.6133610" lon="-5.5354580">
        <ele>840.0</ele>
        <time>2021-08-21T04:06:27Z</time>
      </trkpt>
      <trkpt lat="42.6133810" lon="-5.5354310">
        <ele>840.0</ele>
        <time>2021-08-21T04:06:28Z</time>
      </trkpt>
      <trkpt lat="42.6133980" lon="-5.5354020">
        <ele>840.0</ele>
        <time>2021-08-21T04:06:29Z</time>
      </trkpt>
      <trkpt lat="42.6134130" lon="-5.5353730">
        <ele>840.0</ele>
        <time>2021-08-21T04:06:30Z</time>
      </trkpt>
      <trkpt lat="42.6134270" lon="-5.5353440">
        <ele>840.0</ele>
        <time>2021-08-21T04:06:31Z</time>
      </trkpt>
      <trkpt lat="42.6134500" lon="-5.5353140">
        <ele>840.0</ele>
        <time>2021-08-21T04:06:32Z</time>
      </trkpt>
      <trkpt lat="42.6134650" lon="-5.5352860">
        <ele>840.0</ele>
        <time>2021-08-21T04:06:33Z</time>
      </trkpt>
      <trkpt lat="42.6134830" lon="-5.5352560">
        <ele>840.0</ele>
        <time>2021-08-21T04:06:34Z</time>
      </trkpt>
      <trkpt lat="42.6135050" lon="-5.5352290">
        <ele>840.0</ele>
        <time>2021-08-21T04:06:35Z</time>
      </trkpt>
      <trkpt lat="42.6135220" lon="-5.5352000">
        <ele>840.0</ele>
        <time>2021-08-21T04:06:36Z</time>
      </trkpt>
      <trkpt lat="42.6135370" lon="-5.5351720">
        <ele>839.0</ele>
        <time>2021-08-21T04:06:37Z</time>
      </trkpt>
      <trkpt lat="42.6135520" lon="-5.5351460">
        <ele>839.0</ele>
        <time>2021-08-21T04:06:38Z</time>
      </trkpt>
      <trkpt lat="42.6135680" lon="-5.5351170">
        <ele>839.0</ele>
        <time>2021-08-21T04:06:39Z</time>
      </trkpt>
      <trkpt lat="42.6135830" lon="-5.5350900">
        <ele>839.0</ele>
        <time>2021-08-21T04:06:40Z</time>
      </trkpt>
      <trkpt lat="42.6135980" lon="-5.5350630">
        <ele>839.0</ele>
        <time>2021-08-21T04:06:41Z</time>
      </trkpt>
      <trkpt lat="42.6136140" lon="-5.5350350">
        <ele>839.0</ele>
        <time>2021-08-21T04:06:42Z</time>
      </trkpt>
      <trkpt lat="42.6136340" lon="-5.5350090">
        <ele>839.0</ele>
        <time>2021-08-21T04:06:43Z</time>
      </trkpt>
      <trkpt lat="42.6136470" lon="-5.5349820">
        <ele>839.0</ele>
        <time>2021-08-21T04:06:44Z</time>
      </trkpt>
      <trkpt lat="42.6136610" lon="-5.5349530">
        <ele>839.0</ele>
        <time>2021-08-21T04:06:45Z</time>
      </trkpt>
      <trkpt lat="42.6136850" lon="-5.5349120">
        <ele>839.0</ele>
        <time>2021-08-21T04:06:46Z</time>
      </trkpt>
      <trkpt lat="42.6136940" lon="-5.5348980">
        <ele>839.0</ele>
        <time>2021-08-21T04:06:47Z</time>
      </trkpt>
      <trkpt lat="42.6137130" lon="-5.5348710">
        <ele>838.0</ele>
        <time>2021-08-21T04:06:48Z</time>
      </trkpt>
      <trkpt lat="42.6137300" lon="-5.5348430">
        <ele>838.0</ele>
        <time>2021-08-21T04:06:49Z</time>
      </trkpt>
      <trkpt lat="42.6137510" lon="-5.5348140">
        <ele>838.0</ele>
        <time>2021-08-21T04:06:50Z</time>
      </trkpt>
      <trkpt lat="42.6137850" lon="-5.5347610">
        <ele>838.0</ele>
        <time>2021-08-21T04:06:51Z</time>
      </trkpt>
      <trkpt lat="42.6138030" lon="-5.5347340">
        <ele>838.0</ele>
        <time>2021-08-21T04:06:53Z</time>
      </trkpt>
      <trkpt lat="42.6138200" lon="-5.5347060">
        <ele>838.0</ele>
        <time>2021-08-21T04:06:54Z</time>
      </trkpt>
      <trkpt lat="42.6138400" lon="-5.5346790">
        <ele>838.0</ele>
        <time>2021-08-21T04:06:55Z</time>
      </trkpt>
      <trkpt lat="42.6138560" lon="-5.5346530">
        <ele>838.0</ele>
        <time>2021-08-21T04:06:56Z</time>
      </trkpt>
      <trkpt lat="42.6138750" lon="-5.5346260">
        <ele>838.0</ele>
        <time>2021-08-21T04:06:57Z</time>
      </trkpt>
      <trkpt lat="42.6138950" lon="-5.5345990">
        <ele>838.0</ele>
        <time>2021-08-21T04:06:58Z</time>
      </trkpt>
      <trkpt lat="42.6139120" lon="-5.5345730">
        <ele>838.0</ele>
        <time>2021-08-21T04:06:59Z</time>
      </trkpt>
      <trkpt lat="42.6139300" lon="-5.5345450">
        <ele>838.0</ele>
        <time>2021-08-21T04:07:00Z</time>
      </trkpt>
      <trkpt lat="42.6139440" lon="-5.5345190">
        <ele>838.0</ele>
        <time>2021-08-21T04:07:01Z</time>
      </trkpt>
      <trkpt lat="42.6139590" lon="-5.5344920">
        <ele>838.0</ele>
        <time>2021-08-21T04:07:02Z</time>
      </trkpt>
      <trkpt lat="42.6139770" lon="-5.5344660">
        <ele>838.0</ele>
        <time>2021-08-21T04:07:03Z</time>
      </trkpt>
      <trkpt lat="42.6139980" lon="-5.5344400">
        <ele>838.0</ele>
        <time>2021-08-21T04:07:04Z</time>
      </trkpt>
      <trkpt lat="42.6140280" lon="-5.5343970">
        <ele>838.0</ele>
        <time>2021-08-21T04:07:05Z</time>
      </trkpt>
      <trkpt lat="42.6140370" lon="-5.5343830">
        <ele>838.0</ele>
        <time>2021-08-21T04:07:06Z</time>
      </trkpt>
      <trkpt lat="42.6140550" lon="-5.5343550">
        <ele>838.0</ele>
        <time>2021-08-21T04:07:07Z</time>
      </trkpt>
      <trkpt lat="42.6140800" lon="-5.5343130">
        <ele>838.0</ele>
        <time>2021-08-21T04:07:08Z</time>
      </trkpt>
      <trkpt lat="42.6140880" lon="-5.5342980">
        <ele>838.0</ele>
        <time>2021-08-21T04:07:09Z</time>
      </trkpt>
      <trkpt lat="42.6141040" lon="-5.5342690">
        <ele>838.0</ele>
        <time>2021-08-21T04:07:10Z</time>
      </trkpt>
      <trkpt lat="42.6141190" lon="-5.5342410">
        <ele>838.0</ele>
        <time>2021-08-21T04:07:11Z</time>
      </trkpt>
      <trkpt lat="42.6141370" lon="-5.5342150">
        <ele>838.0</ele>
        <time>2021-08-21T04:07:12Z</time>
      </trkpt>
      <trkpt lat="42.6141640" lon="-5.5341730">
        <ele>838.0</ele>
        <time>2021-08-21T04:07:13Z</time>
      </trkpt>
      <trkpt lat="42.6141730" lon="-5.5341590">
        <ele>838.0</ele>
        <time>2021-08-21T04:07:14Z</time>
      </trkpt>
      <trkpt lat="42.6141910" lon="-5.5341310">
        <ele>838.0</ele>
        <time>2021-08-21T04:07:15Z</time>
      </trkpt>
      <trkpt lat="42.6142080" lon="-5.5341040">
        <ele>838.0</ele>
        <time>2021-08-21T04:07:16Z</time>
      </trkpt>
      <trkpt lat="42.6142230" lon="-5.5340770">
        <ele>838.0</ele>
        <time>2021-08-21T04:07:17Z</time>
      </trkpt>
      <trkpt lat="42.6142390" lon="-5.5340480">
        <ele>838.0</ele>
        <time>2021-08-21T04:07:18Z</time>
      </trkpt>
      <trkpt lat="42.6142550" lon="-5.5340190">
        <ele>838.0</ele>
        <time>2021-08-21T04:07:19Z</time>
      </trkpt>
      <trkpt lat="42.6142720" lon="-5.5339900">
        <ele>838.0</ele>
        <time>2021-08-21T04:07:20Z</time>
      </trkpt>
      <trkpt lat="42.6142860" lon="-5.5339630">
        <ele>838.0</ele>
        <time>2021-08-21T04:07:21Z</time>
      </trkpt>
      <trkpt lat="42.6142990" lon="-5.5339340">
        <ele>838.0</ele>
        <time>2021-08-21T04:07:22Z</time>
      </trkpt>
      <trkpt lat="42.6143140" lon="-5.5339080">
        <ele>839.0</ele>
        <time>2021-08-21T04:07:23Z</time>
      </trkpt>
      <trkpt lat="42.6143320" lon="-5.5338830">
        <ele>839.0</ele>
        <time>2021-08-21T04:07:24Z</time>
      </trkpt>
      <trkpt lat="42.6143510" lon="-5.5338550">
        <ele>839.0</ele>
        <time>2021-08-21T04:07:25Z</time>
      </trkpt>
      <trkpt lat="42.6143700" lon="-5.5338260">
        <ele>839.0</ele>
        <time>2021-08-21T04:07:26Z</time>
      </trkpt>
      <trkpt lat="42.6143960" lon="-5.5337850">
        <ele>839.0</ele>
        <time>2021-08-21T04:07:27Z</time>
      </trkpt>
      <trkpt lat="42.6144040" lon="-5.5337720">
        <ele>839.0</ele>
        <time>2021-08-21T04:07:28Z</time>
      </trkpt>
      <trkpt lat="42.6144230" lon="-5.5337430">
        <ele>839.0</ele>
        <time>2021-08-21T04:07:29Z</time>
      </trkpt>
      <trkpt lat="42.6144410" lon="-5.5337180">
        <ele>839.0</ele>
        <time>2021-08-21T04:07:30Z</time>
      </trkpt>
      <trkpt lat="42.6144610" lon="-5.5336930">
        <ele>839.0</ele>
        <time>2021-08-21T04:07:31Z</time>
      </trkpt>
      <trkpt lat="42.6144780" lon="-5.5336660">
        <ele>839.0</ele>
        <time>2021-08-21T04:07:32Z</time>
      </trkpt>
      <trkpt lat="42.6144940" lon="-5.5336390">
        <ele>839.0</ele>
        <time>2021-08-21T04:07:33Z</time>
      </trkpt>
      <trkpt lat="42.6145070" lon="-5.5336120">
        <ele>838.0</ele>
        <time>2021-08-21T04:07:34Z</time>
      </trkpt>
      <trkpt lat="42.6145200" lon="-5.5335870">
        <ele>839.0</ele>
        <time>2021-08-21T04:07:35Z</time>
      </trkpt>
      <trkpt lat="42.6145320" lon="-5.5335620">
        <ele>838.0</ele>
        <time>2021-08-21T04:07:36Z</time>
      </trkpt>
      <trkpt lat="42.6145530" lon="-5.5335230">
        <ele>838.0</ele>
        <time>2021-08-21T04:07:37Z</time>
      </trkpt>
      <trkpt lat="42.6145610" lon="-5.5335090">
        <ele>839.0</ele>
        <time>2021-08-21T04:07:38Z</time>
      </trkpt>
      <trkpt lat="42.6145760" lon="-5.5334840">
        <ele>839.0</ele>
        <time>2021-08-21T04:07:39Z</time>
      </trkpt>
      <trkpt lat="42.6145910" lon="-5.5334580">
        <ele>838.0</ele>
        <time>2021-08-21T04:07:40Z</time>
      </trkpt>
      <trkpt lat="42.6146070" lon="-5.5334300">
        <ele>839.0</ele>
        <time>2021-08-21T04:07:41Z</time>
      </trkpt>
      <trkpt lat="42.6146240" lon="-5.5334040">
        <ele>838.0</ele>
        <time>2021-08-21T04:07:42Z</time>
      </trkpt>
      <trkpt lat="42.6146390" lon="-5.5333760">
        <ele>838.0</ele>
        <time>2021-08-21T04:07:43Z</time>
      </trkpt>
      <trkpt lat="42.6146550" lon="-5.5333490">
        <ele>838.0</ele>
        <time>2021-08-21T04:07:44Z</time>
      </trkpt>
      <trkpt lat="42.6146720" lon="-5.5333230">
        <ele>838.0</ele>
        <time>2021-08-21T04:07:45Z</time>
      </trkpt>
      <trkpt lat="42.6146880" lon="-5.5332960">
        <ele>838.0</ele>
        <time>2021-08-21T04:07:46Z</time>
      </trkpt>
      <trkpt lat="42.6147050" lon="-5.5332680">
        <ele>838.0</ele>
        <time>2021-08-21T04:07:47Z</time>
      </trkpt>
      <trkpt lat="42.6147220" lon="-5.5332410">
        <ele>838.0</ele>
        <time>2021-08-21T04:07:48Z</time>
      </trkpt>
      <trkpt lat="42.6147380" lon="-5.5332150">
        <ele>838.0</ele>
        <time>2021-08-21T04:07:49Z</time>
      </trkpt>
      <trkpt lat="42.6147530" lon="-5.5331890">
        <ele>838.0</ele>
        <time>2021-08-21T04:07:50Z</time>
      </trkpt>
      <trkpt lat="42.6147680" lon="-5.5331640">
        <ele>838.0</ele>
        <time>2021-08-21T04:07:51Z</time>
      </trkpt>
      <trkpt lat="42.6147840" lon="-5.5331370">
        <ele>838.0</ele>
        <time>2021-08-21T04:07:52Z</time>
      </trkpt>
      <trkpt lat="42.6148000" lon="-5.5331110">
        <ele>838.0</ele>
        <time>2021-08-21T04:07:53Z</time>
      </trkpt>
      <trkpt lat="42.6148160" lon="-5.5330850">
        <ele>838.0</ele>
        <time>2021-08-21T04:07:54Z</time>
      </trkpt>
      <trkpt lat="42.6148310" lon="-5.5330590">
        <ele>838.0</ele>
        <time>2021-08-21T04:07:55Z</time>
      </trkpt>
      <trkpt lat="42.6148480" lon="-5.5330320">
        <ele>838.0</ele>
        <time>2021-08-21T04:07:56Z</time>
      </trkpt>
      <trkpt lat="42.6148660" lon="-5.5330050">
        <ele>838.0</ele>
        <time>2021-08-21T04:07:57Z</time>
      </trkpt>
      <trkpt lat="42.6148810" lon="-5.5329780">
        <ele>838.0</ele>
        <time>2021-08-21T04:07:58Z</time>
      </trkpt>
      <trkpt lat="42.6149080" lon="-5.5329380">
        <ele>838.0</ele>
        <time>2021-08-21T04:07:59Z</time>
      </trkpt>
      <trkpt lat="42.6149170" lon="-5.5329250">
        <ele>838.0</ele>
        <time>2021-08-21T04:08:00Z</time>
      </trkpt>
      <trkpt lat="42.6149350" lon="-5.5328980">
        <ele>838.0</ele>
        <time>2021-08-21T04:08:01Z</time>
      </trkpt>
      <trkpt lat="42.6149530" lon="-5.5328740">
        <ele>838.0</ele>
        <time>2021-08-21T04:08:02Z</time>
      </trkpt>
      <trkpt lat="42.6149730" lon="-5.5328490">
        <ele>838.0</ele>
        <time>2021-08-21T04:08:03Z</time>
      </trkpt>
      <trkpt lat="42.6149920" lon="-5.5328240">
        <ele>838.0</ele>
        <time>2021-08-21T04:08:04Z</time>
      </trkpt>
      <trkpt lat="42.6150100" lon="-5.5327960">
        <ele>838.0</ele>
        <time>2021-08-21T04:08:05Z</time>
      </trkpt>
      <trkpt lat="42.6150280" lon="-5.5327690">
        <ele>838.0</ele>
        <time>2021-08-21T04:08:06Z</time>
      </trkpt>
      <trkpt lat="42.6150430" lon="-5.5327430">
        <ele>838.0</ele>
        <time>2021-08-21T04:08:07Z</time>
      </trkpt>
      <trkpt lat="42.6150570" lon="-5.5327190">
        <ele>838.0</ele>
        <time>2021-08-21T04:08:08Z</time>
      </trkpt>
      <trkpt lat="42.6150710" lon="-5.5326950">
        <ele>838.0</ele>
        <time>2021-08-21T04:08:09Z</time>
      </trkpt>
      <trkpt lat="42.6150850" lon="-5.5326680">
        <ele>838.0</ele>
        <time>2021-08-21T04:08:10Z</time>
      </trkpt>
      <trkpt lat="42.6151030" lon="-5.5326420">
        <ele>838.0</ele>
        <time>2021-08-21T04:08:11Z</time>
      </trkpt>
      <trkpt lat="42.6151290" lon="-5.5326010">
        <ele>838.0</ele>
        <time>2021-08-21T04:08:12Z</time>
      </trkpt>
      <trkpt lat="42.6151360" lon="-5.5325880">
        <ele>838.0</ele>
        <time>2021-08-21T04:08:13Z</time>
      </trkpt>
      <trkpt lat="42.6151530" lon="-5.5325620">
        <ele>838.0</ele>
        <time>2021-08-21T04:08:14Z</time>
      </trkpt>
      <trkpt lat="42.6151680" lon="-5.5325360">
        <ele>838.0</ele>
        <time>2021-08-21T04:08:15Z</time>
      </trkpt>
      <trkpt lat="42.6151830" lon="-5.5325100">
        <ele>838.0</ele>
        <time>2021-08-21T04:08:16Z</time>
      </trkpt>
      <trkpt lat="42.6152070" lon="-5.5324700">
        <ele>838.0</ele>
        <time>2021-08-21T04:08:17Z</time>
      </trkpt>
      <trkpt lat="42.6152150" lon="-5.5324560">
        <ele>838.0</ele>
        <time>2021-08-21T04:08:18Z</time>
      </trkpt>
      <trkpt lat="42.6152300" lon="-5.5324290">
        <ele>839.0</ele>
        <time>2021-08-21T04:08:19Z</time>
      </trkpt>
      <trkpt lat="42.6152450" lon="-5.5324040">
        <ele>839.0</ele>
        <time>2021-08-21T04:08:20Z</time>
      </trkpt>
      <trkpt lat="42.6152630" lon="-5.5323790">
        <ele>839.0</ele>
        <time>2021-08-21T04:08:21Z</time>
      </trkpt>
      <trkpt lat="42.6152810" lon="-5.5323550">
        <ele>839.0</ele>
        <time>2021-08-21T04:08:22Z</time>
      </trkpt>
      <trkpt lat="42.6152990" lon="-5.5323290">
        <ele>839.0</ele>
        <time>2021-08-21T04:08:23Z</time>
      </trkpt>
      <trkpt lat="42.6153230" lon="-5.5322900">
        <ele>839.0</ele>
        <time>2021-08-21T04:08:24Z</time>
      </trkpt>
      <trkpt lat="42.6153310" lon="-5.5322770">
        <ele>839.0</ele>
        <time>2021-08-21T04:08:25Z</time>
      </trkpt>
      <trkpt lat="42.6153580" lon="-5.5322370">
        <ele>839.0</ele>
        <time>2021-08-21T04:08:26Z</time>
      </trkpt>
      <trkpt lat="42.6153660" lon="-5.5322240">
        <ele>839.0</ele>
        <time>2021-08-21T04:08:27Z</time>
      </trkpt>
      <trkpt lat="42.6153840" lon="-5.5321970">
        <ele>839.0</ele>
        <time>2021-08-21T04:08:28Z</time>
      </trkpt>
      <trkpt lat="42.6154020" lon="-5.5321710">
        <ele>839.0</ele>
        <time>2021-08-21T04:08:29Z</time>
      </trkpt>
      <trkpt lat="42.6154240" lon="-5.5321330">
        <ele>839.0</ele>
        <time>2021-08-21T04:08:30Z</time>
      </trkpt>
      <trkpt lat="42.6154300" lon="-5.5321200">
        <ele>839.0</ele>
        <time>2021-08-21T04:08:31Z</time>
      </trkpt>
      <trkpt lat="42.6154530" lon="-5.5320830">
        <ele>839.0</ele>
        <time>2021-08-21T04:08:32Z</time>
      </trkpt>
      <trkpt lat="42.6154600" lon="-5.5320710">
        <ele>839.0</ele>
        <time>2021-08-21T04:08:33Z</time>
      </trkpt>
      <trkpt lat="42.6154770" lon="-5.5320470">
        <ele>839.0</ele>
        <time>2021-08-21T04:08:34Z</time>
      </trkpt>
      <trkpt lat="42.6154890" lon="-5.5320230">
        <ele>839.0</ele>
        <time>2021-08-21T04:08:35Z</time>
      </trkpt>
      <trkpt lat="42.6155020" lon="-5.5319990">
        <ele>839.0</ele>
        <time>2021-08-21T04:08:36Z</time>
      </trkpt>
      <trkpt lat="42.6155180" lon="-5.5319730">
        <ele>840.0</ele>
        <time>2021-08-21T04:08:37Z</time>
      </trkpt>
      <trkpt lat="42.6155330" lon="-5.5319460">
        <ele>840.0</ele>
        <time>2021-08-21T04:08:38Z</time>
      </trkpt>
      <trkpt lat="42.6155470" lon="-5.5319190">
        <ele>840.0</ele>
        <time>2021-08-21T04:08:39Z</time>
      </trkpt>
      <trkpt lat="42.6155620" lon="-5.5318940">
        <ele>840.0</ele>
        <time>2021-08-21T04:08:40Z</time>
      </trkpt>
      <trkpt lat="42.6155810" lon="-5.5318690">
        <ele>840.0</ele>
        <time>2021-08-21T04:08:41Z</time>
      </trkpt>
      <trkpt lat="42.6155990" lon="-5.5318430">
        <ele>840.0</ele>
        <time>2021-08-21T04:08:42Z</time>
      </trkpt>
      <trkpt lat="42.6156180" lon="-5.5318180">
        <ele>840.0</ele>
        <time>2021-08-21T04:08:43Z</time>
      </trkpt>
      <trkpt lat="42.6156340" lon="-5.5317940">
        <ele>840.0</ele>
        <time>2021-08-21T04:08:44Z</time>
      </trkpt>
      <trkpt lat="42.6156510" lon="-5.5317690">
        <ele>840.0</ele>
        <time>2021-08-21T04:08:45Z</time>
      </trkpt>
      <trkpt lat="42.6156670" lon="-5.5317430">
        <ele>840.0</ele>
        <time>2021-08-21T04:08:46Z</time>
      </trkpt>
      <trkpt lat="42.6156820" lon="-5.5317200">
        <ele>840.0</ele>
        <time>2021-08-21T04:08:47Z</time>
      </trkpt>
      <trkpt lat="42.6157050" lon="-5.5316840">
        <ele>840.0</ele>
        <time>2021-08-21T04:08:48Z</time>
      </trkpt>
      <trkpt lat="42.6157130" lon="-5.5316710">
        <ele>840.0</ele>
        <time>2021-08-21T04:08:49Z</time>
      </trkpt>
      <trkpt lat="42.6157280" lon="-5.5316460">
        <ele>840.0</ele>
        <time>2021-08-21T04:08:50Z</time>
      </trkpt>
      <trkpt lat="42.6157410" lon="-5.5316210">
        <ele>840.0</ele>
        <time>2021-08-21T04:08:51Z</time>
      </trkpt>
      <trkpt lat="42.6157560" lon="-5.5315960">
        <ele>840.0</ele>
        <time>2021-08-21T04:08:52Z</time>
      </trkpt>
      <trkpt lat="42.6157710" lon="-5.5315720">
        <ele>840.0</ele>
        <time>2021-08-21T04:08:53Z</time>
      </trkpt>
      <trkpt lat="42.6157880" lon="-5.5315470">
        <ele>841.0</ele>
        <time>2021-08-21T04:08:54Z</time>
      </trkpt>
      <trkpt lat="42.6158060" lon="-5.5315200">
        <ele>841.0</ele>
        <time>2021-08-21T04:08:55Z</time>
      </trkpt>
      <trkpt lat="42.6158310" lon="-5.5314810">
        <ele>841.0</ele>
        <time>2021-08-21T04:08:56Z</time>
      </trkpt>
      <trkpt lat="42.6158400" lon="-5.5314670">
        <ele>841.0</ele>
        <time>2021-08-21T04:08:57Z</time>
      </trkpt>
      <trkpt lat="42.6158550" lon="-5.5314400">
        <ele>841.0</ele>
        <time>2021-08-21T04:08:58Z</time>
      </trkpt>
      <trkpt lat="42.6158780" lon="-5.5314000">
        <ele>841.0</ele>
        <time>2021-08-21T04:08:59Z</time>
      </trkpt>
      <trkpt lat="42.6158860" lon="-5.5313870">
        <ele>841.0</ele>
        <time>2021-08-21T04:09:00Z</time>
      </trkpt>
      <trkpt lat="42.6159000" lon="-5.5313600">
        <ele>841.0</ele>
        <time>2021-08-21T04:09:01Z</time>
      </trkpt>
      <trkpt lat="42.6159140" lon="-5.5313310">
        <ele>841.0</ele>
        <time>2021-08-21T04:09:02Z</time>
      </trkpt>
      <trkpt lat="42.6159280" lon="-5.5313040">
        <ele>841.0</ele>
        <time>2021-08-21T04:09:03Z</time>
      </trkpt>
      <trkpt lat="42.6159440" lon="-5.5312750">
        <ele>841.0</ele>
        <time>2021-08-21T04:09:04Z</time>
      </trkpt>
      <trkpt lat="42.6159580" lon="-5.5312470">
        <ele>841.0</ele>
        <time>2021-08-21T04:09:05Z</time>
      </trkpt>
      <trkpt lat="42.6159700" lon="-5.5312190">
        <ele>842.0</ele>
        <time>2021-08-21T04:09:06Z</time>
      </trkpt>
      <trkpt lat="42.6159830" lon="-5.5311910">
        <ele>842.0</ele>
        <time>2021-08-21T04:09:07Z</time>
      </trkpt>
      <trkpt lat="42.6159940" lon="-5.5311610">
        <ele>842.0</ele>
        <time>2021-08-21T04:09:08Z</time>
      </trkpt>
      <trkpt lat="42.6160050" lon="-5.5311320">
        <ele>842.0</ele>
        <time>2021-08-21T04:09:09Z</time>
      </trkpt>
      <trkpt lat="42.6160150" lon="-5.5311010">
        <ele>842.0</ele>
        <time>2021-08-21T04:09:10Z</time>
      </trkpt>
      <trkpt lat="42.6160250" lon="-5.5310700">
        <ele>843.0</ele>
        <time>2021-08-21T04:09:11Z</time>
      </trkpt>
      <trkpt lat="42.6160320" lon="-5.5310400">
        <ele>843.0</ele>
        <time>2021-08-21T04:09:12Z</time>
      </trkpt>
      <trkpt lat="42.6160410" lon="-5.5310090">
        <ele>843.0</ele>
        <time>2021-08-21T04:09:13Z</time>
      </trkpt>
      <trkpt lat="42.6160490" lon="-5.5309790">
        <ele>843.0</ele>
        <time>2021-08-21T04:09:14Z</time>
      </trkpt>
      <trkpt lat="42.6160540" lon="-5.5309490">
        <ele>843.0</ele>
        <time>2021-08-21T04:09:15Z</time>
      </trkpt>
      <trkpt lat="42.6160570" lon="-5.5309190">
        <ele>843.0</ele>
        <time>2021-08-21T04:09:16Z</time>
      </trkpt>
      <trkpt lat="42.6160610" lon="-5.5308920">
        <ele>843.0</ele>
        <time>2021-08-21T04:09:17Z</time>
      </trkpt>
      <trkpt lat="42.6160690" lon="-5.5308510">
        <ele>843.0</ele>
        <time>2021-08-21T04:09:18Z</time>
      </trkpt>
      <trkpt lat="42.6160700" lon="-5.5308360">
        <ele>843.0</ele>
        <time>2021-08-21T04:09:19Z</time>
      </trkpt>
      <trkpt lat="42.6160730" lon="-5.5308060">
        <ele>843.0</ele>
        <time>2021-08-21T04:09:20Z</time>
      </trkpt>
      <trkpt lat="42.6160790" lon="-5.5307760">
        <ele>843.0</ele>
        <time>2021-08-21T04:09:21Z</time>
      </trkpt>
      <trkpt lat="42.6160840" lon="-5.5307470">
        <ele>843.0</ele>
        <time>2021-08-21T04:09:22Z</time>
      </trkpt>
      <trkpt lat="42.6160890" lon="-5.5307180">
        <ele>843.0</ele>
        <time>2021-08-21T04:09:23Z</time>
      </trkpt>
      <trkpt lat="42.6160940" lon="-5.5306900">
        <ele>843.0</ele>
        <time>2021-08-21T04:09:24Z</time>
      </trkpt>
      <trkpt lat="42.6161030" lon="-5.5306610">
        <ele>843.0</ele>
        <time>2021-08-21T04:09:25Z</time>
      </trkpt>
      <trkpt lat="42.6161080" lon="-5.5306320">
        <ele>844.0</ele>
        <time>2021-08-21T04:09:26Z</time>
      </trkpt>
      <trkpt lat="42.6161130" lon="-5.5306050">
        <ele>844.0</ele>
        <time>2021-08-21T04:09:27Z</time>
      </trkpt>
      <trkpt lat="42.6161220" lon="-5.5305650">
        <ele>844.0</ele>
        <time>2021-08-21T04:09:28Z</time>
      </trkpt>
      <trkpt lat="42.6161250" lon="-5.5305510">
        <ele>844.0</ele>
        <time>2021-08-21T04:09:29Z</time>
      </trkpt>
      <trkpt lat="42.6161310" lon="-5.5305240">
        <ele>844.0</ele>
        <time>2021-08-21T04:09:30Z</time>
      </trkpt>
      <trkpt lat="42.6161370" lon="-5.5304970">
        <ele>845.0</ele>
        <time>2021-08-21T04:09:31Z</time>
      </trkpt>
      <trkpt lat="42.6161430" lon="-5.5304690">
        <ele>845.0</ele>
        <time>2021-08-21T04:09:32Z</time>
      </trkpt>
      <trkpt lat="42.6161480" lon="-5.5304430">
        <ele>845.0</ele>
        <time>2021-08-21T04:09:33Z</time>
      </trkpt>
      <trkpt lat="42.6161530" lon="-5.5304160">
        <ele>845.0</ele>
        <time>2021-08-21T04:09:34Z</time>
      </trkpt>
      <trkpt lat="42.6161580" lon="-5.5303910">
        <ele>845.0</ele>
        <time>2021-08-21T04:09:35Z</time>
      </trkpt>
      <trkpt lat="42.6161640" lon="-5.5303640">
        <ele>845.0</ele>
        <time>2021-08-21T04:09:36Z</time>
      </trkpt>
      <trkpt lat="42.6161690" lon="-5.5303360">
        <ele>845.0</ele>
        <time>2021-08-21T04:09:37Z</time>
      </trkpt>
      <trkpt lat="42.6161780" lon="-5.5302840">
        <ele>845.0</ele>
        <time>2021-08-21T04:09:38Z</time>
      </trkpt>
      <trkpt lat="42.6161780" lon="-5.5302840">
        <ele>845.0</ele>
        <time>2021-08-21T04:09:39Z</time>
      </trkpt>
      <trkpt lat="42.6161870" lon="-5.5302460">
        <ele>845.0</ele>
        <time>2021-08-21T04:09:40Z</time>
      </trkpt>
      <trkpt lat="42.6161900" lon="-5.5302330">
        <ele>846.0</ele>
        <time>2021-08-21T04:09:41Z</time>
      </trkpt>
      <trkpt lat="42.6161950" lon="-5.5302080">
        <ele>846.0</ele>
        <time>2021-08-21T04:09:42Z</time>
      </trkpt>
      <trkpt lat="42.6162000" lon="-5.5301810">
        <ele>846.0</ele>
        <time>2021-08-21T04:09:43Z</time>
      </trkpt>
      <trkpt lat="42.6162050" lon="-5.5301530">
        <ele>846.0</ele>
        <time>2021-08-21T04:09:44Z</time>
      </trkpt>
      <trkpt lat="42.6162100" lon="-5.5301260">
        <ele>846.0</ele>
        <time>2021-08-21T04:09:45Z</time>
      </trkpt>
      <trkpt lat="42.6162160" lon="-5.5301010">
        <ele>846.0</ele>
        <time>2021-08-21T04:09:46Z</time>
      </trkpt>
      <trkpt lat="42.6162210" lon="-5.5300750">
        <ele>846.0</ele>
        <time>2021-08-21T04:09:47Z</time>
      </trkpt>
      <trkpt lat="42.6162240" lon="-5.5300470">
        <ele>846.0</ele>
        <time>2021-08-21T04:09:48Z</time>
      </trkpt>
      <trkpt lat="42.6162270" lon="-5.5300200">
        <ele>846.0</ele>
        <time>2021-08-21T04:09:49Z</time>
      </trkpt>
      <trkpt lat="42.6162290" lon="-5.5299920">
        <ele>847.0</ele>
        <time>2021-08-21T04:09:50Z</time>
      </trkpt>
      <trkpt lat="42.6162310" lon="-5.5299640">
        <ele>847.0</ele>
        <time>2021-08-21T04:09:51Z</time>
      </trkpt>
      <trkpt lat="42.6162350" lon="-5.5299190">
        <ele>847.0</ele>
        <time>2021-08-21T04:09:52Z</time>
      </trkpt>
      <trkpt lat="42.6162370" lon="-5.5299040">
        <ele>847.0</ele>
        <time>2021-08-21T04:09:53Z</time>
      </trkpt>
      <trkpt lat="42.6162370" lon="-5.5298750">
        <ele>847.0</ele>
        <time>2021-08-21T04:09:54Z</time>
      </trkpt>
      <trkpt lat="42.6162340" lon="-5.5298320">
        <ele>847.0</ele>
        <time>2021-08-21T04:09:55Z</time>
      </trkpt>
      <trkpt lat="42.6162330" lon="-5.5298180">
        <ele>848.0</ele>
        <time>2021-08-21T04:09:56Z</time>
      </trkpt>
      <trkpt lat="42.6162370" lon="-5.5297760">
        <ele>848.0</ele>
        <time>2021-08-21T04:09:57Z</time>
      </trkpt>
      <trkpt lat="42.6162390" lon="-5.5297620">
        <ele>848.0</ele>
        <time>2021-08-21T04:09:58Z</time>
      </trkpt>
      <trkpt lat="42.6162490" lon="-5.5297330">
        <ele>848.0</ele>
        <time>2021-08-21T04:09:59Z</time>
      </trkpt>
      <trkpt lat="42.6162600" lon="-5.5297090">
        <ele>848.0</ele>
        <time>2021-08-21T04:10:00Z</time>
      </trkpt>
      <trkpt lat="42.6162710" lon="-5.5296880">
        <ele>848.0</ele>
        <time>2021-08-21T04:10:01Z</time>
      </trkpt>
      <trkpt lat="42.6162840" lon="-5.5296670">
        <ele>849.0</ele>
        <time>2021-08-21T04:10:02Z</time>
      </trkpt>
      <trkpt lat="42.6162970" lon="-5.5296490">
        <ele>849.0</ele>
        <time>2021-08-21T04:10:03Z</time>
      </trkpt>
      <trkpt lat="42.6163200" lon="-5.5296220">
        <ele>849.0</ele>
        <time>2021-08-21T04:10:05Z</time>
      </trkpt>
      <trkpt lat="42.6163200" lon="-5.5296220">
        <ele>849.0</ele>
        <time>2021-08-21T04:10:06Z</time>
      </trkpt>
      <trkpt lat="42.6163440" lon="-5.5295980">
        <ele>849.0</ele>
        <time>2021-08-21T04:10:07Z</time>
      </trkpt>
      <trkpt lat="42.6163440" lon="-5.5295980">
        <ele>849.0</ele>
        <time>2021-08-21T04:10:08Z</time>
      </trkpt>
      <trkpt lat="42.6163620" lon="-5.5295780">
        <ele>849.0</ele>
        <time>2021-08-21T04:10:09Z</time>
      </trkpt>
      <trkpt lat="42.6163620" lon="-5.5295780">
        <ele>849.0</ele>
        <time>2021-08-21T04:10:10Z</time>
      </trkpt>
      <trkpt lat="42.6163800" lon="-5.5295650">
        <ele>850.0</ele>
        <time>2021-08-21T04:10:11Z</time>
      </trkpt>
      <trkpt lat="42.6163800" lon="-5.5295650">
        <ele>850.0</ele>
        <time>2021-08-21T04:10:12Z</time>
      </trkpt>
      <trkpt lat="42.6164030" lon="-5.5295610">
        <ele>850.0</ele>
        <time>2021-08-21T04:10:13Z</time>
      </trkpt>
      <trkpt lat="42.6164030" lon="-5.5295610">
        <ele>850.0</ele>
        <time>2021-08-21T04:10:14Z</time>
      </trkpt>
      <trkpt lat="42.6164280" lon="-5.5295520">
        <ele>850.0</ele>
        <time>2021-08-21T04:10:15Z</time>
      </trkpt>
      <trkpt lat="42.6164280" lon="-5.5295520">
        <ele>850.0</ele>
        <time>2021-08-21T04:10:16Z</time>
      </trkpt>
      <trkpt lat="42.6164530" lon="-5.5295430">
        <ele>850.0</ele>
        <time>2021-08-21T04:10:17Z</time>
      </trkpt>
      <trkpt lat="42.6164530" lon="-5.5295430">
        <ele>851.0</ele>
        <time>2021-08-21T04:10:18Z</time>
      </trkpt>
      <trkpt lat="42.6164530" lon="-5.5295430">
        <ele>851.0</ele>
        <time>2021-08-21T04:10:19Z</time>
      </trkpt>
      <trkpt lat="42.6164820" lon="-5.5295290">
        <ele>851.0</ele>
        <time>2021-08-21T04:10:20Z</time>
      </trkpt>
      <trkpt lat="42.6164820" lon="-5.5295290">
        <ele>851.0</ele>
        <time>2021-08-21T04:10:21Z</time>
      </trkpt>
      <trkpt lat="42.6165050" lon="-5.5295270">
        <ele>851.0</ele>
        <time>2021-08-21T04:10:22Z</time>
      </trkpt>
      <trkpt lat="42.6165180" lon="-5.5295230">
        <ele>852.0</ele>
        <time>2021-08-21T04:10:23Z</time>
      </trkpt>
      <trkpt lat="42.6165310" lon="-5.5295190">
        <ele>852.0</ele>
        <time>2021-08-21T04:10:25Z</time>
      </trkpt>
      <trkpt lat="42.6165430" lon="-5.5295140">
        <ele>852.0</ele>
        <time>2021-08-21T04:10:26Z</time>
      </trkpt>
      <trkpt lat="42.6165560" lon="-5.5295100">
        <ele>852.0</ele>
        <time>2021-08-21T04:10:27Z</time>
      </trkpt>
      <trkpt lat="42.6165690" lon="-5.5295060">
        <ele>853.0</ele>
        <time>2021-08-21T04:10:28Z</time>
      </trkpt>
      <trkpt lat="42.6165820" lon="-5.5295020">
        <ele>853.0</ele>
        <time>2021-08-21T04:10:29Z</time>
      </trkpt>
      <trkpt lat="42.6165940" lon="-5.5294970">
        <ele>853.0</ele>
        <time>2021-08-21T04:10:30Z</time>
      </trkpt>
      <trkpt lat="42.6166070" lon="-5.5294930">
        <ele>853.0</ele>
        <time>2021-08-21T04:10:31Z</time>
      </trkpt>
      <trkpt lat="42.6166200" lon="-5.5294890">
        <ele>853.0</ele>
        <time>2021-08-21T04:10:32Z</time>
      </trkpt>
      <trkpt lat="42.6166410" lon="-5.5294840">
        <ele>853.0</ele>
        <time>2021-08-21T04:10:33Z</time>
      </trkpt>
      <trkpt lat="42.6166620" lon="-5.5294790">
        <ele>853.0</ele>
        <time>2021-08-21T04:10:35Z</time>
      </trkpt>
      <trkpt lat="42.6166820" lon="-5.5294730">
        <ele>854.0</ele>
        <time>2021-08-21T04:10:36Z</time>
      </trkpt>
      <trkpt lat="42.6167030" lon="-5.5294680">
        <ele>854.0</ele>
        <time>2021-08-21T04:10:38Z</time>
      </trkpt>
      <trkpt lat="42.6167240" lon="-5.5294630">
        <ele>854.0</ele>
        <time>2021-08-21T04:10:39Z</time>
      </trkpt>
      <trkpt lat="42.6167410" lon="-5.5294520">
        <ele>854.0</ele>
        <time>2021-08-21T04:10:40Z</time>
      </trkpt>
      <trkpt lat="42.6167570" lon="-5.5294410">
        <ele>854.0</ele>
        <time>2021-08-21T04:10:42Z</time>
      </trkpt>
      <trkpt lat="42.6167740" lon="-5.5294300">
        <ele>855.0</ele>
        <time>2021-08-21T04:10:43Z</time>
      </trkpt>
      <trkpt lat="42.6168420" lon="-5.5293880">
        <ele>855.0</ele>
        <time>2021-08-21T04:10:44Z</time>
      </trkpt>
      <trkpt lat="42.6168600" lon="-5.5293790">
        <ele>855.0</ele>
        <time>2021-08-21T04:10:45Z</time>
      </trkpt>
      <trkpt lat="42.6168790" lon="-5.5293690">
        <ele>855.0</ele>
        <time>2021-08-21T04:10:47Z</time>
      </trkpt>
      <trkpt lat="42.6168970" lon="-5.5293600">
        <ele>855.0</ele>
        <time>2021-08-21T04:10:48Z</time>
      </trkpt>
      <trkpt lat="42.6169150" lon="-5.5293510">
        <ele>855.0</ele>
        <time>2021-08-21T04:10:49Z</time>
      </trkpt>
      <trkpt lat="42.6169410" lon="-5.5293470">
        <ele>856.0</ele>
        <time>2021-08-21T04:10:50Z</time>
      </trkpt>
      <trkpt lat="42.6169670" lon="-5.5293430">
        <ele>856.0</ele>
        <time>2021-08-21T04:10:52Z</time>
      </trkpt>
      <trkpt lat="42.6169920" lon="-5.5293380">
        <ele>857.0</ele>
        <time>2021-08-21T04:10:53Z</time>
      </trkpt>
      <trkpt lat="42.6170180" lon="-5.5293340">
        <ele>857.0</ele>
        <time>2021-08-21T04:10:54Z</time>
      </trkpt>
      <trkpt lat="42.6170410" lon="-5.5293350">
        <ele>858.0</ele>
        <time>2021-08-21T04:10:55Z</time>
      </trkpt>
      <trkpt lat="42.6170670" lon="-5.5293340">
        <ele>858.0</ele>
        <time>2021-08-21T04:10:56Z</time>
      </trkpt>
      <trkpt lat="42.6171020" lon="-5.5293260">
        <ele>858.0</ele>
        <time>2021-08-21T04:10:57Z</time>
      </trkpt>
      <trkpt lat="42.6171140" lon="-5.5293210">
        <ele>858.0</ele>
        <time>2021-08-21T04:10:58Z</time>
      </trkpt>
      <trkpt lat="42.6171360" lon="-5.5293090">
        <ele>858.0</ele>
        <time>2021-08-21T04:10:59Z</time>
      </trkpt>
      <trkpt lat="42.6171570" lon="-5.5292940">
        <ele>858.0</ele>
        <time>2021-08-21T04:11:00Z</time>
      </trkpt>
      <trkpt lat="42.6171750" lon="-5.5292750">
        <ele>858.0</ele>
        <time>2021-08-21T04:11:01Z</time>
      </trkpt>
      <trkpt lat="42.6171920" lon="-5.5292560">
        <ele>858.0</ele>
        <time>2021-08-21T04:11:02Z</time>
      </trkpt>
      <trkpt lat="42.6172110" lon="-5.5292350">
        <ele>858.0</ele>
        <time>2021-08-21T04:11:03Z</time>
      </trkpt>
      <trkpt lat="42.6172360" lon="-5.5292060">
        <ele>858.0</ele>
        <time>2021-08-21T04:11:04Z</time>
      </trkpt>
      <trkpt lat="42.6172440" lon="-5.5291950">
        <ele>859.0</ele>
        <time>2021-08-21T04:11:05Z</time>
      </trkpt>
      <trkpt lat="42.6172620" lon="-5.5291730">
        <ele>859.0</ele>
        <time>2021-08-21T04:11:06Z</time>
      </trkpt>
      <trkpt lat="42.6172770" lon="-5.5291510">
        <ele>859.0</ele>
        <time>2021-08-21T04:11:07Z</time>
      </trkpt>
      <trkpt lat="42.6173010" lon="-5.5291160">
        <ele>859.0</ele>
        <time>2021-08-21T04:11:08Z</time>
      </trkpt>
      <trkpt lat="42.6173090" lon="-5.5291020">
        <ele>860.0</ele>
        <time>2021-08-21T04:11:09Z</time>
      </trkpt>
      <trkpt lat="42.6173220" lon="-5.5290740">
        <ele>860.0</ele>
        <time>2021-08-21T04:11:10Z</time>
      </trkpt>
      <trkpt lat="42.6173380" lon="-5.5290470">
        <ele>861.0</ele>
        <time>2021-08-21T04:11:11Z</time>
      </trkpt>
      <trkpt lat="42.6173590" lon="-5.5290080">
        <ele>861.0</ele>
        <time>2021-08-21T04:11:12Z</time>
      </trkpt>
      <trkpt lat="42.6173650" lon="-5.5289940">
        <ele>861.0</ele>
        <time>2021-08-21T04:11:13Z</time>
      </trkpt>
      <trkpt lat="42.6173820" lon="-5.5289670">
        <ele>861.0</ele>
        <time>2021-08-21T04:11:14Z</time>
      </trkpt>
      <trkpt lat="42.6173970" lon="-5.5289400">
        <ele>861.0</ele>
        <time>2021-08-21T04:11:15Z</time>
      </trkpt>
      <trkpt lat="42.6174140" lon="-5.5289150">
        <ele>862.0</ele>
        <time>2021-08-21T04:11:16Z</time>
      </trkpt>
      <trkpt lat="42.6174320" lon="-5.5288930">
        <ele>862.0</ele>
        <time>2021-08-21T04:11:17Z</time>
      </trkpt>
      <trkpt lat="42.6174550" lon="-5.5288690">
        <ele>862.0</ele>
        <time>2021-08-21T04:11:18Z</time>
      </trkpt>
      <trkpt lat="42.6174780" lon="-5.5288510">
        <ele>862.0</ele>
        <time>2021-08-21T04:11:19Z</time>
      </trkpt>
      <trkpt lat="42.6174990" lon="-5.5288310">
        <ele>862.0</ele>
        <time>2021-08-21T04:11:20Z</time>
      </trkpt>
      <trkpt lat="42.6175190" lon="-5.5288110">
        <ele>863.0</ele>
        <time>2021-08-21T04:11:21Z</time>
      </trkpt>
      <trkpt lat="42.6175500" lon="-5.5287840">
        <ele>863.0</ele>
        <time>2021-08-21T04:11:22Z</time>
      </trkpt>
      <trkpt lat="42.6175580" lon="-5.5287760">
        <ele>863.0</ele>
        <time>2021-08-21T04:11:23Z</time>
      </trkpt>
      <trkpt lat="42.6175760" lon="-5.5287570">
        <ele>863.0</ele>
        <time>2021-08-21T04:11:24Z</time>
      </trkpt>
      <trkpt lat="42.6175930" lon="-5.5287410">
        <ele>863.0</ele>
        <time>2021-08-21T04:11:25Z</time>
      </trkpt>
      <trkpt lat="42.6176100" lon="-5.5287250">
        <ele>863.0</ele>
        <time>2021-08-21T04:11:26Z</time>
      </trkpt>
      <trkpt lat="42.6176250" lon="-5.5287110">
        <ele>864.0</ele>
        <time>2021-08-21T04:11:27Z</time>
      </trkpt>
      <trkpt lat="42.6176430" lon="-5.5286950">
        <ele>864.0</ele>
        <time>2021-08-21T04:11:28Z</time>
      </trkpt>
      <trkpt lat="42.6176580" lon="-5.5286770">
        <ele>864.0</ele>
        <time>2021-08-21T04:11:29Z</time>
      </trkpt>
      <trkpt lat="42.6176580" lon="-5.5286770">
        <ele>864.0</ele>
        <time>2021-08-21T04:11:30Z</time>
      </trkpt>
      <trkpt lat="42.6176830" lon="-5.5286530">
        <ele>864.0</ele>
        <time>2021-08-21T04:11:31Z</time>
      </trkpt>
      <trkpt lat="42.6176830" lon="-5.5286530">
        <ele>865.0</ele>
        <time>2021-08-21T04:11:32Z</time>
      </trkpt>
      <trkpt lat="42.6177040" lon="-5.5286400">
        <ele>865.0</ele>
        <time>2021-08-21T04:11:33Z</time>
      </trkpt>
      <trkpt lat="42.6177040" lon="-5.5286400">
        <ele>865.0</ele>
        <time>2021-08-21T04:11:34Z</time>
      </trkpt>
      <trkpt lat="42.6177220" lon="-5.5286290">
        <ele>865.0</ele>
        <time>2021-08-21T04:11:35Z</time>
      </trkpt>
      <trkpt lat="42.6177380" lon="-5.5286120">
        <ele>865.0</ele>
        <time>2021-08-21T04:11:37Z</time>
      </trkpt>
      <trkpt lat="42.6177380" lon="-5.5286120">
        <ele>866.0</ele>
        <time>2021-08-21T04:11:38Z</time>
      </trkpt>
      <trkpt lat="42.6177530" lon="-5.5285970">
        <ele>866.0</ele>
        <time>2021-08-21T04:11:39Z</time>
      </trkpt>
      <trkpt lat="42.6177690" lon="-5.5285820">
        <ele>867.0</ele>
        <time>2021-08-21T04:11:41Z</time>
      </trkpt>
      <trkpt lat="42.6177690" lon="-5.5285820">
        <ele>867.0</ele>
        <time>2021-08-21T04:11:42Z</time>
      </trkpt>
      <trkpt lat="42.6177690" lon="-5.5285820">
        <ele>867.0</ele>
        <time>2021-08-21T04:11:43Z</time>
      </trkpt>
      <trkpt lat="42.6177900" lon="-5.5285690">
        <ele>867.0</ele>
        <time>2021-08-21T04:11:44Z</time>
      </trkpt>
      <trkpt lat="42.6177900" lon="-5.5285690">
        <ele>868.0</ele>
        <time>2021-08-21T04:11:45Z</time>
      </trkpt>
      <trkpt lat="42.6178070" lon="-5.5285560">
        <ele>868.0</ele>
        <time>2021-08-21T04:11:46Z</time>
      </trkpt>
      <trkpt lat="42.6178070" lon="-5.5285560">
        <ele>868.0</ele>
        <time>2021-08-21T04:11:47Z</time>
      </trkpt>
      <trkpt lat="42.6178280" lon="-5.5285400">
        <ele>868.0</ele>
        <time>2021-08-21T04:11:48Z</time>
      </trkpt>
      <trkpt lat="42.6178520" lon="-5.5285340">
        <ele>868.0</ele>
        <time>2021-08-21T04:11:50Z</time>
      </trkpt>
      <trkpt lat="42.6178520" lon="-5.5285340">
        <ele>869.0</ele>
        <time>2021-08-21T04:11:51Z</time>
      </trkpt>
      <trkpt lat="42.6178750" lon="-5.5285180">
        <ele>869.0</ele>
        <time>2021-08-21T04:11:52Z</time>
      </trkpt>
      <trkpt lat="42.6178750" lon="-5.5285180">
        <ele>869.0</ele>
        <time>2021-08-21T04:11:53Z</time>
      </trkpt>
      <trkpt lat="42.6178990" lon="-5.5285040">
        <ele>869.0</ele>
        <time>2021-08-21T04:11:54Z</time>
      </trkpt>
      <trkpt lat="42.6178990" lon="-5.5285040">
        <ele>870.0</ele>
        <time>2021-08-21T04:11:55Z</time>
      </trkpt>
      <trkpt lat="42.6179260" lon="-5.5284920">
        <ele>870.0</ele>
        <time>2021-08-21T04:11:56Z</time>
      </trkpt>
      <trkpt lat="42.6179490" lon="-5.5284820">
        <ele>870.0</ele>
        <time>2021-08-21T04:11:58Z</time>
      </trkpt>
      <trkpt lat="42.6179720" lon="-5.5284720">
        <ele>870.0</ele>
        <time>2021-08-21T04:12:00Z</time>
      </trkpt>
      <trkpt lat="42.6179720" lon="-5.5284720">
        <ele>871.0</ele>
        <time>2021-08-21T04:12:01Z</time>
      </trkpt>
      <trkpt lat="42.6179930" lon="-5.5284620">
        <ele>871.0</ele>
        <time>2021-08-21T04:12:02Z</time>
      </trkpt>
      <trkpt lat="42.6179930" lon="-5.5284620">
        <ele>871.0</ele>
        <time>2021-08-21T04:12:03Z</time>
      </trkpt>
      <trkpt lat="42.6180220" lon="-5.5284510">
        <ele>871.0</ele>
        <time>2021-08-21T04:12:04Z</time>
      </trkpt>
      <trkpt lat="42.6180430" lon="-5.5284440">
        <ele>871.0</ele>
        <time>2021-08-21T04:12:06Z</time>
      </trkpt>
      <trkpt lat="42.6180430" lon="-5.5284440">
        <ele>871.0</ele>
        <time>2021-08-21T04:12:07Z</time>
      </trkpt>
      <trkpt lat="42.6180710" lon="-5.5284350">
        <ele>872.0</ele>
        <time>2021-08-21T04:12:08Z</time>
      </trkpt>
      <trkpt lat="42.6180970" lon="-5.5284280">
        <ele>872.0</ele>
        <time>2021-08-21T04:12:10Z</time>
      </trkpt>
      <trkpt lat="42.6181230" lon="-5.5284270">
        <ele>873.0</ele>
        <time>2021-08-21T04:12:12Z</time>
      </trkpt>
      <trkpt lat="42.6181230" lon="-5.5284270">
        <ele>873.0</ele>
        <time>2021-08-21T04:12:13Z</time>
      </trkpt>
      <trkpt lat="42.6181490" lon="-5.5284310">
        <ele>873.0</ele>
        <time>2021-08-21T04:12:14Z</time>
      </trkpt>
      <trkpt lat="42.6181490" lon="-5.5284310">
        <ele>873.0</ele>
        <time>2021-08-21T04:12:15Z</time>
      </trkpt>
      <trkpt lat="42.6181790" lon="-5.5284350">
        <ele>873.0</ele>
        <time>2021-08-21T04:12:16Z</time>
      </trkpt>
      <trkpt lat="42.6182150" lon="-5.5284520">
        <ele>874.0</ele>
        <time>2021-08-21T04:12:18Z</time>
      </trkpt>
      <trkpt lat="42.6182330" lon="-5.5284620">
        <ele>874.0</ele>
        <time>2021-08-21T04:12:19Z</time>
      </trkpt>
      <trkpt lat="42.6182510" lon="-5.5284680">
        <ele>874.0</ele>
        <time>2021-08-21T04:12:20Z</time>
      </trkpt>
      <trkpt lat="42.6182690" lon="-5.5284790">
        <ele>874.0</ele>
        <time>2021-08-21T04:12:21Z</time>
      </trkpt>
      <trkpt lat="42.6182890" lon="-5.5284860">
        <ele>874.0</ele>
        <time>2021-08-21T04:12:22Z</time>
      </trkpt>
      <trkpt lat="42.6183080" lon="-5.5284940">
        <ele>875.0</ele>
        <time>2021-08-21T04:12:23Z</time>
      </trkpt>
      <trkpt lat="42.6183270" lon="-5.5284980">
        <ele>875.0</ele>
        <time>2021-08-21T04:12:24Z</time>
      </trkpt>
      <trkpt lat="42.6183440" lon="-5.5284920">
        <ele>875.0</ele>
        <time>2021-08-21T04:12:25Z</time>
      </trkpt>
      <trkpt lat="42.6183620" lon="-5.5284860">
        <ele>875.0</ele>
        <time>2021-08-21T04:12:26Z</time>
      </trkpt>
      <trkpt lat="42.6183790" lon="-5.5284800">
        <ele>876.0</ele>
        <time>2021-08-21T04:12:27Z</time>
      </trkpt>
      <trkpt lat="42.6184070" lon="-5.5284550">
        <ele>876.0</ele>
        <time>2021-08-21T04:12:29Z</time>
      </trkpt>
      <trkpt lat="42.6184070" lon="-5.5284550">
        <ele>876.0</ele>
        <time>2021-08-21T04:12:30Z</time>
      </trkpt>
      <trkpt lat="42.6184250" lon="-5.5284290">
        <ele>877.0</ele>
        <time>2021-08-21T04:12:31Z</time>
      </trkpt>
      <trkpt lat="42.6184350" lon="-5.5283980">
        <ele>877.0</ele>
        <time>2021-08-21T04:12:33Z</time>
      </trkpt>
      <trkpt lat="42.6184350" lon="-5.5283980">
        <ele>878.0</ele>
        <time>2021-08-21T04:12:34Z</time>
      </trkpt>
      <trkpt lat="42.6184450" lon="-5.5283670">
        <ele>878.0</ele>
        <time>2021-08-21T04:12:35Z</time>
      </trkpt>
      <trkpt lat="42.6184570" lon="-5.5283430">
        <ele>878.0</ele>
        <time>2021-08-21T04:12:37Z</time>
      </trkpt>
      <trkpt lat="42.6184570" lon="-5.5283430">
        <ele>878.0</ele>
        <time>2021-08-21T04:12:38Z</time>
      </trkpt>
      <trkpt lat="42.6184640" lon="-5.5283130">
        <ele>878.0</ele>
        <time>2021-08-21T04:12:39Z</time>
      </trkpt>
      <trkpt lat="42.6184640" lon="-5.5283130">
        <ele>878.0</ele>
        <time>2021-08-21T04:12:40Z</time>
      </trkpt>
      <trkpt lat="42.6184720" lon="-5.5282910">
        <ele>879.0</ele>
        <time>2021-08-21T04:12:41Z</time>
      </trkpt>
      <trkpt lat="42.6184720" lon="-5.5282910">
        <ele>879.0</ele>
        <time>2021-08-21T04:12:42Z</time>
      </trkpt>
      <trkpt lat="42.6184830" lon="-5.5282650">
        <ele>880.0</ele>
        <time>2021-08-21T04:12:43Z</time>
      </trkpt>
      <trkpt lat="42.6184960" lon="-5.5282440">
        <ele>880.0</ele>
        <time>2021-08-21T04:12:45Z</time>
      </trkpt>
      <trkpt lat="42.6184960" lon="-5.5282440">
        <ele>880.0</ele>
        <time>2021-08-21T04:12:46Z</time>
      </trkpt>
      <trkpt lat="42.6185130" lon="-5.5282190">
        <ele>880.0</ele>
        <time>2021-08-21T04:12:48Z</time>
      </trkpt>
      <trkpt lat="42.6185130" lon="-5.5282190">
        <ele>880.0</ele>
        <time>2021-08-21T04:12:49Z</time>
      </trkpt>
      <trkpt lat="42.6185240" lon="-5.5281960">
        <ele>881.0</ele>
        <time>2021-08-21T04:12:50Z</time>
      </trkpt>
      <trkpt lat="42.6185240" lon="-5.5281960">
        <ele>881.0</ele>
        <time>2021-08-21T04:12:51Z</time>
      </trkpt>
      <trkpt lat="42.6185390" lon="-5.5281760">
        <ele>882.0</ele>
        <time>2021-08-21T04:12:53Z</time>
      </trkpt>
      <trkpt lat="42.6185390" lon="-5.5281760">
        <ele>882.0</ele>
        <time>2021-08-21T04:12:54Z</time>
      </trkpt>
      <trkpt lat="42.6185390" lon="-5.5281760">
        <ele>882.0</ele>
        <time>2021-08-21T04:12:55Z</time>
      </trkpt>
      <trkpt lat="42.6185390" lon="-5.5281760">
        <ele>882.0</ele>
        <time>2021-08-21T04:12:56Z</time>
      </trkpt>
      <trkpt lat="42.6185390" lon="-5.5281760">
        <ele>882.0</ele>
        <time>2021-08-21T04:12:57Z</time>
      </trkpt>
      <trkpt lat="42.6185550" lon="-5.5281590">
        <ele>883.0</ele>
        <time>2021-08-21T04:12:58Z</time>
      </trkpt>
      <trkpt lat="42.6185550" lon="-5.5281590">
        <ele>883.0</ele>
        <time>2021-08-21T04:12:59Z</time>
      </trkpt>
      <trkpt lat="42.6185730" lon="-5.5281400">
        <ele>883.0</ele>
        <time>2021-08-21T04:13:01Z</time>
      </trkpt>
      <trkpt lat="42.6185730" lon="-5.5281400">
        <ele>884.0</ele>
        <time>2021-08-21T04:13:03Z</time>
      </trkpt>
      <trkpt lat="42.6185900" lon="-5.5281210">
        <ele>884.0</ele>
        <time>2021-08-21T04:13:04Z</time>
      </trkpt>
      <trkpt lat="42.6185900" lon="-5.5281210">
        <ele>884.0</ele>
        <time>2021-08-21T04:13:05Z</time>
      </trkpt>
      <trkpt lat="42.6185900" lon="-5.5281210">
        <ele>884.0</ele>
        <time>2021-08-21T04:13:07Z</time>
      </trkpt>
      <trkpt lat="42.6185900" lon="-5.5281210">
        <ele>885.0</ele>
        <time>2021-08-21T04:13:08Z</time>
      </trkpt>
      <trkpt lat="42.6186020" lon="-5.5280990">
        <ele>885.0</ele>
        <time>2021-08-21T04:13:09Z</time>
      </trkpt>
      <trkpt lat="42.6186020" lon="-5.5280990">
        <ele>886.0</ele>
        <time>2021-08-21T04:13:10Z</time>
      </trkpt>
      <trkpt lat="42.6186180" lon="-5.5280840">
        <ele>886.0</ele>
        <time>2021-08-21T04:13:11Z</time>
      </trkpt>
      <trkpt lat="42.6186180" lon="-5.5280840">
        <ele>886.0</ele>
        <time>2021-08-21T04:13:12Z</time>
      </trkpt>
      <trkpt lat="42.6186180" lon="-5.5280840">
        <ele>887.0</ele>
        <time>2021-08-21T04:13:13Z</time>
      </trkpt>
      <trkpt lat="42.6186370" lon="-5.5280650">
        <ele>887.0</ele>
        <time>2021-08-21T04:13:14Z</time>
      </trkpt>
      <trkpt lat="42.6186530" lon="-5.5280490">
        <ele>888.0</ele>
        <time>2021-08-21T04:13:16Z</time>
      </trkpt>
      <trkpt lat="42.6186530" lon="-5.5280490">
        <ele>888.0</ele>
        <time>2021-08-21T04:13:18Z</time>
      </trkpt>
      <trkpt lat="42.6186710" lon="-5.5280450">
        <ele>888.0</ele>
        <time>2021-08-21T04:13:19Z</time>
      </trkpt>
      <trkpt lat="42.6186710" lon="-5.5280450">
        <ele>888.0</ele>
        <time>2021-08-21T04:13:20Z</time>
      </trkpt>
      <trkpt lat="42.6186710" lon="-5.5280450">
        <ele>888.0</ele>
        <time>2021-08-21T04:13:21Z</time>
      </trkpt>
      <trkpt lat="42.6186930" lon="-5.5280460">
        <ele>889.0</ele>
        <time>2021-08-21T04:13:22Z</time>
      </trkpt>
      <trkpt lat="42.6186930" lon="-5.5280460">
        <ele>889.0</ele>
        <time>2021-08-21T04:13:23Z</time>
      </trkpt>
      <trkpt lat="42.6187180" lon="-5.5280480">
        <ele>889.0</ele>
        <time>2021-08-21T04:13:25Z</time>
      </trkpt>
      <trkpt lat="42.6187180" lon="-5.5280480">
        <ele>890.0</ele>
        <time>2021-08-21T04:13:26Z</time>
      </trkpt>
      <trkpt lat="42.6187180" lon="-5.5280480">
        <ele>890.0</ele>
        <time>2021-08-21T04:13:27Z</time>
      </trkpt>
      <trkpt lat="42.6187440" lon="-5.5280490">
        <ele>890.0</ele>
        <time>2021-08-21T04:13:28Z</time>
      </trkpt>
      <trkpt lat="42.6187440" lon="-5.5280490">
        <ele>891.0</ele>
        <time>2021-08-21T04:13:29Z</time>
      </trkpt>
      <trkpt lat="42.6187440" lon="-5.5280490">
        <ele>891.0</ele>
        <time>2021-08-21T04:13:30Z</time>
      </trkpt>
      <trkpt lat="42.6187670" lon="-5.5280500">
        <ele>891.0</ele>
        <time>2021-08-21T04:13:31Z</time>
      </trkpt>
      <trkpt lat="42.6187670" lon="-5.5280500">
        <ele>892.0</ele>
        <time>2021-08-21T04:13:32Z</time>
      </trkpt>
      <trkpt lat="42.6187670" lon="-5.5280500">
        <ele>892.0</ele>
        <time>2021-08-21T04:13:33Z</time>
      </trkpt>
      <trkpt lat="42.6187930" lon="-5.5280470">
        <ele>892.0</ele>
        <time>2021-08-21T04:13:34Z</time>
      </trkpt>
      <trkpt lat="42.6187930" lon="-5.5280470">
        <ele>893.0</ele>
        <time>2021-08-21T04:13:35Z</time>
      </trkpt>
      <trkpt lat="42.6188150" lon="-5.5280390">
        <ele>893.0</ele>
        <time>2021-08-21T04:13:36Z</time>
      </trkpt>
      <trkpt lat="42.6188150" lon="-5.5280390">
        <ele>893.0</ele>
        <time>2021-08-21T04:13:37Z</time>
      </trkpt>
      <trkpt lat="42.6188150" lon="-5.5280390">
        <ele>893.0</ele>
        <time>2021-08-21T04:13:38Z</time>
      </trkpt>
      <trkpt lat="42.6188350" lon="-5.5280260">
        <ele>894.0</ele>
        <time>2021-08-21T04:13:39Z</time>
      </trkpt>
      <trkpt lat="42.6188450" lon="-5.5280050">
        <ele>894.0</ele>
        <time>2021-08-21T04:13:41Z</time>
      </trkpt>
      <trkpt lat="42.6188450" lon="-5.5280050">
        <ele>894.0</ele>
        <time>2021-08-21T04:13:42Z</time>
      </trkpt>
      <trkpt lat="42.6188450" lon="-5.5280050">
        <ele>895.0</ele>
        <time>2021-08-21T04:13:43Z</time>
      </trkpt>
      <trkpt lat="42.6188570" lon="-5.5279730">
        <ele>895.0</ele>
        <time>2021-08-21T04:13:44Z</time>
      </trkpt>
      <trkpt lat="42.6188570" lon="-5.5279730">
        <ele>896.0</ele>
        <time>2021-08-21T04:13:45Z</time>
      </trkpt>
      <trkpt lat="42.6188570" lon="-5.5279730">
        <ele>896.0</ele>
        <time>2021-08-21T04:13:46Z</time>
      </trkpt>
      <trkpt lat="42.6188750" lon="-5.5279450">
        <ele>896.0</ele>
        <time>2021-08-21T04:13:47Z</time>
      </trkpt>
      <trkpt lat="42.6188750" lon="-5.5279450">
        <ele>896.0</ele>
        <time>2021-08-21T04:13:48Z</time>
      </trkpt>
      <trkpt lat="42.6188940" lon="-5.5279330">
        <ele>896.0</ele>
        <time>2021-08-21T04:13:49Z</time>
      </trkpt>
      <trkpt lat="42.6189270" lon="-5.5279230">
        <ele>897.0</ele>
        <time>2021-08-21T04:13:51Z</time>
      </trkpt>
      <trkpt lat="42.6189490" lon="-5.5279160">
        <ele>897.0</ele>
        <time>2021-08-21T04:13:52Z</time>
      </trkpt>
      <trkpt lat="42.6189720" lon="-5.5279040">
        <ele>897.0</ele>
        <time>2021-08-21T04:13:53Z</time>
      </trkpt>
      <trkpt lat="42.6189950" lon="-5.5278900">
        <ele>897.0</ele>
        <time>2021-08-21T04:13:54Z</time>
      </trkpt>
      <trkpt lat="42.6190160" lon="-5.5278770">
        <ele>897.0</ele>
        <time>2021-08-21T04:13:55Z</time>
      </trkpt>
      <trkpt lat="42.6190380" lon="-5.5278720">
        <ele>897.0</ele>
        <time>2021-08-21T04:13:56Z</time>
      </trkpt>
      <trkpt lat="42.6190610" lon="-5.5278700">
        <ele>897.0</ele>
        <time>2021-08-21T04:13:57Z</time>
      </trkpt>
      <trkpt lat="42.6190940" lon="-5.5278620">
        <ele>897.0</ele>
        <time>2021-08-21T04:13:58Z</time>
      </trkpt>
      <trkpt lat="42.6191050" lon="-5.5278600">
        <ele>898.0</ele>
        <time>2021-08-21T04:13:59Z</time>
      </trkpt>
      <trkpt lat="42.6191260" lon="-5.5278590">
        <ele>898.0</ele>
        <time>2021-08-21T04:14:00Z</time>
      </trkpt>
      <trkpt lat="42.6191440" lon="-5.5278630">
        <ele>898.0</ele>
        <time>2021-08-21T04:14:01Z</time>
      </trkpt>
      <trkpt lat="42.6191610" lon="-5.5278740">
        <ele>898.0</ele>
        <time>2021-08-21T04:14:02Z</time>
      </trkpt>
      <trkpt lat="42.6191920" lon="-5.5278930">
        <ele>898.0</ele>
        <time>2021-08-21T04:14:03Z</time>
      </trkpt>
      <trkpt lat="42.6192020" lon="-5.5278990">
        <ele>898.0</ele>
        <time>2021-08-21T04:14:04Z</time>
      </trkpt>
      <trkpt lat="42.6192270" lon="-5.5279040">
        <ele>898.0</ele>
        <time>2021-08-21T04:14:05Z</time>
      </trkpt>
      <trkpt lat="42.6192650" lon="-5.5279040">
        <ele>898.0</ele>
        <time>2021-08-21T04:14:06Z</time>
      </trkpt>
      <trkpt lat="42.6192780" lon="-5.5279030">
        <ele>899.0</ele>
        <time>2021-08-21T04:14:07Z</time>
      </trkpt>
      <trkpt lat="42.6193140" lon="-5.5278960">
        <ele>899.0</ele>
        <time>2021-08-21T04:14:08Z</time>
      </trkpt>
      <trkpt lat="42.6193250" lon="-5.5278910">
        <ele>899.0</ele>
        <time>2021-08-21T04:14:09Z</time>
      </trkpt>
      <trkpt lat="42.6193440" lon="-5.5278800">
        <ele>899.0</ele>
        <time>2021-08-21T04:14:10Z</time>
      </trkpt>
      <trkpt lat="42.6193640" lon="-5.5278720">
        <ele>899.0</ele>
        <time>2021-08-21T04:14:11Z</time>
      </trkpt>
      <trkpt lat="42.6193840" lon="-5.5278620">
        <ele>900.0</ele>
        <time>2021-08-21T04:14:12Z</time>
      </trkpt>
      <trkpt lat="42.6194020" lon="-5.5278520">
        <ele>900.0</ele>
        <time>2021-08-21T04:14:13Z</time>
      </trkpt>
      <trkpt lat="42.6194230" lon="-5.5278400">
        <ele>901.0</ele>
        <time>2021-08-21T04:14:14Z</time>
      </trkpt>
      <trkpt lat="42.6194460" lon="-5.5278300">
        <ele>901.0</ele>
        <time>2021-08-21T04:14:15Z</time>
      </trkpt>
      <trkpt lat="42.6194700" lon="-5.5278170">
        <ele>901.0</ele>
        <time>2021-08-21T04:14:16Z</time>
      </trkpt>
      <trkpt lat="42.6194930" lon="-5.5278000">
        <ele>901.0</ele>
        <time>2021-08-21T04:14:17Z</time>
      </trkpt>
      <trkpt lat="42.6195150" lon="-5.5277850">
        <ele>901.0</ele>
        <time>2021-08-21T04:14:18Z</time>
      </trkpt>
      <trkpt lat="42.6195370" lon="-5.5277660">
        <ele>902.0</ele>
        <time>2021-08-21T04:14:19Z</time>
      </trkpt>
      <trkpt lat="42.6195580" lon="-5.5277480">
        <ele>902.0</ele>
        <time>2021-08-21T04:14:20Z</time>
      </trkpt>
      <trkpt lat="42.6195790" lon="-5.5277240">
        <ele>902.0</ele>
        <time>2021-08-21T04:14:21Z</time>
      </trkpt>
      <trkpt lat="42.6196070" lon="-5.5276860">
        <ele>902.0</ele>
        <time>2021-08-21T04:14:22Z</time>
      </trkpt>
      <trkpt lat="42.6196140" lon="-5.5276720">
        <ele>902.0</ele>
        <time>2021-08-21T04:14:23Z</time>
      </trkpt>
      <trkpt lat="42.6196310" lon="-5.5276430">
        <ele>902.0</ele>
        <time>2021-08-21T04:14:24Z</time>
      </trkpt>
      <trkpt lat="42.6196470" lon="-5.5276150">
        <ele>902.0</ele>
        <time>2021-08-21T04:14:25Z</time>
      </trkpt>
      <trkpt lat="42.6196620" lon="-5.5275840">
        <ele>902.0</ele>
        <time>2021-08-21T04:14:26Z</time>
      </trkpt>
      <trkpt lat="42.6196770" lon="-5.5275500">
        <ele>902.0</ele>
        <time>2021-08-21T04:14:27Z</time>
      </trkpt>
      <trkpt lat="42.6197080" lon="-5.5274870">
        <ele>902.0</ele>
        <time>2021-08-21T04:14:28Z</time>
      </trkpt>
      <trkpt lat="42.6197260" lon="-5.5274560">
        <ele>902.0</ele>
        <time>2021-08-21T04:14:29Z</time>
      </trkpt>
      <trkpt lat="42.6197260" lon="-5.5274560">
        <ele>902.0</ele>
        <time>2021-08-21T04:14:30Z</time>
      </trkpt>
      <trkpt lat="42.6197470" lon="-5.5274260">
        <ele>902.0</ele>
        <time>2021-08-21T04:14:31Z</time>
      </trkpt>
      <trkpt lat="42.6197650" lon="-5.5274000">
        <ele>902.0</ele>
        <time>2021-08-21T04:14:32Z</time>
      </trkpt>
      <trkpt lat="42.6197800" lon="-5.5273720">
        <ele>902.0</ele>
        <time>2021-08-21T04:14:33Z</time>
      </trkpt>
      <trkpt lat="42.6197950" lon="-5.5273430">
        <ele>902.0</ele>
        <time>2021-08-21T04:14:34Z</time>
      </trkpt>
      <trkpt lat="42.6198050" lon="-5.5273150">
        <ele>903.0</ele>
        <time>2021-08-21T04:14:35Z</time>
      </trkpt>
      <trkpt lat="42.6198180" lon="-5.5272850">
        <ele>903.0</ele>
        <time>2021-08-21T04:14:36Z</time>
      </trkpt>
      <trkpt lat="42.6198280" lon="-5.5272570">
        <ele>903.0</ele>
        <time>2021-08-21T04:14:37Z</time>
      </trkpt>
      <trkpt lat="42.6198400" lon="-5.5272310">
        <ele>903.0</ele>
        <time>2021-08-21T04:14:38Z</time>
      </trkpt>
      <trkpt lat="42.6198490" lon="-5.5272100">
        <ele>903.0</ele>
        <time>2021-08-21T04:14:39Z</time>
      </trkpt>
      <trkpt lat="42.6198490" lon="-5.5272100">
        <ele>903.0</ele>
        <time>2021-08-21T04:14:40Z</time>
      </trkpt>
      <trkpt lat="42.6198650" lon="-5.5271720">
        <ele>903.0</ele>
        <time>2021-08-21T04:14:41Z</time>
      </trkpt>
      <trkpt lat="42.6198650" lon="-5.5271720">
        <ele>904.0</ele>
        <time>2021-08-21T04:14:42Z</time>
      </trkpt>
      <trkpt lat="42.6198820" lon="-5.5271390">
        <ele>904.0</ele>
        <time>2021-08-21T04:14:43Z</time>
      </trkpt>
      <trkpt lat="42.6198820" lon="-5.5271390">
        <ele>904.0</ele>
        <time>2021-08-21T04:14:44Z</time>
      </trkpt>
      <trkpt lat="42.6198880" lon="-5.5271100">
        <ele>904.0</ele>
        <time>2021-08-21T04:14:45Z</time>
      </trkpt>
      <trkpt lat="42.6198880" lon="-5.5271100">
        <ele>904.0</ele>
        <time>2021-08-21T04:14:46Z</time>
      </trkpt>
      <trkpt lat="42.6198980" lon="-5.5270830">
        <ele>904.0</ele>
        <time>2021-08-21T04:14:47Z</time>
      </trkpt>
      <trkpt lat="42.6198980" lon="-5.5270830">
        <ele>905.0</ele>
        <time>2021-08-21T04:14:48Z</time>
      </trkpt>
      <trkpt lat="42.6199120" lon="-5.5270570">
        <ele>905.0</ele>
        <time>2021-08-21T04:14:49Z</time>
      </trkpt>
      <trkpt lat="42.6199120" lon="-5.5270570">
        <ele>905.0</ele>
        <time>2021-08-21T04:14:50Z</time>
      </trkpt>
      <trkpt lat="42.6199220" lon="-5.5270320">
        <ele>905.0</ele>
        <time>2021-08-21T04:14:51Z</time>
      </trkpt>
      <trkpt lat="42.6199220" lon="-5.5270320">
        <ele>905.0</ele>
        <time>2021-08-21T04:14:52Z</time>
      </trkpt>
      <trkpt lat="42.6199290" lon="-5.5270060">
        <ele>905.0</ele>
        <time>2021-08-21T04:14:53Z</time>
      </trkpt>
      <trkpt lat="42.6199290" lon="-5.5270060">
        <ele>906.0</ele>
        <time>2021-08-21T04:14:54Z</time>
      </trkpt>
      <trkpt lat="42.6199360" lon="-5.5269750">
        <ele>906.0</ele>
        <time>2021-08-21T04:14:55Z</time>
      </trkpt>
      <trkpt lat="42.6199360" lon="-5.5269750">
        <ele>906.0</ele>
        <time>2021-08-21T04:14:56Z</time>
      </trkpt>
      <trkpt lat="42.6199410" lon="-5.5269450">
        <ele>906.0</ele>
        <time>2021-08-21T04:14:57Z</time>
      </trkpt>
      <trkpt lat="42.6199450" lon="-5.5269170">
        <ele>907.0</ele>
        <time>2021-08-21T04:14:59Z</time>
      </trkpt>
      <trkpt lat="42.6199490" lon="-5.5268910">
        <ele>907.0</ele>
        <time>2021-08-21T04:15:01Z</time>
      </trkpt>
      <trkpt lat="42.6199490" lon="-5.5268910">
        <ele>907.0</ele>
        <time>2021-08-21T04:15:02Z</time>
      </trkpt>
      <trkpt lat="42.6199490" lon="-5.5268910">
        <ele>908.0</ele>
        <time>2021-08-21T04:15:03Z</time>
      </trkpt>
      <trkpt lat="42.6199560" lon="-5.5268580">
        <ele>908.0</ele>
        <time>2021-08-21T04:15:04Z</time>
      </trkpt>
      <trkpt lat="42.6199560" lon="-5.5268580">
        <ele>908.0</ele>
        <time>2021-08-21T04:15:06Z</time>
      </trkpt>
      <trkpt lat="42.6199650" lon="-5.5268300">
        <ele>909.0</ele>
        <time>2021-08-21T04:15:07Z</time>
      </trkpt>
      <trkpt lat="42.6199650" lon="-5.5268300">
        <ele>909.0</ele>
        <time>2021-08-21T04:15:08Z</time>
      </trkpt>
      <trkpt lat="42.6199650" lon="-5.5268300">
        <ele>909.0</ele>
        <time>2021-08-21T04:15:09Z</time>
      </trkpt>
      <trkpt lat="42.6199760" lon="-5.5268000">
        <ele>909.0</ele>
        <time>2021-08-21T04:15:10Z</time>
      </trkpt>
      <trkpt lat="42.6199760" lon="-5.5268000">
        <ele>909.0</ele>
        <time>2021-08-21T04:15:11Z</time>
      </trkpt>
      <trkpt lat="42.6199880" lon="-5.5267750">
        <ele>910.0</ele>
        <time>2021-08-21T04:15:12Z</time>
      </trkpt>
      <trkpt lat="42.6199880" lon="-5.5267750">
        <ele>910.0</ele>
        <time>2021-08-21T04:15:13Z</time>
      </trkpt>
      <trkpt lat="42.6199990" lon="-5.5267430">
        <ele>910.0</ele>
        <time>2021-08-21T04:15:14Z</time>
      </trkpt>
      <trkpt lat="42.6199990" lon="-5.5267430">
        <ele>911.0</ele>
        <time>2021-08-21T04:15:15Z</time>
      </trkpt>
      <trkpt lat="42.6200060" lon="-5.5266960">
        <ele>911.0</ele>
        <time>2021-08-21T04:15:16Z</time>
      </trkpt>
      <trkpt lat="42.6200070" lon="-5.5266670">
        <ele>911.0</ele>
        <time>2021-08-21T04:15:17Z</time>
      </trkpt>
      <trkpt lat="42.6200040" lon="-5.5266400">
        <ele>911.0</ele>
        <time>2021-08-21T04:15:18Z</time>
      </trkpt>
      <trkpt lat="42.6199960" lon="-5.5265960">
        <ele>911.0</ele>
        <time>2021-08-21T04:15:20Z</time>
      </trkpt>
      <trkpt lat="42.6199960" lon="-5.5265960">
        <ele>912.0</ele>
        <time>2021-08-21T04:15:21Z</time>
      </trkpt>
      <trkpt lat="42.6199880" lon="-5.5265490">
        <ele>912.0</ele>
        <time>2021-08-21T04:15:22Z</time>
      </trkpt>
      <trkpt lat="42.6199860" lon="-5.5265240">
        <ele>912.0</ele>
        <time>2021-08-21T04:15:23Z</time>
      </trkpt>
      <trkpt lat="42.6199840" lon="-5.5264960">
        <ele>912.0</ele>
        <time>2021-08-21T04:15:24Z</time>
      </trkpt>
      <trkpt lat="42.6199830" lon="-5.5264670">
        <ele>912.0</ele>
        <time>2021-08-21T04:15:25Z</time>
      </trkpt>
      <trkpt lat="42.6199850" lon="-5.5264390">
        <ele>913.0</ele>
        <time>2021-08-21T04:15:26Z</time>
      </trkpt>
      <trkpt lat="42.6199860" lon="-5.5264140">
        <ele>913.0</ele>
        <time>2021-08-21T04:15:27Z</time>
      </trkpt>
      <trkpt lat="42.6199910" lon="-5.5263770">
        <ele>913.0</ele>
        <time>2021-08-21T04:15:29Z</time>
      </trkpt>
      <trkpt lat="42.6199910" lon="-5.5263770">
        <ele>913.0</ele>
        <time>2021-08-21T04:15:30Z</time>
      </trkpt>
      <trkpt lat="42.6199900" lon="-5.5263440">
        <ele>913.0</ele>
        <time>2021-08-21T04:15:31Z</time>
      </trkpt>
      <trkpt lat="42.6199900" lon="-5.5263440">
        <ele>913.0</ele>
        <time>2021-08-21T04:15:32Z</time>
      </trkpt>
      <trkpt lat="42.6199890" lon="-5.5263170">
        <ele>914.0</ele>
        <time>2021-08-21T04:15:33Z</time>
      </trkpt>
      <trkpt lat="42.6199890" lon="-5.5263170">
        <ele>914.0</ele>
        <time>2021-08-21T04:15:34Z</time>
      </trkpt>
      <trkpt lat="42.6199890" lon="-5.5262900">
        <ele>914.0</ele>
        <time>2021-08-21T04:15:35Z</time>
      </trkpt>
      <trkpt lat="42.6199890" lon="-5.5262900">
        <ele>915.0</ele>
        <time>2021-08-21T04:15:36Z</time>
      </trkpt>
      <trkpt lat="42.6199890" lon="-5.5262630">
        <ele>915.0</ele>
        <time>2021-08-21T04:15:37Z</time>
      </trkpt>
      <trkpt lat="42.6199890" lon="-5.5262630">
        <ele>915.0</ele>
        <time>2021-08-21T04:15:39Z</time>
      </trkpt>
      <trkpt lat="42.6199930" lon="-5.5262340">
        <ele>916.0</ele>
        <time>2021-08-21T04:15:40Z</time>
      </trkpt>
      <trkpt lat="42.6199940" lon="-5.5262080">
        <ele>916.0</ele>
        <time>2021-08-21T04:15:42Z</time>
      </trkpt>
      <trkpt lat="42.6199940" lon="-5.5262080">
        <ele>916.0</ele>
        <time>2021-08-21T04:15:43Z</time>
      </trkpt>
      <trkpt lat="42.6199970" lon="-5.5261760">
        <ele>916.0</ele>
        <time>2021-08-21T04:15:44Z</time>
      </trkpt>
      <trkpt lat="42.6199970" lon="-5.5261760">
        <ele>917.0</ele>
        <time>2021-08-21T04:15:45Z</time>
      </trkpt>
      <trkpt lat="42.6199960" lon="-5.5261370">
        <ele>917.0</ele>
        <time>2021-08-21T04:15:46Z</time>
      </trkpt>
      <trkpt lat="42.6199960" lon="-5.5261370">
        <ele>917.0</ele>
        <time>2021-08-21T04:15:47Z</time>
      </trkpt>
      <trkpt lat="42.6199960" lon="-5.5260900">
        <ele>917.0</ele>
        <time>2021-08-21T04:15:48Z</time>
      </trkpt>
      <trkpt lat="42.6199890" lon="-5.5260650">
        <ele>917.0</ele>
        <time>2021-08-21T04:15:49Z</time>
      </trkpt>
      <trkpt lat="42.6199890" lon="-5.5260650">
        <ele>917.0</ele>
        <time>2021-08-21T04:15:50Z</time>
      </trkpt>
      <trkpt lat="42.6199760" lon="-5.5260220">
        <ele>917.0</ele>
        <time>2021-08-21T04:15:51Z</time>
      </trkpt>
      <trkpt lat="42.6199670" lon="-5.5259970">
        <ele>917.0</ele>
        <time>2021-08-21T04:15:52Z</time>
      </trkpt>
      <trkpt lat="42.6199590" lon="-5.5259720">
        <ele>918.0</ele>
        <time>2021-08-21T04:15:53Z</time>
      </trkpt>
      <trkpt lat="42.6199510" lon="-5.5259440">
        <ele>918.0</ele>
        <time>2021-08-21T04:15:54Z</time>
      </trkpt>
      <trkpt lat="42.6199450" lon="-5.5259130">
        <ele>918.0</ele>
        <time>2021-08-21T04:15:55Z</time>
      </trkpt>
      <trkpt lat="42.6199420" lon="-5.5258830">
        <ele>918.0</ele>
        <time>2021-08-21T04:15:56Z</time>
      </trkpt>
      <trkpt lat="42.6199410" lon="-5.5258530">
        <ele>918.0</ele>
        <time>2021-08-21T04:15:57Z</time>
      </trkpt>
      <trkpt lat="42.6199380" lon="-5.5258240">
        <ele>918.0</ele>
        <time>2021-08-21T04:15:58Z</time>
      </trkpt>
      <trkpt lat="42.6199270" lon="-5.5257950">
        <ele>919.0</ele>
        <time>2021-08-21T04:15:59Z</time>
      </trkpt>
      <trkpt lat="42.6199120" lon="-5.5257530">
        <ele>919.0</ele>
        <time>2021-08-21T04:16:00Z</time>
      </trkpt>
      <trkpt lat="42.6199080" lon="-5.5257390">
        <ele>919.0</ele>
        <time>2021-08-21T04:16:01Z</time>
      </trkpt>
      <trkpt lat="42.6199010" lon="-5.5257110">
        <ele>919.0</ele>
        <time>2021-08-21T04:16:02Z</time>
      </trkpt>
      <trkpt lat="42.6198960" lon="-5.5256840">
        <ele>920.0</ele>
        <time>2021-08-21T04:16:03Z</time>
      </trkpt>
      <trkpt lat="42.6198920" lon="-5.5256550">
        <ele>920.0</ele>
        <time>2021-08-21T04:16:04Z</time>
      </trkpt>
      <trkpt lat="42.6198900" lon="-5.5256240">
        <ele>920.0</ele>
        <time>2021-08-21T04:16:05Z</time>
      </trkpt>
      <trkpt lat="42.6198870" lon="-5.5255930">
        <ele>920.0</ele>
        <time>2021-08-21T04:16:06Z</time>
      </trkpt>
      <trkpt lat="42.6198840" lon="-5.5255630">
        <ele>920.0</ele>
        <time>2021-08-21T04:16:07Z</time>
      </trkpt>
      <trkpt lat="42.6198800" lon="-5.5255350">
        <ele>920.0</ele>
        <time>2021-08-21T04:16:08Z</time>
      </trkpt>
      <trkpt lat="42.6198800" lon="-5.5255350">
        <ele>921.0</ele>
        <time>2021-08-21T04:16:09Z</time>
      </trkpt>
      <trkpt lat="42.6198790" lon="-5.5254970">
        <ele>921.0</ele>
        <time>2021-08-21T04:16:10Z</time>
      </trkpt>
      <trkpt lat="42.6198790" lon="-5.5254970">
        <ele>921.0</ele>
        <time>2021-08-21T04:16:11Z</time>
      </trkpt>
      <trkpt lat="42.6198780" lon="-5.5254650">
        <ele>921.0</ele>
        <time>2021-08-21T04:16:12Z</time>
      </trkpt>
      <trkpt lat="42.6198780" lon="-5.5254650">
        <ele>922.0</ele>
        <time>2021-08-21T04:16:13Z</time>
      </trkpt>
      <trkpt lat="42.6198750" lon="-5.5254330">
        <ele>922.0</ele>
        <time>2021-08-21T04:16:14Z</time>
      </trkpt>
      <trkpt lat="42.6198750" lon="-5.5254330">
        <ele>922.0</ele>
        <time>2021-08-21T04:16:15Z</time>
      </trkpt>
      <trkpt lat="42.6198770" lon="-5.5254030">
        <ele>922.0</ele>
        <time>2021-08-21T04:16:16Z</time>
      </trkpt>
      <trkpt lat="42.6198770" lon="-5.5254030">
        <ele>922.0</ele>
        <time>2021-08-21T04:16:17Z</time>
      </trkpt>
      <trkpt lat="42.6198720" lon="-5.5253770">
        <ele>923.0</ele>
        <time>2021-08-21T04:16:18Z</time>
      </trkpt>
      <trkpt lat="42.6198720" lon="-5.5253770">
        <ele>923.0</ele>
        <time>2021-08-21T04:16:19Z</time>
      </trkpt>
      <trkpt lat="42.6198720" lon="-5.5253770">
        <ele>923.0</ele>
        <time>2021-08-21T04:16:20Z</time>
      </trkpt>
      <trkpt lat="42.6198690" lon="-5.5253460">
        <ele>924.0</ele>
        <time>2021-08-21T04:16:21Z</time>
      </trkpt>
      <trkpt lat="42.6198690" lon="-5.5253460">
        <ele>924.0</ele>
        <time>2021-08-21T04:16:22Z</time>
      </trkpt>
      <trkpt lat="42.6198680" lon="-5.5253210">
        <ele>924.0</ele>
        <time>2021-08-21T04:16:23Z</time>
      </trkpt>
      <trkpt lat="42.6198690" lon="-5.5252950">
        <ele>925.0</ele>
        <time>2021-08-21T04:16:25Z</time>
      </trkpt>
      <trkpt lat="42.6198690" lon="-5.5252950">
        <ele>925.0</ele>
        <time>2021-08-21T04:16:26Z</time>
      </trkpt>
      <trkpt lat="42.6198760" lon="-5.5252640">
        <ele>925.0</ele>
        <time>2021-08-21T04:16:27Z</time>
      </trkpt>
      <trkpt lat="42.6198760" lon="-5.5252640">
        <ele>925.0</ele>
        <time>2021-08-21T04:16:28Z</time>
      </trkpt>
      <trkpt lat="42.6198760" lon="-5.5252640">
        <ele>926.0</ele>
        <time>2021-08-21T04:16:29Z</time>
      </trkpt>
      <trkpt lat="42.6198780" lon="-5.5252370">
        <ele>926.0</ele>
        <time>2021-08-21T04:16:30Z</time>
      </trkpt>
      <trkpt lat="42.6198780" lon="-5.5252080">
        <ele>926.0</ele>
        <time>2021-08-21T04:16:32Z</time>
      </trkpt>
      <trkpt lat="42.6198780" lon="-5.5252080">
        <ele>926.0</ele>
        <time>2021-08-21T04:16:33Z</time>
      </trkpt>
      <trkpt lat="42.6198730" lon="-5.5251790">
        <ele>926.0</ele>
        <time>2021-08-21T04:16:34Z</time>
      </trkpt>
      <trkpt lat="42.6198670" lon="-5.5251510">
        <ele>927.0</ele>
        <time>2021-08-21T04:16:36Z</time>
      </trkpt>
      <trkpt lat="42.6198670" lon="-5.5251510">
        <ele>927.0</ele>
        <time>2021-08-21T04:16:37Z</time>
      </trkpt>
      <trkpt lat="42.6198600" lon="-5.5251260">
        <ele>927.0</ele>
        <time>2021-08-21T04:16:38Z</time>
      </trkpt>
      <trkpt lat="42.6198600" lon="-5.5251260">
        <ele>928.0</ele>
        <time>2021-08-21T04:16:39Z</time>
      </trkpt>
      <trkpt lat="42.6198570" lon="-5.5250950">
        <ele>928.0</ele>
        <time>2021-08-21T04:16:40Z</time>
      </trkpt>
      <trkpt lat="42.6198570" lon="-5.5250950">
        <ele>928.0</ele>
        <time>2021-08-21T04:16:41Z</time>
      </trkpt>
      <trkpt lat="42.6198550" lon="-5.5250600">
        <ele>928.0</ele>
        <time>2021-08-21T04:16:42Z</time>
      </trkpt>
      <trkpt lat="42.6198550" lon="-5.5250600">
        <ele>929.0</ele>
        <time>2021-08-21T04:16:43Z</time>
      </trkpt>
      <trkpt lat="42.6198520" lon="-5.5249990">
        <ele>929.0</ele>
        <time>2021-08-21T04:16:44Z</time>
      </trkpt>
      <trkpt lat="42.6198510" lon="-5.5249850">
        <ele>929.0</ele>
        <time>2021-08-21T04:16:45Z</time>
      </trkpt>
      <trkpt lat="42.6198470" lon="-5.5249530">
        <ele>929.0</ele>
        <time>2021-08-21T04:16:46Z</time>
      </trkpt>
      <trkpt lat="42.6198410" lon="-5.5249220">
        <ele>929.0</ele>
        <time>2021-08-21T04:16:47Z</time>
      </trkpt>
      <trkpt lat="42.6198260" lon="-5.5248930">
        <ele>929.0</ele>
        <time>2021-08-21T04:16:48Z</time>
      </trkpt>
      <trkpt lat="42.6198090" lon="-5.5248690">
        <ele>929.0</ele>
        <time>2021-08-21T04:16:49Z</time>
      </trkpt>
      <trkpt lat="42.6197960" lon="-5.5248460">
        <ele>929.0</ele>
        <time>2021-08-21T04:16:50Z</time>
      </trkpt>
      <trkpt lat="42.6197820" lon="-5.5248190">
        <ele>929.0</ele>
        <time>2021-08-21T04:16:51Z</time>
      </trkpt>
      <trkpt lat="42.6197750" lon="-5.5247880">
        <ele>929.0</ele>
        <time>2021-08-21T04:16:52Z</time>
      </trkpt>
      <trkpt lat="42.6197670" lon="-5.5247550">
        <ele>930.0</ele>
        <time>2021-08-21T04:16:53Z</time>
      </trkpt>
      <trkpt lat="42.6197560" lon="-5.5247070">
        <ele>930.0</ele>
        <time>2021-08-21T04:16:54Z</time>
      </trkpt>
      <trkpt lat="42.6197540" lon="-5.5246910">
        <ele>930.0</ele>
        <time>2021-08-21T04:16:55Z</time>
      </trkpt>
      <trkpt lat="42.6197510" lon="-5.5246580">
        <ele>930.0</ele>
        <time>2021-08-21T04:16:56Z</time>
      </trkpt>
      <trkpt lat="42.6197380" lon="-5.5246250">
        <ele>930.0</ele>
        <time>2021-08-21T04:16:57Z</time>
      </trkpt>
      <trkpt lat="42.6197260" lon="-5.5245910">
        <ele>930.0</ele>
        <time>2021-08-21T04:16:58Z</time>
      </trkpt>
      <trkpt lat="42.6197200" lon="-5.5245560">
        <ele>930.0</ele>
        <time>2021-08-21T04:16:59Z</time>
      </trkpt>
      <trkpt lat="42.6197280" lon="-5.5245110">
        <ele>930.0</ele>
        <time>2021-08-21T04:17:00Z</time>
      </trkpt>
      <trkpt lat="42.6197320" lon="-5.5244980">
        <ele>930.0</ele>
        <time>2021-08-21T04:17:01Z</time>
      </trkpt>
      <trkpt lat="42.6197550" lon="-5.5244620">
        <ele>930.0</ele>
        <time>2021-08-21T04:17:02Z</time>
      </trkpt>
      <trkpt lat="42.6197620" lon="-5.5244480">
        <ele>929.0</ele>
        <time>2021-08-21T04:17:03Z</time>
      </trkpt>
      <trkpt lat="42.6197880" lon="-5.5244020">
        <ele>929.0</ele>
        <time>2021-08-21T04:17:04Z</time>
      </trkpt>
      <trkpt lat="42.6197970" lon="-5.5243860">
        <ele>929.0</ele>
        <time>2021-08-21T04:17:05Z</time>
      </trkpt>
      <trkpt lat="42.6198300" lon="-5.5243630">
        <ele>929.0</ele>
        <time>2021-08-21T04:17:06Z</time>
      </trkpt>
      <trkpt lat="42.6198420" lon="-5.5243600">
        <ele>929.0</ele>
        <time>2021-08-21T04:17:07Z</time>
      </trkpt>
      <trkpt lat="42.6198700" lon="-5.5243560">
        <ele>929.0</ele>
        <time>2021-08-21T04:17:08Z</time>
      </trkpt>
      <trkpt lat="42.6198960" lon="-5.5243540">
        <ele>929.0</ele>
        <time>2021-08-21T04:17:09Z</time>
      </trkpt>
      <trkpt lat="42.6199220" lon="-5.5243490">
        <ele>929.0</ele>
        <time>2021-08-21T04:17:10Z</time>
      </trkpt>
      <trkpt lat="42.6199580" lon="-5.5243430">
        <ele>929.0</ele>
        <time>2021-08-21T04:17:11Z</time>
      </trkpt>
      <trkpt lat="42.6199700" lon="-5.5243410">
        <ele>929.0</ele>
        <time>2021-08-21T04:17:12Z</time>
      </trkpt>
      <trkpt lat="42.6200070" lon="-5.5243370">
        <ele>929.0</ele>
        <time>2021-08-21T04:17:13Z</time>
      </trkpt>
      <trkpt lat="42.6200190" lon="-5.5243350">
        <ele>929.0</ele>
        <time>2021-08-21T04:17:14Z</time>
      </trkpt>
      <trkpt lat="42.6200460" lon="-5.5243280">
        <ele>929.0</ele>
        <time>2021-08-21T04:17:15Z</time>
      </trkpt>
      <trkpt lat="42.6200740" lon="-5.5243220">
        <ele>929.0</ele>
        <time>2021-08-21T04:17:16Z</time>
      </trkpt>
      <trkpt lat="42.6201030" lon="-5.5243190">
        <ele>929.0</ele>
        <time>2021-08-21T04:17:17Z</time>
      </trkpt>
      <trkpt lat="42.6201290" lon="-5.5243170">
        <ele>929.0</ele>
        <time>2021-08-21T04:17:18Z</time>
      </trkpt>
      <trkpt lat="42.6201540" lon="-5.5243140">
        <ele>929.0</ele>
        <time>2021-08-21T04:17:19Z</time>
      </trkpt>
      <trkpt lat="42.6201810" lon="-5.5243100">
        <ele>929.0</ele>
        <time>2021-08-21T04:17:20Z</time>
      </trkpt>
      <trkpt lat="42.6202080" lon="-5.5243030">
        <ele>929.0</ele>
        <time>2021-08-21T04:17:21Z</time>
      </trkpt>
      <trkpt lat="42.6202360" lon="-5.5242950">
        <ele>929.0</ele>
        <time>2021-08-21T04:17:22Z</time>
      </trkpt>
      <trkpt lat="42.6202780" lon="-5.5242890">
        <ele>929.0</ele>
        <time>2021-08-21T04:17:23Z</time>
      </trkpt>
      <trkpt lat="42.6202920" lon="-5.5242870">
        <ele>929.0</ele>
        <time>2021-08-21T04:17:24Z</time>
      </trkpt>
      <trkpt lat="42.6203190" lon="-5.5242860">
        <ele>929.0</ele>
        <time>2021-08-21T04:17:25Z</time>
      </trkpt>
      <trkpt lat="42.6203450" lon="-5.5242840">
        <ele>929.0</ele>
        <time>2021-08-21T04:17:26Z</time>
      </trkpt>
      <trkpt lat="42.6203880" lon="-5.5242730">
        <ele>929.0</ele>
        <time>2021-08-21T04:17:27Z</time>
      </trkpt>
      <trkpt lat="42.6204020" lon="-5.5242690">
        <ele>928.0</ele>
        <time>2021-08-21T04:17:28Z</time>
      </trkpt>
      <trkpt lat="42.6204320" lon="-5.5242550">
        <ele>928.0</ele>
        <time>2021-08-21T04:17:29Z</time>
      </trkpt>
      <trkpt lat="42.6204620" lon="-5.5242380">
        <ele>929.0</ele>
        <time>2021-08-21T04:17:30Z</time>
      </trkpt>
      <trkpt lat="42.6204880" lon="-5.5242200">
        <ele>928.0</ele>
        <time>2021-08-21T04:17:31Z</time>
      </trkpt>
      <trkpt lat="42.6205200" lon="-5.5241890">
        <ele>928.0</ele>
        <time>2021-08-21T04:17:32Z</time>
      </trkpt>
      <trkpt lat="42.6205300" lon="-5.5241770">
        <ele>928.0</ele>
        <time>2021-08-21T04:17:33Z</time>
      </trkpt>
      <trkpt lat="42.6205510" lon="-5.5241530">
        <ele>928.0</ele>
        <time>2021-08-21T04:17:34Z</time>
      </trkpt>
      <trkpt lat="42.6205750" lon="-5.5241290">
        <ele>928.0</ele>
        <time>2021-08-21T04:17:35Z</time>
      </trkpt>
      <trkpt lat="42.6205960" lon="-5.5241040">
        <ele>928.0</ele>
        <time>2021-08-21T04:17:36Z</time>
      </trkpt>
      <trkpt lat="42.6206160" lon="-5.5240760">
        <ele>927.0</ele>
        <time>2021-08-21T04:17:37Z</time>
      </trkpt>
      <trkpt lat="42.6206370" lon="-5.5240460">
        <ele>927.0</ele>
        <time>2021-08-21T04:17:38Z</time>
      </trkpt>
      <trkpt lat="42.6206590" lon="-5.5240170">
        <ele>927.0</ele>
        <time>2021-08-21T04:17:39Z</time>
      </trkpt>
      <trkpt lat="42.6206860" lon="-5.5239690">
        <ele>927.0</ele>
        <time>2021-08-21T04:17:40Z</time>
      </trkpt>
      <trkpt lat="42.6206950" lon="-5.5239520">
        <ele>927.0</ele>
        <time>2021-08-21T04:17:41Z</time>
      </trkpt>
      <trkpt lat="42.6207110" lon="-5.5239230">
        <ele>927.0</ele>
        <time>2021-08-21T04:17:42Z</time>
      </trkpt>
      <trkpt lat="42.6207280" lon="-5.5238940">
        <ele>927.0</ele>
        <time>2021-08-21T04:17:43Z</time>
      </trkpt>
      <trkpt lat="42.6207450" lon="-5.5238640">
        <ele>927.0</ele>
        <time>2021-08-21T04:17:44Z</time>
      </trkpt>
      <trkpt lat="42.6207640" lon="-5.5238340">
        <ele>927.0</ele>
        <time>2021-08-21T04:17:45Z</time>
      </trkpt>
      <trkpt lat="42.6207850" lon="-5.5238060">
        <ele>927.0</ele>
        <time>2021-08-21T04:17:46Z</time>
      </trkpt>
      <trkpt lat="42.6208060" lon="-5.5237810">
        <ele>927.0</ele>
        <time>2021-08-21T04:17:47Z</time>
      </trkpt>
      <trkpt lat="42.6208380" lon="-5.5237440">
        <ele>927.0</ele>
        <time>2021-08-21T04:17:48Z</time>
      </trkpt>
      <trkpt lat="42.6208470" lon="-5.5237330">
        <ele>926.0</ele>
        <time>2021-08-21T04:17:49Z</time>
      </trkpt>
      <trkpt lat="42.6208720" lon="-5.5237100">
        <ele>926.0</ele>
        <time>2021-08-21T04:17:50Z</time>
      </trkpt>
      <trkpt lat="42.6209040" lon="-5.5236770">
        <ele>926.0</ele>
        <time>2021-08-21T04:17:51Z</time>
      </trkpt>
      <trkpt lat="42.6209150" lon="-5.5236660">
        <ele>926.0</ele>
        <time>2021-08-21T04:17:52Z</time>
      </trkpt>
      <trkpt lat="42.6209510" lon="-5.5236250">
        <ele>926.0</ele>
        <time>2021-08-21T04:17:53Z</time>
      </trkpt>
      <trkpt lat="42.6209510" lon="-5.5236250">
        <ele>926.0</ele>
        <time>2021-08-21T04:17:54Z</time>
      </trkpt>
      <trkpt lat="42.6209710" lon="-5.5236000">
        <ele>926.0</ele>
        <time>2021-08-21T04:17:55Z</time>
      </trkpt>
      <trkpt lat="42.6209920" lon="-5.5235760">
        <ele>926.0</ele>
        <time>2021-08-21T04:17:56Z</time>
      </trkpt>
      <trkpt lat="42.6210100" lon="-5.5235520">
        <ele>926.0</ele>
        <time>2021-08-21T04:17:57Z</time>
      </trkpt>
      <trkpt lat="42.6210420" lon="-5.5235190">
        <ele>926.0</ele>
        <time>2021-08-21T04:17:58Z</time>
      </trkpt>
      <trkpt lat="42.6210510" lon="-5.5235080">
        <ele>925.0</ele>
        <time>2021-08-21T04:17:59Z</time>
      </trkpt>
      <trkpt lat="42.6210710" lon="-5.5234910">
        <ele>925.0</ele>
        <time>2021-08-21T04:18:00Z</time>
      </trkpt>
      <trkpt lat="42.6210890" lon="-5.5234860">
        <ele>925.0</ele>
        <time>2021-08-21T04:18:01Z</time>
      </trkpt>
      <trkpt lat="42.6211080" lon="-5.5234930">
        <ele>925.0</ele>
        <time>2021-08-21T04:18:02Z</time>
      </trkpt>
      <trkpt lat="42.6211310" lon="-5.5235040">
        <ele>925.0</ele>
        <time>2021-08-21T04:18:03Z</time>
      </trkpt>
      <trkpt lat="42.6211570" lon="-5.5235080">
        <ele>925.0</ele>
        <time>2021-08-21T04:18:04Z</time>
      </trkpt>
      <trkpt lat="42.6211790" lon="-5.5235060">
        <ele>925.0</ele>
        <time>2021-08-21T04:18:05Z</time>
      </trkpt>
      <trkpt lat="42.6212130" lon="-5.5235070">
        <ele>925.0</ele>
        <time>2021-08-21T04:18:06Z</time>
      </trkpt>
      <trkpt lat="42.6212230" lon="-5.5235100">
        <ele>925.0</ele>
        <time>2021-08-21T04:18:07Z</time>
      </trkpt>
      <trkpt lat="42.6212460" lon="-5.5235130">
        <ele>925.0</ele>
        <time>2021-08-21T04:18:08Z</time>
      </trkpt>
      <trkpt lat="42.6212710" lon="-5.5235170">
        <ele>925.0</ele>
        <time>2021-08-21T04:18:09Z</time>
      </trkpt>
      <trkpt lat="42.6213060" lon="-5.5235280">
        <ele>925.0</ele>
        <time>2021-08-21T04:18:10Z</time>
      </trkpt>
      <trkpt lat="42.6213180" lon="-5.5235340">
        <ele>924.0</ele>
        <time>2021-08-21T04:18:11Z</time>
      </trkpt>
      <trkpt lat="42.6213390" lon="-5.5235520">
        <ele>924.0</ele>
        <time>2021-08-21T04:18:12Z</time>
      </trkpt>
      <trkpt lat="42.6213560" lon="-5.5235760">
        <ele>924.0</ele>
        <time>2021-08-21T04:18:13Z</time>
      </trkpt>
      <trkpt lat="42.6213710" lon="-5.5236030">
        <ele>924.0</ele>
        <time>2021-08-21T04:18:14Z</time>
      </trkpt>
      <trkpt lat="42.6213840" lon="-5.5236330">
        <ele>924.0</ele>
        <time>2021-08-21T04:18:15Z</time>
      </trkpt>
      <trkpt lat="42.6213990" lon="-5.5236630">
        <ele>924.0</ele>
        <time>2021-08-21T04:18:16Z</time>
      </trkpt>
      <trkpt lat="42.6214150" lon="-5.5236900">
        <ele>924.0</ele>
        <time>2021-08-21T04:18:17Z</time>
      </trkpt>
      <trkpt lat="42.6214290" lon="-5.5237170">
        <ele>924.0</ele>
        <time>2021-08-21T04:18:18Z</time>
      </trkpt>
      <trkpt lat="42.6214440" lon="-5.5237460">
        <ele>924.0</ele>
        <time>2021-08-21T04:18:19Z</time>
      </trkpt>
      <trkpt lat="42.6214590" lon="-5.5237770">
        <ele>924.0</ele>
        <time>2021-08-21T04:18:20Z</time>
      </trkpt>
      <trkpt lat="42.6214760" lon="-5.5238040">
        <ele>924.0</ele>
        <time>2021-08-21T04:18:21Z</time>
      </trkpt>
      <trkpt lat="42.6214980" lon="-5.5238270">
        <ele>924.0</ele>
        <time>2021-08-21T04:18:22Z</time>
      </trkpt>
      <trkpt lat="42.6215250" lon="-5.5238420">
        <ele>924.0</ele>
        <time>2021-08-21T04:18:23Z</time>
      </trkpt>
      <trkpt lat="42.6215520" lon="-5.5238560">
        <ele>924.0</ele>
        <time>2021-08-21T04:18:24Z</time>
      </trkpt>
      <trkpt lat="42.6215780" lon="-5.5238720">
        <ele>924.0</ele>
        <time>2021-08-21T04:18:25Z</time>
      </trkpt>
      <trkpt lat="42.6216030" lon="-5.5238880">
        <ele>924.0</ele>
        <time>2021-08-21T04:18:26Z</time>
      </trkpt>
      <trkpt lat="42.6216420" lon="-5.5239100">
        <ele>924.0</ele>
        <time>2021-08-21T04:18:27Z</time>
      </trkpt>
      <trkpt lat="42.6216540" lon="-5.5239180">
        <ele>924.0</ele>
        <time>2021-08-21T04:18:28Z</time>
      </trkpt>
      <trkpt lat="42.6216780" lon="-5.5239340">
        <ele>924.0</ele>
        <time>2021-08-21T04:18:29Z</time>
      </trkpt>
      <trkpt lat="42.6217020" lon="-5.5239490">
        <ele>924.0</ele>
        <time>2021-08-21T04:18:30Z</time>
      </trkpt>
      <trkpt lat="42.6217230" lon="-5.5239610">
        <ele>924.0</ele>
        <time>2021-08-21T04:18:31Z</time>
      </trkpt>
      <trkpt lat="42.6217440" lon="-5.5239770">
        <ele>923.0</ele>
        <time>2021-08-21T04:18:32Z</time>
      </trkpt>
      <trkpt lat="42.6217670" lon="-5.5239920">
        <ele>923.0</ele>
        <time>2021-08-21T04:18:33Z</time>
      </trkpt>
      <trkpt lat="42.6217920" lon="-5.5240070">
        <ele>923.0</ele>
        <time>2021-08-21T04:18:34Z</time>
      </trkpt>
      <trkpt lat="42.6218140" lon="-5.5240240">
        <ele>923.0</ele>
        <time>2021-08-21T04:18:35Z</time>
      </trkpt>
      <trkpt lat="42.6218370" lon="-5.5240400">
        <ele>923.0</ele>
        <time>2021-08-21T04:18:36Z</time>
      </trkpt>
      <trkpt lat="42.6218580" lon="-5.5240590">
        <ele>923.0</ele>
        <time>2021-08-21T04:18:37Z</time>
      </trkpt>
      <trkpt lat="42.6218790" lon="-5.5240770">
        <ele>923.0</ele>
        <time>2021-08-21T04:18:38Z</time>
      </trkpt>
      <trkpt lat="42.6218990" lon="-5.5240980">
        <ele>923.0</ele>
        <time>2021-08-21T04:18:39Z</time>
      </trkpt>
      <trkpt lat="42.6219170" lon="-5.5241190">
        <ele>923.0</ele>
        <time>2021-08-21T04:18:40Z</time>
      </trkpt>
      <trkpt lat="42.6219420" lon="-5.5241580">
        <ele>923.0</ele>
        <time>2021-08-21T04:18:41Z</time>
      </trkpt>
      <trkpt lat="42.6219510" lon="-5.5241720">
        <ele>923.0</ele>
        <time>2021-08-21T04:18:42Z</time>
      </trkpt>
      <trkpt lat="42.6219700" lon="-5.5241960">
        <ele>923.0</ele>
        <time>2021-08-21T04:18:43Z</time>
      </trkpt>
      <trkpt lat="42.6219910" lon="-5.5242190">
        <ele>923.0</ele>
        <time>2021-08-21T04:18:44Z</time>
      </trkpt>
      <trkpt lat="42.6220100" lon="-5.5242410">
        <ele>923.0</ele>
        <time>2021-08-21T04:18:45Z</time>
      </trkpt>
      <trkpt lat="42.6220300" lon="-5.5242610">
        <ele>923.0</ele>
        <time>2021-08-21T04:18:46Z</time>
      </trkpt>
      <trkpt lat="42.6220500" lon="-5.5242810">
        <ele>923.0</ele>
        <time>2021-08-21T04:18:47Z</time>
      </trkpt>
      <trkpt lat="42.6220790" lon="-5.5243110">
        <ele>923.0</ele>
        <time>2021-08-21T04:18:48Z</time>
      </trkpt>
      <trkpt lat="42.6220890" lon="-5.5243210">
        <ele>923.0</ele>
        <time>2021-08-21T04:18:49Z</time>
      </trkpt>
      <trkpt lat="42.6221070" lon="-5.5243430">
        <ele>923.0</ele>
        <time>2021-08-21T04:18:50Z</time>
      </trkpt>
      <trkpt lat="42.6221290" lon="-5.5243640">
        <ele>924.0</ele>
        <time>2021-08-21T04:18:51Z</time>
      </trkpt>
      <trkpt lat="42.6221510" lon="-5.5243820">
        <ele>923.0</ele>
        <time>2021-08-21T04:18:52Z</time>
      </trkpt>
      <trkpt lat="42.6221760" lon="-5.5243920">
        <ele>923.0</ele>
        <time>2021-08-21T04:18:53Z</time>
      </trkpt>
      <trkpt lat="42.6222130" lon="-5.5243990">
        <ele>923.0</ele>
        <time>2021-08-21T04:18:54Z</time>
      </trkpt>
      <trkpt lat="42.6222260" lon="-5.5243990">
        <ele>923.0</ele>
        <time>2021-08-21T04:18:55Z</time>
      </trkpt>
      <trkpt lat="42.6222670" lon="-5.5243800">
        <ele>923.0</ele>
        <time>2021-08-21T04:18:56Z</time>
      </trkpt>
      <trkpt lat="42.6222790" lon="-5.5243710">
        <ele>923.0</ele>
        <time>2021-08-21T04:18:57Z</time>
      </trkpt>
      <trkpt lat="42.6223170" lon="-5.5243480">
        <ele>923.0</ele>
        <time>2021-08-21T04:18:58Z</time>
      </trkpt>
      <trkpt lat="42.6223300" lon="-5.5243410">
        <ele>923.0</ele>
        <time>2021-08-21T04:18:59Z</time>
      </trkpt>
      <trkpt lat="42.6223560" lon="-5.5243260">
        <ele>924.0</ele>
        <time>2021-08-21T04:19:00Z</time>
      </trkpt>
      <trkpt lat="42.6223790" lon="-5.5243080">
        <ele>924.0</ele>
        <time>2021-08-21T04:19:01Z</time>
      </trkpt>
      <trkpt lat="42.6223990" lon="-5.5242860">
        <ele>924.0</ele>
        <time>2021-08-21T04:19:02Z</time>
      </trkpt>
      <trkpt lat="42.6224260" lon="-5.5242470">
        <ele>924.0</ele>
        <time>2021-08-21T04:19:03Z</time>
      </trkpt>
      <trkpt lat="42.6224330" lon="-5.5242340">
        <ele>924.0</ele>
        <time>2021-08-21T04:19:04Z</time>
      </trkpt>
      <trkpt lat="42.6224530" lon="-5.5242110">
        <ele>924.0</ele>
        <time>2021-08-21T04:19:05Z</time>
      </trkpt>
      <trkpt lat="42.6224710" lon="-5.5241860">
        <ele>924.0</ele>
        <time>2021-08-21T04:19:06Z</time>
      </trkpt>
      <trkpt lat="42.6224920" lon="-5.5241660">
        <ele>924.0</ele>
        <time>2021-08-21T04:19:07Z</time>
      </trkpt>
      <trkpt lat="42.6225170" lon="-5.5241510">
        <ele>924.0</ele>
        <time>2021-08-21T04:19:08Z</time>
      </trkpt>
      <trkpt lat="42.6225400" lon="-5.5241410">
        <ele>924.0</ele>
        <time>2021-08-21T04:19:09Z</time>
      </trkpt>
      <trkpt lat="42.6225620" lon="-5.5241320">
        <ele>924.0</ele>
        <time>2021-08-21T04:19:10Z</time>
      </trkpt>
      <trkpt lat="42.6225850" lon="-5.5241240">
        <ele>924.0</ele>
        <time>2021-08-21T04:19:11Z</time>
      </trkpt>
      <trkpt lat="42.6226070" lon="-5.5241210">
        <ele>924.0</ele>
        <time>2021-08-21T04:19:12Z</time>
      </trkpt>
      <trkpt lat="42.6226490" lon="-5.5241130">
        <ele>924.0</ele>
        <time>2021-08-21T04:19:13Z</time>
      </trkpt>
      <trkpt lat="42.6226630" lon="-5.5241110">
        <ele>924.0</ele>
        <time>2021-08-21T04:19:14Z</time>
      </trkpt>
      <trkpt lat="42.6226910" lon="-5.5241060">
        <ele>924.0</ele>
        <time>2021-08-21T04:19:15Z</time>
      </trkpt>
      <trkpt lat="42.6227170" lon="-5.5241020">
        <ele>924.0</ele>
        <time>2021-08-21T04:19:16Z</time>
      </trkpt>
      <trkpt lat="42.6227430" lon="-5.5240960">
        <ele>924.0</ele>
        <time>2021-08-21T04:19:17Z</time>
      </trkpt>
      <trkpt lat="42.6227690" lon="-5.5240860">
        <ele>924.0</ele>
        <time>2021-08-21T04:19:18Z</time>
      </trkpt>
      <trkpt lat="42.6227960" lon="-5.5240760">
        <ele>924.0</ele>
        <time>2021-08-21T04:19:19Z</time>
      </trkpt>
      <trkpt lat="42.6228210" lon="-5.5240670">
        <ele>924.0</ele>
        <time>2021-08-21T04:19:20Z</time>
      </trkpt>
      <trkpt lat="42.6228440" lon="-5.5240570">
        <ele>924.0</ele>
        <time>2021-08-21T04:19:21Z</time>
      </trkpt>
      <trkpt lat="42.6228850" lon="-5.5240380">
        <ele>924.0</ele>
        <time>2021-08-21T04:19:22Z</time>
      </trkpt>
      <trkpt lat="42.6228980" lon="-5.5240310">
        <ele>924.0</ele>
        <time>2021-08-21T04:19:23Z</time>
      </trkpt>
      <trkpt lat="42.6229370" lon="-5.5240160">
        <ele>924.0</ele>
        <time>2021-08-21T04:19:24Z</time>
      </trkpt>
      <trkpt lat="42.6229500" lon="-5.5240110">
        <ele>924.0</ele>
        <time>2021-08-21T04:19:25Z</time>
      </trkpt>
      <trkpt lat="42.6229750" lon="-5.5239960">
        <ele>924.0</ele>
        <time>2021-08-21T04:19:26Z</time>
      </trkpt>
      <trkpt lat="42.6230010" lon="-5.5239800">
        <ele>924.0</ele>
        <time>2021-08-21T04:19:27Z</time>
      </trkpt>
      <trkpt lat="42.6230250" lon="-5.5239690">
        <ele>924.0</ele>
        <time>2021-08-21T04:19:28Z</time>
      </trkpt>
      <trkpt lat="42.6230500" lon="-5.5239530">
        <ele>924.0</ele>
        <time>2021-08-21T04:19:29Z</time>
      </trkpt>
      <trkpt lat="42.6230740" lon="-5.5239430">
        <ele>924.0</ele>
        <time>2021-08-21T04:19:30Z</time>
      </trkpt>
      <trkpt lat="42.6230980" lon="-5.5239280">
        <ele>924.0</ele>
        <time>2021-08-21T04:19:31Z</time>
      </trkpt>
      <trkpt lat="42.6231240" lon="-5.5239100">
        <ele>924.0</ele>
        <time>2021-08-21T04:19:32Z</time>
      </trkpt>
      <trkpt lat="42.6231500" lon="-5.5238900">
        <ele>924.0</ele>
        <time>2021-08-21T04:19:33Z</time>
      </trkpt>
      <trkpt lat="42.6231740" lon="-5.5238730">
        <ele>924.0</ele>
        <time>2021-08-21T04:19:34Z</time>
      </trkpt>
      <trkpt lat="42.6232100" lon="-5.5238550">
        <ele>924.0</ele>
        <time>2021-08-21T04:19:35Z</time>
      </trkpt>
      <trkpt lat="42.6232220" lon="-5.5238480">
        <ele>924.0</ele>
        <time>2021-08-21T04:19:36Z</time>
      </trkpt>
      <trkpt lat="42.6232460" lon="-5.5238330">
        <ele>924.0</ele>
        <time>2021-08-21T04:19:37Z</time>
      </trkpt>
      <trkpt lat="42.6232840" lon="-5.5238070">
        <ele>924.0</ele>
        <time>2021-08-21T04:19:38Z</time>
      </trkpt>
      <trkpt lat="42.6232970" lon="-5.5237970">
        <ele>924.0</ele>
        <time>2021-08-21T04:19:39Z</time>
      </trkpt>
      <trkpt lat="42.6233300" lon="-5.5237650">
        <ele>924.0</ele>
        <time>2021-08-21T04:19:40Z</time>
      </trkpt>
      <trkpt lat="42.6233420" lon="-5.5237530">
        <ele>924.0</ele>
        <time>2021-08-21T04:19:41Z</time>
      </trkpt>
      <trkpt lat="42.6233660" lon="-5.5237250">
        <ele>924.0</ele>
        <time>2021-08-21T04:19:42Z</time>
      </trkpt>
      <trkpt lat="42.6233840" lon="-5.5236960">
        <ele>924.0</ele>
        <time>2021-08-21T04:19:43Z</time>
      </trkpt>
      <trkpt lat="42.6234020" lon="-5.5236660">
        <ele>924.0</ele>
        <time>2021-08-21T04:19:44Z</time>
      </trkpt>
      <trkpt lat="42.6234220" lon="-5.5236200">
        <ele>924.0</ele>
        <time>2021-08-21T04:19:45Z</time>
      </trkpt>
      <trkpt lat="42.6234270" lon="-5.5236050">
        <ele>924.0</ele>
        <time>2021-08-21T04:19:46Z</time>
      </trkpt>
      <trkpt lat="42.6234410" lon="-5.5235730">
        <ele>924.0</ele>
        <time>2021-08-21T04:19:47Z</time>
      </trkpt>
      <trkpt lat="42.6234590" lon="-5.5235230">
        <ele>924.0</ele>
        <time>2021-08-21T04:19:48Z</time>
      </trkpt>
      <trkpt lat="42.6234630" lon="-5.5235060">
        <ele>924.0</ele>
        <time>2021-08-21T04:19:49Z</time>
      </trkpt>
      <trkpt lat="42.6234780" lon="-5.5234490">
        <ele>924.0</ele>
        <time>2021-08-21T04:19:50Z</time>
      </trkpt>
      <trkpt lat="42.6234820" lon="-5.5234300">
        <ele>924.0</ele>
        <time>2021-08-21T04:19:51Z</time>
      </trkpt>
      <trkpt lat="42.6234890" lon="-5.5233890">
        <ele>924.0</ele>
        <time>2021-08-21T04:19:52Z</time>
      </trkpt>
      <trkpt lat="42.6234860" lon="-5.5233300">
        <ele>924.0</ele>
        <time>2021-08-21T04:19:53Z</time>
      </trkpt>
      <trkpt lat="42.6234850" lon="-5.5233100">
        <ele>924.0</ele>
        <time>2021-08-21T04:19:54Z</time>
      </trkpt>
      <trkpt lat="42.6234850" lon="-5.5232720">
        <ele>924.0</ele>
        <time>2021-08-21T04:19:55Z</time>
      </trkpt>
      <trkpt lat="42.6234910" lon="-5.5232340">
        <ele>924.0</ele>
        <time>2021-08-21T04:19:56Z</time>
      </trkpt>
      <trkpt lat="42.6235040" lon="-5.5231850">
        <ele>924.0</ele>
        <time>2021-08-21T04:19:57Z</time>
      </trkpt>
      <trkpt lat="42.6235080" lon="-5.5231690">
        <ele>924.0</ele>
        <time>2021-08-21T04:19:58Z</time>
      </trkpt>
      <trkpt lat="42.6235300" lon="-5.5231230">
        <ele>924.0</ele>
        <time>2021-08-21T04:19:59Z</time>
      </trkpt>
      <trkpt lat="42.6235390" lon="-5.5231080">
        <ele>924.0</ele>
        <time>2021-08-21T04:20:00Z</time>
      </trkpt>
      <trkpt lat="42.6235560" lon="-5.5230810">
        <ele>924.0</ele>
        <time>2021-08-21T04:20:01Z</time>
      </trkpt>
      <trkpt lat="42.6235750" lon="-5.5230530">
        <ele>924.0</ele>
        <time>2021-08-21T04:20:02Z</time>
      </trkpt>
      <trkpt lat="42.6235910" lon="-5.5230250">
        <ele>924.0</ele>
        <time>2021-08-21T04:20:03Z</time>
      </trkpt>
      <trkpt lat="42.6236080" lon="-5.5229920">
        <ele>924.0</ele>
        <time>2021-08-21T04:20:04Z</time>
      </trkpt>
      <trkpt lat="42.6236220" lon="-5.5229600">
        <ele>924.0</ele>
        <time>2021-08-21T04:20:05Z</time>
      </trkpt>
      <trkpt lat="42.6236360" lon="-5.5229240">
        <ele>924.0</ele>
        <time>2021-08-21T04:20:06Z</time>
      </trkpt>
      <trkpt lat="42.6236470" lon="-5.5228880">
        <ele>924.0</ele>
        <time>2021-08-21T04:20:07Z</time>
      </trkpt>
      <trkpt lat="42.6236580" lon="-5.5228510">
        <ele>924.0</ele>
        <time>2021-08-21T04:20:08Z</time>
      </trkpt>
      <trkpt lat="42.6236690" lon="-5.5228150">
        <ele>924.0</ele>
        <time>2021-08-21T04:20:09Z</time>
      </trkpt>
      <trkpt lat="42.6236830" lon="-5.5227840">
        <ele>924.0</ele>
        <time>2021-08-21T04:20:10Z</time>
      </trkpt>
      <trkpt lat="42.6236960" lon="-5.5227530">
        <ele>924.0</ele>
        <time>2021-08-21T04:20:11Z</time>
      </trkpt>
      <trkpt lat="42.6237110" lon="-5.5227250">
        <ele>923.0</ele>
        <time>2021-08-21T04:20:12Z</time>
      </trkpt>
      <trkpt lat="42.6237350" lon="-5.5226830">
        <ele>923.0</ele>
        <time>2021-08-21T04:20:13Z</time>
      </trkpt>
      <trkpt lat="42.6237430" lon="-5.5226700">
        <ele>923.0</ele>
        <time>2021-08-21T04:20:14Z</time>
      </trkpt>
      <trkpt lat="42.6237600" lon="-5.5226460">
        <ele>923.0</ele>
        <time>2021-08-21T04:20:15Z</time>
      </trkpt>
      <trkpt lat="42.6237790" lon="-5.5226230">
        <ele>923.0</ele>
        <time>2021-08-21T04:20:16Z</time>
      </trkpt>
      <trkpt lat="42.6237950" lon="-5.5226010">
        <ele>923.0</ele>
        <time>2021-08-21T04:20:17Z</time>
      </trkpt>
      <trkpt lat="42.6238150" lon="-5.5225770">
        <ele>923.0</ele>
        <time>2021-08-21T04:20:18Z</time>
      </trkpt>
      <trkpt lat="42.6238350" lon="-5.5225580">
        <ele>923.0</ele>
        <time>2021-08-21T04:20:19Z</time>
      </trkpt>
      <trkpt lat="42.6238660" lon="-5.5225290">
        <ele>923.0</ele>
        <time>2021-08-21T04:20:20Z</time>
      </trkpt>
      <trkpt lat="42.6238750" lon="-5.5225170">
        <ele>923.0</ele>
        <time>2021-08-21T04:20:21Z</time>
      </trkpt>
      <trkpt lat="42.6238980" lon="-5.5224940">
        <ele>923.0</ele>
        <time>2021-08-21T04:20:22Z</time>
      </trkpt>
      <trkpt lat="42.6239170" lon="-5.5224710">
        <ele>923.0</ele>
        <time>2021-08-21T04:20:23Z</time>
      </trkpt>
      <trkpt lat="42.6239380" lon="-5.5224510">
        <ele>923.0</ele>
        <time>2021-08-21T04:20:24Z</time>
      </trkpt>
      <trkpt lat="42.6239620" lon="-5.5224330">
        <ele>923.0</ele>
        <time>2021-08-21T04:20:25Z</time>
      </trkpt>
      <trkpt lat="42.6239860" lon="-5.5224210">
        <ele>923.0</ele>
        <time>2021-08-21T04:20:26Z</time>
      </trkpt>
      <trkpt lat="42.6240100" lon="-5.5224220">
        <ele>923.0</ele>
        <time>2021-08-21T04:20:27Z</time>
      </trkpt>
      <trkpt lat="42.6240510" lon="-5.5224350">
        <ele>923.0</ele>
        <time>2021-08-21T04:20:28Z</time>
      </trkpt>
      <trkpt lat="42.6240640" lon="-5.5224400">
        <ele>923.0</ele>
        <time>2021-08-21T04:20:29Z</time>
      </trkpt>
      <trkpt lat="42.6240880" lon="-5.5224550">
        <ele>923.0</ele>
        <time>2021-08-21T04:20:30Z</time>
      </trkpt>
      <trkpt lat="42.6241080" lon="-5.5224780">
        <ele>923.0</ele>
        <time>2021-08-21T04:20:31Z</time>
      </trkpt>
      <trkpt lat="42.6241270" lon="-5.5225010">
        <ele>923.0</ele>
        <time>2021-08-21T04:20:32Z</time>
      </trkpt>
      <trkpt lat="42.6241430" lon="-5.5225290">
        <ele>923.0</ele>
        <time>2021-08-21T04:20:33Z</time>
      </trkpt>
      <trkpt lat="42.6241560" lon="-5.5225570">
        <ele>923.0</ele>
        <time>2021-08-21T04:20:34Z</time>
      </trkpt>
      <trkpt lat="42.6241800" lon="-5.5225970">
        <ele>923.0</ele>
        <time>2021-08-21T04:20:35Z</time>
      </trkpt>
      <trkpt lat="42.6241890" lon="-5.5226100">
        <ele>923.0</ele>
        <time>2021-08-21T04:20:36Z</time>
      </trkpt>
      <trkpt lat="42.6242070" lon="-5.5226320">
        <ele>923.0</ele>
        <time>2021-08-21T04:20:37Z</time>
      </trkpt>
      <trkpt lat="42.6242260" lon="-5.5226500">
        <ele>924.0</ele>
        <time>2021-08-21T04:20:38Z</time>
      </trkpt>
      <trkpt lat="42.6242450" lon="-5.5226680">
        <ele>924.0</ele>
        <time>2021-08-21T04:20:39Z</time>
      </trkpt>
      <trkpt lat="42.6242640" lon="-5.5226830">
        <ele>924.0</ele>
        <time>2021-08-21T04:20:40Z</time>
      </trkpt>
      <trkpt lat="42.6242870" lon="-5.5226950">
        <ele>924.0</ele>
        <time>2021-08-21T04:20:41Z</time>
      </trkpt>
      <trkpt lat="42.6243110" lon="-5.5227040">
        <ele>924.0</ele>
        <time>2021-08-21T04:20:42Z</time>
      </trkpt>
      <trkpt lat="42.6243360" lon="-5.5227080">
        <ele>923.0</ele>
        <time>2021-08-21T04:20:43Z</time>
      </trkpt>
      <trkpt lat="42.6243590" lon="-5.5227130">
        <ele>923.0</ele>
        <time>2021-08-21T04:20:44Z</time>
      </trkpt>
      <trkpt lat="42.6243830" lon="-5.5227150">
        <ele>923.0</ele>
        <time>2021-08-21T04:20:45Z</time>
      </trkpt>
      <trkpt lat="42.6244040" lon="-5.5227170">
        <ele>923.0</ele>
        <time>2021-08-21T04:20:46Z</time>
      </trkpt>
      <trkpt lat="42.6244360" lon="-5.5227140">
        <ele>923.0</ele>
        <time>2021-08-21T04:20:47Z</time>
      </trkpt>
      <trkpt lat="42.6244470" lon="-5.5227120">
        <ele>923.0</ele>
        <time>2021-08-21T04:20:48Z</time>
      </trkpt>
      <trkpt lat="42.6244660" lon="-5.5227100">
        <ele>923.0</ele>
        <time>2021-08-21T04:20:49Z</time>
      </trkpt>
      <trkpt lat="42.6244890" lon="-5.5227080">
        <ele>923.0</ele>
        <time>2021-08-21T04:20:50Z</time>
      </trkpt>
      <trkpt lat="42.6245110" lon="-5.5227070">
        <ele>924.0</ele>
        <time>2021-08-21T04:20:51Z</time>
      </trkpt>
      <trkpt lat="42.6245430" lon="-5.5227100">
        <ele>924.0</ele>
        <time>2021-08-21T04:20:52Z</time>
      </trkpt>
      <trkpt lat="42.6245540" lon="-5.5227090">
        <ele>924.0</ele>
        <time>2021-08-21T04:20:53Z</time>
      </trkpt>
      <trkpt lat="42.6245750" lon="-5.5227050">
        <ele>924.0</ele>
        <time>2021-08-21T04:20:54Z</time>
      </trkpt>
      <trkpt lat="42.6246130" lon="-5.5226980">
        <ele>924.0</ele>
        <time>2021-08-21T04:20:55Z</time>
      </trkpt>
      <trkpt lat="42.6246280" lon="-5.5226950">
        <ele>924.0</ele>
        <time>2021-08-21T04:20:56Z</time>
      </trkpt>
      <trkpt lat="42.6246710" lon="-5.5226870">
        <ele>924.0</ele>
        <time>2021-08-21T04:20:57Z</time>
      </trkpt>
      <trkpt lat="42.6246840" lon="-5.5226820">
        <ele>924.0</ele>
        <time>2021-08-21T04:20:58Z</time>
      </trkpt>
      <trkpt lat="42.6247100" lon="-5.5226680">
        <ele>924.0</ele>
        <time>2021-08-21T04:20:59Z</time>
      </trkpt>
      <trkpt lat="42.6247350" lon="-5.5226530">
        <ele>924.0</ele>
        <time>2021-08-21T04:21:00Z</time>
      </trkpt>
      <trkpt lat="42.6247590" lon="-5.5226340">
        <ele>924.0</ele>
        <time>2021-08-21T04:21:01Z</time>
      </trkpt>
      <trkpt lat="42.6247820" lon="-5.5226170">
        <ele>924.0</ele>
        <time>2021-08-21T04:21:02Z</time>
      </trkpt>
      <trkpt lat="42.6248090" lon="-5.5226020">
        <ele>924.0</ele>
        <time>2021-08-21T04:21:03Z</time>
      </trkpt>
      <trkpt lat="42.6248330" lon="-5.5225900">
        <ele>924.0</ele>
        <time>2021-08-21T04:21:04Z</time>
      </trkpt>
      <trkpt lat="42.6248560" lon="-5.5225770">
        <ele>924.0</ele>
        <time>2021-08-21T04:21:05Z</time>
      </trkpt>
      <trkpt lat="42.6248930" lon="-5.5225560">
        <ele>924.0</ele>
        <time>2021-08-21T04:21:06Z</time>
      </trkpt>
      <trkpt lat="42.6249050" lon="-5.5225480">
        <ele>924.0</ele>
        <time>2021-08-21T04:21:07Z</time>
      </trkpt>
      <trkpt lat="42.6249280" lon="-5.5225360">
        <ele>924.0</ele>
        <time>2021-08-21T04:21:08Z</time>
      </trkpt>
      <trkpt lat="42.6249660" lon="-5.5225180">
        <ele>924.0</ele>
        <time>2021-08-21T04:21:09Z</time>
      </trkpt>
      <trkpt lat="42.6249790" lon="-5.5225120">
        <ele>923.0</ele>
        <time>2021-08-21T04:21:10Z</time>
      </trkpt>
      <trkpt lat="42.6250020" lon="-5.5225010">
        <ele>923.0</ele>
        <time>2021-08-21T04:21:11Z</time>
      </trkpt>
      <trkpt lat="42.6250270" lon="-5.5224940">
        <ele>923.0</ele>
        <time>2021-08-21T04:21:12Z</time>
      </trkpt>
      <trkpt lat="42.6250720" lon="-5.5224910">
        <ele>924.0</ele>
        <time>2021-08-21T04:21:13Z</time>
      </trkpt>
      <trkpt lat="42.6250720" lon="-5.5224910">
        <ele>923.0</ele>
        <time>2021-08-21T04:21:14Z</time>
      </trkpt>
      <trkpt lat="42.6250720" lon="-5.5224910">
        <ele>923.0</ele>
        <time>2021-08-21T04:21:15Z</time>
      </trkpt>
      <trkpt lat="42.6250610" lon="-5.5224580">
        <ele>923.0</ele>
        <time>2021-08-21T04:21:16Z</time>
      </trkpt>
      <trkpt lat="42.6250470" lon="-5.5224370">
        <ele>923.0</ele>
        <time>2021-08-21T04:21:17Z</time>
      </trkpt>
      <trkpt lat="42.6250370" lon="-5.5224080">
        <ele>923.0</ele>
        <time>2021-08-21T04:21:18Z</time>
      </trkpt>
      <trkpt lat="42.6250290" lon="-5.5223720">
        <ele>923.0</ele>
        <time>2021-08-21T04:21:19Z</time>
      </trkpt>
      <trkpt lat="42.6250260" lon="-5.5223340">
        <ele>923.0</ele>
        <time>2021-08-21T04:21:20Z</time>
      </trkpt>
      <trkpt lat="42.6250260" lon="-5.5223340">
        <ele>923.0</ele>
        <time>2021-08-21T04:21:21Z</time>
      </trkpt>
      <trkpt lat="42.6250310" lon="-5.5222560">
        <ele>923.0</ele>
        <time>2021-08-21T04:21:22Z</time>
      </trkpt>
      <trkpt lat="42.6250400" lon="-5.5222180">
        <ele>923.0</ele>
        <time>2021-08-21T04:21:23Z</time>
      </trkpt>
      <trkpt lat="42.6250430" lon="-5.5221780">
        <ele>923.0</ele>
        <time>2021-08-21T04:21:24Z</time>
      </trkpt>
      <trkpt lat="42.6250450" lon="-5.5221190">
        <ele>923.0</ele>
        <time>2021-08-21T04:21:25Z</time>
      </trkpt>
      <trkpt lat="42.6250450" lon="-5.5220990">
        <ele>923.0</ele>
        <time>2021-08-21T04:21:26Z</time>
      </trkpt>
      <trkpt lat="42.6250440" lon="-5.5220600">
        <ele>923.0</ele>
        <time>2021-08-21T04:21:27Z</time>
      </trkpt>
      <trkpt lat="42.6250420" lon="-5.5220220">
        <ele>923.0</ele>
        <time>2021-08-21T04:21:28Z</time>
      </trkpt>
      <trkpt lat="42.6250390" lon="-5.5219850">
        <ele>923.0</ele>
        <time>2021-08-21T04:21:29Z</time>
      </trkpt>
      <trkpt lat="42.6250320" lon="-5.5219270">
        <ele>923.0</ele>
        <time>2021-08-21T04:21:30Z</time>
      </trkpt>
      <trkpt lat="42.6250290" lon="-5.5219090">
        <ele>923.0</ele>
        <time>2021-08-21T04:21:31Z</time>
      </trkpt>
      <trkpt lat="42.6250280" lon="-5.5218720">
        <ele>923.0</ele>
        <time>2021-08-21T04:21:32Z</time>
      </trkpt>
      <trkpt lat="42.6250280" lon="-5.5218170">
        <ele>923.0</ele>
        <time>2021-08-21T04:21:33Z</time>
      </trkpt>
      <trkpt lat="42.6250280" lon="-5.5217980">
        <ele>923.0</ele>
        <time>2021-08-21T04:21:34Z</time>
      </trkpt>
      <trkpt lat="42.6250290" lon="-5.5217610">
        <ele>923.0</ele>
        <time>2021-08-21T04:21:35Z</time>
      </trkpt>
      <trkpt lat="42.6250290" lon="-5.5217220">
        <ele>923.0</ele>
        <time>2021-08-21T04:21:36Z</time>
      </trkpt>
      <trkpt lat="42.6250310" lon="-5.5216840">
        <ele>923.0</ele>
        <time>2021-08-21T04:21:37Z</time>
      </trkpt>
      <trkpt lat="42.6250360" lon="-5.5216450">
        <ele>923.0</ele>
        <time>2021-08-21T04:21:38Z</time>
      </trkpt>
      <trkpt lat="42.6250410" lon="-5.5215890">
        <ele>923.0</ele>
        <time>2021-08-21T04:21:39Z</time>
      </trkpt>
      <trkpt lat="42.6250420" lon="-5.5215700">
        <ele>923.0</ele>
        <time>2021-08-21T04:21:40Z</time>
      </trkpt>
      <trkpt lat="42.6250450" lon="-5.5215310">
        <ele>923.0</ele>
        <time>2021-08-21T04:21:41Z</time>
      </trkpt>
      <trkpt lat="42.6250460" lon="-5.5214930">
        <ele>922.0</ele>
        <time>2021-08-21T04:21:42Z</time>
      </trkpt>
      <trkpt lat="42.6250430" lon="-5.5214560">
        <ele>922.0</ele>
        <time>2021-08-21T04:21:43Z</time>
      </trkpt>
      <trkpt lat="42.6250430" lon="-5.5214210">
        <ele>922.0</ele>
        <time>2021-08-21T04:21:44Z</time>
      </trkpt>
      <trkpt lat="42.6250440" lon="-5.5213670">
        <ele>922.0</ele>
        <time>2021-08-21T04:21:45Z</time>
      </trkpt>
      <trkpt lat="42.6250450" lon="-5.5213480">
        <ele>922.0</ele>
        <time>2021-08-21T04:21:46Z</time>
      </trkpt>
      <trkpt lat="42.6250520" lon="-5.5213140">
        <ele>922.0</ele>
        <time>2021-08-21T04:21:47Z</time>
      </trkpt>
      <trkpt lat="42.6250650" lon="-5.5212840">
        <ele>922.0</ele>
        <time>2021-08-21T04:21:48Z</time>
      </trkpt>
      <trkpt lat="42.6250830" lon="-5.5212630">
        <ele>922.0</ele>
        <time>2021-08-21T04:21:49Z</time>
      </trkpt>
      <trkpt lat="42.6251040" lon="-5.5212450">
        <ele>922.0</ele>
        <time>2021-08-21T04:21:50Z</time>
      </trkpt>
      <trkpt lat="42.6251270" lon="-5.5212340">
        <ele>922.0</ele>
        <time>2021-08-21T04:21:51Z</time>
      </trkpt>
      <trkpt lat="42.6251530" lon="-5.5212250">
        <ele>922.0</ele>
        <time>2021-08-21T04:21:52Z</time>
      </trkpt>
      <trkpt lat="42.6251740" lon="-5.5212190">
        <ele>922.0</ele>
        <time>2021-08-21T04:21:53Z</time>
      </trkpt>
      <trkpt lat="42.6251970" lon="-5.5212130">
        <ele>922.0</ele>
        <time>2021-08-21T04:21:54Z</time>
      </trkpt>
      <trkpt lat="42.6252240" lon="-5.5212030">
        <ele>922.0</ele>
        <time>2021-08-21T04:21:55Z</time>
      </trkpt>
      <trkpt lat="42.6252470" lon="-5.5211940">
        <ele>923.0</ele>
        <time>2021-08-21T04:21:56Z</time>
      </trkpt>
      <trkpt lat="42.6252710" lon="-5.5211830">
        <ele>923.0</ele>
        <time>2021-08-21T04:21:57Z</time>
      </trkpt>
      <trkpt lat="42.6253110" lon="-5.5211700">
        <ele>923.0</ele>
        <time>2021-08-21T04:21:58Z</time>
      </trkpt>
      <trkpt lat="42.6253250" lon="-5.5211650">
        <ele>923.0</ele>
        <time>2021-08-21T04:21:59Z</time>
      </trkpt>
      <trkpt lat="42.6253510" lon="-5.5211530">
        <ele>923.0</ele>
        <time>2021-08-21T04:22:00Z</time>
      </trkpt>
      <trkpt lat="42.6253750" lon="-5.5211420">
        <ele>923.0</ele>
        <time>2021-08-21T04:22:01Z</time>
      </trkpt>
      <trkpt lat="42.6253970" lon="-5.5211320">
        <ele>923.0</ele>
        <time>2021-08-21T04:22:02Z</time>
      </trkpt>
      <trkpt lat="42.6254220" lon="-5.5211230">
        <ele>923.0</ele>
        <time>2021-08-21T04:22:03Z</time>
      </trkpt>
      <trkpt lat="42.6254600" lon="-5.5211120">
        <ele>923.0</ele>
        <time>2021-08-21T04:22:04Z</time>
      </trkpt>
      <trkpt lat="42.6254710" lon="-5.5211080">
        <ele>923.0</ele>
        <time>2021-08-21T04:22:05Z</time>
      </trkpt>
      <trkpt lat="42.6254930" lon="-5.5211010">
        <ele>923.0</ele>
        <time>2021-08-21T04:22:06Z</time>
      </trkpt>
      <trkpt lat="42.6255160" lon="-5.5210930">
        <ele>923.0</ele>
        <time>2021-08-21T04:22:07Z</time>
      </trkpt>
      <trkpt lat="42.6255350" lon="-5.5210860">
        <ele>923.0</ele>
        <time>2021-08-21T04:22:08Z</time>
      </trkpt>
      <trkpt lat="42.6255590" lon="-5.5210800">
        <ele>923.0</ele>
        <time>2021-08-21T04:22:09Z</time>
      </trkpt>
      <trkpt lat="42.6255830" lon="-5.5210790">
        <ele>923.0</ele>
        <time>2021-08-21T04:22:10Z</time>
      </trkpt>
      <trkpt lat="42.6256050" lon="-5.5210870">
        <ele>923.0</ele>
        <time>2021-08-21T04:22:11Z</time>
      </trkpt>
      <trkpt lat="42.6256310" lon="-5.5210980">
        <ele>923.0</ele>
        <time>2021-08-21T04:22:12Z</time>
      </trkpt>
      <trkpt lat="42.6256600" lon="-5.5211040">
        <ele>923.0</ele>
        <time>2021-08-21T04:22:13Z</time>
      </trkpt>
      <trkpt lat="42.6256910" lon="-5.5211020">
        <ele>923.0</ele>
        <time>2021-08-21T04:22:14Z</time>
      </trkpt>
      <trkpt lat="42.6257290" lon="-5.5210910">
        <ele>923.0</ele>
        <time>2021-08-21T04:22:15Z</time>
      </trkpt>
      <trkpt lat="42.6257400" lon="-5.5210870">
        <ele>923.0</ele>
        <time>2021-08-21T04:22:16Z</time>
      </trkpt>
      <trkpt lat="42.6257790" lon="-5.5210830">
        <ele>923.0</ele>
        <time>2021-08-21T04:22:17Z</time>
      </trkpt>
      <trkpt lat="42.6257930" lon="-5.5210830">
        <ele>923.0</ele>
        <time>2021-08-21T04:22:18Z</time>
      </trkpt>
      <trkpt lat="42.6258200" lon="-5.5210820">
        <ele>923.0</ele>
        <time>2021-08-21T04:22:19Z</time>
      </trkpt>
      <trkpt lat="42.6258470" lon="-5.5210760">
        <ele>923.0</ele>
        <time>2021-08-21T04:22:20Z</time>
      </trkpt>
      <trkpt lat="42.6258750" lon="-5.5210640">
        <ele>923.0</ele>
        <time>2021-08-21T04:22:21Z</time>
      </trkpt>
      <trkpt lat="42.6259130" lon="-5.5210430">
        <ele>923.0</ele>
        <time>2021-08-21T04:22:22Z</time>
      </trkpt>
      <trkpt lat="42.6259260" lon="-5.5210360">
        <ele>923.0</ele>
        <time>2021-08-21T04:22:23Z</time>
      </trkpt>
      <trkpt lat="42.6259530" lon="-5.5210270">
        <ele>923.0</ele>
        <time>2021-08-21T04:22:24Z</time>
      </trkpt>
      <trkpt lat="42.6259800" lon="-5.5210190">
        <ele>923.0</ele>
        <time>2021-08-21T04:22:25Z</time>
      </trkpt>
      <trkpt lat="42.6260080" lon="-5.5210150">
        <ele>923.0</ele>
        <time>2021-08-21T04:22:26Z</time>
      </trkpt>
      <trkpt lat="42.6260510" lon="-5.5210090">
        <ele>923.0</ele>
        <time>2021-08-21T04:22:27Z</time>
      </trkpt>
      <trkpt lat="42.6260650" lon="-5.5210070">
        <ele>923.0</ele>
        <time>2021-08-21T04:22:28Z</time>
      </trkpt>
      <trkpt lat="42.6260900" lon="-5.5210030">
        <ele>923.0</ele>
        <time>2021-08-21T04:22:29Z</time>
      </trkpt>
      <trkpt lat="42.6261270" lon="-5.5209940">
        <ele>923.0</ele>
        <time>2021-08-21T04:22:30Z</time>
      </trkpt>
      <trkpt lat="42.6261390" lon="-5.5209910">
        <ele>923.0</ele>
        <time>2021-08-21T04:22:31Z</time>
      </trkpt>
      <trkpt lat="42.6261650" lon="-5.5209850">
        <ele>923.0</ele>
        <time>2021-08-21T04:22:32Z</time>
      </trkpt>
      <trkpt lat="42.6261890" lon="-5.5209790">
        <ele>923.0</ele>
        <time>2021-08-21T04:22:33Z</time>
      </trkpt>
      <trkpt lat="42.6262140" lon="-5.5209710">
        <ele>923.0</ele>
        <time>2021-08-21T04:22:34Z</time>
      </trkpt>
      <trkpt lat="42.6262370" lon="-5.5209650">
        <ele>923.0</ele>
        <time>2021-08-21T04:22:35Z</time>
      </trkpt>
      <trkpt lat="42.6262600" lon="-5.5209650">
        <ele>923.0</ele>
        <time>2021-08-21T04:22:36Z</time>
      </trkpt>
      <trkpt lat="42.6262870" lon="-5.5209660">
        <ele>923.0</ele>
        <time>2021-08-21T04:22:37Z</time>
      </trkpt>
      <trkpt lat="42.6263120" lon="-5.5209670">
        <ele>923.0</ele>
        <time>2021-08-21T04:22:38Z</time>
      </trkpt>
      <trkpt lat="42.6263400" lon="-5.5209670">
        <ele>923.0</ele>
        <time>2021-08-21T04:22:39Z</time>
      </trkpt>
      <trkpt lat="42.6263660" lon="-5.5209710">
        <ele>923.0</ele>
        <time>2021-08-21T04:22:40Z</time>
      </trkpt>
      <trkpt lat="42.6264030" lon="-5.5209730">
        <ele>923.0</ele>
        <time>2021-08-21T04:22:41Z</time>
      </trkpt>
      <trkpt lat="42.6264160" lon="-5.5209730">
        <ele>923.0</ele>
        <time>2021-08-21T04:22:42Z</time>
      </trkpt>
      <trkpt lat="42.6264410" lon="-5.5209700">
        <ele>923.0</ele>
        <time>2021-08-21T04:22:43Z</time>
      </trkpt>
      <trkpt lat="42.6264690" lon="-5.5209670">
        <ele>923.0</ele>
        <time>2021-08-21T04:22:44Z</time>
      </trkpt>
      <trkpt lat="42.6264960" lon="-5.5209650">
        <ele>923.0</ele>
        <time>2021-08-21T04:22:45Z</time>
      </trkpt>
      <trkpt lat="42.6265180" lon="-5.5209600">
        <ele>923.0</ele>
        <time>2021-08-21T04:22:46Z</time>
      </trkpt>
      <trkpt lat="42.6265440" lon="-5.5209530">
        <ele>924.0</ele>
        <time>2021-08-21T04:22:47Z</time>
      </trkpt>
      <trkpt lat="42.6265660" lon="-5.5209390">
        <ele>924.0</ele>
        <time>2021-08-21T04:22:48Z</time>
      </trkpt>
      <trkpt lat="42.6265890" lon="-5.5209170">
        <ele>924.0</ele>
        <time>2021-08-21T04:22:49Z</time>
      </trkpt>
      <trkpt lat="42.6266250" lon="-5.5208900">
        <ele>924.0</ele>
        <time>2021-08-21T04:22:50Z</time>
      </trkpt>
      <trkpt lat="42.6266360" lon="-5.5208820">
        <ele>924.0</ele>
        <time>2021-08-21T04:22:51Z</time>
      </trkpt>
      <trkpt lat="42.6266620" lon="-5.5208720">
        <ele>924.0</ele>
        <time>2021-08-21T04:22:52Z</time>
      </trkpt>
      <trkpt lat="42.6266880" lon="-5.5208620">
        <ele>924.0</ele>
        <time>2021-08-21T04:22:53Z</time>
      </trkpt>
      <trkpt lat="42.6267120" lon="-5.5208550">
        <ele>924.0</ele>
        <time>2021-08-21T04:22:54Z</time>
      </trkpt>
      <trkpt lat="42.6267500" lon="-5.5208420">
        <ele>924.0</ele>
        <time>2021-08-21T04:22:55Z</time>
      </trkpt>
      <trkpt lat="42.6267620" lon="-5.5208370">
        <ele>924.0</ele>
        <time>2021-08-21T04:22:56Z</time>
      </trkpt>
      <trkpt lat="42.6267860" lon="-5.5208300">
        <ele>924.0</ele>
        <time>2021-08-21T04:22:57Z</time>
      </trkpt>
      <trkpt lat="42.6268090" lon="-5.5208220">
        <ele>924.0</ele>
        <time>2021-08-21T04:22:58Z</time>
      </trkpt>
      <trkpt lat="42.6268470" lon="-5.5208090">
        <ele>924.0</ele>
        <time>2021-08-21T04:22:59Z</time>
      </trkpt>
      <trkpt lat="42.6268590" lon="-5.5208040">
        <ele>924.0</ele>
        <time>2021-08-21T04:23:00Z</time>
      </trkpt>
      <trkpt lat="42.6268830" lon="-5.5207940">
        <ele>924.0</ele>
        <time>2021-08-21T04:23:01Z</time>
      </trkpt>
      <trkpt lat="42.6269090" lon="-5.5207810">
        <ele>924.0</ele>
        <time>2021-08-21T04:23:02Z</time>
      </trkpt>
      <trkpt lat="42.6269450" lon="-5.5207650">
        <ele>924.0</ele>
        <time>2021-08-21T04:23:03Z</time>
      </trkpt>
      <trkpt lat="42.6269570" lon="-5.5207590">
        <ele>924.0</ele>
        <time>2021-08-21T04:23:04Z</time>
      </trkpt>
      <trkpt lat="42.6269820" lon="-5.5207460">
        <ele>924.0</ele>
        <time>2021-08-21T04:23:05Z</time>
      </trkpt>
      <trkpt lat="42.6270170" lon="-5.5207230">
        <ele>924.0</ele>
        <time>2021-08-21T04:23:06Z</time>
      </trkpt>
      <trkpt lat="42.6270270" lon="-5.5207160">
        <ele>924.0</ele>
        <time>2021-08-21T04:23:07Z</time>
      </trkpt>
      <trkpt lat="42.6270530" lon="-5.5207020">
        <ele>924.0</ele>
        <time>2021-08-21T04:23:08Z</time>
      </trkpt>
      <trkpt lat="42.6270790" lon="-5.5206930">
        <ele>924.0</ele>
        <time>2021-08-21T04:23:09Z</time>
      </trkpt>
      <trkpt lat="42.6271060" lon="-5.5206840">
        <ele>924.0</ele>
        <time>2021-08-21T04:23:10Z</time>
      </trkpt>
      <trkpt lat="42.6271310" lon="-5.5206730">
        <ele>924.0</ele>
        <time>2021-08-21T04:23:11Z</time>
      </trkpt>
      <trkpt lat="42.6271570" lon="-5.5206620">
        <ele>924.0</ele>
        <time>2021-08-21T04:23:12Z</time>
      </trkpt>
      <trkpt lat="42.6271780" lon="-5.5206490">
        <ele>924.0</ele>
        <time>2021-08-21T04:23:13Z</time>
      </trkpt>
      <trkpt lat="42.6272080" lon="-5.5206270">
        <ele>924.0</ele>
        <time>2021-08-21T04:23:14Z</time>
      </trkpt>
      <trkpt lat="42.6272180" lon="-5.5206180">
        <ele>924.0</ele>
        <time>2021-08-21T04:23:15Z</time>
      </trkpt>
      <trkpt lat="42.6272390" lon="-5.5206020">
        <ele>924.0</ele>
        <time>2021-08-21T04:23:16Z</time>
      </trkpt>
      <trkpt lat="42.6272630" lon="-5.5205850">
        <ele>924.0</ele>
        <time>2021-08-21T04:23:17Z</time>
      </trkpt>
      <trkpt lat="42.6272830" lon="-5.5205690">
        <ele>924.0</ele>
        <time>2021-08-21T04:23:18Z</time>
      </trkpt>
      <trkpt lat="42.6273020" lon="-5.5205560">
        <ele>924.0</ele>
        <time>2021-08-21T04:23:19Z</time>
      </trkpt>
      <trkpt lat="42.6273210" lon="-5.5205470">
        <ele>924.0</ele>
        <time>2021-08-21T04:23:20Z</time>
      </trkpt>
      <trkpt lat="42.6273210" lon="-5.5205470">
        <ele>924.0</ele>
        <time>2021-08-21T04:23:21Z</time>
      </trkpt>
      <trkpt lat="42.6273540" lon="-5.5205210">
        <ele>924.0</ele>
        <time>2021-08-21T04:23:22Z</time>
      </trkpt>
      <trkpt lat="42.6273760" lon="-5.5205060">
        <ele>925.0</ele>
        <time>2021-08-21T04:23:23Z</time>
      </trkpt>
      <trkpt lat="42.6274110" lon="-5.5204830">
        <ele>925.0</ele>
        <time>2021-08-21T04:23:24Z</time>
      </trkpt>
      <trkpt lat="42.6274220" lon="-5.5204740">
        <ele>925.0</ele>
        <time>2021-08-21T04:23:25Z</time>
      </trkpt>
      <trkpt lat="42.6274440" lon="-5.5204540">
        <ele>925.0</ele>
        <time>2021-08-21T04:23:26Z</time>
      </trkpt>
      <trkpt lat="42.6274740" lon="-5.5204290">
        <ele>925.0</ele>
        <time>2021-08-21T04:23:27Z</time>
      </trkpt>
      <trkpt lat="42.6274850" lon="-5.5204220">
        <ele>925.0</ele>
        <time>2021-08-21T04:23:28Z</time>
      </trkpt>
      <trkpt lat="42.6275080" lon="-5.5204060">
        <ele>925.0</ele>
        <time>2021-08-21T04:23:29Z</time>
      </trkpt>
      <trkpt lat="42.6275400" lon="-5.5203820">
        <ele>925.0</ele>
        <time>2021-08-21T04:23:30Z</time>
      </trkpt>
      <trkpt lat="42.6275510" lon="-5.5203740">
        <ele>926.0</ele>
        <time>2021-08-21T04:23:31Z</time>
      </trkpt>
      <trkpt lat="42.6275740" lon="-5.5203590">
        <ele>926.0</ele>
        <time>2021-08-21T04:23:32Z</time>
      </trkpt>
      <trkpt lat="42.6275990" lon="-5.5203430">
        <ele>926.0</ele>
        <time>2021-08-21T04:23:33Z</time>
      </trkpt>
      <trkpt lat="42.6276250" lon="-5.5203270">
        <ele>926.0</ele>
        <time>2021-08-21T04:23:34Z</time>
      </trkpt>
      <trkpt lat="42.6276500" lon="-5.5203100">
        <ele>926.0</ele>
        <time>2021-08-21T04:23:35Z</time>
      </trkpt>
      <trkpt lat="42.6276770" lon="-5.5202930">
        <ele>926.0</ele>
        <time>2021-08-21T04:23:36Z</time>
      </trkpt>
      <trkpt lat="42.6277020" lon="-5.5202770">
        <ele>926.0</ele>
        <time>2021-08-21T04:23:37Z</time>
      </trkpt>
      <trkpt lat="42.6277290" lon="-5.5202610">
        <ele>926.0</ele>
        <time>2021-08-21T04:23:38Z</time>
      </trkpt>
      <trkpt lat="42.6277580" lon="-5.5202470">
        <ele>926.0</ele>
        <time>2021-08-21T04:23:39Z</time>
      </trkpt>
      <trkpt lat="42.6277820" lon="-5.5202350">
        <ele>926.0</ele>
        <time>2021-08-21T04:23:40Z</time>
      </trkpt>
      <trkpt lat="42.6278070" lon="-5.5202220">
        <ele>926.0</ele>
        <time>2021-08-21T04:23:41Z</time>
      </trkpt>
      <trkpt lat="42.6278430" lon="-5.5201980">
        <ele>926.0</ele>
        <time>2021-08-21T04:23:42Z</time>
      </trkpt>
      <trkpt lat="42.6278560" lon="-5.5201880">
        <ele>926.0</ele>
        <time>2021-08-21T04:23:43Z</time>
      </trkpt>
      <trkpt lat="42.6278800" lon="-5.5201670">
        <ele>926.0</ele>
        <time>2021-08-21T04:23:44Z</time>
      </trkpt>
      <trkpt lat="42.6279160" lon="-5.5201370">
        <ele>926.0</ele>
        <time>2021-08-21T04:23:45Z</time>
      </trkpt>
      <trkpt lat="42.6279290" lon="-5.5201260">
        <ele>926.0</ele>
        <time>2021-08-21T04:23:46Z</time>
      </trkpt>
      <trkpt lat="42.6279540" lon="-5.5201070">
        <ele>926.0</ele>
        <time>2021-08-21T04:23:47Z</time>
      </trkpt>
      <trkpt lat="42.6279790" lon="-5.5200910">
        <ele>926.0</ele>
        <time>2021-08-21T04:23:48Z</time>
      </trkpt>
      <trkpt lat="42.6280030" lon="-5.5200710">
        <ele>926.0</ele>
        <time>2021-08-21T04:23:49Z</time>
      </trkpt>
      <trkpt lat="42.6280200" lon="-5.5200460">
        <ele>927.0</ele>
        <time>2021-08-21T04:23:50Z</time>
      </trkpt>
      <trkpt lat="42.6280380" lon="-5.5200140">
        <ele>927.0</ele>
        <time>2021-08-21T04:23:51Z</time>
      </trkpt>
      <trkpt lat="42.6280510" lon="-5.5199630">
        <ele>927.0</ele>
        <time>2021-08-21T04:23:52Z</time>
      </trkpt>
      <trkpt lat="42.6280550" lon="-5.5199460">
        <ele>927.0</ele>
        <time>2021-08-21T04:23:53Z</time>
      </trkpt>
      <trkpt lat="42.6280600" lon="-5.5199120">
        <ele>927.0</ele>
        <time>2021-08-21T04:23:54Z</time>
      </trkpt>
      <trkpt lat="42.6280630" lon="-5.5198770">
        <ele>926.0</ele>
        <time>2021-08-21T04:23:55Z</time>
      </trkpt>
      <trkpt lat="42.6280670" lon="-5.5198500">
        <ele>926.0</ele>
        <time>2021-08-21T04:23:56Z</time>
      </trkpt>
      <trkpt lat="42.6280760" lon="-5.5198210">
        <ele>926.0</ele>
        <time>2021-08-21T04:23:57Z</time>
      </trkpt>
      <trkpt lat="42.6280870" lon="-5.5197920">
        <ele>926.0</ele>
        <time>2021-08-21T04:23:58Z</time>
      </trkpt>
      <trkpt lat="42.6281000" lon="-5.5197640">
        <ele>926.0</ele>
        <time>2021-08-21T04:23:59Z</time>
      </trkpt>
      <trkpt lat="42.6281180" lon="-5.5197370">
        <ele>926.0</ele>
        <time>2021-08-21T04:24:00Z</time>
      </trkpt>
      <trkpt lat="42.6281350" lon="-5.5197130">
        <ele>926.0</ele>
        <time>2021-08-21T04:24:01Z</time>
      </trkpt>
      <trkpt lat="42.6281680" lon="-5.5196800">
        <ele>926.0</ele>
        <time>2021-08-21T04:24:02Z</time>
      </trkpt>
      <trkpt lat="42.6281790" lon="-5.5196710">
        <ele>926.0</ele>
        <time>2021-08-21T04:24:03Z</time>
      </trkpt>
      <trkpt lat="42.6282110" lon="-5.5196470">
        <ele>926.0</ele>
        <time>2021-08-21T04:24:04Z</time>
      </trkpt>
      <trkpt lat="42.6282230" lon="-5.5196390">
        <ele>926.0</ele>
        <time>2021-08-21T04:24:05Z</time>
      </trkpt>
      <trkpt lat="42.6282590" lon="-5.5196170">
        <ele>926.0</ele>
        <time>2021-08-21T04:24:06Z</time>
      </trkpt>
      <trkpt lat="42.6282710" lon="-5.5196100">
        <ele>927.0</ele>
        <time>2021-08-21T04:24:07Z</time>
      </trkpt>
      <trkpt lat="42.6282940" lon="-5.5195990">
        <ele>927.0</ele>
        <time>2021-08-21T04:24:08Z</time>
      </trkpt>
      <trkpt lat="42.6283150" lon="-5.5195910">
        <ele>927.0</ele>
        <time>2021-08-21T04:24:09Z</time>
      </trkpt>
      <trkpt lat="42.6283410" lon="-5.5195840">
        <ele>927.0</ele>
        <time>2021-08-21T04:24:10Z</time>
      </trkpt>
      <trkpt lat="42.6283750" lon="-5.5195720">
        <ele>927.0</ele>
        <time>2021-08-21T04:24:11Z</time>
      </trkpt>
      <trkpt lat="42.6283860" lon="-5.5195670">
        <ele>927.0</ele>
        <time>2021-08-21T04:24:12Z</time>
      </trkpt>
      <trkpt lat="42.6284080" lon="-5.5195570">
        <ele>927.0</ele>
        <time>2021-08-21T04:24:13Z</time>
      </trkpt>
      <trkpt lat="42.6284340" lon="-5.5195470">
        <ele>927.0</ele>
        <time>2021-08-21T04:24:14Z</time>
      </trkpt>
      <trkpt lat="42.6284590" lon="-5.5195380">
        <ele>927.0</ele>
        <time>2021-08-21T04:24:15Z</time>
      </trkpt>
      <trkpt lat="42.6284840" lon="-5.5195270">
        <ele>927.0</ele>
        <time>2021-08-21T04:24:16Z</time>
      </trkpt>
      <trkpt lat="42.6285070" lon="-5.5195150">
        <ele>927.0</ele>
        <time>2021-08-21T04:24:17Z</time>
      </trkpt>
      <trkpt lat="42.6285320" lon="-5.5195010">
        <ele>927.0</ele>
        <time>2021-08-21T04:24:18Z</time>
      </trkpt>
      <trkpt lat="42.6285540" lon="-5.5194870">
        <ele>927.0</ele>
        <time>2021-08-21T04:24:19Z</time>
      </trkpt>
      <trkpt lat="42.6285770" lon="-5.5194690">
        <ele>928.0</ele>
        <time>2021-08-21T04:24:20Z</time>
      </trkpt>
      <trkpt lat="42.6285990" lon="-5.5194520">
        <ele>927.0</ele>
        <time>2021-08-21T04:24:21Z</time>
      </trkpt>
      <trkpt lat="42.6286210" lon="-5.5194320">
        <ele>927.0</ele>
        <time>2021-08-21T04:24:22Z</time>
      </trkpt>
      <trkpt lat="42.6286430" lon="-5.5194160">
        <ele>927.0</ele>
        <time>2021-08-21T04:24:23Z</time>
      </trkpt>
      <trkpt lat="42.6286620" lon="-5.5194000">
        <ele>927.0</ele>
        <time>2021-08-21T04:24:24Z</time>
      </trkpt>
      <trkpt lat="42.6286820" lon="-5.5193850">
        <ele>927.0</ele>
        <time>2021-08-21T04:24:25Z</time>
      </trkpt>
      <trkpt lat="42.6287040" lon="-5.5193740">
        <ele>927.0</ele>
        <time>2021-08-21T04:24:26Z</time>
      </trkpt>
      <trkpt lat="42.6287260" lon="-5.5193650">
        <ele>928.0</ele>
        <time>2021-08-21T04:24:27Z</time>
      </trkpt>
      <trkpt lat="42.6287500" lon="-5.5193550">
        <ele>927.0</ele>
        <time>2021-08-21T04:24:28Z</time>
      </trkpt>
      <trkpt lat="42.6287770" lon="-5.5193440">
        <ele>927.0</ele>
        <time>2021-08-21T04:24:29Z</time>
      </trkpt>
      <trkpt lat="42.6288220" lon="-5.5193350">
        <ele>927.0</ele>
        <time>2021-08-21T04:24:30Z</time>
      </trkpt>
      <trkpt lat="42.6288360" lon="-5.5193330">
        <ele>927.0</ele>
        <time>2021-08-21T04:24:31Z</time>
      </trkpt>
      <trkpt lat="42.6288620" lon="-5.5193270">
        <ele>927.0</ele>
        <time>2021-08-21T04:24:32Z</time>
      </trkpt>
      <trkpt lat="42.6288870" lon="-5.5193190">
        <ele>927.0</ele>
        <time>2021-08-21T04:24:33Z</time>
      </trkpt>
      <trkpt lat="42.6289120" lon="-5.5193100">
        <ele>927.0</ele>
        <time>2021-08-21T04:24:34Z</time>
      </trkpt>
      <trkpt lat="42.6289510" lon="-5.5192980">
        <ele>927.0</ele>
        <time>2021-08-21T04:24:35Z</time>
      </trkpt>
      <trkpt lat="42.6289650" lon="-5.5192930">
        <ele>927.0</ele>
        <time>2021-08-21T04:24:36Z</time>
      </trkpt>
      <trkpt lat="42.6289920" lon="-5.5192820">
        <ele>927.0</ele>
        <time>2021-08-21T04:24:37Z</time>
      </trkpt>
      <trkpt lat="42.6290190" lon="-5.5192690">
        <ele>927.0</ele>
        <time>2021-08-21T04:24:38Z</time>
      </trkpt>
      <trkpt lat="42.6290450" lon="-5.5192540">
        <ele>927.0</ele>
        <time>2021-08-21T04:24:39Z</time>
      </trkpt>
      <trkpt lat="42.6290820" lon="-5.5192350">
        <ele>927.0</ele>
        <time>2021-08-21T04:24:40Z</time>
      </trkpt>
      <trkpt lat="42.6290940" lon="-5.5192290">
        <ele>927.0</ele>
        <time>2021-08-21T04:24:41Z</time>
      </trkpt>
      <trkpt lat="42.6291180" lon="-5.5192160">
        <ele>927.0</ele>
        <time>2021-08-21T04:24:42Z</time>
      </trkpt>
      <trkpt lat="42.6291420" lon="-5.5192020">
        <ele>928.0</ele>
        <time>2021-08-21T04:24:43Z</time>
      </trkpt>
      <trkpt lat="42.6291640" lon="-5.5191890">
        <ele>928.0</ele>
        <time>2021-08-21T04:24:44Z</time>
      </trkpt>
      <trkpt lat="42.6291860" lon="-5.5191750">
        <ele>928.0</ele>
        <time>2021-08-21T04:24:45Z</time>
      </trkpt>
      <trkpt lat="42.6292210" lon="-5.5191560">
        <ele>928.0</ele>
        <time>2021-08-21T04:24:46Z</time>
      </trkpt>
      <trkpt lat="42.6292330" lon="-5.5191490">
        <ele>928.0</ele>
        <time>2021-08-21T04:24:47Z</time>
      </trkpt>
      <trkpt lat="42.6292580" lon="-5.5191340">
        <ele>928.0</ele>
        <time>2021-08-21T04:24:48Z</time>
      </trkpt>
      <trkpt lat="42.6292950" lon="-5.5191120">
        <ele>928.0</ele>
        <time>2021-08-21T04:24:49Z</time>
      </trkpt>
      <trkpt lat="42.6293080" lon="-5.5191050">
        <ele>928.0</ele>
        <time>2021-08-21T04:24:50Z</time>
      </trkpt>
      <trkpt lat="42.6293310" lon="-5.5190920">
        <ele>928.0</ele>
        <time>2021-08-21T04:24:51Z</time>
      </trkpt>
      <trkpt lat="42.6293670" lon="-5.5190710">
        <ele>928.0</ele>
        <time>2021-08-21T04:24:52Z</time>
      </trkpt>
      <trkpt lat="42.6293790" lon="-5.5190630">
        <ele>928.0</ele>
        <time>2021-08-21T04:24:53Z</time>
      </trkpt>
      <trkpt lat="42.6294040" lon="-5.5190470">
        <ele>928.0</ele>
        <time>2021-08-21T04:24:54Z</time>
      </trkpt>
      <trkpt lat="42.6294280" lon="-5.5190310">
        <ele>928.0</ele>
        <time>2021-08-21T04:24:55Z</time>
      </trkpt>
      <trkpt lat="42.6294520" lon="-5.5190160">
        <ele>928.0</ele>
        <time>2021-08-21T04:24:56Z</time>
      </trkpt>
      <trkpt lat="42.6294900" lon="-5.5189940">
        <ele>928.0</ele>
        <time>2021-08-21T04:24:57Z</time>
      </trkpt>
      <trkpt lat="42.6295020" lon="-5.5189880">
        <ele>928.0</ele>
        <time>2021-08-21T04:24:58Z</time>
      </trkpt>
      <trkpt lat="42.6295300" lon="-5.5189780">
        <ele>928.0</ele>
        <time>2021-08-21T04:24:59Z</time>
      </trkpt>
      <trkpt lat="42.6295560" lon="-5.5189670">
        <ele>928.0</ele>
        <time>2021-08-21T04:25:00Z</time>
      </trkpt>
      <trkpt lat="42.6295810" lon="-5.5189530">
        <ele>928.0</ele>
        <time>2021-08-21T04:25:01Z</time>
      </trkpt>
      <trkpt lat="42.6296160" lon="-5.5189310">
        <ele>928.0</ele>
        <time>2021-08-21T04:25:02Z</time>
      </trkpt>
      <trkpt lat="42.6296280" lon="-5.5189240">
        <ele>928.0</ele>
        <time>2021-08-21T04:25:03Z</time>
      </trkpt>
      <trkpt lat="42.6296530" lon="-5.5189100">
        <ele>928.0</ele>
        <time>2021-08-21T04:25:04Z</time>
      </trkpt>
      <trkpt lat="42.6296730" lon="-5.5188960">
        <ele>928.0</ele>
        <time>2021-08-21T04:25:05Z</time>
      </trkpt>
      <trkpt lat="42.6296960" lon="-5.5188810">
        <ele>928.0</ele>
        <time>2021-08-21T04:25:06Z</time>
      </trkpt>
      <trkpt lat="42.6297170" lon="-5.5188640">
        <ele>928.0</ele>
        <time>2021-08-21T04:25:07Z</time>
      </trkpt>
      <trkpt lat="42.6297500" lon="-5.5188360">
        <ele>928.0</ele>
        <time>2021-08-21T04:25:08Z</time>
      </trkpt>
      <trkpt lat="42.6297590" lon="-5.5188280">
        <ele>929.0</ele>
        <time>2021-08-21T04:25:09Z</time>
      </trkpt>
      <trkpt lat="42.6297810" lon="-5.5188090">
        <ele>929.0</ele>
        <time>2021-08-21T04:25:10Z</time>
      </trkpt>
      <trkpt lat="42.6298000" lon="-5.5187870">
        <ele>929.0</ele>
        <time>2021-08-21T04:25:11Z</time>
      </trkpt>
      <trkpt lat="42.6298160" lon="-5.5187660">
        <ele>929.0</ele>
        <time>2021-08-21T04:25:12Z</time>
      </trkpt>
      <trkpt lat="42.6298410" lon="-5.5187310">
        <ele>929.0</ele>
        <time>2021-08-21T04:25:13Z</time>
      </trkpt>
      <trkpt lat="42.6298490" lon="-5.5187180">
        <ele>929.0</ele>
        <time>2021-08-21T04:25:14Z</time>
      </trkpt>
      <trkpt lat="42.6298690" lon="-5.5186960">
        <ele>929.0</ele>
        <time>2021-08-21T04:25:15Z</time>
      </trkpt>
      <trkpt lat="42.6298870" lon="-5.5186760">
        <ele>929.0</ele>
        <time>2021-08-21T04:25:16Z</time>
      </trkpt>
      <trkpt lat="42.6299050" lon="-5.5186580">
        <ele>929.0</ele>
        <time>2021-08-21T04:25:17Z</time>
      </trkpt>
      <trkpt lat="42.6299220" lon="-5.5186410">
        <ele>929.0</ele>
        <time>2021-08-21T04:25:18Z</time>
      </trkpt>
      <trkpt lat="42.6299410" lon="-5.5186220">
        <ele>929.0</ele>
        <time>2021-08-21T04:25:19Z</time>
      </trkpt>
      <trkpt lat="42.6299590" lon="-5.5186050">
        <ele>929.0</ele>
        <time>2021-08-21T04:25:20Z</time>
      </trkpt>
      <trkpt lat="42.6299790" lon="-5.5185880">
        <ele>929.0</ele>
        <time>2021-08-21T04:25:21Z</time>
      </trkpt>
      <trkpt lat="42.6299990" lon="-5.5185710">
        <ele>929.0</ele>
        <time>2021-08-21T04:25:22Z</time>
      </trkpt>
      <trkpt lat="42.6300290" lon="-5.5185440">
        <ele>929.0</ele>
        <time>2021-08-21T04:25:23Z</time>
      </trkpt>
      <trkpt lat="42.6300390" lon="-5.5185350">
        <ele>929.0</ele>
        <time>2021-08-21T04:25:24Z</time>
      </trkpt>
      <trkpt lat="42.6300580" lon="-5.5185190">
        <ele>929.0</ele>
        <time>2021-08-21T04:25:25Z</time>
      </trkpt>
      <trkpt lat="42.6300760" lon="-5.5185020">
        <ele>929.0</ele>
        <time>2021-08-21T04:25:26Z</time>
      </trkpt>
      <trkpt lat="42.6300960" lon="-5.5184870">
        <ele>930.0</ele>
        <time>2021-08-21T04:25:27Z</time>
      </trkpt>
      <trkpt lat="42.6301170" lon="-5.5184730">
        <ele>930.0</ele>
        <time>2021-08-21T04:25:28Z</time>
      </trkpt>
      <trkpt lat="42.6301350" lon="-5.5184590">
        <ele>930.0</ele>
        <time>2021-08-21T04:25:29Z</time>
      </trkpt>
      <trkpt lat="42.6301660" lon="-5.5184350">
        <ele>930.0</ele>
        <time>2021-08-21T04:25:30Z</time>
      </trkpt>
      <trkpt lat="42.6301750" lon="-5.5184280">
        <ele>930.0</ele>
        <time>2021-08-21T04:25:31Z</time>
      </trkpt>
      <trkpt lat="42.6301970" lon="-5.5184130">
        <ele>931.0</ele>
        <time>2021-08-21T04:25:32Z</time>
      </trkpt>
      <trkpt lat="42.6302170" lon="-5.5184000">
        <ele>931.0</ele>
        <time>2021-08-21T04:25:33Z</time>
      </trkpt>
      <trkpt lat="42.6302350" lon="-5.5183870">
        <ele>931.0</ele>
        <time>2021-08-21T04:25:34Z</time>
      </trkpt>
      <trkpt lat="42.6302550" lon="-5.5183720">
        <ele>931.0</ele>
        <time>2021-08-21T04:25:35Z</time>
      </trkpt>
      <trkpt lat="42.6302750" lon="-5.5183570">
        <ele>931.0</ele>
        <time>2021-08-21T04:25:36Z</time>
      </trkpt>
      <trkpt lat="42.6302920" lon="-5.5183450">
        <ele>931.0</ele>
        <time>2021-08-21T04:25:37Z</time>
      </trkpt>
      <trkpt lat="42.6303120" lon="-5.5183300">
        <ele>931.0</ele>
        <time>2021-08-21T04:25:38Z</time>
      </trkpt>
      <trkpt lat="42.6303300" lon="-5.5183170">
        <ele>931.0</ele>
        <time>2021-08-21T04:25:39Z</time>
      </trkpt>
      <trkpt lat="42.6303480" lon="-5.5183030">
        <ele>932.0</ele>
        <time>2021-08-21T04:25:40Z</time>
      </trkpt>
      <trkpt lat="42.6303670" lon="-5.5182880">
        <ele>932.0</ele>
        <time>2021-08-21T04:25:41Z</time>
      </trkpt>
      <trkpt lat="42.6303860" lon="-5.5182680">
        <ele>932.0</ele>
        <time>2021-08-21T04:25:42Z</time>
      </trkpt>
      <trkpt lat="42.6304050" lon="-5.5182480">
        <ele>932.0</ele>
        <time>2021-08-21T04:25:43Z</time>
      </trkpt>
      <trkpt lat="42.6304280" lon="-5.5182280">
        <ele>932.0</ele>
        <time>2021-08-21T04:25:44Z</time>
      </trkpt>
      <trkpt lat="42.6304490" lon="-5.5182100">
        <ele>932.0</ele>
        <time>2021-08-21T04:25:45Z</time>
      </trkpt>
      <trkpt lat="42.6304740" lon="-5.5181870">
        <ele>932.0</ele>
        <time>2021-08-21T04:25:46Z</time>
      </trkpt>
      <trkpt lat="42.6304950" lon="-5.5181590">
        <ele>932.0</ele>
        <time>2021-08-21T04:25:47Z</time>
      </trkpt>
      <trkpt lat="42.6305150" lon="-5.5181300">
        <ele>932.0</ele>
        <time>2021-08-21T04:25:48Z</time>
      </trkpt>
      <trkpt lat="42.6305330" lon="-5.5180990">
        <ele>932.0</ele>
        <time>2021-08-21T04:25:49Z</time>
      </trkpt>
      <trkpt lat="42.6305490" lon="-5.5180700">
        <ele>932.0</ele>
        <time>2021-08-21T04:25:50Z</time>
      </trkpt>
      <trkpt lat="42.6305680" lon="-5.5180400">
        <ele>933.0</ele>
        <time>2021-08-21T04:25:51Z</time>
      </trkpt>
      <trkpt lat="42.6305830" lon="-5.5180100">
        <ele>933.0</ele>
        <time>2021-08-21T04:25:52Z</time>
      </trkpt>
      <trkpt lat="42.6305960" lon="-5.5179750">
        <ele>933.0</ele>
        <time>2021-08-21T04:25:53Z</time>
      </trkpt>
      <trkpt lat="42.6306060" lon="-5.5179400">
        <ele>933.0</ele>
        <time>2021-08-21T04:25:54Z</time>
      </trkpt>
      <trkpt lat="42.6306180" lon="-5.5179070">
        <ele>933.0</ele>
        <time>2021-08-21T04:25:55Z</time>
      </trkpt>
      <trkpt lat="42.6306290" lon="-5.5178760">
        <ele>933.0</ele>
        <time>2021-08-21T04:25:56Z</time>
      </trkpt>
      <trkpt lat="42.6306390" lon="-5.5178440">
        <ele>933.0</ele>
        <time>2021-08-21T04:25:57Z</time>
      </trkpt>
      <trkpt lat="42.6306550" lon="-5.5177970">
        <ele>933.0</ele>
        <time>2021-08-21T04:25:58Z</time>
      </trkpt>
      <trkpt lat="42.6306610" lon="-5.5177810">
        <ele>933.0</ele>
        <time>2021-08-21T04:25:59Z</time>
      </trkpt>
      <trkpt lat="42.6306740" lon="-5.5177540">
        <ele>934.0</ele>
        <time>2021-08-21T04:26:00Z</time>
      </trkpt>
      <trkpt lat="42.6306890" lon="-5.5177250">
        <ele>934.0</ele>
        <time>2021-08-21T04:26:01Z</time>
      </trkpt>
      <trkpt lat="42.6307050" lon="-5.5176970">
        <ele>934.0</ele>
        <time>2021-08-21T04:26:02Z</time>
      </trkpt>
      <trkpt lat="42.6307330" lon="-5.5176560">
        <ele>934.0</ele>
        <time>2021-08-21T04:26:03Z</time>
      </trkpt>
      <trkpt lat="42.6307430" lon="-5.5176420">
        <ele>934.0</ele>
        <time>2021-08-21T04:26:04Z</time>
      </trkpt>
      <trkpt lat="42.6307760" lon="-5.5176030">
        <ele>934.0</ele>
        <time>2021-08-21T04:26:05Z</time>
      </trkpt>
      <trkpt lat="42.6307870" lon="-5.5175920">
        <ele>934.0</ele>
        <time>2021-08-21T04:26:06Z</time>
      </trkpt>
      <trkpt lat="42.6308120" lon="-5.5175720">
        <ele>934.0</ele>
        <time>2021-08-21T04:26:07Z</time>
      </trkpt>
      <trkpt lat="42.6308340" lon="-5.5175500">
        <ele>935.0</ele>
        <time>2021-08-21T04:26:08Z</time>
      </trkpt>
      <trkpt lat="42.6308540" lon="-5.5175280">
        <ele>935.0</ele>
        <time>2021-08-21T04:26:09Z</time>
      </trkpt>
      <trkpt lat="42.6308730" lon="-5.5175070">
        <ele>935.0</ele>
        <time>2021-08-21T04:26:10Z</time>
      </trkpt>
      <trkpt lat="42.6308930" lon="-5.5174900">
        <ele>935.0</ele>
        <time>2021-08-21T04:26:11Z</time>
      </trkpt>
      <trkpt lat="42.6309170" lon="-5.5174710">
        <ele>935.0</ele>
        <time>2021-08-21T04:26:12Z</time>
      </trkpt>
      <trkpt lat="42.6309560" lon="-5.5174520">
        <ele>935.0</ele>
        <time>2021-08-21T04:26:13Z</time>
      </trkpt>
      <trkpt lat="42.6309680" lon="-5.5174460">
        <ele>935.0</ele>
        <time>2021-08-21T04:26:14Z</time>
      </trkpt>
      <trkpt lat="42.6309920" lon="-5.5174350">
        <ele>935.0</ele>
        <time>2021-08-21T04:26:15Z</time>
      </trkpt>
      <trkpt lat="42.6310170" lon="-5.5174210">
        <ele>935.0</ele>
        <time>2021-08-21T04:26:16Z</time>
      </trkpt>
      <trkpt lat="42.6310430" lon="-5.5174080">
        <ele>936.0</ele>
        <time>2021-08-21T04:26:17Z</time>
      </trkpt>
      <trkpt lat="42.6310680" lon="-5.5173950">
        <ele>936.0</ele>
        <time>2021-08-21T04:26:18Z</time>
      </trkpt>
      <trkpt lat="42.6310890" lon="-5.5173860">
        <ele>936.0</ele>
        <time>2021-08-21T04:26:19Z</time>
      </trkpt>
      <trkpt lat="42.6311110" lon="-5.5173790">
        <ele>936.0</ele>
        <time>2021-08-21T04:26:20Z</time>
      </trkpt>
      <trkpt lat="42.6311320" lon="-5.5173700">
        <ele>936.0</ele>
        <time>2021-08-21T04:26:21Z</time>
      </trkpt>
      <trkpt lat="42.6311710" lon="-5.5173620">
        <ele>936.0</ele>
        <time>2021-08-21T04:26:22Z</time>
      </trkpt>
      <trkpt lat="42.6311840" lon="-5.5173590">
        <ele>936.0</ele>
        <time>2021-08-21T04:26:23Z</time>
      </trkpt>
      <trkpt lat="42.6312250" lon="-5.5173390">
        <ele>936.0</ele>
        <time>2021-08-21T04:26:24Z</time>
      </trkpt>
      <trkpt lat="42.6312390" lon="-5.5173300">
        <ele>936.0</ele>
        <time>2021-08-21T04:26:25Z</time>
      </trkpt>
      <trkpt lat="42.6312630" lon="-5.5173080">
        <ele>936.0</ele>
        <time>2021-08-21T04:26:26Z</time>
      </trkpt>
      <trkpt lat="42.6312990" lon="-5.5172700">
        <ele>936.0</ele>
        <time>2021-08-21T04:26:27Z</time>
      </trkpt>
      <trkpt lat="42.6313100" lon="-5.5172560">
        <ele>936.0</ele>
        <time>2021-08-21T04:26:28Z</time>
      </trkpt>
      <trkpt lat="42.6313310" lon="-5.5172350">
        <ele>936.0</ele>
        <time>2021-08-21T04:26:29Z</time>
      </trkpt>
      <trkpt lat="42.6313490" lon="-5.5172150">
        <ele>936.0</ele>
        <time>2021-08-21T04:26:30Z</time>
      </trkpt>
      <trkpt lat="42.6313720" lon="-5.5171960">
        <ele>936.0</ele>
        <time>2021-08-21T04:26:31Z</time>
      </trkpt>
      <trkpt lat="42.6313930" lon="-5.5171790">
        <ele>936.0</ele>
        <time>2021-08-21T04:26:32Z</time>
      </trkpt>
      <trkpt lat="42.6314160" lon="-5.5171610">
        <ele>936.0</ele>
        <time>2021-08-21T04:26:33Z</time>
      </trkpt>
      <trkpt lat="42.6314400" lon="-5.5171420">
        <ele>936.0</ele>
        <time>2021-08-21T04:26:34Z</time>
      </trkpt>
      <trkpt lat="42.6314650" lon="-5.5171220">
        <ele>936.0</ele>
        <time>2021-08-21T04:26:35Z</time>
      </trkpt>
      <trkpt lat="42.6314870" lon="-5.5171060">
        <ele>936.0</ele>
        <time>2021-08-21T04:26:36Z</time>
      </trkpt>
      <trkpt lat="42.6315090" lon="-5.5170900">
        <ele>936.0</ele>
        <time>2021-08-21T04:26:37Z</time>
      </trkpt>
      <trkpt lat="42.6315320" lon="-5.5170770">
        <ele>936.0</ele>
        <time>2021-08-21T04:26:38Z</time>
      </trkpt>
      <trkpt lat="42.6315610" lon="-5.5170610">
        <ele>936.0</ele>
        <time>2021-08-21T04:26:39Z</time>
      </trkpt>
      <trkpt lat="42.6315860" lon="-5.5170470">
        <ele>936.0</ele>
        <time>2021-08-21T04:26:40Z</time>
      </trkpt>
      <trkpt lat="42.6316120" lon="-5.5170330">
        <ele>936.0</ele>
        <time>2021-08-21T04:26:41Z</time>
      </trkpt>
      <trkpt lat="42.6316350" lon="-5.5170230">
        <ele>936.0</ele>
        <time>2021-08-21T04:26:42Z</time>
      </trkpt>
      <trkpt lat="42.6316740" lon="-5.5170140">
        <ele>936.0</ele>
        <time>2021-08-21T04:26:43Z</time>
      </trkpt>
      <trkpt lat="42.6316870" lon="-5.5170120">
        <ele>936.0</ele>
        <time>2021-08-21T04:26:44Z</time>
      </trkpt>
      <trkpt lat="42.6317140" lon="-5.5170080">
        <ele>936.0</ele>
        <time>2021-08-21T04:26:45Z</time>
      </trkpt>
      <trkpt lat="42.6317500" lon="-5.5170050">
        <ele>936.0</ele>
        <time>2021-08-21T04:26:46Z</time>
      </trkpt>
      <trkpt lat="42.6317620" lon="-5.5170050">
        <ele>937.0</ele>
        <time>2021-08-21T04:26:47Z</time>
      </trkpt>
      <trkpt lat="42.6317900" lon="-5.5170060">
        <ele>937.0</ele>
        <time>2021-08-21T04:26:48Z</time>
      </trkpt>
      <trkpt lat="42.6318310" lon="-5.5170070">
        <ele>937.0</ele>
        <time>2021-08-21T04:26:49Z</time>
      </trkpt>
      <trkpt lat="42.6318450" lon="-5.5170070">
        <ele>937.0</ele>
        <time>2021-08-21T04:26:50Z</time>
      </trkpt>
      <trkpt lat="42.6318700" lon="-5.5170100">
        <ele>937.0</ele>
        <time>2021-08-21T04:26:51Z</time>
      </trkpt>
      <trkpt lat="42.6319150" lon="-5.5170160">
        <ele>937.0</ele>
        <time>2021-08-21T04:26:52Z</time>
      </trkpt>
      <trkpt lat="42.6319290" lon="-5.5170190">
        <ele>936.0</ele>
        <time>2021-08-21T04:26:53Z</time>
      </trkpt>
      <trkpt lat="42.6319680" lon="-5.5170260">
        <ele>936.0</ele>
        <time>2021-08-21T04:26:54Z</time>
      </trkpt>
      <trkpt lat="42.6319810" lon="-5.5170290">
        <ele>936.0</ele>
        <time>2021-08-21T04:26:55Z</time>
      </trkpt>
      <trkpt lat="42.6320090" lon="-5.5170350">
        <ele>936.0</ele>
        <time>2021-08-21T04:26:56Z</time>
      </trkpt>
      <trkpt lat="42.6320380" lon="-5.5170390">
        <ele>936.0</ele>
        <time>2021-08-21T04:26:57Z</time>
      </trkpt>
      <trkpt lat="42.6320660" lon="-5.5170400">
        <ele>936.0</ele>
        <time>2021-08-21T04:26:58Z</time>
      </trkpt>
      <trkpt lat="42.6320940" lon="-5.5170420">
        <ele>936.0</ele>
        <time>2021-08-21T04:26:59Z</time>
      </trkpt>
      <trkpt lat="42.6320940" lon="-5.5170420">
        <ele>936.0</ele>
        <time>2021-08-21T04:27:00Z</time>
      </trkpt>
      <trkpt lat="42.6321450" lon="-5.5170480">
        <ele>936.0</ele>
        <time>2021-08-21T04:27:01Z</time>
      </trkpt>
      <trkpt lat="42.6321820" lon="-5.5170530">
        <ele>936.0</ele>
        <time>2021-08-21T04:27:02Z</time>
      </trkpt>
      <trkpt lat="42.6321940" lon="-5.5170540">
        <ele>936.0</ele>
        <time>2021-08-21T04:27:03Z</time>
      </trkpt>
      <trkpt lat="42.6322200" lon="-5.5170560">
        <ele>936.0</ele>
        <time>2021-08-21T04:27:04Z</time>
      </trkpt>
      <trkpt lat="42.6322470" lon="-5.5170570">
        <ele>936.0</ele>
        <time>2021-08-21T04:27:05Z</time>
      </trkpt>
      <trkpt lat="42.6322740" lon="-5.5170540">
        <ele>936.0</ele>
        <time>2021-08-21T04:27:06Z</time>
      </trkpt>
      <trkpt lat="42.6323280" lon="-5.5170380">
        <ele>936.0</ele>
        <time>2021-08-21T04:27:07Z</time>
      </trkpt>
      <trkpt lat="42.6323540" lon="-5.5170290">
        <ele>935.0</ele>
        <time>2021-08-21T04:27:08Z</time>
      </trkpt>
      <trkpt lat="42.6323950" lon="-5.5170200">
        <ele>936.0</ele>
        <time>2021-08-21T04:27:10Z</time>
      </trkpt>
      <trkpt lat="42.6324070" lon="-5.5170180">
        <ele>936.0</ele>
        <time>2021-08-21T04:27:11Z</time>
      </trkpt>
      <trkpt lat="42.6324330" lon="-5.5170180">
        <ele>936.0</ele>
        <time>2021-08-21T04:27:12Z</time>
      </trkpt>
      <trkpt lat="42.6324580" lon="-5.5170160">
        <ele>936.0</ele>
        <time>2021-08-21T04:27:13Z</time>
      </trkpt>
      <trkpt lat="42.6324860" lon="-5.5170110">
        <ele>935.0</ele>
        <time>2021-08-21T04:27:14Z</time>
      </trkpt>
      <trkpt lat="42.6325280" lon="-5.5170100">
        <ele>935.0</ele>
        <time>2021-08-21T04:27:15Z</time>
      </trkpt>
      <trkpt lat="42.6325410" lon="-5.5170090">
        <ele>935.0</ele>
        <time>2021-08-21T04:27:16Z</time>
      </trkpt>
      <trkpt lat="42.6325690" lon="-5.5170070">
        <ele>935.0</ele>
        <time>2021-08-21T04:27:17Z</time>
      </trkpt>
      <trkpt lat="42.6326120" lon="-5.5170050">
        <ele>935.0</ele>
        <time>2021-08-21T04:27:18Z</time>
      </trkpt>
      <trkpt lat="42.6326250" lon="-5.5170050">
        <ele>935.0</ele>
        <time>2021-08-21T04:27:19Z</time>
      </trkpt>
      <trkpt lat="42.6326520" lon="-5.5170050">
        <ele>935.0</ele>
        <time>2021-08-21T04:27:20Z</time>
      </trkpt>
      <trkpt lat="42.6326790" lon="-5.5170060">
        <ele>935.0</ele>
        <time>2021-08-21T04:27:21Z</time>
      </trkpt>
      <trkpt lat="42.6327060" lon="-5.5170070">
        <ele>935.0</ele>
        <time>2021-08-21T04:27:22Z</time>
      </trkpt>
      <trkpt lat="42.6327330" lon="-5.5170080">
        <ele>935.0</ele>
        <time>2021-08-21T04:27:23Z</time>
      </trkpt>
      <trkpt lat="42.6327600" lon="-5.5170090">
        <ele>935.0</ele>
        <time>2021-08-21T04:27:24Z</time>
      </trkpt>
      <trkpt lat="42.6327870" lon="-5.5170100">
        <ele>935.0</ele>
        <time>2021-08-21T04:27:25Z</time>
      </trkpt>
      <trkpt lat="42.6328120" lon="-5.5170120">
        <ele>935.0</ele>
        <time>2021-08-21T04:27:26Z</time>
      </trkpt>
      <trkpt lat="42.6328380" lon="-5.5170140">
        <ele>935.0</ele>
        <time>2021-08-21T04:27:27Z</time>
      </trkpt>
      <trkpt lat="42.6328610" lon="-5.5170160">
        <ele>934.0</ele>
        <time>2021-08-21T04:27:28Z</time>
      </trkpt>
      <trkpt lat="42.6328860" lon="-5.5170180">
        <ele>934.0</ele>
        <time>2021-08-21T04:27:29Z</time>
      </trkpt>
      <trkpt lat="42.6329110" lon="-5.5170200">
        <ele>934.0</ele>
        <time>2021-08-21T04:27:30Z</time>
      </trkpt>
      <trkpt lat="42.6329380" lon="-5.5170210">
        <ele>934.0</ele>
        <time>2021-08-21T04:27:31Z</time>
      </trkpt>
      <trkpt lat="42.6329640" lon="-5.5170210">
        <ele>934.0</ele>
        <time>2021-08-21T04:27:32Z</time>
      </trkpt>
      <trkpt lat="42.6329890" lon="-5.5170200">
        <ele>934.0</ele>
        <time>2021-08-21T04:27:33Z</time>
      </trkpt>
      <trkpt lat="42.6330140" lon="-5.5170180">
        <ele>934.0</ele>
        <time>2021-08-21T04:27:34Z</time>
      </trkpt>
      <trkpt lat="42.6330510" lon="-5.5170160">
        <ele>934.0</ele>
        <time>2021-08-21T04:27:35Z</time>
      </trkpt>
      <trkpt lat="42.6330630" lon="-5.5170140">
        <ele>934.0</ele>
        <time>2021-08-21T04:27:36Z</time>
      </trkpt>
      <trkpt lat="42.6330900" lon="-5.5170110">
        <ele>934.0</ele>
        <time>2021-08-21T04:27:37Z</time>
      </trkpt>
      <trkpt lat="42.6331170" lon="-5.5170070">
        <ele>935.0</ele>
        <time>2021-08-21T04:27:38Z</time>
      </trkpt>
      <trkpt lat="42.6331420" lon="-5.5170040">
        <ele>935.0</ele>
        <time>2021-08-21T04:27:39Z</time>
      </trkpt>
      <trkpt lat="42.6331670" lon="-5.5169980">
        <ele>935.0</ele>
        <time>2021-08-21T04:27:40Z</time>
      </trkpt>
      <trkpt lat="42.6331890" lon="-5.5169910">
        <ele>935.0</ele>
        <time>2021-08-21T04:27:41Z</time>
      </trkpt>
      <trkpt lat="42.6332230" lon="-5.5169770">
        <ele>935.0</ele>
        <time>2021-08-21T04:27:42Z</time>
      </trkpt>
      <trkpt lat="42.6332330" lon="-5.5169730">
        <ele>935.0</ele>
        <time>2021-08-21T04:27:43Z</time>
      </trkpt>
      <trkpt lat="42.6332560" lon="-5.5169680">
        <ele>935.0</ele>
        <time>2021-08-21T04:27:44Z</time>
      </trkpt>
      <trkpt lat="42.6332780" lon="-5.5169630">
        <ele>935.0</ele>
        <time>2021-08-21T04:27:45Z</time>
      </trkpt>
      <trkpt lat="42.6333010" lon="-5.5169580">
        <ele>935.0</ele>
        <time>2021-08-21T04:27:46Z</time>
      </trkpt>
      <trkpt lat="42.6333230" lon="-5.5169530">
        <ele>935.0</ele>
        <time>2021-08-21T04:27:47Z</time>
      </trkpt>
      <trkpt lat="42.6333470" lon="-5.5169540">
        <ele>935.0</ele>
        <time>2021-08-21T04:27:48Z</time>
      </trkpt>
      <trkpt lat="42.6333720" lon="-5.5169530">
        <ele>935.0</ele>
        <time>2021-08-21T04:27:49Z</time>
      </trkpt>
      <trkpt lat="42.6333960" lon="-5.5169500">
        <ele>935.0</ele>
        <time>2021-08-21T04:27:50Z</time>
      </trkpt>
      <trkpt lat="42.6334190" lon="-5.5169460">
        <ele>935.0</ele>
        <time>2021-08-21T04:27:51Z</time>
      </trkpt>
      <trkpt lat="42.6334430" lon="-5.5169430">
        <ele>936.0</ele>
        <time>2021-08-21T04:27:52Z</time>
      </trkpt>
      <trkpt lat="42.6334680" lon="-5.5169410">
        <ele>936.0</ele>
        <time>2021-08-21T04:27:53Z</time>
      </trkpt>
      <trkpt lat="42.6334950" lon="-5.5169370">
        <ele>936.0</ele>
        <time>2021-08-21T04:27:54Z</time>
      </trkpt>
      <trkpt lat="42.6335200" lon="-5.5169340">
        <ele>936.0</ele>
        <time>2021-08-21T04:27:55Z</time>
      </trkpt>
      <trkpt lat="42.6335460" lon="-5.5169330">
        <ele>936.0</ele>
        <time>2021-08-21T04:27:56Z</time>
      </trkpt>
      <trkpt lat="42.6335720" lon="-5.5169330">
        <ele>936.0</ele>
        <time>2021-08-21T04:27:57Z</time>
      </trkpt>
      <trkpt lat="42.6336000" lon="-5.5169350">
        <ele>936.0</ele>
        <time>2021-08-21T04:27:58Z</time>
      </trkpt>
      <trkpt lat="42.6336270" lon="-5.5169380">
        <ele>936.0</ele>
        <time>2021-08-21T04:27:59Z</time>
      </trkpt>
      <trkpt lat="42.6336540" lon="-5.5169390">
        <ele>936.0</ele>
        <time>2021-08-21T04:28:00Z</time>
      </trkpt>
      <trkpt lat="42.6336950" lon="-5.5169350">
        <ele>936.0</ele>
        <time>2021-08-21T04:28:01Z</time>
      </trkpt>
      <trkpt lat="42.6337080" lon="-5.5169330">
        <ele>936.0</ele>
        <time>2021-08-21T04:28:02Z</time>
      </trkpt>
      <trkpt lat="42.6337340" lon="-5.5169280">
        <ele>936.0</ele>
        <time>2021-08-21T04:28:03Z</time>
      </trkpt>
      <trkpt lat="42.6337610" lon="-5.5169240">
        <ele>936.0</ele>
        <time>2021-08-21T04:28:04Z</time>
      </trkpt>
      <trkpt lat="42.6337880" lon="-5.5169190">
        <ele>936.0</ele>
        <time>2021-08-21T04:28:05Z</time>
      </trkpt>
      <trkpt lat="42.6338130" lon="-5.5169140">
        <ele>936.0</ele>
        <time>2021-08-21T04:28:06Z</time>
      </trkpt>
      <trkpt lat="42.6338400" lon="-5.5169070">
        <ele>936.0</ele>
        <time>2021-08-21T04:28:07Z</time>
      </trkpt>
      <trkpt lat="42.6338650" lon="-5.5169020">
        <ele>936.0</ele>
        <time>2021-08-21T04:28:08Z</time>
      </trkpt>
      <trkpt lat="42.6338890" lon="-5.5168960">
        <ele>936.0</ele>
        <time>2021-08-21T04:28:09Z</time>
      </trkpt>
      <trkpt lat="42.6339130" lon="-5.5168910">
        <ele>936.0</ele>
        <time>2021-08-21T04:28:10Z</time>
      </trkpt>
      <trkpt lat="42.6339370" lon="-5.5168840">
        <ele>936.0</ele>
        <time>2021-08-21T04:28:11Z</time>
      </trkpt>
      <trkpt lat="42.6339630" lon="-5.5168750">
        <ele>935.0</ele>
        <time>2021-08-21T04:28:12Z</time>
      </trkpt>
      <trkpt lat="42.6339880" lon="-5.5168670">
        <ele>935.0</ele>
        <time>2021-08-21T04:28:13Z</time>
      </trkpt>
      <trkpt lat="42.6340130" lon="-5.5168600">
        <ele>936.0</ele>
        <time>2021-08-21T04:28:14Z</time>
      </trkpt>
      <trkpt lat="42.6340390" lon="-5.5168510">
        <ele>936.0</ele>
        <time>2021-08-21T04:28:15Z</time>
      </trkpt>
      <trkpt lat="42.6340670" lon="-5.5168410">
        <ele>936.0</ele>
        <time>2021-08-21T04:28:16Z</time>
      </trkpt>
      <trkpt lat="42.6340920" lon="-5.5168300">
        <ele>936.0</ele>
        <time>2021-08-21T04:28:17Z</time>
      </trkpt>
      <trkpt lat="42.6341160" lon="-5.5168210">
        <ele>936.0</ele>
        <time>2021-08-21T04:28:18Z</time>
      </trkpt>
      <trkpt lat="42.6341160" lon="-5.5168210">
        <ele>935.0</ele>
        <time>2021-08-21T04:28:19Z</time>
      </trkpt>
      <trkpt lat="42.6341670" lon="-5.5168020">
        <ele>935.0</ele>
        <time>2021-08-21T04:28:20Z</time>
      </trkpt>
      <trkpt lat="42.6341910" lon="-5.5167900">
        <ele>935.0</ele>
        <time>2021-08-21T04:28:21Z</time>
      </trkpt>
      <trkpt lat="42.6342140" lon="-5.5167810">
        <ele>935.0</ele>
        <time>2021-08-21T04:28:22Z</time>
      </trkpt>
      <trkpt lat="42.6342380" lon="-5.5167740">
        <ele>935.0</ele>
        <time>2021-08-21T04:28:23Z</time>
      </trkpt>
      <trkpt lat="42.6342630" lon="-5.5167690">
        <ele>935.0</ele>
        <time>2021-08-21T04:28:24Z</time>
      </trkpt>
      <trkpt lat="42.6342880" lon="-5.5167640">
        <ele>936.0</ele>
        <time>2021-08-21T04:28:25Z</time>
      </trkpt>
      <trkpt lat="42.6343110" lon="-5.5167590">
        <ele>936.0</ele>
        <time>2021-08-21T04:28:26Z</time>
      </trkpt>
      <trkpt lat="42.6343360" lon="-5.5167560">
        <ele>936.0</ele>
        <time>2021-08-21T04:28:27Z</time>
      </trkpt>
      <trkpt lat="42.6343600" lon="-5.5167530">
        <ele>936.0</ele>
        <time>2021-08-21T04:28:28Z</time>
      </trkpt>
      <trkpt lat="42.6343860" lon="-5.5167530">
        <ele>936.0</ele>
        <time>2021-08-21T04:28:29Z</time>
      </trkpt>
      <trkpt lat="42.6344100" lon="-5.5167520">
        <ele>936.0</ele>
        <time>2021-08-21T04:28:30Z</time>
      </trkpt>
      <trkpt lat="42.6344320" lon="-5.5167520">
        <ele>936.0</ele>
        <time>2021-08-21T04:28:31Z</time>
      </trkpt>
      <trkpt lat="42.6344570" lon="-5.5167500">
        <ele>936.0</ele>
        <time>2021-08-21T04:28:32Z</time>
      </trkpt>
      <trkpt lat="42.6344790" lon="-5.5167530">
        <ele>936.0</ele>
        <time>2021-08-21T04:28:33Z</time>
      </trkpt>
      <trkpt lat="42.6345030" lon="-5.5167560">
        <ele>936.0</ele>
        <time>2021-08-21T04:28:34Z</time>
      </trkpt>
      <trkpt lat="42.6345240" lon="-5.5167580">
        <ele>936.0</ele>
        <time>2021-08-21T04:28:35Z</time>
      </trkpt>
      <trkpt lat="42.6345500" lon="-5.5167590">
        <ele>936.0</ele>
        <time>2021-08-21T04:28:36Z</time>
      </trkpt>
      <trkpt lat="42.6345850" lon="-5.5167600">
        <ele>936.0</ele>
        <time>2021-08-21T04:28:37Z</time>
      </trkpt>
      <trkpt lat="42.6345970" lon="-5.5167600">
        <ele>936.0</ele>
        <time>2021-08-21T04:28:38Z</time>
      </trkpt>
      <trkpt lat="42.6346210" lon="-5.5167610">
        <ele>936.0</ele>
        <time>2021-08-21T04:28:39Z</time>
      </trkpt>
      <trkpt lat="42.6346460" lon="-5.5167630">
        <ele>936.0</ele>
        <time>2021-08-21T04:28:40Z</time>
      </trkpt>
      <trkpt lat="42.6346690" lon="-5.5167650">
        <ele>936.0</ele>
        <time>2021-08-21T04:28:41Z</time>
      </trkpt>
      <trkpt lat="42.6346930" lon="-5.5167660">
        <ele>937.0</ele>
        <time>2021-08-21T04:28:42Z</time>
      </trkpt>
      <trkpt lat="42.6347180" lon="-5.5167680">
        <ele>937.0</ele>
        <time>2021-08-21T04:28:43Z</time>
      </trkpt>
      <trkpt lat="42.6347420" lon="-5.5167730">
        <ele>937.0</ele>
        <time>2021-08-21T04:28:44Z</time>
      </trkpt>
      <trkpt lat="42.6347670" lon="-5.5167760">
        <ele>937.0</ele>
        <time>2021-08-21T04:28:45Z</time>
      </trkpt>
      <trkpt lat="42.6347910" lon="-5.5167800">
        <ele>937.0</ele>
        <time>2021-08-21T04:28:46Z</time>
      </trkpt>
      <trkpt lat="42.6348170" lon="-5.5167840">
        <ele>937.0</ele>
        <time>2021-08-21T04:28:47Z</time>
      </trkpt>
      <trkpt lat="42.6348410" lon="-5.5167890">
        <ele>937.0</ele>
        <time>2021-08-21T04:28:48Z</time>
      </trkpt>
      <trkpt lat="42.6348660" lon="-5.5167940">
        <ele>937.0</ele>
        <time>2021-08-21T04:28:49Z</time>
      </trkpt>
      <trkpt lat="42.6348900" lon="-5.5167980">
        <ele>937.0</ele>
        <time>2021-08-21T04:28:50Z</time>
      </trkpt>
      <trkpt lat="42.6349150" lon="-5.5168020">
        <ele>937.0</ele>
        <time>2021-08-21T04:28:51Z</time>
      </trkpt>
      <trkpt lat="42.6349530" lon="-5.5168060">
        <ele>937.0</ele>
        <time>2021-08-21T04:28:52Z</time>
      </trkpt>
      <trkpt lat="42.6349650" lon="-5.5168090">
        <ele>937.0</ele>
        <time>2021-08-21T04:28:53Z</time>
      </trkpt>
      <trkpt lat="42.6349900" lon="-5.5168150">
        <ele>937.0</ele>
        <time>2021-08-21T04:28:54Z</time>
      </trkpt>
      <trkpt lat="42.6350140" lon="-5.5168240">
        <ele>937.0</ele>
        <time>2021-08-21T04:28:55Z</time>
      </trkpt>
      <trkpt lat="42.6350370" lon="-5.5168330">
        <ele>937.0</ele>
        <time>2021-08-21T04:28:56Z</time>
      </trkpt>
      <trkpt lat="42.6350590" lon="-5.5168410">
        <ele>937.0</ele>
        <time>2021-08-21T04:28:57Z</time>
      </trkpt>
      <trkpt lat="42.6350790" lon="-5.5168480">
        <ele>937.0</ele>
        <time>2021-08-21T04:28:58Z</time>
      </trkpt>
      <trkpt lat="42.6351020" lon="-5.5168550">
        <ele>937.0</ele>
        <time>2021-08-21T04:28:59Z</time>
      </trkpt>
      <trkpt lat="42.6351220" lon="-5.5168620">
        <ele>937.0</ele>
        <time>2021-08-21T04:29:00Z</time>
      </trkpt>
      <trkpt lat="42.6351440" lon="-5.5168690">
        <ele>938.0</ele>
        <time>2021-08-21T04:29:01Z</time>
      </trkpt>
      <trkpt lat="42.6351660" lon="-5.5168770">
        <ele>938.0</ele>
        <time>2021-08-21T04:29:02Z</time>
      </trkpt>
      <trkpt lat="42.6351880" lon="-5.5168880">
        <ele>938.0</ele>
        <time>2021-08-21T04:29:03Z</time>
      </trkpt>
      <trkpt lat="42.6352110" lon="-5.5168950">
        <ele>938.0</ele>
        <time>2021-08-21T04:29:04Z</time>
      </trkpt>
      <trkpt lat="42.6352370" lon="-5.5168980">
        <ele>938.0</ele>
        <time>2021-08-21T04:29:05Z</time>
      </trkpt>
      <trkpt lat="42.6352630" lon="-5.5169040">
        <ele>938.0</ele>
        <time>2021-08-21T04:29:06Z</time>
      </trkpt>
      <trkpt lat="42.6352860" lon="-5.5169090">
        <ele>938.0</ele>
        <time>2021-08-21T04:29:07Z</time>
      </trkpt>
      <trkpt lat="42.6353110" lon="-5.5169150">
        <ele>938.0</ele>
        <time>2021-08-21T04:29:08Z</time>
      </trkpt>
      <trkpt lat="42.6353370" lon="-5.5169230">
        <ele>938.0</ele>
        <time>2021-08-21T04:29:09Z</time>
      </trkpt>
      <trkpt lat="42.6353630" lon="-5.5169320">
        <ele>938.0</ele>
        <time>2021-08-21T04:29:10Z</time>
      </trkpt>
      <trkpt lat="42.6353890" lon="-5.5169390">
        <ele>938.0</ele>
        <time>2021-08-21T04:29:11Z</time>
      </trkpt>
      <trkpt lat="42.6354130" lon="-5.5169420">
        <ele>938.0</ele>
        <time>2021-08-21T04:29:12Z</time>
      </trkpt>
      <trkpt lat="42.6354390" lon="-5.5169400">
        <ele>938.0</ele>
        <time>2021-08-21T04:29:13Z</time>
      </trkpt>
      <trkpt lat="42.6354660" lon="-5.5169320">
        <ele>939.0</ele>
        <time>2021-08-21T04:29:14Z</time>
      </trkpt>
      <trkpt lat="42.6354920" lon="-5.5169230">
        <ele>939.0</ele>
        <time>2021-08-21T04:29:15Z</time>
      </trkpt>
      <trkpt lat="42.6355160" lon="-5.5169160">
        <ele>939.0</ele>
        <time>2021-08-21T04:29:16Z</time>
      </trkpt>
      <trkpt lat="42.6355570" lon="-5.5169030">
        <ele>939.0</ele>
        <time>2021-08-21T04:29:17Z</time>
      </trkpt>
      <trkpt lat="42.6355700" lon="-5.5168980">
        <ele>939.0</ele>
        <time>2021-08-21T04:29:18Z</time>
      </trkpt>
      <trkpt lat="42.6355990" lon="-5.5168850">
        <ele>938.0</ele>
        <time>2021-08-21T04:29:19Z</time>
      </trkpt>
      <trkpt lat="42.6356260" lon="-5.5168650">
        <ele>938.0</ele>
        <time>2021-08-21T04:29:20Z</time>
      </trkpt>
      <trkpt lat="42.6356520" lon="-5.5168420">
        <ele>938.0</ele>
        <time>2021-08-21T04:29:21Z</time>
      </trkpt>
      <trkpt lat="42.6356790" lon="-5.5168180">
        <ele>938.0</ele>
        <time>2021-08-21T04:29:22Z</time>
      </trkpt>
      <trkpt lat="42.6357020" lon="-5.5167960">
        <ele>938.0</ele>
        <time>2021-08-21T04:29:23Z</time>
      </trkpt>
      <trkpt lat="42.6357260" lon="-5.5167760">
        <ele>938.0</ele>
        <time>2021-08-21T04:29:24Z</time>
      </trkpt>
      <trkpt lat="42.6357500" lon="-5.5167560">
        <ele>938.0</ele>
        <time>2021-08-21T04:29:25Z</time>
      </trkpt>
      <trkpt lat="42.6357830" lon="-5.5167260">
        <ele>938.0</ele>
        <time>2021-08-21T04:29:26Z</time>
      </trkpt>
      <trkpt lat="42.6357940" lon="-5.5167150">
        <ele>938.0</ele>
        <time>2021-08-21T04:29:27Z</time>
      </trkpt>
      <trkpt lat="42.6358130" lon="-5.5166980">
        <ele>938.0</ele>
        <time>2021-08-21T04:29:28Z</time>
      </trkpt>
      <trkpt lat="42.6358370" lon="-5.5166770">
        <ele>938.0</ele>
        <time>2021-08-21T04:29:29Z</time>
      </trkpt>
      <trkpt lat="42.6358830" lon="-5.5166300">
        <ele>938.0</ele>
        <time>2021-08-21T04:29:30Z</time>
      </trkpt>
      <trkpt lat="42.6358830" lon="-5.5166300">
        <ele>938.0</ele>
        <time>2021-08-21T04:29:31Z</time>
      </trkpt>
      <trkpt lat="42.6359070" lon="-5.5166100">
        <ele>938.0</ele>
        <time>2021-08-21T04:29:32Z</time>
      </trkpt>
      <trkpt lat="42.6359280" lon="-5.5165920">
        <ele>938.0</ele>
        <time>2021-08-21T04:29:33Z</time>
      </trkpt>
      <trkpt lat="42.6359520" lon="-5.5165740">
        <ele>938.0</ele>
        <time>2021-08-21T04:29:34Z</time>
      </trkpt>
      <trkpt lat="42.6359740" lon="-5.5165560">
        <ele>938.0</ele>
        <time>2021-08-21T04:29:35Z</time>
      </trkpt>
      <trkpt lat="42.6359970" lon="-5.5165400">
        <ele>938.0</ele>
        <time>2021-08-21T04:29:36Z</time>
      </trkpt>
      <trkpt lat="42.6360190" lon="-5.5165260">
        <ele>939.0</ele>
        <time>2021-08-21T04:29:37Z</time>
      </trkpt>
      <trkpt lat="42.6360540" lon="-5.5165060">
        <ele>939.0</ele>
        <time>2021-08-21T04:29:38Z</time>
      </trkpt>
      <trkpt lat="42.6360650" lon="-5.5164990">
        <ele>939.0</ele>
        <time>2021-08-21T04:29:39Z</time>
      </trkpt>
      <trkpt lat="42.6360860" lon="-5.5164890">
        <ele>939.0</ele>
        <time>2021-08-21T04:29:40Z</time>
      </trkpt>
      <trkpt lat="42.6361180" lon="-5.5164750">
        <ele>939.0</ele>
        <time>2021-08-21T04:29:41Z</time>
      </trkpt>
      <trkpt lat="42.6361280" lon="-5.5164710">
        <ele>939.0</ele>
        <time>2021-08-21T04:29:42Z</time>
      </trkpt>
      <trkpt lat="42.6361510" lon="-5.5164640">
        <ele>939.0</ele>
        <time>2021-08-21T04:29:43Z</time>
      </trkpt>
      <trkpt lat="42.6361710" lon="-5.5164570">
        <ele>939.0</ele>
        <time>2021-08-21T04:29:44Z</time>
      </trkpt>
      <trkpt lat="42.6361940" lon="-5.5164490">
        <ele>939.0</ele>
        <time>2021-08-21T04:29:45Z</time>
      </trkpt>
      <trkpt lat="42.6362150" lon="-5.5164410">
        <ele>939.0</ele>
        <time>2021-08-21T04:29:46Z</time>
      </trkpt>
      <trkpt lat="42.6362350" lon="-5.5164310">
        <ele>939.0</ele>
        <time>2021-08-21T04:29:47Z</time>
      </trkpt>
      <trkpt lat="42.6362570" lon="-5.5164230">
        <ele>939.0</ele>
        <time>2021-08-21T04:29:48Z</time>
      </trkpt>
      <trkpt lat="42.6362770" lon="-5.5164170">
        <ele>939.0</ele>
        <time>2021-08-21T04:29:49Z</time>
      </trkpt>
      <trkpt lat="42.6362990" lon="-5.5164140">
        <ele>939.0</ele>
        <time>2021-08-21T04:29:50Z</time>
      </trkpt>
      <trkpt lat="42.6363210" lon="-5.5164070">
        <ele>940.0</ele>
        <time>2021-08-21T04:29:51Z</time>
      </trkpt>
      <trkpt lat="42.6363420" lon="-5.5164010">
        <ele>940.0</ele>
        <time>2021-08-21T04:29:52Z</time>
      </trkpt>
      <trkpt lat="42.6363620" lon="-5.5163920">
        <ele>940.0</ele>
        <time>2021-08-21T04:29:53Z</time>
      </trkpt>
      <trkpt lat="42.6363840" lon="-5.5163840">
        <ele>940.0</ele>
        <time>2021-08-21T04:29:54Z</time>
      </trkpt>
      <trkpt lat="42.6364040" lon="-5.5163750">
        <ele>940.0</ele>
        <time>2021-08-21T04:29:55Z</time>
      </trkpt>
      <trkpt lat="42.6364250" lon="-5.5163620">
        <ele>940.0</ele>
        <time>2021-08-21T04:29:56Z</time>
      </trkpt>
      <trkpt lat="42.6364450" lon="-5.5163460">
        <ele>940.0</ele>
        <time>2021-08-21T04:29:57Z</time>
      </trkpt>
      <trkpt lat="42.6364660" lon="-5.5163280">
        <ele>940.0</ele>
        <time>2021-08-21T04:29:58Z</time>
      </trkpt>
      <trkpt lat="42.6364880" lon="-5.5163070">
        <ele>940.0</ele>
        <time>2021-08-21T04:29:59Z</time>
      </trkpt>
      <trkpt lat="42.6365100" lon="-5.5162890">
        <ele>940.0</ele>
        <time>2021-08-21T04:30:00Z</time>
      </trkpt>
      <trkpt lat="42.6365410" lon="-5.5162670">
        <ele>940.0</ele>
        <time>2021-08-21T04:30:01Z</time>
      </trkpt>
      <trkpt lat="42.6365510" lon="-5.5162600">
        <ele>941.0</ele>
        <time>2021-08-21T04:30:02Z</time>
      </trkpt>
      <trkpt lat="42.6365730" lon="-5.5162440">
        <ele>941.0</ele>
        <time>2021-08-21T04:30:03Z</time>
      </trkpt>
      <trkpt lat="42.6365930" lon="-5.5162300">
        <ele>941.0</ele>
        <time>2021-08-21T04:30:04Z</time>
      </trkpt>
      <trkpt lat="42.6366140" lon="-5.5162170">
        <ele>941.0</ele>
        <time>2021-08-21T04:30:05Z</time>
      </trkpt>
      <trkpt lat="42.6366330" lon="-5.5162030">
        <ele>941.0</ele>
        <time>2021-08-21T04:30:06Z</time>
      </trkpt>
      <trkpt lat="42.6366510" lon="-5.5161860">
        <ele>941.0</ele>
        <time>2021-08-21T04:30:07Z</time>
      </trkpt>
      <trkpt lat="42.6366730" lon="-5.5161650">
        <ele>941.0</ele>
        <time>2021-08-21T04:30:08Z</time>
      </trkpt>
      <trkpt lat="42.6366950" lon="-5.5161470">
        <ele>941.0</ele>
        <time>2021-08-21T04:30:09Z</time>
      </trkpt>
      <trkpt lat="42.6367170" lon="-5.5161270">
        <ele>941.0</ele>
        <time>2021-08-21T04:30:10Z</time>
      </trkpt>
      <trkpt lat="42.6367380" lon="-5.5161070">
        <ele>941.0</ele>
        <time>2021-08-21T04:30:11Z</time>
      </trkpt>
      <trkpt lat="42.6367580" lon="-5.5160860">
        <ele>941.0</ele>
        <time>2021-08-21T04:30:12Z</time>
      </trkpt>
      <trkpt lat="42.6367780" lon="-5.5160650">
        <ele>941.0</ele>
        <time>2021-08-21T04:30:13Z</time>
      </trkpt>
      <trkpt lat="42.6368000" lon="-5.5160420">
        <ele>941.0</ele>
        <time>2021-08-21T04:30:14Z</time>
      </trkpt>
      <trkpt lat="42.6368200" lon="-5.5160170">
        <ele>941.0</ele>
        <time>2021-08-21T04:30:15Z</time>
      </trkpt>
      <trkpt lat="42.6368400" lon="-5.5159890">
        <ele>941.0</ele>
        <time>2021-08-21T04:30:16Z</time>
      </trkpt>
      <trkpt lat="42.6368600" lon="-5.5159630">
        <ele>941.0</ele>
        <time>2021-08-21T04:30:17Z</time>
      </trkpt>
      <trkpt lat="42.6368800" lon="-5.5159380">
        <ele>941.0</ele>
        <time>2021-08-21T04:30:18Z</time>
      </trkpt>
      <trkpt lat="42.6369000" lon="-5.5159130">
        <ele>941.0</ele>
        <time>2021-08-21T04:30:19Z</time>
      </trkpt>
      <trkpt lat="42.6369190" lon="-5.5158880">
        <ele>941.0</ele>
        <time>2021-08-21T04:30:20Z</time>
      </trkpt>
      <trkpt lat="42.6369400" lon="-5.5158630">
        <ele>941.0</ele>
        <time>2021-08-21T04:30:21Z</time>
      </trkpt>
      <trkpt lat="42.6369580" lon="-5.5158340">
        <ele>941.0</ele>
        <time>2021-08-21T04:30:22Z</time>
      </trkpt>
      <trkpt lat="42.6369740" lon="-5.5158000">
        <ele>941.0</ele>
        <time>2021-08-21T04:30:23Z</time>
      </trkpt>
      <trkpt lat="42.6369860" lon="-5.5157680">
        <ele>941.0</ele>
        <time>2021-08-21T04:30:24Z</time>
      </trkpt>
      <trkpt lat="42.6369950" lon="-5.5157380">
        <ele>941.0</ele>
        <time>2021-08-21T04:30:25Z</time>
      </trkpt>
      <trkpt lat="42.6370060" lon="-5.5157070">
        <ele>941.0</ele>
        <time>2021-08-21T04:30:26Z</time>
      </trkpt>
      <trkpt lat="42.6370170" lon="-5.5156750">
        <ele>941.0</ele>
        <time>2021-08-21T04:30:27Z</time>
      </trkpt>
      <trkpt lat="42.6370290" lon="-5.5156400">
        <ele>941.0</ele>
        <time>2021-08-21T04:30:28Z</time>
      </trkpt>
      <trkpt lat="42.6370420" lon="-5.5156050">
        <ele>941.0</ele>
        <time>2021-08-21T04:30:29Z</time>
      </trkpt>
      <trkpt lat="42.6370550" lon="-5.5155700">
        <ele>941.0</ele>
        <time>2021-08-21T04:30:30Z</time>
      </trkpt>
      <trkpt lat="42.6370710" lon="-5.5155370">
        <ele>941.0</ele>
        <time>2021-08-21T04:30:31Z</time>
      </trkpt>
      <trkpt lat="42.6370840" lon="-5.5155050">
        <ele>942.0</ele>
        <time>2021-08-21T04:30:32Z</time>
      </trkpt>
      <trkpt lat="42.6371070" lon="-5.5154640">
        <ele>942.0</ele>
        <time>2021-08-21T04:30:33Z</time>
      </trkpt>
      <trkpt lat="42.6371150" lon="-5.5154500">
        <ele>942.0</ele>
        <time>2021-08-21T04:30:34Z</time>
      </trkpt>
      <trkpt lat="42.6371310" lon="-5.5154200">
        <ele>942.0</ele>
        <time>2021-08-21T04:30:35Z</time>
      </trkpt>
      <trkpt lat="42.6371470" lon="-5.5153910">
        <ele>942.0</ele>
        <time>2021-08-21T04:30:36Z</time>
      </trkpt>
      <trkpt lat="42.6371620" lon="-5.5153600">
        <ele>942.0</ele>
        <time>2021-08-21T04:30:37Z</time>
      </trkpt>
      <trkpt lat="42.6371750" lon="-5.5153290">
        <ele>942.0</ele>
        <time>2021-08-21T04:30:38Z</time>
      </trkpt>
      <trkpt lat="42.6371890" lon="-5.5152970">
        <ele>942.0</ele>
        <time>2021-08-21T04:30:39Z</time>
      </trkpt>
      <trkpt lat="42.6372030" lon="-5.5152660">
        <ele>942.0</ele>
        <time>2021-08-21T04:30:40Z</time>
      </trkpt>
      <trkpt lat="42.6372180" lon="-5.5152380">
        <ele>942.0</ele>
        <time>2021-08-21T04:30:41Z</time>
      </trkpt>
      <trkpt lat="42.6372330" lon="-5.5152110">
        <ele>942.0</ele>
        <time>2021-08-21T04:30:42Z</time>
      </trkpt>
      <trkpt lat="42.6372500" lon="-5.5151890">
        <ele>942.0</ele>
        <time>2021-08-21T04:30:43Z</time>
      </trkpt>
      <trkpt lat="42.6372680" lon="-5.5151690">
        <ele>942.0</ele>
        <time>2021-08-21T04:30:44Z</time>
      </trkpt>
      <trkpt lat="42.6372850" lon="-5.5151500">
        <ele>942.0</ele>
        <time>2021-08-21T04:30:45Z</time>
      </trkpt>
      <trkpt lat="42.6373050" lon="-5.5151280">
        <ele>943.0</ele>
        <time>2021-08-21T04:30:46Z</time>
      </trkpt>
      <trkpt lat="42.6373230" lon="-5.5151050">
        <ele>942.0</ele>
        <time>2021-08-21T04:30:47Z</time>
      </trkpt>
      <trkpt lat="42.6373400" lon="-5.5150770">
        <ele>943.0</ele>
        <time>2021-08-21T04:30:48Z</time>
      </trkpt>
      <trkpt lat="42.6373550" lon="-5.5150450">
        <ele>942.0</ele>
        <time>2021-08-21T04:30:49Z</time>
      </trkpt>
      <trkpt lat="42.6373690" lon="-5.5150130">
        <ele>942.0</ele>
        <time>2021-08-21T04:30:50Z</time>
      </trkpt>
      <trkpt lat="42.6373840" lon="-5.5149800">
        <ele>942.0</ele>
        <time>2021-08-21T04:30:51Z</time>
      </trkpt>
      <trkpt lat="42.6373990" lon="-5.5149510">
        <ele>942.0</ele>
        <time>2021-08-21T04:30:52Z</time>
      </trkpt>
      <trkpt lat="42.6374160" lon="-5.5149230">
        <ele>942.0</ele>
        <time>2021-08-21T04:30:53Z</time>
      </trkpt>
      <trkpt lat="42.6374330" lon="-5.5148940">
        <ele>942.0</ele>
        <time>2021-08-21T04:30:54Z</time>
      </trkpt>
      <trkpt lat="42.6374620" lon="-5.5148550">
        <ele>942.0</ele>
        <time>2021-08-21T04:30:55Z</time>
      </trkpt>
      <trkpt lat="42.6374710" lon="-5.5148410">
        <ele>942.0</ele>
        <time>2021-08-21T04:30:56Z</time>
      </trkpt>
      <trkpt lat="42.6374900" lon="-5.5147960">
        <ele>942.0</ele>
        <time>2021-08-21T04:30:57Z</time>
      </trkpt>
      <trkpt lat="42.6374950" lon="-5.5147800">
        <ele>942.0</ele>
        <time>2021-08-21T04:30:58Z</time>
      </trkpt>
      <trkpt lat="42.6375030" lon="-5.5147450">
        <ele>942.0</ele>
        <time>2021-08-21T04:30:59Z</time>
      </trkpt>
      <trkpt lat="42.6375230" lon="-5.5147030">
        <ele>942.0</ele>
        <time>2021-08-21T04:31:00Z</time>
      </trkpt>
      <trkpt lat="42.6375310" lon="-5.5146920">
        <ele>942.0</ele>
        <time>2021-08-21T04:31:01Z</time>
      </trkpt>
      <trkpt lat="42.6375520" lon="-5.5146780">
        <ele>942.0</ele>
        <time>2021-08-21T04:31:02Z</time>
      </trkpt>
      <trkpt lat="42.6375850" lon="-5.5146690">
        <ele>942.0</ele>
        <time>2021-08-21T04:31:03Z</time>
      </trkpt>
      <trkpt lat="42.6375960" lon="-5.5146670">
        <ele>942.0</ele>
        <time>2021-08-21T04:31:04Z</time>
      </trkpt>
      <trkpt lat="42.6376180" lon="-5.5146630">
        <ele>942.0</ele>
        <time>2021-08-21T04:31:05Z</time>
      </trkpt>
      <trkpt lat="42.6376510" lon="-5.5146560">
        <ele>942.0</ele>
        <time>2021-08-21T04:31:06Z</time>
      </trkpt>
      <trkpt lat="42.6376620" lon="-5.5146550">
        <ele>942.0</ele>
        <time>2021-08-21T04:31:07Z</time>
      </trkpt>
      <trkpt lat="42.6376880" lon="-5.5146560">
        <ele>942.0</ele>
        <time>2021-08-21T04:31:08Z</time>
      </trkpt>
      <trkpt lat="42.6377250" lon="-5.5146550">
        <ele>942.0</ele>
        <time>2021-08-21T04:31:09Z</time>
      </trkpt>
      <trkpt lat="42.6377380" lon="-5.5146540">
        <ele>942.0</ele>
        <time>2021-08-21T04:31:10Z</time>
      </trkpt>
      <trkpt lat="42.6377650" lon="-5.5146580">
        <ele>943.0</ele>
        <time>2021-08-21T04:31:11Z</time>
      </trkpt>
      <trkpt lat="42.6377900" lon="-5.5146620">
        <ele>943.0</ele>
        <time>2021-08-21T04:31:12Z</time>
      </trkpt>
      <trkpt lat="42.6378140" lon="-5.5146610">
        <ele>943.0</ele>
        <time>2021-08-21T04:31:13Z</time>
      </trkpt>
      <trkpt lat="42.6378370" lon="-5.5146560">
        <ele>943.0</ele>
        <time>2021-08-21T04:31:14Z</time>
      </trkpt>
      <trkpt lat="42.6378600" lon="-5.5146500">
        <ele>943.0</ele>
        <time>2021-08-21T04:31:15Z</time>
      </trkpt>
      <trkpt lat="42.6378830" lon="-5.5146420">
        <ele>943.0</ele>
        <time>2021-08-21T04:31:16Z</time>
      </trkpt>
      <trkpt lat="42.6379050" lon="-5.5146340">
        <ele>943.0</ele>
        <time>2021-08-21T04:31:17Z</time>
      </trkpt>
      <trkpt lat="42.6379280" lon="-5.5146270">
        <ele>943.0</ele>
        <time>2021-08-21T04:31:18Z</time>
      </trkpt>
      <trkpt lat="42.6379490" lon="-5.5146220">
        <ele>943.0</ele>
        <time>2021-08-21T04:31:19Z</time>
      </trkpt>
      <trkpt lat="42.6379690" lon="-5.5146160">
        <ele>943.0</ele>
        <time>2021-08-21T04:31:20Z</time>
      </trkpt>
      <trkpt lat="42.6379880" lon="-5.5146090">
        <ele>943.0</ele>
        <time>2021-08-21T04:31:21Z</time>
      </trkpt>
      <trkpt lat="42.6380080" lon="-5.5146020">
        <ele>943.0</ele>
        <time>2021-08-21T04:31:22Z</time>
      </trkpt>
      <trkpt lat="42.6380300" lon="-5.5145920">
        <ele>943.0</ele>
        <time>2021-08-21T04:31:23Z</time>
      </trkpt>
      <trkpt lat="42.6380520" lon="-5.5145790">
        <ele>943.0</ele>
        <time>2021-08-21T04:31:24Z</time>
      </trkpt>
      <trkpt lat="42.6380720" lon="-5.5145640">
        <ele>943.0</ele>
        <time>2021-08-21T04:31:25Z</time>
      </trkpt>
      <trkpt lat="42.6380960" lon="-5.5145510">
        <ele>943.0</ele>
        <time>2021-08-21T04:31:26Z</time>
      </trkpt>
      <trkpt lat="42.6381200" lon="-5.5145400">
        <ele>943.0</ele>
        <time>2021-08-21T04:31:27Z</time>
      </trkpt>
      <trkpt lat="42.6381550" lon="-5.5145230">
        <ele>943.0</ele>
        <time>2021-08-21T04:31:28Z</time>
      </trkpt>
      <trkpt lat="42.6381650" lon="-5.5145170">
        <ele>943.0</ele>
        <time>2021-08-21T04:31:29Z</time>
      </trkpt>
      <trkpt lat="42.6381880" lon="-5.5145020">
        <ele>943.0</ele>
        <time>2021-08-21T04:31:30Z</time>
      </trkpt>
      <trkpt lat="42.6382110" lon="-5.5144850">
        <ele>943.0</ele>
        <time>2021-08-21T04:31:31Z</time>
      </trkpt>
      <trkpt lat="42.6382320" lon="-5.5144720">
        <ele>943.0</ele>
        <time>2021-08-21T04:31:32Z</time>
      </trkpt>
      <trkpt lat="42.6382530" lon="-5.5144660">
        <ele>943.0</ele>
        <time>2021-08-21T04:31:33Z</time>
      </trkpt>
      <trkpt lat="42.6382760" lon="-5.5144610">
        <ele>943.0</ele>
        <time>2021-08-21T04:31:34Z</time>
      </trkpt>
      <trkpt lat="42.6382980" lon="-5.5144600">
        <ele>944.0</ele>
        <time>2021-08-21T04:31:35Z</time>
      </trkpt>
      <trkpt lat="42.6383200" lon="-5.5144600">
        <ele>944.0</ele>
        <time>2021-08-21T04:31:36Z</time>
      </trkpt>
      <trkpt lat="42.6383460" lon="-5.5144580">
        <ele>944.0</ele>
        <time>2021-08-21T04:31:37Z</time>
      </trkpt>
      <trkpt lat="42.6383710" lon="-5.5144460">
        <ele>944.0</ele>
        <time>2021-08-21T04:31:38Z</time>
      </trkpt>
      <trkpt lat="42.6383950" lon="-5.5144320">
        <ele>944.0</ele>
        <time>2021-08-21T04:31:39Z</time>
      </trkpt>
      <trkpt lat="42.6384210" lon="-5.5144190">
        <ele>944.0</ele>
        <time>2021-08-21T04:31:40Z</time>
      </trkpt>
      <trkpt lat="42.6384440" lon="-5.5144110">
        <ele>944.0</ele>
        <time>2021-08-21T04:31:41Z</time>
      </trkpt>
      <trkpt lat="42.6384650" lon="-5.5144090">
        <ele>944.0</ele>
        <time>2021-08-21T04:31:42Z</time>
      </trkpt>
      <trkpt lat="42.6384860" lon="-5.5144120">
        <ele>944.0</ele>
        <time>2021-08-21T04:31:43Z</time>
      </trkpt>
      <trkpt lat="42.6385060" lon="-5.5144170">
        <ele>944.0</ele>
        <time>2021-08-21T04:31:44Z</time>
      </trkpt>
      <trkpt lat="42.6385290" lon="-5.5144190">
        <ele>944.0</ele>
        <time>2021-08-21T04:31:45Z</time>
      </trkpt>
      <trkpt lat="42.6385500" lon="-5.5144230">
        <ele>944.0</ele>
        <time>2021-08-21T04:31:46Z</time>
      </trkpt>
      <trkpt lat="42.6385690" lon="-5.5144270">
        <ele>944.0</ele>
        <time>2021-08-21T04:31:47Z</time>
      </trkpt>
      <trkpt lat="42.6385900" lon="-5.5144310">
        <ele>944.0</ele>
        <time>2021-08-21T04:31:48Z</time>
      </trkpt>
      <trkpt lat="42.6386220" lon="-5.5144300">
        <ele>944.0</ele>
        <time>2021-08-21T04:31:49Z</time>
      </trkpt>
      <trkpt lat="42.6386330" lon="-5.5144280">
        <ele>945.0</ele>
        <time>2021-08-21T04:31:50Z</time>
      </trkpt>
      <trkpt lat="42.6386560" lon="-5.5144170">
        <ele>945.0</ele>
        <time>2021-08-21T04:31:51Z</time>
      </trkpt>
      <trkpt lat="42.6386770" lon="-5.5144000">
        <ele>945.0</ele>
        <time>2021-08-21T04:31:52Z</time>
      </trkpt>
      <trkpt lat="42.6386950" lon="-5.5143760">
        <ele>945.0</ele>
        <time>2021-08-21T04:31:53Z</time>
      </trkpt>
      <trkpt lat="42.6387100" lon="-5.5143480">
        <ele>945.0</ele>
        <time>2021-08-21T04:31:54Z</time>
      </trkpt>
      <trkpt lat="42.6387260" lon="-5.5143210">
        <ele>945.0</ele>
        <time>2021-08-21T04:31:55Z</time>
      </trkpt>
      <trkpt lat="42.6387590" lon="-5.5142890">
        <ele>945.0</ele>
        <time>2021-08-21T04:31:56Z</time>
      </trkpt>
      <trkpt lat="42.6387700" lon="-5.5142790">
        <ele>945.0</ele>
        <time>2021-08-21T04:31:57Z</time>
      </trkpt>
      <trkpt lat="42.6388040" lon="-5.5142510">
        <ele>945.0</ele>
        <time>2021-08-21T04:31:58Z</time>
      </trkpt>
      <trkpt lat="42.6388150" lon="-5.5142420">
        <ele>945.0</ele>
        <time>2021-08-21T04:31:59Z</time>
      </trkpt>
      <trkpt lat="42.6388370" lon="-5.5142250">
        <ele>945.0</ele>
        <time>2021-08-21T04:32:00Z</time>
      </trkpt>
      <trkpt lat="42.6388700" lon="-5.5142080">
        <ele>945.0</ele>
        <time>2021-08-21T04:32:01Z</time>
      </trkpt>
      <trkpt lat="42.6388810" lon="-5.5142030">
        <ele>946.0</ele>
        <time>2021-08-21T04:32:02Z</time>
      </trkpt>
      <trkpt lat="42.6389030" lon="-5.5141970">
        <ele>946.0</ele>
        <time>2021-08-21T04:32:03Z</time>
      </trkpt>
      <trkpt lat="42.6389260" lon="-5.5141900">
        <ele>946.0</ele>
        <time>2021-08-21T04:32:04Z</time>
      </trkpt>
      <trkpt lat="42.6389500" lon="-5.5141850">
        <ele>946.0</ele>
        <time>2021-08-21T04:32:05Z</time>
      </trkpt>
      <trkpt lat="42.6389870" lon="-5.5141720">
        <ele>946.0</ele>
        <time>2021-08-21T04:32:06Z</time>
      </trkpt>
      <trkpt lat="42.6389980" lon="-5.5141670">
        <ele>946.0</ele>
        <time>2021-08-21T04:32:07Z</time>
      </trkpt>
      <trkpt lat="42.6390240" lon="-5.5141570">
        <ele>946.0</ele>
        <time>2021-08-21T04:32:08Z</time>
      </trkpt>
      <trkpt lat="42.6390460" lon="-5.5141500">
        <ele>947.0</ele>
        <time>2021-08-21T04:32:09Z</time>
      </trkpt>
      <trkpt lat="42.6390700" lon="-5.5141420">
        <ele>947.0</ele>
        <time>2021-08-21T04:32:10Z</time>
      </trkpt>
      <trkpt lat="42.6390940" lon="-5.5141310">
        <ele>947.0</ele>
        <time>2021-08-21T04:32:11Z</time>
      </trkpt>
      <trkpt lat="42.6391200" lon="-5.5141180">
        <ele>947.0</ele>
        <time>2021-08-21T04:32:12Z</time>
      </trkpt>
      <trkpt lat="42.6391440" lon="-5.5141050">
        <ele>947.0</ele>
        <time>2021-08-21T04:32:13Z</time>
      </trkpt>
      <trkpt lat="42.6391680" lon="-5.5140910">
        <ele>947.0</ele>
        <time>2021-08-21T04:32:14Z</time>
      </trkpt>
      <trkpt lat="42.6391930" lon="-5.5140760">
        <ele>947.0</ele>
        <time>2021-08-21T04:32:15Z</time>
      </trkpt>
      <trkpt lat="42.6392190" lon="-5.5140600">
        <ele>947.0</ele>
        <time>2021-08-21T04:32:16Z</time>
      </trkpt>
      <trkpt lat="42.6392440" lon="-5.5140420">
        <ele>947.0</ele>
        <time>2021-08-21T04:32:17Z</time>
      </trkpt>
      <trkpt lat="42.6392670" lon="-5.5140250">
        <ele>948.0</ele>
        <time>2021-08-21T04:32:18Z</time>
      </trkpt>
      <trkpt lat="42.6392900" lon="-5.5140080">
        <ele>948.0</ele>
        <time>2021-08-21T04:32:19Z</time>
      </trkpt>
      <trkpt lat="42.6393130" lon="-5.5139910">
        <ele>948.0</ele>
        <time>2021-08-21T04:32:20Z</time>
      </trkpt>
      <trkpt lat="42.6393370" lon="-5.5139740">
        <ele>948.0</ele>
        <time>2021-08-21T04:32:21Z</time>
      </trkpt>
      <trkpt lat="42.6393590" lon="-5.5139600">
        <ele>948.0</ele>
        <time>2021-08-21T04:32:22Z</time>
      </trkpt>
      <trkpt lat="42.6393830" lon="-5.5139460">
        <ele>948.0</ele>
        <time>2021-08-21T04:32:23Z</time>
      </trkpt>
      <trkpt lat="42.6394080" lon="-5.5139320">
        <ele>948.0</ele>
        <time>2021-08-21T04:32:24Z</time>
      </trkpt>
      <trkpt lat="42.6394320" lon="-5.5139220">
        <ele>948.0</ele>
        <time>2021-08-21T04:32:25Z</time>
      </trkpt>
      <trkpt lat="42.6394580" lon="-5.5139090">
        <ele>948.0</ele>
        <time>2021-08-21T04:32:26Z</time>
      </trkpt>
      <trkpt lat="42.6394940" lon="-5.5138960">
        <ele>948.0</ele>
        <time>2021-08-21T04:32:27Z</time>
      </trkpt>
      <trkpt lat="42.6395070" lon="-5.5138930">
        <ele>949.0</ele>
        <time>2021-08-21T04:32:28Z</time>
      </trkpt>
      <trkpt lat="42.6395310" lon="-5.5138900">
        <ele>949.0</ele>
        <time>2021-08-21T04:32:29Z</time>
      </trkpt>
      <trkpt lat="42.6395550" lon="-5.5138850">
        <ele>949.0</ele>
        <time>2021-08-21T04:32:30Z</time>
      </trkpt>
      <trkpt lat="42.6395760" lon="-5.5138780">
        <ele>949.0</ele>
        <time>2021-08-21T04:32:31Z</time>
      </trkpt>
      <trkpt lat="42.6395990" lon="-5.5138710">
        <ele>949.0</ele>
        <time>2021-08-21T04:32:32Z</time>
      </trkpt>
      <trkpt lat="42.6396210" lon="-5.5138640">
        <ele>950.0</ele>
        <time>2021-08-21T04:32:33Z</time>
      </trkpt>
      <trkpt lat="42.6396430" lon="-5.5138530">
        <ele>950.0</ele>
        <time>2021-08-21T04:32:34Z</time>
      </trkpt>
      <trkpt lat="42.6396680" lon="-5.5138420">
        <ele>950.0</ele>
        <time>2021-08-21T04:32:35Z</time>
      </trkpt>
      <trkpt lat="42.6396860" lon="-5.5138330">
        <ele>950.0</ele>
        <time>2021-08-21T04:32:36Z</time>
      </trkpt>
      <trkpt lat="42.6397060" lon="-5.5138270">
        <ele>950.0</ele>
        <time>2021-08-21T04:32:37Z</time>
      </trkpt>
      <trkpt lat="42.6397250" lon="-5.5138190">
        <ele>950.0</ele>
        <time>2021-08-21T04:32:38Z</time>
      </trkpt>
      <trkpt lat="42.6397460" lon="-5.5138090">
        <ele>950.0</ele>
        <time>2021-08-21T04:32:39Z</time>
      </trkpt>
      <trkpt lat="42.6397700" lon="-5.5137970">
        <ele>950.0</ele>
        <time>2021-08-21T04:32:40Z</time>
      </trkpt>
      <trkpt lat="42.6397930" lon="-5.5137850">
        <ele>950.0</ele>
        <time>2021-08-21T04:32:41Z</time>
      </trkpt>
      <trkpt lat="42.6398170" lon="-5.5137750">
        <ele>951.0</ele>
        <time>2021-08-21T04:32:42Z</time>
      </trkpt>
      <trkpt lat="42.6398400" lon="-5.5137650">
        <ele>951.0</ele>
        <time>2021-08-21T04:32:43Z</time>
      </trkpt>
      <trkpt lat="42.6398660" lon="-5.5137540">
        <ele>951.0</ele>
        <time>2021-08-21T04:32:44Z</time>
      </trkpt>
      <trkpt lat="42.6398900" lon="-5.5137410">
        <ele>951.0</ele>
        <time>2021-08-21T04:32:45Z</time>
      </trkpt>
      <trkpt lat="42.6399270" lon="-5.5137240">
        <ele>951.0</ele>
        <time>2021-08-21T04:32:46Z</time>
      </trkpt>
      <trkpt lat="42.6399390" lon="-5.5137190">
        <ele>951.0</ele>
        <time>2021-08-21T04:32:47Z</time>
      </trkpt>
      <trkpt lat="42.6399630" lon="-5.5137090">
        <ele>951.0</ele>
        <time>2021-08-21T04:32:48Z</time>
      </trkpt>
      <trkpt lat="42.6399850" lon="-5.5137030">
        <ele>951.0</ele>
        <time>2021-08-21T04:32:49Z</time>
      </trkpt>
      <trkpt lat="42.6400090" lon="-5.5136960">
        <ele>951.0</ele>
        <time>2021-08-21T04:32:50Z</time>
      </trkpt>
      <trkpt lat="42.6400300" lon="-5.5136900">
        <ele>951.0</ele>
        <time>2021-08-21T04:32:51Z</time>
      </trkpt>
      <trkpt lat="42.6400520" lon="-5.5136860">
        <ele>951.0</ele>
        <time>2021-08-21T04:32:52Z</time>
      </trkpt>
      <trkpt lat="42.6400760" lon="-5.5136840">
        <ele>951.0</ele>
        <time>2021-08-21T04:32:53Z</time>
      </trkpt>
      <trkpt lat="42.6401000" lon="-5.5136800">
        <ele>951.0</ele>
        <time>2021-08-21T04:32:54Z</time>
      </trkpt>
      <trkpt lat="42.6401220" lon="-5.5136760">
        <ele>951.0</ele>
        <time>2021-08-21T04:32:55Z</time>
      </trkpt>
      <trkpt lat="42.6401440" lon="-5.5136730">
        <ele>951.0</ele>
        <time>2021-08-21T04:32:56Z</time>
      </trkpt>
      <trkpt lat="42.6401660" lon="-5.5136710">
        <ele>951.0</ele>
        <time>2021-08-21T04:32:57Z</time>
      </trkpt>
      <trkpt lat="42.6401900" lon="-5.5136670">
        <ele>951.0</ele>
        <time>2021-08-21T04:32:58Z</time>
      </trkpt>
      <trkpt lat="42.6402140" lon="-5.5136660">
        <ele>951.0</ele>
        <time>2021-08-21T04:32:59Z</time>
      </trkpt>
      <trkpt lat="42.6402400" lon="-5.5136600">
        <ele>952.0</ele>
        <time>2021-08-21T04:33:00Z</time>
      </trkpt>
      <trkpt lat="42.6402890" lon="-5.5136460">
        <ele>952.0</ele>
        <time>2021-08-21T04:33:01Z</time>
      </trkpt>
      <trkpt lat="42.6402890" lon="-5.5136460">
        <ele>952.0</ele>
        <time>2021-08-21T04:33:02Z</time>
      </trkpt>
      <trkpt lat="42.6403110" lon="-5.5136360">
        <ele>952.0</ele>
        <time>2021-08-21T04:33:03Z</time>
      </trkpt>
      <trkpt lat="42.6403310" lon="-5.5136230">
        <ele>952.0</ele>
        <time>2021-08-21T04:33:04Z</time>
      </trkpt>
      <trkpt lat="42.6403510" lon="-5.5136080">
        <ele>952.0</ele>
        <time>2021-08-21T04:33:05Z</time>
      </trkpt>
      <trkpt lat="42.6403710" lon="-5.5135920">
        <ele>952.0</ele>
        <time>2021-08-21T04:33:06Z</time>
      </trkpt>
      <trkpt lat="42.6403910" lon="-5.5135730">
        <ele>952.0</ele>
        <time>2021-08-21T04:33:07Z</time>
      </trkpt>
      <trkpt lat="42.6404080" lon="-5.5135480">
        <ele>952.0</ele>
        <time>2021-08-21T04:33:08Z</time>
      </trkpt>
      <trkpt lat="42.6404260" lon="-5.5135200">
        <ele>953.0</ele>
        <time>2021-08-21T04:33:09Z</time>
      </trkpt>
      <trkpt lat="42.6404400" lon="-5.5134920">
        <ele>953.0</ele>
        <time>2021-08-21T04:33:10Z</time>
      </trkpt>
      <trkpt lat="42.6404530" lon="-5.5134630">
        <ele>953.0</ele>
        <time>2021-08-21T04:33:11Z</time>
      </trkpt>
      <trkpt lat="42.6404670" lon="-5.5134330">
        <ele>953.0</ele>
        <time>2021-08-21T04:33:12Z</time>
      </trkpt>
      <trkpt lat="42.6404810" lon="-5.5134040">
        <ele>953.0</ele>
        <time>2021-08-21T04:33:13Z</time>
      </trkpt>
      <trkpt lat="42.6404960" lon="-5.5133780">
        <ele>953.0</ele>
        <time>2021-08-21T04:33:14Z</time>
      </trkpt>
      <trkpt lat="42.6405120" lon="-5.5133530">
        <ele>953.0</ele>
        <time>2021-08-21T04:33:15Z</time>
      </trkpt>
      <trkpt lat="42.6405290" lon="-5.5133280">
        <ele>953.0</ele>
        <time>2021-08-21T04:33:16Z</time>
      </trkpt>
      <trkpt lat="42.6405470" lon="-5.5133050">
        <ele>953.0</ele>
        <time>2021-08-21T04:33:17Z</time>
      </trkpt>
      <trkpt lat="42.6405670" lon="-5.5132800">
        <ele>954.0</ele>
        <time>2021-08-21T04:33:18Z</time>
      </trkpt>
      <trkpt lat="42.6405960" lon="-5.5132490">
        <ele>954.0</ele>
        <time>2021-08-21T04:33:19Z</time>
      </trkpt>
      <trkpt lat="42.6406060" lon="-5.5132390">
        <ele>954.0</ele>
        <time>2021-08-21T04:33:20Z</time>
      </trkpt>
      <trkpt lat="42.6406270" lon="-5.5132210">
        <ele>954.0</ele>
        <time>2021-08-21T04:33:21Z</time>
      </trkpt>
      <trkpt lat="42.6406500" lon="-5.5132000">
        <ele>954.0</ele>
        <time>2021-08-21T04:33:22Z</time>
      </trkpt>
      <trkpt lat="42.6406710" lon="-5.5131800">
        <ele>954.0</ele>
        <time>2021-08-21T04:33:23Z</time>
      </trkpt>
      <trkpt lat="42.6406910" lon="-5.5131620">
        <ele>954.0</ele>
        <time>2021-08-21T04:33:24Z</time>
      </trkpt>
      <trkpt lat="42.6407120" lon="-5.5131460">
        <ele>954.0</ele>
        <time>2021-08-21T04:33:25Z</time>
      </trkpt>
      <trkpt lat="42.6407310" lon="-5.5131320">
        <ele>954.0</ele>
        <time>2021-08-21T04:33:26Z</time>
      </trkpt>
      <trkpt lat="42.6407490" lon="-5.5131180">
        <ele>954.0</ele>
        <time>2021-08-21T04:33:27Z</time>
      </trkpt>
      <trkpt lat="42.6407690" lon="-5.5131050">
        <ele>955.0</ele>
        <time>2021-08-21T04:33:28Z</time>
      </trkpt>
      <trkpt lat="42.6407900" lon="-5.5130990">
        <ele>955.0</ele>
        <time>2021-08-21T04:33:29Z</time>
      </trkpt>
      <trkpt lat="42.6408110" lon="-5.5130900">
        <ele>955.0</ele>
        <time>2021-08-21T04:33:30Z</time>
      </trkpt>
      <trkpt lat="42.6408300" lon="-5.5130760">
        <ele>955.0</ele>
        <time>2021-08-21T04:33:31Z</time>
      </trkpt>
      <trkpt lat="42.6408500" lon="-5.5130580">
        <ele>955.0</ele>
        <time>2021-08-21T04:33:32Z</time>
      </trkpt>
      <trkpt lat="42.6408660" lon="-5.5130320">
        <ele>955.0</ele>
        <time>2021-08-21T04:33:33Z</time>
      </trkpt>
      <trkpt lat="42.6408800" lon="-5.5130040">
        <ele>955.0</ele>
        <time>2021-08-21T04:33:34Z</time>
      </trkpt>
      <trkpt lat="42.6408920" lon="-5.5129730">
        <ele>955.0</ele>
        <time>2021-08-21T04:33:35Z</time>
      </trkpt>
      <trkpt lat="42.6409030" lon="-5.5129430">
        <ele>955.0</ele>
        <time>2021-08-21T04:33:36Z</time>
      </trkpt>
      <trkpt lat="42.6409140" lon="-5.5129130">
        <ele>955.0</ele>
        <time>2021-08-21T04:33:37Z</time>
      </trkpt>
      <trkpt lat="42.6409200" lon="-5.5128830">
        <ele>956.0</ele>
        <time>2021-08-21T04:33:38Z</time>
      </trkpt>
      <trkpt lat="42.6409250" lon="-5.5128540">
        <ele>956.0</ele>
        <time>2021-08-21T04:33:39Z</time>
      </trkpt>
      <trkpt lat="42.6409290" lon="-5.5128270">
        <ele>956.0</ele>
        <time>2021-08-21T04:33:40Z</time>
      </trkpt>
      <trkpt lat="42.6409370" lon="-5.5127990">
        <ele>956.0</ele>
        <time>2021-08-21T04:33:41Z</time>
      </trkpt>
      <trkpt lat="42.6409430" lon="-5.5127710">
        <ele>956.0</ele>
        <time>2021-08-21T04:33:42Z</time>
      </trkpt>
      <trkpt lat="42.6409490" lon="-5.5127420">
        <ele>956.0</ele>
        <time>2021-08-21T04:33:43Z</time>
      </trkpt>
      <trkpt lat="42.6409550" lon="-5.5127120">
        <ele>956.0</ele>
        <time>2021-08-21T04:33:44Z</time>
      </trkpt>
      <trkpt lat="42.6409610" lon="-5.5126850">
        <ele>956.0</ele>
        <time>2021-08-21T04:33:45Z</time>
      </trkpt>
      <trkpt lat="42.6409710" lon="-5.5126580">
        <ele>956.0</ele>
        <time>2021-08-21T04:33:46Z</time>
      </trkpt>
      <trkpt lat="42.6409830" lon="-5.5126310">
        <ele>956.0</ele>
        <time>2021-08-21T04:33:47Z</time>
      </trkpt>
      <trkpt lat="42.6409950" lon="-5.5126090">
        <ele>956.0</ele>
        <time>2021-08-21T04:33:48Z</time>
      </trkpt>
      <trkpt lat="42.6410110" lon="-5.5125870">
        <ele>956.0</ele>
        <time>2021-08-21T04:33:49Z</time>
      </trkpt>
      <trkpt lat="42.6410270" lon="-5.5125670">
        <ele>956.0</ele>
        <time>2021-08-21T04:33:50Z</time>
      </trkpt>
      <trkpt lat="42.6410420" lon="-5.5125490">
        <ele>956.0</ele>
        <time>2021-08-21T04:33:51Z</time>
      </trkpt>
      <trkpt lat="42.6410590" lon="-5.5125340">
        <ele>956.0</ele>
        <time>2021-08-21T04:33:52Z</time>
      </trkpt>
      <trkpt lat="42.6410760" lon="-5.5125240">
        <ele>956.0</ele>
        <time>2021-08-21T04:33:53Z</time>
      </trkpt>
      <trkpt lat="42.6410930" lon="-5.5125100">
        <ele>956.0</ele>
        <time>2021-08-21T04:33:54Z</time>
      </trkpt>
      <trkpt lat="42.6411060" lon="-5.5124900">
        <ele>956.0</ele>
        <time>2021-08-21T04:33:55Z</time>
      </trkpt>
      <trkpt lat="42.6411170" lon="-5.5124700">
        <ele>956.0</ele>
        <time>2021-08-21T04:33:56Z</time>
      </trkpt>
      <trkpt lat="42.6411250" lon="-5.5124460">
        <ele>956.0</ele>
        <time>2021-08-21T04:33:57Z</time>
      </trkpt>
      <trkpt lat="42.6411390" lon="-5.5124070">
        <ele>956.0</ele>
        <time>2021-08-21T04:33:58Z</time>
      </trkpt>
      <trkpt lat="42.6411430" lon="-5.5123930">
        <ele>956.0</ele>
        <time>2021-08-21T04:33:59Z</time>
      </trkpt>
      <trkpt lat="42.6411540" lon="-5.5123530">
        <ele>956.0</ele>
        <time>2021-08-21T04:34:00Z</time>
      </trkpt>
      <trkpt lat="42.6411560" lon="-5.5123390">
        <ele>957.0</ele>
        <time>2021-08-21T04:34:01Z</time>
      </trkpt>
      <trkpt lat="42.6411590" lon="-5.5123090">
        <ele>957.0</ele>
        <time>2021-08-21T04:34:02Z</time>
      </trkpt>
      <trkpt lat="42.6411670" lon="-5.5122770">
        <ele>957.0</ele>
        <time>2021-08-21T04:34:03Z</time>
      </trkpt>
      <trkpt lat="42.6411720" lon="-5.5122290">
        <ele>957.0</ele>
        <time>2021-08-21T04:34:04Z</time>
      </trkpt>
      <trkpt lat="42.6411740" lon="-5.5122130">
        <ele>957.0</ele>
        <time>2021-08-21T04:34:05Z</time>
      </trkpt>
      <trkpt lat="42.6411790" lon="-5.5121810">
        <ele>957.0</ele>
        <time>2021-08-21T04:34:06Z</time>
      </trkpt>
      <trkpt lat="42.6411870" lon="-5.5121500">
        <ele>957.0</ele>
        <time>2021-08-21T04:34:07Z</time>
      </trkpt>
      <trkpt lat="42.6411970" lon="-5.5121230">
        <ele>957.0</ele>
        <time>2021-08-21T04:34:08Z</time>
      </trkpt>
      <trkpt lat="42.6412120" lon="-5.5120990">
        <ele>957.0</ele>
        <time>2021-08-21T04:34:09Z</time>
      </trkpt>
      <trkpt lat="42.6412280" lon="-5.5120750">
        <ele>957.0</ele>
        <time>2021-08-21T04:34:10Z</time>
      </trkpt>
      <trkpt lat="42.6412430" lon="-5.5120520">
        <ele>957.0</ele>
        <time>2021-08-21T04:34:11Z</time>
      </trkpt>
      <trkpt lat="42.6412580" lon="-5.5120300">
        <ele>957.0</ele>
        <time>2021-08-21T04:34:12Z</time>
      </trkpt>
      <trkpt lat="42.6412720" lon="-5.5120070">
        <ele>957.0</ele>
        <time>2021-08-21T04:34:13Z</time>
      </trkpt>
      <trkpt lat="42.6412870" lon="-5.5119830">
        <ele>957.0</ele>
        <time>2021-08-21T04:34:14Z</time>
      </trkpt>
      <trkpt lat="42.6413020" lon="-5.5119580">
        <ele>958.0</ele>
        <time>2021-08-21T04:34:15Z</time>
      </trkpt>
      <trkpt lat="42.6413170" lon="-5.5119330">
        <ele>958.0</ele>
        <time>2021-08-21T04:34:16Z</time>
      </trkpt>
      <trkpt lat="42.6413320" lon="-5.5119060">
        <ele>958.0</ele>
        <time>2021-08-21T04:34:17Z</time>
      </trkpt>
      <trkpt lat="42.6413470" lon="-5.5118780">
        <ele>958.0</ele>
        <time>2021-08-21T04:34:18Z</time>
      </trkpt>
      <trkpt lat="42.6413660" lon="-5.5118330">
        <ele>958.0</ele>
        <time>2021-08-21T04:34:19Z</time>
      </trkpt>
      <trkpt lat="42.6413720" lon="-5.5118170">
        <ele>958.0</ele>
        <time>2021-08-21T04:34:20Z</time>
      </trkpt>
      <trkpt lat="42.6413790" lon="-5.5117850">
        <ele>958.0</ele>
        <time>2021-08-21T04:34:21Z</time>
      </trkpt>
      <trkpt lat="42.6413880" lon="-5.5117380">
        <ele>958.0</ele>
        <time>2021-08-21T04:34:22Z</time>
      </trkpt>
      <trkpt lat="42.6413900" lon="-5.5117220">
        <ele>958.0</ele>
        <time>2021-08-21T04:34:23Z</time>
      </trkpt>
      <trkpt lat="42.6413970" lon="-5.5116970">
        <ele>958.0</ele>
        <time>2021-08-21T04:34:24Z</time>
      </trkpt>
      <trkpt lat="42.6414120" lon="-5.5116640">
        <ele>958.0</ele>
        <time>2021-08-21T04:34:25Z</time>
      </trkpt>
      <trkpt lat="42.6414190" lon="-5.5116530">
        <ele>959.0</ele>
        <time>2021-08-21T04:34:26Z</time>
      </trkpt>
      <trkpt lat="42.6414360" lon="-5.5116340">
        <ele>959.0</ele>
        <time>2021-08-21T04:34:27Z</time>
      </trkpt>
      <trkpt lat="42.6414620" lon="-5.5115990">
        <ele>959.0</ele>
        <time>2021-08-21T04:34:28Z</time>
      </trkpt>
      <trkpt lat="42.6414690" lon="-5.5115860">
        <ele>959.0</ele>
        <time>2021-08-21T04:34:29Z</time>
      </trkpt>
      <trkpt lat="42.6414850" lon="-5.5115590">
        <ele>959.0</ele>
        <time>2021-08-21T04:34:30Z</time>
      </trkpt>
      <trkpt lat="42.6414980" lon="-5.5115330">
        <ele>959.0</ele>
        <time>2021-08-21T04:34:31Z</time>
      </trkpt>
      <trkpt lat="42.6415230" lon="-5.5114980">
        <ele>959.0</ele>
        <time>2021-08-21T04:34:32Z</time>
      </trkpt>
      <trkpt lat="42.6415310" lon="-5.5114860">
        <ele>959.0</ele>
        <time>2021-08-21T04:34:33Z</time>
      </trkpt>
      <trkpt lat="42.6415490" lon="-5.5114650">
        <ele>959.0</ele>
        <time>2021-08-21T04:34:34Z</time>
      </trkpt>
      <trkpt lat="42.6415670" lon="-5.5114440">
        <ele>959.0</ele>
        <time>2021-08-21T04:34:35Z</time>
      </trkpt>
      <trkpt lat="42.6415850" lon="-5.5114220">
        <ele>959.0</ele>
        <time>2021-08-21T04:34:36Z</time>
      </trkpt>
      <trkpt lat="42.6416020" lon="-5.5114040">
        <ele>959.0</ele>
        <time>2021-08-21T04:34:37Z</time>
      </trkpt>
      <trkpt lat="42.6416230" lon="-5.5113850">
        <ele>959.0</ele>
        <time>2021-08-21T04:34:38Z</time>
      </trkpt>
      <trkpt lat="42.6416420" lon="-5.5113690">
        <ele>959.0</ele>
        <time>2021-08-21T04:34:39Z</time>
      </trkpt>
      <trkpt lat="42.6416710" lon="-5.5113420">
        <ele>959.0</ele>
        <time>2021-08-21T04:34:40Z</time>
      </trkpt>
      <trkpt lat="42.6416810" lon="-5.5113310">
        <ele>959.0</ele>
        <time>2021-08-21T04:34:41Z</time>
      </trkpt>
      <trkpt lat="42.6417000" lon="-5.5113130">
        <ele>959.0</ele>
        <time>2021-08-21T04:34:42Z</time>
      </trkpt>
      <trkpt lat="42.6417190" lon="-5.5112950">
        <ele>960.0</ele>
        <time>2021-08-21T04:34:43Z</time>
      </trkpt>
      <trkpt lat="42.6417360" lon="-5.5112820">
        <ele>960.0</ele>
        <time>2021-08-21T04:34:44Z</time>
      </trkpt>
      <trkpt lat="42.6417610" lon="-5.5112550">
        <ele>960.0</ele>
        <time>2021-08-21T04:34:45Z</time>
      </trkpt>
      <trkpt lat="42.6417690" lon="-5.5112450">
        <ele>960.0</ele>
        <time>2021-08-21T04:34:46Z</time>
      </trkpt>
      <trkpt lat="42.6417970" lon="-5.5112160">
        <ele>960.0</ele>
        <time>2021-08-21T04:34:47Z</time>
      </trkpt>
      <trkpt lat="42.6418050" lon="-5.5112060">
        <ele>960.0</ele>
        <time>2021-08-21T04:34:48Z</time>
      </trkpt>
      <trkpt lat="42.6418220" lon="-5.5111860">
        <ele>960.0</ele>
        <time>2021-08-21T04:34:49Z</time>
      </trkpt>
      <trkpt lat="42.6418400" lon="-5.5111630">
        <ele>960.0</ele>
        <time>2021-08-21T04:34:50Z</time>
      </trkpt>
      <trkpt lat="42.6418560" lon="-5.5111400">
        <ele>960.0</ele>
        <time>2021-08-21T04:34:51Z</time>
      </trkpt>
      <trkpt lat="42.6418750" lon="-5.5111150">
        <ele>961.0</ele>
        <time>2021-08-21T04:34:52Z</time>
      </trkpt>
      <trkpt lat="42.6418930" lon="-5.5110950">
        <ele>961.0</ele>
        <time>2021-08-21T04:34:53Z</time>
      </trkpt>
      <trkpt lat="42.6419130" lon="-5.5110760">
        <ele>961.0</ele>
        <time>2021-08-21T04:34:54Z</time>
      </trkpt>
      <trkpt lat="42.6419310" lon="-5.5110580">
        <ele>961.0</ele>
        <time>2021-08-21T04:34:55Z</time>
      </trkpt>
      <trkpt lat="42.6419500" lon="-5.5110390">
        <ele>961.0</ele>
        <time>2021-08-21T04:34:56Z</time>
      </trkpt>
      <trkpt lat="42.6419770" lon="-5.5110110">
        <ele>961.0</ele>
        <time>2021-08-21T04:34:57Z</time>
      </trkpt>
      <trkpt lat="42.6419860" lon="-5.5110010">
        <ele>961.0</ele>
        <time>2021-08-21T04:34:58Z</time>
      </trkpt>
      <trkpt lat="42.6420050" lon="-5.5109810">
        <ele>961.0</ele>
        <time>2021-08-21T04:34:59Z</time>
      </trkpt>
      <trkpt lat="42.6420220" lon="-5.5109590">
        <ele>961.0</ele>
        <time>2021-08-21T04:35:00Z</time>
      </trkpt>
      <trkpt lat="42.6420370" lon="-5.5109370">
        <ele>962.0</ele>
        <time>2021-08-21T04:35:01Z</time>
      </trkpt>
      <trkpt lat="42.6420520" lon="-5.5109130">
        <ele>962.0</ele>
        <time>2021-08-21T04:35:02Z</time>
      </trkpt>
      <trkpt lat="42.6420740" lon="-5.5108780">
        <ele>962.0</ele>
        <time>2021-08-21T04:35:03Z</time>
      </trkpt>
      <trkpt lat="42.6420810" lon="-5.5108660">
        <ele>962.0</ele>
        <time>2021-08-21T04:35:04Z</time>
      </trkpt>
      <trkpt lat="42.6420940" lon="-5.5108380">
        <ele>962.0</ele>
        <time>2021-08-21T04:35:05Z</time>
      </trkpt>
      <trkpt lat="42.6421020" lon="-5.5108060">
        <ele>962.0</ele>
        <time>2021-08-21T04:35:06Z</time>
      </trkpt>
      <trkpt lat="42.6421060" lon="-5.5107730">
        <ele>962.0</ele>
        <time>2021-08-21T04:35:07Z</time>
      </trkpt>
      <trkpt lat="42.6421060" lon="-5.5107250">
        <ele>962.0</ele>
        <time>2021-08-21T04:35:08Z</time>
      </trkpt>
      <trkpt lat="42.6421060" lon="-5.5107080">
        <ele>962.0</ele>
        <time>2021-08-21T04:35:09Z</time>
      </trkpt>
      <trkpt lat="42.6421010" lon="-5.5106760">
        <ele>962.0</ele>
        <time>2021-08-21T04:35:10Z</time>
      </trkpt>
      <trkpt lat="42.6420910" lon="-5.5106450">
        <ele>962.0</ele>
        <time>2021-08-21T04:35:11Z</time>
      </trkpt>
      <trkpt lat="42.6420780" lon="-5.5106130">
        <ele>962.0</ele>
        <time>2021-08-21T04:35:12Z</time>
      </trkpt>
      <trkpt lat="42.6420680" lon="-5.5105790">
        <ele>962.0</ele>
        <time>2021-08-21T04:35:13Z</time>
      </trkpt>
      <trkpt lat="42.6420590" lon="-5.5105450">
        <ele>962.0</ele>
        <time>2021-08-21T04:35:14Z</time>
      </trkpt>
      <trkpt lat="42.6420520" lon="-5.5105090">
        <ele>962.0</ele>
        <time>2021-08-21T04:35:15Z</time>
      </trkpt>
      <trkpt lat="42.6420430" lon="-5.5104570">
        <ele>962.0</ele>
        <time>2021-08-21T04:35:16Z</time>
      </trkpt>
      <trkpt lat="42.6420400" lon="-5.5104400">
        <ele>962.0</ele>
        <time>2021-08-21T04:35:17Z</time>
      </trkpt>
      <trkpt lat="42.6420350" lon="-5.5104060">
        <ele>962.0</ele>
        <time>2021-08-21T04:35:18Z</time>
      </trkpt>
      <trkpt lat="42.6420280" lon="-5.5103560">
        <ele>962.0</ele>
        <time>2021-08-21T04:35:19Z</time>
      </trkpt>
      <trkpt lat="42.6420250" lon="-5.5103400">
        <ele>962.0</ele>
        <time>2021-08-21T04:35:20Z</time>
      </trkpt>
      <trkpt lat="42.6420220" lon="-5.5102930">
        <ele>962.0</ele>
        <time>2021-08-21T04:35:21Z</time>
      </trkpt>
      <trkpt lat="42.6420210" lon="-5.5102790">
        <ele>962.0</ele>
        <time>2021-08-21T04:35:22Z</time>
      </trkpt>
      <trkpt lat="42.6420190" lon="-5.5102490">
        <ele>963.0</ele>
        <time>2021-08-21T04:35:23Z</time>
      </trkpt>
      <trkpt lat="42.6420170" lon="-5.5102210">
        <ele>963.0</ele>
        <time>2021-08-21T04:35:24Z</time>
      </trkpt>
      <trkpt lat="42.6420170" lon="-5.5101900">
        <ele>963.0</ele>
        <time>2021-08-21T04:35:25Z</time>
      </trkpt>
      <trkpt lat="42.6420170" lon="-5.5101600">
        <ele>963.0</ele>
        <time>2021-08-21T04:35:26Z</time>
      </trkpt>
      <trkpt lat="42.6420200" lon="-5.5101280">
        <ele>963.0</ele>
        <time>2021-08-21T04:35:27Z</time>
      </trkpt>
      <trkpt lat="42.6420270" lon="-5.5100830">
        <ele>963.0</ele>
        <time>2021-08-21T04:35:28Z</time>
      </trkpt>
      <trkpt lat="42.6420300" lon="-5.5100690">
        <ele>963.0</ele>
        <time>2021-08-21T04:35:29Z</time>
      </trkpt>
      <trkpt lat="42.6420380" lon="-5.5100420">
        <ele>963.0</ele>
        <time>2021-08-21T04:35:30Z</time>
      </trkpt>
      <trkpt lat="42.6420460" lon="-5.5100150">
        <ele>963.0</ele>
        <time>2021-08-21T04:35:31Z</time>
      </trkpt>
      <trkpt lat="42.6420560" lon="-5.5099870">
        <ele>964.0</ele>
        <time>2021-08-21T04:35:32Z</time>
      </trkpt>
      <trkpt lat="42.6420670" lon="-5.5099610">
        <ele>964.0</ele>
        <time>2021-08-21T04:35:33Z</time>
      </trkpt>
      <trkpt lat="42.6420820" lon="-5.5099340">
        <ele>963.0</ele>
        <time>2021-08-21T04:35:34Z</time>
      </trkpt>
      <trkpt lat="42.6420960" lon="-5.5099100">
        <ele>963.0</ele>
        <time>2021-08-21T04:35:35Z</time>
      </trkpt>
      <trkpt lat="42.6421130" lon="-5.5098910">
        <ele>963.0</ele>
        <time>2021-08-21T04:35:36Z</time>
      </trkpt>
      <trkpt lat="42.6421310" lon="-5.5098750">
        <ele>964.0</ele>
        <time>2021-08-21T04:35:37Z</time>
      </trkpt>
      <trkpt lat="42.6421490" lon="-5.5098540">
        <ele>964.0</ele>
        <time>2021-08-21T04:35:38Z</time>
      </trkpt>
      <trkpt lat="42.6421660" lon="-5.5098320">
        <ele>964.0</ele>
        <time>2021-08-21T04:35:39Z</time>
      </trkpt>
      <trkpt lat="42.6421850" lon="-5.5098070">
        <ele>964.0</ele>
        <time>2021-08-21T04:35:40Z</time>
      </trkpt>
      <trkpt lat="42.6422000" lon="-5.5097840">
        <ele>964.0</ele>
        <time>2021-08-21T04:35:41Z</time>
      </trkpt>
      <trkpt lat="42.6422130" lon="-5.5097550">
        <ele>964.0</ele>
        <time>2021-08-21T04:35:42Z</time>
      </trkpt>
      <trkpt lat="42.6422260" lon="-5.5097250">
        <ele>964.0</ele>
        <time>2021-08-21T04:35:43Z</time>
      </trkpt>
      <trkpt lat="42.6422390" lon="-5.5097040">
        <ele>964.0</ele>
        <time>2021-08-21T04:35:44Z</time>
      </trkpt>
      <trkpt lat="42.6422390" lon="-5.5097040">
        <ele>965.0</ele>
        <time>2021-08-21T04:35:45Z</time>
      </trkpt>
      <trkpt lat="42.6422600" lon="-5.5097170">
        <ele>965.0</ele>
        <time>2021-08-21T04:35:46Z</time>
      </trkpt>
      <trkpt lat="42.6422780" lon="-5.5097350">
        <ele>965.0</ele>
        <time>2021-08-21T04:35:47Z</time>
      </trkpt>
      <trkpt lat="42.6422980" lon="-5.5097380">
        <ele>965.0</ele>
        <time>2021-08-21T04:35:48Z</time>
      </trkpt>
      <trkpt lat="42.6423180" lon="-5.5097200">
        <ele>965.0</ele>
        <time>2021-08-21T04:35:49Z</time>
      </trkpt>
      <trkpt lat="42.6423380" lon="-5.5096990">
        <ele>965.0</ele>
        <time>2021-08-21T04:35:50Z</time>
      </trkpt>
      <trkpt lat="42.6423600" lon="-5.5096800">
        <ele>965.0</ele>
        <time>2021-08-21T04:35:51Z</time>
      </trkpt>
      <trkpt lat="42.6423800" lon="-5.5096600">
        <ele>965.0</ele>
        <time>2021-08-21T04:35:52Z</time>
      </trkpt>
      <trkpt lat="42.6424230" lon="-5.5096220">
        <ele>965.0</ele>
        <time>2021-08-21T04:35:53Z</time>
      </trkpt>
      <trkpt lat="42.6424470" lon="-5.5096030">
        <ele>965.0</ele>
        <time>2021-08-21T04:35:55Z</time>
      </trkpt>
      <trkpt lat="42.6424690" lon="-5.5095850">
        <ele>965.0</ele>
        <time>2021-08-21T04:35:56Z</time>
      </trkpt>
      <trkpt lat="42.6424920" lon="-5.5095710">
        <ele>965.0</ele>
        <time>2021-08-21T04:35:57Z</time>
      </trkpt>
      <trkpt lat="42.6425160" lon="-5.5095570">
        <ele>965.0</ele>
        <time>2021-08-21T04:35:58Z</time>
      </trkpt>
      <trkpt lat="42.6425510" lon="-5.5095400">
        <ele>965.0</ele>
        <time>2021-08-21T04:35:59Z</time>
      </trkpt>
      <trkpt lat="42.6425620" lon="-5.5095350">
        <ele>965.0</ele>
        <time>2021-08-21T04:36:00Z</time>
      </trkpt>
      <trkpt lat="42.6425840" lon="-5.5095320">
        <ele>965.0</ele>
        <time>2021-08-21T04:36:01Z</time>
      </trkpt>
      <trkpt lat="42.6426060" lon="-5.5095340">
        <ele>965.0</ele>
        <time>2021-08-21T04:36:02Z</time>
      </trkpt>
      <trkpt lat="42.6426250" lon="-5.5095430">
        <ele>965.0</ele>
        <time>2021-08-21T04:36:03Z</time>
      </trkpt>
      <trkpt lat="42.6426480" lon="-5.5095480">
        <ele>965.0</ele>
        <time>2021-08-21T04:36:04Z</time>
      </trkpt>
      <trkpt lat="42.6426730" lon="-5.5095440">
        <ele>966.0</ele>
        <time>2021-08-21T04:36:05Z</time>
      </trkpt>
      <trkpt lat="42.6427000" lon="-5.5095330">
        <ele>966.0</ele>
        <time>2021-08-21T04:36:06Z</time>
      </trkpt>
      <trkpt lat="42.6427260" lon="-5.5095220">
        <ele>966.0</ele>
        <time>2021-08-21T04:36:07Z</time>
      </trkpt>
      <trkpt lat="42.6427500" lon="-5.5095140">
        <ele>966.0</ele>
        <time>2021-08-21T04:36:08Z</time>
      </trkpt>
      <trkpt lat="42.6427770" lon="-5.5095030">
        <ele>966.0</ele>
        <time>2021-08-21T04:36:09Z</time>
      </trkpt>
      <trkpt lat="42.6428000" lon="-5.5094870">
        <ele>966.0</ele>
        <time>2021-08-21T04:36:10Z</time>
      </trkpt>
      <trkpt lat="42.6428220" lon="-5.5094670">
        <ele>966.0</ele>
        <time>2021-08-21T04:36:11Z</time>
      </trkpt>
      <trkpt lat="42.6428430" lon="-5.5094430">
        <ele>966.0</ele>
        <time>2021-08-21T04:36:12Z</time>
      </trkpt>
      <trkpt lat="42.6428700" lon="-5.5094070">
        <ele>966.0</ele>
        <time>2021-08-21T04:36:13Z</time>
      </trkpt>
      <trkpt lat="42.6428790" lon="-5.5093950">
        <ele>966.0</ele>
        <time>2021-08-21T04:36:14Z</time>
      </trkpt>
      <trkpt lat="42.6428990" lon="-5.5093750">
        <ele>966.0</ele>
        <time>2021-08-21T04:36:15Z</time>
      </trkpt>
      <trkpt lat="42.6429310" lon="-5.5093450">
        <ele>966.0</ele>
        <time>2021-08-21T04:36:16Z</time>
      </trkpt>
      <trkpt lat="42.6429410" lon="-5.5093350">
        <ele>967.0</ele>
        <time>2021-08-21T04:36:17Z</time>
      </trkpt>
      <trkpt lat="42.6429610" lon="-5.5093130">
        <ele>967.0</ele>
        <time>2021-08-21T04:36:18Z</time>
      </trkpt>
      <trkpt lat="42.6429920" lon="-5.5092810">
        <ele>967.0</ele>
        <time>2021-08-21T04:36:19Z</time>
      </trkpt>
      <trkpt lat="42.6430020" lon="-5.5092700">
        <ele>967.0</ele>
        <time>2021-08-21T04:36:20Z</time>
      </trkpt>
      <trkpt lat="42.6430220" lon="-5.5092480">
        <ele>967.0</ele>
        <time>2021-08-21T04:36:21Z</time>
      </trkpt>
      <trkpt lat="42.6430450" lon="-5.5092240">
        <ele>967.0</ele>
        <time>2021-08-21T04:36:22Z</time>
      </trkpt>
      <trkpt lat="42.6430680" lon="-5.5092030">
        <ele>967.0</ele>
        <time>2021-08-21T04:36:23Z</time>
      </trkpt>
      <trkpt lat="42.6430900" lon="-5.5091820">
        <ele>967.0</ele>
        <time>2021-08-21T04:36:24Z</time>
      </trkpt>
      <trkpt lat="42.6431120" lon="-5.5091610">
        <ele>967.0</ele>
        <time>2021-08-21T04:36:25Z</time>
      </trkpt>
      <trkpt lat="42.6431360" lon="-5.5091430">
        <ele>967.0</ele>
        <time>2021-08-21T04:36:26Z</time>
      </trkpt>
      <trkpt lat="42.6431560" lon="-5.5091240">
        <ele>967.0</ele>
        <time>2021-08-21T04:36:27Z</time>
      </trkpt>
      <trkpt lat="42.6431760" lon="-5.5091070">
        <ele>967.0</ele>
        <time>2021-08-21T04:36:28Z</time>
      </trkpt>
      <trkpt lat="42.6431980" lon="-5.5090930">
        <ele>967.0</ele>
        <time>2021-08-21T04:36:29Z</time>
      </trkpt>
      <trkpt lat="42.6432190" lon="-5.5090780">
        <ele>967.0</ele>
        <time>2021-08-21T04:36:30Z</time>
      </trkpt>
      <trkpt lat="42.6432430" lon="-5.5090620">
        <ele>967.0</ele>
        <time>2021-08-21T04:36:31Z</time>
      </trkpt>
      <trkpt lat="42.6432800" lon="-5.5090360">
        <ele>967.0</ele>
        <time>2021-08-21T04:36:32Z</time>
      </trkpt>
      <trkpt lat="42.6432900" lon="-5.5090270">
        <ele>966.0</ele>
        <time>2021-08-21T04:36:33Z</time>
      </trkpt>
      <trkpt lat="42.6433130" lon="-5.5090090">
        <ele>966.0</ele>
        <time>2021-08-21T04:36:34Z</time>
      </trkpt>
      <trkpt lat="42.6433420" lon="-5.5089800">
        <ele>966.0</ele>
        <time>2021-08-21T04:36:35Z</time>
      </trkpt>
      <trkpt lat="42.6433520" lon="-5.5089690">
        <ele>966.0</ele>
        <time>2021-08-21T04:36:36Z</time>
      </trkpt>
      <trkpt lat="42.6433730" lon="-5.5089460">
        <ele>966.0</ele>
        <time>2021-08-21T04:36:37Z</time>
      </trkpt>
      <trkpt lat="42.6433900" lon="-5.5089220">
        <ele>966.0</ele>
        <time>2021-08-21T04:36:38Z</time>
      </trkpt>
      <trkpt lat="42.6434210" lon="-5.5088900">
        <ele>966.0</ele>
        <time>2021-08-21T04:36:39Z</time>
      </trkpt>
      <trkpt lat="42.6434310" lon="-5.5088800">
        <ele>967.0</ele>
        <time>2021-08-21T04:36:40Z</time>
      </trkpt>
      <trkpt lat="42.6434530" lon="-5.5088650">
        <ele>967.0</ele>
        <time>2021-08-21T04:36:41Z</time>
      </trkpt>
      <trkpt lat="42.6434740" lon="-5.5088570">
        <ele>967.0</ele>
        <time>2021-08-21T04:36:42Z</time>
      </trkpt>
      <trkpt lat="42.6434990" lon="-5.5088550">
        <ele>967.0</ele>
        <time>2021-08-21T04:36:43Z</time>
      </trkpt>
      <trkpt lat="42.6435220" lon="-5.5088580">
        <ele>967.0</ele>
        <time>2021-08-21T04:36:44Z</time>
      </trkpt>
      <trkpt lat="42.6435440" lon="-5.5088660">
        <ele>967.0</ele>
        <time>2021-08-21T04:36:45Z</time>
      </trkpt>
      <trkpt lat="42.6435650" lon="-5.5088750">
        <ele>967.0</ele>
        <time>2021-08-21T04:36:46Z</time>
      </trkpt>
      <trkpt lat="42.6435990" lon="-5.5088720">
        <ele>967.0</ele>
        <time>2021-08-21T04:36:47Z</time>
      </trkpt>
      <trkpt lat="42.6436110" lon="-5.5088680">
        <ele>967.0</ele>
        <time>2021-08-21T04:36:48Z</time>
      </trkpt>
      <trkpt lat="42.6436350" lon="-5.5088620">
        <ele>967.0</ele>
        <time>2021-08-21T04:36:49Z</time>
      </trkpt>
      <trkpt lat="42.6436580" lon="-5.5088520">
        <ele>967.0</ele>
        <time>2021-08-21T04:36:50Z</time>
      </trkpt>
      <trkpt lat="42.6436930" lon="-5.5088360">
        <ele>967.0</ele>
        <time>2021-08-21T04:36:51Z</time>
      </trkpt>
      <trkpt lat="42.6437050" lon="-5.5088300">
        <ele>968.0</ele>
        <time>2021-08-21T04:36:52Z</time>
      </trkpt>
      <trkpt lat="42.6437270" lon="-5.5088180">
        <ele>968.0</ele>
        <time>2021-08-21T04:36:53Z</time>
      </trkpt>
      <trkpt lat="42.6437500" lon="-5.5088030">
        <ele>968.0</ele>
        <time>2021-08-21T04:36:54Z</time>
      </trkpt>
      <trkpt lat="42.6437720" lon="-5.5087870">
        <ele>968.0</ele>
        <time>2021-08-21T04:36:55Z</time>
      </trkpt>
      <trkpt lat="42.6437970" lon="-5.5087740">
        <ele>968.0</ele>
        <time>2021-08-21T04:36:56Z</time>
      </trkpt>
      <trkpt lat="42.6438210" lon="-5.5087630">
        <ele>968.0</ele>
        <time>2021-08-21T04:36:57Z</time>
      </trkpt>
      <trkpt lat="42.6438430" lon="-5.5087520">
        <ele>968.0</ele>
        <time>2021-08-21T04:36:58Z</time>
      </trkpt>
      <trkpt lat="42.6438630" lon="-5.5087350">
        <ele>968.0</ele>
        <time>2021-08-21T04:36:59Z</time>
      </trkpt>
      <trkpt lat="42.6438820" lon="-5.5087160">
        <ele>968.0</ele>
        <time>2021-08-21T04:37:00Z</time>
      </trkpt>
      <trkpt lat="42.6439020" lon="-5.5086920">
        <ele>968.0</ele>
        <time>2021-08-21T04:37:01Z</time>
      </trkpt>
      <trkpt lat="42.6439220" lon="-5.5086690">
        <ele>968.0</ele>
        <time>2021-08-21T04:37:02Z</time>
      </trkpt>
      <trkpt lat="42.6439440" lon="-5.5086470">
        <ele>968.0</ele>
        <time>2021-08-21T04:37:03Z</time>
      </trkpt>
      <trkpt lat="42.6439660" lon="-5.5086220">
        <ele>968.0</ele>
        <time>2021-08-21T04:37:04Z</time>
      </trkpt>
      <trkpt lat="42.6439850" lon="-5.5085970">
        <ele>968.0</ele>
        <time>2021-08-21T04:37:05Z</time>
      </trkpt>
      <trkpt lat="42.6440070" lon="-5.5085740">
        <ele>968.0</ele>
        <time>2021-08-21T04:37:06Z</time>
      </trkpt>
      <trkpt lat="42.6440290" lon="-5.5085540">
        <ele>968.0</ele>
        <time>2021-08-21T04:37:07Z</time>
      </trkpt>
      <trkpt lat="42.6440500" lon="-5.5085370">
        <ele>968.0</ele>
        <time>2021-08-21T04:37:08Z</time>
      </trkpt>
      <trkpt lat="42.6440730" lon="-5.5085240">
        <ele>968.0</ele>
        <time>2021-08-21T04:37:09Z</time>
      </trkpt>
      <trkpt lat="42.6441090" lon="-5.5085020">
        <ele>968.0</ele>
        <time>2021-08-21T04:37:10Z</time>
      </trkpt>
      <trkpt lat="42.6441210" lon="-5.5084940">
        <ele>968.0</ele>
        <time>2021-08-21T04:37:11Z</time>
      </trkpt>
      <trkpt lat="42.6441440" lon="-5.5084800">
        <ele>968.0</ele>
        <time>2021-08-21T04:37:12Z</time>
      </trkpt>
      <trkpt lat="42.6441670" lon="-5.5084640">
        <ele>968.0</ele>
        <time>2021-08-21T04:37:13Z</time>
      </trkpt>
      <trkpt lat="42.6441890" lon="-5.5084500">
        <ele>968.0</ele>
        <time>2021-08-21T04:37:14Z</time>
      </trkpt>
      <trkpt lat="42.6442130" lon="-5.5084370">
        <ele>968.0</ele>
        <time>2021-08-21T04:37:15Z</time>
      </trkpt>
      <trkpt lat="42.6442370" lon="-5.5084270">
        <ele>968.0</ele>
        <time>2021-08-21T04:37:16Z</time>
      </trkpt>
      <trkpt lat="42.6442590" lon="-5.5084150">
        <ele>968.0</ele>
        <time>2021-08-21T04:37:17Z</time>
      </trkpt>
      <trkpt lat="42.6442830" lon="-5.5084010">
        <ele>968.0</ele>
        <time>2021-08-21T04:37:18Z</time>
      </trkpt>
      <trkpt lat="42.6443050" lon="-5.5083890">
        <ele>968.0</ele>
        <time>2021-08-21T04:37:19Z</time>
      </trkpt>
      <trkpt lat="42.6443310" lon="-5.5083750">
        <ele>968.0</ele>
        <time>2021-08-21T04:37:20Z</time>
      </trkpt>
      <trkpt lat="42.6443540" lon="-5.5083610">
        <ele>968.0</ele>
        <time>2021-08-21T04:37:21Z</time>
      </trkpt>
      <trkpt lat="42.6443780" lon="-5.5083520">
        <ele>968.0</ele>
        <time>2021-08-21T04:37:22Z</time>
      </trkpt>
      <trkpt lat="42.6444040" lon="-5.5083430">
        <ele>968.0</ele>
        <time>2021-08-21T04:37:23Z</time>
      </trkpt>
      <trkpt lat="42.6444280" lon="-5.5083360">
        <ele>968.0</ele>
        <time>2021-08-21T04:37:24Z</time>
      </trkpt>
      <trkpt lat="42.6444530" lon="-5.5083310">
        <ele>968.0</ele>
        <time>2021-08-21T04:37:25Z</time>
      </trkpt>
      <trkpt lat="42.6444770" lon="-5.5083270">
        <ele>968.0</ele>
        <time>2021-08-21T04:37:26Z</time>
      </trkpt>
      <trkpt lat="42.6445000" lon="-5.5083200">
        <ele>968.0</ele>
        <time>2021-08-21T04:37:27Z</time>
      </trkpt>
      <trkpt lat="42.6445250" lon="-5.5083130">
        <ele>968.0</ele>
        <time>2021-08-21T04:37:28Z</time>
      </trkpt>
      <trkpt lat="42.6445480" lon="-5.5083010">
        <ele>968.0</ele>
        <time>2021-08-21T04:37:29Z</time>
      </trkpt>
      <trkpt lat="42.6445690" lon="-5.5082780">
        <ele>968.0</ele>
        <time>2021-08-21T04:37:30Z</time>
      </trkpt>
      <trkpt lat="42.6445850" lon="-5.5082600">
        <ele>968.0</ele>
        <time>2021-08-21T04:37:31Z</time>
      </trkpt>
      <trkpt lat="42.6446020" lon="-5.5082430">
        <ele>968.0</ele>
        <time>2021-08-21T04:37:32Z</time>
      </trkpt>
      <trkpt lat="42.6446170" lon="-5.5082200">
        <ele>969.0</ele>
        <time>2021-08-21T04:37:33Z</time>
      </trkpt>
      <trkpt lat="42.6446430" lon="-5.5081830">
        <ele>969.0</ele>
        <time>2021-08-21T04:37:34Z</time>
      </trkpt>
      <trkpt lat="42.6446500" lon="-5.5081690">
        <ele>969.0</ele>
        <time>2021-08-21T04:37:35Z</time>
      </trkpt>
      <trkpt lat="42.6446670" lon="-5.5081430">
        <ele>969.0</ele>
        <time>2021-08-21T04:37:36Z</time>
      </trkpt>
      <trkpt lat="42.6446850" lon="-5.5081160">
        <ele>969.0</ele>
        <time>2021-08-21T04:37:37Z</time>
      </trkpt>
      <trkpt lat="42.6447040" lon="-5.5080970">
        <ele>969.0</ele>
        <time>2021-08-21T04:37:38Z</time>
      </trkpt>
      <trkpt lat="42.6447230" lon="-5.5080790">
        <ele>969.0</ele>
        <time>2021-08-21T04:37:39Z</time>
      </trkpt>
      <trkpt lat="42.6447420" lon="-5.5080680">
        <ele>969.0</ele>
        <time>2021-08-21T04:37:40Z</time>
      </trkpt>
      <trkpt lat="42.6447610" lon="-5.5080500">
        <ele>969.0</ele>
        <time>2021-08-21T04:37:41Z</time>
      </trkpt>
      <trkpt lat="42.6447770" lon="-5.5080360">
        <ele>969.0</ele>
        <time>2021-08-21T04:37:42Z</time>
      </trkpt>
      <trkpt lat="42.6447940" lon="-5.5080220">
        <ele>969.0</ele>
        <time>2021-08-21T04:37:43Z</time>
      </trkpt>
      <trkpt lat="42.6448100" lon="-5.5080070">
        <ele>969.0</ele>
        <time>2021-08-21T04:37:44Z</time>
      </trkpt>
      <trkpt lat="42.6448290" lon="-5.5079890">
        <ele>969.0</ele>
        <time>2021-08-21T04:37:45Z</time>
      </trkpt>
      <trkpt lat="42.6448440" lon="-5.5079650">
        <ele>969.0</ele>
        <time>2021-08-21T04:37:46Z</time>
      </trkpt>
      <trkpt lat="42.6448610" lon="-5.5079430">
        <ele>969.0</ele>
        <time>2021-08-21T04:37:47Z</time>
      </trkpt>
      <trkpt lat="42.6448870" lon="-5.5079100">
        <ele>969.0</ele>
        <time>2021-08-21T04:37:48Z</time>
      </trkpt>
      <trkpt lat="42.6448950" lon="-5.5078990">
        <ele>969.0</ele>
        <time>2021-08-21T04:37:49Z</time>
      </trkpt>
      <trkpt lat="42.6449140" lon="-5.5078810">
        <ele>969.0</ele>
        <time>2021-08-21T04:37:50Z</time>
      </trkpt>
      <trkpt lat="42.6449320" lon="-5.5078680">
        <ele>969.0</ele>
        <time>2021-08-21T04:37:51Z</time>
      </trkpt>
      <trkpt lat="42.6449630" lon="-5.5078500">
        <ele>969.0</ele>
        <time>2021-08-21T04:37:52Z</time>
      </trkpt>
      <trkpt lat="42.6449730" lon="-5.5078440">
        <ele>970.0</ele>
        <time>2021-08-21T04:37:53Z</time>
      </trkpt>
      <trkpt lat="42.6449940" lon="-5.5078300">
        <ele>970.0</ele>
        <time>2021-08-21T04:37:54Z</time>
      </trkpt>
      <trkpt lat="42.6450160" lon="-5.5078180">
        <ele>970.0</ele>
        <time>2021-08-21T04:37:55Z</time>
      </trkpt>
      <trkpt lat="42.6450400" lon="-5.5078050">
        <ele>970.0</ele>
        <time>2021-08-21T04:37:56Z</time>
      </trkpt>
      <trkpt lat="42.6450640" lon="-5.5077900">
        <ele>970.0</ele>
        <time>2021-08-21T04:37:57Z</time>
      </trkpt>
      <trkpt lat="42.6450870" lon="-5.5077740">
        <ele>970.0</ele>
        <time>2021-08-21T04:37:58Z</time>
      </trkpt>
      <trkpt lat="42.6451090" lon="-5.5077570">
        <ele>970.0</ele>
        <time>2021-08-21T04:37:59Z</time>
      </trkpt>
      <trkpt lat="42.6451320" lon="-5.5077400">
        <ele>970.0</ele>
        <time>2021-08-21T04:38:00Z</time>
      </trkpt>
      <trkpt lat="42.6451680" lon="-5.5077210">
        <ele>970.0</ele>
        <time>2021-08-21T04:38:01Z</time>
      </trkpt>
      <trkpt lat="42.6451800" lon="-5.5077140">
        <ele>970.0</ele>
        <time>2021-08-21T04:38:02Z</time>
      </trkpt>
      <trkpt lat="42.6452150" lon="-5.5076990">
        <ele>970.0</ele>
        <time>2021-08-21T04:38:03Z</time>
      </trkpt>
      <trkpt lat="42.6452270" lon="-5.5076930">
        <ele>970.0</ele>
        <time>2021-08-21T04:38:04Z</time>
      </trkpt>
      <trkpt lat="42.6452510" lon="-5.5076780">
        <ele>970.0</ele>
        <time>2021-08-21T04:38:05Z</time>
      </trkpt>
      <trkpt lat="42.6452750" lon="-5.5076640">
        <ele>970.0</ele>
        <time>2021-08-21T04:38:06Z</time>
      </trkpt>
      <trkpt lat="42.6453020" lon="-5.5076490">
        <ele>970.0</ele>
        <time>2021-08-21T04:38:07Z</time>
      </trkpt>
      <trkpt lat="42.6453250" lon="-5.5076320">
        <ele>970.0</ele>
        <time>2021-08-21T04:38:08Z</time>
      </trkpt>
      <trkpt lat="42.6453510" lon="-5.5076170">
        <ele>970.0</ele>
        <time>2021-08-21T04:38:09Z</time>
      </trkpt>
      <trkpt lat="42.6453750" lon="-5.5076030">
        <ele>970.0</ele>
        <time>2021-08-21T04:38:10Z</time>
      </trkpt>
      <trkpt lat="42.6454000" lon="-5.5075900">
        <ele>970.0</ele>
        <time>2021-08-21T04:38:11Z</time>
      </trkpt>
      <trkpt lat="42.6454330" lon="-5.5075720">
        <ele>970.0</ele>
        <time>2021-08-21T04:38:12Z</time>
      </trkpt>
      <trkpt lat="42.6454430" lon="-5.5075660">
        <ele>970.0</ele>
        <time>2021-08-21T04:38:13Z</time>
      </trkpt>
      <trkpt lat="42.6454640" lon="-5.5075530">
        <ele>970.0</ele>
        <time>2021-08-21T04:38:14Z</time>
      </trkpt>
      <trkpt lat="42.6454860" lon="-5.5075380">
        <ele>970.0</ele>
        <time>2021-08-21T04:38:15Z</time>
      </trkpt>
      <trkpt lat="42.6455060" lon="-5.5075180">
        <ele>970.0</ele>
        <time>2021-08-21T04:38:16Z</time>
      </trkpt>
      <trkpt lat="42.6455250" lon="-5.5074950">
        <ele>970.0</ele>
        <time>2021-08-21T04:38:17Z</time>
      </trkpt>
      <trkpt lat="42.6455450" lon="-5.5074730">
        <ele>970.0</ele>
        <time>2021-08-21T04:38:18Z</time>
      </trkpt>
      <trkpt lat="42.6455620" lon="-5.5074490">
        <ele>970.0</ele>
        <time>2021-08-21T04:38:19Z</time>
      </trkpt>
      <trkpt lat="42.6455790" lon="-5.5074240">
        <ele>970.0</ele>
        <time>2021-08-21T04:38:20Z</time>
      </trkpt>
      <trkpt lat="42.6455970" lon="-5.5073980">
        <ele>970.0</ele>
        <time>2021-08-21T04:38:21Z</time>
      </trkpt>
      <trkpt lat="42.6456140" lon="-5.5073730">
        <ele>970.0</ele>
        <time>2021-08-21T04:38:22Z</time>
      </trkpt>
      <trkpt lat="42.6456290" lon="-5.5073490">
        <ele>970.0</ele>
        <time>2021-08-21T04:38:23Z</time>
      </trkpt>
      <trkpt lat="42.6456480" lon="-5.5073250">
        <ele>970.0</ele>
        <time>2021-08-21T04:38:24Z</time>
      </trkpt>
      <trkpt lat="42.6456640" lon="-5.5072990">
        <ele>970.0</ele>
        <time>2021-08-21T04:38:25Z</time>
      </trkpt>
      <trkpt lat="42.6456780" lon="-5.5072750">
        <ele>970.0</ele>
        <time>2021-08-21T04:38:26Z</time>
      </trkpt>
      <trkpt lat="42.6456930" lon="-5.5072520">
        <ele>971.0</ele>
        <time>2021-08-21T04:38:27Z</time>
      </trkpt>
      <trkpt lat="42.6457100" lon="-5.5072270">
        <ele>971.0</ele>
        <time>2021-08-21T04:38:28Z</time>
      </trkpt>
      <trkpt lat="42.6457260" lon="-5.5072030">
        <ele>971.0</ele>
        <time>2021-08-21T04:38:29Z</time>
      </trkpt>
      <trkpt lat="42.6457420" lon="-5.5071760">
        <ele>971.0</ele>
        <time>2021-08-21T04:38:30Z</time>
      </trkpt>
      <trkpt lat="42.6457560" lon="-5.5071480">
        <ele>971.0</ele>
        <time>2021-08-21T04:38:31Z</time>
      </trkpt>
      <trkpt lat="42.6457700" lon="-5.5071210">
        <ele>971.0</ele>
        <time>2021-08-21T04:38:32Z</time>
      </trkpt>
      <trkpt lat="42.6457840" lon="-5.5070950">
        <ele>971.0</ele>
        <time>2021-08-21T04:38:33Z</time>
      </trkpt>
      <trkpt lat="42.6457980" lon="-5.5070720">
        <ele>971.0</ele>
        <time>2021-08-21T04:38:34Z</time>
      </trkpt>
      <trkpt lat="42.6458090" lon="-5.5070470">
        <ele>971.0</ele>
        <time>2021-08-21T04:38:35Z</time>
      </trkpt>
      <trkpt lat="42.6458210" lon="-5.5070180">
        <ele>971.0</ele>
        <time>2021-08-21T04:38:36Z</time>
      </trkpt>
      <trkpt lat="42.6458410" lon="-5.5069750">
        <ele>971.0</ele>
        <time>2021-08-21T04:38:37Z</time>
      </trkpt>
      <trkpt lat="42.6458480" lon="-5.5069600">
        <ele>971.0</ele>
        <time>2021-08-21T04:38:38Z</time>
      </trkpt>
      <trkpt lat="42.6458580" lon="-5.5069290">
        <ele>971.0</ele>
        <time>2021-08-21T04:38:39Z</time>
      </trkpt>
      <trkpt lat="42.6458710" lon="-5.5068990">
        <ele>972.0</ele>
        <time>2021-08-21T04:38:40Z</time>
      </trkpt>
      <trkpt lat="42.6458960" lon="-5.5068630">
        <ele>972.0</ele>
        <time>2021-08-21T04:38:41Z</time>
      </trkpt>
      <trkpt lat="42.6459050" lon="-5.5068520">
        <ele>972.0</ele>
        <time>2021-08-21T04:38:42Z</time>
      </trkpt>
      <trkpt lat="42.6459240" lon="-5.5068310">
        <ele>972.0</ele>
        <time>2021-08-21T04:38:43Z</time>
      </trkpt>
      <trkpt lat="42.6459430" lon="-5.5068090">
        <ele>972.0</ele>
        <time>2021-08-21T04:38:44Z</time>
      </trkpt>
      <trkpt lat="42.6459730" lon="-5.5067780">
        <ele>972.0</ele>
        <time>2021-08-21T04:38:45Z</time>
      </trkpt>
      <trkpt lat="42.6459830" lon="-5.5067690">
        <ele>972.0</ele>
        <time>2021-08-21T04:38:46Z</time>
      </trkpt>
      <trkpt lat="42.6460030" lon="-5.5067510">
        <ele>972.0</ele>
        <time>2021-08-21T04:38:47Z</time>
      </trkpt>
      <trkpt lat="42.6460200" lon="-5.5067320">
        <ele>972.0</ele>
        <time>2021-08-21T04:38:48Z</time>
      </trkpt>
      <trkpt lat="42.6460410" lon="-5.5067100">
        <ele>973.0</ele>
        <time>2021-08-21T04:38:49Z</time>
      </trkpt>
      <trkpt lat="42.6460600" lon="-5.5066880">
        <ele>973.0</ele>
        <time>2021-08-21T04:38:50Z</time>
      </trkpt>
      <trkpt lat="42.6460770" lon="-5.5066680">
        <ele>973.0</ele>
        <time>2021-08-21T04:38:51Z</time>
      </trkpt>
      <trkpt lat="42.6460950" lon="-5.5066470">
        <ele>973.0</ele>
        <time>2021-08-21T04:38:52Z</time>
      </trkpt>
      <trkpt lat="42.6461240" lon="-5.5066180">
        <ele>973.0</ele>
        <time>2021-08-21T04:38:53Z</time>
      </trkpt>
      <trkpt lat="42.6461330" lon="-5.5066080">
        <ele>973.0</ele>
        <time>2021-08-21T04:38:54Z</time>
      </trkpt>
      <trkpt lat="42.6461500" lon="-5.5065910">
        <ele>974.0</ele>
        <time>2021-08-21T04:38:55Z</time>
      </trkpt>
      <trkpt lat="42.6461700" lon="-5.5065690">
        <ele>974.0</ele>
        <time>2021-08-21T04:38:56Z</time>
      </trkpt>
      <trkpt lat="42.6462100" lon="-5.5065290">
        <ele>974.0</ele>
        <time>2021-08-21T04:38:57Z</time>
      </trkpt>
      <trkpt lat="42.6462300" lon="-5.5065090">
        <ele>974.0</ele>
        <time>2021-08-21T04:38:58Z</time>
      </trkpt>
      <trkpt lat="42.6462300" lon="-5.5065090">
        <ele>974.0</ele>
        <time>2021-08-21T04:38:59Z</time>
      </trkpt>
      <trkpt lat="42.6462630" lon="-5.5064820">
        <ele>974.0</ele>
        <time>2021-08-21T04:39:00Z</time>
      </trkpt>
      <trkpt lat="42.6462730" lon="-5.5064720">
        <ele>974.0</ele>
        <time>2021-08-21T04:39:01Z</time>
      </trkpt>
      <trkpt lat="42.6462930" lon="-5.5064530">
        <ele>974.0</ele>
        <time>2021-08-21T04:39:02Z</time>
      </trkpt>
      <trkpt lat="42.6463120" lon="-5.5064370">
        <ele>974.0</ele>
        <time>2021-08-21T04:39:03Z</time>
      </trkpt>
      <trkpt lat="42.6463430" lon="-5.5064100">
        <ele>974.0</ele>
        <time>2021-08-21T04:39:04Z</time>
      </trkpt>
      <trkpt lat="42.6463530" lon="-5.5064010">
        <ele>974.0</ele>
        <time>2021-08-21T04:39:05Z</time>
      </trkpt>
      <trkpt lat="42.6463750" lon="-5.5063810">
        <ele>974.0</ele>
        <time>2021-08-21T04:39:06Z</time>
      </trkpt>
      <trkpt lat="42.6463960" lon="-5.5063620">
        <ele>974.0</ele>
        <time>2021-08-21T04:39:07Z</time>
      </trkpt>
      <trkpt lat="42.6464170" lon="-5.5063420">
        <ele>974.0</ele>
        <time>2021-08-21T04:39:08Z</time>
      </trkpt>
      <trkpt lat="42.6464380" lon="-5.5063250">
        <ele>974.0</ele>
        <time>2021-08-21T04:39:09Z</time>
      </trkpt>
      <trkpt lat="42.6464590" lon="-5.5063070">
        <ele>974.0</ele>
        <time>2021-08-21T04:39:10Z</time>
      </trkpt>
      <trkpt lat="42.6464810" lon="-5.5062900">
        <ele>974.0</ele>
        <time>2021-08-21T04:39:11Z</time>
      </trkpt>
      <trkpt lat="42.6465030" lon="-5.5062710">
        <ele>974.0</ele>
        <time>2021-08-21T04:39:12Z</time>
      </trkpt>
      <trkpt lat="42.6465250" lon="-5.5062530">
        <ele>974.0</ele>
        <time>2021-08-21T04:39:13Z</time>
      </trkpt>
      <trkpt lat="42.6465250" lon="-5.5062530">
        <ele>974.0</ele>
        <time>2021-08-21T04:39:14Z</time>
      </trkpt>
      <trkpt lat="42.6465700" lon="-5.5062100">
        <ele>974.0</ele>
        <time>2021-08-21T04:39:15Z</time>
      </trkpt>
      <trkpt lat="42.6465910" lon="-5.5061890">
        <ele>974.0</ele>
        <time>2021-08-21T04:39:16Z</time>
      </trkpt>
      <trkpt lat="42.6466140" lon="-5.5061670">
        <ele>974.0</ele>
        <time>2021-08-21T04:39:17Z</time>
      </trkpt>
      <trkpt lat="42.6466330" lon="-5.5061460">
        <ele>974.0</ele>
        <time>2021-08-21T04:39:18Z</time>
      </trkpt>
      <trkpt lat="42.6466530" lon="-5.5061230">
        <ele>974.0</ele>
        <time>2021-08-21T04:39:19Z</time>
      </trkpt>
      <trkpt lat="42.6466710" lon="-5.5060980">
        <ele>974.0</ele>
        <time>2021-08-21T04:39:20Z</time>
      </trkpt>
      <trkpt lat="42.6467110" lon="-5.5060460">
        <ele>974.0</ele>
        <time>2021-08-21T04:39:21Z</time>
      </trkpt>
      <trkpt lat="42.6467310" lon="-5.5060220">
        <ele>974.0</ele>
        <time>2021-08-21T04:39:22Z</time>
      </trkpt>
      <trkpt lat="42.6467640" lon="-5.5059870">
        <ele>974.0</ele>
        <time>2021-08-21T04:39:24Z</time>
      </trkpt>
      <trkpt lat="42.6467740" lon="-5.5059750">
        <ele>974.0</ele>
        <time>2021-08-21T04:39:25Z</time>
      </trkpt>
      <trkpt lat="42.6468040" lon="-5.5059400">
        <ele>974.0</ele>
        <time>2021-08-21T04:39:26Z</time>
      </trkpt>
      <trkpt lat="42.6468140" lon="-5.5059280">
        <ele>974.0</ele>
        <time>2021-08-21T04:39:27Z</time>
      </trkpt>
      <trkpt lat="42.6468340" lon="-5.5059050">
        <ele>974.0</ele>
        <time>2021-08-21T04:39:28Z</time>
      </trkpt>
      <trkpt lat="42.6468650" lon="-5.5058700">
        <ele>974.0</ele>
        <time>2021-08-21T04:39:29Z</time>
      </trkpt>
      <trkpt lat="42.6468750" lon="-5.5058590">
        <ele>974.0</ele>
        <time>2021-08-21T04:39:30Z</time>
      </trkpt>
      <trkpt lat="42.6468940" lon="-5.5058380">
        <ele>974.0</ele>
        <time>2021-08-21T04:39:31Z</time>
      </trkpt>
      <trkpt lat="42.6469230" lon="-5.5058070">
        <ele>974.0</ele>
        <time>2021-08-21T04:39:32Z</time>
      </trkpt>
      <trkpt lat="42.6469330" lon="-5.5057950">
        <ele>974.0</ele>
        <time>2021-08-21T04:39:33Z</time>
      </trkpt>
      <trkpt lat="42.6469540" lon="-5.5057750">
        <ele>974.0</ele>
        <time>2021-08-21T04:39:34Z</time>
      </trkpt>
      <trkpt lat="42.6469980" lon="-5.5057370">
        <ele>974.0</ele>
        <time>2021-08-21T04:39:35Z</time>
      </trkpt>
      <trkpt lat="42.6469980" lon="-5.5057370">
        <ele>974.0</ele>
        <time>2021-08-21T04:39:36Z</time>
      </trkpt>
      <trkpt lat="42.6470280" lon="-5.5057050">
        <ele>974.0</ele>
        <time>2021-08-21T04:39:37Z</time>
      </trkpt>
      <trkpt lat="42.6470370" lon="-5.5056930">
        <ele>974.0</ele>
        <time>2021-08-21T04:39:38Z</time>
      </trkpt>
      <trkpt lat="42.6470560" lon="-5.5056720">
        <ele>974.0</ele>
        <time>2021-08-21T04:39:39Z</time>
      </trkpt>
      <trkpt lat="42.6470780" lon="-5.5056510">
        <ele>974.0</ele>
        <time>2021-08-21T04:39:40Z</time>
      </trkpt>
      <trkpt lat="42.6470970" lon="-5.5056310">
        <ele>974.0</ele>
        <time>2021-08-21T04:39:41Z</time>
      </trkpt>
      <trkpt lat="42.6471280" lon="-5.5056000">
        <ele>974.0</ele>
        <time>2021-08-21T04:39:42Z</time>
      </trkpt>
      <trkpt lat="42.6471380" lon="-5.5055890">
        <ele>974.0</ele>
        <time>2021-08-21T04:39:43Z</time>
      </trkpt>
      <trkpt lat="42.6471590" lon="-5.5055680">
        <ele>974.0</ele>
        <time>2021-08-21T04:39:44Z</time>
      </trkpt>
      <trkpt lat="42.6471780" lon="-5.5055460">
        <ele>974.0</ele>
        <time>2021-08-21T04:39:45Z</time>
      </trkpt>
      <trkpt lat="42.6471970" lon="-5.5055240">
        <ele>974.0</ele>
        <time>2021-08-21T04:39:46Z</time>
      </trkpt>
      <trkpt lat="42.6472200" lon="-5.5055020">
        <ele>974.0</ele>
        <time>2021-08-21T04:39:47Z</time>
      </trkpt>
      <trkpt lat="42.6472410" lon="-5.5054820">
        <ele>974.0</ele>
        <time>2021-08-21T04:39:48Z</time>
      </trkpt>
      <trkpt lat="42.6472740" lon="-5.5054510">
        <ele>974.0</ele>
        <time>2021-08-21T04:39:49Z</time>
      </trkpt>
      <trkpt lat="42.6472840" lon="-5.5054400">
        <ele>974.0</ele>
        <time>2021-08-21T04:39:50Z</time>
      </trkpt>
      <trkpt lat="42.6473160" lon="-5.5054100">
        <ele>974.0</ele>
        <time>2021-08-21T04:39:51Z</time>
      </trkpt>
      <trkpt lat="42.6473260" lon="-5.5054000">
        <ele>974.0</ele>
        <time>2021-08-21T04:39:52Z</time>
      </trkpt>
      <trkpt lat="42.6473440" lon="-5.5053810">
        <ele>974.0</ele>
        <time>2021-08-21T04:39:53Z</time>
      </trkpt>
      <trkpt lat="42.6473640" lon="-5.5053610">
        <ele>974.0</ele>
        <time>2021-08-21T04:39:54Z</time>
      </trkpt>
      <trkpt lat="42.6473860" lon="-5.5053430">
        <ele>974.0</ele>
        <time>2021-08-21T04:39:55Z</time>
      </trkpt>
      <trkpt lat="42.6474070" lon="-5.5053250">
        <ele>974.0</ele>
        <time>2021-08-21T04:39:56Z</time>
      </trkpt>
      <trkpt lat="42.6474280" lon="-5.5053060">
        <ele>974.0</ele>
        <time>2021-08-21T04:39:57Z</time>
      </trkpt>
      <trkpt lat="42.6474500" lon="-5.5052890">
        <ele>974.0</ele>
        <time>2021-08-21T04:39:58Z</time>
      </trkpt>
      <trkpt lat="42.6474740" lon="-5.5052700">
        <ele>974.0</ele>
        <time>2021-08-21T04:39:59Z</time>
      </trkpt>
      <trkpt lat="42.6474940" lon="-5.5052520">
        <ele>974.0</ele>
        <time>2021-08-21T04:40:00Z</time>
      </trkpt>
      <trkpt lat="42.6475160" lon="-5.5052300">
        <ele>974.0</ele>
        <time>2021-08-21T04:40:01Z</time>
      </trkpt>
      <trkpt lat="42.6475360" lon="-5.5052090">
        <ele>975.0</ele>
        <time>2021-08-21T04:40:02Z</time>
      </trkpt>
      <trkpt lat="42.6475570" lon="-5.5051880">
        <ele>975.0</ele>
        <time>2021-08-21T04:40:03Z</time>
      </trkpt>
      <trkpt lat="42.6475760" lon="-5.5051650">
        <ele>975.0</ele>
        <time>2021-08-21T04:40:04Z</time>
      </trkpt>
      <trkpt lat="42.6475980" lon="-5.5051430">
        <ele>975.0</ele>
        <time>2021-08-21T04:40:05Z</time>
      </trkpt>
      <trkpt lat="42.6476180" lon="-5.5051190">
        <ele>975.0</ele>
        <time>2021-08-21T04:40:06Z</time>
      </trkpt>
      <trkpt lat="42.6476360" lon="-5.5050970">
        <ele>975.0</ele>
        <time>2021-08-21T04:40:07Z</time>
      </trkpt>
      <trkpt lat="42.6476560" lon="-5.5050730">
        <ele>975.0</ele>
        <time>2021-08-21T04:40:08Z</time>
      </trkpt>
      <trkpt lat="42.6476750" lon="-5.5050480">
        <ele>975.0</ele>
        <time>2021-08-21T04:40:09Z</time>
      </trkpt>
      <trkpt lat="42.6476900" lon="-5.5050210">
        <ele>975.0</ele>
        <time>2021-08-21T04:40:10Z</time>
      </trkpt>
      <trkpt lat="42.6477030" lon="-5.5049920">
        <ele>975.0</ele>
        <time>2021-08-21T04:40:11Z</time>
      </trkpt>
      <trkpt lat="42.6477180" lon="-5.5049650">
        <ele>975.0</ele>
        <time>2021-08-21T04:40:12Z</time>
      </trkpt>
      <trkpt lat="42.6477340" lon="-5.5049370">
        <ele>975.0</ele>
        <time>2021-08-21T04:40:13Z</time>
      </trkpt>
      <trkpt lat="42.6477480" lon="-5.5049080">
        <ele>976.0</ele>
        <time>2021-08-21T04:40:14Z</time>
      </trkpt>
      <trkpt lat="42.6477620" lon="-5.5048750">
        <ele>976.0</ele>
        <time>2021-08-21T04:40:15Z</time>
      </trkpt>
      <trkpt lat="42.6477740" lon="-5.5048450">
        <ele>976.0</ele>
        <time>2021-08-21T04:40:16Z</time>
      </trkpt>
      <trkpt lat="42.6477890" lon="-5.5048160">
        <ele>976.0</ele>
        <time>2021-08-21T04:40:17Z</time>
      </trkpt>
      <trkpt lat="42.6478040" lon="-5.5047880">
        <ele>976.0</ele>
        <time>2021-08-21T04:40:18Z</time>
      </trkpt>
      <trkpt lat="42.6478200" lon="-5.5047630">
        <ele>976.0</ele>
        <time>2021-08-21T04:40:19Z</time>
      </trkpt>
      <trkpt lat="42.6478400" lon="-5.5047400">
        <ele>976.0</ele>
        <time>2021-08-21T04:40:20Z</time>
      </trkpt>
      <trkpt lat="42.6478600" lon="-5.5047200">
        <ele>977.0</ele>
        <time>2021-08-21T04:40:21Z</time>
      </trkpt>
      <trkpt lat="42.6478920" lon="-5.5046900">
        <ele>977.0</ele>
        <time>2021-08-21T04:40:22Z</time>
      </trkpt>
      <trkpt lat="42.6479030" lon="-5.5046800">
        <ele>977.0</ele>
        <time>2021-08-21T04:40:23Z</time>
      </trkpt>
      <trkpt lat="42.6479250" lon="-5.5046620">
        <ele>977.0</ele>
        <time>2021-08-21T04:40:24Z</time>
      </trkpt>
      <trkpt lat="42.6479500" lon="-5.5046390">
        <ele>977.0</ele>
        <time>2021-08-21T04:40:25Z</time>
      </trkpt>
      <trkpt lat="42.6479770" lon="-5.5046150">
        <ele>977.0</ele>
        <time>2021-08-21T04:40:26Z</time>
      </trkpt>
      <trkpt lat="42.6479980" lon="-5.5045900">
        <ele>977.0</ele>
        <time>2021-08-21T04:40:27Z</time>
      </trkpt>
      <trkpt lat="42.6480300" lon="-5.5045530">
        <ele>977.0</ele>
        <time>2021-08-21T04:40:28Z</time>
      </trkpt>
      <trkpt lat="42.6480390" lon="-5.5045390">
        <ele>977.0</ele>
        <time>2021-08-21T04:40:29Z</time>
      </trkpt>
      <trkpt lat="42.6480600" lon="-5.5044940">
        <ele>977.0</ele>
        <time>2021-08-21T04:40:30Z</time>
      </trkpt>
      <trkpt lat="42.6480660" lon="-5.5044770">
        <ele>977.0</ele>
        <time>2021-08-21T04:40:31Z</time>
      </trkpt>
      <trkpt lat="42.6480760" lon="-5.5044410">
        <ele>976.0</ele>
        <time>2021-08-21T04:40:32Z</time>
      </trkpt>
      <trkpt lat="42.6480850" lon="-5.5044080">
        <ele>976.0</ele>
        <time>2021-08-21T04:40:33Z</time>
      </trkpt>
      <trkpt lat="42.6480970" lon="-5.5043540">
        <ele>976.0</ele>
        <time>2021-08-21T04:40:34Z</time>
      </trkpt>
      <trkpt lat="42.6481000" lon="-5.5043360">
        <ele>976.0</ele>
        <time>2021-08-21T04:40:35Z</time>
      </trkpt>
      <trkpt lat="42.6481090" lon="-5.5042970">
        <ele>976.0</ele>
        <time>2021-08-21T04:40:36Z</time>
      </trkpt>
      <trkpt lat="42.6481190" lon="-5.5042590">
        <ele>976.0</ele>
        <time>2021-08-21T04:40:37Z</time>
      </trkpt>
      <trkpt lat="42.6481270" lon="-5.5042220">
        <ele>976.0</ele>
        <time>2021-08-21T04:40:38Z</time>
      </trkpt>
      <trkpt lat="42.6481410" lon="-5.5041670">
        <ele>976.0</ele>
        <time>2021-08-21T04:40:39Z</time>
      </trkpt>
      <trkpt lat="42.6481450" lon="-5.5041490">
        <ele>976.0</ele>
        <time>2021-08-21T04:40:40Z</time>
      </trkpt>
      <trkpt lat="42.6481520" lon="-5.5041100">
        <ele>976.0</ele>
        <time>2021-08-21T04:40:41Z</time>
      </trkpt>
      <trkpt lat="42.6481590" lon="-5.5040710">
        <ele>976.0</ele>
        <time>2021-08-21T04:40:42Z</time>
      </trkpt>
      <trkpt lat="42.6481630" lon="-5.5040320">
        <ele>976.0</ele>
        <time>2021-08-21T04:40:43Z</time>
      </trkpt>
      <trkpt lat="42.6481650" lon="-5.5039940">
        <ele>976.0</ele>
        <time>2021-08-21T04:40:44Z</time>
      </trkpt>
      <trkpt lat="42.6481650" lon="-5.5039550">
        <ele>976.0</ele>
        <time>2021-08-21T04:40:45Z</time>
      </trkpt>
      <trkpt lat="42.6481650" lon="-5.5039150">
        <ele>976.0</ele>
        <time>2021-08-21T04:40:46Z</time>
      </trkpt>
      <trkpt lat="42.6481700" lon="-5.5038570">
        <ele>976.0</ele>
        <time>2021-08-21T04:40:47Z</time>
      </trkpt>
      <trkpt lat="42.6481710" lon="-5.5038370">
        <ele>975.0</ele>
        <time>2021-08-21T04:40:48Z</time>
      </trkpt>
      <trkpt lat="42.6481780" lon="-5.5038010">
        <ele>976.0</ele>
        <time>2021-08-21T04:40:49Z</time>
      </trkpt>
      <trkpt lat="42.6481820" lon="-5.5037640">
        <ele>976.0</ele>
        <time>2021-08-21T04:40:50Z</time>
      </trkpt>
      <trkpt lat="42.6481910" lon="-5.5037280">
        <ele>976.0</ele>
        <time>2021-08-21T04:40:51Z</time>
      </trkpt>
      <trkpt lat="42.6481990" lon="-5.5036910">
        <ele>976.0</ele>
        <time>2021-08-21T04:40:52Z</time>
      </trkpt>
      <trkpt lat="42.6482070" lon="-5.5036570">
        <ele>976.0</ele>
        <time>2021-08-21T04:40:53Z</time>
      </trkpt>
      <trkpt lat="42.6482150" lon="-5.5036250">
        <ele>976.0</ele>
        <time>2021-08-21T04:40:54Z</time>
      </trkpt>
      <trkpt lat="42.6482320" lon="-5.5035770">
        <ele>976.0</ele>
        <time>2021-08-21T04:40:55Z</time>
      </trkpt>
      <trkpt lat="42.6482380" lon="-5.5035610">
        <ele>976.0</ele>
        <time>2021-08-21T04:40:56Z</time>
      </trkpt>
      <trkpt lat="42.6482530" lon="-5.5035310">
        <ele>976.0</ele>
        <time>2021-08-21T04:40:57Z</time>
      </trkpt>
      <trkpt lat="42.6482760" lon="-5.5034870">
        <ele>976.0</ele>
        <time>2021-08-21T04:40:58Z</time>
      </trkpt>
      <trkpt lat="42.6482830" lon="-5.5034710">
        <ele>976.0</ele>
        <time>2021-08-21T04:40:59Z</time>
      </trkpt>
      <trkpt lat="42.6482960" lon="-5.5034370">
        <ele>976.0</ele>
        <time>2021-08-21T04:41:00Z</time>
      </trkpt>
      <trkpt lat="42.6483070" lon="-5.5034050">
        <ele>976.0</ele>
        <time>2021-08-21T04:41:01Z</time>
      </trkpt>
      <trkpt lat="42.6483200" lon="-5.5033760">
        <ele>976.0</ele>
        <time>2021-08-21T04:41:02Z</time>
      </trkpt>
      <trkpt lat="42.6483330" lon="-5.5033460">
        <ele>975.0</ele>
        <time>2021-08-21T04:41:03Z</time>
      </trkpt>
      <trkpt lat="42.6483520" lon="-5.5033000">
        <ele>975.0</ele>
        <time>2021-08-21T04:41:04Z</time>
      </trkpt>
      <trkpt lat="42.6483570" lon="-5.5032850">
        <ele>975.0</ele>
        <time>2021-08-21T04:41:05Z</time>
      </trkpt>
      <trkpt lat="42.6483700" lon="-5.5032360">
        <ele>975.0</ele>
        <time>2021-08-21T04:41:06Z</time>
      </trkpt>
      <trkpt lat="42.6483740" lon="-5.5032200">
        <ele>976.0</ele>
        <time>2021-08-21T04:41:07Z</time>
      </trkpt>
      <trkpt lat="42.6483830" lon="-5.5031880">
        <ele>976.0</ele>
        <time>2021-08-21T04:41:08Z</time>
      </trkpt>
      <trkpt lat="42.6483930" lon="-5.5031520">
        <ele>976.0</ele>
        <time>2021-08-21T04:41:09Z</time>
      </trkpt>
      <trkpt lat="42.6484090" lon="-5.5031010">
        <ele>976.0</ele>
        <time>2021-08-21T04:41:10Z</time>
      </trkpt>
      <trkpt lat="42.6484150" lon="-5.5030840">
        <ele>976.0</ele>
        <time>2021-08-21T04:41:11Z</time>
      </trkpt>
      <trkpt lat="42.6484310" lon="-5.5030420">
        <ele>976.0</ele>
        <time>2021-08-21T04:41:12Z</time>
      </trkpt>
      <trkpt lat="42.6484370" lon="-5.5030270">
        <ele>976.0</ele>
        <time>2021-08-21T04:41:13Z</time>
      </trkpt>
      <trkpt lat="42.6484500" lon="-5.5029980">
        <ele>976.0</ele>
        <time>2021-08-21T04:41:14Z</time>
      </trkpt>
      <trkpt lat="42.6484630" lon="-5.5029690">
        <ele>976.0</ele>
        <time>2021-08-21T04:41:15Z</time>
      </trkpt>
      <trkpt lat="42.6484740" lon="-5.5029370">
        <ele>975.0</ele>
        <time>2021-08-21T04:41:16Z</time>
      </trkpt>
      <trkpt lat="42.6484940" lon="-5.5028970">
        <ele>975.0</ele>
        <time>2021-08-21T04:41:17Z</time>
      </trkpt>
      <trkpt lat="42.6485010" lon="-5.5028840">
        <ele>975.0</ele>
        <time>2021-08-21T04:41:18Z</time>
      </trkpt>
      <trkpt lat="42.6485180" lon="-5.5028610">
        <ele>975.0</ele>
        <time>2021-08-21T04:41:19Z</time>
      </trkpt>
      <trkpt lat="42.6485340" lon="-5.5028420">
        <ele>975.0</ele>
        <time>2021-08-21T04:41:20Z</time>
      </trkpt>
      <trkpt lat="42.6485560" lon="-5.5028230">
        <ele>976.0</ele>
        <time>2021-08-21T04:41:21Z</time>
      </trkpt>
      <trkpt lat="42.6485760" lon="-5.5028030">
        <ele>976.0</ele>
        <time>2021-08-21T04:41:22Z</time>
      </trkpt>
      <trkpt lat="42.6485970" lon="-5.5027830">
        <ele>975.0</ele>
        <time>2021-08-21T04:41:23Z</time>
      </trkpt>
      <trkpt lat="42.6486190" lon="-5.5027610">
        <ele>975.0</ele>
        <time>2021-08-21T04:41:24Z</time>
      </trkpt>
      <trkpt lat="42.6486450" lon="-5.5027400">
        <ele>975.0</ele>
        <time>2021-08-21T04:41:25Z</time>
      </trkpt>
      <trkpt lat="42.6486690" lon="-5.5027210">
        <ele>975.0</ele>
        <time>2021-08-21T04:41:26Z</time>
      </trkpt>
      <trkpt lat="42.6486930" lon="-5.5027130">
        <ele>975.0</ele>
        <time>2021-08-21T04:41:27Z</time>
      </trkpt>
      <trkpt lat="42.6487290" lon="-5.5027070">
        <ele>975.0</ele>
        <time>2021-08-21T04:41:28Z</time>
      </trkpt>
      <trkpt lat="42.6487410" lon="-5.5027080">
        <ele>975.0</ele>
        <time>2021-08-21T04:41:29Z</time>
      </trkpt>
      <trkpt lat="42.6487670" lon="-5.5027130">
        <ele>975.0</ele>
        <time>2021-08-21T04:41:30Z</time>
      </trkpt>
      <trkpt lat="42.6487910" lon="-5.5027200">
        <ele>974.0</ele>
        <time>2021-08-21T04:41:31Z</time>
      </trkpt>
      <trkpt lat="42.6488180" lon="-5.5027290">
        <ele>974.0</ele>
        <time>2021-08-21T04:41:32Z</time>
      </trkpt>
      <trkpt lat="42.6488450" lon="-5.5027380">
        <ele>974.0</ele>
        <time>2021-08-21T04:41:33Z</time>
      </trkpt>
      <trkpt lat="42.6488730" lon="-5.5027440">
        <ele>974.0</ele>
        <time>2021-08-21T04:41:34Z</time>
      </trkpt>
      <trkpt lat="42.6489030" lon="-5.5027470">
        <ele>974.0</ele>
        <time>2021-08-21T04:41:35Z</time>
      </trkpt>
      <trkpt lat="42.6489480" lon="-5.5027450">
        <ele>974.0</ele>
        <time>2021-08-21T04:41:36Z</time>
      </trkpt>
      <trkpt lat="42.6489620" lon="-5.5027410">
        <ele>974.0</ele>
        <time>2021-08-21T04:41:37Z</time>
      </trkpt>
      <trkpt lat="42.6489850" lon="-5.5027360">
        <ele>974.0</ele>
        <time>2021-08-21T04:41:38Z</time>
      </trkpt>
      <trkpt lat="42.6490090" lon="-5.5027280">
        <ele>974.0</ele>
        <time>2021-08-21T04:41:39Z</time>
      </trkpt>
      <trkpt lat="42.6490330" lon="-5.5027160">
        <ele>974.0</ele>
        <time>2021-08-21T04:41:40Z</time>
      </trkpt>
      <trkpt lat="42.6490570" lon="-5.5027000">
        <ele>974.0</ele>
        <time>2021-08-21T04:41:41Z</time>
      </trkpt>
      <trkpt lat="42.6490770" lon="-5.5026830">
        <ele>974.0</ele>
        <time>2021-08-21T04:41:42Z</time>
      </trkpt>
      <trkpt lat="42.6490950" lon="-5.5026660">
        <ele>973.0</ele>
        <time>2021-08-21T04:41:43Z</time>
      </trkpt>
      <trkpt lat="42.6491150" lon="-5.5026500">
        <ele>973.0</ele>
        <time>2021-08-21T04:41:44Z</time>
      </trkpt>
      <trkpt lat="42.6491460" lon="-5.5026240">
        <ele>973.0</ele>
        <time>2021-08-21T04:41:45Z</time>
      </trkpt>
      <trkpt lat="42.6491550" lon="-5.5026140">
        <ele>973.0</ele>
        <time>2021-08-21T04:41:46Z</time>
      </trkpt>
      <trkpt lat="42.6491760" lon="-5.5025940">
        <ele>973.0</ele>
        <time>2021-08-21T04:41:47Z</time>
      </trkpt>
      <trkpt lat="42.6491950" lon="-5.5025780">
        <ele>973.0</ele>
        <time>2021-08-21T04:41:48Z</time>
      </trkpt>
      <trkpt lat="42.6492170" lon="-5.5025620">
        <ele>973.0</ele>
        <time>2021-08-21T04:41:49Z</time>
      </trkpt>
      <trkpt lat="42.6492380" lon="-5.5025490">
        <ele>973.0</ele>
        <time>2021-08-21T04:41:50Z</time>
      </trkpt>
      <trkpt lat="42.6492570" lon="-5.5025340">
        <ele>973.0</ele>
        <time>2021-08-21T04:41:51Z</time>
      </trkpt>
      <trkpt lat="42.6492770" lon="-5.5025200">
        <ele>973.0</ele>
        <time>2021-08-21T04:41:52Z</time>
      </trkpt>
      <trkpt lat="42.6492990" lon="-5.5025070">
        <ele>973.0</ele>
        <time>2021-08-21T04:41:53Z</time>
      </trkpt>
      <trkpt lat="42.6493210" lon="-5.5024940">
        <ele>973.0</ele>
        <time>2021-08-21T04:41:54Z</time>
      </trkpt>
      <trkpt lat="42.6493530" lon="-5.5024780">
        <ele>973.0</ele>
        <time>2021-08-21T04:41:55Z</time>
      </trkpt>
      <trkpt lat="42.6493640" lon="-5.5024710">
        <ele>973.0</ele>
        <time>2021-08-21T04:41:56Z</time>
      </trkpt>
      <trkpt lat="42.6493830" lon="-5.5024580">
        <ele>972.0</ele>
        <time>2021-08-21T04:41:57Z</time>
      </trkpt>
      <trkpt lat="42.6494030" lon="-5.5024500">
        <ele>972.0</ele>
        <time>2021-08-21T04:41:58Z</time>
      </trkpt>
      <trkpt lat="42.6494260" lon="-5.5024410">
        <ele>972.0</ele>
        <time>2021-08-21T04:41:59Z</time>
      </trkpt>
      <trkpt lat="42.6494490" lon="-5.5024330">
        <ele>972.0</ele>
        <time>2021-08-21T04:42:00Z</time>
      </trkpt>
      <trkpt lat="42.6494740" lon="-5.5024250">
        <ele>972.0</ele>
        <time>2021-08-21T04:42:01Z</time>
      </trkpt>
      <trkpt lat="42.6494970" lon="-5.5024170">
        <ele>972.0</ele>
        <time>2021-08-21T04:42:02Z</time>
      </trkpt>
      <trkpt lat="42.6495220" lon="-5.5024070">
        <ele>972.0</ele>
        <time>2021-08-21T04:42:03Z</time>
      </trkpt>
      <trkpt lat="42.6495450" lon="-5.5023980">
        <ele>972.0</ele>
        <time>2021-08-21T04:42:04Z</time>
      </trkpt>
      <trkpt lat="42.6495680" lon="-5.5023880">
        <ele>972.0</ele>
        <time>2021-08-21T04:42:05Z</time>
      </trkpt>
      <trkpt lat="42.6495910" lon="-5.5023770">
        <ele>972.0</ele>
        <time>2021-08-21T04:42:06Z</time>
      </trkpt>
      <trkpt lat="42.6496140" lon="-5.5023660">
        <ele>972.0</ele>
        <time>2021-08-21T04:42:07Z</time>
      </trkpt>
      <trkpt lat="42.6496370" lon="-5.5023570">
        <ele>972.0</ele>
        <time>2021-08-21T04:42:08Z</time>
      </trkpt>
      <trkpt lat="42.6496590" lon="-5.5023520">
        <ele>972.0</ele>
        <time>2021-08-21T04:42:09Z</time>
      </trkpt>
      <trkpt lat="42.6496840" lon="-5.5023450">
        <ele>972.0</ele>
        <time>2021-08-21T04:42:10Z</time>
      </trkpt>
      <trkpt lat="42.6497100" lon="-5.5023370">
        <ele>972.0</ele>
        <time>2021-08-21T04:42:11Z</time>
      </trkpt>
      <trkpt lat="42.6497340" lon="-5.5023280">
        <ele>972.0</ele>
        <time>2021-08-21T04:42:12Z</time>
      </trkpt>
      <trkpt lat="42.6497570" lon="-5.5023190">
        <ele>972.0</ele>
        <time>2021-08-21T04:42:13Z</time>
      </trkpt>
      <trkpt lat="42.6497800" lon="-5.5023150">
        <ele>972.0</ele>
        <time>2021-08-21T04:42:14Z</time>
      </trkpt>
      <trkpt lat="42.6498040" lon="-5.5023130">
        <ele>972.0</ele>
        <time>2021-08-21T04:42:15Z</time>
      </trkpt>
      <trkpt lat="42.6498390" lon="-5.5023180">
        <ele>972.0</ele>
        <time>2021-08-21T04:42:16Z</time>
      </trkpt>
      <trkpt lat="42.6498500" lon="-5.5023200">
        <ele>973.0</ele>
        <time>2021-08-21T04:42:17Z</time>
      </trkpt>
      <trkpt lat="42.6498720" lon="-5.5023300">
        <ele>973.0</ele>
        <time>2021-08-21T04:42:18Z</time>
      </trkpt>
      <trkpt lat="42.6498940" lon="-5.5023440">
        <ele>973.0</ele>
        <time>2021-08-21T04:42:19Z</time>
      </trkpt>
      <trkpt lat="42.6499120" lon="-5.5023610">
        <ele>973.0</ele>
        <time>2021-08-21T04:42:20Z</time>
      </trkpt>
      <trkpt lat="42.6499300" lon="-5.5023800">
        <ele>972.0</ele>
        <time>2021-08-21T04:42:21Z</time>
      </trkpt>
      <trkpt lat="42.6499490" lon="-5.5023990">
        <ele>972.0</ele>
        <time>2021-08-21T04:42:22Z</time>
      </trkpt>
      <trkpt lat="42.6499690" lon="-5.5024190">
        <ele>972.0</ele>
        <time>2021-08-21T04:42:23Z</time>
      </trkpt>
      <trkpt lat="42.6499900" lon="-5.5024400">
        <ele>972.0</ele>
        <time>2021-08-21T04:42:24Z</time>
      </trkpt>
      <trkpt lat="42.6500100" lon="-5.5024620">
        <ele>972.0</ele>
        <time>2021-08-21T04:42:25Z</time>
      </trkpt>
      <trkpt lat="42.6500290" lon="-5.5024830">
        <ele>972.0</ele>
        <time>2021-08-21T04:42:26Z</time>
      </trkpt>
      <trkpt lat="42.6500530" lon="-5.5024960">
        <ele>972.0</ele>
        <time>2021-08-21T04:42:27Z</time>
      </trkpt>
      <trkpt lat="42.6500750" lon="-5.5025080">
        <ele>972.0</ele>
        <time>2021-08-21T04:42:28Z</time>
      </trkpt>
      <trkpt lat="42.6501000" lon="-5.5025140">
        <ele>973.0</ele>
        <time>2021-08-21T04:42:29Z</time>
      </trkpt>
      <trkpt lat="42.6501250" lon="-5.5025170">
        <ele>972.0</ele>
        <time>2021-08-21T04:42:30Z</time>
      </trkpt>
      <trkpt lat="42.6501500" lon="-5.5025180">
        <ele>973.0</ele>
        <time>2021-08-21T04:42:31Z</time>
      </trkpt>
      <trkpt lat="42.6501750" lon="-5.5025220">
        <ele>973.0</ele>
        <time>2021-08-21T04:42:32Z</time>
      </trkpt>
      <trkpt lat="42.6501980" lon="-5.5025260">
        <ele>973.0</ele>
        <time>2021-08-21T04:42:33Z</time>
      </trkpt>
      <trkpt lat="42.6502210" lon="-5.5025290">
        <ele>972.0</ele>
        <time>2021-08-21T04:42:34Z</time>
      </trkpt>
      <trkpt lat="42.6502460" lon="-5.5025290">
        <ele>972.0</ele>
        <time>2021-08-21T04:42:35Z</time>
      </trkpt>
      <trkpt lat="42.6502670" lon="-5.5025300">
        <ele>972.0</ele>
        <time>2021-08-21T04:42:36Z</time>
      </trkpt>
      <trkpt lat="42.6502880" lon="-5.5025300">
        <ele>972.0</ele>
        <time>2021-08-21T04:42:37Z</time>
      </trkpt>
      <trkpt lat="42.6503110" lon="-5.5025290">
        <ele>972.0</ele>
        <time>2021-08-21T04:42:38Z</time>
      </trkpt>
      <trkpt lat="42.6503350" lon="-5.5025270">
        <ele>972.0</ele>
        <time>2021-08-21T04:42:39Z</time>
      </trkpt>
      <trkpt lat="42.6503590" lon="-5.5025230">
        <ele>972.0</ele>
        <time>2021-08-21T04:42:40Z</time>
      </trkpt>
      <trkpt lat="42.6503830" lon="-5.5025190">
        <ele>972.0</ele>
        <time>2021-08-21T04:42:41Z</time>
      </trkpt>
      <trkpt lat="42.6504060" lon="-5.5025140">
        <ele>972.0</ele>
        <time>2021-08-21T04:42:42Z</time>
      </trkpt>
      <trkpt lat="42.6504270" lon="-5.5025080">
        <ele>972.0</ele>
        <time>2021-08-21T04:42:43Z</time>
      </trkpt>
      <trkpt lat="42.6504480" lon="-5.5025030">
        <ele>972.0</ele>
        <time>2021-08-21T04:42:44Z</time>
      </trkpt>
      <trkpt lat="42.6504700" lon="-5.5025000">
        <ele>972.0</ele>
        <time>2021-08-21T04:42:45Z</time>
      </trkpt>
      <trkpt lat="42.6504890" lon="-5.5025010">
        <ele>972.0</ele>
        <time>2021-08-21T04:42:46Z</time>
      </trkpt>
      <trkpt lat="42.6505090" lon="-5.5025000">
        <ele>972.0</ele>
        <time>2021-08-21T04:42:47Z</time>
      </trkpt>
      <trkpt lat="42.6505300" lon="-5.5024990">
        <ele>973.0</ele>
        <time>2021-08-21T04:42:48Z</time>
      </trkpt>
      <trkpt lat="42.6505540" lon="-5.5024970">
        <ele>973.0</ele>
        <time>2021-08-21T04:42:49Z</time>
      </trkpt>
      <trkpt lat="42.6505790" lon="-5.5024930">
        <ele>973.0</ele>
        <time>2021-08-21T04:42:50Z</time>
      </trkpt>
      <trkpt lat="42.6506150" lon="-5.5024840">
        <ele>973.0</ele>
        <time>2021-08-21T04:42:51Z</time>
      </trkpt>
      <trkpt lat="42.6506260" lon="-5.5024800">
        <ele>973.0</ele>
        <time>2021-08-21T04:42:52Z</time>
      </trkpt>
      <trkpt lat="42.6506540" lon="-5.5024650">
        <ele>973.0</ele>
        <time>2021-08-21T04:42:53Z</time>
      </trkpt>
      <trkpt lat="42.6506830" lon="-5.5024500">
        <ele>973.0</ele>
        <time>2021-08-21T04:42:54Z</time>
      </trkpt>
      <trkpt lat="42.6507110" lon="-5.5024350">
        <ele>974.0</ele>
        <time>2021-08-21T04:42:55Z</time>
      </trkpt>
      <trkpt lat="42.6507360" lon="-5.5024160">
        <ele>974.0</ele>
        <time>2021-08-21T04:42:56Z</time>
      </trkpt>
      <trkpt lat="42.6507590" lon="-5.5023930">
        <ele>974.0</ele>
        <time>2021-08-21T04:42:57Z</time>
      </trkpt>
      <trkpt lat="42.6507800" lon="-5.5023680">
        <ele>974.0</ele>
        <time>2021-08-21T04:42:58Z</time>
      </trkpt>
      <trkpt lat="42.6508020" lon="-5.5023420">
        <ele>974.0</ele>
        <time>2021-08-21T04:42:59Z</time>
      </trkpt>
      <trkpt lat="42.6508220" lon="-5.5023160">
        <ele>974.0</ele>
        <time>2021-08-21T04:43:00Z</time>
      </trkpt>
      <trkpt lat="42.6508410" lon="-5.5022900">
        <ele>974.0</ele>
        <time>2021-08-21T04:43:01Z</time>
      </trkpt>
      <trkpt lat="42.6508570" lon="-5.5022650">
        <ele>974.0</ele>
        <time>2021-08-21T04:43:02Z</time>
      </trkpt>
      <trkpt lat="42.6508740" lon="-5.5022380">
        <ele>975.0</ele>
        <time>2021-08-21T04:43:03Z</time>
      </trkpt>
      <trkpt lat="42.6508880" lon="-5.5022060">
        <ele>975.0</ele>
        <time>2021-08-21T04:43:04Z</time>
      </trkpt>
      <trkpt lat="42.6509000" lon="-5.5021760">
        <ele>975.0</ele>
        <time>2021-08-21T04:43:05Z</time>
      </trkpt>
      <trkpt lat="42.6509140" lon="-5.5021510">
        <ele>975.0</ele>
        <time>2021-08-21T04:43:06Z</time>
      </trkpt>
      <trkpt lat="42.6509300" lon="-5.5021280">
        <ele>975.0</ele>
        <time>2021-08-21T04:43:07Z</time>
      </trkpt>
      <trkpt lat="42.6509450" lon="-5.5021070">
        <ele>975.0</ele>
        <time>2021-08-21T04:43:08Z</time>
      </trkpt>
      <trkpt lat="42.6509610" lon="-5.5020830">
        <ele>975.0</ele>
        <time>2021-08-21T04:43:09Z</time>
      </trkpt>
      <trkpt lat="42.6509800" lon="-5.5020550">
        <ele>975.0</ele>
        <time>2021-08-21T04:43:10Z</time>
      </trkpt>
      <trkpt lat="42.6509990" lon="-5.5020240">
        <ele>975.0</ele>
        <time>2021-08-21T04:43:11Z</time>
      </trkpt>
      <trkpt lat="42.6510150" lon="-5.5019940">
        <ele>975.0</ele>
        <time>2021-08-21T04:43:12Z</time>
      </trkpt>
      <trkpt lat="42.6510330" lon="-5.5019650">
        <ele>974.0</ele>
        <time>2021-08-21T04:43:13Z</time>
      </trkpt>
      <trkpt lat="42.6510500" lon="-5.5019350">
        <ele>974.0</ele>
        <time>2021-08-21T04:43:14Z</time>
      </trkpt>
      <trkpt lat="42.6510650" lon="-5.5019060">
        <ele>974.0</ele>
        <time>2021-08-21T04:43:15Z</time>
      </trkpt>
      <trkpt lat="42.6510780" lon="-5.5018770">
        <ele>974.0</ele>
        <time>2021-08-21T04:43:16Z</time>
      </trkpt>
      <trkpt lat="42.6510940" lon="-5.5018430">
        <ele>974.0</ele>
        <time>2021-08-21T04:43:17Z</time>
      </trkpt>
      <trkpt lat="42.6511040" lon="-5.5018100">
        <ele>974.0</ele>
        <time>2021-08-21T04:43:18Z</time>
      </trkpt>
      <trkpt lat="42.6511130" lon="-5.5017750">
        <ele>974.0</ele>
        <time>2021-08-21T04:43:19Z</time>
      </trkpt>
      <trkpt lat="42.6511220" lon="-5.5017400">
        <ele>974.0</ele>
        <time>2021-08-21T04:43:20Z</time>
      </trkpt>
      <trkpt lat="42.6511320" lon="-5.5017060">
        <ele>974.0</ele>
        <time>2021-08-21T04:43:21Z</time>
      </trkpt>
      <trkpt lat="42.6511450" lon="-5.5016750">
        <ele>974.0</ele>
        <time>2021-08-21T04:43:22Z</time>
      </trkpt>
      <trkpt lat="42.6511620" lon="-5.5016480">
        <ele>974.0</ele>
        <time>2021-08-21T04:43:23Z</time>
      </trkpt>
      <trkpt lat="42.6511840" lon="-5.5016220">
        <ele>974.0</ele>
        <time>2021-08-21T04:43:24Z</time>
      </trkpt>
      <trkpt lat="42.6512070" lon="-5.5016030">
        <ele>973.0</ele>
        <time>2021-08-21T04:43:25Z</time>
      </trkpt>
      <trkpt lat="42.6512300" lon="-5.5015840">
        <ele>974.0</ele>
        <time>2021-08-21T04:43:26Z</time>
      </trkpt>
      <trkpt lat="42.6512530" lon="-5.5015690">
        <ele>973.0</ele>
        <time>2021-08-21T04:43:27Z</time>
      </trkpt>
      <trkpt lat="42.6512780" lon="-5.5015530">
        <ele>973.0</ele>
        <time>2021-08-21T04:43:28Z</time>
      </trkpt>
      <trkpt lat="42.6513020" lon="-5.5015380">
        <ele>973.0</ele>
        <time>2021-08-21T04:43:29Z</time>
      </trkpt>
      <trkpt lat="42.6513360" lon="-5.5015150">
        <ele>973.0</ele>
        <time>2021-08-21T04:43:30Z</time>
      </trkpt>
      <trkpt lat="42.6513470" lon="-5.5015070">
        <ele>973.0</ele>
        <time>2021-08-21T04:43:31Z</time>
      </trkpt>
      <trkpt lat="42.6513690" lon="-5.5014900">
        <ele>973.0</ele>
        <time>2021-08-21T04:43:32Z</time>
      </trkpt>
      <trkpt lat="42.6513900" lon="-5.5014710">
        <ele>973.0</ele>
        <time>2021-08-21T04:43:33Z</time>
      </trkpt>
      <trkpt lat="42.6514100" lon="-5.5014550">
        <ele>973.0</ele>
        <time>2021-08-21T04:43:34Z</time>
      </trkpt>
      <trkpt lat="42.6514350" lon="-5.5014380">
        <ele>973.0</ele>
        <time>2021-08-21T04:43:35Z</time>
      </trkpt>
      <trkpt lat="42.6514550" lon="-5.5014230">
        <ele>973.0</ele>
        <time>2021-08-21T04:43:36Z</time>
      </trkpt>
      <trkpt lat="42.6514750" lon="-5.5014070">
        <ele>973.0</ele>
        <time>2021-08-21T04:43:37Z</time>
      </trkpt>
      <trkpt lat="42.6514950" lon="-5.5013880">
        <ele>973.0</ele>
        <time>2021-08-21T04:43:38Z</time>
      </trkpt>
      <trkpt lat="42.6515170" lon="-5.5013680">
        <ele>973.0</ele>
        <time>2021-08-21T04:43:39Z</time>
      </trkpt>
      <trkpt lat="42.6515400" lon="-5.5013500">
        <ele>973.0</ele>
        <time>2021-08-21T04:43:40Z</time>
      </trkpt>
      <trkpt lat="42.6515630" lon="-5.5013310">
        <ele>973.0</ele>
        <time>2021-08-21T04:43:41Z</time>
      </trkpt>
      <trkpt lat="42.6515870" lon="-5.5013130">
        <ele>973.0</ele>
        <time>2021-08-21T04:43:42Z</time>
      </trkpt>
      <trkpt lat="42.6516080" lon="-5.5012980">
        <ele>973.0</ele>
        <time>2021-08-21T04:43:43Z</time>
      </trkpt>
      <trkpt lat="42.6516300" lon="-5.5012810">
        <ele>973.0</ele>
        <time>2021-08-21T04:43:44Z</time>
      </trkpt>
      <trkpt lat="42.6516640" lon="-5.5012550">
        <ele>973.0</ele>
        <time>2021-08-21T04:43:45Z</time>
      </trkpt>
      <trkpt lat="42.6516760" lon="-5.5012460">
        <ele>973.0</ele>
        <time>2021-08-21T04:43:46Z</time>
      </trkpt>
      <trkpt lat="42.6516980" lon="-5.5012280">
        <ele>972.0</ele>
        <time>2021-08-21T04:43:47Z</time>
      </trkpt>
      <trkpt lat="42.6517190" lon="-5.5012120">
        <ele>972.0</ele>
        <time>2021-08-21T04:43:48Z</time>
      </trkpt>
      <trkpt lat="42.6517440" lon="-5.5011960">
        <ele>972.0</ele>
        <time>2021-08-21T04:43:49Z</time>
      </trkpt>
      <trkpt lat="42.6517650" lon="-5.5011840">
        <ele>972.0</ele>
        <time>2021-08-21T04:43:50Z</time>
      </trkpt>
      <trkpt lat="42.6518010" lon="-5.5011670">
        <ele>972.0</ele>
        <time>2021-08-21T04:43:51Z</time>
      </trkpt>
      <trkpt lat="42.6518130" lon="-5.5011610">
        <ele>972.0</ele>
        <time>2021-08-21T04:43:52Z</time>
      </trkpt>
      <trkpt lat="42.6518360" lon="-5.5011470">
        <ele>972.0</ele>
        <time>2021-08-21T04:43:53Z</time>
      </trkpt>
      <trkpt lat="42.6518600" lon="-5.5011350">
        <ele>972.0</ele>
        <time>2021-08-21T04:43:54Z</time>
      </trkpt>
      <trkpt lat="42.6518860" lon="-5.5011250">
        <ele>972.0</ele>
        <time>2021-08-21T04:43:55Z</time>
      </trkpt>
      <trkpt lat="42.6519100" lon="-5.5011170">
        <ele>972.0</ele>
        <time>2021-08-21T04:43:56Z</time>
      </trkpt>
      <trkpt lat="42.6519350" lon="-5.5011140">
        <ele>972.0</ele>
        <time>2021-08-21T04:43:57Z</time>
      </trkpt>
      <trkpt lat="42.6519610" lon="-5.5011140">
        <ele>972.0</ele>
        <time>2021-08-21T04:43:58Z</time>
      </trkpt>
      <trkpt lat="42.6519870" lon="-5.5011160">
        <ele>972.0</ele>
        <time>2021-08-21T04:43:59Z</time>
      </trkpt>
      <trkpt lat="42.6520130" lon="-5.5011160">
        <ele>972.0</ele>
        <time>2021-08-21T04:44:00Z</time>
      </trkpt>
      <trkpt lat="42.6520370" lon="-5.5011150">
        <ele>972.0</ele>
        <time>2021-08-21T04:44:01Z</time>
      </trkpt>
      <trkpt lat="42.6520640" lon="-5.5011150">
        <ele>973.0</ele>
        <time>2021-08-21T04:44:02Z</time>
      </trkpt>
      <trkpt lat="42.6520910" lon="-5.5011150">
        <ele>973.0</ele>
        <time>2021-08-21T04:44:03Z</time>
      </trkpt>
      <trkpt lat="42.6521160" lon="-5.5011170">
        <ele>973.0</ele>
        <time>2021-08-21T04:44:04Z</time>
      </trkpt>
      <trkpt lat="42.6521560" lon="-5.5011190">
        <ele>973.0</ele>
        <time>2021-08-21T04:44:05Z</time>
      </trkpt>
      <trkpt lat="42.6521690" lon="-5.5011180">
        <ele>972.0</ele>
        <time>2021-08-21T04:44:06Z</time>
      </trkpt>
      <trkpt lat="42.6521950" lon="-5.5011150">
        <ele>972.0</ele>
        <time>2021-08-21T04:44:07Z</time>
      </trkpt>
      <trkpt lat="42.6522210" lon="-5.5011100">
        <ele>972.0</ele>
        <time>2021-08-21T04:44:08Z</time>
      </trkpt>
      <trkpt lat="42.6522480" lon="-5.5011040">
        <ele>972.0</ele>
        <time>2021-08-21T04:44:09Z</time>
      </trkpt>
      <trkpt lat="42.6522740" lon="-5.5010940">
        <ele>972.0</ele>
        <time>2021-08-21T04:44:10Z</time>
      </trkpt>
      <trkpt lat="42.6522980" lon="-5.5010840">
        <ele>972.0</ele>
        <time>2021-08-21T04:44:11Z</time>
      </trkpt>
      <trkpt lat="42.6523250" lon="-5.5010710">
        <ele>972.0</ele>
        <time>2021-08-21T04:44:12Z</time>
      </trkpt>
      <trkpt lat="42.6523500" lon="-5.5010580">
        <ele>972.0</ele>
        <time>2021-08-21T04:44:13Z</time>
      </trkpt>
      <trkpt lat="42.6523860" lon="-5.5010360">
        <ele>972.0</ele>
        <time>2021-08-21T04:44:14Z</time>
      </trkpt>
      <trkpt lat="42.6523980" lon="-5.5010280">
        <ele>972.0</ele>
        <time>2021-08-21T04:44:15Z</time>
      </trkpt>
      <trkpt lat="42.6524220" lon="-5.5010140">
        <ele>972.0</ele>
        <time>2021-08-21T04:44:16Z</time>
      </trkpt>
      <trkpt lat="42.6524460" lon="-5.5010020">
        <ele>972.0</ele>
        <time>2021-08-21T04:44:17Z</time>
      </trkpt>
      <trkpt lat="42.6524690" lon="-5.5009930">
        <ele>972.0</ele>
        <time>2021-08-21T04:44:18Z</time>
      </trkpt>
      <trkpt lat="42.6524940" lon="-5.5009870">
        <ele>972.0</ele>
        <time>2021-08-21T04:44:19Z</time>
      </trkpt>
      <trkpt lat="42.6525190" lon="-5.5009830">
        <ele>972.0</ele>
        <time>2021-08-21T04:44:20Z</time>
      </trkpt>
      <trkpt lat="42.6525460" lon="-5.5009750">
        <ele>972.0</ele>
        <time>2021-08-21T04:44:21Z</time>
      </trkpt>
      <trkpt lat="42.6525730" lon="-5.5009610">
        <ele>972.0</ele>
        <time>2021-08-21T04:44:22Z</time>
      </trkpt>
      <trkpt lat="42.6525990" lon="-5.5009460">
        <ele>972.0</ele>
        <time>2021-08-21T04:44:23Z</time>
      </trkpt>
      <trkpt lat="42.6526230" lon="-5.5009310">
        <ele>972.0</ele>
        <time>2021-08-21T04:44:24Z</time>
      </trkpt>
      <trkpt lat="42.6526470" lon="-5.5009180">
        <ele>972.0</ele>
        <time>2021-08-21T04:44:25Z</time>
      </trkpt>
      <trkpt lat="42.6526720" lon="-5.5009040">
        <ele>972.0</ele>
        <time>2021-08-21T04:44:26Z</time>
      </trkpt>
      <trkpt lat="42.6527080" lon="-5.5008880">
        <ele>972.0</ele>
        <time>2021-08-21T04:44:27Z</time>
      </trkpt>
      <trkpt lat="42.6527210" lon="-5.5008820">
        <ele>972.0</ele>
        <time>2021-08-21T04:44:28Z</time>
      </trkpt>
      <trkpt lat="42.6527470" lon="-5.5008730">
        <ele>972.0</ele>
        <time>2021-08-21T04:44:29Z</time>
      </trkpt>
      <trkpt lat="42.6527750" lon="-5.5008660">
        <ele>972.0</ele>
        <time>2021-08-21T04:44:30Z</time>
      </trkpt>
      <trkpt lat="42.6528030" lon="-5.5008580">
        <ele>972.0</ele>
        <time>2021-08-21T04:44:31Z</time>
      </trkpt>
      <trkpt lat="42.6528310" lon="-5.5008500">
        <ele>972.0</ele>
        <time>2021-08-21T04:44:32Z</time>
      </trkpt>
      <trkpt lat="42.6528700" lon="-5.5008370">
        <ele>972.0</ele>
        <time>2021-08-21T04:44:33Z</time>
      </trkpt>
      <trkpt lat="42.6528830" lon="-5.5008320">
        <ele>972.0</ele>
        <time>2021-08-21T04:44:34Z</time>
      </trkpt>
      <trkpt lat="42.6529080" lon="-5.5008250">
        <ele>972.0</ele>
        <time>2021-08-21T04:44:35Z</time>
      </trkpt>
      <trkpt lat="42.6529340" lon="-5.5008160">
        <ele>972.0</ele>
        <time>2021-08-21T04:44:36Z</time>
      </trkpt>
      <trkpt lat="42.6529600" lon="-5.5008040">
        <ele>972.0</ele>
        <time>2021-08-21T04:44:37Z</time>
      </trkpt>
      <trkpt lat="42.6529850" lon="-5.5007890">
        <ele>972.0</ele>
        <time>2021-08-21T04:44:38Z</time>
      </trkpt>
      <trkpt lat="42.6530110" lon="-5.5007730">
        <ele>972.0</ele>
        <time>2021-08-21T04:44:39Z</time>
      </trkpt>
      <trkpt lat="42.6530350" lon="-5.5007580">
        <ele>972.0</ele>
        <time>2021-08-21T04:44:40Z</time>
      </trkpt>
      <trkpt lat="42.6530570" lon="-5.5007520">
        <ele>972.0</ele>
        <time>2021-08-21T04:44:41Z</time>
      </trkpt>
      <trkpt lat="42.6530800" lon="-5.5007500">
        <ele>972.0</ele>
        <time>2021-08-21T04:44:42Z</time>
      </trkpt>
      <trkpt lat="42.6531060" lon="-5.5007500">
        <ele>972.0</ele>
        <time>2021-08-21T04:44:43Z</time>
      </trkpt>
      <trkpt lat="42.6531310" lon="-5.5007490">
        <ele>972.0</ele>
        <time>2021-08-21T04:44:44Z</time>
      </trkpt>
      <trkpt lat="42.6531550" lon="-5.5007490">
        <ele>972.0</ele>
        <time>2021-08-21T04:44:45Z</time>
      </trkpt>
      <trkpt lat="42.6531930" lon="-5.5007480">
        <ele>972.0</ele>
        <time>2021-08-21T04:44:46Z</time>
      </trkpt>
      <trkpt lat="42.6532040" lon="-5.5007490">
        <ele>972.0</ele>
        <time>2021-08-21T04:44:47Z</time>
      </trkpt>
      <trkpt lat="42.6532430" lon="-5.5007480">
        <ele>972.0</ele>
        <time>2021-08-21T04:44:48Z</time>
      </trkpt>
      <trkpt lat="42.6532560" lon="-5.5007480">
        <ele>972.0</ele>
        <time>2021-08-21T04:44:49Z</time>
      </trkpt>
      <trkpt lat="42.6532830" lon="-5.5007490">
        <ele>972.0</ele>
        <time>2021-08-21T04:44:50Z</time>
      </trkpt>
      <trkpt lat="42.6533100" lon="-5.5007510">
        <ele>972.0</ele>
        <time>2021-08-21T04:44:51Z</time>
      </trkpt>
      <trkpt lat="42.6533350" lon="-5.5007500">
        <ele>972.0</ele>
        <time>2021-08-21T04:44:52Z</time>
      </trkpt>
      <trkpt lat="42.6533620" lon="-5.5007500">
        <ele>972.0</ele>
        <time>2021-08-21T04:44:53Z</time>
      </trkpt>
      <trkpt lat="42.6533870" lon="-5.5007490">
        <ele>972.0</ele>
        <time>2021-08-21T04:44:54Z</time>
      </trkpt>
      <trkpt lat="42.6534120" lon="-5.5007490">
        <ele>972.0</ele>
        <time>2021-08-21T04:44:55Z</time>
      </trkpt>
      <trkpt lat="42.6534370" lon="-5.5007500">
        <ele>972.0</ele>
        <time>2021-08-21T04:44:56Z</time>
      </trkpt>
      <trkpt lat="42.6534630" lon="-5.5007500">
        <ele>972.0</ele>
        <time>2021-08-21T04:44:57Z</time>
      </trkpt>
      <trkpt lat="42.6535030" lon="-5.5007500">
        <ele>972.0</ele>
        <time>2021-08-21T04:44:58Z</time>
      </trkpt>
      <trkpt lat="42.6535150" lon="-5.5007500">
        <ele>973.0</ele>
        <time>2021-08-21T04:44:59Z</time>
      </trkpt>
      <trkpt lat="42.6535400" lon="-5.5007490">
        <ele>973.0</ele>
        <time>2021-08-21T04:45:00Z</time>
      </trkpt>
      <trkpt lat="42.6535640" lon="-5.5007480">
        <ele>972.0</ele>
        <time>2021-08-21T04:45:01Z</time>
      </trkpt>
      <trkpt lat="42.6535890" lon="-5.5007460">
        <ele>972.0</ele>
        <time>2021-08-21T04:45:02Z</time>
      </trkpt>
      <trkpt lat="42.6535890" lon="-5.5007460">
        <ele>973.0</ele>
        <time>2021-08-21T04:45:03Z</time>
      </trkpt>
      <trkpt lat="42.6536610" lon="-5.5007460">
        <ele>973.0</ele>
        <time>2021-08-21T04:45:04Z</time>
      </trkpt>
      <trkpt lat="42.6537120" lon="-5.5007600">
        <ele>973.0</ele>
        <time>2021-08-21T04:45:06Z</time>
      </trkpt>
      <trkpt lat="42.6537120" lon="-5.5007600">
        <ele>973.0</ele>
        <time>2021-08-21T04:45:07Z</time>
      </trkpt>
      <trkpt lat="42.6537360" lon="-5.5007650">
        <ele>973.0</ele>
        <time>2021-08-21T04:45:08Z</time>
      </trkpt>
      <trkpt lat="42.6537610" lon="-5.5007670">
        <ele>973.0</ele>
        <time>2021-08-21T04:45:09Z</time>
      </trkpt>
      <trkpt lat="42.6537860" lon="-5.5007670">
        <ele>973.0</ele>
        <time>2021-08-21T04:45:10Z</time>
      </trkpt>
      <trkpt lat="42.6538110" lon="-5.5007660">
        <ele>973.0</ele>
        <time>2021-08-21T04:45:11Z</time>
      </trkpt>
      <trkpt lat="42.6538370" lon="-5.5007680">
        <ele>973.0</ele>
        <time>2021-08-21T04:45:12Z</time>
      </trkpt>
      <trkpt lat="42.6538620" lon="-5.5007710">
        <ele>973.0</ele>
        <time>2021-08-21T04:45:13Z</time>
      </trkpt>
      <trkpt lat="42.6538900" lon="-5.5007710">
        <ele>973.0</ele>
        <time>2021-08-21T04:45:14Z</time>
      </trkpt>
      <trkpt lat="42.6539170" lon="-5.5007710">
        <ele>973.0</ele>
        <time>2021-08-21T04:45:15Z</time>
      </trkpt>
      <trkpt lat="42.6539440" lon="-5.5007700">
        <ele>973.0</ele>
        <time>2021-08-21T04:45:16Z</time>
      </trkpt>
      <trkpt lat="42.6539700" lon="-5.5007680">
        <ele>973.0</ele>
        <time>2021-08-21T04:45:17Z</time>
      </trkpt>
      <trkpt lat="42.6539950" lon="-5.5007670">
        <ele>973.0</ele>
        <time>2021-08-21T04:45:18Z</time>
      </trkpt>
      <trkpt lat="42.6540220" lon="-5.5007630">
        <ele>973.0</ele>
        <time>2021-08-21T04:45:19Z</time>
      </trkpt>
      <trkpt lat="42.6540490" lon="-5.5007590">
        <ele>973.0</ele>
        <time>2021-08-21T04:45:20Z</time>
      </trkpt>
      <trkpt lat="42.6540750" lon="-5.5007540">
        <ele>973.0</ele>
        <time>2021-08-21T04:45:21Z</time>
      </trkpt>
      <trkpt lat="42.6541120" lon="-5.5007470">
        <ele>973.0</ele>
        <time>2021-08-21T04:45:22Z</time>
      </trkpt>
      <trkpt lat="42.6541230" lon="-5.5007450">
        <ele>973.0</ele>
        <time>2021-08-21T04:45:23Z</time>
      </trkpt>
      <trkpt lat="42.6541590" lon="-5.5007380">
        <ele>973.0</ele>
        <time>2021-08-21T04:45:24Z</time>
      </trkpt>
      <trkpt lat="42.6541700" lon="-5.5007350">
        <ele>973.0</ele>
        <time>2021-08-21T04:45:25Z</time>
      </trkpt>
      <trkpt lat="42.6541930" lon="-5.5007300">
        <ele>973.0</ele>
        <time>2021-08-21T04:45:26Z</time>
      </trkpt>
      <trkpt lat="42.6542300" lon="-5.5007210">
        <ele>973.0</ele>
        <time>2021-08-21T04:45:27Z</time>
      </trkpt>
      <trkpt lat="42.6542430" lon="-5.5007170">
        <ele>973.0</ele>
        <time>2021-08-21T04:45:28Z</time>
      </trkpt>
      <trkpt lat="42.6542690" lon="-5.5007090">
        <ele>973.0</ele>
        <time>2021-08-21T04:45:29Z</time>
      </trkpt>
      <trkpt lat="42.6542960" lon="-5.5006980">
        <ele>973.0</ele>
        <time>2021-08-21T04:45:30Z</time>
      </trkpt>
      <trkpt lat="42.6543210" lon="-5.5006830">
        <ele>973.0</ele>
        <time>2021-08-21T04:45:31Z</time>
      </trkpt>
      <trkpt lat="42.6543450" lon="-5.5006650">
        <ele>973.0</ele>
        <time>2021-08-21T04:45:32Z</time>
      </trkpt>
      <trkpt lat="42.6543720" lon="-5.5006470">
        <ele>973.0</ele>
        <time>2021-08-21T04:45:33Z</time>
      </trkpt>
      <trkpt lat="42.6543970" lon="-5.5006360">
        <ele>973.0</ele>
        <time>2021-08-21T04:45:34Z</time>
      </trkpt>
      <trkpt lat="42.6544230" lon="-5.5006270">
        <ele>973.0</ele>
        <time>2021-08-21T04:45:35Z</time>
      </trkpt>
      <trkpt lat="42.6544470" lon="-5.5006200">
        <ele>973.0</ele>
        <time>2021-08-21T04:45:36Z</time>
      </trkpt>
      <trkpt lat="42.6544730" lon="-5.5006190">
        <ele>973.0</ele>
        <time>2021-08-21T04:45:37Z</time>
      </trkpt>
      <trkpt lat="42.6544980" lon="-5.5006190">
        <ele>973.0</ele>
        <time>2021-08-21T04:45:38Z</time>
      </trkpt>
      <trkpt lat="42.6545240" lon="-5.5006200">
        <ele>973.0</ele>
        <time>2021-08-21T04:45:39Z</time>
      </trkpt>
      <trkpt lat="42.6545490" lon="-5.5006210">
        <ele>974.0</ele>
        <time>2021-08-21T04:45:40Z</time>
      </trkpt>
      <trkpt lat="42.6545870" lon="-5.5006230">
        <ele>974.0</ele>
        <time>2021-08-21T04:45:41Z</time>
      </trkpt>
      <trkpt lat="42.6545990" lon="-5.5006260">
        <ele>973.0</ele>
        <time>2021-08-21T04:45:42Z</time>
      </trkpt>
      <trkpt lat="42.6546360" lon="-5.5006350">
        <ele>973.0</ele>
        <time>2021-08-21T04:45:43Z</time>
      </trkpt>
      <trkpt lat="42.6546490" lon="-5.5006380">
        <ele>973.0</ele>
        <time>2021-08-21T04:45:44Z</time>
      </trkpt>
      <trkpt lat="42.6546760" lon="-5.5006450">
        <ele>973.0</ele>
        <time>2021-08-21T04:45:45Z</time>
      </trkpt>
      <trkpt lat="42.6547030" lon="-5.5006560">
        <ele>973.0</ele>
        <time>2021-08-21T04:45:46Z</time>
      </trkpt>
      <trkpt lat="42.6547300" lon="-5.5006690">
        <ele>973.0</ele>
        <time>2021-08-21T04:45:47Z</time>
      </trkpt>
      <trkpt lat="42.6547550" lon="-5.5006810">
        <ele>973.0</ele>
        <time>2021-08-21T04:45:48Z</time>
      </trkpt>
      <trkpt lat="42.6547810" lon="-5.5006900">
        <ele>973.0</ele>
        <time>2021-08-21T04:45:49Z</time>
      </trkpt>
      <trkpt lat="42.6548070" lon="-5.5006970">
        <ele>973.0</ele>
        <time>2021-08-21T04:45:50Z</time>
      </trkpt>
      <trkpt lat="42.6548320" lon="-5.5007060">
        <ele>973.0</ele>
        <time>2021-08-21T04:45:51Z</time>
      </trkpt>
      <trkpt lat="42.6548590" lon="-5.5007100">
        <ele>973.0</ele>
        <time>2021-08-21T04:45:52Z</time>
      </trkpt>
      <trkpt lat="42.6548870" lon="-5.5007160">
        <ele>973.0</ele>
        <time>2021-08-21T04:45:53Z</time>
      </trkpt>
      <trkpt lat="42.6549140" lon="-5.5007230">
        <ele>973.0</ele>
        <time>2021-08-21T04:45:54Z</time>
      </trkpt>
      <trkpt lat="42.6549400" lon="-5.5007270">
        <ele>973.0</ele>
        <time>2021-08-21T04:45:55Z</time>
      </trkpt>
      <trkpt lat="42.6549680" lon="-5.5007240">
        <ele>973.0</ele>
        <time>2021-08-21T04:45:56Z</time>
      </trkpt>
      <trkpt lat="42.6549970" lon="-5.5007210">
        <ele>973.0</ele>
        <time>2021-08-21T04:45:57Z</time>
      </trkpt>
      <trkpt lat="42.6550250" lon="-5.5007200">
        <ele>973.0</ele>
        <time>2021-08-21T04:45:58Z</time>
      </trkpt>
      <trkpt lat="42.6550650" lon="-5.5007160">
        <ele>973.0</ele>
        <time>2021-08-21T04:45:59Z</time>
      </trkpt>
      <trkpt lat="42.6550780" lon="-5.5007140">
        <ele>973.0</ele>
        <time>2021-08-21T04:46:00Z</time>
      </trkpt>
      <trkpt lat="42.6551030" lon="-5.5007080">
        <ele>973.0</ele>
        <time>2021-08-21T04:46:01Z</time>
      </trkpt>
      <trkpt lat="42.6551280" lon="-5.5006990">
        <ele>973.0</ele>
        <time>2021-08-21T04:46:02Z</time>
      </trkpt>
      <trkpt lat="42.6551540" lon="-5.5006900">
        <ele>973.0</ele>
        <time>2021-08-21T04:46:03Z</time>
      </trkpt>
      <trkpt lat="42.6551940" lon="-5.5006810">
        <ele>973.0</ele>
        <time>2021-08-21T04:46:04Z</time>
      </trkpt>
      <trkpt lat="42.6552070" lon="-5.5006770">
        <ele>973.0</ele>
        <time>2021-08-21T04:46:05Z</time>
      </trkpt>
      <trkpt lat="42.6552330" lon="-5.5006660">
        <ele>972.0</ele>
        <time>2021-08-21T04:46:06Z</time>
      </trkpt>
      <trkpt lat="42.6552590" lon="-5.5006570">
        <ele>972.0</ele>
        <time>2021-08-21T04:46:07Z</time>
      </trkpt>
      <trkpt lat="42.6552860" lon="-5.5006510">
        <ele>972.0</ele>
        <time>2021-08-21T04:46:08Z</time>
      </trkpt>
      <trkpt lat="42.6553110" lon="-5.5006470">
        <ele>972.0</ele>
        <time>2021-08-21T04:46:09Z</time>
      </trkpt>
      <trkpt lat="42.6553380" lon="-5.5006430">
        <ele>972.0</ele>
        <time>2021-08-21T04:46:10Z</time>
      </trkpt>
      <trkpt lat="42.6553640" lon="-5.5006380">
        <ele>972.0</ele>
        <time>2021-08-21T04:46:11Z</time>
      </trkpt>
      <trkpt lat="42.6553890" lon="-5.5006330">
        <ele>972.0</ele>
        <time>2021-08-21T04:46:12Z</time>
      </trkpt>
      <trkpt lat="42.6554150" lon="-5.5006310">
        <ele>972.0</ele>
        <time>2021-08-21T04:46:13Z</time>
      </trkpt>
      <trkpt lat="42.6554410" lon="-5.5006290">
        <ele>972.0</ele>
        <time>2021-08-21T04:46:14Z</time>
      </trkpt>
      <trkpt lat="42.6554670" lon="-5.5006280">
        <ele>972.0</ele>
        <time>2021-08-21T04:46:15Z</time>
      </trkpt>
      <trkpt lat="42.6554910" lon="-5.5006280">
        <ele>972.0</ele>
        <time>2021-08-21T04:46:16Z</time>
      </trkpt>
      <trkpt lat="42.6555170" lon="-5.5006240">
        <ele>972.0</ele>
        <time>2021-08-21T04:46:17Z</time>
      </trkpt>
      <trkpt lat="42.6555410" lon="-5.5006180">
        <ele>972.0</ele>
        <time>2021-08-21T04:46:18Z</time>
      </trkpt>
      <trkpt lat="42.6555660" lon="-5.5006100">
        <ele>972.0</ele>
        <time>2021-08-21T04:46:19Z</time>
      </trkpt>
      <trkpt lat="42.6555880" lon="-5.5006010">
        <ele>972.0</ele>
        <time>2021-08-21T04:46:20Z</time>
      </trkpt>
      <trkpt lat="42.6556110" lon="-5.5005950">
        <ele>972.0</ele>
        <time>2021-08-21T04:46:21Z</time>
      </trkpt>
      <trkpt lat="42.6556350" lon="-5.5005870">
        <ele>972.0</ele>
        <time>2021-08-21T04:46:22Z</time>
      </trkpt>
      <trkpt lat="42.6556710" lon="-5.5005830">
        <ele>972.0</ele>
        <time>2021-08-21T04:46:23Z</time>
      </trkpt>
      <trkpt lat="42.6556840" lon="-5.5005820">
        <ele>972.0</ele>
        <time>2021-08-21T04:46:24Z</time>
      </trkpt>
      <trkpt lat="42.6557090" lon="-5.5005830">
        <ele>972.0</ele>
        <time>2021-08-21T04:46:25Z</time>
      </trkpt>
      <trkpt lat="42.6557350" lon="-5.5005800">
        <ele>972.0</ele>
        <time>2021-08-21T04:46:26Z</time>
      </trkpt>
      <trkpt lat="42.6557610" lon="-5.5005740">
        <ele>972.0</ele>
        <time>2021-08-21T04:46:27Z</time>
      </trkpt>
      <trkpt lat="42.6557870" lon="-5.5005660">
        <ele>972.0</ele>
        <time>2021-08-21T04:46:28Z</time>
      </trkpt>
      <trkpt lat="42.6558130" lon="-5.5005550">
        <ele>972.0</ele>
        <time>2021-08-21T04:46:29Z</time>
      </trkpt>
      <trkpt lat="42.6558370" lon="-5.5005470">
        <ele>972.0</ele>
        <time>2021-08-21T04:46:30Z</time>
      </trkpt>
      <trkpt lat="42.6558600" lon="-5.5005410">
        <ele>972.0</ele>
        <time>2021-08-21T04:46:31Z</time>
      </trkpt>
      <trkpt lat="42.6558840" lon="-5.5005360">
        <ele>972.0</ele>
        <time>2021-08-21T04:46:32Z</time>
      </trkpt>
      <trkpt lat="42.6559100" lon="-5.5005340">
        <ele>972.0</ele>
        <time>2021-08-21T04:46:33Z</time>
      </trkpt>
      <trkpt lat="42.6559360" lon="-5.5005320">
        <ele>972.0</ele>
        <time>2021-08-21T04:46:34Z</time>
      </trkpt>
      <trkpt lat="42.6559620" lon="-5.5005270">
        <ele>972.0</ele>
        <time>2021-08-21T04:46:35Z</time>
      </trkpt>
      <trkpt lat="42.6559880" lon="-5.5005210">
        <ele>972.0</ele>
        <time>2021-08-21T04:46:36Z</time>
      </trkpt>
      <trkpt lat="42.6560120" lon="-5.5005180">
        <ele>972.0</ele>
        <time>2021-08-21T04:46:37Z</time>
      </trkpt>
      <trkpt lat="42.6560390" lon="-5.5005120">
        <ele>972.0</ele>
        <time>2021-08-21T04:46:38Z</time>
      </trkpt>
      <trkpt lat="42.6560650" lon="-5.5005060">
        <ele>972.0</ele>
        <time>2021-08-21T04:46:39Z</time>
      </trkpt>
      <trkpt lat="42.6560910" lon="-5.5004970">
        <ele>972.0</ele>
        <time>2021-08-21T04:46:40Z</time>
      </trkpt>
      <trkpt lat="42.6561170" lon="-5.5004850">
        <ele>972.0</ele>
        <time>2021-08-21T04:46:41Z</time>
      </trkpt>
      <trkpt lat="42.6561550" lon="-5.5004710">
        <ele>972.0</ele>
        <time>2021-08-21T04:46:42Z</time>
      </trkpt>
      <trkpt lat="42.6561670" lon="-5.5004660">
        <ele>972.0</ele>
        <time>2021-08-21T04:46:43Z</time>
      </trkpt>
      <trkpt lat="42.6561900" lon="-5.5004590">
        <ele>972.0</ele>
        <time>2021-08-21T04:46:44Z</time>
      </trkpt>
      <trkpt lat="42.6562150" lon="-5.5004500">
        <ele>972.0</ele>
        <time>2021-08-21T04:46:45Z</time>
      </trkpt>
      <trkpt lat="42.6562380" lon="-5.5004460">
        <ele>972.0</ele>
        <time>2021-08-21T04:46:46Z</time>
      </trkpt>
      <trkpt lat="42.6562630" lon="-5.5004430">
        <ele>972.0</ele>
        <time>2021-08-21T04:46:47Z</time>
      </trkpt>
      <trkpt lat="42.6562880" lon="-5.5004400">
        <ele>972.0</ele>
        <time>2021-08-21T04:46:48Z</time>
      </trkpt>
      <trkpt lat="42.6563140" lon="-5.5004360">
        <ele>972.0</ele>
        <time>2021-08-21T04:46:49Z</time>
      </trkpt>
      <trkpt lat="42.6563400" lon="-5.5004300">
        <ele>972.0</ele>
        <time>2021-08-21T04:46:50Z</time>
      </trkpt>
      <trkpt lat="42.6563640" lon="-5.5004250">
        <ele>972.0</ele>
        <time>2021-08-21T04:46:51Z</time>
      </trkpt>
      <trkpt lat="42.6563890" lon="-5.5004200">
        <ele>972.0</ele>
        <time>2021-08-21T04:46:52Z</time>
      </trkpt>
      <trkpt lat="42.6564140" lon="-5.5004180">
        <ele>972.0</ele>
        <time>2021-08-21T04:46:53Z</time>
      </trkpt>
      <trkpt lat="42.6564400" lon="-5.5004150">
        <ele>972.0</ele>
        <time>2021-08-21T04:46:54Z</time>
      </trkpt>
      <trkpt lat="42.6564640" lon="-5.5004090">
        <ele>972.0</ele>
        <time>2021-08-21T04:46:55Z</time>
      </trkpt>
      <trkpt lat="42.6564890" lon="-5.5004040">
        <ele>972.0</ele>
        <time>2021-08-21T04:46:56Z</time>
      </trkpt>
      <trkpt lat="42.6565150" lon="-5.5003990">
        <ele>972.0</ele>
        <time>2021-08-21T04:46:57Z</time>
      </trkpt>
      <trkpt lat="42.6565390" lon="-5.5003950">
        <ele>972.0</ele>
        <time>2021-08-21T04:46:58Z</time>
      </trkpt>
      <trkpt lat="42.6565640" lon="-5.5003860">
        <ele>972.0</ele>
        <time>2021-08-21T04:46:59Z</time>
      </trkpt>
      <trkpt lat="42.6565870" lon="-5.5003770">
        <ele>972.0</ele>
        <time>2021-08-21T04:47:00Z</time>
      </trkpt>
      <trkpt lat="42.6566120" lon="-5.5003680">
        <ele>972.0</ele>
        <time>2021-08-21T04:47:01Z</time>
      </trkpt>
      <trkpt lat="42.6566360" lon="-5.5003570">
        <ele>972.0</ele>
        <time>2021-08-21T04:47:02Z</time>
      </trkpt>
      <trkpt lat="42.6566720" lon="-5.5003430">
        <ele>972.0</ele>
        <time>2021-08-21T04:47:03Z</time>
      </trkpt>
      <trkpt lat="42.6566830" lon="-5.5003380">
        <ele>972.0</ele>
        <time>2021-08-21T04:47:04Z</time>
      </trkpt>
      <trkpt lat="42.6567070" lon="-5.5003310">
        <ele>972.0</ele>
        <time>2021-08-21T04:47:05Z</time>
      </trkpt>
      <trkpt lat="42.6567310" lon="-5.5003210">
        <ele>972.0</ele>
        <time>2021-08-21T04:47:06Z</time>
      </trkpt>
      <trkpt lat="42.6567540" lon="-5.5003120">
        <ele>972.0</ele>
        <time>2021-08-21T04:47:07Z</time>
      </trkpt>
      <trkpt lat="42.6567760" lon="-5.5003020">
        <ele>972.0</ele>
        <time>2021-08-21T04:47:08Z</time>
      </trkpt>
      <trkpt lat="42.6567990" lon="-5.5002930">
        <ele>972.0</ele>
        <time>2021-08-21T04:47:09Z</time>
      </trkpt>
      <trkpt lat="42.6568230" lon="-5.5002860">
        <ele>972.0</ele>
        <time>2021-08-21T04:47:10Z</time>
      </trkpt>
      <trkpt lat="42.6568460" lon="-5.5002800">
        <ele>972.0</ele>
        <time>2021-08-21T04:47:11Z</time>
      </trkpt>
      <trkpt lat="42.6568840" lon="-5.5002750">
        <ele>972.0</ele>
        <time>2021-08-21T04:47:12Z</time>
      </trkpt>
      <trkpt lat="42.6568960" lon="-5.5002730">
        <ele>972.0</ele>
        <time>2021-08-21T04:47:13Z</time>
      </trkpt>
      <trkpt lat="42.6569210" lon="-5.5002690">
        <ele>972.0</ele>
        <time>2021-08-21T04:47:14Z</time>
      </trkpt>
      <trkpt lat="42.6569460" lon="-5.5002620">
        <ele>972.0</ele>
        <time>2021-08-21T04:47:15Z</time>
      </trkpt>
      <trkpt lat="42.6569690" lon="-5.5002520">
        <ele>973.0</ele>
        <time>2021-08-21T04:47:16Z</time>
      </trkpt>
      <trkpt lat="42.6569940" lon="-5.5002400">
        <ele>973.0</ele>
        <time>2021-08-21T04:47:17Z</time>
      </trkpt>
      <trkpt lat="42.6570300" lon="-5.5002220">
        <ele>973.0</ele>
        <time>2021-08-21T04:47:18Z</time>
      </trkpt>
      <trkpt lat="42.6570420" lon="-5.5002150">
        <ele>973.0</ele>
        <time>2021-08-21T04:47:19Z</time>
      </trkpt>
      <trkpt lat="42.6570780" lon="-5.5001910">
        <ele>973.0</ele>
        <time>2021-08-21T04:47:20Z</time>
      </trkpt>
      <trkpt lat="42.6570890" lon="-5.5001830">
        <ele>973.0</ele>
        <time>2021-08-21T04:47:21Z</time>
      </trkpt>
      <trkpt lat="42.6571110" lon="-5.5001660">
        <ele>973.0</ele>
        <time>2021-08-21T04:47:22Z</time>
      </trkpt>
      <trkpt lat="42.6571320" lon="-5.5001490">
        <ele>974.0</ele>
        <time>2021-08-21T04:47:23Z</time>
      </trkpt>
      <trkpt lat="42.6571490" lon="-5.5001250">
        <ele>974.0</ele>
        <time>2021-08-21T04:47:24Z</time>
      </trkpt>
      <trkpt lat="42.6571590" lon="-5.5000950">
        <ele>974.0</ele>
        <time>2021-08-21T04:47:25Z</time>
      </trkpt>
      <trkpt lat="42.6571540" lon="-5.5000640">
        <ele>974.0</ele>
        <time>2021-08-21T04:47:26Z</time>
      </trkpt>
      <trkpt lat="42.6571380" lon="-5.5000360">
        <ele>974.0</ele>
        <time>2021-08-21T04:47:27Z</time>
      </trkpt>
      <trkpt lat="42.6571220" lon="-5.5000110">
        <ele>974.0</ele>
        <time>2021-08-21T04:47:28Z</time>
      </trkpt>
      <trkpt lat="42.6571030" lon="-5.4999860">
        <ele>974.0</ele>
        <time>2021-08-21T04:47:29Z</time>
      </trkpt>
      <trkpt lat="42.6570840" lon="-5.4999620">
        <ele>974.0</ele>
        <time>2021-08-21T04:47:30Z</time>
      </trkpt>
      <trkpt lat="42.6570610" lon="-5.4999430">
        <ele>974.0</ele>
        <time>2021-08-21T04:47:31Z</time>
      </trkpt>
      <trkpt lat="42.6570360" lon="-5.4999280">
        <ele>974.0</ele>
        <time>2021-08-21T04:47:32Z</time>
      </trkpt>
      <trkpt lat="42.6570110" lon="-5.4999150">
        <ele>974.0</ele>
        <time>2021-08-21T04:47:33Z</time>
      </trkpt>
      <trkpt lat="42.6569850" lon="-5.4999050">
        <ele>974.0</ele>
        <time>2021-08-21T04:47:34Z</time>
      </trkpt>
      <trkpt lat="42.6569600" lon="-5.4998940">
        <ele>974.0</ele>
        <time>2021-08-21T04:47:35Z</time>
      </trkpt>
      <trkpt lat="42.6569350" lon="-5.4998800">
        <ele>974.0</ele>
        <time>2021-08-21T04:47:36Z</time>
      </trkpt>
      <trkpt lat="42.6569170" lon="-5.4998600">
        <ele>974.0</ele>
        <time>2021-08-21T04:47:37Z</time>
      </trkpt>
      <trkpt lat="42.6568980" lon="-5.4998360">
        <ele>974.0</ele>
        <time>2021-08-21T04:47:38Z</time>
      </trkpt>
      <trkpt lat="42.6568720" lon="-5.4998020">
        <ele>974.0</ele>
        <time>2021-08-21T04:47:39Z</time>
      </trkpt>
      <trkpt lat="42.6568630" lon="-5.4997910">
        <ele>974.0</ele>
        <time>2021-08-21T04:47:40Z</time>
      </trkpt>
      <trkpt lat="42.6568490" lon="-5.4997720">
        <ele>974.0</ele>
        <time>2021-08-21T04:47:41Z</time>
      </trkpt>
      <trkpt lat="42.6568490" lon="-5.4997720">
        <ele>974.0</ele>
        <time>2021-08-21T04:47:42Z</time>
      </trkpt>
      <trkpt lat="42.6568270" lon="-5.4997440">
        <ele>974.0</ele>
        <time>2021-08-21T04:47:43Z</time>
      </trkpt>
      <trkpt lat="42.6568040" lon="-5.4997200">
        <ele>974.0</ele>
        <time>2021-08-21T04:47:45Z</time>
      </trkpt>
      <trkpt lat="42.6568040" lon="-5.4997200">
        <ele>974.0</ele>
        <time>2021-08-21T04:47:46Z</time>
      </trkpt>
      <trkpt lat="42.6567870" lon="-5.4996940">
        <ele>974.0</ele>
        <time>2021-08-21T04:47:47Z</time>
      </trkpt>
      <trkpt lat="42.6567870" lon="-5.4996940">
        <ele>974.0</ele>
        <time>2021-08-21T04:47:48Z</time>
      </trkpt>
      <trkpt lat="42.6567660" lon="-5.4996650">
        <ele>974.0</ele>
        <time>2021-08-21T04:47:49Z</time>
      </trkpt>
      <trkpt lat="42.6567660" lon="-5.4996650">
        <ele>975.0</ele>
        <time>2021-08-21T04:47:50Z</time>
      </trkpt>
      <trkpt lat="42.6567470" lon="-5.4996420">
        <ele>975.0</ele>
        <time>2021-08-21T04:47:51Z</time>
      </trkpt>
      <trkpt lat="42.6567470" lon="-5.4996420">
        <ele>975.0</ele>
        <time>2021-08-21T04:47:52Z</time>
      </trkpt>
      <trkpt lat="42.6567330" lon="-5.4996110">
        <ele>975.0</ele>
        <time>2021-08-21T04:47:53Z</time>
      </trkpt>
      <trkpt lat="42.6567330" lon="-5.4996110">
        <ele>975.0</ele>
        <time>2021-08-21T04:47:54Z</time>
      </trkpt>
      <trkpt lat="42.6567220" lon="-5.4995830">
        <ele>975.0</ele>
        <time>2021-08-21T04:47:55Z</time>
      </trkpt>
      <trkpt lat="42.6567220" lon="-5.4995830">
        <ele>975.0</ele>
        <time>2021-08-21T04:47:56Z</time>
      </trkpt>
      <trkpt lat="42.6567220" lon="-5.4995830">
        <ele>975.0</ele>
        <time>2021-08-21T04:47:57Z</time>
      </trkpt>
      <trkpt lat="42.6567220" lon="-5.4995830">
        <ele>975.0</ele>
        <time>2021-08-21T04:47:58Z</time>
      </trkpt>
      <trkpt lat="42.6567040" lon="-5.4995700">
        <ele>975.0</ele>
        <time>2021-08-21T04:47:59Z</time>
      </trkpt>
      <trkpt lat="42.6567040" lon="-5.4995700">
        <ele>976.0</ele>
        <time>2021-08-21T04:48:00Z</time>
      </trkpt>
      <trkpt lat="42.6567040" lon="-5.4995700">
        <ele>976.0</ele>
        <time>2021-08-21T04:48:01Z</time>
      </trkpt>
      <trkpt lat="42.6566830" lon="-5.4995780">
        <ele>976.0</ele>
        <time>2021-08-21T04:48:03Z</time>
      </trkpt>
      <trkpt lat="42.6566660" lon="-5.4995860">
        <ele>976.0</ele>
        <time>2021-08-21T04:48:05Z</time>
      </trkpt>
      <trkpt lat="42.6566660" lon="-5.4995860">
        <ele>976.0</ele>
        <time>2021-08-21T04:48:06Z</time>
      </trkpt>
      <trkpt lat="42.6566660" lon="-5.4995860">
        <ele>976.0</ele>
        <time>2021-08-21T04:48:07Z</time>
      </trkpt>
      <trkpt lat="42.6566660" lon="-5.4995860">
        <ele>976.0</ele>
        <time>2021-08-21T04:48:09Z</time>
      </trkpt>
      <trkpt lat="42.6566660" lon="-5.4995860">
        <ele>976.0</ele>
        <time>2021-08-21T04:48:10Z</time>
      </trkpt>
      <trkpt lat="42.6566660" lon="-5.4995860">
        <ele>976.0</ele>
        <time>2021-08-21T04:48:12Z</time>
      </trkpt>
      <trkpt lat="42.6566660" lon="-5.4995860">
        <ele>976.0</ele>
        <time>2021-08-21T04:48:13Z</time>
      </trkpt>
      <trkpt lat="42.6566660" lon="-5.4995860">
        <ele>976.0</ele>
        <time>2021-08-21T04:48:15Z</time>
      </trkpt>
      <trkpt lat="42.6566660" lon="-5.4995860">
        <ele>976.0</ele>
        <time>2021-08-21T04:48:16Z</time>
      </trkpt>
      <trkpt lat="42.6566660" lon="-5.4995860">
        <ele>976.0</ele>
        <time>2021-08-21T04:48:17Z</time>
      </trkpt>
      <trkpt lat="42.6566660" lon="-5.4995860">
        <ele>976.0</ele>
        <time>2021-08-21T04:48:19Z</time>
      </trkpt>
      <trkpt lat="42.6566660" lon="-5.4995860">
        <ele>976.0</ele>
        <time>2021-08-21T04:48:20Z</time>
      </trkpt>
      <trkpt lat="42.6566660" lon="-5.4995860">
        <ele>976.0</ele>
        <time>2021-08-21T04:48:21Z</time>
      </trkpt>
      <trkpt lat="42.6566660" lon="-5.4995860">
        <ele>976.0</ele>
        <time>2021-08-21T04:48:23Z</time>
      </trkpt>
      <trkpt lat="42.6566660" lon="-5.4995860">
        <ele>976.0</ele>
        <time>2021-08-21T04:48:24Z</time>
      </trkpt>
      <trkpt lat="42.6566660" lon="-5.4995860">
        <ele>976.0</ele>
        <time>2021-08-21T04:48:25Z</time>
      </trkpt>
      <trkpt lat="42.6566660" lon="-5.4995860">
        <ele>976.0</ele>
        <time>2021-08-21T04:48:27Z</time>
      </trkpt>
      <trkpt lat="42.6566660" lon="-5.4995860">
        <ele>976.0</ele>
        <time>2021-08-21T04:48:29Z</time>
      </trkpt>
      <trkpt lat="42.6566660" lon="-5.4995860">
        <ele>976.0</ele>
        <time>2021-08-21T04:48:30Z</time>
      </trkpt>
      <trkpt lat="42.6566660" lon="-5.4995860">
        <ele>976.0</ele>
        <time>2021-08-21T04:48:32Z</time>
      </trkpt>
      <trkpt lat="42.6566660" lon="-5.4995860">
        <ele>976.0</ele>
        <time>2021-08-21T04:48:33Z</time>
      </trkpt>
      <trkpt lat="42.6566660" lon="-5.4995860">
        <ele>976.0</ele>
        <time>2021-08-21T04:48:35Z</time>
      </trkpt>
      <trkpt lat="42.6566660" lon="-5.4995860">
        <ele>976.0</ele>
        <time>2021-08-21T04:48:36Z</time>
      </trkpt>
      <trkpt lat="42.6566500" lon="-5.4996060">
        <ele>976.0</ele>
        <time>2021-08-21T04:48:37Z</time>
      </trkpt>
      <trkpt lat="42.6566500" lon="-5.4996060">
        <ele>976.0</ele>
        <time>2021-08-21T04:48:38Z</time>
      </trkpt>
      <trkpt lat="42.6566500" lon="-5.4996060">
        <ele>976.0</ele>
        <time>2021-08-21T04:48:39Z</time>
      </trkpt>
      <trkpt lat="42.6566500" lon="-5.4996060">
        <ele>976.0</ele>
        <time>2021-08-21T04:48:40Z</time>
      </trkpt>
      <trkpt lat="42.6566500" lon="-5.4996060">
        <ele>976.0</ele>
        <time>2021-08-21T04:48:41Z</time>
      </trkpt>
      <trkpt lat="42.6566660" lon="-5.4995920">
        <ele>976.0</ele>
        <time>2021-08-21T04:48:42Z</time>
      </trkpt>
      <trkpt lat="42.6566660" lon="-5.4995920">
        <ele>976.0</ele>
        <time>2021-08-21T04:48:43Z</time>
      </trkpt>
      <trkpt lat="42.6566890" lon="-5.4995960">
        <ele>976.0</ele>
        <time>2021-08-21T04:48:44Z</time>
      </trkpt>
      <trkpt lat="42.6566890" lon="-5.4995960">
        <ele>976.0</ele>
        <time>2021-08-21T04:48:45Z</time>
      </trkpt>
      <trkpt lat="42.6567090" lon="-5.4996020">
        <ele>976.0</ele>
        <time>2021-08-21T04:48:46Z</time>
      </trkpt>
      <trkpt lat="42.6567090" lon="-5.4996020">
        <ele>976.0</ele>
        <time>2021-08-21T04:48:47Z</time>
      </trkpt>
      <trkpt lat="42.6567180" lon="-5.4996300">
        <ele>976.0</ele>
        <time>2021-08-21T04:48:48Z</time>
      </trkpt>
      <trkpt lat="42.6567180" lon="-5.4996300">
        <ele>976.0</ele>
        <time>2021-08-21T04:48:49Z</time>
      </trkpt>
      <trkpt lat="42.6567320" lon="-5.4996560">
        <ele>976.0</ele>
        <time>2021-08-21T04:48:50Z</time>
      </trkpt>
      <trkpt lat="42.6567320" lon="-5.4996560">
        <ele>976.0</ele>
        <time>2021-08-21T04:48:51Z</time>
      </trkpt>
      <trkpt lat="42.6567480" lon="-5.4996780">
        <ele>976.0</ele>
        <time>2021-08-21T04:48:52Z</time>
      </trkpt>
      <trkpt lat="42.6567650" lon="-5.4997090">
        <ele>976.0</ele>
        <time>2021-08-21T04:48:54Z</time>
      </trkpt>
      <trkpt lat="42.6567650" lon="-5.4997090">
        <ele>976.0</ele>
        <time>2021-08-21T04:48:55Z</time>
      </trkpt>
      <trkpt lat="42.6567770" lon="-5.4997380">
        <ele>976.0</ele>
        <time>2021-08-21T04:48:56Z</time>
      </trkpt>
      <trkpt lat="42.6567770" lon="-5.4997380">
        <ele>976.0</ele>
        <time>2021-08-21T04:48:57Z</time>
      </trkpt>
      <trkpt lat="42.6567720" lon="-5.4997670">
        <ele>975.0</ele>
        <time>2021-08-21T04:48:58Z</time>
      </trkpt>
      <trkpt lat="42.6567720" lon="-5.4997670">
        <ele>976.0</ele>
        <time>2021-08-21T04:48:59Z</time>
      </trkpt>
      <trkpt lat="42.6567650" lon="-5.4998000">
        <ele>976.0</ele>
        <time>2021-08-21T04:49:00Z</time>
      </trkpt>
      <trkpt lat="42.6567650" lon="-5.4998000">
        <ele>976.0</ele>
        <time>2021-08-21T04:49:01Z</time>
      </trkpt>
      <trkpt lat="42.6567650" lon="-5.4998330">
        <ele>975.0</ele>
        <time>2021-08-21T04:49:02Z</time>
      </trkpt>
      <trkpt lat="42.6567650" lon="-5.4998330">
        <ele>975.0</ele>
        <time>2021-08-21T04:49:04Z</time>
      </trkpt>
      <trkpt lat="42.6567650" lon="-5.4998330">
        <ele>975.0</ele>
        <time>2021-08-21T04:49:05Z</time>
      </trkpt>
      <trkpt lat="42.6567650" lon="-5.4998330">
        <ele>975.0</ele>
        <time>2021-08-21T04:49:06Z</time>
      </trkpt>
      <trkpt lat="42.6567650" lon="-5.4998330">
        <ele>975.0</ele>
        <time>2021-08-21T04:49:07Z</time>
      </trkpt>
      <trkpt lat="42.6567650" lon="-5.4998330">
        <ele>975.0</ele>
        <time>2021-08-21T04:49:09Z</time>
      </trkpt>
      <trkpt lat="42.6567650" lon="-5.4998330">
        <ele>976.0</ele>
        <time>2021-08-21T04:49:10Z</time>
      </trkpt>
      <trkpt lat="42.6567650" lon="-5.4998330">
        <ele>975.0</ele>
        <time>2021-08-21T04:49:12Z</time>
      </trkpt>
      <trkpt lat="42.6567650" lon="-5.4998330">
        <ele>975.0</ele>
        <time>2021-08-21T04:49:13Z</time>
      </trkpt>
      <trkpt lat="42.6567650" lon="-5.4998330">
        <ele>975.0</ele>
        <time>2021-08-21T04:49:14Z</time>
      </trkpt>
      <trkpt lat="42.6567650" lon="-5.4998330">
        <ele>975.0</ele>
        <time>2021-08-21T04:49:16Z</time>
      </trkpt>
      <trkpt lat="42.6567650" lon="-5.4998330">
        <ele>975.0</ele>
        <time>2021-08-21T04:49:17Z</time>
      </trkpt>
      <trkpt lat="42.6567650" lon="-5.4998330">
        <ele>976.0</ele>
        <time>2021-08-21T04:49:19Z</time>
      </trkpt>
      <trkpt lat="42.6567650" lon="-5.4998330">
        <ele>976.0</ele>
        <time>2021-08-21T04:49:21Z</time>
      </trkpt>
      <trkpt lat="42.6567650" lon="-5.4998330">
        <ele>975.0</ele>
        <time>2021-08-21T04:49:22Z</time>
      </trkpt>
      <trkpt lat="42.6567650" lon="-5.4998330">
        <ele>975.0</ele>
        <time>2021-08-21T04:49:24Z</time>
      </trkpt>
      <trkpt lat="42.6567650" lon="-5.4998330">
        <ele>975.0</ele>
        <time>2021-08-21T04:49:26Z</time>
      </trkpt>
      <trkpt lat="42.6567650" lon="-5.4998330">
        <ele>975.0</ele>
        <time>2021-08-21T04:49:27Z</time>
      </trkpt>
      <trkpt lat="42.6567650" lon="-5.4998330">
        <ele>975.0</ele>
        <time>2021-08-21T04:49:28Z</time>
      </trkpt>
      <trkpt lat="42.6567650" lon="-5.4998330">
        <ele>975.0</ele>
        <time>2021-08-21T04:49:29Z</time>
      </trkpt>
      <trkpt lat="42.6567650" lon="-5.4998330">
        <ele>975.0</ele>
        <time>2021-08-21T04:49:30Z</time>
      </trkpt>
      <trkpt lat="42.6567650" lon="-5.4998330">
        <ele>975.0</ele>
        <time>2021-08-21T04:49:32Z</time>
      </trkpt>
      <trkpt lat="42.6567650" lon="-5.4998330">
        <ele>975.0</ele>
        <time>2021-08-21T04:49:33Z</time>
      </trkpt>
      <trkpt lat="42.6567650" lon="-5.4998330">
        <ele>975.0</ele>
        <time>2021-08-21T04:49:35Z</time>
      </trkpt>
      <trkpt lat="42.6567650" lon="-5.4998330">
        <ele>975.0</ele>
        <time>2021-08-21T04:49:36Z</time>
      </trkpt>
      <trkpt lat="42.6567650" lon="-5.4998330">
        <ele>975.0</ele>
        <time>2021-08-21T04:49:37Z</time>
      </trkpt>
      <trkpt lat="42.6567650" lon="-5.4998330">
        <ele>975.0</ele>
        <time>2021-08-21T04:49:38Z</time>
      </trkpt>
      <trkpt lat="42.6567650" lon="-5.4998330">
        <ele>975.0</ele>
        <time>2021-08-21T04:49:39Z</time>
      </trkpt>
      <trkpt lat="42.6567650" lon="-5.4998330">
        <ele>975.0</ele>
        <time>2021-08-21T04:49:40Z</time>
      </trkpt>
      <trkpt lat="42.6567650" lon="-5.4998330">
        <ele>975.0</ele>
        <time>2021-08-21T04:49:42Z</time>
      </trkpt>
      <trkpt lat="42.6567650" lon="-5.4998330">
        <ele>975.0</ele>
        <time>2021-08-21T04:49:43Z</time>
      </trkpt>
      <trkpt lat="42.6567650" lon="-5.4998330">
        <ele>975.0</ele>
        <time>2021-08-21T04:49:44Z</time>
      </trkpt>
      <trkpt lat="42.6567650" lon="-5.4998330">
        <ele>975.0</ele>
        <time>2021-08-21T04:49:46Z</time>
      </trkpt>
      <trkpt lat="42.6567650" lon="-5.4998330">
        <ele>975.0</ele>
        <time>2021-08-21T04:49:47Z</time>
      </trkpt>
      <trkpt lat="42.6567650" lon="-5.4998330">
        <ele>975.0</ele>
        <time>2021-08-21T04:49:49Z</time>
      </trkpt>
      <trkpt lat="42.6567650" lon="-5.4998330">
        <ele>975.0</ele>
        <time>2021-08-21T04:49:51Z</time>
      </trkpt>
      <trkpt lat="42.6567650" lon="-5.4998330">
        <ele>975.0</ele>
        <time>2021-08-21T04:49:52Z</time>
      </trkpt>
      <trkpt lat="42.6567650" lon="-5.4998330">
        <ele>975.0</ele>
        <time>2021-08-21T04:49:54Z</time>
      </trkpt>
      <trkpt lat="42.6567650" lon="-5.4998330">
        <ele>975.0</ele>
        <time>2021-08-21T04:49:55Z</time>
      </trkpt>
      <trkpt lat="42.6567650" lon="-5.4998330">
        <ele>975.0</ele>
        <time>2021-08-21T04:49:57Z</time>
      </trkpt>
      <trkpt lat="42.6567650" lon="-5.4998620">
        <ele>975.0</ele>
        <time>2021-08-21T04:49:58Z</time>
      </trkpt>
      <trkpt lat="42.6567650" lon="-5.4998620">
        <ele>975.0</ele>
        <time>2021-08-21T04:49:59Z</time>
      </trkpt>
      <trkpt lat="42.6567650" lon="-5.4998620">
        <ele>975.0</ele>
        <time>2021-08-21T04:50:00Z</time>
      </trkpt>
      <trkpt lat="42.6567650" lon="-5.4998620">
        <ele>975.0</ele>
        <time>2021-08-21T04:50:01Z</time>
      </trkpt>
      <trkpt lat="42.6567650" lon="-5.4998620">
        <ele>975.0</ele>
        <time>2021-08-21T04:50:03Z</time>
      </trkpt>
      <trkpt lat="42.6567650" lon="-5.4998620">
        <ele>975.0</ele>
        <time>2021-08-21T04:50:04Z</time>
      </trkpt>
      <trkpt lat="42.6567650" lon="-5.4998620">
        <ele>975.0</ele>
        <time>2021-08-21T04:50:06Z</time>
      </trkpt>
      <trkpt lat="42.6567650" lon="-5.4998620">
        <ele>975.0</ele>
        <time>2021-08-21T04:50:07Z</time>
      </trkpt>
      <trkpt lat="42.6567650" lon="-5.4998620">
        <ele>975.0</ele>
        <time>2021-08-21T04:50:08Z</time>
      </trkpt>
      <trkpt lat="42.6567650" lon="-5.4998620">
        <ele>975.0</ele>
        <time>2021-08-21T04:50:10Z</time>
      </trkpt>
      <trkpt lat="42.6567650" lon="-5.4998620">
        <ele>975.0</ele>
        <time>2021-08-21T04:50:11Z</time>
      </trkpt>
      <trkpt lat="42.6567650" lon="-5.4998620">
        <ele>975.0</ele>
        <time>2021-08-21T04:50:12Z</time>
      </trkpt>
      <trkpt lat="42.6567650" lon="-5.4998620">
        <ele>975.0</ele>
        <time>2021-08-21T04:50:14Z</time>
      </trkpt>
      <trkpt lat="42.6567650" lon="-5.4998620">
        <ele>975.0</ele>
        <time>2021-08-21T04:50:15Z</time>
      </trkpt>
      <trkpt lat="42.6567650" lon="-5.4998620">
        <ele>975.0</ele>
        <time>2021-08-21T04:50:17Z</time>
      </trkpt>
      <trkpt lat="42.6567650" lon="-5.4998620">
        <ele>975.0</ele>
        <time>2021-08-21T04:50:18Z</time>
      </trkpt>
      <trkpt lat="42.6567650" lon="-5.4998620">
        <ele>975.0</ele>
        <time>2021-08-21T04:50:20Z</time>
      </trkpt>
      <trkpt lat="42.6567650" lon="-5.4998620">
        <ele>975.0</ele>
        <time>2021-08-21T04:50:21Z</time>
      </trkpt>
      <trkpt lat="42.6567650" lon="-5.4998620">
        <ele>975.0</ele>
        <time>2021-08-21T04:50:23Z</time>
      </trkpt>
      <trkpt lat="42.6567650" lon="-5.4998620">
        <ele>975.0</ele>
        <time>2021-08-21T04:50:24Z</time>
      </trkpt>
      <trkpt lat="42.6567650" lon="-5.4998620">
        <ele>975.0</ele>
        <time>2021-08-21T04:50:25Z</time>
      </trkpt>
      <trkpt lat="42.6567650" lon="-5.4998620">
        <ele>976.0</ele>
        <time>2021-08-21T04:50:27Z</time>
      </trkpt>
      <trkpt lat="42.6567650" lon="-5.4998620">
        <ele>976.0</ele>
        <time>2021-08-21T04:50:28Z</time>
      </trkpt>
      <trkpt lat="42.6567650" lon="-5.4998620">
        <ele>976.0</ele>
        <time>2021-08-21T04:50:29Z</time>
      </trkpt>
      <trkpt lat="42.6567650" lon="-5.4998620">
        <ele>975.0</ele>
        <time>2021-08-21T04:50:30Z</time>
      </trkpt>
      <trkpt lat="42.6567650" lon="-5.4998620">
        <ele>975.0</ele>
        <time>2021-08-21T04:50:31Z</time>
      </trkpt>
      <trkpt lat="42.6567650" lon="-5.4998620">
        <ele>975.0</ele>
        <time>2021-08-21T04:50:33Z</time>
      </trkpt>
      <trkpt lat="42.6567650" lon="-5.4998620">
        <ele>976.0</ele>
        <time>2021-08-21T04:50:34Z</time>
      </trkpt>
      <trkpt lat="42.6567650" lon="-5.4998620">
        <ele>976.0</ele>
        <time>2021-08-21T04:50:35Z</time>
      </trkpt>
      <trkpt lat="42.6567650" lon="-5.4998620">
        <ele>976.0</ele>
        <time>2021-08-21T04:50:36Z</time>
      </trkpt>
      <trkpt lat="42.6567650" lon="-5.4998620">
        <ele>976.0</ele>
        <time>2021-08-21T04:50:37Z</time>
      </trkpt>
      <trkpt lat="42.6567650" lon="-5.4998620">
        <ele>976.0</ele>
        <time>2021-08-21T04:50:38Z</time>
      </trkpt>
      <trkpt lat="42.6567650" lon="-5.4998620">
        <ele>976.0</ele>
        <time>2021-08-21T04:50:39Z</time>
      </trkpt>
      <trkpt lat="42.6567650" lon="-5.4998620">
        <ele>976.0</ele>
        <time>2021-08-21T04:50:40Z</time>
      </trkpt>
      <trkpt lat="42.6567650" lon="-5.4998620">
        <ele>976.0</ele>
        <time>2021-08-21T04:50:42Z</time>
      </trkpt>
      <trkpt lat="42.6567650" lon="-5.4998620">
        <ele>976.0</ele>
        <time>2021-08-21T04:50:43Z</time>
      </trkpt>
      <trkpt lat="42.6567650" lon="-5.4998620">
        <ele>976.0</ele>
        <time>2021-08-21T04:50:44Z</time>
      </trkpt>
      <trkpt lat="42.6567650" lon="-5.4998620">
        <ele>976.0</ele>
        <time>2021-08-21T04:50:46Z</time>
      </trkpt>
      <trkpt lat="42.6567650" lon="-5.4998620">
        <ele>976.0</ele>
        <time>2021-08-21T04:50:47Z</time>
      </trkpt>
      <trkpt lat="42.6567650" lon="-5.4998620">
        <ele>976.0</ele>
        <time>2021-08-21T04:50:48Z</time>
      </trkpt>
      <trkpt lat="42.6567650" lon="-5.4998620">
        <ele>976.0</ele>
        <time>2021-08-21T04:50:49Z</time>
      </trkpt>
      <trkpt lat="42.6567650" lon="-5.4998620">
        <ele>976.0</ele>
        <time>2021-08-21T04:50:50Z</time>
      </trkpt>
      <trkpt lat="42.6567650" lon="-5.4998620">
        <ele>976.0</ele>
        <time>2021-08-21T04:50:51Z</time>
      </trkpt>
      <trkpt lat="42.6567650" lon="-5.4998620">
        <ele>976.0</ele>
        <time>2021-08-21T04:50:53Z</time>
      </trkpt>
      <trkpt lat="42.6567650" lon="-5.4998620">
        <ele>976.0</ele>
        <time>2021-08-21T04:50:55Z</time>
      </trkpt>
      <trkpt lat="42.6567650" lon="-5.4998620">
        <ele>976.0</ele>
        <time>2021-08-21T04:50:56Z</time>
      </trkpt>
      <trkpt lat="42.6567650" lon="-5.4998620">
        <ele>976.0</ele>
        <time>2021-08-21T04:50:57Z</time>
      </trkpt>
      <trkpt lat="42.6567650" lon="-5.4998620">
        <ele>976.0</ele>
        <time>2021-08-21T04:50:59Z</time>
      </trkpt>
      <trkpt lat="42.6567650" lon="-5.4998620">
        <ele>976.0</ele>
        <time>2021-08-21T04:51:00Z</time>
      </trkpt>
      <trkpt lat="42.6567650" lon="-5.4998620">
        <ele>976.0</ele>
        <time>2021-08-21T04:51:01Z</time>
      </trkpt>
      <trkpt lat="42.6567650" lon="-5.4998620">
        <ele>976.0</ele>
        <time>2021-08-21T04:51:03Z</time>
      </trkpt>
      <trkpt lat="42.6567650" lon="-5.4998620">
        <ele>975.0</ele>
        <time>2021-08-21T04:51:05Z</time>
      </trkpt>
      <trkpt lat="42.6567650" lon="-5.4998620">
        <ele>975.0</ele>
        <time>2021-08-21T04:51:06Z</time>
      </trkpt>
      <trkpt lat="42.6567650" lon="-5.4998620">
        <ele>976.0</ele>
        <time>2021-08-21T04:51:07Z</time>
      </trkpt>
      <trkpt lat="42.6567650" lon="-5.4998620">
        <ele>976.0</ele>
        <time>2021-08-21T04:51:08Z</time>
      </trkpt>
      <trkpt lat="42.6567650" lon="-5.4998620">
        <ele>976.0</ele>
        <time>2021-08-21T04:51:10Z</time>
      </trkpt>
      <trkpt lat="42.6567650" lon="-5.4998620">
        <ele>976.0</ele>
        <time>2021-08-21T04:51:12Z</time>
      </trkpt>
      <trkpt lat="42.6567650" lon="-5.4998620">
        <ele>975.0</ele>
        <time>2021-08-21T04:51:13Z</time>
      </trkpt>
      <trkpt lat="42.6567650" lon="-5.4998620">
        <ele>975.0</ele>
        <time>2021-08-21T04:51:15Z</time>
      </trkpt>
      <trkpt lat="42.6567650" lon="-5.4998620">
        <ele>975.0</ele>
        <time>2021-08-21T04:51:17Z</time>
      </trkpt>
      <trkpt lat="42.6567650" lon="-5.4998620">
        <ele>976.0</ele>
        <time>2021-08-21T04:51:18Z</time>
      </trkpt>
      <trkpt lat="42.6567650" lon="-5.4998620">
        <ele>976.0</ele>
        <time>2021-08-21T04:51:19Z</time>
      </trkpt>
      <trkpt lat="42.6567650" lon="-5.4998620">
        <ele>976.0</ele>
        <time>2021-08-21T04:51:20Z</time>
      </trkpt>
      <trkpt lat="42.6567650" lon="-5.4998620">
        <ele>976.0</ele>
        <time>2021-08-21T04:51:22Z</time>
      </trkpt>
      <trkpt lat="42.6567650" lon="-5.4998620">
        <ele>976.0</ele>
        <time>2021-08-21T04:51:23Z</time>
      </trkpt>
      <trkpt lat="42.6567650" lon="-5.4998620">
        <ele>976.0</ele>
        <time>2021-08-21T04:51:24Z</time>
      </trkpt>
      <trkpt lat="42.6567650" lon="-5.4998620">
        <ele>976.0</ele>
        <time>2021-08-21T04:51:26Z</time>
      </trkpt>
      <trkpt lat="42.6567650" lon="-5.4998620">
        <ele>976.0</ele>
        <time>2021-08-21T04:51:27Z</time>
      </trkpt>
      <trkpt lat="42.6567650" lon="-5.4998620">
        <ele>976.0</ele>
        <time>2021-08-21T04:51:28Z</time>
      </trkpt>
      <trkpt lat="42.6567650" lon="-5.4998620">
        <ele>976.0</ele>
        <time>2021-08-21T04:51:29Z</time>
      </trkpt>
      <trkpt lat="42.6567650" lon="-5.4998620">
        <ele>976.0</ele>
        <time>2021-08-21T04:51:30Z</time>
      </trkpt>
      <trkpt lat="42.6567650" lon="-5.4998620">
        <ele>976.0</ele>
        <time>2021-08-21T04:51:31Z</time>
      </trkpt>
      <trkpt lat="42.6567650" lon="-5.4998620">
        <ele>976.0</ele>
        <time>2021-08-21T04:51:32Z</time>
      </trkpt>
      <trkpt lat="42.6567650" lon="-5.4998620">
        <ele>976.0</ele>
        <time>2021-08-21T04:51:33Z</time>
      </trkpt>
      <trkpt lat="42.6567650" lon="-5.4998620">
        <ele>976.0</ele>
        <time>2021-08-21T04:51:34Z</time>
      </trkpt>
      <trkpt lat="42.6567650" lon="-5.4998620">
        <ele>976.0</ele>
        <time>2021-08-21T04:51:35Z</time>
      </trkpt>
      <trkpt lat="42.6567650" lon="-5.4998620">
        <ele>976.0</ele>
        <time>2021-08-21T04:51:36Z</time>
      </trkpt>
      <trkpt lat="42.6567650" lon="-5.4998620">
        <ele>976.0</ele>
        <time>2021-08-21T04:51:37Z</time>
      </trkpt>
      <trkpt lat="42.6567650" lon="-5.4998620">
        <ele>976.0</ele>
        <time>2021-08-21T04:51:38Z</time>
      </trkpt>
      <trkpt lat="42.6567650" lon="-5.4998620">
        <ele>976.0</ele>
        <time>2021-08-21T04:51:40Z</time>
      </trkpt>
      <trkpt lat="42.6567650" lon="-5.4998620">
        <ele>976.0</ele>
        <time>2021-08-21T04:51:41Z</time>
      </trkpt>
      <trkpt lat="42.6567650" lon="-5.4998620">
        <ele>976.0</ele>
        <time>2021-08-21T04:51:42Z</time>
      </trkpt>
      <trkpt lat="42.6567650" lon="-5.4998620">
        <ele>975.0</ele>
        <time>2021-08-21T04:51:43Z</time>
      </trkpt>
      <trkpt lat="42.6567690" lon="-5.4998350">
        <ele>975.0</ele>
        <time>2021-08-21T04:51:44Z</time>
      </trkpt>
      <trkpt lat="42.6567690" lon="-5.4998350">
        <ele>975.0</ele>
        <time>2021-08-21T04:51:45Z</time>
      </trkpt>
      <trkpt lat="42.6567690" lon="-5.4998350">
        <ele>975.0</ele>
        <time>2021-08-21T04:51:46Z</time>
      </trkpt>
      <trkpt lat="42.6567690" lon="-5.4998350">
        <ele>975.0</ele>
        <time>2021-08-21T04:51:47Z</time>
      </trkpt>
      <trkpt lat="42.6567690" lon="-5.4998350">
        <ele>975.0</ele>
        <time>2021-08-21T04:51:48Z</time>
      </trkpt>
      <trkpt lat="42.6567690" lon="-5.4998350">
        <ele>975.0</ele>
        <time>2021-08-21T04:51:49Z</time>
      </trkpt>
      <trkpt lat="42.6567690" lon="-5.4998350">
        <ele>975.0</ele>
        <time>2021-08-21T04:51:50Z</time>
      </trkpt>
      <trkpt lat="42.6567690" lon="-5.4998350">
        <ele>975.0</ele>
        <time>2021-08-21T04:51:51Z</time>
      </trkpt>
      <trkpt lat="42.6567690" lon="-5.4998350">
        <ele>975.0</ele>
        <time>2021-08-21T04:51:52Z</time>
      </trkpt>
      <trkpt lat="42.6567690" lon="-5.4998350">
        <ele>975.0</ele>
        <time>2021-08-21T04:51:53Z</time>
      </trkpt>
      <trkpt lat="42.6567690" lon="-5.4998350">
        <ele>975.0</ele>
        <time>2021-08-21T04:51:54Z</time>
      </trkpt>
      <trkpt lat="42.6567690" lon="-5.4998350">
        <ele>975.0</ele>
        <time>2021-08-21T04:51:55Z</time>
      </trkpt>
      <trkpt lat="42.6567690" lon="-5.4998350">
        <ele>975.0</ele>
        <time>2021-08-21T04:51:57Z</time>
      </trkpt>
      <trkpt lat="42.6567690" lon="-5.4998350">
        <ele>975.0</ele>
        <time>2021-08-21T04:51:58Z</time>
      </trkpt>
      <trkpt lat="42.6567690" lon="-5.4998350">
        <ele>975.0</ele>
        <time>2021-08-21T04:51:59Z</time>
      </trkpt>
      <trkpt lat="42.6567690" lon="-5.4998350">
        <ele>975.0</ele>
        <time>2021-08-21T04:52:00Z</time>
      </trkpt>
      <trkpt lat="42.6567690" lon="-5.4998350">
        <ele>975.0</ele>
        <time>2021-08-21T04:52:01Z</time>
      </trkpt>
      <trkpt lat="42.6567690" lon="-5.4998350">
        <ele>975.0</ele>
        <time>2021-08-21T04:52:02Z</time>
      </trkpt>
      <trkpt lat="42.6567690" lon="-5.4998350">
        <ele>975.0</ele>
        <time>2021-08-21T04:52:04Z</time>
      </trkpt>
      <trkpt lat="42.6567690" lon="-5.4998350">
        <ele>975.0</ele>
        <time>2021-08-21T04:52:05Z</time>
      </trkpt>
      <trkpt lat="42.6567690" lon="-5.4998350">
        <ele>975.0</ele>
        <time>2021-08-21T04:52:06Z</time>
      </trkpt>
      <trkpt lat="42.6567690" lon="-5.4998350">
        <ele>975.0</ele>
        <time>2021-08-21T04:52:07Z</time>
      </trkpt>
      <trkpt lat="42.6567690" lon="-5.4998350">
        <ele>975.0</ele>
        <time>2021-08-21T04:52:08Z</time>
      </trkpt>
      <trkpt lat="42.6567690" lon="-5.4998350">
        <ele>975.0</ele>
        <time>2021-08-21T04:52:09Z</time>
      </trkpt>
      <trkpt lat="42.6567690" lon="-5.4998350">
        <ele>975.0</ele>
        <time>2021-08-21T04:52:10Z</time>
      </trkpt>
      <trkpt lat="42.6567690" lon="-5.4998350">
        <ele>975.0</ele>
        <time>2021-08-21T04:52:11Z</time>
      </trkpt>
      <trkpt lat="42.6567690" lon="-5.4998350">
        <ele>975.0</ele>
        <time>2021-08-21T04:52:13Z</time>
      </trkpt>
      <trkpt lat="42.6567690" lon="-5.4998350">
        <ele>975.0</ele>
        <time>2021-08-21T04:52:14Z</time>
      </trkpt>
      <trkpt lat="42.6567690" lon="-5.4998350">
        <ele>975.0</ele>
        <time>2021-08-21T04:52:15Z</time>
      </trkpt>
      <trkpt lat="42.6567690" lon="-5.4998350">
        <ele>975.0</ele>
        <time>2021-08-21T04:52:16Z</time>
      </trkpt>
      <trkpt lat="42.6567690" lon="-5.4998350">
        <ele>975.0</ele>
        <time>2021-08-21T04:52:17Z</time>
      </trkpt>
      <trkpt lat="42.6567690" lon="-5.4998350">
        <ele>975.0</ele>
        <time>2021-08-21T04:52:18Z</time>
      </trkpt>
      <trkpt lat="42.6567690" lon="-5.4998350">
        <ele>975.0</ele>
        <time>2021-08-21T04:52:19Z</time>
      </trkpt>
      <trkpt lat="42.6567690" lon="-5.4998350">
        <ele>975.0</ele>
        <time>2021-08-21T04:52:20Z</time>
      </trkpt>
      <trkpt lat="42.6567690" lon="-5.4998350">
        <ele>975.0</ele>
        <time>2021-08-21T04:52:21Z</time>
      </trkpt>
      <trkpt lat="42.6567690" lon="-5.4998350">
        <ele>975.0</ele>
        <time>2021-08-21T04:52:23Z</time>
      </trkpt>
      <trkpt lat="42.6567690" lon="-5.4998350">
        <ele>975.0</ele>
        <time>2021-08-21T04:52:24Z</time>
      </trkpt>
      <trkpt lat="42.6567690" lon="-5.4998350">
        <ele>975.0</ele>
        <time>2021-08-21T04:52:25Z</time>
      </trkpt>
      <trkpt lat="42.6567690" lon="-5.4998350">
        <ele>975.0</ele>
        <time>2021-08-21T04:52:26Z</time>
      </trkpt>
      <trkpt lat="42.6567690" lon="-5.4998350">
        <ele>975.0</ele>
        <time>2021-08-21T04:52:27Z</time>
      </trkpt>
      <trkpt lat="42.6567690" lon="-5.4998350">
        <ele>975.0</ele>
        <time>2021-08-21T04:52:28Z</time>
      </trkpt>
      <trkpt lat="42.6567690" lon="-5.4998350">
        <ele>975.0</ele>
        <time>2021-08-21T04:52:30Z</time>
      </trkpt>
      <trkpt lat="42.6567690" lon="-5.4998350">
        <ele>975.0</ele>
        <time>2021-08-21T04:52:31Z</time>
      </trkpt>
      <trkpt lat="42.6567690" lon="-5.4998350">
        <ele>975.0</ele>
        <time>2021-08-21T04:52:32Z</time>
      </trkpt>
      <trkpt lat="42.6567690" lon="-5.4998350">
        <ele>975.0</ele>
        <time>2021-08-21T04:52:33Z</time>
      </trkpt>
      <trkpt lat="42.6567690" lon="-5.4998350">
        <ele>975.0</ele>
        <time>2021-08-21T04:52:34Z</time>
      </trkpt>
      <trkpt lat="42.6567690" lon="-5.4998350">
        <ele>975.0</ele>
        <time>2021-08-21T04:52:35Z</time>
      </trkpt>
      <trkpt lat="42.6567690" lon="-5.4998350">
        <ele>975.0</ele>
        <time>2021-08-21T04:52:36Z</time>
      </trkpt>
      <trkpt lat="42.6567690" lon="-5.4998350">
        <ele>975.0</ele>
        <time>2021-08-21T04:52:37Z</time>
      </trkpt>
      <trkpt lat="42.6567690" lon="-5.4998350">
        <ele>975.0</ele>
        <time>2021-08-21T04:52:38Z</time>
      </trkpt>
      <trkpt lat="42.6567690" lon="-5.4998350">
        <ele>975.0</ele>
        <time>2021-08-21T04:52:39Z</time>
      </trkpt>
      <trkpt lat="42.6567690" lon="-5.4998350">
        <ele>975.0</ele>
        <time>2021-08-21T04:52:40Z</time>
      </trkpt>
      <trkpt lat="42.6567690" lon="-5.4998350">
        <ele>975.0</ele>
        <time>2021-08-21T04:52:42Z</time>
      </trkpt>
      <trkpt lat="42.6567690" lon="-5.4998350">
        <ele>975.0</ele>
        <time>2021-08-21T04:52:43Z</time>
      </trkpt>
      <trkpt lat="42.6567690" lon="-5.4998350">
        <ele>975.0</ele>
        <time>2021-08-21T04:52:44Z</time>
      </trkpt>
      <trkpt lat="42.6567690" lon="-5.4998350">
        <ele>975.0</ele>
        <time>2021-08-21T04:52:45Z</time>
      </trkpt>
      <trkpt lat="42.6567690" lon="-5.4998350">
        <ele>975.0</ele>
        <time>2021-08-21T04:52:47Z</time>
      </trkpt>
      <trkpt lat="42.6567690" lon="-5.4998350">
        <ele>975.0</ele>
        <time>2021-08-21T04:52:48Z</time>
      </trkpt>
      <trkpt lat="42.6567690" lon="-5.4998350">
        <ele>975.0</ele>
        <time>2021-08-21T04:52:49Z</time>
      </trkpt>
      <trkpt lat="42.6567900" lon="-5.4998330">
        <ele>975.0</ele>
        <time>2021-08-21T04:52:50Z</time>
      </trkpt>
      <trkpt lat="42.6567900" lon="-5.4998330">
        <ele>975.0</ele>
        <time>2021-08-21T04:52:51Z</time>
      </trkpt>
      <trkpt lat="42.6567900" lon="-5.4998330">
        <ele>975.0</ele>
        <time>2021-08-21T04:52:52Z</time>
      </trkpt>
      <trkpt lat="42.6567900" lon="-5.4998330">
        <ele>975.0</ele>
        <time>2021-08-21T04:52:53Z</time>
      </trkpt>
      <trkpt lat="42.6567900" lon="-5.4998330">
        <ele>975.0</ele>
        <time>2021-08-21T04:52:54Z</time>
      </trkpt>
      <trkpt lat="42.6567900" lon="-5.4998330">
        <ele>975.0</ele>
        <time>2021-08-21T04:52:55Z</time>
      </trkpt>
      <trkpt lat="42.6567900" lon="-5.4998330">
        <ele>975.0</ele>
        <time>2021-08-21T04:52:56Z</time>
      </trkpt>
      <trkpt lat="42.6567900" lon="-5.4998330">
        <ele>975.0</ele>
        <time>2021-08-21T04:52:57Z</time>
      </trkpt>
      <trkpt lat="42.6567900" lon="-5.4998330">
        <ele>975.0</ele>
        <time>2021-08-21T04:52:58Z</time>
      </trkpt>
      <trkpt lat="42.6567900" lon="-5.4998330">
        <ele>975.0</ele>
        <time>2021-08-21T04:52:59Z</time>
      </trkpt>
      <trkpt lat="42.6567900" lon="-5.4998330">
        <ele>975.0</ele>
        <time>2021-08-21T04:53:01Z</time>
      </trkpt>
      <trkpt lat="42.6567900" lon="-5.4998330">
        <ele>975.0</ele>
        <time>2021-08-21T04:53:02Z</time>
      </trkpt>
      <trkpt lat="42.6567900" lon="-5.4998330">
        <ele>975.0</ele>
        <time>2021-08-21T04:53:03Z</time>
      </trkpt>
      <trkpt lat="42.6567900" lon="-5.4998330">
        <ele>975.0</ele>
        <time>2021-08-21T04:53:04Z</time>
      </trkpt>
      <trkpt lat="42.6567900" lon="-5.4998330">
        <ele>975.0</ele>
        <time>2021-08-21T04:53:05Z</time>
      </trkpt>
      <trkpt lat="42.6567900" lon="-5.4998330">
        <ele>975.0</ele>
        <time>2021-08-21T04:53:06Z</time>
      </trkpt>
      <trkpt lat="42.6567900" lon="-5.4998330">
        <ele>975.0</ele>
        <time>2021-08-21T04:53:07Z</time>
      </trkpt>
      <trkpt lat="42.6567900" lon="-5.4998330">
        <ele>975.0</ele>
        <time>2021-08-21T04:53:08Z</time>
      </trkpt>
      <trkpt lat="42.6567900" lon="-5.4998330">
        <ele>975.0</ele>
        <time>2021-08-21T04:53:09Z</time>
      </trkpt>
      <trkpt lat="42.6567900" lon="-5.4998330">
        <ele>975.0</ele>
        <time>2021-08-21T04:53:10Z</time>
      </trkpt>
      <trkpt lat="42.6567900" lon="-5.4998330">
        <ele>975.0</ele>
        <time>2021-08-21T04:53:11Z</time>
      </trkpt>
      <trkpt lat="42.6567900" lon="-5.4998330">
        <ele>975.0</ele>
        <time>2021-08-21T04:53:12Z</time>
      </trkpt>
      <trkpt lat="42.6567900" lon="-5.4998330">
        <ele>975.0</ele>
        <time>2021-08-21T04:53:13Z</time>
      </trkpt>
      <trkpt lat="42.6567900" lon="-5.4998330">
        <ele>975.0</ele>
        <time>2021-08-21T04:53:14Z</time>
      </trkpt>
      <trkpt lat="42.6567900" lon="-5.4998330">
        <ele>975.0</ele>
        <time>2021-08-21T04:53:15Z</time>
      </trkpt>
      <trkpt lat="42.6567900" lon="-5.4998330">
        <ele>975.0</ele>
        <time>2021-08-21T04:53:16Z</time>
      </trkpt>
      <trkpt lat="42.6567900" lon="-5.4998330">
        <ele>975.0</ele>
        <time>2021-08-21T04:53:17Z</time>
      </trkpt>
      <trkpt lat="42.6567900" lon="-5.4998330">
        <ele>976.0</ele>
        <time>2021-08-21T04:53:18Z</time>
      </trkpt>
      <trkpt lat="42.6567900" lon="-5.4998330">
        <ele>975.0</ele>
        <time>2021-08-21T04:53:20Z</time>
      </trkpt>
      <trkpt lat="42.6567900" lon="-5.4998330">
        <ele>975.0</ele>
        <time>2021-08-21T04:53:21Z</time>
      </trkpt>
      <trkpt lat="42.6567900" lon="-5.4998330">
        <ele>975.0</ele>
        <time>2021-08-21T04:53:22Z</time>
      </trkpt>
      <trkpt lat="42.6567900" lon="-5.4998330">
        <ele>975.0</ele>
        <time>2021-08-21T04:53:23Z</time>
      </trkpt>
      <trkpt lat="42.6567900" lon="-5.4998330">
        <ele>975.0</ele>
        <time>2021-08-21T04:53:24Z</time>
      </trkpt>
      <trkpt lat="42.6567900" lon="-5.4998330">
        <ele>975.0</ele>
        <time>2021-08-21T04:53:25Z</time>
      </trkpt>
      <trkpt lat="42.6567900" lon="-5.4998330">
        <ele>975.0</ele>
        <time>2021-08-21T04:53:26Z</time>
      </trkpt>
      <trkpt lat="42.6567900" lon="-5.4998330">
        <ele>975.0</ele>
        <time>2021-08-21T04:53:27Z</time>
      </trkpt>
      <trkpt lat="42.6567900" lon="-5.4998330">
        <ele>975.0</ele>
        <time>2021-08-21T04:53:28Z</time>
      </trkpt>
      <trkpt lat="42.6567900" lon="-5.4998330">
        <ele>975.0</ele>
        <time>2021-08-21T04:53:29Z</time>
      </trkpt>
      <trkpt lat="42.6567900" lon="-5.4998330">
        <ele>975.0</ele>
        <time>2021-08-21T04:53:30Z</time>
      </trkpt>
      <trkpt lat="42.6567900" lon="-5.4998330">
        <ele>975.0</ele>
        <time>2021-08-21T04:53:31Z</time>
      </trkpt>
      <trkpt lat="42.6567900" lon="-5.4998330">
        <ele>975.0</ele>
        <time>2021-08-21T04:53:32Z</time>
      </trkpt>
      <trkpt lat="42.6567900" lon="-5.4998330">
        <ele>975.0</ele>
        <time>2021-08-21T04:53:33Z</time>
      </trkpt>
      <trkpt lat="42.6567900" lon="-5.4998330">
        <ele>975.0</ele>
        <time>2021-08-21T04:53:34Z</time>
      </trkpt>
      <trkpt lat="42.6567900" lon="-5.4998330">
        <ele>975.0</ele>
        <time>2021-08-21T04:53:35Z</time>
      </trkpt>
      <trkpt lat="42.6567900" lon="-5.4998330">
        <ele>975.0</ele>
        <time>2021-08-21T04:53:36Z</time>
      </trkpt>
      <trkpt lat="42.6567900" lon="-5.4998330">
        <ele>975.0</ele>
        <time>2021-08-21T04:53:37Z</time>
      </trkpt>
      <trkpt lat="42.6567900" lon="-5.4998330">
        <ele>975.0</ele>
        <time>2021-08-21T04:53:39Z</time>
      </trkpt>
      <trkpt lat="42.6567900" lon="-5.4998330">
        <ele>975.0</ele>
        <time>2021-08-21T04:53:40Z</time>
      </trkpt>
      <trkpt lat="42.6567900" lon="-5.4998330">
        <ele>975.0</ele>
        <time>2021-08-21T04:53:41Z</time>
      </trkpt>
      <trkpt lat="42.6567900" lon="-5.4998330">
        <ele>975.0</ele>
        <time>2021-08-21T04:53:42Z</time>
      </trkpt>
      <trkpt lat="42.6567900" lon="-5.4998330">
        <ele>975.0</ele>
        <time>2021-08-21T04:53:43Z</time>
      </trkpt>
      <trkpt lat="42.6567900" lon="-5.4998330">
        <ele>975.0</ele>
        <time>2021-08-21T04:53:44Z</time>
      </trkpt>
      <trkpt lat="42.6567900" lon="-5.4998330">
        <ele>975.0</ele>
        <time>2021-08-21T04:53:45Z</time>
      </trkpt>
      <trkpt lat="42.6567900" lon="-5.4998330">
        <ele>975.0</ele>
        <time>2021-08-21T04:53:46Z</time>
      </trkpt>
      <trkpt lat="42.6567900" lon="-5.4998330">
        <ele>975.0</ele>
        <time>2021-08-21T04:53:47Z</time>
      </trkpt>
      <trkpt lat="42.6567900" lon="-5.4998330">
        <ele>975.0</ele>
        <time>2021-08-21T04:53:48Z</time>
      </trkpt>
      <trkpt lat="42.6567900" lon="-5.4998330">
        <ele>975.0</ele>
        <time>2021-08-21T04:53:49Z</time>
      </trkpt>
      <trkpt lat="42.6567900" lon="-5.4998330">
        <ele>975.0</ele>
        <time>2021-08-21T04:53:50Z</time>
      </trkpt>
      <trkpt lat="42.6567900" lon="-5.4998330">
        <ele>975.0</ele>
        <time>2021-08-21T04:53:52Z</time>
      </trkpt>
      <trkpt lat="42.6567900" lon="-5.4998330">
        <ele>975.0</ele>
        <time>2021-08-21T04:53:53Z</time>
      </trkpt>
      <trkpt lat="42.6567900" lon="-5.4998330">
        <ele>975.0</ele>
        <time>2021-08-21T04:53:54Z</time>
      </trkpt>
      <trkpt lat="42.6567900" lon="-5.4998330">
        <ele>975.0</ele>
        <time>2021-08-21T04:53:55Z</time>
      </trkpt>
      <trkpt lat="42.6567900" lon="-5.4998330">
        <ele>975.0</ele>
        <time>2021-08-21T04:53:56Z</time>
      </trkpt>
      <trkpt lat="42.6567900" lon="-5.4998330">
        <ele>975.0</ele>
        <time>2021-08-21T04:53:58Z</time>
      </trkpt>
      <trkpt lat="42.6567900" lon="-5.4998330">
        <ele>975.0</ele>
        <time>2021-08-21T04:53:59Z</time>
      </trkpt>
      <trkpt lat="42.6567900" lon="-5.4998330">
        <ele>975.0</ele>
        <time>2021-08-21T04:54:00Z</time>
      </trkpt>
      <trkpt lat="42.6567900" lon="-5.4998330">
        <ele>976.0</ele>
        <time>2021-08-21T04:54:02Z</time>
      </trkpt>
      <trkpt lat="42.6567900" lon="-5.4998330">
        <ele>976.0</ele>
        <time>2021-08-21T04:54:03Z</time>
      </trkpt>
      <trkpt lat="42.6567900" lon="-5.4998330">
        <ele>976.0</ele>
        <time>2021-08-21T04:54:04Z</time>
      </trkpt>
      <trkpt lat="42.6567900" lon="-5.4998330">
        <ele>976.0</ele>
        <time>2021-08-21T04:54:05Z</time>
      </trkpt>
      <trkpt lat="42.6567900" lon="-5.4998330">
        <ele>976.0</ele>
        <time>2021-08-21T04:54:06Z</time>
      </trkpt>
      <trkpt lat="42.6567900" lon="-5.4998330">
        <ele>976.0</ele>
        <time>2021-08-21T04:54:07Z</time>
      </trkpt>
      <trkpt lat="42.6567900" lon="-5.4998330">
        <ele>976.0</ele>
        <time>2021-08-21T04:54:08Z</time>
      </trkpt>
      <trkpt lat="42.6567900" lon="-5.4998330">
        <ele>976.0</ele>
        <time>2021-08-21T04:54:09Z</time>
      </trkpt>
      <trkpt lat="42.6567900" lon="-5.4998330">
        <ele>976.0</ele>
        <time>2021-08-21T04:54:10Z</time>
      </trkpt>
      <trkpt lat="42.6567900" lon="-5.4998330">
        <ele>976.0</ele>
        <time>2021-08-21T04:54:11Z</time>
      </trkpt>
      <trkpt lat="42.6567900" lon="-5.4998330">
        <ele>976.0</ele>
        <time>2021-08-21T04:54:12Z</time>
      </trkpt>
      <trkpt lat="42.6567900" lon="-5.4998330">
        <ele>976.0</ele>
        <time>2021-08-21T04:54:13Z</time>
      </trkpt>
      <trkpt lat="42.6567900" lon="-5.4998330">
        <ele>976.0</ele>
        <time>2021-08-21T04:54:14Z</time>
      </trkpt>
      <trkpt lat="42.6567900" lon="-5.4998330">
        <ele>976.0</ele>
        <time>2021-08-21T04:54:15Z</time>
      </trkpt>
      <trkpt lat="42.6567900" lon="-5.4998330">
        <ele>976.0</ele>
        <time>2021-08-21T04:54:17Z</time>
      </trkpt>
      <trkpt lat="42.6567900" lon="-5.4998330">
        <ele>976.0</ele>
        <time>2021-08-21T04:54:18Z</time>
      </trkpt>
      <trkpt lat="42.6567900" lon="-5.4998330">
        <ele>976.0</ele>
        <time>2021-08-21T04:54:19Z</time>
      </trkpt>
      <trkpt lat="42.6567900" lon="-5.4998330">
        <ele>976.0</ele>
        <time>2021-08-21T04:54:20Z</time>
      </trkpt>
      <trkpt lat="42.6567900" lon="-5.4998330">
        <ele>976.0</ele>
        <time>2021-08-21T04:54:21Z</time>
      </trkpt>
      <trkpt lat="42.6567900" lon="-5.4998330">
        <ele>976.0</ele>
        <time>2021-08-21T04:54:22Z</time>
      </trkpt>
      <trkpt lat="42.6567900" lon="-5.4998330">
        <ele>976.0</ele>
        <time>2021-08-21T04:54:23Z</time>
      </trkpt>
      <trkpt lat="42.6567900" lon="-5.4998330">
        <ele>976.0</ele>
        <time>2021-08-21T04:54:24Z</time>
      </trkpt>
      <trkpt lat="42.6567900" lon="-5.4998330">
        <ele>976.0</ele>
        <time>2021-08-21T04:54:25Z</time>
      </trkpt>
      <trkpt lat="42.6567900" lon="-5.4998330">
        <ele>976.0</ele>
        <time>2021-08-21T04:54:26Z</time>
      </trkpt>
      <trkpt lat="42.6567900" lon="-5.4998330">
        <ele>976.0</ele>
        <time>2021-08-21T04:54:27Z</time>
      </trkpt>
      <trkpt lat="42.6567900" lon="-5.4998330">
        <ele>976.0</ele>
        <time>2021-08-21T04:54:28Z</time>
      </trkpt>
      <trkpt lat="42.6567900" lon="-5.4998330">
        <ele>976.0</ele>
        <time>2021-08-21T04:54:29Z</time>
      </trkpt>
      <trkpt lat="42.6567900" lon="-5.4998330">
        <ele>976.0</ele>
        <time>2021-08-21T04:54:30Z</time>
      </trkpt>
      <trkpt lat="42.6567900" lon="-5.4998330">
        <ele>975.0</ele>
        <time>2021-08-21T04:54:31Z</time>
      </trkpt>
      <trkpt lat="42.6567900" lon="-5.4998330">
        <ele>976.0</ele>
        <time>2021-08-21T04:54:32Z</time>
      </trkpt>
      <trkpt lat="42.6567900" lon="-5.4998330">
        <ele>975.0</ele>
        <time>2021-08-21T04:54:33Z</time>
      </trkpt>
      <trkpt lat="42.6567900" lon="-5.4998330">
        <ele>975.0</ele>
        <time>2021-08-21T04:54:34Z</time>
      </trkpt>
      <trkpt lat="42.6567900" lon="-5.4998330">
        <ele>975.0</ele>
        <time>2021-08-21T04:54:36Z</time>
      </trkpt>
      <trkpt lat="42.6567900" lon="-5.4998330">
        <ele>975.0</ele>
        <time>2021-08-21T04:54:37Z</time>
      </trkpt>
      <trkpt lat="42.6567900" lon="-5.4998330">
        <ele>975.0</ele>
        <time>2021-08-21T04:54:38Z</time>
      </trkpt>
      <trkpt lat="42.6567900" lon="-5.4998330">
        <ele>975.0</ele>
        <time>2021-08-21T04:54:39Z</time>
      </trkpt>
      <trkpt lat="42.6567900" lon="-5.4998330">
        <ele>975.0</ele>
        <time>2021-08-21T04:54:41Z</time>
      </trkpt>
      <trkpt lat="42.6567900" lon="-5.4998330">
        <ele>975.0</ele>
        <time>2021-08-21T04:54:42Z</time>
      </trkpt>
      <trkpt lat="42.6567900" lon="-5.4998330">
        <ele>975.0</ele>
        <time>2021-08-21T04:54:43Z</time>
      </trkpt>
      <trkpt lat="42.6567900" lon="-5.4998330">
        <ele>975.0</ele>
        <time>2021-08-21T04:54:44Z</time>
      </trkpt>
      <trkpt lat="42.6567900" lon="-5.4998330">
        <ele>975.0</ele>
        <time>2021-08-21T04:54:45Z</time>
      </trkpt>
      <trkpt lat="42.6567900" lon="-5.4998330">
        <ele>975.0</ele>
        <time>2021-08-21T04:54:46Z</time>
      </trkpt>
      <trkpt lat="42.6567900" lon="-5.4998330">
        <ele>975.0</ele>
        <time>2021-08-21T04:54:47Z</time>
      </trkpt>
      <trkpt lat="42.6567900" lon="-5.4998330">
        <ele>975.0</ele>
        <time>2021-08-21T04:54:48Z</time>
      </trkpt>
      <trkpt lat="42.6567900" lon="-5.4998330">
        <ele>975.0</ele>
        <time>2021-08-21T04:54:49Z</time>
      </trkpt>
      <trkpt lat="42.6567900" lon="-5.4998330">
        <ele>975.0</ele>
        <time>2021-08-21T04:54:50Z</time>
      </trkpt>
      <trkpt lat="42.6567900" lon="-5.4998330">
        <ele>975.0</ele>
        <time>2021-08-21T04:54:51Z</time>
      </trkpt>
      <trkpt lat="42.6567900" lon="-5.4998330">
        <ele>975.0</ele>
        <time>2021-08-21T04:54:52Z</time>
      </trkpt>
      <trkpt lat="42.6567900" lon="-5.4998330">
        <ele>975.0</ele>
        <time>2021-08-21T04:54:53Z</time>
      </trkpt>
      <trkpt lat="42.6567900" lon="-5.4998330">
        <ele>975.0</ele>
        <time>2021-08-21T04:54:55Z</time>
      </trkpt>
      <trkpt lat="42.6567900" lon="-5.4998330">
        <ele>975.0</ele>
        <time>2021-08-21T04:54:56Z</time>
      </trkpt>
      <trkpt lat="42.6567900" lon="-5.4998330">
        <ele>975.0</ele>
        <time>2021-08-21T04:54:58Z</time>
      </trkpt>
      <trkpt lat="42.6567900" lon="-5.4998330">
        <ele>975.0</ele>
        <time>2021-08-21T04:54:59Z</time>
      </trkpt>
      <trkpt lat="42.6567900" lon="-5.4998330">
        <ele>975.0</ele>
        <time>2021-08-21T04:55:00Z</time>
      </trkpt>
      <trkpt lat="42.6567900" lon="-5.4998330">
        <ele>975.0</ele>
        <time>2021-08-21T04:55:01Z</time>
      </trkpt>
      <trkpt lat="42.6567900" lon="-5.4998330">
        <ele>975.0</ele>
        <time>2021-08-21T04:55:02Z</time>
      </trkpt>
      <trkpt lat="42.6567900" lon="-5.4998330">
        <ele>975.0</ele>
        <time>2021-08-21T04:55:03Z</time>
      </trkpt>
      <trkpt lat="42.6567900" lon="-5.4998330">
        <ele>975.0</ele>
        <time>2021-08-21T04:55:04Z</time>
      </trkpt>
      <trkpt lat="42.6567900" lon="-5.4998330">
        <ele>975.0</ele>
        <time>2021-08-21T04:55:05Z</time>
      </trkpt>
      <trkpt lat="42.6567900" lon="-5.4998330">
        <ele>975.0</ele>
        <time>2021-08-21T04:55:06Z</time>
      </trkpt>
      <trkpt lat="42.6568100" lon="-5.4998370">
        <ele>975.0</ele>
        <time>2021-08-21T04:55:07Z</time>
      </trkpt>
      <trkpt lat="42.6568240" lon="-5.4998540">
        <ele>975.0</ele>
        <time>2021-08-21T04:55:08Z</time>
      </trkpt>
      <trkpt lat="42.6568460" lon="-5.4998700">
        <ele>975.0</ele>
        <time>2021-08-21T04:55:09Z</time>
      </trkpt>
      <trkpt lat="42.6568700" lon="-5.4998810">
        <ele>975.0</ele>
        <time>2021-08-21T04:55:10Z</time>
      </trkpt>
      <trkpt lat="42.6568960" lon="-5.4998880">
        <ele>975.0</ele>
        <time>2021-08-21T04:55:11Z</time>
      </trkpt>
      <trkpt lat="42.6569210" lon="-5.4998970">
        <ele>975.0</ele>
        <time>2021-08-21T04:55:12Z</time>
      </trkpt>
      <trkpt lat="42.6569470" lon="-5.4999040">
        <ele>975.0</ele>
        <time>2021-08-21T04:55:13Z</time>
      </trkpt>
      <trkpt lat="42.6569470" lon="-5.4999040">
        <ele>975.0</ele>
        <time>2021-08-21T04:55:14Z</time>
      </trkpt>
      <trkpt lat="42.6569960" lon="-5.4999240">
        <ele>975.0</ele>
        <time>2021-08-21T04:55:15Z</time>
      </trkpt>
      <trkpt lat="42.6570200" lon="-5.4999340">
        <ele>975.0</ele>
        <time>2021-08-21T04:55:16Z</time>
      </trkpt>
      <trkpt lat="42.6570440" lon="-5.4999420">
        <ele>975.0</ele>
        <time>2021-08-21T04:55:17Z</time>
      </trkpt>
      <trkpt lat="42.6570680" lon="-5.4999490">
        <ele>975.0</ele>
        <time>2021-08-21T04:55:18Z</time>
      </trkpt>
      <trkpt lat="42.6570900" lon="-5.4999550">
        <ele>975.0</ele>
        <time>2021-08-21T04:55:19Z</time>
      </trkpt>
      <trkpt lat="42.6571270" lon="-5.4999660">
        <ele>975.0</ele>
        <time>2021-08-21T04:55:20Z</time>
      </trkpt>
      <trkpt lat="42.6571390" lon="-5.4999710">
        <ele>975.0</ele>
        <time>2021-08-21T04:55:21Z</time>
      </trkpt>
      <trkpt lat="42.6571630" lon="-5.4999780">
        <ele>975.0</ele>
        <time>2021-08-21T04:55:22Z</time>
      </trkpt>
      <trkpt lat="42.6571860" lon="-5.4999810">
        <ele>975.0</ele>
        <time>2021-08-21T04:55:23Z</time>
      </trkpt>
      <trkpt lat="42.6572100" lon="-5.4999800">
        <ele>976.0</ele>
        <time>2021-08-21T04:55:24Z</time>
      </trkpt>
      <trkpt lat="42.6572340" lon="-5.4999760">
        <ele>976.0</ele>
        <time>2021-08-21T04:55:25Z</time>
      </trkpt>
      <trkpt lat="42.6572590" lon="-5.4999740">
        <ele>976.0</ele>
        <time>2021-08-21T04:55:26Z</time>
      </trkpt>
      <trkpt lat="42.6572850" lon="-5.4999670">
        <ele>976.0</ele>
        <time>2021-08-21T04:55:27Z</time>
      </trkpt>
      <trkpt lat="42.6573120" lon="-5.4999580">
        <ele>976.0</ele>
        <time>2021-08-21T04:55:28Z</time>
      </trkpt>
      <trkpt lat="42.6573370" lon="-5.4999520">
        <ele>976.0</ele>
        <time>2021-08-21T04:55:29Z</time>
      </trkpt>
      <trkpt lat="42.6573610" lon="-5.4999450">
        <ele>976.0</ele>
        <time>2021-08-21T04:55:30Z</time>
      </trkpt>
      <trkpt lat="42.6573830" lon="-5.4999390">
        <ele>976.0</ele>
        <time>2021-08-21T04:55:31Z</time>
      </trkpt>
      <trkpt lat="42.6574060" lon="-5.4999350">
        <ele>976.0</ele>
        <time>2021-08-21T04:55:32Z</time>
      </trkpt>
      <trkpt lat="42.6574290" lon="-5.4999310">
        <ele>976.0</ele>
        <time>2021-08-21T04:55:33Z</time>
      </trkpt>
      <trkpt lat="42.6574520" lon="-5.4999260">
        <ele>976.0</ele>
        <time>2021-08-21T04:55:34Z</time>
      </trkpt>
      <trkpt lat="42.6574760" lon="-5.4999220">
        <ele>976.0</ele>
        <time>2021-08-21T04:55:35Z</time>
      </trkpt>
      <trkpt lat="42.6575010" lon="-5.4999170">
        <ele>976.0</ele>
        <time>2021-08-21T04:55:36Z</time>
      </trkpt>
      <trkpt lat="42.6575240" lon="-5.4999150">
        <ele>976.0</ele>
        <time>2021-08-21T04:55:37Z</time>
      </trkpt>
      <trkpt lat="42.6575470" lon="-5.4999160">
        <ele>976.0</ele>
        <time>2021-08-21T04:55:38Z</time>
      </trkpt>
      <trkpt lat="42.6575800" lon="-5.4999200">
        <ele>976.0</ele>
        <time>2021-08-21T04:55:39Z</time>
      </trkpt>
      <trkpt lat="42.6575910" lon="-5.4999220">
        <ele>976.0</ele>
        <time>2021-08-21T04:55:40Z</time>
      </trkpt>
      <trkpt lat="42.6576270" lon="-5.4999250">
        <ele>976.0</ele>
        <time>2021-08-21T04:55:41Z</time>
      </trkpt>
      <trkpt lat="42.6576410" lon="-5.4999240">
        <ele>976.0</ele>
        <time>2021-08-21T04:55:42Z</time>
      </trkpt>
      <trkpt lat="42.6576650" lon="-5.4999260">
        <ele>976.0</ele>
        <time>2021-08-21T04:55:43Z</time>
      </trkpt>
      <trkpt lat="42.6577030" lon="-5.4999280">
        <ele>976.0</ele>
        <time>2021-08-21T04:55:44Z</time>
      </trkpt>
      <trkpt lat="42.6577150" lon="-5.4999290">
        <ele>976.0</ele>
        <time>2021-08-21T04:55:45Z</time>
      </trkpt>
      <trkpt lat="42.6577390" lon="-5.4999300">
        <ele>976.0</ele>
        <time>2021-08-21T04:55:46Z</time>
      </trkpt>
      <trkpt lat="42.6577720" lon="-5.4999320">
        <ele>976.0</ele>
        <time>2021-08-21T04:55:47Z</time>
      </trkpt>
      <trkpt lat="42.6577830" lon="-5.4999330">
        <ele>976.0</ele>
        <time>2021-08-21T04:55:48Z</time>
      </trkpt>
      <trkpt lat="42.6578070" lon="-5.4999370">
        <ele>976.0</ele>
        <time>2021-08-21T04:55:49Z</time>
      </trkpt>
      <trkpt lat="42.6578320" lon="-5.4999410">
        <ele>976.0</ele>
        <time>2021-08-21T04:55:50Z</time>
      </trkpt>
      <trkpt lat="42.6578690" lon="-5.4999450">
        <ele>976.0</ele>
        <time>2021-08-21T04:55:51Z</time>
      </trkpt>
      <trkpt lat="42.6578810" lon="-5.4999470">
        <ele>977.0</ele>
        <time>2021-08-21T04:55:52Z</time>
      </trkpt>
      <trkpt lat="42.6579030" lon="-5.4999500">
        <ele>977.0</ele>
        <time>2021-08-21T04:55:53Z</time>
      </trkpt>
      <trkpt lat="42.6579280" lon="-5.4999520">
        <ele>977.0</ele>
        <time>2021-08-21T04:55:54Z</time>
      </trkpt>
      <trkpt lat="42.6579530" lon="-5.4999530">
        <ele>977.0</ele>
        <time>2021-08-21T04:55:55Z</time>
      </trkpt>
      <trkpt lat="42.6579740" lon="-5.4999560">
        <ele>977.0</ele>
        <time>2021-08-21T04:55:56Z</time>
      </trkpt>
      <trkpt lat="42.6579960" lon="-5.4999600">
        <ele>977.0</ele>
        <time>2021-08-21T04:55:57Z</time>
      </trkpt>
      <trkpt lat="42.6580190" lon="-5.4999660">
        <ele>977.0</ele>
        <time>2021-08-21T04:55:58Z</time>
      </trkpt>
      <trkpt lat="42.6580420" lon="-5.4999710">
        <ele>978.0</ele>
        <time>2021-08-21T04:55:59Z</time>
      </trkpt>
      <trkpt lat="42.6580650" lon="-5.4999730">
        <ele>978.0</ele>
        <time>2021-08-21T04:56:00Z</time>
      </trkpt>
      <trkpt lat="42.6580970" lon="-5.4999740">
        <ele>978.0</ele>
        <time>2021-08-21T04:56:01Z</time>
      </trkpt>
      <trkpt lat="42.6581070" lon="-5.4999760">
        <ele>978.0</ele>
        <time>2021-08-21T04:56:02Z</time>
      </trkpt>
      <trkpt lat="42.6581290" lon="-5.4999790">
        <ele>978.0</ele>
        <time>2021-08-21T04:56:03Z</time>
      </trkpt>
      <trkpt lat="42.6581630" lon="-5.4999860">
        <ele>978.0</ele>
        <time>2021-08-21T04:56:04Z</time>
      </trkpt>
      <trkpt lat="42.6581740" lon="-5.4999890">
        <ele>978.0</ele>
        <time>2021-08-21T04:56:05Z</time>
      </trkpt>
      <trkpt lat="42.6581950" lon="-5.4999950">
        <ele>978.0</ele>
        <time>2021-08-21T04:56:06Z</time>
      </trkpt>
      <trkpt lat="42.6582180" lon="-5.4999990">
        <ele>978.0</ele>
        <time>2021-08-21T04:56:07Z</time>
      </trkpt>
      <trkpt lat="42.6582390" lon="-5.5000020">
        <ele>978.0</ele>
        <time>2021-08-21T04:56:08Z</time>
      </trkpt>
      <trkpt lat="42.6582610" lon="-5.5000040">
        <ele>979.0</ele>
        <time>2021-08-21T04:56:09Z</time>
      </trkpt>
      <trkpt lat="42.6582810" lon="-5.5000090">
        <ele>979.0</ele>
        <time>2021-08-21T04:56:10Z</time>
      </trkpt>
      <trkpt lat="42.6583030" lon="-5.5000130">
        <ele>979.0</ele>
        <time>2021-08-21T04:56:11Z</time>
      </trkpt>
      <trkpt lat="42.6583220" lon="-5.5000170">
        <ele>979.0</ele>
        <time>2021-08-21T04:56:12Z</time>
      </trkpt>
      <trkpt lat="42.6583430" lon="-5.5000230">
        <ele>979.0</ele>
        <time>2021-08-21T04:56:13Z</time>
      </trkpt>
      <trkpt lat="42.6583640" lon="-5.5000280">
        <ele>979.0</ele>
        <time>2021-08-21T04:56:14Z</time>
      </trkpt>
      <trkpt lat="42.6583850" lon="-5.5000340">
        <ele>979.0</ele>
        <time>2021-08-21T04:56:15Z</time>
      </trkpt>
      <trkpt lat="42.6584030" lon="-5.5000400">
        <ele>979.0</ele>
        <time>2021-08-21T04:56:16Z</time>
      </trkpt>
      <trkpt lat="42.6584030" lon="-5.5000400">
        <ele>980.0</ele>
        <time>2021-08-21T04:56:17Z</time>
      </trkpt>
      <trkpt lat="42.6584380" lon="-5.5000550">
        <ele>980.0</ele>
        <time>2021-08-21T04:56:18Z</time>
      </trkpt>
      <trkpt lat="42.6584380" lon="-5.5000550">
        <ele>980.0</ele>
        <time>2021-08-21T04:56:19Z</time>
      </trkpt>
      <trkpt lat="42.6584890" lon="-5.5000740">
        <ele>980.0</ele>
        <time>2021-08-21T04:56:20Z</time>
      </trkpt>
      <trkpt lat="42.6585000" lon="-5.5000780">
        <ele>980.0</ele>
        <time>2021-08-21T04:56:21Z</time>
      </trkpt>
      <trkpt lat="42.6585200" lon="-5.5000860">
        <ele>980.0</ele>
        <time>2021-08-21T04:56:22Z</time>
      </trkpt>
      <trkpt lat="42.6585410" lon="-5.5000960">
        <ele>980.0</ele>
        <time>2021-08-21T04:56:23Z</time>
      </trkpt>
      <trkpt lat="42.6585610" lon="-5.5001040">
        <ele>981.0</ele>
        <time>2021-08-21T04:56:24Z</time>
      </trkpt>
      <trkpt lat="42.6585820" lon="-5.5001170">
        <ele>981.0</ele>
        <time>2021-08-21T04:56:25Z</time>
      </trkpt>
      <trkpt lat="42.6586030" lon="-5.5001280">
        <ele>981.0</ele>
        <time>2021-08-21T04:56:26Z</time>
      </trkpt>
      <trkpt lat="42.6586360" lon="-5.5001420">
        <ele>981.0</ele>
        <time>2021-08-21T04:56:27Z</time>
      </trkpt>
      <trkpt lat="42.6586460" lon="-5.5001470">
        <ele>982.0</ele>
        <time>2021-08-21T04:56:28Z</time>
      </trkpt>
      <trkpt lat="42.6586770" lon="-5.5001640">
        <ele>982.0</ele>
        <time>2021-08-21T04:56:29Z</time>
      </trkpt>
      <trkpt lat="42.6586870" lon="-5.5001710">
        <ele>982.0</ele>
        <time>2021-08-21T04:56:30Z</time>
      </trkpt>
      <trkpt lat="42.6587050" lon="-5.5001820">
        <ele>982.0</ele>
        <time>2021-08-21T04:56:31Z</time>
      </trkpt>
      <trkpt lat="42.6587270" lon="-5.5001930">
        <ele>982.0</ele>
        <time>2021-08-21T04:56:32Z</time>
      </trkpt>
      <trkpt lat="42.6587470" lon="-5.5002030">
        <ele>982.0</ele>
        <time>2021-08-21T04:56:33Z</time>
      </trkpt>
      <trkpt lat="42.6587900" lon="-5.5002170">
        <ele>982.0</ele>
        <time>2021-08-21T04:56:34Z</time>
      </trkpt>
      <trkpt lat="42.6587900" lon="-5.5002170">
        <ele>983.0</ele>
        <time>2021-08-21T04:56:35Z</time>
      </trkpt>
      <trkpt lat="42.6588130" lon="-5.5002260">
        <ele>983.0</ele>
        <time>2021-08-21T04:56:36Z</time>
      </trkpt>
      <trkpt lat="42.6588360" lon="-5.5002320">
        <ele>983.0</ele>
        <time>2021-08-21T04:56:37Z</time>
      </trkpt>
      <trkpt lat="42.6588570" lon="-5.5002380">
        <ele>983.0</ele>
        <time>2021-08-21T04:56:38Z</time>
      </trkpt>
      <trkpt lat="42.6588810" lon="-5.5002440">
        <ele>983.0</ele>
        <time>2021-08-21T04:56:39Z</time>
      </trkpt>
      <trkpt lat="42.6589070" lon="-5.5002490">
        <ele>983.0</ele>
        <time>2021-08-21T04:56:40Z</time>
      </trkpt>
      <trkpt lat="42.6589320" lon="-5.5002530">
        <ele>984.0</ele>
        <time>2021-08-21T04:56:41Z</time>
      </trkpt>
      <trkpt lat="42.6589570" lon="-5.5002560">
        <ele>984.0</ele>
        <time>2021-08-21T04:56:42Z</time>
      </trkpt>
      <trkpt lat="42.6589810" lon="-5.5002590">
        <ele>984.0</ele>
        <time>2021-08-21T04:56:43Z</time>
      </trkpt>
      <trkpt lat="42.6590040" lon="-5.5002620">
        <ele>984.0</ele>
        <time>2021-08-21T04:56:44Z</time>
      </trkpt>
      <trkpt lat="42.6590280" lon="-5.5002640">
        <ele>984.0</ele>
        <time>2021-08-21T04:56:45Z</time>
      </trkpt>
      <trkpt lat="42.6590530" lon="-5.5002650">
        <ele>984.0</ele>
        <time>2021-08-21T04:56:46Z</time>
      </trkpt>
      <trkpt lat="42.6590770" lon="-5.5002650">
        <ele>984.0</ele>
        <time>2021-08-21T04:56:47Z</time>
      </trkpt>
      <trkpt lat="42.6591020" lon="-5.5002650">
        <ele>984.0</ele>
        <time>2021-08-21T04:56:48Z</time>
      </trkpt>
      <trkpt lat="42.6591280" lon="-5.5002640">
        <ele>985.0</ele>
        <time>2021-08-21T04:56:49Z</time>
      </trkpt>
      <trkpt lat="42.6591670" lon="-5.5002650">
        <ele>985.0</ele>
        <time>2021-08-21T04:56:50Z</time>
      </trkpt>
      <trkpt lat="42.6591800" lon="-5.5002660">
        <ele>985.0</ele>
        <time>2021-08-21T04:56:51Z</time>
      </trkpt>
      <trkpt lat="42.6592030" lon="-5.5002690">
        <ele>985.0</ele>
        <time>2021-08-21T04:56:52Z</time>
      </trkpt>
      <trkpt lat="42.6592280" lon="-5.5002720">
        <ele>985.0</ele>
        <time>2021-08-21T04:56:53Z</time>
      </trkpt>
      <trkpt lat="42.6592500" lon="-5.5002770">
        <ele>985.0</ele>
        <time>2021-08-21T04:56:54Z</time>
      </trkpt>
      <trkpt lat="42.6592760" lon="-5.5002790">
        <ele>985.0</ele>
        <time>2021-08-21T04:56:55Z</time>
      </trkpt>
      <trkpt lat="42.6593010" lon="-5.5002790">
        <ele>985.0</ele>
        <time>2021-08-21T04:56:56Z</time>
      </trkpt>
      <trkpt lat="42.6593270" lon="-5.5002770">
        <ele>985.0</ele>
        <time>2021-08-21T04:56:57Z</time>
      </trkpt>
      <trkpt lat="42.6593530" lon="-5.5002740">
        <ele>985.0</ele>
        <time>2021-08-21T04:56:58Z</time>
      </trkpt>
      <trkpt lat="42.6593740" lon="-5.5002750">
        <ele>985.0</ele>
        <time>2021-08-21T04:56:59Z</time>
      </trkpt>
      <trkpt lat="42.6593970" lon="-5.5002760">
        <ele>985.0</ele>
        <time>2021-08-21T04:57:00Z</time>
      </trkpt>
      <trkpt lat="42.6594210" lon="-5.5002770">
        <ele>986.0</ele>
        <time>2021-08-21T04:57:01Z</time>
      </trkpt>
      <trkpt lat="42.6594450" lon="-5.5002770">
        <ele>986.0</ele>
        <time>2021-08-21T04:57:02Z</time>
      </trkpt>
      <trkpt lat="42.6594700" lon="-5.5002760">
        <ele>986.0</ele>
        <time>2021-08-21T04:57:03Z</time>
      </trkpt>
      <trkpt lat="42.6594980" lon="-5.5002750">
        <ele>986.0</ele>
        <time>2021-08-21T04:57:04Z</time>
      </trkpt>
      <trkpt lat="42.6595230" lon="-5.5002760">
        <ele>986.0</ele>
        <time>2021-08-21T04:57:05Z</time>
      </trkpt>
      <trkpt lat="42.6595500" lon="-5.5002780">
        <ele>986.0</ele>
        <time>2021-08-21T04:57:06Z</time>
      </trkpt>
      <trkpt lat="42.6595750" lon="-5.5002790">
        <ele>986.0</ele>
        <time>2021-08-21T04:57:07Z</time>
      </trkpt>
      <trkpt lat="42.6596010" lon="-5.5002810">
        <ele>987.0</ele>
        <time>2021-08-21T04:57:08Z</time>
      </trkpt>
      <trkpt lat="42.6596270" lon="-5.5002850">
        <ele>987.0</ele>
        <time>2021-08-21T04:57:09Z</time>
      </trkpt>
      <trkpt lat="42.6596530" lon="-5.5002910">
        <ele>987.0</ele>
        <time>2021-08-21T04:57:10Z</time>
      </trkpt>
      <trkpt lat="42.6596810" lon="-5.5002940">
        <ele>987.0</ele>
        <time>2021-08-21T04:57:11Z</time>
      </trkpt>
      <trkpt lat="42.6597050" lon="-5.5003030">
        <ele>987.0</ele>
        <time>2021-08-21T04:57:12Z</time>
      </trkpt>
      <trkpt lat="42.6597310" lon="-5.5003110">
        <ele>987.0</ele>
        <time>2021-08-21T04:57:13Z</time>
      </trkpt>
      <trkpt lat="42.6597590" lon="-5.5003200">
        <ele>987.0</ele>
        <time>2021-08-21T04:57:14Z</time>
      </trkpt>
      <trkpt lat="42.6597840" lon="-5.5003330">
        <ele>987.0</ele>
        <time>2021-08-21T04:57:15Z</time>
      </trkpt>
      <trkpt lat="42.6598090" lon="-5.5003450">
        <ele>987.0</ele>
        <time>2021-08-21T04:57:16Z</time>
      </trkpt>
      <trkpt lat="42.6598320" lon="-5.5003590">
        <ele>987.0</ele>
        <time>2021-08-21T04:57:17Z</time>
      </trkpt>
      <trkpt lat="42.6598570" lon="-5.5003750">
        <ele>987.0</ele>
        <time>2021-08-21T04:57:18Z</time>
      </trkpt>
      <trkpt lat="42.6598800" lon="-5.5003890">
        <ele>987.0</ele>
        <time>2021-08-21T04:57:19Z</time>
      </trkpt>
      <trkpt lat="42.6599050" lon="-5.5004020">
        <ele>987.0</ele>
        <time>2021-08-21T04:57:20Z</time>
      </trkpt>
      <trkpt lat="42.6599310" lon="-5.5004150">
        <ele>987.0</ele>
        <time>2021-08-21T04:57:21Z</time>
      </trkpt>
      <trkpt lat="42.6599560" lon="-5.5004310">
        <ele>987.0</ele>
        <time>2021-08-21T04:57:22Z</time>
      </trkpt>
      <trkpt lat="42.6599790" lon="-5.5004470">
        <ele>987.0</ele>
        <time>2021-08-21T04:57:23Z</time>
      </trkpt>
      <trkpt lat="42.6600020" lon="-5.5004630">
        <ele>987.0</ele>
        <time>2021-08-21T04:57:24Z</time>
      </trkpt>
      <trkpt lat="42.6600290" lon="-5.5004760">
        <ele>987.0</ele>
        <time>2021-08-21T04:57:25Z</time>
      </trkpt>
      <trkpt lat="42.6600540" lon="-5.5004920">
        <ele>987.0</ele>
        <time>2021-08-21T04:57:26Z</time>
      </trkpt>
      <trkpt lat="42.6600810" lon="-5.5005070">
        <ele>987.0</ele>
        <time>2021-08-21T04:57:27Z</time>
      </trkpt>
      <trkpt lat="42.6601180" lon="-5.5005320">
        <ele>987.0</ele>
        <time>2021-08-21T04:57:28Z</time>
      </trkpt>
      <trkpt lat="42.6601310" lon="-5.5005410">
        <ele>987.0</ele>
        <time>2021-08-21T04:57:29Z</time>
      </trkpt>
      <trkpt lat="42.6601550" lon="-5.5005590">
        <ele>987.0</ele>
        <time>2021-08-21T04:57:30Z</time>
      </trkpt>
      <trkpt lat="42.6601800" lon="-5.5005760">
        <ele>987.0</ele>
        <time>2021-08-21T04:57:31Z</time>
      </trkpt>
      <trkpt lat="42.6602070" lon="-5.5005940">
        <ele>987.0</ele>
        <time>2021-08-21T04:57:32Z</time>
      </trkpt>
      <trkpt lat="42.6602480" lon="-5.5006170">
        <ele>987.0</ele>
        <time>2021-08-21T04:57:33Z</time>
      </trkpt>
      <trkpt lat="42.6602620" lon="-5.5006250">
        <ele>987.0</ele>
        <time>2021-08-21T04:57:34Z</time>
      </trkpt>
      <trkpt lat="42.6602910" lon="-5.5006370">
        <ele>987.0</ele>
        <time>2021-08-21T04:57:35Z</time>
      </trkpt>
      <trkpt lat="42.6603200" lon="-5.5006470">
        <ele>986.0</ele>
        <time>2021-08-21T04:57:36Z</time>
      </trkpt>
      <trkpt lat="42.6603480" lon="-5.5006580">
        <ele>986.0</ele>
        <time>2021-08-21T04:57:37Z</time>
      </trkpt>
      <trkpt lat="42.6603770" lon="-5.5006710">
        <ele>986.0</ele>
        <time>2021-08-21T04:57:38Z</time>
      </trkpt>
      <trkpt lat="42.6604060" lon="-5.5006830">
        <ele>986.0</ele>
        <time>2021-08-21T04:57:39Z</time>
      </trkpt>
      <trkpt lat="42.6604330" lon="-5.5006950">
        <ele>986.0</ele>
        <time>2021-08-21T04:57:40Z</time>
      </trkpt>
      <trkpt lat="42.6604610" lon="-5.5007080">
        <ele>986.0</ele>
        <time>2021-08-21T04:57:41Z</time>
      </trkpt>
      <trkpt lat="42.6604880" lon="-5.5007220">
        <ele>986.0</ele>
        <time>2021-08-21T04:57:42Z</time>
      </trkpt>
      <trkpt lat="42.6605160" lon="-5.5007340">
        <ele>986.0</ele>
        <time>2021-08-21T04:57:43Z</time>
      </trkpt>
      <trkpt lat="42.6605430" lon="-5.5007440">
        <ele>986.0</ele>
        <time>2021-08-21T04:57:44Z</time>
      </trkpt>
      <trkpt lat="42.6605720" lon="-5.5007550">
        <ele>986.0</ele>
        <time>2021-08-21T04:57:45Z</time>
      </trkpt>
      <trkpt lat="42.6606020" lon="-5.5007680">
        <ele>986.0</ele>
        <time>2021-08-21T04:57:46Z</time>
      </trkpt>
      <trkpt lat="42.6606310" lon="-5.5007790">
        <ele>986.0</ele>
        <time>2021-08-21T04:57:47Z</time>
      </trkpt>
      <trkpt lat="42.6606600" lon="-5.5007890">
        <ele>985.0</ele>
        <time>2021-08-21T04:57:48Z</time>
      </trkpt>
      <trkpt lat="42.6606900" lon="-5.5007970">
        <ele>985.0</ele>
        <time>2021-08-21T04:57:49Z</time>
      </trkpt>
      <trkpt lat="42.6607190" lon="-5.5008030">
        <ele>985.0</ele>
        <time>2021-08-21T04:57:50Z</time>
      </trkpt>
      <trkpt lat="42.6607470" lon="-5.5008100">
        <ele>985.0</ele>
        <time>2021-08-21T04:57:51Z</time>
      </trkpt>
      <trkpt lat="42.6607750" lon="-5.5008160">
        <ele>985.0</ele>
        <time>2021-08-21T04:57:52Z</time>
      </trkpt>
      <trkpt lat="42.6608030" lon="-5.5008250">
        <ele>985.0</ele>
        <time>2021-08-21T04:57:53Z</time>
      </trkpt>
      <trkpt lat="42.6608310" lon="-5.5008340">
        <ele>985.0</ele>
        <time>2021-08-21T04:57:54Z</time>
      </trkpt>
      <trkpt lat="42.6608560" lon="-5.5008420">
        <ele>985.0</ele>
        <time>2021-08-21T04:57:55Z</time>
      </trkpt>
      <trkpt lat="42.6608830" lon="-5.5008540">
        <ele>985.0</ele>
        <time>2021-08-21T04:57:56Z</time>
      </trkpt>
      <trkpt lat="42.6609100" lon="-5.5008630">
        <ele>984.0</ele>
        <time>2021-08-21T04:57:57Z</time>
      </trkpt>
      <trkpt lat="42.6609500" lon="-5.5008780">
        <ele>984.0</ele>
        <time>2021-08-21T04:57:58Z</time>
      </trkpt>
      <trkpt lat="42.6609630" lon="-5.5008830">
        <ele>984.0</ele>
        <time>2021-08-21T04:57:59Z</time>
      </trkpt>
      <trkpt lat="42.6609900" lon="-5.5008930">
        <ele>984.0</ele>
        <time>2021-08-21T04:58:00Z</time>
      </trkpt>
      <trkpt lat="42.6609900" lon="-5.5008930">
        <ele>984.0</ele>
        <time>2021-08-21T04:58:01Z</time>
      </trkpt>
      <trkpt lat="42.6610540" lon="-5.5009230">
        <ele>984.0</ele>
        <time>2021-08-21T04:58:02Z</time>
      </trkpt>
      <trkpt lat="42.6610670" lon="-5.5009290">
        <ele>984.0</ele>
        <time>2021-08-21T04:58:03Z</time>
      </trkpt>
      <trkpt lat="42.6611040" lon="-5.5009470">
        <ele>984.0</ele>
        <time>2021-08-21T04:58:04Z</time>
      </trkpt>
      <trkpt lat="42.6611150" lon="-5.5009540">
        <ele>984.0</ele>
        <time>2021-08-21T04:58:05Z</time>
      </trkpt>
      <trkpt lat="42.6611390" lon="-5.5009640">
        <ele>984.0</ele>
        <time>2021-08-21T04:58:06Z</time>
      </trkpt>
      <trkpt lat="42.6611650" lon="-5.5009730">
        <ele>984.0</ele>
        <time>2021-08-21T04:58:07Z</time>
      </trkpt>
      <trkpt lat="42.6611900" lon="-5.5009810">
        <ele>984.0</ele>
        <time>2021-08-21T04:58:08Z</time>
      </trkpt>
      <trkpt lat="42.6612140" lon="-5.5009950">
        <ele>983.0</ele>
        <time>2021-08-21T04:58:09Z</time>
      </trkpt>
      <trkpt lat="42.6612380" lon="-5.5010090">
        <ele>983.0</ele>
        <time>2021-08-21T04:58:10Z</time>
      </trkpt>
      <trkpt lat="42.6612610" lon="-5.5010230">
        <ele>983.0</ele>
        <time>2021-08-21T04:58:11Z</time>
      </trkpt>
      <trkpt lat="42.6612840" lon="-5.5010370">
        <ele>983.0</ele>
        <time>2021-08-21T04:58:12Z</time>
      </trkpt>
      <trkpt lat="42.6613040" lon="-5.5010560">
        <ele>983.0</ele>
        <time>2021-08-21T04:58:13Z</time>
      </trkpt>
      <trkpt lat="42.6613270" lon="-5.5010730">
        <ele>983.0</ele>
        <time>2021-08-21T04:58:14Z</time>
      </trkpt>
      <trkpt lat="42.6613480" lon="-5.5010940">
        <ele>983.0</ele>
        <time>2021-08-21T04:58:15Z</time>
      </trkpt>
      <trkpt lat="42.6613680" lon="-5.5011140">
        <ele>983.0</ele>
        <time>2021-08-21T04:58:16Z</time>
      </trkpt>
      <trkpt lat="42.6613900" lon="-5.5011320">
        <ele>983.0</ele>
        <time>2021-08-21T04:58:17Z</time>
      </trkpt>
      <trkpt lat="42.6614140" lon="-5.5011470">
        <ele>983.0</ele>
        <time>2021-08-21T04:58:18Z</time>
      </trkpt>
      <trkpt lat="42.6614510" lon="-5.5011730">
        <ele>983.0</ele>
        <time>2021-08-21T04:58:19Z</time>
      </trkpt>
      <trkpt lat="42.6614620" lon="-5.5011820">
        <ele>983.0</ele>
        <time>2021-08-21T04:58:20Z</time>
      </trkpt>
      <trkpt lat="42.6614870" lon="-5.5011990">
        <ele>983.0</ele>
        <time>2021-08-21T04:58:21Z</time>
      </trkpt>
      <trkpt lat="42.6615090" lon="-5.5012130">
        <ele>983.0</ele>
        <time>2021-08-21T04:58:22Z</time>
      </trkpt>
      <trkpt lat="42.6615460" lon="-5.5012290">
        <ele>983.0</ele>
        <time>2021-08-21T04:58:23Z</time>
      </trkpt>
      <trkpt lat="42.6615580" lon="-5.5012330">
        <ele>982.0</ele>
        <time>2021-08-21T04:58:24Z</time>
      </trkpt>
      <trkpt lat="42.6615840" lon="-5.5012390">
        <ele>982.0</ele>
        <time>2021-08-21T04:58:25Z</time>
      </trkpt>
      <trkpt lat="42.6616120" lon="-5.5012410">
        <ele>982.0</ele>
        <time>2021-08-21T04:58:26Z</time>
      </trkpt>
      <trkpt lat="42.6616410" lon="-5.5012410">
        <ele>982.0</ele>
        <time>2021-08-21T04:58:27Z</time>
      </trkpt>
      <trkpt lat="42.6616710" lon="-5.5012350">
        <ele>982.0</ele>
        <time>2021-08-21T04:58:28Z</time>
      </trkpt>
      <trkpt lat="42.6616990" lon="-5.5012310">
        <ele>982.0</ele>
        <time>2021-08-21T04:58:29Z</time>
      </trkpt>
      <trkpt lat="42.6617280" lon="-5.5012220">
        <ele>982.0</ele>
        <time>2021-08-21T04:58:30Z</time>
      </trkpt>
      <trkpt lat="42.6617550" lon="-5.5012100">
        <ele>983.0</ele>
        <time>2021-08-21T04:58:31Z</time>
      </trkpt>
      <trkpt lat="42.6617830" lon="-5.5011960">
        <ele>983.0</ele>
        <time>2021-08-21T04:58:32Z</time>
      </trkpt>
      <trkpt lat="42.6618110" lon="-5.5011830">
        <ele>983.0</ele>
        <time>2021-08-21T04:58:33Z</time>
      </trkpt>
      <trkpt lat="42.6618400" lon="-5.5011710">
        <ele>983.0</ele>
        <time>2021-08-21T04:58:34Z</time>
      </trkpt>
      <trkpt lat="42.6618670" lon="-5.5011600">
        <ele>983.0</ele>
        <time>2021-08-21T04:58:35Z</time>
      </trkpt>
      <trkpt lat="42.6618930" lon="-5.5011500">
        <ele>983.0</ele>
        <time>2021-08-21T04:58:36Z</time>
      </trkpt>
      <trkpt lat="42.6619200" lon="-5.5011390">
        <ele>983.0</ele>
        <time>2021-08-21T04:58:37Z</time>
      </trkpt>
      <trkpt lat="42.6619450" lon="-5.5011290">
        <ele>983.0</ele>
        <time>2021-08-21T04:58:38Z</time>
      </trkpt>
      <trkpt lat="42.6619830" lon="-5.5011130">
        <ele>983.0</ele>
        <time>2021-08-21T04:58:39Z</time>
      </trkpt>
      <trkpt lat="42.6619950" lon="-5.5011090">
        <ele>983.0</ele>
        <time>2021-08-21T04:58:40Z</time>
      </trkpt>
      <trkpt lat="42.6620210" lon="-5.5011020">
        <ele>983.0</ele>
        <time>2021-08-21T04:58:41Z</time>
      </trkpt>
      <trkpt lat="42.6620480" lon="-5.5010920">
        <ele>983.0</ele>
        <time>2021-08-21T04:58:42Z</time>
      </trkpt>
      <trkpt lat="42.6620760" lon="-5.5010810">
        <ele>983.0</ele>
        <time>2021-08-21T04:58:43Z</time>
      </trkpt>
      <trkpt lat="42.6621000" lon="-5.5010710">
        <ele>983.0</ele>
        <time>2021-08-21T04:58:44Z</time>
      </trkpt>
      <trkpt lat="42.6621260" lon="-5.5010610">
        <ele>983.0</ele>
        <time>2021-08-21T04:58:45Z</time>
      </trkpt>
      <trkpt lat="42.6621520" lon="-5.5010520">
        <ele>983.0</ele>
        <time>2021-08-21T04:58:46Z</time>
      </trkpt>
      <trkpt lat="42.6621790" lon="-5.5010440">
        <ele>983.0</ele>
        <time>2021-08-21T04:58:47Z</time>
      </trkpt>
      <trkpt lat="42.6622040" lon="-5.5010370">
        <ele>983.0</ele>
        <time>2021-08-21T04:58:48Z</time>
      </trkpt>
      <trkpt lat="42.6622280" lon="-5.5010310">
        <ele>983.0</ele>
        <time>2021-08-21T04:58:49Z</time>
      </trkpt>
      <trkpt lat="42.6622530" lon="-5.5010240">
        <ele>983.0</ele>
        <time>2021-08-21T04:58:50Z</time>
      </trkpt>
      <trkpt lat="42.6622770" lon="-5.5010160">
        <ele>983.0</ele>
        <time>2021-08-21T04:58:51Z</time>
      </trkpt>
      <trkpt lat="42.6623020" lon="-5.5010060">
        <ele>983.0</ele>
        <time>2021-08-21T04:58:52Z</time>
      </trkpt>
      <trkpt lat="42.6623240" lon="-5.5009960">
        <ele>983.0</ele>
        <time>2021-08-21T04:58:53Z</time>
      </trkpt>
      <trkpt lat="42.6623490" lon="-5.5009820">
        <ele>983.0</ele>
        <time>2021-08-21T04:58:54Z</time>
      </trkpt>
      <trkpt lat="42.6623750" lon="-5.5009650">
        <ele>983.0</ele>
        <time>2021-08-21T04:58:55Z</time>
      </trkpt>
      <trkpt lat="42.6623980" lon="-5.5009500">
        <ele>983.0</ele>
        <time>2021-08-21T04:58:56Z</time>
      </trkpt>
      <trkpt lat="42.6624220" lon="-5.5009340">
        <ele>983.0</ele>
        <time>2021-08-21T04:58:57Z</time>
      </trkpt>
      <trkpt lat="42.6624460" lon="-5.5009190">
        <ele>984.0</ele>
        <time>2021-08-21T04:58:58Z</time>
      </trkpt>
      <trkpt lat="42.6624710" lon="-5.5009020">
        <ele>984.0</ele>
        <time>2021-08-21T04:58:59Z</time>
      </trkpt>
      <trkpt lat="42.6624950" lon="-5.5008860">
        <ele>984.0</ele>
        <time>2021-08-21T04:59:00Z</time>
      </trkpt>
      <trkpt lat="42.6625310" lon="-5.5008600">
        <ele>984.0</ele>
        <time>2021-08-21T04:59:01Z</time>
      </trkpt>
      <trkpt lat="42.6625430" lon="-5.5008510">
        <ele>984.0</ele>
        <time>2021-08-21T04:59:02Z</time>
      </trkpt>
      <trkpt lat="42.6625650" lon="-5.5008280">
        <ele>984.0</ele>
        <time>2021-08-21T04:59:03Z</time>
      </trkpt>
      <trkpt lat="42.6625860" lon="-5.5008030">
        <ele>984.0</ele>
        <time>2021-08-21T04:59:04Z</time>
      </trkpt>
      <trkpt lat="42.6626060" lon="-5.5007770">
        <ele>984.0</ele>
        <time>2021-08-21T04:59:05Z</time>
      </trkpt>
      <trkpt lat="42.6626260" lon="-5.5007520">
        <ele>984.0</ele>
        <time>2021-08-21T04:59:06Z</time>
      </trkpt>
      <trkpt lat="42.6626450" lon="-5.5007250">
        <ele>984.0</ele>
        <time>2021-08-21T04:59:07Z</time>
      </trkpt>
      <trkpt lat="42.6626670" lon="-5.5006980">
        <ele>984.0</ele>
        <time>2021-08-21T04:59:08Z</time>
      </trkpt>
      <trkpt lat="42.6626860" lon="-5.5006760">
        <ele>984.0</ele>
        <time>2021-08-21T04:59:09Z</time>
      </trkpt>
      <trkpt lat="42.6627070" lon="-5.5006560">
        <ele>984.0</ele>
        <time>2021-08-21T04:59:10Z</time>
      </trkpt>
      <trkpt lat="42.6627250" lon="-5.5006380">
        <ele>984.0</ele>
        <time>2021-08-21T04:59:11Z</time>
      </trkpt>
      <trkpt lat="42.6627470" lon="-5.5006170">
        <ele>984.0</ele>
        <time>2021-08-21T04:59:12Z</time>
      </trkpt>
      <trkpt lat="42.6627720" lon="-5.5005970">
        <ele>984.0</ele>
        <time>2021-08-21T04:59:13Z</time>
      </trkpt>
      <trkpt lat="42.6627950" lon="-5.5005750">
        <ele>984.0</ele>
        <time>2021-08-21T04:59:14Z</time>
      </trkpt>
      <trkpt lat="42.6628150" lon="-5.5005560">
        <ele>984.0</ele>
        <time>2021-08-21T04:59:15Z</time>
      </trkpt>
      <trkpt lat="42.6628370" lon="-5.5005360">
        <ele>984.0</ele>
        <time>2021-08-21T04:59:16Z</time>
      </trkpt>
      <trkpt lat="42.6628590" lon="-5.5005170">
        <ele>985.0</ele>
        <time>2021-08-21T04:59:17Z</time>
      </trkpt>
      <trkpt lat="42.6628840" lon="-5.5004990">
        <ele>985.0</ele>
        <time>2021-08-21T04:59:18Z</time>
      </trkpt>
      <trkpt lat="42.6629060" lon="-5.5004790">
        <ele>985.0</ele>
        <time>2021-08-21T04:59:19Z</time>
      </trkpt>
      <trkpt lat="42.6629250" lon="-5.5004570">
        <ele>985.0</ele>
        <time>2021-08-21T04:59:20Z</time>
      </trkpt>
      <trkpt lat="42.6629440" lon="-5.5004340">
        <ele>985.0</ele>
        <time>2021-08-21T04:59:21Z</time>
      </trkpt>
      <trkpt lat="42.6629770" lon="-5.5004040">
        <ele>985.0</ele>
        <time>2021-08-21T04:59:22Z</time>
      </trkpt>
      <trkpt lat="42.6629880" lon="-5.5003930">
        <ele>985.0</ele>
        <time>2021-08-21T04:59:23Z</time>
      </trkpt>
      <trkpt lat="42.6630120" lon="-5.5003760">
        <ele>985.0</ele>
        <time>2021-08-21T04:59:24Z</time>
      </trkpt>
      <trkpt lat="42.6630340" lon="-5.5003580">
        <ele>985.0</ele>
        <time>2021-08-21T04:59:25Z</time>
      </trkpt>
      <trkpt lat="42.6630560" lon="-5.5003380">
        <ele>985.0</ele>
        <time>2021-08-21T04:59:26Z</time>
      </trkpt>
      <trkpt lat="42.6630800" lon="-5.5003150">
        <ele>985.0</ele>
        <time>2021-08-21T04:59:27Z</time>
      </trkpt>
      <trkpt lat="42.6631020" lon="-5.5002920">
        <ele>985.0</ele>
        <time>2021-08-21T04:59:28Z</time>
      </trkpt>
      <trkpt lat="42.6631240" lon="-5.5002700">
        <ele>985.0</ele>
        <time>2021-08-21T04:59:29Z</time>
      </trkpt>
      <trkpt lat="42.6631720" lon="-5.5002350">
        <ele>985.0</ele>
        <time>2021-08-21T04:59:30Z</time>
      </trkpt>
      <trkpt lat="42.6631720" lon="-5.5002350">
        <ele>985.0</ele>
        <time>2021-08-21T04:59:31Z</time>
      </trkpt>
      <trkpt lat="42.6631940" lon="-5.5002210">
        <ele>985.0</ele>
        <time>2021-08-21T04:59:32Z</time>
      </trkpt>
      <trkpt lat="42.6632180" lon="-5.5002070">
        <ele>985.0</ele>
        <time>2021-08-21T04:59:33Z</time>
      </trkpt>
      <trkpt lat="42.6632390" lon="-5.5001930">
        <ele>985.0</ele>
        <time>2021-08-21T04:59:34Z</time>
      </trkpt>
      <trkpt lat="42.6632730" lon="-5.5001730">
        <ele>985.0</ele>
        <time>2021-08-21T04:59:35Z</time>
      </trkpt>
      <trkpt lat="42.6632850" lon="-5.5001660">
        <ele>985.0</ele>
        <time>2021-08-21T04:59:36Z</time>
      </trkpt>
      <trkpt lat="42.6633070" lon="-5.5001540">
        <ele>985.0</ele>
        <time>2021-08-21T04:59:37Z</time>
      </trkpt>
      <trkpt lat="42.6633270" lon="-5.5001420">
        <ele>986.0</ele>
        <time>2021-08-21T04:59:38Z</time>
      </trkpt>
      <trkpt lat="42.6633500" lon="-5.5001280">
        <ele>986.0</ele>
        <time>2021-08-21T04:59:39Z</time>
      </trkpt>
      <trkpt lat="42.6633730" lon="-5.5001180">
        <ele>986.0</ele>
        <time>2021-08-21T04:59:40Z</time>
      </trkpt>
      <trkpt lat="42.6633940" lon="-5.5001110">
        <ele>986.0</ele>
        <time>2021-08-21T04:59:41Z</time>
      </trkpt>
      <trkpt lat="42.6634150" lon="-5.5001050">
        <ele>986.0</ele>
        <time>2021-08-21T04:59:42Z</time>
      </trkpt>
      <trkpt lat="42.6634370" lon="-5.5001000">
        <ele>986.0</ele>
        <time>2021-08-21T04:59:43Z</time>
      </trkpt>
      <trkpt lat="42.6634600" lon="-5.5000960">
        <ele>986.0</ele>
        <time>2021-08-21T04:59:44Z</time>
      </trkpt>
      <trkpt lat="42.6634840" lon="-5.5000930">
        <ele>986.0</ele>
        <time>2021-08-21T04:59:45Z</time>
      </trkpt>
      <trkpt lat="42.6635060" lon="-5.5000910">
        <ele>987.0</ele>
        <time>2021-08-21T04:59:46Z</time>
      </trkpt>
      <trkpt lat="42.6635300" lon="-5.5000870">
        <ele>987.0</ele>
        <time>2021-08-21T04:59:47Z</time>
      </trkpt>
      <trkpt lat="42.6635540" lon="-5.5000810">
        <ele>987.0</ele>
        <time>2021-08-21T04:59:48Z</time>
      </trkpt>
      <trkpt lat="42.6635790" lon="-5.5000770">
        <ele>987.0</ele>
        <time>2021-08-21T04:59:49Z</time>
      </trkpt>
      <trkpt lat="42.6636010" lon="-5.5000720">
        <ele>987.0</ele>
        <time>2021-08-21T04:59:50Z</time>
      </trkpt>
      <trkpt lat="42.6636340" lon="-5.5000660">
        <ele>987.0</ele>
        <time>2021-08-21T04:59:51Z</time>
      </trkpt>
      <trkpt lat="42.6636440" lon="-5.5000660">
        <ele>987.0</ele>
        <time>2021-08-21T04:59:52Z</time>
      </trkpt>
      <trkpt lat="42.6636710" lon="-5.5000690">
        <ele>987.0</ele>
        <time>2021-08-21T04:59:53Z</time>
      </trkpt>
      <trkpt lat="42.6636930" lon="-5.5000730">
        <ele>987.0</ele>
        <time>2021-08-21T04:59:54Z</time>
      </trkpt>
      <trkpt lat="42.6637240" lon="-5.5000730">
        <ele>987.0</ele>
        <time>2021-08-21T04:59:55Z</time>
      </trkpt>
      <trkpt lat="42.6637340" lon="-5.5000720">
        <ele>987.0</ele>
        <time>2021-08-21T04:59:56Z</time>
      </trkpt>
      <trkpt lat="42.6637570" lon="-5.5000710">
        <ele>988.0</ele>
        <time>2021-08-21T04:59:57Z</time>
      </trkpt>
      <trkpt lat="42.6637800" lon="-5.5000720">
        <ele>988.0</ele>
        <time>2021-08-21T04:59:58Z</time>
      </trkpt>
      <trkpt lat="42.6637800" lon="-5.5000720">
        <ele>988.0</ele>
        <time>2021-08-21T04:59:59Z</time>
      </trkpt>
      <trkpt lat="42.6638370" lon="-5.5000780">
        <ele>988.0</ele>
        <time>2021-08-21T05:00:00Z</time>
      </trkpt>
      <trkpt lat="42.6638480" lon="-5.5000790">
        <ele>988.0</ele>
        <time>2021-08-21T05:00:01Z</time>
      </trkpt>
      <trkpt lat="42.6638710" lon="-5.5000800">
        <ele>988.0</ele>
        <time>2021-08-21T05:00:02Z</time>
      </trkpt>
      <trkpt lat="42.6639040" lon="-5.5000820">
        <ele>988.0</ele>
        <time>2021-08-21T05:00:03Z</time>
      </trkpt>
      <trkpt lat="42.6639140" lon="-5.5000830">
        <ele>988.0</ele>
        <time>2021-08-21T05:00:04Z</time>
      </trkpt>
      <trkpt lat="42.6639350" lon="-5.5000830">
        <ele>989.0</ele>
        <time>2021-08-21T05:00:05Z</time>
      </trkpt>
      <trkpt lat="42.6639560" lon="-5.5000820">
        <ele>989.0</ele>
        <time>2021-08-21T05:00:06Z</time>
      </trkpt>
      <trkpt lat="42.6639820" lon="-5.5000780">
        <ele>989.0</ele>
        <time>2021-08-21T05:00:07Z</time>
      </trkpt>
      <trkpt lat="42.6640070" lon="-5.5000740">
        <ele>989.0</ele>
        <time>2021-08-21T05:00:08Z</time>
      </trkpt>
      <trkpt lat="42.6640340" lon="-5.5000690">
        <ele>989.0</ele>
        <time>2021-08-21T05:00:09Z</time>
      </trkpt>
      <trkpt lat="42.6640600" lon="-5.5000670">
        <ele>989.0</ele>
        <time>2021-08-21T05:00:10Z</time>
      </trkpt>
      <trkpt lat="42.6640810" lon="-5.5000660">
        <ele>989.0</ele>
        <time>2021-08-21T05:00:11Z</time>
      </trkpt>
      <trkpt lat="42.6641030" lon="-5.5000640">
        <ele>989.0</ele>
        <time>2021-08-21T05:00:12Z</time>
      </trkpt>
      <trkpt lat="42.6641230" lon="-5.5000630">
        <ele>989.0</ele>
        <time>2021-08-21T05:00:13Z</time>
      </trkpt>
      <trkpt lat="42.6641450" lon="-5.5000610">
        <ele>989.0</ele>
        <time>2021-08-21T05:00:14Z</time>
      </trkpt>
      <trkpt lat="42.6641650" lon="-5.5000590">
        <ele>989.0</ele>
        <time>2021-08-21T05:00:15Z</time>
      </trkpt>
      <trkpt lat="42.6641880" lon="-5.5000600">
        <ele>989.0</ele>
        <time>2021-08-21T05:00:16Z</time>
      </trkpt>
      <trkpt lat="42.6642140" lon="-5.5000670">
        <ele>989.0</ele>
        <time>2021-08-21T05:00:18Z</time>
      </trkpt>
      <trkpt lat="42.6642410" lon="-5.5000740">
        <ele>989.0</ele>
        <time>2021-08-21T05:00:19Z</time>
      </trkpt>
      <trkpt lat="42.6642670" lon="-5.5000810">
        <ele>990.0</ele>
        <time>2021-08-21T05:00:20Z</time>
      </trkpt>
      <trkpt lat="42.6642890" lon="-5.5000810">
        <ele>990.0</ele>
        <time>2021-08-21T05:00:21Z</time>
      </trkpt>
      <trkpt lat="42.6643100" lon="-5.5000840">
        <ele>990.0</ele>
        <time>2021-08-21T05:00:22Z</time>
      </trkpt>
      <trkpt lat="42.6643320" lon="-5.5000860">
        <ele>990.0</ele>
        <time>2021-08-21T05:00:23Z</time>
      </trkpt>
      <trkpt lat="42.6643660" lon="-5.5000820">
        <ele>990.0</ele>
        <time>2021-08-21T05:00:24Z</time>
      </trkpt>
      <trkpt lat="42.6643780" lon="-5.5000800">
        <ele>990.0</ele>
        <time>2021-08-21T05:00:25Z</time>
      </trkpt>
      <trkpt lat="42.6643990" lon="-5.5000750">
        <ele>990.0</ele>
        <time>2021-08-21T05:00:26Z</time>
      </trkpt>
      <trkpt lat="42.6644190" lon="-5.5000720">
        <ele>990.0</ele>
        <time>2021-08-21T05:00:27Z</time>
      </trkpt>
      <trkpt lat="42.6644450" lon="-5.5000670">
        <ele>990.0</ele>
        <time>2021-08-21T05:00:28Z</time>
      </trkpt>
      <trkpt lat="42.6644680" lon="-5.5000650">
        <ele>991.0</ele>
        <time>2021-08-21T05:00:29Z</time>
      </trkpt>
      <trkpt lat="42.6644920" lon="-5.5000600">
        <ele>991.0</ele>
        <time>2021-08-21T05:00:30Z</time>
      </trkpt>
      <trkpt lat="42.6645150" lon="-5.5000560">
        <ele>991.0</ele>
        <time>2021-08-21T05:00:31Z</time>
      </trkpt>
      <trkpt lat="42.6645390" lon="-5.5000520">
        <ele>991.0</ele>
        <time>2021-08-21T05:00:32Z</time>
      </trkpt>
      <trkpt lat="42.6645640" lon="-5.5000470">
        <ele>992.0</ele>
        <time>2021-08-21T05:00:33Z</time>
      </trkpt>
      <trkpt lat="42.6645860" lon="-5.5000390">
        <ele>992.0</ele>
        <time>2021-08-21T05:00:34Z</time>
      </trkpt>
      <trkpt lat="42.6646110" lon="-5.5000330">
        <ele>992.0</ele>
        <time>2021-08-21T05:00:35Z</time>
      </trkpt>
      <trkpt lat="42.6646310" lon="-5.5000330">
        <ele>992.0</ele>
        <time>2021-08-21T05:00:36Z</time>
      </trkpt>
      <trkpt lat="42.6646540" lon="-5.5000330">
        <ele>992.0</ele>
        <time>2021-08-21T05:00:37Z</time>
      </trkpt>
      <trkpt lat="42.6646750" lon="-5.5000320">
        <ele>992.0</ele>
        <time>2021-08-21T05:00:38Z</time>
      </trkpt>
      <trkpt lat="42.6646750" lon="-5.5000320">
        <ele>992.0</ele>
        <time>2021-08-21T05:00:39Z</time>
      </trkpt>
      <trkpt lat="42.6647060" lon="-5.5000340">
        <ele>992.0</ele>
        <time>2021-08-21T05:00:40Z</time>
      </trkpt>
      <trkpt lat="42.6647060" lon="-5.5000340">
        <ele>992.0</ele>
        <time>2021-08-21T05:00:41Z</time>
      </trkpt>
      <trkpt lat="42.6647330" lon="-5.5000340">
        <ele>993.0</ele>
        <time>2021-08-21T05:00:42Z</time>
      </trkpt>
      <trkpt lat="42.6647330" lon="-5.5000340">
        <ele>993.0</ele>
        <time>2021-08-21T05:00:43Z</time>
      </trkpt>
      <trkpt lat="42.6647640" lon="-5.5000330">
        <ele>993.0</ele>
        <time>2021-08-21T05:00:44Z</time>
      </trkpt>
      <trkpt lat="42.6647820" lon="-5.5000280">
        <ele>993.0</ele>
        <time>2021-08-21T05:00:45Z</time>
      </trkpt>
      <trkpt lat="42.6647820" lon="-5.5000280">
        <ele>993.0</ele>
        <time>2021-08-21T05:00:46Z</time>
      </trkpt>
      <trkpt lat="42.6648190" lon="-5.5000150">
        <ele>993.0</ele>
        <time>2021-08-21T05:00:47Z</time>
      </trkpt>
      <trkpt lat="42.6648400" lon="-5.5000100">
        <ele>994.0</ele>
        <time>2021-08-21T05:00:48Z</time>
      </trkpt>
      <trkpt lat="42.6648620" lon="-5.5000060">
        <ele>994.0</ele>
        <time>2021-08-21T05:00:49Z</time>
      </trkpt>
      <trkpt lat="42.6648920" lon="-5.5000000">
        <ele>994.0</ele>
        <time>2021-08-21T05:00:50Z</time>
      </trkpt>
      <trkpt lat="42.6649010" lon="-5.4999980">
        <ele>994.0</ele>
        <time>2021-08-21T05:00:51Z</time>
      </trkpt>
      <trkpt lat="42.6649220" lon="-5.4999950">
        <ele>994.0</ele>
        <time>2021-08-21T05:00:52Z</time>
      </trkpt>
      <trkpt lat="42.6649630" lon="-5.5000000">
        <ele>995.0</ele>
        <time>2021-08-21T05:00:54Z</time>
      </trkpt>
      <trkpt lat="42.6649810" lon="-5.5000070">
        <ele>995.0</ele>
        <time>2021-08-21T05:00:55Z</time>
      </trkpt>
      <trkpt lat="42.6649990" lon="-5.5000140">
        <ele>995.0</ele>
        <time>2021-08-21T05:00:56Z</time>
      </trkpt>
      <trkpt lat="42.6650190" lon="-5.5000170">
        <ele>995.0</ele>
        <time>2021-08-21T05:00:57Z</time>
      </trkpt>
      <trkpt lat="42.6650370" lon="-5.5000190">
        <ele>995.0</ele>
        <time>2021-08-21T05:00:58Z</time>
      </trkpt>
      <trkpt lat="42.6650560" lon="-5.5000210">
        <ele>995.0</ele>
        <time>2021-08-21T05:00:59Z</time>
      </trkpt>
      <trkpt lat="42.6650560" lon="-5.5000210">
        <ele>995.0</ele>
        <time>2021-08-21T05:01:00Z</time>
      </trkpt>
      <trkpt lat="42.6650920" lon="-5.5000230">
        <ele>996.0</ele>
        <time>2021-08-21T05:01:01Z</time>
      </trkpt>
      <trkpt lat="42.6651110" lon="-5.5000210">
        <ele>996.0</ele>
        <time>2021-08-21T05:01:02Z</time>
      </trkpt>
      <trkpt lat="42.6651600" lon="-5.5000190">
        <ele>996.0</ele>
        <time>2021-08-21T05:01:04Z</time>
      </trkpt>
      <trkpt lat="42.6651700" lon="-5.5000210">
        <ele>996.0</ele>
        <time>2021-08-21T05:01:05Z</time>
      </trkpt>
      <trkpt lat="42.6651880" lon="-5.5000290">
        <ele>996.0</ele>
        <time>2021-08-21T05:01:06Z</time>
      </trkpt>
      <trkpt lat="42.6652070" lon="-5.5000390">
        <ele>997.0</ele>
        <time>2021-08-21T05:01:07Z</time>
      </trkpt>
      <trkpt lat="42.6652240" lon="-5.5000490">
        <ele>997.0</ele>
        <time>2021-08-21T05:01:08Z</time>
      </trkpt>
      <trkpt lat="42.6652430" lon="-5.5000570">
        <ele>998.0</ele>
        <time>2021-08-21T05:01:09Z</time>
      </trkpt>
      <trkpt lat="42.6652690" lon="-5.5000710">
        <ele>998.0</ele>
        <time>2021-08-21T05:01:10Z</time>
      </trkpt>
      <trkpt lat="42.6652770" lon="-5.5000760">
        <ele>998.0</ele>
        <time>2021-08-21T05:01:11Z</time>
      </trkpt>
      <trkpt lat="42.6652770" lon="-5.5000760">
        <ele>998.0</ele>
        <time>2021-08-21T05:01:12Z</time>
      </trkpt>
      <trkpt lat="42.6653080" lon="-5.5001000">
        <ele>998.0</ele>
        <time>2021-08-21T05:01:13Z</time>
      </trkpt>
      <trkpt lat="42.6653240" lon="-5.5001160">
        <ele>998.0</ele>
        <time>2021-08-21T05:01:14Z</time>
      </trkpt>
      <trkpt lat="42.6653410" lon="-5.5001300">
        <ele>999.0</ele>
        <time>2021-08-21T05:01:15Z</time>
      </trkpt>
      <trkpt lat="42.6653580" lon="-5.5001430">
        <ele>999.0</ele>
        <time>2021-08-21T05:01:16Z</time>
      </trkpt>
      <trkpt lat="42.6653760" lon="-5.5001540">
        <ele>999.0</ele>
        <time>2021-08-21T05:01:17Z</time>
      </trkpt>
      <trkpt lat="42.6653920" lon="-5.5001680">
        <ele>999.0</ele>
        <time>2021-08-21T05:01:18Z</time>
      </trkpt>
      <trkpt lat="42.6654090" lon="-5.5001840">
        <ele>999.0</ele>
        <time>2021-08-21T05:01:19Z</time>
      </trkpt>
      <trkpt lat="42.6654230" lon="-5.5002040">
        <ele>999.0</ele>
        <time>2021-08-21T05:01:20Z</time>
      </trkpt>
      <trkpt lat="42.6654360" lon="-5.5002260">
        <ele>999.0</ele>
        <time>2021-08-21T05:01:21Z</time>
      </trkpt>
      <trkpt lat="42.6654500" lon="-5.5002480">
        <ele>999.0</ele>
        <time>2021-08-21T05:01:22Z</time>
      </trkpt>
      <trkpt lat="42.6654630" lon="-5.5002680">
        <ele>1000.0</ele>
        <time>2021-08-21T05:01:23Z</time>
      </trkpt>
      <trkpt lat="42.6654790" lon="-5.5002870">
        <ele>1000.0</ele>
        <time>2021-08-21T05:01:24Z</time>
      </trkpt>
      <trkpt lat="42.6654930" lon="-5.5003060">
        <ele>1000.0</ele>
        <time>2021-08-21T05:01:25Z</time>
      </trkpt>
      <trkpt lat="42.6655070" lon="-5.5003240">
        <ele>1000.0</ele>
        <time>2021-08-21T05:01:26Z</time>
      </trkpt>
      <trkpt lat="42.6655210" lon="-5.5003430">
        <ele>1000.0</ele>
        <time>2021-08-21T05:01:27Z</time>
      </trkpt>
      <trkpt lat="42.6655340" lon="-5.5003610">
        <ele>1000.0</ele>
        <time>2021-08-21T05:01:28Z</time>
      </trkpt>
      <trkpt lat="42.6655500" lon="-5.5003770">
        <ele>1000.0</ele>
        <time>2021-08-21T05:01:29Z</time>
      </trkpt>
      <trkpt lat="42.6655660" lon="-5.5003930">
        <ele>1000.0</ele>
        <time>2021-08-21T05:01:30Z</time>
      </trkpt>
      <trkpt lat="42.6655800" lon="-5.5004130">
        <ele>1001.0</ele>
        <time>2021-08-21T05:01:31Z</time>
      </trkpt>
      <trkpt lat="42.6655950" lon="-5.5004330">
        <ele>1001.0</ele>
        <time>2021-08-21T05:01:32Z</time>
      </trkpt>
      <trkpt lat="42.6656090" lon="-5.5004530">
        <ele>1001.0</ele>
        <time>2021-08-21T05:01:33Z</time>
      </trkpt>
      <trkpt lat="42.6656250" lon="-5.5004750">
        <ele>1001.0</ele>
        <time>2021-08-21T05:01:34Z</time>
      </trkpt>
      <trkpt lat="42.6656460" lon="-5.5005120">
        <ele>1001.0</ele>
        <time>2021-08-21T05:01:35Z</time>
      </trkpt>
      <trkpt lat="42.6656530" lon="-5.5005240">
        <ele>1001.0</ele>
        <time>2021-08-21T05:01:36Z</time>
      </trkpt>
      <trkpt lat="42.6656650" lon="-5.5005480">
        <ele>1001.0</ele>
        <time>2021-08-21T05:01:37Z</time>
      </trkpt>
      <trkpt lat="42.6656790" lon="-5.5005720">
        <ele>1001.0</ele>
        <time>2021-08-21T05:01:38Z</time>
      </trkpt>
      <trkpt lat="42.6656940" lon="-5.5005960">
        <ele>1001.0</ele>
        <time>2021-08-21T05:01:39Z</time>
      </trkpt>
      <trkpt lat="42.6657070" lon="-5.5006210">
        <ele>1001.0</ele>
        <time>2021-08-21T05:01:40Z</time>
      </trkpt>
      <trkpt lat="42.6657210" lon="-5.5006480">
        <ele>1002.0</ele>
        <time>2021-08-21T05:01:41Z</time>
      </trkpt>
      <trkpt lat="42.6657360" lon="-5.5006710">
        <ele>1002.0</ele>
        <time>2021-08-21T05:01:42Z</time>
      </trkpt>
      <trkpt lat="42.6657500" lon="-5.5006970">
        <ele>1002.0</ele>
        <time>2021-08-21T05:01:43Z</time>
      </trkpt>
      <trkpt lat="42.6657640" lon="-5.5007220">
        <ele>1002.0</ele>
        <time>2021-08-21T05:01:44Z</time>
      </trkpt>
      <trkpt lat="42.6657780" lon="-5.5007470">
        <ele>1002.0</ele>
        <time>2021-08-21T05:01:45Z</time>
      </trkpt>
      <trkpt lat="42.6657910" lon="-5.5007740">
        <ele>1002.0</ele>
        <time>2021-08-21T05:01:46Z</time>
      </trkpt>
      <trkpt lat="42.6658060" lon="-5.5008030">
        <ele>1003.0</ele>
        <time>2021-08-21T05:01:47Z</time>
      </trkpt>
      <trkpt lat="42.6658210" lon="-5.5008310">
        <ele>1003.0</ele>
        <time>2021-08-21T05:01:48Z</time>
      </trkpt>
      <trkpt lat="42.6658340" lon="-5.5008550">
        <ele>1003.0</ele>
        <time>2021-08-21T05:01:49Z</time>
      </trkpt>
      <trkpt lat="42.6658480" lon="-5.5008850">
        <ele>1003.0</ele>
        <time>2021-08-21T05:01:50Z</time>
      </trkpt>
      <trkpt lat="42.6658620" lon="-5.5009150">
        <ele>1003.0</ele>
        <time>2021-08-21T05:01:51Z</time>
      </trkpt>
      <trkpt lat="42.6658740" lon="-5.5009460">
        <ele>1004.0</ele>
        <time>2021-08-21T05:01:52Z</time>
      </trkpt>
      <trkpt lat="42.6658870" lon="-5.5009740">
        <ele>1004.0</ele>
        <time>2021-08-21T05:01:53Z</time>
      </trkpt>
      <trkpt lat="42.6659010" lon="-5.5010000">
        <ele>1004.0</ele>
        <time>2021-08-21T05:01:54Z</time>
      </trkpt>
      <trkpt lat="42.6659160" lon="-5.5010290">
        <ele>1004.0</ele>
        <time>2021-08-21T05:01:55Z</time>
      </trkpt>
      <trkpt lat="42.6659280" lon="-5.5010590">
        <ele>1004.0</ele>
        <time>2021-08-21T05:01:56Z</time>
      </trkpt>
      <trkpt lat="42.6659380" lon="-5.5010890">
        <ele>1004.0</ele>
        <time>2021-08-21T05:01:57Z</time>
      </trkpt>
      <trkpt lat="42.6659520" lon="-5.5011170">
        <ele>1004.0</ele>
        <time>2021-08-21T05:01:58Z</time>
      </trkpt>
      <trkpt lat="42.6659660" lon="-5.5011480">
        <ele>1004.0</ele>
        <time>2021-08-21T05:01:59Z</time>
      </trkpt>
      <trkpt lat="42.6659870" lon="-5.5011950">
        <ele>1004.0</ele>
        <time>2021-08-21T05:02:00Z</time>
      </trkpt>
      <trkpt lat="42.6659950" lon="-5.5012100">
        <ele>1004.0</ele>
        <time>2021-08-21T05:02:01Z</time>
      </trkpt>
      <trkpt lat="42.6660110" lon="-5.5012370">
        <ele>1004.0</ele>
        <time>2021-08-21T05:02:02Z</time>
      </trkpt>
      <trkpt lat="42.6660260" lon="-5.5012640">
        <ele>1004.0</ele>
        <time>2021-08-21T05:02:03Z</time>
      </trkpt>
      <trkpt lat="42.6660430" lon="-5.5012930">
        <ele>1004.0</ele>
        <time>2021-08-21T05:02:04Z</time>
      </trkpt>
      <trkpt lat="42.6660610" lon="-5.5013210">
        <ele>1004.0</ele>
        <time>2021-08-21T05:02:05Z</time>
      </trkpt>
      <trkpt lat="42.6660790" lon="-5.5013480">
        <ele>1004.0</ele>
        <time>2021-08-21T05:02:06Z</time>
      </trkpt>
      <trkpt lat="42.6660980" lon="-5.5013760">
        <ele>1004.0</ele>
        <time>2021-08-21T05:02:07Z</time>
      </trkpt>
      <trkpt lat="42.6661180" lon="-5.5014040">
        <ele>1004.0</ele>
        <time>2021-08-21T05:02:08Z</time>
      </trkpt>
      <trkpt lat="42.6661370" lon="-5.5014280">
        <ele>1004.0</ele>
        <time>2021-08-21T05:02:09Z</time>
      </trkpt>
      <trkpt lat="42.6661550" lon="-5.5014540">
        <ele>1004.0</ele>
        <time>2021-08-21T05:02:10Z</time>
      </trkpt>
      <trkpt lat="42.6661710" lon="-5.5014780">
        <ele>1004.0</ele>
        <time>2021-08-21T05:02:11Z</time>
      </trkpt>
      <trkpt lat="42.6661890" lon="-5.5015060">
        <ele>1004.0</ele>
        <time>2021-08-21T05:02:12Z</time>
      </trkpt>
      <trkpt lat="42.6662100" lon="-5.5015310">
        <ele>1004.0</ele>
        <time>2021-08-21T05:02:13Z</time>
      </trkpt>
      <trkpt lat="42.6662320" lon="-5.5015540">
        <ele>1004.0</ele>
        <time>2021-08-21T05:02:14Z</time>
      </trkpt>
      <trkpt lat="42.6662550" lon="-5.5015720">
        <ele>1005.0</ele>
        <time>2021-08-21T05:02:15Z</time>
      </trkpt>
      <trkpt lat="42.6662800" lon="-5.5015860">
        <ele>1005.0</ele>
        <time>2021-08-21T05:02:16Z</time>
      </trkpt>
      <trkpt lat="42.6663190" lon="-5.5016030">
        <ele>1005.0</ele>
        <time>2021-08-21T05:02:17Z</time>
      </trkpt>
      <trkpt lat="42.6663320" lon="-5.5016090">
        <ele>1005.0</ele>
        <time>2021-08-21T05:02:18Z</time>
      </trkpt>
      <trkpt lat="42.6663560" lon="-5.5016210">
        <ele>1005.0</ele>
        <time>2021-08-21T05:02:19Z</time>
      </trkpt>
      <trkpt lat="42.6663790" lon="-5.5016360">
        <ele>1005.0</ele>
        <time>2021-08-21T05:02:20Z</time>
      </trkpt>
      <trkpt lat="42.6664030" lon="-5.5016500">
        <ele>1005.0</ele>
        <time>2021-08-21T05:02:21Z</time>
      </trkpt>
      <trkpt lat="42.6664260" lon="-5.5016610">
        <ele>1005.0</ele>
        <time>2021-08-21T05:02:22Z</time>
      </trkpt>
      <trkpt lat="42.6664500" lon="-5.5016720">
        <ele>1005.0</ele>
        <time>2021-08-21T05:02:23Z</time>
      </trkpt>
      <trkpt lat="42.6664750" lon="-5.5016810">
        <ele>1005.0</ele>
        <time>2021-08-21T05:02:24Z</time>
      </trkpt>
      <trkpt lat="42.6665030" lon="-5.5016850">
        <ele>1006.0</ele>
        <time>2021-08-21T05:02:25Z</time>
      </trkpt>
      <trkpt lat="42.6665280" lon="-5.5016900">
        <ele>1006.0</ele>
        <time>2021-08-21T05:02:26Z</time>
      </trkpt>
      <trkpt lat="42.6665530" lon="-5.5016960">
        <ele>1006.0</ele>
        <time>2021-08-21T05:02:27Z</time>
      </trkpt>
      <trkpt lat="42.6665770" lon="-5.5016990">
        <ele>1006.0</ele>
        <time>2021-08-21T05:02:28Z</time>
      </trkpt>
      <trkpt lat="42.6666020" lon="-5.5017030">
        <ele>1006.0</ele>
        <time>2021-08-21T05:02:29Z</time>
      </trkpt>
      <trkpt lat="42.6666420" lon="-5.5017070">
        <ele>1006.0</ele>
        <time>2021-08-21T05:02:30Z</time>
      </trkpt>
      <trkpt lat="42.6666550" lon="-5.5017080">
        <ele>1006.0</ele>
        <time>2021-08-21T05:02:31Z</time>
      </trkpt>
      <trkpt lat="42.6666820" lon="-5.5017060">
        <ele>1006.0</ele>
        <time>2021-08-21T05:02:32Z</time>
      </trkpt>
      <trkpt lat="42.6667070" lon="-5.5017050">
        <ele>1006.0</ele>
        <time>2021-08-21T05:02:33Z</time>
      </trkpt>
      <trkpt lat="42.6667330" lon="-5.5017040">
        <ele>1006.0</ele>
        <time>2021-08-21T05:02:34Z</time>
      </trkpt>
      <trkpt lat="42.6667580" lon="-5.5017060">
        <ele>1006.0</ele>
        <time>2021-08-21T05:02:35Z</time>
      </trkpt>
      <trkpt lat="42.6667840" lon="-5.5017090">
        <ele>1006.0</ele>
        <time>2021-08-21T05:02:36Z</time>
      </trkpt>
      <trkpt lat="42.6668100" lon="-5.5017130">
        <ele>1006.0</ele>
        <time>2021-08-21T05:02:37Z</time>
      </trkpt>
      <trkpt lat="42.6668340" lon="-5.5017150">
        <ele>1007.0</ele>
        <time>2021-08-21T05:02:38Z</time>
      </trkpt>
      <trkpt lat="42.6668590" lon="-5.5017160">
        <ele>1007.0</ele>
        <time>2021-08-21T05:02:39Z</time>
      </trkpt>
      <trkpt lat="42.6668840" lon="-5.5017180">
        <ele>1007.0</ele>
        <time>2021-08-21T05:02:40Z</time>
      </trkpt>
      <trkpt lat="42.6669060" lon="-5.5017210">
        <ele>1007.0</ele>
        <time>2021-08-21T05:02:41Z</time>
      </trkpt>
      <trkpt lat="42.6669280" lon="-5.5017240">
        <ele>1007.0</ele>
        <time>2021-08-21T05:02:42Z</time>
      </trkpt>
      <trkpt lat="42.6669540" lon="-5.5017290">
        <ele>1007.0</ele>
        <time>2021-08-21T05:02:43Z</time>
      </trkpt>
      <trkpt lat="42.6669770" lon="-5.5017340">
        <ele>1007.0</ele>
        <time>2021-08-21T05:02:44Z</time>
      </trkpt>
      <trkpt lat="42.6670010" lon="-5.5017410">
        <ele>1007.0</ele>
        <time>2021-08-21T05:02:45Z</time>
      </trkpt>
      <trkpt lat="42.6670250" lon="-5.5017450">
        <ele>1007.0</ele>
        <time>2021-08-21T05:02:46Z</time>
      </trkpt>
      <trkpt lat="42.6670510" lon="-5.5017490">
        <ele>1007.0</ele>
        <time>2021-08-21T05:02:47Z</time>
      </trkpt>
      <trkpt lat="42.6670740" lon="-5.5017540">
        <ele>1007.0</ele>
        <time>2021-08-21T05:02:48Z</time>
      </trkpt>
      <trkpt lat="42.6671000" lon="-5.5017550">
        <ele>1007.0</ele>
        <time>2021-08-21T05:02:49Z</time>
      </trkpt>
      <trkpt lat="42.6671270" lon="-5.5017580">
        <ele>1007.0</ele>
        <time>2021-08-21T05:02:50Z</time>
      </trkpt>
      <trkpt lat="42.6671530" lon="-5.5017640">
        <ele>1007.0</ele>
        <time>2021-08-21T05:02:51Z</time>
      </trkpt>
      <trkpt lat="42.6671770" lon="-5.5017700">
        <ele>1007.0</ele>
        <time>2021-08-21T05:02:52Z</time>
      </trkpt>
      <trkpt lat="42.6672020" lon="-5.5017710">
        <ele>1008.0</ele>
        <time>2021-08-21T05:02:53Z</time>
      </trkpt>
      <trkpt lat="42.6672400" lon="-5.5017710">
        <ele>1008.0</ele>
        <time>2021-08-21T05:02:54Z</time>
      </trkpt>
      <trkpt lat="42.6672530" lon="-5.5017700">
        <ele>1008.0</ele>
        <time>2021-08-21T05:02:55Z</time>
      </trkpt>
      <trkpt lat="42.6672780" lon="-5.5017690">
        <ele>1008.0</ele>
        <time>2021-08-21T05:02:56Z</time>
      </trkpt>
      <trkpt lat="42.6673170" lon="-5.5017650">
        <ele>1008.0</ele>
        <time>2021-08-21T05:02:57Z</time>
      </trkpt>
      <trkpt lat="42.6673290" lon="-5.5017630">
        <ele>1008.0</ele>
        <time>2021-08-21T05:02:58Z</time>
      </trkpt>
      <trkpt lat="42.6673560" lon="-5.5017590">
        <ele>1008.0</ele>
        <time>2021-08-21T05:02:59Z</time>
      </trkpt>
      <trkpt lat="42.6673800" lon="-5.5017590">
        <ele>1008.0</ele>
        <time>2021-08-21T05:03:00Z</time>
      </trkpt>
      <trkpt lat="42.6674040" lon="-5.5017580">
        <ele>1008.0</ele>
        <time>2021-08-21T05:03:01Z</time>
      </trkpt>
      <trkpt lat="42.6674280" lon="-5.5017600">
        <ele>1008.0</ele>
        <time>2021-08-21T05:03:02Z</time>
      </trkpt>
      <trkpt lat="42.6674520" lon="-5.5017580">
        <ele>1009.0</ele>
        <time>2021-08-21T05:03:03Z</time>
      </trkpt>
      <trkpt lat="42.6674760" lon="-5.5017520">
        <ele>1009.0</ele>
        <time>2021-08-21T05:03:04Z</time>
      </trkpt>
      <trkpt lat="42.6675000" lon="-5.5017440">
        <ele>1009.0</ele>
        <time>2021-08-21T05:03:05Z</time>
      </trkpt>
      <trkpt lat="42.6675220" lon="-5.5017370">
        <ele>1009.0</ele>
        <time>2021-08-21T05:03:06Z</time>
      </trkpt>
      <trkpt lat="42.6675480" lon="-5.5017320">
        <ele>1009.0</ele>
        <time>2021-08-21T05:03:07Z</time>
      </trkpt>
      <trkpt lat="42.6675730" lon="-5.5017320">
        <ele>1009.0</ele>
        <time>2021-08-21T05:03:08Z</time>
      </trkpt>
      <trkpt lat="42.6675980" lon="-5.5017300">
        <ele>1010.0</ele>
        <time>2021-08-21T05:03:09Z</time>
      </trkpt>
      <trkpt lat="42.6676340" lon="-5.5017180">
        <ele>1010.0</ele>
        <time>2021-08-21T05:03:10Z</time>
      </trkpt>
      <trkpt lat="42.6676450" lon="-5.5017130">
        <ele>1010.0</ele>
        <time>2021-08-21T05:03:11Z</time>
      </trkpt>
      <trkpt lat="42.6676680" lon="-5.5017030">
        <ele>1010.0</ele>
        <time>2021-08-21T05:03:12Z</time>
      </trkpt>
      <trkpt lat="42.6676900" lon="-5.5016940">
        <ele>1010.0</ele>
        <time>2021-08-21T05:03:13Z</time>
      </trkpt>
      <trkpt lat="42.6677120" lon="-5.5016840">
        <ele>1011.0</ele>
        <time>2021-08-21T05:03:14Z</time>
      </trkpt>
      <trkpt lat="42.6677340" lon="-5.5016730">
        <ele>1011.0</ele>
        <time>2021-08-21T05:03:15Z</time>
      </trkpt>
      <trkpt lat="42.6677540" lon="-5.5016610">
        <ele>1011.0</ele>
        <time>2021-08-21T05:03:16Z</time>
      </trkpt>
      <trkpt lat="42.6677720" lon="-5.5016490">
        <ele>1011.0</ele>
        <time>2021-08-21T05:03:17Z</time>
      </trkpt>
      <trkpt lat="42.6677930" lon="-5.5016380">
        <ele>1011.0</ele>
        <time>2021-08-21T05:03:18Z</time>
      </trkpt>
      <trkpt lat="42.6678150" lon="-5.5016250">
        <ele>1011.0</ele>
        <time>2021-08-21T05:03:19Z</time>
      </trkpt>
      <trkpt lat="42.6678370" lon="-5.5016120">
        <ele>1011.0</ele>
        <time>2021-08-21T05:03:20Z</time>
      </trkpt>
      <trkpt lat="42.6678700" lon="-5.5015930">
        <ele>1011.0</ele>
        <time>2021-08-21T05:03:21Z</time>
      </trkpt>
      <trkpt lat="42.6678810" lon="-5.5015860">
        <ele>1011.0</ele>
        <time>2021-08-21T05:03:22Z</time>
      </trkpt>
      <trkpt lat="42.6679030" lon="-5.5015750">
        <ele>1011.0</ele>
        <time>2021-08-21T05:03:23Z</time>
      </trkpt>
      <trkpt lat="42.6679250" lon="-5.5015630">
        <ele>1011.0</ele>
        <time>2021-08-21T05:03:24Z</time>
      </trkpt>
      <trkpt lat="42.6679480" lon="-5.5015520">
        <ele>1011.0</ele>
        <time>2021-08-21T05:03:25Z</time>
      </trkpt>
      <trkpt lat="42.6679720" lon="-5.5015400">
        <ele>1011.0</ele>
        <time>2021-08-21T05:03:26Z</time>
      </trkpt>
      <trkpt lat="42.6680060" lon="-5.5015250">
        <ele>1011.0</ele>
        <time>2021-08-21T05:03:27Z</time>
      </trkpt>
      <trkpt lat="42.6680170" lon="-5.5015200">
        <ele>1011.0</ele>
        <time>2021-08-21T05:03:28Z</time>
      </trkpt>
      <trkpt lat="42.6680400" lon="-5.5015110">
        <ele>1011.0</ele>
        <time>2021-08-21T05:03:29Z</time>
      </trkpt>
      <trkpt lat="42.6680620" lon="-5.5015010">
        <ele>1012.0</ele>
        <time>2021-08-21T05:03:30Z</time>
      </trkpt>
      <trkpt lat="42.6680840" lon="-5.5014910">
        <ele>1012.0</ele>
        <time>2021-08-21T05:03:31Z</time>
      </trkpt>
      <trkpt lat="42.6681060" lon="-5.5014810">
        <ele>1012.0</ele>
        <time>2021-08-21T05:03:32Z</time>
      </trkpt>
      <trkpt lat="42.6681390" lon="-5.5014640">
        <ele>1012.0</ele>
        <time>2021-08-21T05:03:33Z</time>
      </trkpt>
      <trkpt lat="42.6681500" lon="-5.5014590">
        <ele>1012.0</ele>
        <time>2021-08-21T05:03:34Z</time>
      </trkpt>
      <trkpt lat="42.6681710" lon="-5.5014440">
        <ele>1012.0</ele>
        <time>2021-08-21T05:03:35Z</time>
      </trkpt>
      <trkpt lat="42.6681910" lon="-5.5014300">
        <ele>1012.0</ele>
        <time>2021-08-21T05:03:36Z</time>
      </trkpt>
      <trkpt lat="42.6682220" lon="-5.5014130">
        <ele>1012.0</ele>
        <time>2021-08-21T05:03:37Z</time>
      </trkpt>
      <trkpt lat="42.6682320" lon="-5.5014070">
        <ele>1012.0</ele>
        <time>2021-08-21T05:03:38Z</time>
      </trkpt>
      <trkpt lat="42.6682530" lon="-5.5013950">
        <ele>1012.0</ele>
        <time>2021-08-21T05:03:39Z</time>
      </trkpt>
      <trkpt lat="42.6682730" lon="-5.5013850">
        <ele>1012.0</ele>
        <time>2021-08-21T05:03:40Z</time>
      </trkpt>
      <trkpt lat="42.6682730" lon="-5.5013850">
        <ele>1012.0</ele>
        <time>2021-08-21T05:03:41Z</time>
      </trkpt>
      <trkpt lat="42.6683190" lon="-5.5013670">
        <ele>1012.0</ele>
        <time>2021-08-21T05:03:42Z</time>
      </trkpt>
      <trkpt lat="42.6683410" lon="-5.5013570">
        <ele>1013.0</ele>
        <time>2021-08-21T05:03:43Z</time>
      </trkpt>
      <trkpt lat="42.6683620" lon="-5.5013470">
        <ele>1013.0</ele>
        <time>2021-08-21T05:03:44Z</time>
      </trkpt>
      <trkpt lat="42.6683840" lon="-5.5013360">
        <ele>1013.0</ele>
        <time>2021-08-21T05:03:45Z</time>
      </trkpt>
      <trkpt lat="42.6684070" lon="-5.5013260">
        <ele>1013.0</ele>
        <time>2021-08-21T05:03:46Z</time>
      </trkpt>
      <trkpt lat="42.6684310" lon="-5.5013170">
        <ele>1013.0</ele>
        <time>2021-08-21T05:03:47Z</time>
      </trkpt>
      <trkpt lat="42.6684540" lon="-5.5013080">
        <ele>1013.0</ele>
        <time>2021-08-21T05:03:48Z</time>
      </trkpt>
      <trkpt lat="42.6684760" lon="-5.5012980">
        <ele>1013.0</ele>
        <time>2021-08-21T05:03:49Z</time>
      </trkpt>
      <trkpt lat="42.6684990" lon="-5.5012910">
        <ele>1013.0</ele>
        <time>2021-08-21T05:03:50Z</time>
      </trkpt>
      <trkpt lat="42.6685220" lon="-5.5012820">
        <ele>1014.0</ele>
        <time>2021-08-21T05:03:51Z</time>
      </trkpt>
      <trkpt lat="42.6685450" lon="-5.5012730">
        <ele>1014.0</ele>
        <time>2021-08-21T05:03:52Z</time>
      </trkpt>
      <trkpt lat="42.6685680" lon="-5.5012640">
        <ele>1014.0</ele>
        <time>2021-08-21T05:03:53Z</time>
      </trkpt>
      <trkpt lat="42.6685910" lon="-5.5012550">
        <ele>1014.0</ele>
        <time>2021-08-21T05:03:54Z</time>
      </trkpt>
      <trkpt lat="42.6686130" lon="-5.5012480">
        <ele>1014.0</ele>
        <time>2021-08-21T05:03:55Z</time>
      </trkpt>
      <trkpt lat="42.6686360" lon="-5.5012400">
        <ele>1014.0</ele>
        <time>2021-08-21T05:03:56Z</time>
      </trkpt>
      <trkpt lat="42.6686680" lon="-5.5012290">
        <ele>1014.0</ele>
        <time>2021-08-21T05:03:57Z</time>
      </trkpt>
      <trkpt lat="42.6686790" lon="-5.5012240">
        <ele>1014.0</ele>
        <time>2021-08-21T05:03:58Z</time>
      </trkpt>
      <trkpt lat="42.6687000" lon="-5.5012170">
        <ele>1014.0</ele>
        <time>2021-08-21T05:03:59Z</time>
      </trkpt>
      <trkpt lat="42.6687210" lon="-5.5012080">
        <ele>1014.0</ele>
        <time>2021-08-21T05:04:00Z</time>
      </trkpt>
      <trkpt lat="42.6687420" lon="-5.5011980">
        <ele>1015.0</ele>
        <time>2021-08-21T05:04:01Z</time>
      </trkpt>
      <trkpt lat="42.6687620" lon="-5.5011880">
        <ele>1015.0</ele>
        <time>2021-08-21T05:04:02Z</time>
      </trkpt>
      <trkpt lat="42.6687820" lon="-5.5011770">
        <ele>1015.0</ele>
        <time>2021-08-21T05:04:03Z</time>
      </trkpt>
      <trkpt lat="42.6688020" lon="-5.5011670">
        <ele>1015.0</ele>
        <time>2021-08-21T05:04:04Z</time>
      </trkpt>
      <trkpt lat="42.6688230" lon="-5.5011590">
        <ele>1015.0</ele>
        <time>2021-08-21T05:04:05Z</time>
      </trkpt>
      <trkpt lat="42.6688440" lon="-5.5011500">
        <ele>1015.0</ele>
        <time>2021-08-21T05:04:06Z</time>
      </trkpt>
      <trkpt lat="42.6688640" lon="-5.5011410">
        <ele>1016.0</ele>
        <time>2021-08-21T05:04:07Z</time>
      </trkpt>
      <trkpt lat="42.6688960" lon="-5.5011260">
        <ele>1016.0</ele>
        <time>2021-08-21T05:04:08Z</time>
      </trkpt>
      <trkpt lat="42.6689070" lon="-5.5011220">
        <ele>1016.0</ele>
        <time>2021-08-21T05:04:09Z</time>
      </trkpt>
      <trkpt lat="42.6689260" lon="-5.5011100">
        <ele>1016.0</ele>
        <time>2021-08-21T05:04:10Z</time>
      </trkpt>
      <trkpt lat="42.6689460" lon="-5.5010980">
        <ele>1016.0</ele>
        <time>2021-08-21T05:04:11Z</time>
      </trkpt>
      <trkpt lat="42.6689670" lon="-5.5010870">
        <ele>1017.0</ele>
        <time>2021-08-21T05:04:12Z</time>
      </trkpt>
      <trkpt lat="42.6689880" lon="-5.5010770">
        <ele>1017.0</ele>
        <time>2021-08-21T05:04:13Z</time>
      </trkpt>
      <trkpt lat="42.6690110" lon="-5.5010670">
        <ele>1017.0</ele>
        <time>2021-08-21T05:04:14Z</time>
      </trkpt>
      <trkpt lat="42.6690330" lon="-5.5010570">
        <ele>1017.0</ele>
        <time>2021-08-21T05:04:15Z</time>
      </trkpt>
      <trkpt lat="42.6690560" lon="-5.5010500">
        <ele>1017.0</ele>
        <time>2021-08-21T05:04:16Z</time>
      </trkpt>
      <trkpt lat="42.6690800" lon="-5.5010430">
        <ele>1017.0</ele>
        <time>2021-08-21T05:04:17Z</time>
      </trkpt>
      <trkpt lat="42.6690800" lon="-5.5010430">
        <ele>1017.0</ele>
        <time>2021-08-21T05:04:18Z</time>
      </trkpt>
      <trkpt lat="42.6691270" lon="-5.5010300">
        <ele>1017.0</ele>
        <time>2021-08-21T05:04:19Z</time>
      </trkpt>
      <trkpt lat="42.6691500" lon="-5.5010210">
        <ele>1018.0</ele>
        <time>2021-08-21T05:04:20Z</time>
      </trkpt>
      <trkpt lat="42.6691730" lon="-5.5010130">
        <ele>1018.0</ele>
        <time>2021-08-21T05:04:21Z</time>
      </trkpt>
      <trkpt lat="42.6691960" lon="-5.5010060">
        <ele>1018.0</ele>
        <time>2021-08-21T05:04:22Z</time>
      </trkpt>
      <trkpt lat="42.6692210" lon="-5.5009970">
        <ele>1018.0</ele>
        <time>2021-08-21T05:04:23Z</time>
      </trkpt>
      <trkpt lat="42.6692450" lon="-5.5009870">
        <ele>1018.0</ele>
        <time>2021-08-21T05:04:24Z</time>
      </trkpt>
      <trkpt lat="42.6692680" lon="-5.5009750">
        <ele>1018.0</ele>
        <time>2021-08-21T05:04:25Z</time>
      </trkpt>
      <trkpt lat="42.6692910" lon="-5.5009650">
        <ele>1019.0</ele>
        <time>2021-08-21T05:04:26Z</time>
      </trkpt>
      <trkpt lat="42.6693140" lon="-5.5009550">
        <ele>1019.0</ele>
        <time>2021-08-21T05:04:27Z</time>
      </trkpt>
      <trkpt lat="42.6693490" lon="-5.5009390">
        <ele>1019.0</ele>
        <time>2021-08-21T05:04:28Z</time>
      </trkpt>
      <trkpt lat="42.6693590" lon="-5.5009340">
        <ele>1019.0</ele>
        <time>2021-08-21T05:04:29Z</time>
      </trkpt>
      <trkpt lat="42.6693820" lon="-5.5009240">
        <ele>1019.0</ele>
        <time>2021-08-21T05:04:30Z</time>
      </trkpt>
      <trkpt lat="42.6694040" lon="-5.5009130">
        <ele>1019.0</ele>
        <time>2021-08-21T05:04:31Z</time>
      </trkpt>
      <trkpt lat="42.6694370" lon="-5.5008980">
        <ele>1019.0</ele>
        <time>2021-08-21T05:04:32Z</time>
      </trkpt>
      <trkpt lat="42.6694480" lon="-5.5008920">
        <ele>1019.0</ele>
        <time>2021-08-21T05:04:33Z</time>
      </trkpt>
      <trkpt lat="42.6694710" lon="-5.5008810">
        <ele>1019.0</ele>
        <time>2021-08-21T05:04:34Z</time>
      </trkpt>
      <trkpt lat="42.6694950" lon="-5.5008690">
        <ele>1020.0</ele>
        <time>2021-08-21T05:04:35Z</time>
      </trkpt>
      <trkpt lat="42.6695190" lon="-5.5008590">
        <ele>1020.0</ele>
        <time>2021-08-21T05:04:36Z</time>
      </trkpt>
      <trkpt lat="42.6695560" lon="-5.5008420">
        <ele>1020.0</ele>
        <time>2021-08-21T05:04:37Z</time>
      </trkpt>
      <trkpt lat="42.6695670" lon="-5.5008360">
        <ele>1020.0</ele>
        <time>2021-08-21T05:04:38Z</time>
      </trkpt>
      <trkpt lat="42.6695900" lon="-5.5008230">
        <ele>1020.0</ele>
        <time>2021-08-21T05:04:39Z</time>
      </trkpt>
      <trkpt lat="42.6696250" lon="-5.5008060">
        <ele>1020.0</ele>
        <time>2021-08-21T05:04:40Z</time>
      </trkpt>
      <trkpt lat="42.6696360" lon="-5.5008000">
        <ele>1020.0</ele>
        <time>2021-08-21T05:04:41Z</time>
      </trkpt>
      <trkpt lat="42.6696590" lon="-5.5007880">
        <ele>1020.0</ele>
        <time>2021-08-21T05:04:42Z</time>
      </trkpt>
      <trkpt lat="42.6696950" lon="-5.5007730">
        <ele>1020.0</ele>
        <time>2021-08-21T05:04:43Z</time>
      </trkpt>
      <trkpt lat="42.6697070" lon="-5.5007680">
        <ele>1020.0</ele>
        <time>2021-08-21T05:04:44Z</time>
      </trkpt>
      <trkpt lat="42.6697300" lon="-5.5007590">
        <ele>1020.0</ele>
        <time>2021-08-21T05:04:45Z</time>
      </trkpt>
      <trkpt lat="42.6697510" lon="-5.5007510">
        <ele>1020.0</ele>
        <time>2021-08-21T05:04:46Z</time>
      </trkpt>
      <trkpt lat="42.6697730" lon="-5.5007460">
        <ele>1020.0</ele>
        <time>2021-08-21T05:04:47Z</time>
      </trkpt>
      <trkpt lat="42.6697970" lon="-5.5007370">
        <ele>1021.0</ele>
        <time>2021-08-21T05:04:48Z</time>
      </trkpt>
      <trkpt lat="42.6698320" lon="-5.5007250">
        <ele>1021.0</ele>
        <time>2021-08-21T05:04:49Z</time>
      </trkpt>
      <trkpt lat="42.6698430" lon="-5.5007210">
        <ele>1021.0</ele>
        <time>2021-08-21T05:04:50Z</time>
      </trkpt>
      <trkpt lat="42.6698690" lon="-5.5007120">
        <ele>1021.0</ele>
        <time>2021-08-21T05:04:51Z</time>
      </trkpt>
      <trkpt lat="42.6698950" lon="-5.5007050">
        <ele>1021.0</ele>
        <time>2021-08-21T05:04:52Z</time>
      </trkpt>
      <trkpt lat="42.6699220" lon="-5.5006950">
        <ele>1021.0</ele>
        <time>2021-08-21T05:04:53Z</time>
      </trkpt>
      <trkpt lat="42.6699490" lon="-5.5006840">
        <ele>1021.0</ele>
        <time>2021-08-21T05:04:54Z</time>
      </trkpt>
      <trkpt lat="42.6699770" lon="-5.5006740">
        <ele>1021.0</ele>
        <time>2021-08-21T05:04:55Z</time>
      </trkpt>
      <trkpt lat="42.6700020" lon="-5.5006650">
        <ele>1021.0</ele>
        <time>2021-08-21T05:04:56Z</time>
      </trkpt>
      <trkpt lat="42.6700290" lon="-5.5006560">
        <ele>1021.0</ele>
        <time>2021-08-21T05:04:57Z</time>
      </trkpt>
      <trkpt lat="42.6700560" lon="-5.5006480">
        <ele>1021.0</ele>
        <time>2021-08-21T05:04:58Z</time>
      </trkpt>
      <trkpt lat="42.6700830" lon="-5.5006410">
        <ele>1021.0</ele>
        <time>2021-08-21T05:04:59Z</time>
      </trkpt>
      <trkpt lat="42.6701070" lon="-5.5006340">
        <ele>1021.0</ele>
        <time>2021-08-21T05:05:00Z</time>
      </trkpt>
      <trkpt lat="42.6701340" lon="-5.5006260">
        <ele>1021.0</ele>
        <time>2021-08-21T05:05:01Z</time>
      </trkpt>
      <trkpt lat="42.6701600" lon="-5.5006160">
        <ele>1021.0</ele>
        <time>2021-08-21T05:05:02Z</time>
      </trkpt>
      <trkpt lat="42.6701850" lon="-5.5006070">
        <ele>1021.0</ele>
        <time>2021-08-21T05:05:03Z</time>
      </trkpt>
      <trkpt lat="42.6702120" lon="-5.5005980">
        <ele>1021.0</ele>
        <time>2021-08-21T05:05:04Z</time>
      </trkpt>
      <trkpt lat="42.6702380" lon="-5.5005890">
        <ele>1021.0</ele>
        <time>2021-08-21T05:05:05Z</time>
      </trkpt>
      <trkpt lat="42.6702780" lon="-5.5005760">
        <ele>1021.0</ele>
        <time>2021-08-21T05:05:06Z</time>
      </trkpt>
      <trkpt lat="42.6702910" lon="-5.5005720">
        <ele>1021.0</ele>
        <time>2021-08-21T05:05:07Z</time>
      </trkpt>
      <trkpt lat="42.6703320" lon="-5.5005600">
        <ele>1021.0</ele>
        <time>2021-08-21T05:05:08Z</time>
      </trkpt>
      <trkpt lat="42.6703450" lon="-5.5005550">
        <ele>1021.0</ele>
        <time>2021-08-21T05:05:09Z</time>
      </trkpt>
      <trkpt lat="42.6703730" lon="-5.5005460">
        <ele>1021.0</ele>
        <time>2021-08-21T05:05:10Z</time>
      </trkpt>
      <trkpt lat="42.6704000" lon="-5.5005370">
        <ele>1021.0</ele>
        <time>2021-08-21T05:05:11Z</time>
      </trkpt>
      <trkpt lat="42.6704260" lon="-5.5005300">
        <ele>1021.0</ele>
        <time>2021-08-21T05:05:12Z</time>
      </trkpt>
      <trkpt lat="42.6704540" lon="-5.5005220">
        <ele>1021.0</ele>
        <time>2021-08-21T05:05:13Z</time>
      </trkpt>
      <trkpt lat="42.6704810" lon="-5.5005140">
        <ele>1021.0</ele>
        <time>2021-08-21T05:05:14Z</time>
      </trkpt>
      <trkpt lat="42.6705220" lon="-5.5005020">
        <ele>1021.0</ele>
        <time>2021-08-21T05:05:15Z</time>
      </trkpt>
      <trkpt lat="42.6705350" lon="-5.5004970">
        <ele>1021.0</ele>
        <time>2021-08-21T05:05:16Z</time>
      </trkpt>
      <trkpt lat="42.6705610" lon="-5.5004890">
        <ele>1021.0</ele>
        <time>2021-08-21T05:05:17Z</time>
      </trkpt>
      <trkpt lat="42.6705880" lon="-5.5004790">
        <ele>1021.0</ele>
        <time>2021-08-21T05:05:18Z</time>
      </trkpt>
      <trkpt lat="42.6706290" lon="-5.5004660">
        <ele>1021.0</ele>
        <time>2021-08-21T05:05:19Z</time>
      </trkpt>
      <trkpt lat="42.6706420" lon="-5.5004610">
        <ele>1021.0</ele>
        <time>2021-08-21T05:05:20Z</time>
      </trkpt>
      <trkpt lat="42.6706680" lon="-5.5004520">
        <ele>1021.0</ele>
        <time>2021-08-21T05:05:21Z</time>
      </trkpt>
      <trkpt lat="42.6706960" lon="-5.5004450">
        <ele>1021.0</ele>
        <time>2021-08-21T05:05:22Z</time>
      </trkpt>
      <trkpt lat="42.6707220" lon="-5.5004400">
        <ele>1021.0</ele>
        <time>2021-08-21T05:05:23Z</time>
      </trkpt>
      <trkpt lat="42.6707490" lon="-5.5004340">
        <ele>1021.0</ele>
        <time>2021-08-21T05:05:24Z</time>
      </trkpt>
      <trkpt lat="42.6707900" lon="-5.5004230">
        <ele>1021.0</ele>
        <time>2021-08-21T05:05:25Z</time>
      </trkpt>
      <trkpt lat="42.6708030" lon="-5.5004190">
        <ele>1021.0</ele>
        <time>2021-08-21T05:05:26Z</time>
      </trkpt>
      <trkpt lat="42.6708440" lon="-5.5004070">
        <ele>1021.0</ele>
        <time>2021-08-21T05:05:27Z</time>
      </trkpt>
      <trkpt lat="42.6708580" lon="-5.5004030">
        <ele>1021.0</ele>
        <time>2021-08-21T05:05:28Z</time>
      </trkpt>
      <trkpt lat="42.6708850" lon="-5.5003940">
        <ele>1021.0</ele>
        <time>2021-08-21T05:05:29Z</time>
      </trkpt>
      <trkpt lat="42.6709130" lon="-5.5003850">
        <ele>1021.0</ele>
        <time>2021-08-21T05:05:30Z</time>
      </trkpt>
      <trkpt lat="42.6709540" lon="-5.5003720">
        <ele>1021.0</ele>
        <time>2021-08-21T05:05:31Z</time>
      </trkpt>
      <trkpt lat="42.6709680" lon="-5.5003680">
        <ele>1021.0</ele>
        <time>2021-08-21T05:05:32Z</time>
      </trkpt>
      <trkpt lat="42.6709950" lon="-5.5003600">
        <ele>1021.0</ele>
        <time>2021-08-21T05:05:33Z</time>
      </trkpt>
      <trkpt lat="42.6710340" lon="-5.5003490">
        <ele>1021.0</ele>
        <time>2021-08-21T05:05:34Z</time>
      </trkpt>
      <trkpt lat="42.6710460" lon="-5.5003450">
        <ele>1021.0</ele>
        <time>2021-08-21T05:05:35Z</time>
      </trkpt>
      <trkpt lat="42.6710730" lon="-5.5003370">
        <ele>1021.0</ele>
        <time>2021-08-21T05:05:36Z</time>
      </trkpt>
      <trkpt lat="42.6711100" lon="-5.5003280">
        <ele>1021.0</ele>
        <time>2021-08-21T05:05:37Z</time>
      </trkpt>
      <trkpt lat="42.6711230" lon="-5.5003250">
        <ele>1021.0</ele>
        <time>2021-08-21T05:05:38Z</time>
      </trkpt>
      <trkpt lat="42.6711510" lon="-5.5003200">
        <ele>1022.0</ele>
        <time>2021-08-21T05:05:39Z</time>
      </trkpt>
      <trkpt lat="42.6711790" lon="-5.5003140">
        <ele>1022.0</ele>
        <time>2021-08-21T05:05:40Z</time>
      </trkpt>
      <trkpt lat="42.6712350" lon="-5.5003030">
        <ele>1022.0</ele>
        <time>2021-08-21T05:05:42Z</time>
      </trkpt>
      <trkpt lat="42.6712630" lon="-5.5002970">
        <ele>1022.0</ele>
        <time>2021-08-21T05:05:43Z</time>
      </trkpt>
      <trkpt lat="42.6712890" lon="-5.5002910">
        <ele>1022.0</ele>
        <time>2021-08-21T05:05:44Z</time>
      </trkpt>
      <trkpt lat="42.6713180" lon="-5.5002860">
        <ele>1022.0</ele>
        <time>2021-08-21T05:05:45Z</time>
      </trkpt>
      <trkpt lat="42.6713470" lon="-5.5002820">
        <ele>1022.0</ele>
        <time>2021-08-21T05:05:46Z</time>
      </trkpt>
      <trkpt lat="42.6713920" lon="-5.5002750">
        <ele>1022.0</ele>
        <time>2021-08-21T05:05:47Z</time>
      </trkpt>
      <trkpt lat="42.6714070" lon="-5.5002730">
        <ele>1021.0</ele>
        <time>2021-08-21T05:05:48Z</time>
      </trkpt>
      <trkpt lat="42.6714370" lon="-5.5002700">
        <ele>1021.0</ele>
        <time>2021-08-21T05:05:49Z</time>
      </trkpt>
      <trkpt lat="42.6714650" lon="-5.5002660">
        <ele>1021.0</ele>
        <time>2021-08-21T05:05:50Z</time>
      </trkpt>
      <trkpt lat="42.6714910" lon="-5.5002600">
        <ele>1021.0</ele>
        <time>2021-08-21T05:05:51Z</time>
      </trkpt>
      <trkpt lat="42.6715180" lon="-5.5002520">
        <ele>1022.0</ele>
        <time>2021-08-21T05:05:52Z</time>
      </trkpt>
      <trkpt lat="42.6715440" lon="-5.5002430">
        <ele>1022.0</ele>
        <time>2021-08-21T05:05:53Z</time>
      </trkpt>
      <trkpt lat="42.6715710" lon="-5.5002330">
        <ele>1022.0</ele>
        <time>2021-08-21T05:05:54Z</time>
      </trkpt>
      <trkpt lat="42.6715970" lon="-5.5002240">
        <ele>1022.0</ele>
        <time>2021-08-21T05:05:55Z</time>
      </trkpt>
      <trkpt lat="42.6716260" lon="-5.5002150">
        <ele>1022.0</ele>
        <time>2021-08-21T05:05:56Z</time>
      </trkpt>
      <trkpt lat="42.6716550" lon="-5.5002050">
        <ele>1022.0</ele>
        <time>2021-08-21T05:05:57Z</time>
      </trkpt>
      <trkpt lat="42.6716820" lon="-5.5001940">
        <ele>1022.0</ele>
        <time>2021-08-21T05:05:58Z</time>
      </trkpt>
      <trkpt lat="42.6717100" lon="-5.5001850">
        <ele>1022.0</ele>
        <time>2021-08-21T05:05:59Z</time>
      </trkpt>
      <trkpt lat="42.6717370" lon="-5.5001760">
        <ele>1022.0</ele>
        <time>2021-08-21T05:06:00Z</time>
      </trkpt>
      <trkpt lat="42.6717660" lon="-5.5001650">
        <ele>1022.0</ele>
        <time>2021-08-21T05:06:01Z</time>
      </trkpt>
      <trkpt lat="42.6717920" lon="-5.5001530">
        <ele>1022.0</ele>
        <time>2021-08-21T05:06:02Z</time>
      </trkpt>
      <trkpt lat="42.6718170" lon="-5.5001380">
        <ele>1022.0</ele>
        <time>2021-08-21T05:06:03Z</time>
      </trkpt>
      <trkpt lat="42.6718420" lon="-5.5001220">
        <ele>1022.0</ele>
        <time>2021-08-21T05:06:04Z</time>
      </trkpt>
      <trkpt lat="42.6718670" lon="-5.5001040">
        <ele>1022.0</ele>
        <time>2021-08-21T05:06:05Z</time>
      </trkpt>
      <trkpt lat="42.6718910" lon="-5.5000870">
        <ele>1022.0</ele>
        <time>2021-08-21T05:06:06Z</time>
      </trkpt>
      <trkpt lat="42.6719160" lon="-5.5000700">
        <ele>1022.0</ele>
        <time>2021-08-21T05:06:07Z</time>
      </trkpt>
      <trkpt lat="42.6719400" lon="-5.5000540">
        <ele>1022.0</ele>
        <time>2021-08-21T05:06:08Z</time>
      </trkpt>
      <trkpt lat="42.6719770" lon="-5.5000280">
        <ele>1022.0</ele>
        <time>2021-08-21T05:06:09Z</time>
      </trkpt>
      <trkpt lat="42.6719880" lon="-5.5000190">
        <ele>1021.0</ele>
        <time>2021-08-21T05:06:10Z</time>
      </trkpt>
      <trkpt lat="42.6720100" lon="-5.5000010">
        <ele>1021.0</ele>
        <time>2021-08-21T05:06:11Z</time>
      </trkpt>
      <trkpt lat="42.6720330" lon="-5.4999820">
        <ele>1021.0</ele>
        <time>2021-08-21T05:06:12Z</time>
      </trkpt>
      <trkpt lat="42.6720560" lon="-5.4999640">
        <ele>1021.0</ele>
        <time>2021-08-21T05:06:13Z</time>
      </trkpt>
      <trkpt lat="42.6720940" lon="-5.4999410">
        <ele>1021.0</ele>
        <time>2021-08-21T05:06:14Z</time>
      </trkpt>
      <trkpt lat="42.6721060" lon="-5.4999320">
        <ele>1021.0</ele>
        <time>2021-08-21T05:06:15Z</time>
      </trkpt>
      <trkpt lat="42.6721290" lon="-5.4999150">
        <ele>1021.0</ele>
        <time>2021-08-21T05:06:16Z</time>
      </trkpt>
      <trkpt lat="42.6721530" lon="-5.4998980">
        <ele>1021.0</ele>
        <time>2021-08-21T05:06:17Z</time>
      </trkpt>
      <trkpt lat="42.6721880" lon="-5.4998730">
        <ele>1021.0</ele>
        <time>2021-08-21T05:06:18Z</time>
      </trkpt>
      <trkpt lat="42.6721990" lon="-5.4998640">
        <ele>1021.0</ele>
        <time>2021-08-21T05:06:19Z</time>
      </trkpt>
      <trkpt lat="42.6722240" lon="-5.4998470">
        <ele>1021.0</ele>
        <time>2021-08-21T05:06:20Z</time>
      </trkpt>
      <trkpt lat="42.6722500" lon="-5.4998330">
        <ele>1021.0</ele>
        <time>2021-08-21T05:06:21Z</time>
      </trkpt>
      <trkpt lat="42.6722750" lon="-5.4998170">
        <ele>1021.0</ele>
        <time>2021-08-21T05:06:22Z</time>
      </trkpt>
      <trkpt lat="42.6722990" lon="-5.4998020">
        <ele>1021.0</ele>
        <time>2021-08-21T05:06:23Z</time>
      </trkpt>
      <trkpt lat="42.6723240" lon="-5.4997860">
        <ele>1021.0</ele>
        <time>2021-08-21T05:06:24Z</time>
      </trkpt>
      <trkpt lat="42.6723500" lon="-5.4997720">
        <ele>1021.0</ele>
        <time>2021-08-21T05:06:25Z</time>
      </trkpt>
      <trkpt lat="42.6723760" lon="-5.4997580">
        <ele>1021.0</ele>
        <time>2021-08-21T05:06:26Z</time>
      </trkpt>
      <trkpt lat="42.6724000" lon="-5.4997410">
        <ele>1021.0</ele>
        <time>2021-08-21T05:06:27Z</time>
      </trkpt>
      <trkpt lat="42.6724370" lon="-5.4997090">
        <ele>1021.0</ele>
        <time>2021-08-21T05:06:28Z</time>
      </trkpt>
      <trkpt lat="42.6724490" lon="-5.4996980">
        <ele>1021.0</ele>
        <time>2021-08-21T05:06:29Z</time>
      </trkpt>
      <trkpt lat="42.6724730" lon="-5.4996800">
        <ele>1021.0</ele>
        <time>2021-08-21T05:06:30Z</time>
      </trkpt>
      <trkpt lat="42.6725000" lon="-5.4996640">
        <ele>1021.0</ele>
        <time>2021-08-21T05:06:31Z</time>
      </trkpt>
      <trkpt lat="42.6725260" lon="-5.4996510">
        <ele>1021.0</ele>
        <time>2021-08-21T05:06:32Z</time>
      </trkpt>
      <trkpt lat="42.6725500" lon="-5.4996370">
        <ele>1021.0</ele>
        <time>2021-08-21T05:06:33Z</time>
      </trkpt>
      <trkpt lat="42.6725760" lon="-5.4996240">
        <ele>1022.0</ele>
        <time>2021-08-21T05:06:34Z</time>
      </trkpt>
      <trkpt lat="42.6726000" lon="-5.4996110">
        <ele>1022.0</ele>
        <time>2021-08-21T05:06:35Z</time>
      </trkpt>
      <trkpt lat="42.6726250" lon="-5.4995970">
        <ele>1022.0</ele>
        <time>2021-08-21T05:06:36Z</time>
      </trkpt>
      <trkpt lat="42.6726620" lon="-5.4995760">
        <ele>1022.0</ele>
        <time>2021-08-21T05:06:37Z</time>
      </trkpt>
      <trkpt lat="42.6726730" lon="-5.4995680">
        <ele>1022.0</ele>
        <time>2021-08-21T05:06:38Z</time>
      </trkpt>
      <trkpt lat="42.6726970" lon="-5.4995560">
        <ele>1022.0</ele>
        <time>2021-08-21T05:06:39Z</time>
      </trkpt>
      <trkpt lat="42.6727200" lon="-5.4995410">
        <ele>1022.0</ele>
        <time>2021-08-21T05:06:40Z</time>
      </trkpt>
      <trkpt lat="42.6727410" lon="-5.4995250">
        <ele>1022.0</ele>
        <time>2021-08-21T05:06:41Z</time>
      </trkpt>
      <trkpt lat="42.6727650" lon="-5.4995100">
        <ele>1022.0</ele>
        <time>2021-08-21T05:06:42Z</time>
      </trkpt>
      <trkpt lat="42.6727870" lon="-5.4994970">
        <ele>1022.0</ele>
        <time>2021-08-21T05:06:43Z</time>
      </trkpt>
      <trkpt lat="42.6728090" lon="-5.4994860">
        <ele>1022.0</ele>
        <time>2021-08-21T05:06:44Z</time>
      </trkpt>
      <trkpt lat="42.6728340" lon="-5.4994780">
        <ele>1022.0</ele>
        <time>2021-08-21T05:06:45Z</time>
      </trkpt>
      <trkpt lat="42.6728600" lon="-5.4994680">
        <ele>1022.0</ele>
        <time>2021-08-21T05:06:46Z</time>
      </trkpt>
      <trkpt lat="42.6728950" lon="-5.4994490">
        <ele>1022.0</ele>
        <time>2021-08-21T05:06:47Z</time>
      </trkpt>
      <trkpt lat="42.6729060" lon="-5.4994440">
        <ele>1022.0</ele>
        <time>2021-08-21T05:06:48Z</time>
      </trkpt>
      <trkpt lat="42.6729280" lon="-5.4994340">
        <ele>1022.0</ele>
        <time>2021-08-21T05:06:49Z</time>
      </trkpt>
      <trkpt lat="42.6729500" lon="-5.4994250">
        <ele>1022.0</ele>
        <time>2021-08-21T05:06:50Z</time>
      </trkpt>
      <trkpt lat="42.6729730" lon="-5.4994160">
        <ele>1022.0</ele>
        <time>2021-08-21T05:06:51Z</time>
      </trkpt>
      <trkpt lat="42.6729940" lon="-5.4994090">
        <ele>1023.0</ele>
        <time>2021-08-21T05:06:52Z</time>
      </trkpt>
      <trkpt lat="42.6730140" lon="-5.4994020">
        <ele>1023.0</ele>
        <time>2021-08-21T05:06:53Z</time>
      </trkpt>
      <trkpt lat="42.6730350" lon="-5.4993940">
        <ele>1023.0</ele>
        <time>2021-08-21T05:06:54Z</time>
      </trkpt>
      <trkpt lat="42.6730580" lon="-5.4993880">
        <ele>1023.0</ele>
        <time>2021-08-21T05:06:55Z</time>
      </trkpt>
      <trkpt lat="42.6730930" lon="-5.4993790">
        <ele>1023.0</ele>
        <time>2021-08-21T05:06:56Z</time>
      </trkpt>
      <trkpt lat="42.6731040" lon="-5.4993760">
        <ele>1023.0</ele>
        <time>2021-08-21T05:06:57Z</time>
      </trkpt>
      <trkpt lat="42.6731280" lon="-5.4993720">
        <ele>1023.0</ele>
        <time>2021-08-21T05:06:58Z</time>
      </trkpt>
      <trkpt lat="42.6731500" lon="-5.4993680">
        <ele>1023.0</ele>
        <time>2021-08-21T05:06:59Z</time>
      </trkpt>
      <trkpt lat="42.6731730" lon="-5.4993610">
        <ele>1023.0</ele>
        <time>2021-08-21T05:07:00Z</time>
      </trkpt>
      <trkpt lat="42.6731970" lon="-5.4993580">
        <ele>1023.0</ele>
        <time>2021-08-21T05:07:01Z</time>
      </trkpt>
      <trkpt lat="42.6732230" lon="-5.4993530">
        <ele>1023.0</ele>
        <time>2021-08-21T05:07:02Z</time>
      </trkpt>
      <trkpt lat="42.6732470" lon="-5.4993470">
        <ele>1023.0</ele>
        <time>2021-08-21T05:07:03Z</time>
      </trkpt>
      <trkpt lat="42.6732720" lon="-5.4993440">
        <ele>1023.0</ele>
        <time>2021-08-21T05:07:04Z</time>
      </trkpt>
      <trkpt lat="42.6733060" lon="-5.4993400">
        <ele>1023.0</ele>
        <time>2021-08-21T05:07:05Z</time>
      </trkpt>
      <trkpt lat="42.6733170" lon="-5.4993380">
        <ele>1023.0</ele>
        <time>2021-08-21T05:07:06Z</time>
      </trkpt>
      <trkpt lat="42.6733430" lon="-5.4993350">
        <ele>1023.0</ele>
        <time>2021-08-21T05:07:07Z</time>
      </trkpt>
      <trkpt lat="42.6733840" lon="-5.4993320">
        <ele>1023.0</ele>
        <time>2021-08-21T05:07:08Z</time>
      </trkpt>
      <trkpt lat="42.6733970" lon="-5.4993310">
        <ele>1023.0</ele>
        <time>2021-08-21T05:07:09Z</time>
      </trkpt>
      <trkpt lat="42.6734240" lon="-5.4993280">
        <ele>1023.0</ele>
        <time>2021-08-21T05:07:10Z</time>
      </trkpt>
      <trkpt lat="42.6734490" lon="-5.4993270">
        <ele>1023.0</ele>
        <time>2021-08-21T05:07:11Z</time>
      </trkpt>
      <trkpt lat="42.6734750" lon="-5.4993300">
        <ele>1023.0</ele>
        <time>2021-08-21T05:07:12Z</time>
      </trkpt>
      <trkpt lat="42.6734990" lon="-5.4993320">
        <ele>1023.0</ele>
        <time>2021-08-21T05:07:13Z</time>
      </trkpt>
      <trkpt lat="42.6735230" lon="-5.4993330">
        <ele>1023.0</ele>
        <time>2021-08-21T05:07:14Z</time>
      </trkpt>
      <trkpt lat="42.6735610" lon="-5.4993340">
        <ele>1023.0</ele>
        <time>2021-08-21T05:07:15Z</time>
      </trkpt>
      <trkpt lat="42.6735730" lon="-5.4993340">
        <ele>1023.0</ele>
        <time>2021-08-21T05:07:16Z</time>
      </trkpt>
      <trkpt lat="42.6735950" lon="-5.4993370">
        <ele>1023.0</ele>
        <time>2021-08-21T05:07:17Z</time>
      </trkpt>
      <trkpt lat="42.6736230" lon="-5.4993390">
        <ele>1023.0</ele>
        <time>2021-08-21T05:07:18Z</time>
      </trkpt>
      <trkpt lat="42.6736500" lon="-5.4993410">
        <ele>1023.0</ele>
        <time>2021-08-21T05:07:19Z</time>
      </trkpt>
      <trkpt lat="42.6736760" lon="-5.4993440">
        <ele>1023.0</ele>
        <time>2021-08-21T05:07:20Z</time>
      </trkpt>
      <trkpt lat="42.6737140" lon="-5.4993470">
        <ele>1023.0</ele>
        <time>2021-08-21T05:07:21Z</time>
      </trkpt>
      <trkpt lat="42.6737270" lon="-5.4993490">
        <ele>1023.0</ele>
        <time>2021-08-21T05:07:22Z</time>
      </trkpt>
      <trkpt lat="42.6737530" lon="-5.4993520">
        <ele>1023.0</ele>
        <time>2021-08-21T05:07:23Z</time>
      </trkpt>
      <trkpt lat="42.6737790" lon="-5.4993540">
        <ele>1023.0</ele>
        <time>2021-08-21T05:07:24Z</time>
      </trkpt>
      <trkpt lat="42.6738040" lon="-5.4993590">
        <ele>1023.0</ele>
        <time>2021-08-21T05:07:25Z</time>
      </trkpt>
      <trkpt lat="42.6738300" lon="-5.4993620">
        <ele>1023.0</ele>
        <time>2021-08-21T05:07:26Z</time>
      </trkpt>
      <trkpt lat="42.6738680" lon="-5.4993680">
        <ele>1023.0</ele>
        <time>2021-08-21T05:07:27Z</time>
      </trkpt>
      <trkpt lat="42.6738810" lon="-5.4993690">
        <ele>1022.0</ele>
        <time>2021-08-21T05:07:28Z</time>
      </trkpt>
      <trkpt lat="42.6739070" lon="-5.4993690">
        <ele>1022.0</ele>
        <time>2021-08-21T05:07:29Z</time>
      </trkpt>
      <trkpt lat="42.6739360" lon="-5.4993710">
        <ele>1022.0</ele>
        <time>2021-08-21T05:07:30Z</time>
      </trkpt>
      <trkpt lat="42.6739640" lon="-5.4993740">
        <ele>1022.0</ele>
        <time>2021-08-21T05:07:31Z</time>
      </trkpt>
      <trkpt lat="42.6739920" lon="-5.4993770">
        <ele>1022.0</ele>
        <time>2021-08-21T05:07:32Z</time>
      </trkpt>
      <trkpt lat="42.6740200" lon="-5.4993790">
        <ele>1022.0</ele>
        <time>2021-08-21T05:07:33Z</time>
      </trkpt>
      <trkpt lat="42.6740600" lon="-5.4993830">
        <ele>1022.0</ele>
        <time>2021-08-21T05:07:34Z</time>
      </trkpt>
      <trkpt lat="42.6740730" lon="-5.4993840">
        <ele>1022.0</ele>
        <time>2021-08-21T05:07:35Z</time>
      </trkpt>
      <trkpt lat="42.6740980" lon="-5.4993870">
        <ele>1022.0</ele>
        <time>2021-08-21T05:07:36Z</time>
      </trkpt>
      <trkpt lat="42.6741250" lon="-5.4993880">
        <ele>1022.0</ele>
        <time>2021-08-21T05:07:37Z</time>
      </trkpt>
      <trkpt lat="42.6741780" lon="-5.4993930">
        <ele>1022.0</ele>
        <time>2021-08-21T05:07:38Z</time>
      </trkpt>
      <trkpt lat="42.6742050" lon="-5.4993960">
        <ele>1022.0</ele>
        <time>2021-08-21T05:07:40Z</time>
      </trkpt>
      <trkpt lat="42.6742330" lon="-5.4994010">
        <ele>1022.0</ele>
        <time>2021-08-21T05:07:41Z</time>
      </trkpt>
      <trkpt lat="42.6742590" lon="-5.4994050">
        <ele>1022.0</ele>
        <time>2021-08-21T05:07:42Z</time>
      </trkpt>
      <trkpt lat="42.6742870" lon="-5.4994070">
        <ele>1022.0</ele>
        <time>2021-08-21T05:07:43Z</time>
      </trkpt>
      <trkpt lat="42.6743130" lon="-5.4994080">
        <ele>1022.0</ele>
        <time>2021-08-21T05:07:44Z</time>
      </trkpt>
      <trkpt lat="42.6743390" lon="-5.4994090">
        <ele>1022.0</ele>
        <time>2021-08-21T05:07:45Z</time>
      </trkpt>
      <trkpt lat="42.6743760" lon="-5.4994130">
        <ele>1022.0</ele>
        <time>2021-08-21T05:07:46Z</time>
      </trkpt>
      <trkpt lat="42.6743890" lon="-5.4994150">
        <ele>1022.0</ele>
        <time>2021-08-21T05:07:47Z</time>
      </trkpt>
      <trkpt lat="42.6744270" lon="-5.4994200">
        <ele>1022.0</ele>
        <time>2021-08-21T05:07:48Z</time>
      </trkpt>
      <trkpt lat="42.6744390" lon="-5.4994230">
        <ele>1022.0</ele>
        <time>2021-08-21T05:07:49Z</time>
      </trkpt>
      <trkpt lat="42.6744760" lon="-5.4994270">
        <ele>1022.0</ele>
        <time>2021-08-21T05:07:50Z</time>
      </trkpt>
      <trkpt lat="42.6744890" lon="-5.4994270">
        <ele>1022.0</ele>
        <time>2021-08-21T05:07:51Z</time>
      </trkpt>
      <trkpt lat="42.6745150" lon="-5.4994280">
        <ele>1022.0</ele>
        <time>2021-08-21T05:07:52Z</time>
      </trkpt>
      <trkpt lat="42.6745520" lon="-5.4994310">
        <ele>1022.0</ele>
        <time>2021-08-21T05:07:53Z</time>
      </trkpt>
      <trkpt lat="42.6745640" lon="-5.4994320">
        <ele>1022.0</ele>
        <time>2021-08-21T05:07:54Z</time>
      </trkpt>
      <trkpt lat="42.6745900" lon="-5.4994350">
        <ele>1022.0</ele>
        <time>2021-08-21T05:07:55Z</time>
      </trkpt>
      <trkpt lat="42.6746170" lon="-5.4994390">
        <ele>1022.0</ele>
        <time>2021-08-21T05:07:56Z</time>
      </trkpt>
      <trkpt lat="42.6746440" lon="-5.4994420">
        <ele>1023.0</ele>
        <time>2021-08-21T05:07:57Z</time>
      </trkpt>
      <trkpt lat="42.6746700" lon="-5.4994450">
        <ele>1023.0</ele>
        <time>2021-08-21T05:07:58Z</time>
      </trkpt>
      <trkpt lat="42.6746970" lon="-5.4994490">
        <ele>1023.0</ele>
        <time>2021-08-21T05:07:59Z</time>
      </trkpt>
      <trkpt lat="42.6747370" lon="-5.4994530">
        <ele>1023.0</ele>
        <time>2021-08-21T05:08:00Z</time>
      </trkpt>
      <trkpt lat="42.6747500" lon="-5.4994550">
        <ele>1023.0</ele>
        <time>2021-08-21T05:08:01Z</time>
      </trkpt>
      <trkpt lat="42.6747870" lon="-5.4994590">
        <ele>1023.0</ele>
        <time>2021-08-21T05:08:02Z</time>
      </trkpt>
      <trkpt lat="42.6747990" lon="-5.4994620">
        <ele>1023.0</ele>
        <time>2021-08-21T05:08:03Z</time>
      </trkpt>
      <trkpt lat="42.6748250" lon="-5.4994650">
        <ele>1023.0</ele>
        <time>2021-08-21T05:08:04Z</time>
      </trkpt>
      <trkpt lat="42.6748640" lon="-5.4994700">
        <ele>1023.0</ele>
        <time>2021-08-21T05:08:05Z</time>
      </trkpt>
      <trkpt lat="42.6748760" lon="-5.4994730">
        <ele>1023.0</ele>
        <time>2021-08-21T05:08:06Z</time>
      </trkpt>
      <trkpt lat="42.6749010" lon="-5.4994780">
        <ele>1023.0</ele>
        <time>2021-08-21T05:08:07Z</time>
      </trkpt>
      <trkpt lat="42.6749410" lon="-5.4994830">
        <ele>1023.0</ele>
        <time>2021-08-21T05:08:08Z</time>
      </trkpt>
      <trkpt lat="42.6749540" lon="-5.4994850">
        <ele>1023.0</ele>
        <time>2021-08-21T05:08:09Z</time>
      </trkpt>
      <trkpt lat="42.6749780" lon="-5.4994870">
        <ele>1023.0</ele>
        <time>2021-08-21T05:08:10Z</time>
      </trkpt>
      <trkpt lat="42.6750020" lon="-5.4994880">
        <ele>1024.0</ele>
        <time>2021-08-21T05:08:11Z</time>
      </trkpt>
      <trkpt lat="42.6750280" lon="-5.4994880">
        <ele>1024.0</ele>
        <time>2021-08-21T05:08:12Z</time>
      </trkpt>
      <trkpt lat="42.6750540" lon="-5.4994880">
        <ele>1023.0</ele>
        <time>2021-08-21T05:08:13Z</time>
      </trkpt>
      <trkpt lat="42.6750790" lon="-5.4994880">
        <ele>1023.0</ele>
        <time>2021-08-21T05:08:14Z</time>
      </trkpt>
      <trkpt lat="42.6751040" lon="-5.4994870">
        <ele>1023.0</ele>
        <time>2021-08-21T05:08:15Z</time>
      </trkpt>
      <trkpt lat="42.6751300" lon="-5.4994850">
        <ele>1023.0</ele>
        <time>2021-08-21T05:08:16Z</time>
      </trkpt>
      <trkpt lat="42.6751690" lon="-5.4994840">
        <ele>1023.0</ele>
        <time>2021-08-21T05:08:17Z</time>
      </trkpt>
      <trkpt lat="42.6751820" lon="-5.4994830">
        <ele>1023.0</ele>
        <time>2021-08-21T05:08:18Z</time>
      </trkpt>
      <trkpt lat="42.6752190" lon="-5.4994860">
        <ele>1023.0</ele>
        <time>2021-08-21T05:08:19Z</time>
      </trkpt>
      <trkpt lat="42.6752320" lon="-5.4994880">
        <ele>1024.0</ele>
        <time>2021-08-21T05:08:20Z</time>
      </trkpt>
      <trkpt lat="42.6752600" lon="-5.4994940">
        <ele>1024.0</ele>
        <time>2021-08-21T05:08:21Z</time>
      </trkpt>
      <trkpt lat="42.6752870" lon="-5.4994980">
        <ele>1024.0</ele>
        <time>2021-08-21T05:08:22Z</time>
      </trkpt>
      <trkpt lat="42.6753150" lon="-5.4995010">
        <ele>1024.0</ele>
        <time>2021-08-21T05:08:23Z</time>
      </trkpt>
      <trkpt lat="42.6753410" lon="-5.4995080">
        <ele>1024.0</ele>
        <time>2021-08-21T05:08:24Z</time>
      </trkpt>
      <trkpt lat="42.6753830" lon="-5.4995120">
        <ele>1024.0</ele>
        <time>2021-08-21T05:08:25Z</time>
      </trkpt>
      <trkpt lat="42.6753970" lon="-5.4995130">
        <ele>1024.0</ele>
        <time>2021-08-21T05:08:26Z</time>
      </trkpt>
      <trkpt lat="42.6754260" lon="-5.4995120">
        <ele>1024.0</ele>
        <time>2021-08-21T05:08:27Z</time>
      </trkpt>
      <trkpt lat="42.6754530" lon="-5.4995090">
        <ele>1024.0</ele>
        <time>2021-08-21T05:08:28Z</time>
      </trkpt>
      <trkpt lat="42.6754830" lon="-5.4995050">
        <ele>1024.0</ele>
        <time>2021-08-21T05:08:29Z</time>
      </trkpt>
      <trkpt lat="42.6755120" lon="-5.4995000">
        <ele>1024.0</ele>
        <time>2021-08-21T05:08:30Z</time>
      </trkpt>
      <trkpt lat="42.6755380" lon="-5.4994940">
        <ele>1024.0</ele>
        <time>2021-08-21T05:08:31Z</time>
      </trkpt>
      <trkpt lat="42.6755660" lon="-5.4994870">
        <ele>1024.0</ele>
        <time>2021-08-21T05:08:32Z</time>
      </trkpt>
      <trkpt lat="42.6755930" lon="-5.4994790">
        <ele>1024.0</ele>
        <time>2021-08-21T05:08:33Z</time>
      </trkpt>
      <trkpt lat="42.6756200" lon="-5.4994700">
        <ele>1024.0</ele>
        <time>2021-08-21T05:08:34Z</time>
      </trkpt>
      <trkpt lat="42.6756480" lon="-5.4994610">
        <ele>1024.0</ele>
        <time>2021-08-21T05:08:35Z</time>
      </trkpt>
      <trkpt lat="42.6756770" lon="-5.4994480">
        <ele>1024.0</ele>
        <time>2021-08-21T05:08:36Z</time>
      </trkpt>
      <trkpt lat="42.6757050" lon="-5.4994350">
        <ele>1024.0</ele>
        <time>2021-08-21T05:08:37Z</time>
      </trkpt>
      <trkpt lat="42.6757330" lon="-5.4994240">
        <ele>1024.0</ele>
        <time>2021-08-21T05:08:38Z</time>
      </trkpt>
      <trkpt lat="42.6757610" lon="-5.4994150">
        <ele>1024.0</ele>
        <time>2021-08-21T05:08:39Z</time>
      </trkpt>
      <trkpt lat="42.6757870" lon="-5.4994070">
        <ele>1024.0</ele>
        <time>2021-08-21T05:08:40Z</time>
      </trkpt>
      <trkpt lat="42.6758110" lon="-5.4993950">
        <ele>1024.0</ele>
        <time>2021-08-21T05:08:41Z</time>
      </trkpt>
      <trkpt lat="42.6758360" lon="-5.4993820">
        <ele>1024.0</ele>
        <time>2021-08-21T05:08:42Z</time>
      </trkpt>
      <trkpt lat="42.6758650" lon="-5.4993670">
        <ele>1024.0</ele>
        <time>2021-08-21T05:08:43Z</time>
      </trkpt>
      <trkpt lat="42.6758930" lon="-5.4993530">
        <ele>1024.0</ele>
        <time>2021-08-21T05:08:44Z</time>
      </trkpt>
      <trkpt lat="42.6759210" lon="-5.4993400">
        <ele>1025.0</ele>
        <time>2021-08-21T05:08:45Z</time>
      </trkpt>
      <trkpt lat="42.6759460" lon="-5.4993280">
        <ele>1025.0</ele>
        <time>2021-08-21T05:08:46Z</time>
      </trkpt>
      <trkpt lat="42.6759730" lon="-5.4993160">
        <ele>1024.0</ele>
        <time>2021-08-21T05:08:47Z</time>
      </trkpt>
      <trkpt lat="42.6759990" lon="-5.4993050">
        <ele>1025.0</ele>
        <time>2021-08-21T05:08:48Z</time>
      </trkpt>
      <trkpt lat="42.6760250" lon="-5.4992930">
        <ele>1025.0</ele>
        <time>2021-08-21T05:08:49Z</time>
      </trkpt>
      <trkpt lat="42.6760500" lon="-5.4992810">
        <ele>1025.0</ele>
        <time>2021-08-21T05:08:50Z</time>
      </trkpt>
      <trkpt lat="42.6760750" lon="-5.4992690">
        <ele>1024.0</ele>
        <time>2021-08-21T05:08:51Z</time>
      </trkpt>
      <trkpt lat="42.6761020" lon="-5.4992580">
        <ele>1024.0</ele>
        <time>2021-08-21T05:08:52Z</time>
      </trkpt>
      <trkpt lat="42.6761260" lon="-5.4992470">
        <ele>1024.0</ele>
        <time>2021-08-21T05:08:53Z</time>
      </trkpt>
      <trkpt lat="42.6761660" lon="-5.4992320">
        <ele>1024.0</ele>
        <time>2021-08-21T05:08:54Z</time>
      </trkpt>
      <trkpt lat="42.6761790" lon="-5.4992270">
        <ele>1024.0</ele>
        <time>2021-08-21T05:08:55Z</time>
      </trkpt>
      <trkpt lat="42.6762080" lon="-5.4992150">
        <ele>1024.0</ele>
        <time>2021-08-21T05:08:56Z</time>
      </trkpt>
      <trkpt lat="42.6762360" lon="-5.4992030">
        <ele>1024.0</ele>
        <time>2021-08-21T05:08:57Z</time>
      </trkpt>
      <trkpt lat="42.6762600" lon="-5.4991920">
        <ele>1024.0</ele>
        <time>2021-08-21T05:08:58Z</time>
      </trkpt>
      <trkpt lat="42.6762860" lon="-5.4991810">
        <ele>1024.0</ele>
        <time>2021-08-21T05:08:59Z</time>
      </trkpt>
      <trkpt lat="42.6763130" lon="-5.4991710">
        <ele>1024.0</ele>
        <time>2021-08-21T05:09:00Z</time>
      </trkpt>
      <trkpt lat="42.6763410" lon="-5.4991630">
        <ele>1024.0</ele>
        <time>2021-08-21T05:09:01Z</time>
      </trkpt>
      <trkpt lat="42.6763680" lon="-5.4991570">
        <ele>1024.0</ele>
        <time>2021-08-21T05:09:02Z</time>
      </trkpt>
      <trkpt lat="42.6763930" lon="-5.4991510">
        <ele>1024.0</ele>
        <time>2021-08-21T05:09:03Z</time>
      </trkpt>
      <trkpt lat="42.6764180" lon="-5.4991410">
        <ele>1024.0</ele>
        <time>2021-08-21T05:09:04Z</time>
      </trkpt>
      <trkpt lat="42.6764450" lon="-5.4991300">
        <ele>1024.0</ele>
        <time>2021-08-21T05:09:05Z</time>
      </trkpt>
      <trkpt lat="42.6764700" lon="-5.4991180">
        <ele>1024.0</ele>
        <time>2021-08-21T05:09:06Z</time>
      </trkpt>
      <trkpt lat="42.6765080" lon="-5.4991000">
        <ele>1024.0</ele>
        <time>2021-08-21T05:09:07Z</time>
      </trkpt>
      <trkpt lat="42.6765210" lon="-5.4990940">
        <ele>1024.0</ele>
        <time>2021-08-21T05:09:08Z</time>
      </trkpt>
      <trkpt lat="42.6765470" lon="-5.4990840">
        <ele>1024.0</ele>
        <time>2021-08-21T05:09:09Z</time>
      </trkpt>
      <trkpt lat="42.6765730" lon="-5.4990770">
        <ele>1024.0</ele>
        <time>2021-08-21T05:09:10Z</time>
      </trkpt>
      <trkpt lat="42.6765990" lon="-5.4990710">
        <ele>1024.0</ele>
        <time>2021-08-21T05:09:11Z</time>
      </trkpt>
      <trkpt lat="42.6766260" lon="-5.4990660">
        <ele>1024.0</ele>
        <time>2021-08-21T05:09:12Z</time>
      </trkpt>
      <trkpt lat="42.6766530" lon="-5.4990600">
        <ele>1024.0</ele>
        <time>2021-08-21T05:09:13Z</time>
      </trkpt>
      <trkpt lat="42.6766780" lon="-5.4990540">
        <ele>1024.0</ele>
        <time>2021-08-21T05:09:14Z</time>
      </trkpt>
      <trkpt lat="42.6767020" lon="-5.4990460">
        <ele>1024.0</ele>
        <time>2021-08-21T05:09:15Z</time>
      </trkpt>
      <trkpt lat="42.6767380" lon="-5.4990360">
        <ele>1024.0</ele>
        <time>2021-08-21T05:09:16Z</time>
      </trkpt>
      <trkpt lat="42.6767500" lon="-5.4990330">
        <ele>1024.0</ele>
        <time>2021-08-21T05:09:17Z</time>
      </trkpt>
      <trkpt lat="42.6767750" lon="-5.4990280">
        <ele>1024.0</ele>
        <time>2021-08-21T05:09:18Z</time>
      </trkpt>
      <trkpt lat="42.6767990" lon="-5.4990210">
        <ele>1024.0</ele>
        <time>2021-08-21T05:09:19Z</time>
      </trkpt>
      <trkpt lat="42.6768230" lon="-5.4990170">
        <ele>1024.0</ele>
        <time>2021-08-21T05:09:20Z</time>
      </trkpt>
      <trkpt lat="42.6768470" lon="-5.4990130">
        <ele>1024.0</ele>
        <time>2021-08-21T05:09:21Z</time>
      </trkpt>
      <trkpt lat="42.6768710" lon="-5.4990110">
        <ele>1025.0</ele>
        <time>2021-08-21T05:09:22Z</time>
      </trkpt>
      <trkpt lat="42.6768960" lon="-5.4990080">
        <ele>1025.0</ele>
        <time>2021-08-21T05:09:23Z</time>
      </trkpt>
      <trkpt lat="42.6769330" lon="-5.4990050">
        <ele>1025.0</ele>
        <time>2021-08-21T05:09:24Z</time>
      </trkpt>
      <trkpt lat="42.6769440" lon="-5.4990030">
        <ele>1025.0</ele>
        <time>2021-08-21T05:09:25Z</time>
      </trkpt>
      <trkpt lat="42.6769670" lon="-5.4990000">
        <ele>1025.0</ele>
        <time>2021-08-21T05:09:26Z</time>
      </trkpt>
      <trkpt lat="42.6769910" lon="-5.4989940">
        <ele>1025.0</ele>
        <time>2021-08-21T05:09:27Z</time>
      </trkpt>
      <trkpt lat="42.6770260" lon="-5.4989850">
        <ele>1025.0</ele>
        <time>2021-08-21T05:09:28Z</time>
      </trkpt>
      <trkpt lat="42.6770380" lon="-5.4989810">
        <ele>1025.0</ele>
        <time>2021-08-21T05:09:29Z</time>
      </trkpt>
      <trkpt lat="42.6770630" lon="-5.4989720">
        <ele>1025.0</ele>
        <time>2021-08-21T05:09:30Z</time>
      </trkpt>
      <trkpt lat="42.6770890" lon="-5.4989600">
        <ele>1025.0</ele>
        <time>2021-08-21T05:09:31Z</time>
      </trkpt>
      <trkpt lat="42.6771140" lon="-5.4989500">
        <ele>1026.0</ele>
        <time>2021-08-21T05:09:32Z</time>
      </trkpt>
      <trkpt lat="42.6771390" lon="-5.4989400">
        <ele>1026.0</ele>
        <time>2021-08-21T05:09:33Z</time>
      </trkpt>
      <trkpt lat="42.6771640" lon="-5.4989280">
        <ele>1026.0</ele>
        <time>2021-08-21T05:09:34Z</time>
      </trkpt>
      <trkpt lat="42.6771890" lon="-5.4989160">
        <ele>1026.0</ele>
        <time>2021-08-21T05:09:35Z</time>
      </trkpt>
      <trkpt lat="42.6772260" lon="-5.4988960">
        <ele>1026.0</ele>
        <time>2021-08-21T05:09:36Z</time>
      </trkpt>
      <trkpt lat="42.6772380" lon="-5.4988900">
        <ele>1026.0</ele>
        <time>2021-08-21T05:09:37Z</time>
      </trkpt>
      <trkpt lat="42.6772640" lon="-5.4988770">
        <ele>1026.0</ele>
        <time>2021-08-21T05:09:38Z</time>
      </trkpt>
      <trkpt lat="42.6772880" lon="-5.4988660">
        <ele>1026.0</ele>
        <time>2021-08-21T05:09:39Z</time>
      </trkpt>
      <trkpt lat="42.6773130" lon="-5.4988550">
        <ele>1026.0</ele>
        <time>2021-08-21T05:09:40Z</time>
      </trkpt>
      <trkpt lat="42.6773360" lon="-5.4988460">
        <ele>1027.0</ele>
        <time>2021-08-21T05:09:41Z</time>
      </trkpt>
      <trkpt lat="42.6773590" lon="-5.4988350">
        <ele>1027.0</ele>
        <time>2021-08-21T05:09:42Z</time>
      </trkpt>
      <trkpt lat="42.6773840" lon="-5.4988260">
        <ele>1027.0</ele>
        <time>2021-08-21T05:09:43Z</time>
      </trkpt>
      <trkpt lat="42.6774090" lon="-5.4988160">
        <ele>1027.0</ele>
        <time>2021-08-21T05:09:44Z</time>
      </trkpt>
      <trkpt lat="42.6774340" lon="-5.4988070">
        <ele>1027.0</ele>
        <time>2021-08-21T05:09:45Z</time>
      </trkpt>
      <trkpt lat="42.6774610" lon="-5.4987970">
        <ele>1027.0</ele>
        <time>2021-08-21T05:09:46Z</time>
      </trkpt>
      <trkpt lat="42.6775000" lon="-5.4987900">
        <ele>1027.0</ele>
        <time>2021-08-21T05:09:47Z</time>
      </trkpt>
      <trkpt lat="42.6775130" lon="-5.4987880">
        <ele>1027.0</ele>
        <time>2021-08-21T05:09:48Z</time>
      </trkpt>
      <trkpt lat="42.6775380" lon="-5.4987850">
        <ele>1027.0</ele>
        <time>2021-08-21T05:09:49Z</time>
      </trkpt>
      <trkpt lat="42.6775630" lon="-5.4987800">
        <ele>1027.0</ele>
        <time>2021-08-21T05:09:50Z</time>
      </trkpt>
      <trkpt lat="42.6775900" lon="-5.4987760">
        <ele>1027.0</ele>
        <time>2021-08-21T05:09:51Z</time>
      </trkpt>
      <trkpt lat="42.6776160" lon="-5.4987730">
        <ele>1027.0</ele>
        <time>2021-08-21T05:09:52Z</time>
      </trkpt>
      <trkpt lat="42.6776430" lon="-5.4987710">
        <ele>1027.0</ele>
        <time>2021-08-21T05:09:53Z</time>
      </trkpt>
      <trkpt lat="42.6776700" lon="-5.4987680">
        <ele>1027.0</ele>
        <time>2021-08-21T05:09:54Z</time>
      </trkpt>
      <trkpt lat="42.6777130" lon="-5.4987660">
        <ele>1027.0</ele>
        <time>2021-08-21T05:09:55Z</time>
      </trkpt>
      <trkpt lat="42.6777260" lon="-5.4987660">
        <ele>1028.0</ele>
        <time>2021-08-21T05:09:56Z</time>
      </trkpt>
      <trkpt lat="42.6777530" lon="-5.4987640">
        <ele>1028.0</ele>
        <time>2021-08-21T05:09:57Z</time>
      </trkpt>
      <trkpt lat="42.6777810" lon="-5.4987600">
        <ele>1028.0</ele>
        <time>2021-08-21T05:09:58Z</time>
      </trkpt>
      <trkpt lat="42.6777810" lon="-5.4987600">
        <ele>1028.0</ele>
        <time>2021-08-21T05:09:59Z</time>
      </trkpt>
      <trkpt lat="42.6778490" lon="-5.4987520">
        <ele>1028.0</ele>
        <time>2021-08-21T05:10:00Z</time>
      </trkpt>
      <trkpt lat="42.6778620" lon="-5.4987510">
        <ele>1028.0</ele>
        <time>2021-08-21T05:10:01Z</time>
      </trkpt>
      <trkpt lat="42.6778890" lon="-5.4987480">
        <ele>1028.0</ele>
        <time>2021-08-21T05:10:02Z</time>
      </trkpt>
      <trkpt lat="42.6779160" lon="-5.4987460">
        <ele>1028.0</ele>
        <time>2021-08-21T05:10:03Z</time>
      </trkpt>
      <trkpt lat="42.6779440" lon="-5.4987450">
        <ele>1028.0</ele>
        <time>2021-08-21T05:10:04Z</time>
      </trkpt>
      <trkpt lat="42.6779710" lon="-5.4987450">
        <ele>1028.0</ele>
        <time>2021-08-21T05:10:05Z</time>
      </trkpt>
      <trkpt lat="42.6779980" lon="-5.4987440">
        <ele>1028.0</ele>
        <time>2021-08-21T05:10:06Z</time>
      </trkpt>
      <trkpt lat="42.6779980" lon="-5.4987440">
        <ele>1028.0</ele>
        <time>2021-08-21T05:10:07Z</time>
      </trkpt>
      <trkpt lat="42.6780660" lon="-5.4987460">
        <ele>1028.0</ele>
        <time>2021-08-21T05:10:08Z</time>
      </trkpt>
      <trkpt lat="42.6780800" lon="-5.4987460">
        <ele>1028.0</ele>
        <time>2021-08-21T05:10:09Z</time>
      </trkpt>
      <trkpt lat="42.6781070" lon="-5.4987470">
        <ele>1028.0</ele>
        <time>2021-08-21T05:10:10Z</time>
      </trkpt>
      <trkpt lat="42.6781340" lon="-5.4987460">
        <ele>1028.0</ele>
        <time>2021-08-21T05:10:11Z</time>
      </trkpt>
      <trkpt lat="42.6781600" lon="-5.4987480">
        <ele>1028.0</ele>
        <time>2021-08-21T05:10:12Z</time>
      </trkpt>
      <trkpt lat="42.6781870" lon="-5.4987510">
        <ele>1028.0</ele>
        <time>2021-08-21T05:10:13Z</time>
      </trkpt>
      <trkpt lat="42.6782260" lon="-5.4987540">
        <ele>1028.0</ele>
        <time>2021-08-21T05:10:14Z</time>
      </trkpt>
      <trkpt lat="42.6782390" lon="-5.4987540">
        <ele>1028.0</ele>
        <time>2021-08-21T05:10:15Z</time>
      </trkpt>
      <trkpt lat="42.6782630" lon="-5.4987550">
        <ele>1028.0</ele>
        <time>2021-08-21T05:10:16Z</time>
      </trkpt>
      <trkpt lat="42.6783040" lon="-5.4987580">
        <ele>1028.0</ele>
        <time>2021-08-21T05:10:17Z</time>
      </trkpt>
      <trkpt lat="42.6783160" lon="-5.4987590">
        <ele>1028.0</ele>
        <time>2021-08-21T05:10:18Z</time>
      </trkpt>
      <trkpt lat="42.6783420" lon="-5.4987580">
        <ele>1028.0</ele>
        <time>2021-08-21T05:10:19Z</time>
      </trkpt>
      <trkpt lat="42.6783680" lon="-5.4987580">
        <ele>1028.0</ele>
        <time>2021-08-21T05:10:20Z</time>
      </trkpt>
      <trkpt lat="42.6783940" lon="-5.4987580">
        <ele>1029.0</ele>
        <time>2021-08-21T05:10:21Z</time>
      </trkpt>
      <trkpt lat="42.6784190" lon="-5.4987560">
        <ele>1029.0</ele>
        <time>2021-08-21T05:10:22Z</time>
      </trkpt>
      <trkpt lat="42.6784450" lon="-5.4987550">
        <ele>1029.0</ele>
        <time>2021-08-21T05:10:23Z</time>
      </trkpt>
      <trkpt lat="42.6784720" lon="-5.4987540">
        <ele>1029.0</ele>
        <time>2021-08-21T05:10:24Z</time>
      </trkpt>
      <trkpt lat="42.6785130" lon="-5.4987510">
        <ele>1029.0</ele>
        <time>2021-08-21T05:10:25Z</time>
      </trkpt>
      <trkpt lat="42.6785270" lon="-5.4987500">
        <ele>1029.0</ele>
        <time>2021-08-21T05:10:26Z</time>
      </trkpt>
      <trkpt lat="42.6785530" lon="-5.4987480">
        <ele>1029.0</ele>
        <time>2021-08-21T05:10:27Z</time>
      </trkpt>
      <trkpt lat="42.6785790" lon="-5.4987460">
        <ele>1029.0</ele>
        <time>2021-08-21T05:10:28Z</time>
      </trkpt>
      <trkpt lat="42.6786050" lon="-5.4987450">
        <ele>1029.0</ele>
        <time>2021-08-21T05:10:29Z</time>
      </trkpt>
      <trkpt lat="42.6786440" lon="-5.4987400">
        <ele>1029.0</ele>
        <time>2021-08-21T05:10:30Z</time>
      </trkpt>
      <trkpt lat="42.6786560" lon="-5.4987390">
        <ele>1029.0</ele>
        <time>2021-08-21T05:10:31Z</time>
      </trkpt>
      <trkpt lat="42.6786820" lon="-5.4987360">
        <ele>1029.0</ele>
        <time>2021-08-21T05:10:32Z</time>
      </trkpt>
      <trkpt lat="42.6787090" lon="-5.4987330">
        <ele>1029.0</ele>
        <time>2021-08-21T05:10:33Z</time>
      </trkpt>
      <trkpt lat="42.6787360" lon="-5.4987280">
        <ele>1029.0</ele>
        <time>2021-08-21T05:10:34Z</time>
      </trkpt>
      <trkpt lat="42.6787630" lon="-5.4987240">
        <ele>1029.0</ele>
        <time>2021-08-21T05:10:35Z</time>
      </trkpt>
      <trkpt lat="42.6788010" lon="-5.4987150">
        <ele>1029.0</ele>
        <time>2021-08-21T05:10:36Z</time>
      </trkpt>
      <trkpt lat="42.6788130" lon="-5.4987110">
        <ele>1029.0</ele>
        <time>2021-08-21T05:10:37Z</time>
      </trkpt>
      <trkpt lat="42.6788380" lon="-5.4987060">
        <ele>1029.0</ele>
        <time>2021-08-21T05:10:38Z</time>
      </trkpt>
      <trkpt lat="42.6788610" lon="-5.4986990">
        <ele>1030.0</ele>
        <time>2021-08-21T05:10:39Z</time>
      </trkpt>
      <trkpt lat="42.6788840" lon="-5.4986930">
        <ele>1030.0</ele>
        <time>2021-08-21T05:10:40Z</time>
      </trkpt>
      <trkpt lat="42.6789090" lon="-5.4986920">
        <ele>1030.0</ele>
        <time>2021-08-21T05:10:41Z</time>
      </trkpt>
      <trkpt lat="42.6789320" lon="-5.4986900">
        <ele>1030.0</ele>
        <time>2021-08-21T05:10:42Z</time>
      </trkpt>
      <trkpt lat="42.6789570" lon="-5.4986830">
        <ele>1030.0</ele>
        <time>2021-08-21T05:10:43Z</time>
      </trkpt>
      <trkpt lat="42.6789910" lon="-5.4986700">
        <ele>1030.0</ele>
        <time>2021-08-21T05:10:44Z</time>
      </trkpt>
      <trkpt lat="42.6790020" lon="-5.4986650">
        <ele>1030.0</ele>
        <time>2021-08-21T05:10:45Z</time>
      </trkpt>
      <trkpt lat="42.6790340" lon="-5.4986520">
        <ele>1030.0</ele>
        <time>2021-08-21T05:10:46Z</time>
      </trkpt>
      <trkpt lat="42.6790450" lon="-5.4986470">
        <ele>1030.0</ele>
        <time>2021-08-21T05:10:47Z</time>
      </trkpt>
      <trkpt lat="42.6790660" lon="-5.4986370">
        <ele>1030.0</ele>
        <time>2021-08-21T05:10:48Z</time>
      </trkpt>
      <trkpt lat="42.6790850" lon="-5.4986280">
        <ele>1030.0</ele>
        <time>2021-08-21T05:10:49Z</time>
      </trkpt>
      <trkpt lat="42.6791050" lon="-5.4986200">
        <ele>1030.0</ele>
        <time>2021-08-21T05:10:50Z</time>
      </trkpt>
      <trkpt lat="42.6791240" lon="-5.4986110">
        <ele>1031.0</ele>
        <time>2021-08-21T05:10:51Z</time>
      </trkpt>
      <trkpt lat="42.6791450" lon="-5.4986010">
        <ele>1031.0</ele>
        <time>2021-08-21T05:10:52Z</time>
      </trkpt>
      <trkpt lat="42.6791640" lon="-5.4985900">
        <ele>1031.0</ele>
        <time>2021-08-21T05:10:53Z</time>
      </trkpt>
      <trkpt lat="42.6791850" lon="-5.4985790">
        <ele>1031.0</ele>
        <time>2021-08-21T05:10:54Z</time>
      </trkpt>
      <trkpt lat="42.6792060" lon="-5.4985690">
        <ele>1031.0</ele>
        <time>2021-08-21T05:10:55Z</time>
      </trkpt>
      <trkpt lat="42.6792270" lon="-5.4985590">
        <ele>1031.0</ele>
        <time>2021-08-21T05:10:56Z</time>
      </trkpt>
      <trkpt lat="42.6792610" lon="-5.4985450">
        <ele>1031.0</ele>
        <time>2021-08-21T05:10:57Z</time>
      </trkpt>
      <trkpt lat="42.6792720" lon="-5.4985400">
        <ele>1032.0</ele>
        <time>2021-08-21T05:10:58Z</time>
      </trkpt>
      <trkpt lat="42.6792930" lon="-5.4985310">
        <ele>1032.0</ele>
        <time>2021-08-21T05:10:59Z</time>
      </trkpt>
      <trkpt lat="42.6793140" lon="-5.4985230">
        <ele>1032.0</ele>
        <time>2021-08-21T05:11:00Z</time>
      </trkpt>
      <trkpt lat="42.6793350" lon="-5.4985150">
        <ele>1032.0</ele>
        <time>2021-08-21T05:11:01Z</time>
      </trkpt>
      <trkpt lat="42.6793550" lon="-5.4985070">
        <ele>1032.0</ele>
        <time>2021-08-21T05:11:02Z</time>
      </trkpt>
      <trkpt lat="42.6793770" lon="-5.4985000">
        <ele>1032.0</ele>
        <time>2021-08-21T05:11:03Z</time>
      </trkpt>
      <trkpt lat="42.6794000" lon="-5.4984930">
        <ele>1032.0</ele>
        <time>2021-08-21T05:11:04Z</time>
      </trkpt>
      <trkpt lat="42.6794220" lon="-5.4984860">
        <ele>1032.0</ele>
        <time>2021-08-21T05:11:05Z</time>
      </trkpt>
      <trkpt lat="42.6794440" lon="-5.4984810">
        <ele>1032.0</ele>
        <time>2021-08-21T05:11:06Z</time>
      </trkpt>
      <trkpt lat="42.6794660" lon="-5.4984740">
        <ele>1033.0</ele>
        <time>2021-08-21T05:11:07Z</time>
      </trkpt>
      <trkpt lat="42.6794880" lon="-5.4984660">
        <ele>1033.0</ele>
        <time>2021-08-21T05:11:08Z</time>
      </trkpt>
      <trkpt lat="42.6795110" lon="-5.4984570">
        <ele>1033.0</ele>
        <time>2021-08-21T05:11:09Z</time>
      </trkpt>
      <trkpt lat="42.6795340" lon="-5.4984490">
        <ele>1033.0</ele>
        <time>2021-08-21T05:11:10Z</time>
      </trkpt>
      <trkpt lat="42.6795560" lon="-5.4984450">
        <ele>1033.0</ele>
        <time>2021-08-21T05:11:11Z</time>
      </trkpt>
      <trkpt lat="42.6795790" lon="-5.4984420">
        <ele>1033.0</ele>
        <time>2021-08-21T05:11:12Z</time>
      </trkpt>
      <trkpt lat="42.6796040" lon="-5.4984410">
        <ele>1033.0</ele>
        <time>2021-08-21T05:11:13Z</time>
      </trkpt>
      <trkpt lat="42.6796310" lon="-5.4984400">
        <ele>1033.0</ele>
        <time>2021-08-21T05:11:14Z</time>
      </trkpt>
      <trkpt lat="42.6796570" lon="-5.4984400">
        <ele>1033.0</ele>
        <time>2021-08-21T05:11:15Z</time>
      </trkpt>
      <trkpt lat="42.6796840" lon="-5.4984380">
        <ele>1033.0</ele>
        <time>2021-08-21T05:11:16Z</time>
      </trkpt>
      <trkpt lat="42.6797090" lon="-5.4984380">
        <ele>1033.0</ele>
        <time>2021-08-21T05:11:17Z</time>
      </trkpt>
      <trkpt lat="42.6797350" lon="-5.4984360">
        <ele>1033.0</ele>
        <time>2021-08-21T05:11:18Z</time>
      </trkpt>
      <trkpt lat="42.6797590" lon="-5.4984360">
        <ele>1033.0</ele>
        <time>2021-08-21T05:11:19Z</time>
      </trkpt>
      <trkpt lat="42.6797590" lon="-5.4984360">
        <ele>1033.0</ele>
        <time>2021-08-21T05:11:20Z</time>
      </trkpt>
      <trkpt lat="42.6798110" lon="-5.4984350">
        <ele>1033.0</ele>
        <time>2021-08-21T05:11:21Z</time>
      </trkpt>
      <trkpt lat="42.6798510" lon="-5.4984370">
        <ele>1033.0</ele>
        <time>2021-08-21T05:11:22Z</time>
      </trkpt>
      <trkpt lat="42.6798640" lon="-5.4984390">
        <ele>1033.0</ele>
        <time>2021-08-21T05:11:23Z</time>
      </trkpt>
      <trkpt lat="42.6799030" lon="-5.4984410">
        <ele>1033.0</ele>
        <time>2021-08-21T05:11:24Z</time>
      </trkpt>
      <trkpt lat="42.6799150" lon="-5.4984430">
        <ele>1033.0</ele>
        <time>2021-08-21T05:11:25Z</time>
      </trkpt>
      <trkpt lat="42.6799390" lon="-5.4984490">
        <ele>1034.0</ele>
        <time>2021-08-21T05:11:26Z</time>
      </trkpt>
      <trkpt lat="42.6799620" lon="-5.4984570">
        <ele>1034.0</ele>
        <time>2021-08-21T05:11:27Z</time>
      </trkpt>
      <trkpt lat="42.6800010" lon="-5.4984610">
        <ele>1034.0</ele>
        <time>2021-08-21T05:11:28Z</time>
      </trkpt>
      <trkpt lat="42.6800130" lon="-5.4984610">
        <ele>1034.0</ele>
        <time>2021-08-21T05:11:29Z</time>
      </trkpt>
      <trkpt lat="42.6800380" lon="-5.4984600">
        <ele>1034.0</ele>
        <time>2021-08-21T05:11:30Z</time>
      </trkpt>
      <trkpt lat="42.6800600" lon="-5.4984610">
        <ele>1034.0</ele>
        <time>2021-08-21T05:11:31Z</time>
      </trkpt>
      <trkpt lat="42.6800840" lon="-5.4984650">
        <ele>1034.0</ele>
        <time>2021-08-21T05:11:32Z</time>
      </trkpt>
      <trkpt lat="42.6801070" lon="-5.4984690">
        <ele>1034.0</ele>
        <time>2021-08-21T05:11:33Z</time>
      </trkpt>
      <trkpt lat="42.6801320" lon="-5.4984740">
        <ele>1034.0</ele>
        <time>2021-08-21T05:11:34Z</time>
      </trkpt>
      <trkpt lat="42.6801570" lon="-5.4984780">
        <ele>1034.0</ele>
        <time>2021-08-21T05:11:35Z</time>
      </trkpt>
      <trkpt lat="42.6801830" lon="-5.4984820">
        <ele>1034.0</ele>
        <time>2021-08-21T05:11:36Z</time>
      </trkpt>
      <trkpt lat="42.6802090" lon="-5.4984840">
        <ele>1034.0</ele>
        <time>2021-08-21T05:11:37Z</time>
      </trkpt>
      <trkpt lat="42.6802550" lon="-5.4984900">
        <ele>1034.0</ele>
        <time>2021-08-21T05:11:38Z</time>
      </trkpt>
      <trkpt lat="42.6802700" lon="-5.4984940">
        <ele>1034.0</ele>
        <time>2021-08-21T05:11:39Z</time>
      </trkpt>
      <trkpt lat="42.6802970" lon="-5.4985030">
        <ele>1034.0</ele>
        <time>2021-08-21T05:11:40Z</time>
      </trkpt>
      <trkpt lat="42.6803370" lon="-5.4985130">
        <ele>1034.0</ele>
        <time>2021-08-21T05:11:41Z</time>
      </trkpt>
      <trkpt lat="42.6803490" lon="-5.4985170">
        <ele>1034.0</ele>
        <time>2021-08-21T05:11:42Z</time>
      </trkpt>
      <trkpt lat="42.6803730" lon="-5.4985210">
        <ele>1034.0</ele>
        <time>2021-08-21T05:11:43Z</time>
      </trkpt>
      <trkpt lat="42.6803950" lon="-5.4985260">
        <ele>1034.0</ele>
        <time>2021-08-21T05:11:44Z</time>
      </trkpt>
      <trkpt lat="42.6804200" lon="-5.4985310">
        <ele>1034.0</ele>
        <time>2021-08-21T05:11:45Z</time>
      </trkpt>
      <trkpt lat="42.6804600" lon="-5.4985420">
        <ele>1034.0</ele>
        <time>2021-08-21T05:11:46Z</time>
      </trkpt>
      <trkpt lat="42.6804730" lon="-5.4985460">
        <ele>1034.0</ele>
        <time>2021-08-21T05:11:47Z</time>
      </trkpt>
      <trkpt lat="42.6804990" lon="-5.4985570">
        <ele>1034.0</ele>
        <time>2021-08-21T05:11:48Z</time>
      </trkpt>
      <trkpt lat="42.6805230" lon="-5.4985710">
        <ele>1035.0</ele>
        <time>2021-08-21T05:11:49Z</time>
      </trkpt>
      <trkpt lat="42.6805490" lon="-5.4985820">
        <ele>1035.0</ele>
        <time>2021-08-21T05:11:50Z</time>
      </trkpt>
      <trkpt lat="42.6805750" lon="-5.4985940">
        <ele>1035.0</ele>
        <time>2021-08-21T05:11:51Z</time>
      </trkpt>
      <trkpt lat="42.6806000" lon="-5.4986040">
        <ele>1035.0</ele>
        <time>2021-08-21T05:11:52Z</time>
      </trkpt>
      <trkpt lat="42.6806240" lon="-5.4986160">
        <ele>1035.0</ele>
        <time>2021-08-21T05:11:53Z</time>
      </trkpt>
      <trkpt lat="42.6806480" lon="-5.4986280">
        <ele>1035.0</ele>
        <time>2021-08-21T05:11:54Z</time>
      </trkpt>
      <trkpt lat="42.6806730" lon="-5.4986390">
        <ele>1035.0</ele>
        <time>2021-08-21T05:11:55Z</time>
      </trkpt>
      <trkpt lat="42.6806980" lon="-5.4986460">
        <ele>1035.0</ele>
        <time>2021-08-21T05:11:56Z</time>
      </trkpt>
      <trkpt lat="42.6807230" lon="-5.4986520">
        <ele>1035.0</ele>
        <time>2021-08-21T05:11:57Z</time>
      </trkpt>
      <trkpt lat="42.6807500" lon="-5.4986600">
        <ele>1035.0</ele>
        <time>2021-08-21T05:11:58Z</time>
      </trkpt>
      <trkpt lat="42.6807750" lon="-5.4986700">
        <ele>1035.0</ele>
        <time>2021-08-21T05:11:59Z</time>
      </trkpt>
      <trkpt lat="42.6808150" lon="-5.4986820">
        <ele>1035.0</ele>
        <time>2021-08-21T05:12:00Z</time>
      </trkpt>
      <trkpt lat="42.6808280" lon="-5.4986860">
        <ele>1035.0</ele>
        <time>2021-08-21T05:12:01Z</time>
      </trkpt>
      <trkpt lat="42.6808540" lon="-5.4986960">
        <ele>1035.0</ele>
        <time>2021-08-21T05:12:02Z</time>
      </trkpt>
      <trkpt lat="42.6808770" lon="-5.4987040">
        <ele>1035.0</ele>
        <time>2021-08-21T05:12:03Z</time>
      </trkpt>
      <trkpt lat="42.6809010" lon="-5.4987110">
        <ele>1035.0</ele>
        <time>2021-08-21T05:12:04Z</time>
      </trkpt>
      <trkpt lat="42.6809380" lon="-5.4987210">
        <ele>1035.0</ele>
        <time>2021-08-21T05:12:05Z</time>
      </trkpt>
      <trkpt lat="42.6809510" lon="-5.4987250">
        <ele>1036.0</ele>
        <time>2021-08-21T05:12:06Z</time>
      </trkpt>
      <trkpt lat="42.6809760" lon="-5.4987330">
        <ele>1036.0</ele>
        <time>2021-08-21T05:12:07Z</time>
      </trkpt>
      <trkpt lat="42.6810020" lon="-5.4987390">
        <ele>1036.0</ele>
        <time>2021-08-21T05:12:08Z</time>
      </trkpt>
      <trkpt lat="42.6810300" lon="-5.4987460">
        <ele>1036.0</ele>
        <time>2021-08-21T05:12:09Z</time>
      </trkpt>
      <trkpt lat="42.6810570" lon="-5.4987530">
        <ele>1036.0</ele>
        <time>2021-08-21T05:12:10Z</time>
      </trkpt>
      <trkpt lat="42.6810840" lon="-5.4987600">
        <ele>1036.0</ele>
        <time>2021-08-21T05:12:11Z</time>
      </trkpt>
      <trkpt lat="42.6811090" lon="-5.4987670">
        <ele>1036.0</ele>
        <time>2021-08-21T05:12:12Z</time>
      </trkpt>
      <trkpt lat="42.6811340" lon="-5.4987760">
        <ele>1036.0</ele>
        <time>2021-08-21T05:12:13Z</time>
      </trkpt>
      <trkpt lat="42.6811740" lon="-5.4987860">
        <ele>1036.0</ele>
        <time>2021-08-21T05:12:14Z</time>
      </trkpt>
      <trkpt lat="42.6811880" lon="-5.4987880">
        <ele>1036.0</ele>
        <time>2021-08-21T05:12:15Z</time>
      </trkpt>
      <trkpt lat="42.6812310" lon="-5.4987890">
        <ele>1036.0</ele>
        <time>2021-08-21T05:12:16Z</time>
      </trkpt>
      <trkpt lat="42.6812440" lon="-5.4987900">
        <ele>1036.0</ele>
        <time>2021-08-21T05:12:17Z</time>
      </trkpt>
      <trkpt lat="42.6812690" lon="-5.4987910">
        <ele>1036.0</ele>
        <time>2021-08-21T05:12:18Z</time>
      </trkpt>
      <trkpt lat="42.6813070" lon="-5.4987940">
        <ele>1036.0</ele>
        <time>2021-08-21T05:12:19Z</time>
      </trkpt>
      <trkpt lat="42.6813190" lon="-5.4987960">
        <ele>1037.0</ele>
        <time>2021-08-21T05:12:20Z</time>
      </trkpt>
      <trkpt lat="42.6813590" lon="-5.4988020">
        <ele>1037.0</ele>
        <time>2021-08-21T05:12:21Z</time>
      </trkpt>
      <trkpt lat="42.6813720" lon="-5.4988040">
        <ele>1037.0</ele>
        <time>2021-08-21T05:12:22Z</time>
      </trkpt>
      <trkpt lat="42.6813970" lon="-5.4988080">
        <ele>1037.0</ele>
        <time>2021-08-21T05:12:23Z</time>
      </trkpt>
      <trkpt lat="42.6814220" lon="-5.4988100">
        <ele>1037.0</ele>
        <time>2021-08-21T05:12:24Z</time>
      </trkpt>
      <trkpt lat="42.6814590" lon="-5.4988110">
        <ele>1037.0</ele>
        <time>2021-08-21T05:12:25Z</time>
      </trkpt>
      <trkpt lat="42.6814710" lon="-5.4988110">
        <ele>1037.0</ele>
        <time>2021-08-21T05:12:26Z</time>
      </trkpt>
      <trkpt lat="42.6815100" lon="-5.4988120">
        <ele>1037.0</ele>
        <time>2021-08-21T05:12:27Z</time>
      </trkpt>
      <trkpt lat="42.6815220" lon="-5.4988130">
        <ele>1037.0</ele>
        <time>2021-08-21T05:12:28Z</time>
      </trkpt>
      <trkpt lat="42.6815460" lon="-5.4988120">
        <ele>1037.0</ele>
        <time>2021-08-21T05:12:29Z</time>
      </trkpt>
      <trkpt lat="42.6815710" lon="-5.4988130">
        <ele>1037.0</ele>
        <time>2021-08-21T05:12:30Z</time>
      </trkpt>
      <trkpt lat="42.6815970" lon="-5.4988140">
        <ele>1037.0</ele>
        <time>2021-08-21T05:12:31Z</time>
      </trkpt>
      <trkpt lat="42.6816210" lon="-5.4988170">
        <ele>1037.0</ele>
        <time>2021-08-21T05:12:32Z</time>
      </trkpt>
      <trkpt lat="42.6816570" lon="-5.4988170">
        <ele>1037.0</ele>
        <time>2021-08-21T05:12:33Z</time>
      </trkpt>
      <trkpt lat="42.6816700" lon="-5.4988180">
        <ele>1037.0</ele>
        <time>2021-08-21T05:12:34Z</time>
      </trkpt>
      <trkpt lat="42.6816940" lon="-5.4988180">
        <ele>1037.0</ele>
        <time>2021-08-21T05:12:35Z</time>
      </trkpt>
      <trkpt lat="42.6817190" lon="-5.4988210">
        <ele>1037.0</ele>
        <time>2021-08-21T05:12:36Z</time>
      </trkpt>
      <trkpt lat="42.6817430" lon="-5.4988210">
        <ele>1037.0</ele>
        <time>2021-08-21T05:12:37Z</time>
      </trkpt>
      <trkpt lat="42.6817810" lon="-5.4988180">
        <ele>1037.0</ele>
        <time>2021-08-21T05:12:38Z</time>
      </trkpt>
      <trkpt lat="42.6817930" lon="-5.4988160">
        <ele>1037.0</ele>
        <time>2021-08-21T05:12:39Z</time>
      </trkpt>
      <trkpt lat="42.6818170" lon="-5.4988140">
        <ele>1037.0</ele>
        <time>2021-08-21T05:12:40Z</time>
      </trkpt>
      <trkpt lat="42.6818420" lon="-5.4988080">
        <ele>1036.0</ele>
        <time>2021-08-21T05:12:41Z</time>
      </trkpt>
      <trkpt lat="42.6818650" lon="-5.4988040">
        <ele>1036.0</ele>
        <time>2021-08-21T05:12:42Z</time>
      </trkpt>
      <trkpt lat="42.6819000" lon="-5.4987990">
        <ele>1036.0</ele>
        <time>2021-08-21T05:12:43Z</time>
      </trkpt>
      <trkpt lat="42.6819110" lon="-5.4987970">
        <ele>1036.0</ele>
        <time>2021-08-21T05:12:44Z</time>
      </trkpt>
      <trkpt lat="42.6819350" lon="-5.4987930">
        <ele>1036.0</ele>
        <time>2021-08-21T05:12:45Z</time>
      </trkpt>
      <trkpt lat="42.6819590" lon="-5.4987890">
        <ele>1036.0</ele>
        <time>2021-08-21T05:12:46Z</time>
      </trkpt>
      <trkpt lat="42.6819830" lon="-5.4987850">
        <ele>1036.0</ele>
        <time>2021-08-21T05:12:47Z</time>
      </trkpt>
      <trkpt lat="42.6820090" lon="-5.4987800">
        <ele>1036.0</ele>
        <time>2021-08-21T05:12:48Z</time>
      </trkpt>
      <trkpt lat="42.6820340" lon="-5.4987760">
        <ele>1036.0</ele>
        <time>2021-08-21T05:12:49Z</time>
      </trkpt>
      <trkpt lat="42.6820570" lon="-5.4987710">
        <ele>1036.0</ele>
        <time>2021-08-21T05:12:50Z</time>
      </trkpt>
      <trkpt lat="42.6820800" lon="-5.4987650">
        <ele>1036.0</ele>
        <time>2021-08-21T05:12:51Z</time>
      </trkpt>
      <trkpt lat="42.6821020" lon="-5.4987590">
        <ele>1036.0</ele>
        <time>2021-08-21T05:12:52Z</time>
      </trkpt>
      <trkpt lat="42.6821250" lon="-5.4987540">
        <ele>1036.0</ele>
        <time>2021-08-21T05:12:53Z</time>
      </trkpt>
      <trkpt lat="42.6821490" lon="-5.4987470">
        <ele>1036.0</ele>
        <time>2021-08-21T05:12:54Z</time>
      </trkpt>
      <trkpt lat="42.6821710" lon="-5.4987400">
        <ele>1036.0</ele>
        <time>2021-08-21T05:12:55Z</time>
      </trkpt>
      <trkpt lat="42.6821930" lon="-5.4987320">
        <ele>1036.0</ele>
        <time>2021-08-21T05:12:56Z</time>
      </trkpt>
      <trkpt lat="42.6822150" lon="-5.4987220">
        <ele>1036.0</ele>
        <time>2021-08-21T05:12:57Z</time>
      </trkpt>
      <trkpt lat="42.6822400" lon="-5.4987150">
        <ele>1036.0</ele>
        <time>2021-08-21T05:12:58Z</time>
      </trkpt>
      <trkpt lat="42.6822630" lon="-5.4987100">
        <ele>1036.0</ele>
        <time>2021-08-21T05:12:59Z</time>
      </trkpt>
      <trkpt lat="42.6822850" lon="-5.4987040">
        <ele>1036.0</ele>
        <time>2021-08-21T05:13:00Z</time>
      </trkpt>
      <trkpt lat="42.6823080" lon="-5.4986980">
        <ele>1036.0</ele>
        <time>2021-08-21T05:13:01Z</time>
      </trkpt>
      <trkpt lat="42.6823320" lon="-5.4986870">
        <ele>1037.0</ele>
        <time>2021-08-21T05:13:02Z</time>
      </trkpt>
      <trkpt lat="42.6823550" lon="-5.4986750">
        <ele>1037.0</ele>
        <time>2021-08-21T05:13:03Z</time>
      </trkpt>
      <trkpt lat="42.6823760" lon="-5.4986620">
        <ele>1037.0</ele>
        <time>2021-08-21T05:13:04Z</time>
      </trkpt>
      <trkpt lat="42.6823950" lon="-5.4986520">
        <ele>1037.0</ele>
        <time>2021-08-21T05:13:05Z</time>
      </trkpt>
      <trkpt lat="42.6823950" lon="-5.4986520">
        <ele>1037.0</ele>
        <time>2021-08-21T05:13:06Z</time>
      </trkpt>
      <trkpt lat="42.6824220" lon="-5.4986380">
        <ele>1037.0</ele>
        <time>2021-08-21T05:13:07Z</time>
      </trkpt>
      <trkpt lat="42.6824220" lon="-5.4986380">
        <ele>1037.0</ele>
        <time>2021-08-21T05:13:08Z</time>
      </trkpt>
      <trkpt lat="42.6824410" lon="-5.4986250">
        <ele>1037.0</ele>
        <time>2021-08-21T05:13:09Z</time>
      </trkpt>
      <trkpt lat="42.6824590" lon="-5.4986090">
        <ele>1037.0</ele>
        <time>2021-08-21T05:13:11Z</time>
      </trkpt>
      <trkpt lat="42.6824590" lon="-5.4986090">
        <ele>1037.0</ele>
        <time>2021-08-21T05:13:12Z</time>
      </trkpt>
      <trkpt lat="42.6824790" lon="-5.4985970">
        <ele>1037.0</ele>
        <time>2021-08-21T05:13:13Z</time>
      </trkpt>
      <trkpt lat="42.6825010" lon="-5.4985890">
        <ele>1037.0</ele>
        <time>2021-08-21T05:13:15Z</time>
      </trkpt>
      <trkpt lat="42.6825050" lon="-5.4985860">
        <ele>1037.0</ele>
        <time>2021-08-21T05:13:17Z</time>
      </trkpt>
      <trkpt lat="42.6825090" lon="-5.4985840">
        <ele>1037.0</ele>
        <time>2021-08-21T05:13:18Z</time>
      </trkpt>
      <trkpt lat="42.6825130" lon="-5.4985820">
        <ele>1037.0</ele>
        <time>2021-08-21T05:13:19Z</time>
      </trkpt>
      <trkpt lat="42.6825170" lon="-5.4985790">
        <ele>1037.0</ele>
        <time>2021-08-21T05:13:20Z</time>
      </trkpt>
      <trkpt lat="42.6825200" lon="-5.4985770">
        <ele>1037.0</ele>
        <time>2021-08-21T05:13:21Z</time>
      </trkpt>
      <trkpt lat="42.6825240" lon="-5.4985740">
        <ele>1037.0</ele>
        <time>2021-08-21T05:13:23Z</time>
      </trkpt>
      <trkpt lat="42.6825280" lon="-5.4985720">
        <ele>1037.0</ele>
        <time>2021-08-21T05:13:25Z</time>
      </trkpt>
      <trkpt lat="42.6825320" lon="-5.4985700">
        <ele>1037.0</ele>
        <time>2021-08-21T05:13:27Z</time>
      </trkpt>
      <trkpt lat="42.6825360" lon="-5.4985670">
        <ele>1037.0</ele>
        <time>2021-08-21T05:13:28Z</time>
      </trkpt>
      <trkpt lat="42.6825400" lon="-5.4985650">
        <ele>1037.0</ele>
        <time>2021-08-21T05:13:29Z</time>
      </trkpt>
      <trkpt lat="42.6825750" lon="-5.4985470">
        <ele>1037.0</ele>
        <time>2021-08-21T05:13:30Z</time>
      </trkpt>
      <trkpt lat="42.6825870" lon="-5.4985400">
        <ele>1038.0</ele>
        <time>2021-08-21T05:13:31Z</time>
      </trkpt>
      <trkpt lat="42.6826150" lon="-5.4985280">
        <ele>1038.0</ele>
        <time>2021-08-21T05:13:32Z</time>
      </trkpt>
      <trkpt lat="42.6826440" lon="-5.4985150">
        <ele>1038.0</ele>
        <time>2021-08-21T05:13:33Z</time>
      </trkpt>
      <trkpt lat="42.6826700" lon="-5.4985020">
        <ele>1038.0</ele>
        <time>2021-08-21T05:13:34Z</time>
      </trkpt>
      <trkpt lat="42.6826970" lon="-5.4984870">
        <ele>1038.0</ele>
        <time>2021-08-21T05:13:35Z</time>
      </trkpt>
      <trkpt lat="42.6827600" lon="-5.4984500">
        <ele>1038.0</ele>
        <time>2021-08-21T05:13:37Z</time>
      </trkpt>
      <trkpt lat="42.6827720" lon="-5.4984440">
        <ele>1038.0</ele>
        <time>2021-08-21T05:13:38Z</time>
      </trkpt>
      <trkpt lat="42.6828110" lon="-5.4984270">
        <ele>1038.0</ele>
        <time>2021-08-21T05:13:39Z</time>
      </trkpt>
      <trkpt lat="42.6828230" lon="-5.4984210">
        <ele>1038.0</ele>
        <time>2021-08-21T05:13:40Z</time>
      </trkpt>
      <trkpt lat="42.6828490" lon="-5.4984110">
        <ele>1038.0</ele>
        <time>2021-08-21T05:13:41Z</time>
      </trkpt>
      <trkpt lat="42.6828740" lon="-5.4984040">
        <ele>1038.0</ele>
        <time>2021-08-21T05:13:42Z</time>
      </trkpt>
      <trkpt lat="42.6829020" lon="-5.4983960">
        <ele>1038.0</ele>
        <time>2021-08-21T05:13:43Z</time>
      </trkpt>
      <trkpt lat="42.6829280" lon="-5.4983910">
        <ele>1038.0</ele>
        <time>2021-08-21T05:13:44Z</time>
      </trkpt>
      <trkpt lat="42.6829690" lon="-5.4983810">
        <ele>1038.0</ele>
        <time>2021-08-21T05:13:45Z</time>
      </trkpt>
      <trkpt lat="42.6829820" lon="-5.4983780">
        <ele>1038.0</ele>
        <time>2021-08-21T05:13:46Z</time>
      </trkpt>
      <trkpt lat="42.6830080" lon="-5.4983720">
        <ele>1038.0</ele>
        <time>2021-08-21T05:13:47Z</time>
      </trkpt>
      <trkpt lat="42.6830350" lon="-5.4983660">
        <ele>1038.0</ele>
        <time>2021-08-21T05:13:48Z</time>
      </trkpt>
      <trkpt lat="42.6830620" lon="-5.4983590">
        <ele>1038.0</ele>
        <time>2021-08-21T05:13:49Z</time>
      </trkpt>
      <trkpt lat="42.6830890" lon="-5.4983520">
        <ele>1038.0</ele>
        <time>2021-08-21T05:13:50Z</time>
      </trkpt>
      <trkpt lat="42.6831160" lon="-5.4983460">
        <ele>1039.0</ele>
        <time>2021-08-21T05:13:51Z</time>
      </trkpt>
      <trkpt lat="42.6831430" lon="-5.4983400">
        <ele>1039.0</ele>
        <time>2021-08-21T05:13:52Z</time>
      </trkpt>
      <trkpt lat="42.6831700" lon="-5.4983340">
        <ele>1039.0</ele>
        <time>2021-08-21T05:13:53Z</time>
      </trkpt>
      <trkpt lat="42.6831980" lon="-5.4983270">
        <ele>1039.0</ele>
        <time>2021-08-21T05:13:54Z</time>
      </trkpt>
      <trkpt lat="42.6832250" lon="-5.4983190">
        <ele>1039.0</ele>
        <time>2021-08-21T05:13:55Z</time>
      </trkpt>
      <trkpt lat="42.6832530" lon="-5.4983110">
        <ele>1039.0</ele>
        <time>2021-08-21T05:13:56Z</time>
      </trkpt>
      <trkpt lat="42.6832820" lon="-5.4983040">
        <ele>1039.0</ele>
        <time>2021-08-21T05:13:57Z</time>
      </trkpt>
      <trkpt lat="42.6833100" lon="-5.4983000">
        <ele>1039.0</ele>
        <time>2021-08-21T05:13:58Z</time>
      </trkpt>
      <trkpt lat="42.6833380" lon="-5.4982980">
        <ele>1039.0</ele>
        <time>2021-08-21T05:13:59Z</time>
      </trkpt>
      <trkpt lat="42.6833640" lon="-5.4982990">
        <ele>1039.0</ele>
        <time>2021-08-21T05:14:00Z</time>
      </trkpt>
      <trkpt lat="42.6834050" lon="-5.4983000">
        <ele>1039.0</ele>
        <time>2021-08-21T05:14:01Z</time>
      </trkpt>
      <trkpt lat="42.6834170" lon="-5.4983020">
        <ele>1039.0</ele>
        <time>2021-08-21T05:14:02Z</time>
      </trkpt>
      <trkpt lat="42.6834440" lon="-5.4983050">
        <ele>1039.0</ele>
        <time>2021-08-21T05:14:03Z</time>
      </trkpt>
      <trkpt lat="42.6834700" lon="-5.4983100">
        <ele>1040.0</ele>
        <time>2021-08-21T05:14:04Z</time>
      </trkpt>
      <trkpt lat="42.6834970" lon="-5.4983120">
        <ele>1040.0</ele>
        <time>2021-08-21T05:14:05Z</time>
      </trkpt>
      <trkpt lat="42.6835220" lon="-5.4983110">
        <ele>1040.0</ele>
        <time>2021-08-21T05:14:06Z</time>
      </trkpt>
      <trkpt lat="42.6835480" lon="-5.4983070">
        <ele>1040.0</ele>
        <time>2021-08-21T05:14:07Z</time>
      </trkpt>
      <trkpt lat="42.6835730" lon="-5.4983030">
        <ele>1040.0</ele>
        <time>2021-08-21T05:14:08Z</time>
      </trkpt>
      <trkpt lat="42.6835990" lon="-5.4982990">
        <ele>1040.0</ele>
        <time>2021-08-21T05:14:09Z</time>
      </trkpt>
      <trkpt lat="42.6836240" lon="-5.4982940">
        <ele>1040.0</ele>
        <time>2021-08-21T05:14:10Z</time>
      </trkpt>
      <trkpt lat="42.6836640" lon="-5.4982890">
        <ele>1040.0</ele>
        <time>2021-08-21T05:14:11Z</time>
      </trkpt>
      <trkpt lat="42.6836770" lon="-5.4982860">
        <ele>1040.0</ele>
        <time>2021-08-21T05:14:12Z</time>
      </trkpt>
      <trkpt lat="42.6837150" lon="-5.4982740">
        <ele>1040.0</ele>
        <time>2021-08-21T05:14:13Z</time>
      </trkpt>
      <trkpt lat="42.6837270" lon="-5.4982690">
        <ele>1040.0</ele>
        <time>2021-08-21T05:14:14Z</time>
      </trkpt>
      <trkpt lat="42.6837520" lon="-5.4982580">
        <ele>1040.0</ele>
        <time>2021-08-21T05:14:15Z</time>
      </trkpt>
      <trkpt lat="42.6837930" lon="-5.4982410">
        <ele>1040.0</ele>
        <time>2021-08-21T05:14:16Z</time>
      </trkpt>
      <trkpt lat="42.6838060" lon="-5.4982360">
        <ele>1040.0</ele>
        <time>2021-08-21T05:14:17Z</time>
      </trkpt>
      <trkpt lat="42.6838290" lon="-5.4982310">
        <ele>1040.0</ele>
        <time>2021-08-21T05:14:18Z</time>
      </trkpt>
      <trkpt lat="42.6838530" lon="-5.4982280">
        <ele>1040.0</ele>
        <time>2021-08-21T05:14:19Z</time>
      </trkpt>
      <trkpt lat="42.6838790" lon="-5.4982220">
        <ele>1040.0</ele>
        <time>2021-08-21T05:14:20Z</time>
      </trkpt>
      <trkpt lat="42.6839170" lon="-5.4982120">
        <ele>1040.0</ele>
        <time>2021-08-21T05:14:21Z</time>
      </trkpt>
      <trkpt lat="42.6839300" lon="-5.4982090">
        <ele>1040.0</ele>
        <time>2021-08-21T05:14:22Z</time>
      </trkpt>
      <trkpt lat="42.6839550" lon="-5.4982050">
        <ele>1040.0</ele>
        <time>2021-08-21T05:14:23Z</time>
      </trkpt>
      <trkpt lat="42.6839790" lon="-5.4982010">
        <ele>1040.0</ele>
        <time>2021-08-21T05:14:24Z</time>
      </trkpt>
      <trkpt lat="42.6840050" lon="-5.4981960">
        <ele>1040.0</ele>
        <time>2021-08-21T05:14:25Z</time>
      </trkpt>
      <trkpt lat="42.6840290" lon="-5.4981920">
        <ele>1040.0</ele>
        <time>2021-08-21T05:14:26Z</time>
      </trkpt>
      <trkpt lat="42.6840550" lon="-5.4981860">
        <ele>1040.0</ele>
        <time>2021-08-21T05:14:27Z</time>
      </trkpt>
      <trkpt lat="42.6840790" lon="-5.4981810">
        <ele>1040.0</ele>
        <time>2021-08-21T05:14:28Z</time>
      </trkpt>
      <trkpt lat="42.6841180" lon="-5.4981730">
        <ele>1040.0</ele>
        <time>2021-08-21T05:14:29Z</time>
      </trkpt>
      <trkpt lat="42.6841300" lon="-5.4981700">
        <ele>1040.0</ele>
        <time>2021-08-21T05:14:30Z</time>
      </trkpt>
      <trkpt lat="42.6841550" lon="-5.4981660">
        <ele>1040.0</ele>
        <time>2021-08-21T05:14:31Z</time>
      </trkpt>
      <trkpt lat="42.6841790" lon="-5.4981580">
        <ele>1041.0</ele>
        <time>2021-08-21T05:14:32Z</time>
      </trkpt>
      <trkpt lat="42.6842030" lon="-5.4981500">
        <ele>1041.0</ele>
        <time>2021-08-21T05:14:33Z</time>
      </trkpt>
      <trkpt lat="42.6842400" lon="-5.4981390">
        <ele>1041.0</ele>
        <time>2021-08-21T05:14:34Z</time>
      </trkpt>
      <trkpt lat="42.6842520" lon="-5.4981360">
        <ele>1041.0</ele>
        <time>2021-08-21T05:14:35Z</time>
      </trkpt>
      <trkpt lat="42.6842780" lon="-5.4981290">
        <ele>1041.0</ele>
        <time>2021-08-21T05:14:36Z</time>
      </trkpt>
      <trkpt lat="42.6843030" lon="-5.4981230">
        <ele>1041.0</ele>
        <time>2021-08-21T05:14:37Z</time>
      </trkpt>
      <trkpt lat="42.6843270" lon="-5.4981150">
        <ele>1041.0</ele>
        <time>2021-08-21T05:14:38Z</time>
      </trkpt>
      <trkpt lat="42.6843510" lon="-5.4981080">
        <ele>1041.0</ele>
        <time>2021-08-21T05:14:39Z</time>
      </trkpt>
      <trkpt lat="42.6843770" lon="-5.4981000">
        <ele>1041.0</ele>
        <time>2021-08-21T05:14:40Z</time>
      </trkpt>
      <trkpt lat="42.6844030" lon="-5.4980930">
        <ele>1041.0</ele>
        <time>2021-08-21T05:14:41Z</time>
      </trkpt>
      <trkpt lat="42.6844290" lon="-5.4980840">
        <ele>1041.0</ele>
        <time>2021-08-21T05:14:42Z</time>
      </trkpt>
      <trkpt lat="42.6844560" lon="-5.4980750">
        <ele>1041.0</ele>
        <time>2021-08-21T05:14:43Z</time>
      </trkpt>
      <trkpt lat="42.6844810" lon="-5.4980670">
        <ele>1041.0</ele>
        <time>2021-08-21T05:14:44Z</time>
      </trkpt>
      <trkpt lat="42.6845200" lon="-5.4980560">
        <ele>1041.0</ele>
        <time>2021-08-21T05:14:45Z</time>
      </trkpt>
      <trkpt lat="42.6845320" lon="-5.4980530">
        <ele>1041.0</ele>
        <time>2021-08-21T05:14:46Z</time>
      </trkpt>
      <trkpt lat="42.6845580" lon="-5.4980450">
        <ele>1041.0</ele>
        <time>2021-08-21T05:14:47Z</time>
      </trkpt>
      <trkpt lat="42.6845830" lon="-5.4980380">
        <ele>1041.0</ele>
        <time>2021-08-21T05:14:48Z</time>
      </trkpt>
      <trkpt lat="42.6846090" lon="-5.4980290">
        <ele>1041.0</ele>
        <time>2021-08-21T05:14:49Z</time>
      </trkpt>
      <trkpt lat="42.6846340" lon="-5.4980200">
        <ele>1041.0</ele>
        <time>2021-08-21T05:14:50Z</time>
      </trkpt>
      <trkpt lat="42.6846590" lon="-5.4980130">
        <ele>1041.0</ele>
        <time>2021-08-21T05:14:51Z</time>
      </trkpt>
      <trkpt lat="42.6846830" lon="-5.4980050">
        <ele>1041.0</ele>
        <time>2021-08-21T05:14:52Z</time>
      </trkpt>
      <trkpt lat="42.6847080" lon="-5.4979970">
        <ele>1041.0</ele>
        <time>2021-08-21T05:14:53Z</time>
      </trkpt>
      <trkpt lat="42.6847330" lon="-5.4979880">
        <ele>1041.0</ele>
        <time>2021-08-21T05:14:54Z</time>
      </trkpt>
      <trkpt lat="42.6847570" lon="-5.4979800">
        <ele>1041.0</ele>
        <time>2021-08-21T05:14:55Z</time>
      </trkpt>
      <trkpt lat="42.6847820" lon="-5.4979720">
        <ele>1041.0</ele>
        <time>2021-08-21T05:14:56Z</time>
      </trkpt>
      <trkpt lat="42.6848070" lon="-5.4979640">
        <ele>1041.0</ele>
        <time>2021-08-21T05:14:57Z</time>
      </trkpt>
      <trkpt lat="42.6848070" lon="-5.4979640">
        <ele>1041.0</ele>
        <time>2021-08-21T05:14:58Z</time>
      </trkpt>
      <trkpt lat="42.6848580" lon="-5.4979450">
        <ele>1041.0</ele>
        <time>2021-08-21T05:14:59Z</time>
      </trkpt>
      <trkpt lat="42.6848840" lon="-5.4979360">
        <ele>1041.0</ele>
        <time>2021-08-21T05:15:00Z</time>
      </trkpt>
      <trkpt lat="42.6849100" lon="-5.4979270">
        <ele>1041.0</ele>
        <time>2021-08-21T05:15:01Z</time>
      </trkpt>
      <trkpt lat="42.6849360" lon="-5.4979170">
        <ele>1041.0</ele>
        <time>2021-08-21T05:15:02Z</time>
      </trkpt>
      <trkpt lat="42.6849620" lon="-5.4979070">
        <ele>1041.0</ele>
        <time>2021-08-21T05:15:03Z</time>
      </trkpt>
      <trkpt lat="42.6849890" lon="-5.4978980">
        <ele>1041.0</ele>
        <time>2021-08-21T05:15:04Z</time>
      </trkpt>
      <trkpt lat="42.6850150" lon="-5.4978880">
        <ele>1041.0</ele>
        <time>2021-08-21T05:15:05Z</time>
      </trkpt>
      <trkpt lat="42.6850410" lon="-5.4978780">
        <ele>1041.0</ele>
        <time>2021-08-21T05:15:06Z</time>
      </trkpt>
      <trkpt lat="42.6850670" lon="-5.4978690">
        <ele>1041.0</ele>
        <time>2021-08-21T05:15:07Z</time>
      </trkpt>
      <trkpt lat="42.6850910" lon="-5.4978590">
        <ele>1041.0</ele>
        <time>2021-08-21T05:15:08Z</time>
      </trkpt>
      <trkpt lat="42.6851160" lon="-5.4978500">
        <ele>1041.0</ele>
        <time>2021-08-21T05:15:09Z</time>
      </trkpt>
      <trkpt lat="42.6851420" lon="-5.4978390">
        <ele>1041.0</ele>
        <time>2021-08-21T05:15:10Z</time>
      </trkpt>
      <trkpt lat="42.6851660" lon="-5.4978250">
        <ele>1041.0</ele>
        <time>2021-08-21T05:15:11Z</time>
      </trkpt>
      <trkpt lat="42.6851900" lon="-5.4978090">
        <ele>1042.0</ele>
        <time>2021-08-21T05:15:12Z</time>
      </trkpt>
      <trkpt lat="42.6852110" lon="-5.4977910">
        <ele>1042.0</ele>
        <time>2021-08-21T05:15:13Z</time>
      </trkpt>
      <trkpt lat="42.6852320" lon="-5.4977730">
        <ele>1042.0</ele>
        <time>2021-08-21T05:15:14Z</time>
      </trkpt>
      <trkpt lat="42.6852540" lon="-5.4977570">
        <ele>1042.0</ele>
        <time>2021-08-21T05:15:15Z</time>
      </trkpt>
      <trkpt lat="42.6852760" lon="-5.4977430">
        <ele>1042.0</ele>
        <time>2021-08-21T05:15:16Z</time>
      </trkpt>
      <trkpt lat="42.6853000" lon="-5.4977270">
        <ele>1042.0</ele>
        <time>2021-08-21T05:15:17Z</time>
      </trkpt>
      <trkpt lat="42.6853250" lon="-5.4977120">
        <ele>1042.0</ele>
        <time>2021-08-21T05:15:18Z</time>
      </trkpt>
      <trkpt lat="42.6853480" lon="-5.4976960">
        <ele>1042.0</ele>
        <time>2021-08-21T05:15:19Z</time>
      </trkpt>
      <trkpt lat="42.6853710" lon="-5.4976800">
        <ele>1042.0</ele>
        <time>2021-08-21T05:15:20Z</time>
      </trkpt>
      <trkpt lat="42.6853960" lon="-5.4976640">
        <ele>1042.0</ele>
        <time>2021-08-21T05:15:21Z</time>
      </trkpt>
      <trkpt lat="42.6854200" lon="-5.4976450">
        <ele>1042.0</ele>
        <time>2021-08-21T05:15:22Z</time>
      </trkpt>
      <trkpt lat="42.6854440" lon="-5.4976300">
        <ele>1042.0</ele>
        <time>2021-08-21T05:15:23Z</time>
      </trkpt>
      <trkpt lat="42.6854670" lon="-5.4976200">
        <ele>1042.0</ele>
        <time>2021-08-21T05:15:24Z</time>
      </trkpt>
      <trkpt lat="42.6854920" lon="-5.4976100">
        <ele>1042.0</ele>
        <time>2021-08-21T05:15:25Z</time>
      </trkpt>
      <trkpt lat="42.6855160" lon="-5.4975980">
        <ele>1042.0</ele>
        <time>2021-08-21T05:15:26Z</time>
      </trkpt>
      <trkpt lat="42.6855420" lon="-5.4975870">
        <ele>1042.0</ele>
        <time>2021-08-21T05:15:27Z</time>
      </trkpt>
      <trkpt lat="42.6855670" lon="-5.4975740">
        <ele>1042.0</ele>
        <time>2021-08-21T05:15:28Z</time>
      </trkpt>
      <trkpt lat="42.6855910" lon="-5.4975580">
        <ele>1042.0</ele>
        <time>2021-08-21T05:15:29Z</time>
      </trkpt>
      <trkpt lat="42.6856150" lon="-5.4975400">
        <ele>1042.0</ele>
        <time>2021-08-21T05:15:30Z</time>
      </trkpt>
      <trkpt lat="42.6856380" lon="-5.4975230">
        <ele>1042.0</ele>
        <time>2021-08-21T05:15:31Z</time>
      </trkpt>
      <trkpt lat="42.6856620" lon="-5.4975060">
        <ele>1042.0</ele>
        <time>2021-08-21T05:15:32Z</time>
      </trkpt>
      <trkpt lat="42.6856840" lon="-5.4974910">
        <ele>1042.0</ele>
        <time>2021-08-21T05:15:33Z</time>
      </trkpt>
      <trkpt lat="42.6857040" lon="-5.4974740">
        <ele>1042.0</ele>
        <time>2021-08-21T05:15:34Z</time>
      </trkpt>
      <trkpt lat="42.6857250" lon="-5.4974570">
        <ele>1042.0</ele>
        <time>2021-08-21T05:15:35Z</time>
      </trkpt>
      <trkpt lat="42.6857460" lon="-5.4974400">
        <ele>1042.0</ele>
        <time>2021-08-21T05:15:36Z</time>
      </trkpt>
      <trkpt lat="42.6857690" lon="-5.4974220">
        <ele>1042.0</ele>
        <time>2021-08-21T05:15:37Z</time>
      </trkpt>
      <trkpt lat="42.6857920" lon="-5.4974040">
        <ele>1043.0</ele>
        <time>2021-08-21T05:15:38Z</time>
      </trkpt>
      <trkpt lat="42.6858140" lon="-5.4973850">
        <ele>1043.0</ele>
        <time>2021-08-21T05:15:39Z</time>
      </trkpt>
      <trkpt lat="42.6858340" lon="-5.4973670">
        <ele>1043.0</ele>
        <time>2021-08-21T05:15:40Z</time>
      </trkpt>
      <trkpt lat="42.6858550" lon="-5.4973480">
        <ele>1043.0</ele>
        <time>2021-08-21T05:15:41Z</time>
      </trkpt>
      <trkpt lat="42.6858760" lon="-5.4973290">
        <ele>1043.0</ele>
        <time>2021-08-21T05:15:42Z</time>
      </trkpt>
      <trkpt lat="42.6858990" lon="-5.4973130">
        <ele>1043.0</ele>
        <time>2021-08-21T05:15:43Z</time>
      </trkpt>
      <trkpt lat="42.6859200" lon="-5.4972940">
        <ele>1043.0</ele>
        <time>2021-08-21T05:15:44Z</time>
      </trkpt>
      <trkpt lat="42.6859440" lon="-5.4972760">
        <ele>1043.0</ele>
        <time>2021-08-21T05:15:45Z</time>
      </trkpt>
      <trkpt lat="42.6859670" lon="-5.4972560">
        <ele>1043.0</ele>
        <time>2021-08-21T05:15:46Z</time>
      </trkpt>
      <trkpt lat="42.6859910" lon="-5.4972360">
        <ele>1043.0</ele>
        <time>2021-08-21T05:15:47Z</time>
      </trkpt>
      <trkpt lat="42.6860130" lon="-5.4972130">
        <ele>1043.0</ele>
        <time>2021-08-21T05:15:48Z</time>
      </trkpt>
      <trkpt lat="42.6860560" lon="-5.4971740">
        <ele>1043.0</ele>
        <time>2021-08-21T05:15:50Z</time>
      </trkpt>
      <trkpt lat="42.6860800" lon="-5.4971580">
        <ele>1043.0</ele>
        <time>2021-08-21T05:15:51Z</time>
      </trkpt>
      <trkpt lat="42.6861060" lon="-5.4971420">
        <ele>1043.0</ele>
        <time>2021-08-21T05:15:52Z</time>
      </trkpt>
      <trkpt lat="42.6861300" lon="-5.4971250">
        <ele>1043.0</ele>
        <time>2021-08-21T05:15:53Z</time>
      </trkpt>
      <trkpt lat="42.6861550" lon="-5.4971060">
        <ele>1044.0</ele>
        <time>2021-08-21T05:15:54Z</time>
      </trkpt>
      <trkpt lat="42.6861790" lon="-5.4970850">
        <ele>1044.0</ele>
        <time>2021-08-21T05:15:55Z</time>
      </trkpt>
      <trkpt lat="42.6862030" lon="-5.4970640">
        <ele>1044.0</ele>
        <time>2021-08-21T05:15:56Z</time>
      </trkpt>
      <trkpt lat="42.6862270" lon="-5.4970440">
        <ele>1044.0</ele>
        <time>2021-08-21T05:15:57Z</time>
      </trkpt>
      <trkpt lat="42.6862540" lon="-5.4970260">
        <ele>1044.0</ele>
        <time>2021-08-21T05:15:58Z</time>
      </trkpt>
      <trkpt lat="42.6862780" lon="-5.4970090">
        <ele>1044.0</ele>
        <time>2021-08-21T05:15:59Z</time>
      </trkpt>
      <trkpt lat="42.6863040" lon="-5.4969940">
        <ele>1044.0</ele>
        <time>2021-08-21T05:16:00Z</time>
      </trkpt>
      <trkpt lat="42.6863290" lon="-5.4969790">
        <ele>1044.0</ele>
        <time>2021-08-21T05:16:01Z</time>
      </trkpt>
      <trkpt lat="42.6863530" lon="-5.4969650">
        <ele>1044.0</ele>
        <time>2021-08-21T05:16:02Z</time>
      </trkpt>
      <trkpt lat="42.6863780" lon="-5.4969510">
        <ele>1044.0</ele>
        <time>2021-08-21T05:16:03Z</time>
      </trkpt>
      <trkpt lat="42.6864020" lon="-5.4969400">
        <ele>1044.0</ele>
        <time>2021-08-21T05:16:04Z</time>
      </trkpt>
      <trkpt lat="42.6864280" lon="-5.4969290">
        <ele>1044.0</ele>
        <time>2021-08-21T05:16:05Z</time>
      </trkpt>
      <trkpt lat="42.6864530" lon="-5.4969200">
        <ele>1044.0</ele>
        <time>2021-08-21T05:16:06Z</time>
      </trkpt>
      <trkpt lat="42.6864530" lon="-5.4969200">
        <ele>1044.0</ele>
        <time>2021-08-21T05:16:07Z</time>
      </trkpt>
      <trkpt lat="42.6865140" lon="-5.4968930">
        <ele>1044.0</ele>
        <time>2021-08-21T05:16:08Z</time>
      </trkpt>
      <trkpt lat="42.6865260" lon="-5.4968880">
        <ele>1045.0</ele>
        <time>2021-08-21T05:16:09Z</time>
      </trkpt>
      <trkpt lat="42.6865500" lon="-5.4968790">
        <ele>1045.0</ele>
        <time>2021-08-21T05:16:10Z</time>
      </trkpt>
      <trkpt lat="42.6865770" lon="-5.4968700">
        <ele>1045.0</ele>
        <time>2021-08-21T05:16:11Z</time>
      </trkpt>
      <trkpt lat="42.6866040" lon="-5.4968620">
        <ele>1045.0</ele>
        <time>2021-08-21T05:16:12Z</time>
      </trkpt>
      <trkpt lat="42.6866310" lon="-5.4968540">
        <ele>1045.0</ele>
        <time>2021-08-21T05:16:13Z</time>
      </trkpt>
      <trkpt lat="42.6866580" lon="-5.4968490">
        <ele>1045.0</ele>
        <time>2021-08-21T05:16:14Z</time>
      </trkpt>
      <trkpt lat="42.6867070" lon="-5.4968380">
        <ele>1045.0</ele>
        <time>2021-08-21T05:16:15Z</time>
      </trkpt>
      <trkpt lat="42.6867070" lon="-5.4968380">
        <ele>1045.0</ele>
        <time>2021-08-21T05:16:16Z</time>
      </trkpt>
      <trkpt lat="42.6867310" lon="-5.4968310">
        <ele>1045.0</ele>
        <time>2021-08-21T05:16:17Z</time>
      </trkpt>
      <trkpt lat="42.6867570" lon="-5.4968220">
        <ele>1045.0</ele>
        <time>2021-08-21T05:16:18Z</time>
      </trkpt>
      <trkpt lat="42.6867840" lon="-5.4968130">
        <ele>1045.0</ele>
        <time>2021-08-21T05:16:19Z</time>
      </trkpt>
      <trkpt lat="42.6868090" lon="-5.4968010">
        <ele>1045.0</ele>
        <time>2021-08-21T05:16:20Z</time>
      </trkpt>
      <trkpt lat="42.6868340" lon="-5.4967890">
        <ele>1045.0</ele>
        <time>2021-08-21T05:16:21Z</time>
      </trkpt>
      <trkpt lat="42.6868720" lon="-5.4967730">
        <ele>1045.0</ele>
        <time>2021-08-21T05:16:22Z</time>
      </trkpt>
      <trkpt lat="42.6868850" lon="-5.4967680">
        <ele>1045.0</ele>
        <time>2021-08-21T05:16:23Z</time>
      </trkpt>
      <trkpt lat="42.6869110" lon="-5.4967570">
        <ele>1046.0</ele>
        <time>2021-08-21T05:16:24Z</time>
      </trkpt>
      <trkpt lat="42.6869340" lon="-5.4967450">
        <ele>1046.0</ele>
        <time>2021-08-21T05:16:25Z</time>
      </trkpt>
      <trkpt lat="42.6869560" lon="-5.4967330">
        <ele>1046.0</ele>
        <time>2021-08-21T05:16:26Z</time>
      </trkpt>
      <trkpt lat="42.6869810" lon="-5.4967210">
        <ele>1046.0</ele>
        <time>2021-08-21T05:16:27Z</time>
      </trkpt>
      <trkpt lat="42.6870170" lon="-5.4967030">
        <ele>1046.0</ele>
        <time>2021-08-21T05:16:28Z</time>
      </trkpt>
      <trkpt lat="42.6870280" lon="-5.4966960">
        <ele>1046.0</ele>
        <time>2021-08-21T05:16:29Z</time>
      </trkpt>
      <trkpt lat="42.6870510" lon="-5.4966820">
        <ele>1046.0</ele>
        <time>2021-08-21T05:16:30Z</time>
      </trkpt>
      <trkpt lat="42.6870750" lon="-5.4966680">
        <ele>1046.0</ele>
        <time>2021-08-21T05:16:31Z</time>
      </trkpt>
      <trkpt lat="42.6870990" lon="-5.4966550">
        <ele>1046.0</ele>
        <time>2021-08-21T05:16:32Z</time>
      </trkpt>
      <trkpt lat="42.6871230" lon="-5.4966410">
        <ele>1046.0</ele>
        <time>2021-08-21T05:16:33Z</time>
      </trkpt>
      <trkpt lat="42.6871470" lon="-5.4966280">
        <ele>1046.0</ele>
        <time>2021-08-21T05:16:34Z</time>
      </trkpt>
      <trkpt lat="42.6871690" lon="-5.4966160">
        <ele>1046.0</ele>
        <time>2021-08-21T05:16:35Z</time>
      </trkpt>
      <trkpt lat="42.6871920" lon="-5.4966020">
        <ele>1046.0</ele>
        <time>2021-08-21T05:16:36Z</time>
      </trkpt>
      <trkpt lat="42.6872170" lon="-5.4965900">
        <ele>1046.0</ele>
        <time>2021-08-21T05:16:37Z</time>
      </trkpt>
      <trkpt lat="42.6872430" lon="-5.4965760">
        <ele>1046.0</ele>
        <time>2021-08-21T05:16:38Z</time>
      </trkpt>
      <trkpt lat="42.6872660" lon="-5.4965660">
        <ele>1046.0</ele>
        <time>2021-08-21T05:16:39Z</time>
      </trkpt>
      <trkpt lat="42.6872910" lon="-5.4965570">
        <ele>1046.0</ele>
        <time>2021-08-21T05:16:40Z</time>
      </trkpt>
      <trkpt lat="42.6873150" lon="-5.4965490">
        <ele>1046.0</ele>
        <time>2021-08-21T05:16:41Z</time>
      </trkpt>
      <trkpt lat="42.6873530" lon="-5.4965360">
        <ele>1046.0</ele>
        <time>2021-08-21T05:16:42Z</time>
      </trkpt>
      <trkpt lat="42.6873650" lon="-5.4965310">
        <ele>1046.0</ele>
        <time>2021-08-21T05:16:43Z</time>
      </trkpt>
      <trkpt lat="42.6873890" lon="-5.4965170">
        <ele>1047.0</ele>
        <time>2021-08-21T05:16:44Z</time>
      </trkpt>
      <trkpt lat="42.6874230" lon="-5.4964980">
        <ele>1047.0</ele>
        <time>2021-08-21T05:16:45Z</time>
      </trkpt>
      <trkpt lat="42.6874340" lon="-5.4964920">
        <ele>1047.0</ele>
        <time>2021-08-21T05:16:46Z</time>
      </trkpt>
      <trkpt lat="42.6874680" lon="-5.4964740">
        <ele>1047.0</ele>
        <time>2021-08-21T05:16:47Z</time>
      </trkpt>
      <trkpt lat="42.6874790" lon="-5.4964670">
        <ele>1047.0</ele>
        <time>2021-08-21T05:16:48Z</time>
      </trkpt>
      <trkpt lat="42.6875040" lon="-5.4964540">
        <ele>1047.0</ele>
        <time>2021-08-21T05:16:49Z</time>
      </trkpt>
      <trkpt lat="42.6875280" lon="-5.4964410">
        <ele>1047.0</ele>
        <time>2021-08-21T05:16:50Z</time>
      </trkpt>
      <trkpt lat="42.6875520" lon="-5.4964270">
        <ele>1047.0</ele>
        <time>2021-08-21T05:16:51Z</time>
      </trkpt>
      <trkpt lat="42.6875770" lon="-5.4964150">
        <ele>1047.0</ele>
        <time>2021-08-21T05:16:52Z</time>
      </trkpt>
      <trkpt lat="42.6876010" lon="-5.4964020">
        <ele>1047.0</ele>
        <time>2021-08-21T05:16:53Z</time>
      </trkpt>
      <trkpt lat="42.6876250" lon="-5.4963890">
        <ele>1047.0</ele>
        <time>2021-08-21T05:16:54Z</time>
      </trkpt>
      <trkpt lat="42.6876490" lon="-5.4963760">
        <ele>1047.0</ele>
        <time>2021-08-21T05:16:55Z</time>
      </trkpt>
      <trkpt lat="42.6876720" lon="-5.4963630">
        <ele>1048.0</ele>
        <time>2021-08-21T05:16:56Z</time>
      </trkpt>
      <trkpt lat="42.6877070" lon="-5.4963450">
        <ele>1048.0</ele>
        <time>2021-08-21T05:16:57Z</time>
      </trkpt>
      <trkpt lat="42.6877180" lon="-5.4963390">
        <ele>1048.0</ele>
        <time>2021-08-21T05:16:58Z</time>
      </trkpt>
      <trkpt lat="42.6877430" lon="-5.4963270">
        <ele>1048.0</ele>
        <time>2021-08-21T05:16:59Z</time>
      </trkpt>
      <trkpt lat="42.6877670" lon="-5.4963140">
        <ele>1048.0</ele>
        <time>2021-08-21T05:17:00Z</time>
      </trkpt>
      <trkpt lat="42.6877920" lon="-5.4963020">
        <ele>1048.0</ele>
        <time>2021-08-21T05:17:01Z</time>
      </trkpt>
      <trkpt lat="42.6878170" lon="-5.4962890">
        <ele>1048.0</ele>
        <time>2021-08-21T05:17:02Z</time>
      </trkpt>
      <trkpt lat="42.6878420" lon="-5.4962770">
        <ele>1048.0</ele>
        <time>2021-08-21T05:17:03Z</time>
      </trkpt>
      <trkpt lat="42.6878770" lon="-5.4962620">
        <ele>1048.0</ele>
        <time>2021-08-21T05:17:04Z</time>
      </trkpt>
      <trkpt lat="42.6878890" lon="-5.4962570">
        <ele>1048.0</ele>
        <time>2021-08-21T05:17:05Z</time>
      </trkpt>
      <trkpt lat="42.6879140" lon="-5.4962450">
        <ele>1048.0</ele>
        <time>2021-08-21T05:17:06Z</time>
      </trkpt>
      <trkpt lat="42.6879380" lon="-5.4962340">
        <ele>1048.0</ele>
        <time>2021-08-21T05:17:07Z</time>
      </trkpt>
      <trkpt lat="42.6879630" lon="-5.4962200">
        <ele>1049.0</ele>
        <time>2021-08-21T05:17:08Z</time>
      </trkpt>
      <trkpt lat="42.6879860" lon="-5.4962080">
        <ele>1049.0</ele>
        <time>2021-08-21T05:17:09Z</time>
      </trkpt>
      <trkpt lat="42.6880110" lon="-5.4961950">
        <ele>1049.0</ele>
        <time>2021-08-21T05:17:10Z</time>
      </trkpt>
      <trkpt lat="42.6880340" lon="-5.4961820">
        <ele>1049.0</ele>
        <time>2021-08-21T05:17:11Z</time>
      </trkpt>
      <trkpt lat="42.6880580" lon="-5.4961710">
        <ele>1049.0</ele>
        <time>2021-08-21T05:17:12Z</time>
      </trkpt>
      <trkpt lat="42.6880830" lon="-5.4961610">
        <ele>1049.0</ele>
        <time>2021-08-21T05:17:13Z</time>
      </trkpt>
      <trkpt lat="42.6881090" lon="-5.4961530">
        <ele>1049.0</ele>
        <time>2021-08-21T05:17:14Z</time>
      </trkpt>
      <trkpt lat="42.6881350" lon="-5.4961430">
        <ele>1049.0</ele>
        <time>2021-08-21T05:17:15Z</time>
      </trkpt>
      <trkpt lat="42.6881620" lon="-5.4961350">
        <ele>1049.0</ele>
        <time>2021-08-21T05:17:16Z</time>
      </trkpt>
      <trkpt lat="42.6881860" lon="-5.4961280">
        <ele>1049.0</ele>
        <time>2021-08-21T05:17:17Z</time>
      </trkpt>
      <trkpt lat="42.6882130" lon="-5.4961190">
        <ele>1050.0</ele>
        <time>2021-08-21T05:17:18Z</time>
      </trkpt>
      <trkpt lat="42.6882390" lon="-5.4961100">
        <ele>1050.0</ele>
        <time>2021-08-21T05:17:19Z</time>
      </trkpt>
      <trkpt lat="42.6882630" lon="-5.4961010">
        <ele>1050.0</ele>
        <time>2021-08-21T05:17:20Z</time>
      </trkpt>
      <trkpt lat="42.6882900" lon="-5.4960900">
        <ele>1050.0</ele>
        <time>2021-08-21T05:17:21Z</time>
      </trkpt>
      <trkpt lat="42.6883150" lon="-5.4960780">
        <ele>1050.0</ele>
        <time>2021-08-21T05:17:22Z</time>
      </trkpt>
      <trkpt lat="42.6883500" lon="-5.4960620">
        <ele>1050.0</ele>
        <time>2021-08-21T05:17:23Z</time>
      </trkpt>
      <trkpt lat="42.6883610" lon="-5.4960570">
        <ele>1050.0</ele>
        <time>2021-08-21T05:17:24Z</time>
      </trkpt>
      <trkpt lat="42.6883860" lon="-5.4960440">
        <ele>1050.0</ele>
        <time>2021-08-21T05:17:25Z</time>
      </trkpt>
      <trkpt lat="42.6884110" lon="-5.4960310">
        <ele>1050.0</ele>
        <time>2021-08-21T05:17:26Z</time>
      </trkpt>
      <trkpt lat="42.6884350" lon="-5.4960160">
        <ele>1050.0</ele>
        <time>2021-08-21T05:17:27Z</time>
      </trkpt>
      <trkpt lat="42.6884580" lon="-5.4960010">
        <ele>1050.0</ele>
        <time>2021-08-21T05:17:28Z</time>
      </trkpt>
      <trkpt lat="42.6884820" lon="-5.4959830">
        <ele>1050.0</ele>
        <time>2021-08-21T05:17:29Z</time>
      </trkpt>
      <trkpt lat="42.6885050" lon="-5.4959620">
        <ele>1050.0</ele>
        <time>2021-08-21T05:17:30Z</time>
      </trkpt>
      <trkpt lat="42.6885270" lon="-5.4959400">
        <ele>1050.0</ele>
        <time>2021-08-21T05:17:31Z</time>
      </trkpt>
      <trkpt lat="42.6885510" lon="-5.4959170">
        <ele>1051.0</ele>
        <time>2021-08-21T05:17:32Z</time>
      </trkpt>
      <trkpt lat="42.6885740" lon="-5.4958920">
        <ele>1051.0</ele>
        <time>2021-08-21T05:17:33Z</time>
      </trkpt>
      <trkpt lat="42.6885970" lon="-5.4958710">
        <ele>1051.0</ele>
        <time>2021-08-21T05:17:34Z</time>
      </trkpt>
      <trkpt lat="42.6886210" lon="-5.4958500">
        <ele>1051.0</ele>
        <time>2021-08-21T05:17:35Z</time>
      </trkpt>
      <trkpt lat="42.6886440" lon="-5.4958300">
        <ele>1051.0</ele>
        <time>2021-08-21T05:17:36Z</time>
      </trkpt>
      <trkpt lat="42.6886660" lon="-5.4958090">
        <ele>1051.0</ele>
        <time>2021-08-21T05:17:37Z</time>
      </trkpt>
      <trkpt lat="42.6886880" lon="-5.4957900">
        <ele>1051.0</ele>
        <time>2021-08-21T05:17:38Z</time>
      </trkpt>
      <trkpt lat="42.6887110" lon="-5.4957690">
        <ele>1051.0</ele>
        <time>2021-08-21T05:17:39Z</time>
      </trkpt>
      <trkpt lat="42.6887320" lon="-5.4957490">
        <ele>1051.0</ele>
        <time>2021-08-21T05:17:40Z</time>
      </trkpt>
      <trkpt lat="42.6887530" lon="-5.4957280">
        <ele>1051.0</ele>
        <time>2021-08-21T05:17:41Z</time>
      </trkpt>
      <trkpt lat="42.6887730" lon="-5.4957100">
        <ele>1051.0</ele>
        <time>2021-08-21T05:17:42Z</time>
      </trkpt>
      <trkpt lat="42.6887940" lon="-5.4956910">
        <ele>1051.0</ele>
        <time>2021-08-21T05:17:43Z</time>
      </trkpt>
      <trkpt lat="42.6888270" lon="-5.4956590">
        <ele>1051.0</ele>
        <time>2021-08-21T05:17:44Z</time>
      </trkpt>
      <trkpt lat="42.6888380" lon="-5.4956480">
        <ele>1051.0</ele>
        <time>2021-08-21T05:17:45Z</time>
      </trkpt>
      <trkpt lat="42.6888600" lon="-5.4956270">
        <ele>1051.0</ele>
        <time>2021-08-21T05:17:46Z</time>
      </trkpt>
      <trkpt lat="42.6888820" lon="-5.4956050">
        <ele>1051.0</ele>
        <time>2021-08-21T05:17:47Z</time>
      </trkpt>
      <trkpt lat="42.6889040" lon="-5.4955840">
        <ele>1052.0</ele>
        <time>2021-08-21T05:17:48Z</time>
      </trkpt>
      <trkpt lat="42.6889250" lon="-5.4955620">
        <ele>1052.0</ele>
        <time>2021-08-21T05:17:49Z</time>
      </trkpt>
      <trkpt lat="42.6889450" lon="-5.4955410">
        <ele>1052.0</ele>
        <time>2021-08-21T05:17:50Z</time>
      </trkpt>
      <trkpt lat="42.6889660" lon="-5.4955200">
        <ele>1051.0</ele>
        <time>2021-08-21T05:17:51Z</time>
      </trkpt>
      <trkpt lat="42.6889880" lon="-5.4955000">
        <ele>1051.0</ele>
        <time>2021-08-21T05:17:52Z</time>
      </trkpt>
      <trkpt lat="42.6890110" lon="-5.4954800">
        <ele>1051.0</ele>
        <time>2021-08-21T05:17:53Z</time>
      </trkpt>
      <trkpt lat="42.6890320" lon="-5.4954600">
        <ele>1052.0</ele>
        <time>2021-08-21T05:17:54Z</time>
      </trkpt>
      <trkpt lat="42.6890550" lon="-5.4954400">
        <ele>1052.0</ele>
        <time>2021-08-21T05:17:55Z</time>
      </trkpt>
      <trkpt lat="42.6890780" lon="-5.4954190">
        <ele>1052.0</ele>
        <time>2021-08-21T05:17:56Z</time>
      </trkpt>
      <trkpt lat="42.6891020" lon="-5.4954000">
        <ele>1052.0</ele>
        <time>2021-08-21T05:17:57Z</time>
      </trkpt>
      <trkpt lat="42.6891230" lon="-5.4953830">
        <ele>1052.0</ele>
        <time>2021-08-21T05:17:58Z</time>
      </trkpt>
      <trkpt lat="42.6891450" lon="-5.4953630">
        <ele>1052.0</ele>
        <time>2021-08-21T05:17:59Z</time>
      </trkpt>
      <trkpt lat="42.6891650" lon="-5.4953420">
        <ele>1052.0</ele>
        <time>2021-08-21T05:18:00Z</time>
      </trkpt>
      <trkpt lat="42.6891960" lon="-5.4953090">
        <ele>1052.0</ele>
        <time>2021-08-21T05:18:01Z</time>
      </trkpt>
      <trkpt lat="42.6892070" lon="-5.4952980">
        <ele>1052.0</ele>
        <time>2021-08-21T05:18:02Z</time>
      </trkpt>
      <trkpt lat="42.6892390" lon="-5.4952680">
        <ele>1052.0</ele>
        <time>2021-08-21T05:18:03Z</time>
      </trkpt>
      <trkpt lat="42.6892490" lon="-5.4952570">
        <ele>1052.0</ele>
        <time>2021-08-21T05:18:04Z</time>
      </trkpt>
      <trkpt lat="42.6892690" lon="-5.4952370">
        <ele>1052.0</ele>
        <time>2021-08-21T05:18:05Z</time>
      </trkpt>
      <trkpt lat="42.6892890" lon="-5.4952140">
        <ele>1052.0</ele>
        <time>2021-08-21T05:18:06Z</time>
      </trkpt>
      <trkpt lat="42.6893080" lon="-5.4951920">
        <ele>1052.0</ele>
        <time>2021-08-21T05:18:07Z</time>
      </trkpt>
      <trkpt lat="42.6893250" lon="-5.4951690">
        <ele>1053.0</ele>
        <time>2021-08-21T05:18:08Z</time>
      </trkpt>
      <trkpt lat="42.6893430" lon="-5.4951470">
        <ele>1053.0</ele>
        <time>2021-08-21T05:18:09Z</time>
      </trkpt>
      <trkpt lat="42.6893620" lon="-5.4951240">
        <ele>1053.0</ele>
        <time>2021-08-21T05:18:10Z</time>
      </trkpt>
      <trkpt lat="42.6893810" lon="-5.4951020">
        <ele>1053.0</ele>
        <time>2021-08-21T05:18:11Z</time>
      </trkpt>
      <trkpt lat="42.6894000" lon="-5.4950800">
        <ele>1053.0</ele>
        <time>2021-08-21T05:18:12Z</time>
      </trkpt>
      <trkpt lat="42.6894200" lon="-5.4950570">
        <ele>1053.0</ele>
        <time>2021-08-21T05:18:13Z</time>
      </trkpt>
      <trkpt lat="42.6894400" lon="-5.4950360">
        <ele>1053.0</ele>
        <time>2021-08-21T05:18:14Z</time>
      </trkpt>
      <trkpt lat="42.6894600" lon="-5.4950150">
        <ele>1053.0</ele>
        <time>2021-08-21T05:18:15Z</time>
      </trkpt>
      <trkpt lat="42.6894790" lon="-5.4949930">
        <ele>1053.0</ele>
        <time>2021-08-21T05:18:16Z</time>
      </trkpt>
      <trkpt lat="42.6894980" lon="-5.4949700">
        <ele>1053.0</ele>
        <time>2021-08-21T05:18:17Z</time>
      </trkpt>
      <trkpt lat="42.6895170" lon="-5.4949480">
        <ele>1053.0</ele>
        <time>2021-08-21T05:18:18Z</time>
      </trkpt>
      <trkpt lat="42.6895370" lon="-5.4949270">
        <ele>1053.0</ele>
        <time>2021-08-21T05:18:19Z</time>
      </trkpt>
      <trkpt lat="42.6895550" lon="-5.4949050">
        <ele>1053.0</ele>
        <time>2021-08-21T05:18:20Z</time>
      </trkpt>
      <trkpt lat="42.6895740" lon="-5.4948850">
        <ele>1053.0</ele>
        <time>2021-08-21T05:18:21Z</time>
      </trkpt>
      <trkpt lat="42.6895920" lon="-5.4948640">
        <ele>1053.0</ele>
        <time>2021-08-21T05:18:22Z</time>
      </trkpt>
      <trkpt lat="42.6896110" lon="-5.4948430">
        <ele>1053.0</ele>
        <time>2021-08-21T05:18:23Z</time>
      </trkpt>
      <trkpt lat="42.6896270" lon="-5.4948210">
        <ele>1053.0</ele>
        <time>2021-08-21T05:18:24Z</time>
      </trkpt>
      <trkpt lat="42.6896440" lon="-5.4947990">
        <ele>1053.0</ele>
        <time>2021-08-21T05:18:25Z</time>
      </trkpt>
      <trkpt lat="42.6896630" lon="-5.4947760">
        <ele>1053.0</ele>
        <time>2021-08-21T05:18:26Z</time>
      </trkpt>
      <trkpt lat="42.6896820" lon="-5.4947560">
        <ele>1053.0</ele>
        <time>2021-08-21T05:18:27Z</time>
      </trkpt>
      <trkpt lat="42.6896990" lon="-5.4947350">
        <ele>1053.0</ele>
        <time>2021-08-21T05:18:28Z</time>
      </trkpt>
      <trkpt lat="42.6897180" lon="-5.4947150">
        <ele>1053.0</ele>
        <time>2021-08-21T05:18:29Z</time>
      </trkpt>
      <trkpt lat="42.6897380" lon="-5.4946940">
        <ele>1053.0</ele>
        <time>2021-08-21T05:18:30Z</time>
      </trkpt>
      <trkpt lat="42.6897580" lon="-5.4946730">
        <ele>1053.0</ele>
        <time>2021-08-21T05:18:31Z</time>
      </trkpt>
      <trkpt lat="42.6897780" lon="-5.4946520">
        <ele>1053.0</ele>
        <time>2021-08-21T05:18:32Z</time>
      </trkpt>
      <trkpt lat="42.6897970" lon="-5.4946300">
        <ele>1053.0</ele>
        <time>2021-08-21T05:18:33Z</time>
      </trkpt>
      <trkpt lat="42.6898160" lon="-5.4946080">
        <ele>1053.0</ele>
        <time>2021-08-21T05:18:34Z</time>
      </trkpt>
      <trkpt lat="42.6898360" lon="-5.4945860">
        <ele>1054.0</ele>
        <time>2021-08-21T05:18:35Z</time>
      </trkpt>
      <trkpt lat="42.6898560" lon="-5.4945640">
        <ele>1054.0</ele>
        <time>2021-08-21T05:18:36Z</time>
      </trkpt>
      <trkpt lat="42.6898750" lon="-5.4945430">
        <ele>1054.0</ele>
        <time>2021-08-21T05:18:37Z</time>
      </trkpt>
      <trkpt lat="42.6898940" lon="-5.4945210">
        <ele>1054.0</ele>
        <time>2021-08-21T05:18:38Z</time>
      </trkpt>
      <trkpt lat="42.6899210" lon="-5.4944890">
        <ele>1054.0</ele>
        <time>2021-08-21T05:18:39Z</time>
      </trkpt>
      <trkpt lat="42.6899300" lon="-5.4944780">
        <ele>1054.0</ele>
        <time>2021-08-21T05:18:40Z</time>
      </trkpt>
      <trkpt lat="42.6899460" lon="-5.4944570">
        <ele>1054.0</ele>
        <time>2021-08-21T05:18:41Z</time>
      </trkpt>
      <trkpt lat="42.6899640" lon="-5.4944340">
        <ele>1054.0</ele>
        <time>2021-08-21T05:18:42Z</time>
      </trkpt>
      <trkpt lat="42.6899810" lon="-5.4944110">
        <ele>1054.0</ele>
        <time>2021-08-21T05:18:43Z</time>
      </trkpt>
      <trkpt lat="42.6899970" lon="-5.4943900">
        <ele>1054.0</ele>
        <time>2021-08-21T05:18:44Z</time>
      </trkpt>
      <trkpt lat="42.6900140" lon="-5.4943690">
        <ele>1054.0</ele>
        <time>2021-08-21T05:18:45Z</time>
      </trkpt>
      <trkpt lat="42.6900400" lon="-5.4943410">
        <ele>1054.0</ele>
        <time>2021-08-21T05:18:46Z</time>
      </trkpt>
      <trkpt lat="42.6900480" lon="-5.4943300">
        <ele>1054.0</ele>
        <time>2021-08-21T05:18:47Z</time>
      </trkpt>
      <trkpt lat="42.6900640" lon="-5.4943090">
        <ele>1054.0</ele>
        <time>2021-08-21T05:18:48Z</time>
      </trkpt>
      <trkpt lat="42.6900790" lon="-5.4942870">
        <ele>1054.0</ele>
        <time>2021-08-21T05:18:49Z</time>
      </trkpt>
      <trkpt lat="42.6900950" lon="-5.4942660">
        <ele>1054.0</ele>
        <time>2021-08-21T05:18:50Z</time>
      </trkpt>
      <trkpt lat="42.6901100" lon="-5.4942410">
        <ele>1055.0</ele>
        <time>2021-08-21T05:18:51Z</time>
      </trkpt>
      <trkpt lat="42.6901240" lon="-5.4942140">
        <ele>1055.0</ele>
        <time>2021-08-21T05:18:52Z</time>
      </trkpt>
      <trkpt lat="42.6901380" lon="-5.4941880">
        <ele>1055.0</ele>
        <time>2021-08-21T05:18:53Z</time>
      </trkpt>
      <trkpt lat="42.6901530" lon="-5.4941640">
        <ele>1055.0</ele>
        <time>2021-08-21T05:18:54Z</time>
      </trkpt>
      <trkpt lat="42.6901680" lon="-5.4941410">
        <ele>1055.0</ele>
        <time>2021-08-21T05:18:55Z</time>
      </trkpt>
      <trkpt lat="42.6901840" lon="-5.4941180">
        <ele>1055.0</ele>
        <time>2021-08-21T05:18:56Z</time>
      </trkpt>
      <trkpt lat="42.6902000" lon="-5.4940930">
        <ele>1055.0</ele>
        <time>2021-08-21T05:18:57Z</time>
      </trkpt>
      <trkpt lat="42.6902240" lon="-5.4940570">
        <ele>1055.0</ele>
        <time>2021-08-21T05:18:58Z</time>
      </trkpt>
      <trkpt lat="42.6902320" lon="-5.4940450">
        <ele>1055.0</ele>
        <time>2021-08-21T05:18:59Z</time>
      </trkpt>
      <trkpt lat="42.6902480" lon="-5.4940220">
        <ele>1055.0</ele>
        <time>2021-08-21T05:19:00Z</time>
      </trkpt>
      <trkpt lat="42.6902640" lon="-5.4939990">
        <ele>1055.0</ele>
        <time>2021-08-21T05:19:01Z</time>
      </trkpt>
      <trkpt lat="42.6902780" lon="-5.4939750">
        <ele>1055.0</ele>
        <time>2021-08-21T05:19:02Z</time>
      </trkpt>
      <trkpt lat="42.6902920" lon="-5.4939530">
        <ele>1056.0</ele>
        <time>2021-08-21T05:19:03Z</time>
      </trkpt>
      <trkpt lat="42.6903060" lon="-5.4939280">
        <ele>1056.0</ele>
        <time>2021-08-21T05:19:04Z</time>
      </trkpt>
      <trkpt lat="42.6903300" lon="-5.4938920">
        <ele>1056.0</ele>
        <time>2021-08-21T05:19:05Z</time>
      </trkpt>
      <trkpt lat="42.6903370" lon="-5.4938790">
        <ele>1056.0</ele>
        <time>2021-08-21T05:19:06Z</time>
      </trkpt>
      <trkpt lat="42.6903520" lon="-5.4938550">
        <ele>1056.0</ele>
        <time>2021-08-21T05:19:07Z</time>
      </trkpt>
      <trkpt lat="42.6903660" lon="-5.4938310">
        <ele>1056.0</ele>
        <time>2021-08-21T05:19:08Z</time>
      </trkpt>
      <trkpt lat="42.6903800" lon="-5.4938080">
        <ele>1056.0</ele>
        <time>2021-08-21T05:19:09Z</time>
      </trkpt>
      <trkpt lat="42.6903950" lon="-5.4937830">
        <ele>1056.0</ele>
        <time>2021-08-21T05:19:10Z</time>
      </trkpt>
      <trkpt lat="42.6904090" lon="-5.4937600">
        <ele>1056.0</ele>
        <time>2021-08-21T05:19:11Z</time>
      </trkpt>
      <trkpt lat="42.6904250" lon="-5.4937370">
        <ele>1056.0</ele>
        <time>2021-08-21T05:19:12Z</time>
      </trkpt>
      <trkpt lat="42.6904420" lon="-5.4937160">
        <ele>1056.0</ele>
        <time>2021-08-21T05:19:13Z</time>
      </trkpt>
      <trkpt lat="42.6904580" lon="-5.4936940">
        <ele>1056.0</ele>
        <time>2021-08-21T05:19:14Z</time>
      </trkpt>
      <trkpt lat="42.6904740" lon="-5.4936710">
        <ele>1056.0</ele>
        <time>2021-08-21T05:19:15Z</time>
      </trkpt>
      <trkpt lat="42.6904880" lon="-5.4936470">
        <ele>1056.0</ele>
        <time>2021-08-21T05:19:16Z</time>
      </trkpt>
      <trkpt lat="42.6905070" lon="-5.4936120">
        <ele>1056.0</ele>
        <time>2021-08-21T05:19:17Z</time>
      </trkpt>
      <trkpt lat="42.6905130" lon="-5.4936000">
        <ele>1056.0</ele>
        <time>2021-08-21T05:19:18Z</time>
      </trkpt>
      <trkpt lat="42.6905260" lon="-5.4935750">
        <ele>1056.0</ele>
        <time>2021-08-21T05:19:19Z</time>
      </trkpt>
      <trkpt lat="42.6905390" lon="-5.4935500">
        <ele>1056.0</ele>
        <time>2021-08-21T05:19:20Z</time>
      </trkpt>
      <trkpt lat="42.6905530" lon="-5.4935270">
        <ele>1056.0</ele>
        <time>2021-08-21T05:19:21Z</time>
      </trkpt>
      <trkpt lat="42.6905670" lon="-5.4935050">
        <ele>1056.0</ele>
        <time>2021-08-21T05:19:22Z</time>
      </trkpt>
      <trkpt lat="42.6905820" lon="-5.4934850">
        <ele>1056.0</ele>
        <time>2021-08-21T05:19:23Z</time>
      </trkpt>
      <trkpt lat="42.6905950" lon="-5.4934640">
        <ele>1056.0</ele>
        <time>2021-08-21T05:19:24Z</time>
      </trkpt>
      <trkpt lat="42.6906140" lon="-5.4934320">
        <ele>1056.0</ele>
        <time>2021-08-21T05:19:25Z</time>
      </trkpt>
      <trkpt lat="42.6906200" lon="-5.4934210">
        <ele>1056.0</ele>
        <time>2021-08-21T05:19:26Z</time>
      </trkpt>
      <trkpt lat="42.6906330" lon="-5.4933980">
        <ele>1057.0</ele>
        <time>2021-08-21T05:19:27Z</time>
      </trkpt>
      <trkpt lat="42.6906460" lon="-5.4933760">
        <ele>1057.0</ele>
        <time>2021-08-21T05:19:28Z</time>
      </trkpt>
      <trkpt lat="42.6906590" lon="-5.4933540">
        <ele>1057.0</ele>
        <time>2021-08-21T05:19:29Z</time>
      </trkpt>
      <trkpt lat="42.6906720" lon="-5.4933320">
        <ele>1057.0</ele>
        <time>2021-08-21T05:19:30Z</time>
      </trkpt>
      <trkpt lat="42.6906850" lon="-5.4933100">
        <ele>1057.0</ele>
        <time>2021-08-21T05:19:31Z</time>
      </trkpt>
      <trkpt lat="42.6906990" lon="-5.4932890">
        <ele>1057.0</ele>
        <time>2021-08-21T05:19:32Z</time>
      </trkpt>
      <trkpt lat="42.6907120" lon="-5.4932670">
        <ele>1058.0</ele>
        <time>2021-08-21T05:19:33Z</time>
      </trkpt>
      <trkpt lat="42.6907270" lon="-5.4932480">
        <ele>1058.0</ele>
        <time>2021-08-21T05:19:34Z</time>
      </trkpt>
      <trkpt lat="42.6907420" lon="-5.4932300">
        <ele>1058.0</ele>
        <time>2021-08-21T05:19:35Z</time>
      </trkpt>
      <trkpt lat="42.6907580" lon="-5.4932100">
        <ele>1058.0</ele>
        <time>2021-08-21T05:19:36Z</time>
      </trkpt>
      <trkpt lat="42.6907740" lon="-5.4931880">
        <ele>1058.0</ele>
        <time>2021-08-21T05:19:37Z</time>
      </trkpt>
      <trkpt lat="42.6907890" lon="-5.4931650">
        <ele>1058.0</ele>
        <time>2021-08-21T05:19:38Z</time>
      </trkpt>
      <trkpt lat="42.6908120" lon="-5.4931290">
        <ele>1058.0</ele>
        <time>2021-08-21T05:19:39Z</time>
      </trkpt>
      <trkpt lat="42.6908180" lon="-5.4931170">
        <ele>1058.0</ele>
        <time>2021-08-21T05:19:40Z</time>
      </trkpt>
      <trkpt lat="42.6908330" lon="-5.4930930">
        <ele>1058.0</ele>
        <time>2021-08-21T05:19:41Z</time>
      </trkpt>
      <trkpt lat="42.6908480" lon="-5.4930680">
        <ele>1059.0</ele>
        <time>2021-08-21T05:19:42Z</time>
      </trkpt>
      <trkpt lat="42.6908630" lon="-5.4930440">
        <ele>1059.0</ele>
        <time>2021-08-21T05:19:43Z</time>
      </trkpt>
      <trkpt lat="42.6908780" lon="-5.4930180">
        <ele>1059.0</ele>
        <time>2021-08-21T05:19:44Z</time>
      </trkpt>
      <trkpt lat="42.6908910" lon="-5.4929930">
        <ele>1059.0</ele>
        <time>2021-08-21T05:19:45Z</time>
      </trkpt>
      <trkpt lat="42.6909050" lon="-5.4929670">
        <ele>1059.0</ele>
        <time>2021-08-21T05:19:46Z</time>
      </trkpt>
      <trkpt lat="42.6909180" lon="-5.4929430">
        <ele>1059.0</ele>
        <time>2021-08-21T05:19:47Z</time>
      </trkpt>
      <trkpt lat="42.6909380" lon="-5.4929070">
        <ele>1059.0</ele>
        <time>2021-08-21T05:19:48Z</time>
      </trkpt>
      <trkpt lat="42.6909450" lon="-5.4928940">
        <ele>1060.0</ele>
        <time>2021-08-21T05:19:49Z</time>
      </trkpt>
      <trkpt lat="42.6909590" lon="-5.4928690">
        <ele>1060.0</ele>
        <time>2021-08-21T05:19:50Z</time>
      </trkpt>
      <trkpt lat="42.6909730" lon="-5.4928420">
        <ele>1060.0</ele>
        <time>2021-08-21T05:19:51Z</time>
      </trkpt>
      <trkpt lat="42.6909870" lon="-5.4928160">
        <ele>1060.0</ele>
        <time>2021-08-21T05:19:52Z</time>
      </trkpt>
      <trkpt lat="42.6910020" lon="-5.4927880">
        <ele>1060.0</ele>
        <time>2021-08-21T05:19:53Z</time>
      </trkpt>
      <trkpt lat="42.6910150" lon="-5.4927630">
        <ele>1060.0</ele>
        <time>2021-08-21T05:19:54Z</time>
      </trkpt>
      <trkpt lat="42.6910270" lon="-5.4927350">
        <ele>1060.0</ele>
        <time>2021-08-21T05:19:55Z</time>
      </trkpt>
      <trkpt lat="42.6910270" lon="-5.4927350">
        <ele>1060.0</ele>
        <time>2021-08-21T05:19:56Z</time>
      </trkpt>
      <trkpt lat="42.6910480" lon="-5.4926790">
        <ele>1060.0</ele>
        <time>2021-08-21T05:19:57Z</time>
      </trkpt>
      <trkpt lat="42.6910580" lon="-5.4926490">
        <ele>1060.0</ele>
        <time>2021-08-21T05:19:58Z</time>
      </trkpt>
      <trkpt lat="42.6910660" lon="-5.4926190">
        <ele>1060.0</ele>
        <time>2021-08-21T05:19:59Z</time>
      </trkpt>
      <trkpt lat="42.6910760" lon="-5.4925880">
        <ele>1060.0</ele>
        <time>2021-08-21T05:20:00Z</time>
      </trkpt>
      <trkpt lat="42.6910860" lon="-5.4925580">
        <ele>1061.0</ele>
        <time>2021-08-21T05:20:01Z</time>
      </trkpt>
      <trkpt lat="42.6910970" lon="-5.4925300">
        <ele>1061.0</ele>
        <time>2021-08-21T05:20:02Z</time>
      </trkpt>
      <trkpt lat="42.6911130" lon="-5.4924880">
        <ele>1061.0</ele>
        <time>2021-08-21T05:20:03Z</time>
      </trkpt>
      <trkpt lat="42.6911190" lon="-5.4924730">
        <ele>1061.0</ele>
        <time>2021-08-21T05:20:04Z</time>
      </trkpt>
      <trkpt lat="42.6911310" lon="-5.4924460">
        <ele>1061.0</ele>
        <time>2021-08-21T05:20:05Z</time>
      </trkpt>
      <trkpt lat="42.6911420" lon="-5.4924190">
        <ele>1061.0</ele>
        <time>2021-08-21T05:20:06Z</time>
      </trkpt>
      <trkpt lat="42.6911540" lon="-5.4923910">
        <ele>1061.0</ele>
        <time>2021-08-21T05:20:07Z</time>
      </trkpt>
      <trkpt lat="42.6911650" lon="-5.4923640">
        <ele>1061.0</ele>
        <time>2021-08-21T05:20:08Z</time>
      </trkpt>
      <trkpt lat="42.6911820" lon="-5.4923270">
        <ele>1061.0</ele>
        <time>2021-08-21T05:20:09Z</time>
      </trkpt>
      <trkpt lat="42.6911870" lon="-5.4923140">
        <ele>1062.0</ele>
        <time>2021-08-21T05:20:10Z</time>
      </trkpt>
      <trkpt lat="42.6912010" lon="-5.4922910">
        <ele>1062.0</ele>
        <time>2021-08-21T05:20:11Z</time>
      </trkpt>
      <trkpt lat="42.6912150" lon="-5.4922680">
        <ele>1062.0</ele>
        <time>2021-08-21T05:20:12Z</time>
      </trkpt>
      <trkpt lat="42.6912300" lon="-5.4922420">
        <ele>1062.0</ele>
        <time>2021-08-21T05:20:13Z</time>
      </trkpt>
      <trkpt lat="42.6912430" lon="-5.4922160">
        <ele>1062.0</ele>
        <time>2021-08-21T05:20:14Z</time>
      </trkpt>
      <trkpt lat="42.6912570" lon="-5.4921940">
        <ele>1062.0</ele>
        <time>2021-08-21T05:20:15Z</time>
      </trkpt>
      <trkpt lat="42.6912710" lon="-5.4921710">
        <ele>1062.0</ele>
        <time>2021-08-21T05:20:16Z</time>
      </trkpt>
      <trkpt lat="42.6912840" lon="-5.4921500">
        <ele>1062.0</ele>
        <time>2021-08-21T05:20:17Z</time>
      </trkpt>
      <trkpt lat="42.6912970" lon="-5.4921290">
        <ele>1062.0</ele>
        <time>2021-08-21T05:20:18Z</time>
      </trkpt>
      <trkpt lat="42.6913110" lon="-5.4921070">
        <ele>1062.0</ele>
        <time>2021-08-21T05:20:19Z</time>
      </trkpt>
      <trkpt lat="42.6913240" lon="-5.4920840">
        <ele>1063.0</ele>
        <time>2021-08-21T05:20:20Z</time>
      </trkpt>
      <trkpt lat="42.6913380" lon="-5.4920610">
        <ele>1063.0</ele>
        <time>2021-08-21T05:20:21Z</time>
      </trkpt>
      <trkpt lat="42.6913540" lon="-5.4920370">
        <ele>1063.0</ele>
        <time>2021-08-21T05:20:22Z</time>
      </trkpt>
      <trkpt lat="42.6913700" lon="-5.4920120">
        <ele>1063.0</ele>
        <time>2021-08-21T05:20:23Z</time>
      </trkpt>
      <trkpt lat="42.6913860" lon="-5.4919870">
        <ele>1063.0</ele>
        <time>2021-08-21T05:20:24Z</time>
      </trkpt>
      <trkpt lat="42.6914020" lon="-5.4919620">
        <ele>1063.0</ele>
        <time>2021-08-21T05:20:25Z</time>
      </trkpt>
      <trkpt lat="42.6914170" lon="-5.4919370">
        <ele>1063.0</ele>
        <time>2021-08-21T05:20:26Z</time>
      </trkpt>
      <trkpt lat="42.6914320" lon="-5.4919110">
        <ele>1063.0</ele>
        <time>2021-08-21T05:20:27Z</time>
      </trkpt>
      <trkpt lat="42.6914450" lon="-5.4918830">
        <ele>1063.0</ele>
        <time>2021-08-21T05:20:28Z</time>
      </trkpt>
      <trkpt lat="42.6914570" lon="-5.4918560">
        <ele>1063.0</ele>
        <time>2021-08-21T05:20:29Z</time>
      </trkpt>
      <trkpt lat="42.6914830" lon="-5.4918040">
        <ele>1063.0</ele>
        <time>2021-08-21T05:20:30Z</time>
      </trkpt>
      <trkpt lat="42.6914980" lon="-5.4917770">
        <ele>1064.0</ele>
        <time>2021-08-21T05:20:32Z</time>
      </trkpt>
      <trkpt lat="42.6915230" lon="-5.4917410">
        <ele>1064.0</ele>
        <time>2021-08-21T05:20:33Z</time>
      </trkpt>
      <trkpt lat="42.6915310" lon="-5.4917290">
        <ele>1064.0</ele>
        <time>2021-08-21T05:20:34Z</time>
      </trkpt>
      <trkpt lat="42.6915470" lon="-5.4917050">
        <ele>1064.0</ele>
        <time>2021-08-21T05:20:35Z</time>
      </trkpt>
      <trkpt lat="42.6915630" lon="-5.4916830">
        <ele>1064.0</ele>
        <time>2021-08-21T05:20:36Z</time>
      </trkpt>
      <trkpt lat="42.6915780" lon="-5.4916600">
        <ele>1064.0</ele>
        <time>2021-08-21T05:20:37Z</time>
      </trkpt>
      <trkpt lat="42.6915930" lon="-5.4916360">
        <ele>1064.0</ele>
        <time>2021-08-21T05:20:38Z</time>
      </trkpt>
      <trkpt lat="42.6916080" lon="-5.4916130">
        <ele>1064.0</ele>
        <time>2021-08-21T05:20:39Z</time>
      </trkpt>
      <trkpt lat="42.6916250" lon="-5.4915900">
        <ele>1064.0</ele>
        <time>2021-08-21T05:20:40Z</time>
      </trkpt>
      <trkpt lat="42.6916400" lon="-5.4915660">
        <ele>1065.0</ele>
        <time>2021-08-21T05:20:41Z</time>
      </trkpt>
      <trkpt lat="42.6916540" lon="-5.4915410">
        <ele>1065.0</ele>
        <time>2021-08-21T05:20:42Z</time>
      </trkpt>
      <trkpt lat="42.6916700" lon="-5.4915170">
        <ele>1065.0</ele>
        <time>2021-08-21T05:20:43Z</time>
      </trkpt>
      <trkpt lat="42.6916860" lon="-5.4914930">
        <ele>1065.0</ele>
        <time>2021-08-21T05:20:44Z</time>
      </trkpt>
      <trkpt lat="42.6917020" lon="-5.4914680">
        <ele>1065.0</ele>
        <time>2021-08-21T05:20:45Z</time>
      </trkpt>
      <trkpt lat="42.6917170" lon="-5.4914410">
        <ele>1065.0</ele>
        <time>2021-08-21T05:20:46Z</time>
      </trkpt>
      <trkpt lat="42.6917330" lon="-5.4914150">
        <ele>1065.0</ele>
        <time>2021-08-21T05:20:47Z</time>
      </trkpt>
      <trkpt lat="42.6917510" lon="-5.4913890">
        <ele>1066.0</ele>
        <time>2021-08-21T05:20:48Z</time>
      </trkpt>
      <trkpt lat="42.6917690" lon="-5.4913640">
        <ele>1066.0</ele>
        <time>2021-08-21T05:20:49Z</time>
      </trkpt>
      <trkpt lat="42.6917840" lon="-5.4913390">
        <ele>1066.0</ele>
        <time>2021-08-21T05:20:50Z</time>
      </trkpt>
      <trkpt lat="42.6918000" lon="-5.4913150">
        <ele>1066.0</ele>
        <time>2021-08-21T05:20:51Z</time>
      </trkpt>
      <trkpt lat="42.6918160" lon="-5.4912920">
        <ele>1066.0</ele>
        <time>2021-08-21T05:20:52Z</time>
      </trkpt>
      <trkpt lat="42.6918310" lon="-5.4912670">
        <ele>1066.0</ele>
        <time>2021-08-21T05:20:53Z</time>
      </trkpt>
      <trkpt lat="42.6918460" lon="-5.4912440">
        <ele>1067.0</ele>
        <time>2021-08-21T05:20:54Z</time>
      </trkpt>
      <trkpt lat="42.6918610" lon="-5.4912200">
        <ele>1067.0</ele>
        <time>2021-08-21T05:20:55Z</time>
      </trkpt>
      <trkpt lat="42.6918760" lon="-5.4911960">
        <ele>1067.0</ele>
        <time>2021-08-21T05:20:56Z</time>
      </trkpt>
      <trkpt lat="42.6918900" lon="-5.4911700">
        <ele>1067.0</ele>
        <time>2021-08-21T05:20:57Z</time>
      </trkpt>
      <trkpt lat="42.6919060" lon="-5.4911460">
        <ele>1067.0</ele>
        <time>2021-08-21T05:20:58Z</time>
      </trkpt>
      <trkpt lat="42.6919230" lon="-5.4911210">
        <ele>1067.0</ele>
        <time>2021-08-21T05:20:59Z</time>
      </trkpt>
      <trkpt lat="42.6919390" lon="-5.4910960">
        <ele>1067.0</ele>
        <time>2021-08-21T05:21:00Z</time>
      </trkpt>
      <trkpt lat="42.6919530" lon="-5.4910700">
        <ele>1067.0</ele>
        <time>2021-08-21T05:21:01Z</time>
      </trkpt>
      <trkpt lat="42.6919660" lon="-5.4910410">
        <ele>1067.0</ele>
        <time>2021-08-21T05:21:02Z</time>
      </trkpt>
      <trkpt lat="42.6919790" lon="-5.4910130">
        <ele>1067.0</ele>
        <time>2021-08-21T05:21:03Z</time>
      </trkpt>
      <trkpt lat="42.6919970" lon="-5.4909740">
        <ele>1067.0</ele>
        <time>2021-08-21T05:21:04Z</time>
      </trkpt>
      <trkpt lat="42.6920020" lon="-5.4909600">
        <ele>1068.0</ele>
        <time>2021-08-21T05:21:05Z</time>
      </trkpt>
      <trkpt lat="42.6920130" lon="-5.4909340">
        <ele>1068.0</ele>
        <time>2021-08-21T05:21:06Z</time>
      </trkpt>
      <trkpt lat="42.6920250" lon="-5.4909110">
        <ele>1068.0</ele>
        <time>2021-08-21T05:21:07Z</time>
      </trkpt>
      <trkpt lat="42.6920370" lon="-5.4908850">
        <ele>1068.0</ele>
        <time>2021-08-21T05:21:08Z</time>
      </trkpt>
      <trkpt lat="42.6920520" lon="-5.4908580">
        <ele>1068.0</ele>
        <time>2021-08-21T05:21:09Z</time>
      </trkpt>
      <trkpt lat="42.6920640" lon="-5.4908310">
        <ele>1068.0</ele>
        <time>2021-08-21T05:21:10Z</time>
      </trkpt>
      <trkpt lat="42.6920760" lon="-5.4908020">
        <ele>1068.0</ele>
        <time>2021-08-21T05:21:11Z</time>
      </trkpt>
      <trkpt lat="42.6920880" lon="-5.4907730">
        <ele>1068.0</ele>
        <time>2021-08-21T05:21:12Z</time>
      </trkpt>
      <trkpt lat="42.6920980" lon="-5.4907440">
        <ele>1068.0</ele>
        <time>2021-08-21T05:21:13Z</time>
      </trkpt>
      <trkpt lat="42.6921070" lon="-5.4907140">
        <ele>1068.0</ele>
        <time>2021-08-21T05:21:14Z</time>
      </trkpt>
      <trkpt lat="42.6921160" lon="-5.4906830">
        <ele>1068.0</ele>
        <time>2021-08-21T05:21:15Z</time>
      </trkpt>
      <trkpt lat="42.6921240" lon="-5.4906530">
        <ele>1068.0</ele>
        <time>2021-08-21T05:21:16Z</time>
      </trkpt>
      <trkpt lat="42.6921360" lon="-5.4906250">
        <ele>1069.0</ele>
        <time>2021-08-21T05:21:17Z</time>
      </trkpt>
      <trkpt lat="42.6921460" lon="-5.4905960">
        <ele>1069.0</ele>
        <time>2021-08-21T05:21:18Z</time>
      </trkpt>
      <trkpt lat="42.6921590" lon="-5.4905530">
        <ele>1069.0</ele>
        <time>2021-08-21T05:21:19Z</time>
      </trkpt>
      <trkpt lat="42.6921630" lon="-5.4905380">
        <ele>1069.0</ele>
        <time>2021-08-21T05:21:20Z</time>
      </trkpt>
      <trkpt lat="42.6921730" lon="-5.4905080">
        <ele>1069.0</ele>
        <time>2021-08-21T05:21:21Z</time>
      </trkpt>
      <trkpt lat="42.6921840" lon="-5.4904770">
        <ele>1069.0</ele>
        <time>2021-08-21T05:21:22Z</time>
      </trkpt>
      <trkpt lat="42.6921930" lon="-5.4904460">
        <ele>1069.0</ele>
        <time>2021-08-21T05:21:23Z</time>
      </trkpt>
      <trkpt lat="42.6922020" lon="-5.4904160">
        <ele>1069.0</ele>
        <time>2021-08-21T05:21:24Z</time>
      </trkpt>
      <trkpt lat="42.6922100" lon="-5.4903870">
        <ele>1069.0</ele>
        <time>2021-08-21T05:21:25Z</time>
      </trkpt>
      <trkpt lat="42.6922220" lon="-5.4903590">
        <ele>1069.0</ele>
        <time>2021-08-21T05:21:26Z</time>
      </trkpt>
      <trkpt lat="42.6922320" lon="-5.4903330">
        <ele>1069.0</ele>
        <time>2021-08-21T05:21:27Z</time>
      </trkpt>
      <trkpt lat="42.6922430" lon="-5.4903080">
        <ele>1069.0</ele>
        <time>2021-08-21T05:21:28Z</time>
      </trkpt>
      <trkpt lat="42.6922550" lon="-5.4902810">
        <ele>1069.0</ele>
        <time>2021-08-21T05:21:29Z</time>
      </trkpt>
      <trkpt lat="42.6922710" lon="-5.4902390">
        <ele>1069.0</ele>
        <time>2021-08-21T05:21:30Z</time>
      </trkpt>
      <trkpt lat="42.6922760" lon="-5.4902250">
        <ele>1069.0</ele>
        <time>2021-08-21T05:21:31Z</time>
      </trkpt>
      <trkpt lat="42.6922860" lon="-5.4901960">
        <ele>1070.0</ele>
        <time>2021-08-21T05:21:32Z</time>
      </trkpt>
      <trkpt lat="42.6923000" lon="-5.4901510">
        <ele>1070.0</ele>
        <time>2021-08-21T05:21:33Z</time>
      </trkpt>
      <trkpt lat="42.6923050" lon="-5.4901350">
        <ele>1070.0</ele>
        <time>2021-08-21T05:21:34Z</time>
      </trkpt>
      <trkpt lat="42.6923130" lon="-5.4901050">
        <ele>1070.0</ele>
        <time>2021-08-21T05:21:35Z</time>
      </trkpt>
      <trkpt lat="42.6923210" lon="-5.4900740">
        <ele>1070.0</ele>
        <time>2021-08-21T05:21:36Z</time>
      </trkpt>
      <trkpt lat="42.6923290" lon="-5.4900420">
        <ele>1070.0</ele>
        <time>2021-08-21T05:21:37Z</time>
      </trkpt>
      <trkpt lat="42.6923380" lon="-5.4900110">
        <ele>1070.0</ele>
        <time>2021-08-21T05:21:38Z</time>
      </trkpt>
      <trkpt lat="42.6923480" lon="-5.4899800">
        <ele>1070.0</ele>
        <time>2021-08-21T05:21:39Z</time>
      </trkpt>
      <trkpt lat="42.6923580" lon="-5.4899490">
        <ele>1071.0</ele>
        <time>2021-08-21T05:21:40Z</time>
      </trkpt>
      <trkpt lat="42.6923740" lon="-5.4898990">
        <ele>1071.0</ele>
        <time>2021-08-21T05:21:41Z</time>
      </trkpt>
      <trkpt lat="42.6923780" lon="-5.4898820">
        <ele>1071.0</ele>
        <time>2021-08-21T05:21:42Z</time>
      </trkpt>
      <trkpt lat="42.6923870" lon="-5.4898520">
        <ele>1071.0</ele>
        <time>2021-08-21T05:21:43Z</time>
      </trkpt>
      <trkpt lat="42.6923980" lon="-5.4898230">
        <ele>1071.0</ele>
        <time>2021-08-21T05:21:44Z</time>
      </trkpt>
      <trkpt lat="42.6924070" lon="-5.4897920">
        <ele>1071.0</ele>
        <time>2021-08-21T05:21:45Z</time>
      </trkpt>
      <trkpt lat="42.6924160" lon="-5.4897600">
        <ele>1071.0</ele>
        <time>2021-08-21T05:21:46Z</time>
      </trkpt>
      <trkpt lat="42.6924290" lon="-5.4897130">
        <ele>1071.0</ele>
        <time>2021-08-21T05:21:47Z</time>
      </trkpt>
      <trkpt lat="42.6924340" lon="-5.4896970">
        <ele>1071.0</ele>
        <time>2021-08-21T05:21:48Z</time>
      </trkpt>
      <trkpt lat="42.6924510" lon="-5.4896510">
        <ele>1071.0</ele>
        <time>2021-08-21T05:21:49Z</time>
      </trkpt>
      <trkpt lat="42.6924560" lon="-5.4896360">
        <ele>1071.0</ele>
        <time>2021-08-21T05:21:50Z</time>
      </trkpt>
      <trkpt lat="42.6924660" lon="-5.4896060">
        <ele>1071.0</ele>
        <time>2021-08-21T05:21:51Z</time>
      </trkpt>
      <trkpt lat="42.6924820" lon="-5.4895610">
        <ele>1071.0</ele>
        <time>2021-08-21T05:21:52Z</time>
      </trkpt>
      <trkpt lat="42.6924880" lon="-5.4895460">
        <ele>1071.0</ele>
        <time>2021-08-21T05:21:53Z</time>
      </trkpt>
      <trkpt lat="42.6924980" lon="-5.4895160">
        <ele>1071.0</ele>
        <time>2021-08-21T05:21:54Z</time>
      </trkpt>
      <trkpt lat="42.6925120" lon="-5.4894870">
        <ele>1071.0</ele>
        <time>2021-08-21T05:21:55Z</time>
      </trkpt>
      <trkpt lat="42.6925270" lon="-5.4894560">
        <ele>1072.0</ele>
        <time>2021-08-21T05:21:56Z</time>
      </trkpt>
      <trkpt lat="42.6925380" lon="-5.4894240">
        <ele>1072.0</ele>
        <time>2021-08-21T05:21:57Z</time>
      </trkpt>
      <trkpt lat="42.6925530" lon="-5.4893960">
        <ele>1072.0</ele>
        <time>2021-08-21T05:21:58Z</time>
      </trkpt>
      <trkpt lat="42.6925660" lon="-5.4893630">
        <ele>1072.0</ele>
        <time>2021-08-21T05:21:59Z</time>
      </trkpt>
      <trkpt lat="42.6925790" lon="-5.4893330">
        <ele>1072.0</ele>
        <time>2021-08-21T05:22:00Z</time>
      </trkpt>
      <trkpt lat="42.6925930" lon="-5.4893030">
        <ele>1072.0</ele>
        <time>2021-08-21T05:22:01Z</time>
      </trkpt>
      <trkpt lat="42.6926060" lon="-5.4892740">
        <ele>1072.0</ele>
        <time>2021-08-21T05:22:02Z</time>
      </trkpt>
      <trkpt lat="42.6926210" lon="-5.4892470">
        <ele>1072.0</ele>
        <time>2021-08-21T05:22:03Z</time>
      </trkpt>
      <trkpt lat="42.6926360" lon="-5.4892190">
        <ele>1072.0</ele>
        <time>2021-08-21T05:22:04Z</time>
      </trkpt>
      <trkpt lat="42.6926510" lon="-5.4891900">
        <ele>1072.0</ele>
        <time>2021-08-21T05:22:05Z</time>
      </trkpt>
      <trkpt lat="42.6926660" lon="-5.4891620">
        <ele>1072.0</ele>
        <time>2021-08-21T05:22:06Z</time>
      </trkpt>
      <trkpt lat="42.6926800" lon="-5.4891360">
        <ele>1072.0</ele>
        <time>2021-08-21T05:22:07Z</time>
      </trkpt>
      <trkpt lat="42.6926970" lon="-5.4891100">
        <ele>1072.0</ele>
        <time>2021-08-21T05:22:08Z</time>
      </trkpt>
      <trkpt lat="42.6927130" lon="-5.4890850">
        <ele>1072.0</ele>
        <time>2021-08-21T05:22:09Z</time>
      </trkpt>
      <trkpt lat="42.6927300" lon="-5.4890600">
        <ele>1072.0</ele>
        <time>2021-08-21T05:22:10Z</time>
      </trkpt>
      <trkpt lat="42.6927460" lon="-5.4890340">
        <ele>1072.0</ele>
        <time>2021-08-21T05:22:11Z</time>
      </trkpt>
      <trkpt lat="42.6927650" lon="-5.4890090">
        <ele>1073.0</ele>
        <time>2021-08-21T05:22:12Z</time>
      </trkpt>
      <trkpt lat="42.6927810" lon="-5.4889810">
        <ele>1073.0</ele>
        <time>2021-08-21T05:22:13Z</time>
      </trkpt>
      <trkpt lat="42.6927970" lon="-5.4889550">
        <ele>1073.0</ele>
        <time>2021-08-21T05:22:14Z</time>
      </trkpt>
      <trkpt lat="42.6927970" lon="-5.4889550">
        <ele>1073.0</ele>
        <time>2021-08-21T05:22:15Z</time>
      </trkpt>
      <trkpt lat="42.6928300" lon="-5.4889020">
        <ele>1073.0</ele>
        <time>2021-08-21T05:22:16Z</time>
      </trkpt>
      <trkpt lat="42.6928450" lon="-5.4888760">
        <ele>1073.0</ele>
        <time>2021-08-21T05:22:17Z</time>
      </trkpt>
      <trkpt lat="42.6928620" lon="-5.4888510">
        <ele>1073.0</ele>
        <time>2021-08-21T05:22:18Z</time>
      </trkpt>
      <trkpt lat="42.6928800" lon="-5.4888250">
        <ele>1073.0</ele>
        <time>2021-08-21T05:22:19Z</time>
      </trkpt>
      <trkpt lat="42.6928980" lon="-5.4888010">
        <ele>1073.0</ele>
        <time>2021-08-21T05:22:20Z</time>
      </trkpt>
      <trkpt lat="42.6929160" lon="-5.4887810">
        <ele>1073.0</ele>
        <time>2021-08-21T05:22:21Z</time>
      </trkpt>
      <trkpt lat="42.6929340" lon="-5.4887560">
        <ele>1073.0</ele>
        <time>2021-08-21T05:22:22Z</time>
      </trkpt>
      <trkpt lat="42.6929520" lon="-5.4887340">
        <ele>1073.0</ele>
        <time>2021-08-21T05:22:23Z</time>
      </trkpt>
      <trkpt lat="42.6929700" lon="-5.4887110">
        <ele>1073.0</ele>
        <time>2021-08-21T05:22:24Z</time>
      </trkpt>
      <trkpt lat="42.6929860" lon="-5.4886890">
        <ele>1074.0</ele>
        <time>2021-08-21T05:22:25Z</time>
      </trkpt>
      <trkpt lat="42.6930040" lon="-5.4886690">
        <ele>1074.0</ele>
        <time>2021-08-21T05:22:26Z</time>
      </trkpt>
      <trkpt lat="42.6930230" lon="-5.4886470">
        <ele>1074.0</ele>
        <time>2021-08-21T05:22:27Z</time>
      </trkpt>
      <trkpt lat="42.6930420" lon="-5.4886280">
        <ele>1074.0</ele>
        <time>2021-08-21T05:22:28Z</time>
      </trkpt>
      <trkpt lat="42.6930610" lon="-5.4886080">
        <ele>1074.0</ele>
        <time>2021-08-21T05:22:29Z</time>
      </trkpt>
      <trkpt lat="42.6930800" lon="-5.4885870">
        <ele>1074.0</ele>
        <time>2021-08-21T05:22:30Z</time>
      </trkpt>
      <trkpt lat="42.6931000" lon="-5.4885680">
        <ele>1074.0</ele>
        <time>2021-08-21T05:22:31Z</time>
      </trkpt>
      <trkpt lat="42.6931180" lon="-5.4885480">
        <ele>1074.0</ele>
        <time>2021-08-21T05:22:32Z</time>
      </trkpt>
      <trkpt lat="42.6931380" lon="-5.4885270">
        <ele>1074.0</ele>
        <time>2021-08-21T05:22:33Z</time>
      </trkpt>
      <trkpt lat="42.6931580" lon="-5.4885080">
        <ele>1074.0</ele>
        <time>2021-08-21T05:22:34Z</time>
      </trkpt>
      <trkpt lat="42.6931830" lon="-5.4884770">
        <ele>1074.0</ele>
        <time>2021-08-21T05:22:35Z</time>
      </trkpt>
      <trkpt lat="42.6931920" lon="-5.4884650">
        <ele>1074.0</ele>
        <time>2021-08-21T05:22:36Z</time>
      </trkpt>
      <trkpt lat="42.6932100" lon="-5.4884430">
        <ele>1074.0</ele>
        <time>2021-08-21T05:22:37Z</time>
      </trkpt>
      <trkpt lat="42.6932260" lon="-5.4884210">
        <ele>1074.0</ele>
        <time>2021-08-21T05:22:38Z</time>
      </trkpt>
      <trkpt lat="42.6932460" lon="-5.4884000">
        <ele>1074.0</ele>
        <time>2021-08-21T05:22:39Z</time>
      </trkpt>
      <trkpt lat="42.6932690" lon="-5.4883790">
        <ele>1074.0</ele>
        <time>2021-08-21T05:22:40Z</time>
      </trkpt>
      <trkpt lat="42.6933000" lon="-5.4883470">
        <ele>1074.0</ele>
        <time>2021-08-21T05:22:41Z</time>
      </trkpt>
      <trkpt lat="42.6933100" lon="-5.4883370">
        <ele>1074.0</ele>
        <time>2021-08-21T05:22:42Z</time>
      </trkpt>
      <trkpt lat="42.6933430" lon="-5.4883090">
        <ele>1074.0</ele>
        <time>2021-08-21T05:22:43Z</time>
      </trkpt>
      <trkpt lat="42.6933540" lon="-5.4883010">
        <ele>1074.0</ele>
        <time>2021-08-21T05:22:44Z</time>
      </trkpt>
      <trkpt lat="42.6933760" lon="-5.4882830">
        <ele>1074.0</ele>
        <time>2021-08-21T05:22:45Z</time>
      </trkpt>
      <trkpt lat="42.6934100" lon="-5.4882560">
        <ele>1074.0</ele>
        <time>2021-08-21T05:22:46Z</time>
      </trkpt>
      <trkpt lat="42.6934210" lon="-5.4882470">
        <ele>1075.0</ele>
        <time>2021-08-21T05:22:47Z</time>
      </trkpt>
      <trkpt lat="42.6934450" lon="-5.4882290">
        <ele>1075.0</ele>
        <time>2021-08-21T05:22:48Z</time>
      </trkpt>
      <trkpt lat="42.6934680" lon="-5.4882120">
        <ele>1075.0</ele>
        <time>2021-08-21T05:22:49Z</time>
      </trkpt>
      <trkpt lat="42.6934890" lon="-5.4881950">
        <ele>1075.0</ele>
        <time>2021-08-21T05:22:50Z</time>
      </trkpt>
      <trkpt lat="42.6935130" lon="-5.4881800">
        <ele>1075.0</ele>
        <time>2021-08-21T05:22:51Z</time>
      </trkpt>
      <trkpt lat="42.6935360" lon="-5.4881660">
        <ele>1075.0</ele>
        <time>2021-08-21T05:22:52Z</time>
      </trkpt>
      <trkpt lat="42.6935600" lon="-5.4881530">
        <ele>1075.0</ele>
        <time>2021-08-21T05:22:53Z</time>
      </trkpt>
      <trkpt lat="42.6935820" lon="-5.4881370">
        <ele>1075.0</ele>
        <time>2021-08-21T05:22:54Z</time>
      </trkpt>
      <trkpt lat="42.6936040" lon="-5.4881230">
        <ele>1075.0</ele>
        <time>2021-08-21T05:22:55Z</time>
      </trkpt>
      <trkpt lat="42.6936260" lon="-5.4881080">
        <ele>1075.0</ele>
        <time>2021-08-21T05:22:56Z</time>
      </trkpt>
      <trkpt lat="42.6936470" lon="-5.4880940">
        <ele>1075.0</ele>
        <time>2021-08-21T05:22:57Z</time>
      </trkpt>
      <trkpt lat="42.6936700" lon="-5.4880800">
        <ele>1075.0</ele>
        <time>2021-08-21T05:22:58Z</time>
      </trkpt>
      <trkpt lat="42.6936910" lon="-5.4880660">
        <ele>1076.0</ele>
        <time>2021-08-21T05:22:59Z</time>
      </trkpt>
      <trkpt lat="42.6937230" lon="-5.4880450">
        <ele>1076.0</ele>
        <time>2021-08-21T05:23:00Z</time>
      </trkpt>
      <trkpt lat="42.6937340" lon="-5.4880370">
        <ele>1076.0</ele>
        <time>2021-08-21T05:23:01Z</time>
      </trkpt>
      <trkpt lat="42.6937570" lon="-5.4880210">
        <ele>1076.0</ele>
        <time>2021-08-21T05:23:02Z</time>
      </trkpt>
      <trkpt lat="42.6937920" lon="-5.4880020">
        <ele>1076.0</ele>
        <time>2021-08-21T05:23:03Z</time>
      </trkpt>
      <trkpt lat="42.6938030" lon="-5.4879950">
        <ele>1076.0</ele>
        <time>2021-08-21T05:23:04Z</time>
      </trkpt>
      <trkpt lat="42.6938370" lon="-5.4879750">
        <ele>1076.0</ele>
        <time>2021-08-21T05:23:05Z</time>
      </trkpt>
      <trkpt lat="42.6938480" lon="-5.4879680">
        <ele>1076.0</ele>
        <time>2021-08-21T05:23:06Z</time>
      </trkpt>
      <trkpt lat="42.6938710" lon="-5.4879540">
        <ele>1076.0</ele>
        <time>2021-08-21T05:23:07Z</time>
      </trkpt>
      <trkpt lat="42.6938940" lon="-5.4879410">
        <ele>1076.0</ele>
        <time>2021-08-21T05:23:08Z</time>
      </trkpt>
      <trkpt lat="42.6939160" lon="-5.4879290">
        <ele>1076.0</ele>
        <time>2021-08-21T05:23:09Z</time>
      </trkpt>
      <trkpt lat="42.6939380" lon="-5.4879160">
        <ele>1076.0</ele>
        <time>2021-08-21T05:23:10Z</time>
      </trkpt>
      <trkpt lat="42.6939600" lon="-5.4879020">
        <ele>1076.0</ele>
        <time>2021-08-21T05:23:11Z</time>
      </trkpt>
      <trkpt lat="42.6939830" lon="-5.4878880">
        <ele>1076.0</ele>
        <time>2021-08-21T05:23:12Z</time>
      </trkpt>
      <trkpt lat="42.6940050" lon="-5.4878750">
        <ele>1076.0</ele>
        <time>2021-08-21T05:23:13Z</time>
      </trkpt>
      <trkpt lat="42.6940310" lon="-5.4878620">
        <ele>1076.0</ele>
        <time>2021-08-21T05:23:14Z</time>
      </trkpt>
      <trkpt lat="42.6940540" lon="-5.4878480">
        <ele>1076.0</ele>
        <time>2021-08-21T05:23:15Z</time>
      </trkpt>
      <trkpt lat="42.6940770" lon="-5.4878320">
        <ele>1076.0</ele>
        <time>2021-08-21T05:23:16Z</time>
      </trkpt>
      <trkpt lat="42.6941090" lon="-5.4878110">
        <ele>1076.0</ele>
        <time>2021-08-21T05:23:17Z</time>
      </trkpt>
      <trkpt lat="42.6941200" lon="-5.4878040">
        <ele>1076.0</ele>
        <time>2021-08-21T05:23:18Z</time>
      </trkpt>
      <trkpt lat="42.6941430" lon="-5.4877900">
        <ele>1077.0</ele>
        <time>2021-08-21T05:23:19Z</time>
      </trkpt>
      <trkpt lat="42.6941650" lon="-5.4877770">
        <ele>1077.0</ele>
        <time>2021-08-21T05:23:20Z</time>
      </trkpt>
      <trkpt lat="42.6941870" lon="-5.4877670">
        <ele>1077.0</ele>
        <time>2021-08-21T05:23:21Z</time>
      </trkpt>
      <trkpt lat="42.6942100" lon="-5.4877550">
        <ele>1077.0</ele>
        <time>2021-08-21T05:23:22Z</time>
      </trkpt>
      <trkpt lat="42.6942350" lon="-5.4877420">
        <ele>1077.0</ele>
        <time>2021-08-21T05:23:23Z</time>
      </trkpt>
      <trkpt lat="42.6942700" lon="-5.4877210">
        <ele>1077.0</ele>
        <time>2021-08-21T05:23:24Z</time>
      </trkpt>
      <trkpt lat="42.6942820" lon="-5.4877140">
        <ele>1077.0</ele>
        <time>2021-08-21T05:23:25Z</time>
      </trkpt>
      <trkpt lat="42.6943060" lon="-5.4876990">
        <ele>1077.0</ele>
        <time>2021-08-21T05:23:26Z</time>
      </trkpt>
      <trkpt lat="42.6943310" lon="-5.4876850">
        <ele>1077.0</ele>
        <time>2021-08-21T05:23:27Z</time>
      </trkpt>
      <trkpt lat="42.6943570" lon="-5.4876700">
        <ele>1077.0</ele>
        <time>2021-08-21T05:23:28Z</time>
      </trkpt>
      <trkpt lat="42.6943810" lon="-5.4876540">
        <ele>1077.0</ele>
        <time>2021-08-21T05:23:29Z</time>
      </trkpt>
      <trkpt lat="42.6944050" lon="-5.4876400">
        <ele>1077.0</ele>
        <time>2021-08-21T05:23:30Z</time>
      </trkpt>
      <trkpt lat="42.6944300" lon="-5.4876250">
        <ele>1077.0</ele>
        <time>2021-08-21T05:23:31Z</time>
      </trkpt>
      <trkpt lat="42.6944660" lon="-5.4876060">
        <ele>1077.0</ele>
        <time>2021-08-21T05:23:32Z</time>
      </trkpt>
      <trkpt lat="42.6944780" lon="-5.4875990">
        <ele>1077.0</ele>
        <time>2021-08-21T05:23:33Z</time>
      </trkpt>
      <trkpt lat="42.6945020" lon="-5.4875870">
        <ele>1077.0</ele>
        <time>2021-08-21T05:23:34Z</time>
      </trkpt>
      <trkpt lat="42.6945500" lon="-5.4875620">
        <ele>1077.0</ele>
        <time>2021-08-21T05:23:35Z</time>
      </trkpt>
      <trkpt lat="42.6945740" lon="-5.4875470">
        <ele>1077.0</ele>
        <time>2021-08-21T05:23:37Z</time>
      </trkpt>
      <trkpt lat="42.6945980" lon="-5.4875310">
        <ele>1077.0</ele>
        <time>2021-08-21T05:23:38Z</time>
      </trkpt>
      <trkpt lat="42.6946210" lon="-5.4875170">
        <ele>1077.0</ele>
        <time>2021-08-21T05:23:39Z</time>
      </trkpt>
      <trkpt lat="42.6946440" lon="-5.4875020">
        <ele>1077.0</ele>
        <time>2021-08-21T05:23:40Z</time>
      </trkpt>
      <trkpt lat="42.6946670" lon="-5.4874880">
        <ele>1077.0</ele>
        <time>2021-08-21T05:23:41Z</time>
      </trkpt>
      <trkpt lat="42.6946910" lon="-5.4874720">
        <ele>1077.0</ele>
        <time>2021-08-21T05:23:42Z</time>
      </trkpt>
      <trkpt lat="42.6947260" lon="-5.4874500">
        <ele>1077.0</ele>
        <time>2021-08-21T05:23:43Z</time>
      </trkpt>
      <trkpt lat="42.6947380" lon="-5.4874430">
        <ele>1077.0</ele>
        <time>2021-08-21T05:23:44Z</time>
      </trkpt>
      <trkpt lat="42.6947630" lon="-5.4874300">
        <ele>1077.0</ele>
        <time>2021-08-21T05:23:45Z</time>
      </trkpt>
      <trkpt lat="42.6948020" lon="-5.4874110">
        <ele>1077.0</ele>
        <time>2021-08-21T05:23:46Z</time>
      </trkpt>
      <trkpt lat="42.6948150" lon="-5.4874040">
        <ele>1077.0</ele>
        <time>2021-08-21T05:23:47Z</time>
      </trkpt>
      <trkpt lat="42.6948400" lon="-5.4873890">
        <ele>1078.0</ele>
        <time>2021-08-21T05:23:48Z</time>
      </trkpt>
      <trkpt lat="42.6948670" lon="-5.4873750">
        <ele>1078.0</ele>
        <time>2021-08-21T05:23:49Z</time>
      </trkpt>
      <trkpt lat="42.6948920" lon="-5.4873620">
        <ele>1078.0</ele>
        <time>2021-08-21T05:23:50Z</time>
      </trkpt>
      <trkpt lat="42.6949300" lon="-5.4873440">
        <ele>1078.0</ele>
        <time>2021-08-21T05:23:51Z</time>
      </trkpt>
      <trkpt lat="42.6949420" lon="-5.4873370">
        <ele>1078.0</ele>
        <time>2021-08-21T05:23:52Z</time>
      </trkpt>
      <trkpt lat="42.6949670" lon="-5.4873230">
        <ele>1078.0</ele>
        <time>2021-08-21T05:23:53Z</time>
      </trkpt>
      <trkpt lat="42.6949920" lon="-5.4873090">
        <ele>1078.0</ele>
        <time>2021-08-21T05:23:54Z</time>
      </trkpt>
      <trkpt lat="42.6950180" lon="-5.4872960">
        <ele>1078.0</ele>
        <time>2021-08-21T05:23:55Z</time>
      </trkpt>
      <trkpt lat="42.6950420" lon="-5.4872830">
        <ele>1078.0</ele>
        <time>2021-08-21T05:23:56Z</time>
      </trkpt>
      <trkpt lat="42.6950640" lon="-5.4872710">
        <ele>1078.0</ele>
        <time>2021-08-21T05:23:57Z</time>
      </trkpt>
      <trkpt lat="42.6950870" lon="-5.4872580">
        <ele>1078.0</ele>
        <time>2021-08-21T05:23:58Z</time>
      </trkpt>
      <trkpt lat="42.6951120" lon="-5.4872450">
        <ele>1078.0</ele>
        <time>2021-08-21T05:23:59Z</time>
      </trkpt>
      <trkpt lat="42.6951340" lon="-5.4872330">
        <ele>1078.0</ele>
        <time>2021-08-21T05:24:00Z</time>
      </trkpt>
      <trkpt lat="42.6951570" lon="-5.4872200">
        <ele>1078.0</ele>
        <time>2021-08-21T05:24:01Z</time>
      </trkpt>
      <trkpt lat="42.6951800" lon="-5.4872070">
        <ele>1078.0</ele>
        <time>2021-08-21T05:24:02Z</time>
      </trkpt>
      <trkpt lat="42.6952040" lon="-5.4871940">
        <ele>1079.0</ele>
        <time>2021-08-21T05:24:03Z</time>
      </trkpt>
      <trkpt lat="42.6952260" lon="-5.4871810">
        <ele>1079.0</ele>
        <time>2021-08-21T05:24:04Z</time>
      </trkpt>
      <trkpt lat="42.6952510" lon="-5.4871680">
        <ele>1078.0</ele>
        <time>2021-08-21T05:24:05Z</time>
      </trkpt>
      <trkpt lat="42.6952750" lon="-5.4871560">
        <ele>1078.0</ele>
        <time>2021-08-21T05:24:06Z</time>
      </trkpt>
      <trkpt lat="42.6953000" lon="-5.4871430">
        <ele>1078.0</ele>
        <time>2021-08-21T05:24:07Z</time>
      </trkpt>
      <trkpt lat="42.6953240" lon="-5.4871290">
        <ele>1078.0</ele>
        <time>2021-08-21T05:24:08Z</time>
      </trkpt>
      <trkpt lat="42.6953520" lon="-5.4871160">
        <ele>1078.0</ele>
        <time>2021-08-21T05:24:09Z</time>
      </trkpt>
      <trkpt lat="42.6953790" lon="-5.4871040">
        <ele>1078.0</ele>
        <time>2021-08-21T05:24:10Z</time>
      </trkpt>
      <trkpt lat="42.6954040" lon="-5.4870930">
        <ele>1078.0</ele>
        <time>2021-08-21T05:24:11Z</time>
      </trkpt>
      <trkpt lat="42.6954400" lon="-5.4870770">
        <ele>1078.0</ele>
        <time>2021-08-21T05:24:12Z</time>
      </trkpt>
      <trkpt lat="42.6954520" lon="-5.4870710">
        <ele>1079.0</ele>
        <time>2021-08-21T05:24:13Z</time>
      </trkpt>
      <trkpt lat="42.6954760" lon="-5.4870590">
        <ele>1079.0</ele>
        <time>2021-08-21T05:24:14Z</time>
      </trkpt>
      <trkpt lat="42.6955000" lon="-5.4870480">
        <ele>1079.0</ele>
        <time>2021-08-21T05:24:15Z</time>
      </trkpt>
      <trkpt lat="42.6955250" lon="-5.4870390">
        <ele>1078.0</ele>
        <time>2021-08-21T05:24:16Z</time>
      </trkpt>
      <trkpt lat="42.6955510" lon="-5.4870320">
        <ele>1078.0</ele>
        <time>2021-08-21T05:24:17Z</time>
      </trkpt>
      <trkpt lat="42.6955770" lon="-5.4870240">
        <ele>1078.0</ele>
        <time>2021-08-21T05:24:18Z</time>
      </trkpt>
      <trkpt lat="42.6956020" lon="-5.4870160">
        <ele>1078.0</ele>
        <time>2021-08-21T05:24:19Z</time>
      </trkpt>
      <trkpt lat="42.6956280" lon="-5.4870090">
        <ele>1078.0</ele>
        <time>2021-08-21T05:24:20Z</time>
      </trkpt>
      <trkpt lat="42.6956550" lon="-5.4870010">
        <ele>1078.0</ele>
        <time>2021-08-21T05:24:21Z</time>
      </trkpt>
      <trkpt lat="42.6956780" lon="-5.4869930">
        <ele>1078.0</ele>
        <time>2021-08-21T05:24:22Z</time>
      </trkpt>
      <trkpt lat="42.6957160" lon="-5.4869790">
        <ele>1078.0</ele>
        <time>2021-08-21T05:24:23Z</time>
      </trkpt>
      <trkpt lat="42.6957290" lon="-5.4869740">
        <ele>1078.0</ele>
        <time>2021-08-21T05:24:24Z</time>
      </trkpt>
      <trkpt lat="42.6957530" lon="-5.4869670">
        <ele>1078.0</ele>
        <time>2021-08-21T05:24:25Z</time>
      </trkpt>
      <trkpt lat="42.6957770" lon="-5.4869600">
        <ele>1078.0</ele>
        <time>2021-08-21T05:24:26Z</time>
      </trkpt>
      <trkpt lat="42.6958020" lon="-5.4869540">
        <ele>1078.0</ele>
        <time>2021-08-21T05:24:27Z</time>
      </trkpt>
      <trkpt lat="42.6958270" lon="-5.4869470">
        <ele>1078.0</ele>
        <time>2021-08-21T05:24:28Z</time>
      </trkpt>
      <trkpt lat="42.6958530" lon="-5.4869400">
        <ele>1078.0</ele>
        <time>2021-08-21T05:24:29Z</time>
      </trkpt>
      <trkpt lat="42.6958810" lon="-5.4869320">
        <ele>1078.0</ele>
        <time>2021-08-21T05:24:30Z</time>
      </trkpt>
      <trkpt lat="42.6959070" lon="-5.4869250">
        <ele>1078.0</ele>
        <time>2021-08-21T05:24:31Z</time>
      </trkpt>
      <trkpt lat="42.6959330" lon="-5.4869210">
        <ele>1078.0</ele>
        <time>2021-08-21T05:24:32Z</time>
      </trkpt>
      <trkpt lat="42.6959590" lon="-5.4869160">
        <ele>1078.0</ele>
        <time>2021-08-21T05:24:33Z</time>
      </trkpt>
      <trkpt lat="42.6959860" lon="-5.4869110">
        <ele>1078.0</ele>
        <time>2021-08-21T05:24:34Z</time>
      </trkpt>
      <trkpt lat="42.6960130" lon="-5.4869070">
        <ele>1078.0</ele>
        <time>2021-08-21T05:24:35Z</time>
      </trkpt>
      <trkpt lat="42.6960550" lon="-5.4869010">
        <ele>1078.0</ele>
        <time>2021-08-21T05:24:36Z</time>
      </trkpt>
      <trkpt lat="42.6960690" lon="-5.4868990">
        <ele>1078.0</ele>
        <time>2021-08-21T05:24:37Z</time>
      </trkpt>
      <trkpt lat="42.6960970" lon="-5.4868970">
        <ele>1078.0</ele>
        <time>2021-08-21T05:24:38Z</time>
      </trkpt>
      <trkpt lat="42.6961260" lon="-5.4868960">
        <ele>1078.0</ele>
        <time>2021-08-21T05:24:39Z</time>
      </trkpt>
      <trkpt lat="42.6961540" lon="-5.4868940">
        <ele>1078.0</ele>
        <time>2021-08-21T05:24:40Z</time>
      </trkpt>
      <trkpt lat="42.6961540" lon="-5.4868940">
        <ele>1078.0</ele>
        <time>2021-08-21T05:24:41Z</time>
      </trkpt>
      <trkpt lat="42.6962100" lon="-5.4868870">
        <ele>1078.0</ele>
        <time>2021-08-21T05:24:42Z</time>
      </trkpt>
      <trkpt lat="42.6962370" lon="-5.4868860">
        <ele>1078.0</ele>
        <time>2021-08-21T05:24:43Z</time>
      </trkpt>
      <trkpt lat="42.6962610" lon="-5.4868860">
        <ele>1078.0</ele>
        <time>2021-08-21T05:24:44Z</time>
      </trkpt>
      <trkpt lat="42.6962890" lon="-5.4868850">
        <ele>1078.0</ele>
        <time>2021-08-21T05:24:45Z</time>
      </trkpt>
      <trkpt lat="42.6963170" lon="-5.4868820">
        <ele>1078.0</ele>
        <time>2021-08-21T05:24:46Z</time>
      </trkpt>
      <trkpt lat="42.6963440" lon="-5.4868790">
        <ele>1078.0</ele>
        <time>2021-08-21T05:24:47Z</time>
      </trkpt>
      <trkpt lat="42.6963710" lon="-5.4868750">
        <ele>1078.0</ele>
        <time>2021-08-21T05:24:48Z</time>
      </trkpt>
      <trkpt lat="42.6963970" lon="-5.4868720">
        <ele>1078.0</ele>
        <time>2021-08-21T05:24:49Z</time>
      </trkpt>
      <trkpt lat="42.6964380" lon="-5.4868690">
        <ele>1078.0</ele>
        <time>2021-08-21T05:24:50Z</time>
      </trkpt>
      <trkpt lat="42.6964510" lon="-5.4868670">
        <ele>1078.0</ele>
        <time>2021-08-21T05:24:51Z</time>
      </trkpt>
      <trkpt lat="42.6964790" lon="-5.4868630">
        <ele>1078.0</ele>
        <time>2021-08-21T05:24:52Z</time>
      </trkpt>
      <trkpt lat="42.6965050" lon="-5.4868580">
        <ele>1078.0</ele>
        <time>2021-08-21T05:24:53Z</time>
      </trkpt>
      <trkpt lat="42.6965330" lon="-5.4868520">
        <ele>1078.0</ele>
        <time>2021-08-21T05:24:54Z</time>
      </trkpt>
      <trkpt lat="42.6965580" lon="-5.4868490">
        <ele>1078.0</ele>
        <time>2021-08-21T05:24:55Z</time>
      </trkpt>
      <trkpt lat="42.6965850" lon="-5.4868480">
        <ele>1078.0</ele>
        <time>2021-08-21T05:24:56Z</time>
      </trkpt>
      <trkpt lat="42.6966260" lon="-5.4868480">
        <ele>1078.0</ele>
        <time>2021-08-21T05:24:57Z</time>
      </trkpt>
      <trkpt lat="42.6966390" lon="-5.4868480">
        <ele>1078.0</ele>
        <time>2021-08-21T05:24:58Z</time>
      </trkpt>
      <trkpt lat="42.6966800" lon="-5.4868510">
        <ele>1078.0</ele>
        <time>2021-08-21T05:24:59Z</time>
      </trkpt>
      <trkpt lat="42.6966930" lon="-5.4868530">
        <ele>1078.0</ele>
        <time>2021-08-21T05:25:00Z</time>
      </trkpt>
      <trkpt lat="42.6967190" lon="-5.4868550">
        <ele>1078.0</ele>
        <time>2021-08-21T05:25:01Z</time>
      </trkpt>
      <trkpt lat="42.6967450" lon="-5.4868550">
        <ele>1078.0</ele>
        <time>2021-08-21T05:25:02Z</time>
      </trkpt>
      <trkpt lat="42.6967710" lon="-5.4868530">
        <ele>1078.0</ele>
        <time>2021-08-21T05:25:03Z</time>
      </trkpt>
      <trkpt lat="42.6967970" lon="-5.4868530">
        <ele>1078.0</ele>
        <time>2021-08-21T05:25:04Z</time>
      </trkpt>
      <trkpt lat="42.6968240" lon="-5.4868510">
        <ele>1078.0</ele>
        <time>2021-08-21T05:25:05Z</time>
      </trkpt>
      <trkpt lat="42.6968510" lon="-5.4868540">
        <ele>1078.0</ele>
        <time>2021-08-21T05:25:06Z</time>
      </trkpt>
      <trkpt lat="42.6968780" lon="-5.4868600">
        <ele>1078.0</ele>
        <time>2021-08-21T05:25:07Z</time>
      </trkpt>
      <trkpt lat="42.6969040" lon="-5.4868640">
        <ele>1078.0</ele>
        <time>2021-08-21T05:25:08Z</time>
      </trkpt>
      <trkpt lat="42.6969300" lon="-5.4868710">
        <ele>1079.0</ele>
        <time>2021-08-21T05:25:09Z</time>
      </trkpt>
      <trkpt lat="42.6969540" lon="-5.4868800">
        <ele>1079.0</ele>
        <time>2021-08-21T05:25:10Z</time>
      </trkpt>
      <trkpt lat="42.6969810" lon="-5.4868860">
        <ele>1079.0</ele>
        <time>2021-08-21T05:25:11Z</time>
      </trkpt>
      <trkpt lat="42.6970050" lon="-5.4868930">
        <ele>1079.0</ele>
        <time>2021-08-21T05:25:12Z</time>
      </trkpt>
      <trkpt lat="42.6970310" lon="-5.4869000">
        <ele>1079.0</ele>
        <time>2021-08-21T05:25:13Z</time>
      </trkpt>
      <trkpt lat="42.6970700" lon="-5.4869060">
        <ele>1079.0</ele>
        <time>2021-08-21T05:25:14Z</time>
      </trkpt>
      <trkpt lat="42.6970830" lon="-5.4869080">
        <ele>1079.0</ele>
        <time>2021-08-21T05:25:15Z</time>
      </trkpt>
      <trkpt lat="42.6971070" lon="-5.4869140">
        <ele>1079.0</ele>
        <time>2021-08-21T05:25:16Z</time>
      </trkpt>
      <trkpt lat="42.6971340" lon="-5.4869190">
        <ele>1079.0</ele>
        <time>2021-08-21T05:25:17Z</time>
      </trkpt>
      <trkpt lat="42.6971590" lon="-5.4869240">
        <ele>1079.0</ele>
        <time>2021-08-21T05:25:18Z</time>
      </trkpt>
      <trkpt lat="42.6971840" lon="-5.4869270">
        <ele>1080.0</ele>
        <time>2021-08-21T05:25:19Z</time>
      </trkpt>
      <trkpt lat="42.6972090" lon="-5.4869330">
        <ele>1080.0</ele>
        <time>2021-08-21T05:25:20Z</time>
      </trkpt>
      <trkpt lat="42.6972340" lon="-5.4869370">
        <ele>1080.0</ele>
        <time>2021-08-21T05:25:21Z</time>
      </trkpt>
      <trkpt lat="42.6972600" lon="-5.4869400">
        <ele>1080.0</ele>
        <time>2021-08-21T05:25:22Z</time>
      </trkpt>
      <trkpt lat="42.6972840" lon="-5.4869420">
        <ele>1080.0</ele>
        <time>2021-08-21T05:25:23Z</time>
      </trkpt>
      <trkpt lat="42.6973200" lon="-5.4869480">
        <ele>1080.0</ele>
        <time>2021-08-21T05:25:24Z</time>
      </trkpt>
      <trkpt lat="42.6973310" lon="-5.4869500">
        <ele>1080.0</ele>
        <time>2021-08-21T05:25:25Z</time>
      </trkpt>
      <trkpt lat="42.6973550" lon="-5.4869540">
        <ele>1079.0</ele>
        <time>2021-08-21T05:25:26Z</time>
      </trkpt>
      <trkpt lat="42.6973810" lon="-5.4869600">
        <ele>1079.0</ele>
        <time>2021-08-21T05:25:27Z</time>
      </trkpt>
      <trkpt lat="42.6974170" lon="-5.4869690">
        <ele>1079.0</ele>
        <time>2021-08-21T05:25:28Z</time>
      </trkpt>
      <trkpt lat="42.6974290" lon="-5.4869720">
        <ele>1079.0</ele>
        <time>2021-08-21T05:25:29Z</time>
      </trkpt>
      <trkpt lat="42.6974530" lon="-5.4869770">
        <ele>1079.0</ele>
        <time>2021-08-21T05:25:30Z</time>
      </trkpt>
      <trkpt lat="42.6974770" lon="-5.4869840">
        <ele>1080.0</ele>
        <time>2021-08-21T05:25:31Z</time>
      </trkpt>
      <trkpt lat="42.6975140" lon="-5.4869920">
        <ele>1080.0</ele>
        <time>2021-08-21T05:25:32Z</time>
      </trkpt>
      <trkpt lat="42.6975270" lon="-5.4869950">
        <ele>1080.0</ele>
        <time>2021-08-21T05:25:33Z</time>
      </trkpt>
      <trkpt lat="42.6975520" lon="-5.4870000">
        <ele>1080.0</ele>
        <time>2021-08-21T05:25:34Z</time>
      </trkpt>
      <trkpt lat="42.6975910" lon="-5.4870090">
        <ele>1080.0</ele>
        <time>2021-08-21T05:25:35Z</time>
      </trkpt>
      <trkpt lat="42.6976030" lon="-5.4870120">
        <ele>1080.0</ele>
        <time>2021-08-21T05:25:36Z</time>
      </trkpt>
      <trkpt lat="42.6976300" lon="-5.4870170">
        <ele>1080.0</ele>
        <time>2021-08-21T05:25:37Z</time>
      </trkpt>
      <trkpt lat="42.6976560" lon="-5.4870220">
        <ele>1080.0</ele>
        <time>2021-08-21T05:25:38Z</time>
      </trkpt>
      <trkpt lat="42.6976830" lon="-5.4870270">
        <ele>1080.0</ele>
        <time>2021-08-21T05:25:39Z</time>
      </trkpt>
      <trkpt lat="42.6977100" lon="-5.4870300">
        <ele>1080.0</ele>
        <time>2021-08-21T05:25:40Z</time>
      </trkpt>
      <trkpt lat="42.6977370" lon="-5.4870290">
        <ele>1080.0</ele>
        <time>2021-08-21T05:25:41Z</time>
      </trkpt>
      <trkpt lat="42.6977650" lon="-5.4870300">
        <ele>1080.0</ele>
        <time>2021-08-21T05:25:42Z</time>
      </trkpt>
      <trkpt lat="42.6977920" lon="-5.4870320">
        <ele>1080.0</ele>
        <time>2021-08-21T05:25:43Z</time>
      </trkpt>
      <trkpt lat="42.6978210" lon="-5.4870340">
        <ele>1080.0</ele>
        <time>2021-08-21T05:25:44Z</time>
      </trkpt>
      <trkpt lat="42.6978470" lon="-5.4870350">
        <ele>1080.0</ele>
        <time>2021-08-21T05:25:45Z</time>
      </trkpt>
      <trkpt lat="42.6978750" lon="-5.4870380">
        <ele>1080.0</ele>
        <time>2021-08-21T05:25:46Z</time>
      </trkpt>
      <trkpt lat="42.6979010" lon="-5.4870420">
        <ele>1080.0</ele>
        <time>2021-08-21T05:25:47Z</time>
      </trkpt>
      <trkpt lat="42.6979290" lon="-5.4870440">
        <ele>1080.0</ele>
        <time>2021-08-21T05:25:48Z</time>
      </trkpt>
      <trkpt lat="42.6979560" lon="-5.4870450">
        <ele>1080.0</ele>
        <time>2021-08-21T05:25:49Z</time>
      </trkpt>
      <trkpt lat="42.6979820" lon="-5.4870470">
        <ele>1080.0</ele>
        <time>2021-08-21T05:25:50Z</time>
      </trkpt>
      <trkpt lat="42.6980070" lon="-5.4870490">
        <ele>1080.0</ele>
        <time>2021-08-21T05:25:51Z</time>
      </trkpt>
      <trkpt lat="42.6980330" lon="-5.4870510">
        <ele>1080.0</ele>
        <time>2021-08-21T05:25:52Z</time>
      </trkpt>
      <trkpt lat="42.6980600" lon="-5.4870520">
        <ele>1080.0</ele>
        <time>2021-08-21T05:25:53Z</time>
      </trkpt>
      <trkpt lat="42.6980870" lon="-5.4870500">
        <ele>1080.0</ele>
        <time>2021-08-21T05:25:54Z</time>
      </trkpt>
      <trkpt lat="42.6981130" lon="-5.4870490">
        <ele>1080.0</ele>
        <time>2021-08-21T05:25:55Z</time>
      </trkpt>
      <trkpt lat="42.6981540" lon="-5.4870480">
        <ele>1080.0</ele>
        <time>2021-08-21T05:25:56Z</time>
      </trkpt>
      <trkpt lat="42.6981670" lon="-5.4870470">
        <ele>1079.0</ele>
        <time>2021-08-21T05:25:57Z</time>
      </trkpt>
      <trkpt lat="42.6981930" lon="-5.4870450">
        <ele>1079.0</ele>
        <time>2021-08-21T05:25:58Z</time>
      </trkpt>
      <trkpt lat="42.6982190" lon="-5.4870420">
        <ele>1079.0</ele>
        <time>2021-08-21T05:25:59Z</time>
      </trkpt>
      <trkpt lat="42.6982460" lon="-5.4870400">
        <ele>1079.0</ele>
        <time>2021-08-21T05:26:00Z</time>
      </trkpt>
      <trkpt lat="42.6982730" lon="-5.4870370">
        <ele>1079.0</ele>
        <time>2021-08-21T05:26:01Z</time>
      </trkpt>
      <trkpt lat="42.6983000" lon="-5.4870360">
        <ele>1079.0</ele>
        <time>2021-08-21T05:26:02Z</time>
      </trkpt>
      <trkpt lat="42.6983270" lon="-5.4870360">
        <ele>1079.0</ele>
        <time>2021-08-21T05:26:03Z</time>
      </trkpt>
      <trkpt lat="42.6983680" lon="-5.4870340">
        <ele>1079.0</ele>
        <time>2021-08-21T05:26:04Z</time>
      </trkpt>
      <trkpt lat="42.6983810" lon="-5.4870330">
        <ele>1079.0</ele>
        <time>2021-08-21T05:26:05Z</time>
      </trkpt>
      <trkpt lat="42.6984220" lon="-5.4870290">
        <ele>1079.0</ele>
        <time>2021-08-21T05:26:06Z</time>
      </trkpt>
      <trkpt lat="42.6984350" lon="-5.4870280">
        <ele>1079.0</ele>
        <time>2021-08-21T05:26:07Z</time>
      </trkpt>
      <trkpt lat="42.6984610" lon="-5.4870250">
        <ele>1079.0</ele>
        <time>2021-08-21T05:26:08Z</time>
      </trkpt>
      <trkpt lat="42.6984880" lon="-5.4870230">
        <ele>1079.0</ele>
        <time>2021-08-21T05:26:09Z</time>
      </trkpt>
      <trkpt lat="42.6985130" lon="-5.4870200">
        <ele>1079.0</ele>
        <time>2021-08-21T05:26:10Z</time>
      </trkpt>
      <trkpt lat="42.6985380" lon="-5.4870180">
        <ele>1079.0</ele>
        <time>2021-08-21T05:26:11Z</time>
      </trkpt>
      <trkpt lat="42.6985630" lon="-5.4870140">
        <ele>1079.0</ele>
        <time>2021-08-21T05:26:12Z</time>
      </trkpt>
      <trkpt lat="42.6985880" lon="-5.4870080">
        <ele>1079.0</ele>
        <time>2021-08-21T05:26:13Z</time>
      </trkpt>
      <trkpt lat="42.6986130" lon="-5.4870030">
        <ele>1079.0</ele>
        <time>2021-08-21T05:26:14Z</time>
      </trkpt>
      <trkpt lat="42.6986380" lon="-5.4870000">
        <ele>1079.0</ele>
        <time>2021-08-21T05:26:15Z</time>
      </trkpt>
      <trkpt lat="42.6986640" lon="-5.4869950">
        <ele>1079.0</ele>
        <time>2021-08-21T05:26:16Z</time>
      </trkpt>
      <trkpt lat="42.6986890" lon="-5.4869870">
        <ele>1079.0</ele>
        <time>2021-08-21T05:26:17Z</time>
      </trkpt>
      <trkpt lat="42.6987150" lon="-5.4869800">
        <ele>1079.0</ele>
        <time>2021-08-21T05:26:18Z</time>
      </trkpt>
      <trkpt lat="42.6987400" lon="-5.4869750">
        <ele>1079.0</ele>
        <time>2021-08-21T05:26:19Z</time>
      </trkpt>
      <trkpt lat="42.6987800" lon="-5.4869680">
        <ele>1079.0</ele>
        <time>2021-08-21T05:26:20Z</time>
      </trkpt>
      <trkpt lat="42.6987930" lon="-5.4869650">
        <ele>1079.0</ele>
        <time>2021-08-21T05:26:21Z</time>
      </trkpt>
      <trkpt lat="42.6988190" lon="-5.4869580">
        <ele>1079.0</ele>
        <time>2021-08-21T05:26:22Z</time>
      </trkpt>
      <trkpt lat="42.6988430" lon="-5.4869520">
        <ele>1079.0</ele>
        <time>2021-08-21T05:26:23Z</time>
      </trkpt>
      <trkpt lat="42.6988700" lon="-5.4869430">
        <ele>1079.0</ele>
        <time>2021-08-21T05:26:24Z</time>
      </trkpt>
      <trkpt lat="42.6989110" lon="-5.4869310">
        <ele>1079.0</ele>
        <time>2021-08-21T05:26:25Z</time>
      </trkpt>
      <trkpt lat="42.6989240" lon="-5.4869280">
        <ele>1079.0</ele>
        <time>2021-08-21T05:26:26Z</time>
      </trkpt>
      <trkpt lat="42.6989530" lon="-5.4869210">
        <ele>1079.0</ele>
        <time>2021-08-21T05:26:27Z</time>
      </trkpt>
      <trkpt lat="42.6989810" lon="-5.4869140">
        <ele>1079.0</ele>
        <time>2021-08-21T05:26:28Z</time>
      </trkpt>
      <trkpt lat="42.6990090" lon="-5.4869060">
        <ele>1079.0</ele>
        <time>2021-08-21T05:26:29Z</time>
      </trkpt>
      <trkpt lat="42.6990370" lon="-5.4868970">
        <ele>1079.0</ele>
        <time>2021-08-21T05:26:30Z</time>
      </trkpt>
      <trkpt lat="42.6990630" lon="-5.4868910">
        <ele>1079.0</ele>
        <time>2021-08-21T05:26:31Z</time>
      </trkpt>
      <trkpt lat="42.6990870" lon="-5.4868880">
        <ele>1079.0</ele>
        <time>2021-08-21T05:26:32Z</time>
      </trkpt>
      <trkpt lat="42.6991180" lon="-5.4868810">
        <ele>1079.0</ele>
        <time>2021-08-21T05:26:33Z</time>
      </trkpt>
      <trkpt lat="42.6991480" lon="-5.4868680">
        <ele>1079.0</ele>
        <time>2021-08-21T05:26:34Z</time>
      </trkpt>
      <trkpt lat="42.6991780" lon="-5.4868570">
        <ele>1079.0</ele>
        <time>2021-08-21T05:26:35Z</time>
      </trkpt>
      <trkpt lat="42.6992060" lon="-5.4868470">
        <ele>1079.0</ele>
        <time>2021-08-21T05:26:36Z</time>
      </trkpt>
      <trkpt lat="42.6992470" lon="-5.4868320">
        <ele>1079.0</ele>
        <time>2021-08-21T05:26:37Z</time>
      </trkpt>
      <trkpt lat="42.6992600" lon="-5.4868280">
        <ele>1079.0</ele>
        <time>2021-08-21T05:26:38Z</time>
      </trkpt>
      <trkpt lat="42.6992890" lon="-5.4868200">
        <ele>1079.0</ele>
        <time>2021-08-21T05:26:39Z</time>
      </trkpt>
      <trkpt lat="42.6993150" lon="-5.4868140">
        <ele>1079.0</ele>
        <time>2021-08-21T05:26:40Z</time>
      </trkpt>
      <trkpt lat="42.6993430" lon="-5.4868070">
        <ele>1079.0</ele>
        <time>2021-08-21T05:26:41Z</time>
      </trkpt>
      <trkpt lat="42.6993680" lon="-5.4868020">
        <ele>1079.0</ele>
        <time>2021-08-21T05:26:42Z</time>
      </trkpt>
      <trkpt lat="42.6993960" lon="-5.4867960">
        <ele>1079.0</ele>
        <time>2021-08-21T05:26:43Z</time>
      </trkpt>
      <trkpt lat="42.6994220" lon="-5.4867900">
        <ele>1079.0</ele>
        <time>2021-08-21T05:26:44Z</time>
      </trkpt>
      <trkpt lat="42.6994480" lon="-5.4867840">
        <ele>1079.0</ele>
        <time>2021-08-21T05:26:45Z</time>
      </trkpt>
      <trkpt lat="42.6994750" lon="-5.4867770">
        <ele>1079.0</ele>
        <time>2021-08-21T05:26:46Z</time>
      </trkpt>
      <trkpt lat="42.6995040" lon="-5.4867730">
        <ele>1079.0</ele>
        <time>2021-08-21T05:26:47Z</time>
      </trkpt>
      <trkpt lat="42.6995450" lon="-5.4867650">
        <ele>1079.0</ele>
        <time>2021-08-21T05:26:48Z</time>
      </trkpt>
      <trkpt lat="42.6995580" lon="-5.4867630">
        <ele>1079.0</ele>
        <time>2021-08-21T05:26:49Z</time>
      </trkpt>
      <trkpt lat="42.6995860" lon="-5.4867580">
        <ele>1079.0</ele>
        <time>2021-08-21T05:26:50Z</time>
      </trkpt>
      <trkpt lat="42.6996150" lon="-5.4867520">
        <ele>1079.0</ele>
        <time>2021-08-21T05:26:51Z</time>
      </trkpt>
      <trkpt lat="42.6996410" lon="-5.4867480">
        <ele>1079.0</ele>
        <time>2021-08-21T05:26:52Z</time>
      </trkpt>
      <trkpt lat="42.6996670" lon="-5.4867450">
        <ele>1079.0</ele>
        <time>2021-08-21T05:26:53Z</time>
      </trkpt>
      <trkpt lat="42.6996960" lon="-5.4867460">
        <ele>1079.0</ele>
        <time>2021-08-21T05:26:54Z</time>
      </trkpt>
      <trkpt lat="42.6997220" lon="-5.4867440">
        <ele>1079.0</ele>
        <time>2021-08-21T05:26:55Z</time>
      </trkpt>
      <trkpt lat="42.6997490" lon="-5.4867420">
        <ele>1079.0</ele>
        <time>2021-08-21T05:26:56Z</time>
      </trkpt>
      <trkpt lat="42.6997760" lon="-5.4867380">
        <ele>1079.0</ele>
        <time>2021-08-21T05:26:57Z</time>
      </trkpt>
      <trkpt lat="42.6998030" lon="-5.4867350">
        <ele>1079.0</ele>
        <time>2021-08-21T05:26:58Z</time>
      </trkpt>
      <trkpt lat="42.6998310" lon="-5.4867300">
        <ele>1079.0</ele>
        <time>2021-08-21T05:26:59Z</time>
      </trkpt>
      <trkpt lat="42.6998570" lon="-5.4867270">
        <ele>1079.0</ele>
        <time>2021-08-21T05:27:00Z</time>
      </trkpt>
      <trkpt lat="42.6998970" lon="-5.4867260">
        <ele>1079.0</ele>
        <time>2021-08-21T05:27:01Z</time>
      </trkpt>
      <trkpt lat="42.6999100" lon="-5.4867270">
        <ele>1079.0</ele>
        <time>2021-08-21T05:27:02Z</time>
      </trkpt>
      <trkpt lat="42.6999370" lon="-5.4867290">
        <ele>1080.0</ele>
        <time>2021-08-21T05:27:03Z</time>
      </trkpt>
      <trkpt lat="42.6999650" lon="-5.4867290">
        <ele>1080.0</ele>
        <time>2021-08-21T05:27:04Z</time>
      </trkpt>
      <trkpt lat="42.6999930" lon="-5.4867240">
        <ele>1080.0</ele>
        <time>2021-08-21T05:27:05Z</time>
      </trkpt>
      <trkpt lat="42.7000330" lon="-5.4867170">
        <ele>1080.0</ele>
        <time>2021-08-21T05:27:06Z</time>
      </trkpt>
      <trkpt lat="42.7000460" lon="-5.4867140">
        <ele>1079.0</ele>
        <time>2021-08-21T05:27:07Z</time>
      </trkpt>
      <trkpt lat="42.7000710" lon="-5.4867050">
        <ele>1079.0</ele>
        <time>2021-08-21T05:27:08Z</time>
      </trkpt>
      <trkpt lat="42.7000960" lon="-5.4866980">
        <ele>1079.0</ele>
        <time>2021-08-21T05:27:09Z</time>
      </trkpt>
      <trkpt lat="42.7001220" lon="-5.4866890">
        <ele>1079.0</ele>
        <time>2021-08-21T05:27:10Z</time>
      </trkpt>
      <trkpt lat="42.7001480" lon="-5.4866790">
        <ele>1079.0</ele>
        <time>2021-08-21T05:27:11Z</time>
      </trkpt>
      <trkpt lat="42.7001720" lon="-5.4866700">
        <ele>1078.0</ele>
        <time>2021-08-21T05:27:12Z</time>
      </trkpt>
      <trkpt lat="42.7001960" lon="-5.4866630">
        <ele>1078.0</ele>
        <time>2021-08-21T05:27:13Z</time>
      </trkpt>
      <trkpt lat="42.7002200" lon="-5.4866530">
        <ele>1078.0</ele>
        <time>2021-08-21T05:27:14Z</time>
      </trkpt>
      <trkpt lat="42.7002450" lon="-5.4866440">
        <ele>1078.0</ele>
        <time>2021-08-21T05:27:15Z</time>
      </trkpt>
      <trkpt lat="42.7002710" lon="-5.4866350">
        <ele>1079.0</ele>
        <time>2021-08-21T05:27:16Z</time>
      </trkpt>
      <trkpt lat="42.7002970" lon="-5.4866250">
        <ele>1079.0</ele>
        <time>2021-08-21T05:27:17Z</time>
      </trkpt>
      <trkpt lat="42.7003230" lon="-5.4866170">
        <ele>1079.0</ele>
        <time>2021-08-21T05:27:18Z</time>
      </trkpt>
      <trkpt lat="42.7003480" lon="-5.4866090">
        <ele>1079.0</ele>
        <time>2021-08-21T05:27:19Z</time>
      </trkpt>
      <trkpt lat="42.7003870" lon="-5.4865980">
        <ele>1079.0</ele>
        <time>2021-08-21T05:27:20Z</time>
      </trkpt>
      <trkpt lat="42.7004000" lon="-5.4865930">
        <ele>1079.0</ele>
        <time>2021-08-21T05:27:21Z</time>
      </trkpt>
      <trkpt lat="42.7004260" lon="-5.4865820">
        <ele>1079.0</ele>
        <time>2021-08-21T05:27:22Z</time>
      </trkpt>
      <trkpt lat="42.7004530" lon="-5.4865710">
        <ele>1079.0</ele>
        <time>2021-08-21T05:27:23Z</time>
      </trkpt>
      <trkpt lat="42.7004770" lon="-5.4865640">
        <ele>1079.0</ele>
        <time>2021-08-21T05:27:24Z</time>
      </trkpt>
      <trkpt lat="42.7005020" lon="-5.4865540">
        <ele>1079.0</ele>
        <time>2021-08-21T05:27:25Z</time>
      </trkpt>
      <trkpt lat="42.7005250" lon="-5.4865460">
        <ele>1079.0</ele>
        <time>2021-08-21T05:27:26Z</time>
      </trkpt>
      <trkpt lat="42.7005480" lon="-5.4865370">
        <ele>1078.0</ele>
        <time>2021-08-21T05:27:27Z</time>
      </trkpt>
      <trkpt lat="42.7005710" lon="-5.4865280">
        <ele>1078.0</ele>
        <time>2021-08-21T05:27:28Z</time>
      </trkpt>
      <trkpt lat="42.7005950" lon="-5.4865180">
        <ele>1078.0</ele>
        <time>2021-08-21T05:27:29Z</time>
      </trkpt>
      <trkpt lat="42.7006170" lon="-5.4865080">
        <ele>1078.0</ele>
        <time>2021-08-21T05:27:30Z</time>
      </trkpt>
      <trkpt lat="42.7006410" lon="-5.4864970">
        <ele>1078.0</ele>
        <time>2021-08-21T05:27:31Z</time>
      </trkpt>
      <trkpt lat="42.7006660" lon="-5.4864880">
        <ele>1078.0</ele>
        <time>2021-08-21T05:27:32Z</time>
      </trkpt>
      <trkpt lat="42.7007000" lon="-5.4864770">
        <ele>1078.0</ele>
        <time>2021-08-21T05:27:33Z</time>
      </trkpt>
      <trkpt lat="42.7007110" lon="-5.4864730">
        <ele>1078.0</ele>
        <time>2021-08-21T05:27:34Z</time>
      </trkpt>
      <trkpt lat="42.7007320" lon="-5.4864650">
        <ele>1078.0</ele>
        <time>2021-08-21T05:27:35Z</time>
      </trkpt>
      <trkpt lat="42.7007530" lon="-5.4864580">
        <ele>1078.0</ele>
        <time>2021-08-21T05:27:36Z</time>
      </trkpt>
      <trkpt lat="42.7007740" lon="-5.4864500">
        <ele>1078.0</ele>
        <time>2021-08-21T05:27:37Z</time>
      </trkpt>
      <trkpt lat="42.7007960" lon="-5.4864420">
        <ele>1078.0</ele>
        <time>2021-08-21T05:27:38Z</time>
      </trkpt>
      <trkpt lat="42.7008180" lon="-5.4864340">
        <ele>1078.0</ele>
        <time>2021-08-21T05:27:39Z</time>
      </trkpt>
      <trkpt lat="42.7008400" lon="-5.4864270">
        <ele>1078.0</ele>
        <time>2021-08-21T05:27:40Z</time>
      </trkpt>
      <trkpt lat="42.7008620" lon="-5.4864210">
        <ele>1078.0</ele>
        <time>2021-08-21T05:27:41Z</time>
      </trkpt>
      <trkpt lat="42.7008840" lon="-5.4864130">
        <ele>1078.0</ele>
        <time>2021-08-21T05:27:42Z</time>
      </trkpt>
      <trkpt lat="42.7009060" lon="-5.4864060">
        <ele>1078.0</ele>
        <time>2021-08-21T05:27:43Z</time>
      </trkpt>
      <trkpt lat="42.7009380" lon="-5.4863970">
        <ele>1078.0</ele>
        <time>2021-08-21T05:27:44Z</time>
      </trkpt>
      <trkpt lat="42.7009480" lon="-5.4863940">
        <ele>1078.0</ele>
        <time>2021-08-21T05:27:45Z</time>
      </trkpt>
      <trkpt lat="42.7009800" lon="-5.4863830">
        <ele>1078.0</ele>
        <time>2021-08-21T05:27:46Z</time>
      </trkpt>
      <trkpt lat="42.7009900" lon="-5.4863800">
        <ele>1078.0</ele>
        <time>2021-08-21T05:27:47Z</time>
      </trkpt>
      <trkpt lat="42.7010210" lon="-5.4863670">
        <ele>1078.0</ele>
        <time>2021-08-21T05:27:48Z</time>
      </trkpt>
      <trkpt lat="42.7010310" lon="-5.4863620">
        <ele>1079.0</ele>
        <time>2021-08-21T05:27:49Z</time>
      </trkpt>
      <trkpt lat="42.7010520" lon="-5.4863530">
        <ele>1079.0</ele>
        <time>2021-08-21T05:27:50Z</time>
      </trkpt>
      <trkpt lat="42.7010740" lon="-5.4863460">
        <ele>1079.0</ele>
        <time>2021-08-21T05:27:51Z</time>
      </trkpt>
      <trkpt lat="42.7010960" lon="-5.4863370">
        <ele>1079.0</ele>
        <time>2021-08-21T05:27:52Z</time>
      </trkpt>
      <trkpt lat="42.7011180" lon="-5.4863290">
        <ele>1079.0</ele>
        <time>2021-08-21T05:27:53Z</time>
      </trkpt>
      <trkpt lat="42.7011410" lon="-5.4863210">
        <ele>1079.0</ele>
        <time>2021-08-21T05:27:54Z</time>
      </trkpt>
      <trkpt lat="42.7011630" lon="-5.4863160">
        <ele>1079.0</ele>
        <time>2021-08-21T05:27:55Z</time>
      </trkpt>
      <trkpt lat="42.7011850" lon="-5.4863080">
        <ele>1079.0</ele>
        <time>2021-08-21T05:27:56Z</time>
      </trkpt>
      <trkpt lat="42.7012070" lon="-5.4863020">
        <ele>1079.0</ele>
        <time>2021-08-21T05:27:57Z</time>
      </trkpt>
      <trkpt lat="42.7012410" lon="-5.4862920">
        <ele>1079.0</ele>
        <time>2021-08-21T05:27:58Z</time>
      </trkpt>
      <trkpt lat="42.7012520" lon="-5.4862890">
        <ele>1080.0</ele>
        <time>2021-08-21T05:27:59Z</time>
      </trkpt>
      <trkpt lat="42.7012730" lon="-5.4862830">
        <ele>1080.0</ele>
        <time>2021-08-21T05:28:00Z</time>
      </trkpt>
      <trkpt lat="42.7012930" lon="-5.4862770">
        <ele>1080.0</ele>
        <time>2021-08-21T05:28:01Z</time>
      </trkpt>
      <trkpt lat="42.7013140" lon="-5.4862710">
        <ele>1080.0</ele>
        <time>2021-08-21T05:28:02Z</time>
      </trkpt>
      <trkpt lat="42.7013360" lon="-5.4862640">
        <ele>1080.0</ele>
        <time>2021-08-21T05:28:03Z</time>
      </trkpt>
      <trkpt lat="42.7013580" lon="-5.4862580">
        <ele>1080.0</ele>
        <time>2021-08-21T05:28:04Z</time>
      </trkpt>
      <trkpt lat="42.7013820" lon="-5.4862510">
        <ele>1080.0</ele>
        <time>2021-08-21T05:28:05Z</time>
      </trkpt>
      <trkpt lat="42.7014030" lon="-5.4862460">
        <ele>1080.0</ele>
        <time>2021-08-21T05:28:06Z</time>
      </trkpt>
      <trkpt lat="42.7014250" lon="-5.4862390">
        <ele>1080.0</ele>
        <time>2021-08-21T05:28:07Z</time>
      </trkpt>
      <trkpt lat="42.7014490" lon="-5.4862330">
        <ele>1080.0</ele>
        <time>2021-08-21T05:28:08Z</time>
      </trkpt>
      <trkpt lat="42.7014850" lon="-5.4862240">
        <ele>1080.0</ele>
        <time>2021-08-21T05:28:09Z</time>
      </trkpt>
      <trkpt lat="42.7014970" lon="-5.4862210">
        <ele>1081.0</ele>
        <time>2021-08-21T05:28:10Z</time>
      </trkpt>
      <trkpt lat="42.7015210" lon="-5.4862150">
        <ele>1081.0</ele>
        <time>2021-08-21T05:28:11Z</time>
      </trkpt>
      <trkpt lat="42.7015680" lon="-5.4862020">
        <ele>1081.0</ele>
        <time>2021-08-21T05:28:12Z</time>
      </trkpt>
      <trkpt lat="42.7015680" lon="-5.4862020">
        <ele>1081.0</ele>
        <time>2021-08-21T05:28:13Z</time>
      </trkpt>
      <trkpt lat="42.7015910" lon="-5.4861970">
        <ele>1081.0</ele>
        <time>2021-08-21T05:28:14Z</time>
      </trkpt>
      <trkpt lat="42.7016140" lon="-5.4861920">
        <ele>1081.0</ele>
        <time>2021-08-21T05:28:15Z</time>
      </trkpt>
      <trkpt lat="42.7016390" lon="-5.4861850">
        <ele>1081.0</ele>
        <time>2021-08-21T05:28:16Z</time>
      </trkpt>
      <trkpt lat="42.7016620" lon="-5.4861770">
        <ele>1081.0</ele>
        <time>2021-08-21T05:28:17Z</time>
      </trkpt>
      <trkpt lat="42.7016850" lon="-5.4861710">
        <ele>1081.0</ele>
        <time>2021-08-21T05:28:18Z</time>
      </trkpt>
      <trkpt lat="42.7017090" lon="-5.4861640">
        <ele>1082.0</ele>
        <time>2021-08-21T05:28:19Z</time>
      </trkpt>
      <trkpt lat="42.7017330" lon="-5.4861580">
        <ele>1082.0</ele>
        <time>2021-08-21T05:28:20Z</time>
      </trkpt>
      <trkpt lat="42.7017560" lon="-5.4861530">
        <ele>1082.0</ele>
        <time>2021-08-21T05:28:21Z</time>
      </trkpt>
      <trkpt lat="42.7017790" lon="-5.4861480">
        <ele>1082.0</ele>
        <time>2021-08-21T05:28:22Z</time>
      </trkpt>
      <trkpt lat="42.7018000" lon="-5.4861420">
        <ele>1082.0</ele>
        <time>2021-08-21T05:28:23Z</time>
      </trkpt>
      <trkpt lat="42.7018350" lon="-5.4861320">
        <ele>1082.0</ele>
        <time>2021-08-21T05:28:24Z</time>
      </trkpt>
      <trkpt lat="42.7018460" lon="-5.4861290">
        <ele>1082.0</ele>
        <time>2021-08-21T05:28:25Z</time>
      </trkpt>
      <trkpt lat="42.7018710" lon="-5.4861220">
        <ele>1082.0</ele>
        <time>2021-08-21T05:28:26Z</time>
      </trkpt>
      <trkpt lat="42.7018950" lon="-5.4861160">
        <ele>1082.0</ele>
        <time>2021-08-21T05:28:27Z</time>
      </trkpt>
      <trkpt lat="42.7019330" lon="-5.4861070">
        <ele>1082.0</ele>
        <time>2021-08-21T05:28:28Z</time>
      </trkpt>
      <trkpt lat="42.7019450" lon="-5.4861030">
        <ele>1082.0</ele>
        <time>2021-08-21T05:28:29Z</time>
      </trkpt>
      <trkpt lat="42.7019720" lon="-5.4860970">
        <ele>1082.0</ele>
        <time>2021-08-21T05:28:30Z</time>
      </trkpt>
      <trkpt lat="42.7019980" lon="-5.4860900">
        <ele>1082.0</ele>
        <time>2021-08-21T05:28:31Z</time>
      </trkpt>
      <trkpt lat="42.7020210" lon="-5.4860810">
        <ele>1083.0</ele>
        <time>2021-08-21T05:28:32Z</time>
      </trkpt>
      <trkpt lat="42.7020460" lon="-5.4860730">
        <ele>1083.0</ele>
        <time>2021-08-21T05:28:33Z</time>
      </trkpt>
      <trkpt lat="42.7020700" lon="-5.4860650">
        <ele>1083.0</ele>
        <time>2021-08-21T05:28:34Z</time>
      </trkpt>
      <trkpt lat="42.7020960" lon="-5.4860580">
        <ele>1083.0</ele>
        <time>2021-08-21T05:28:35Z</time>
      </trkpt>
      <trkpt lat="42.7021220" lon="-5.4860510">
        <ele>1083.0</ele>
        <time>2021-08-21T05:28:36Z</time>
      </trkpt>
      <trkpt lat="42.7021620" lon="-5.4860410">
        <ele>1083.0</ele>
        <time>2021-08-21T05:28:37Z</time>
      </trkpt>
      <trkpt lat="42.7021740" lon="-5.4860370">
        <ele>1083.0</ele>
        <time>2021-08-21T05:28:38Z</time>
      </trkpt>
      <trkpt lat="42.7022100" lon="-5.4860300">
        <ele>1083.0</ele>
        <time>2021-08-21T05:28:39Z</time>
      </trkpt>
      <trkpt lat="42.7022220" lon="-5.4860270">
        <ele>1084.0</ele>
        <time>2021-08-21T05:28:40Z</time>
      </trkpt>
      <trkpt lat="42.7022460" lon="-5.4860220">
        <ele>1084.0</ele>
        <time>2021-08-21T05:28:41Z</time>
      </trkpt>
      <trkpt lat="42.7022830" lon="-5.4860150">
        <ele>1084.0</ele>
        <time>2021-08-21T05:28:42Z</time>
      </trkpt>
      <trkpt lat="42.7022950" lon="-5.4860110">
        <ele>1084.0</ele>
        <time>2021-08-21T05:28:43Z</time>
      </trkpt>
      <trkpt lat="42.7023330" lon="-5.4860010">
        <ele>1084.0</ele>
        <time>2021-08-21T05:28:44Z</time>
      </trkpt>
      <trkpt lat="42.7023460" lon="-5.4859970">
        <ele>1084.0</ele>
        <time>2021-08-21T05:28:45Z</time>
      </trkpt>
      <trkpt lat="42.7023720" lon="-5.4859920">
        <ele>1084.0</ele>
        <time>2021-08-21T05:28:46Z</time>
      </trkpt>
      <trkpt lat="42.7023990" lon="-5.4859880">
        <ele>1084.0</ele>
        <time>2021-08-21T05:28:47Z</time>
      </trkpt>
      <trkpt lat="42.7024260" lon="-5.4859840">
        <ele>1084.0</ele>
        <time>2021-08-21T05:28:48Z</time>
      </trkpt>
      <trkpt lat="42.7024520" lon="-5.4859850">
        <ele>1084.0</ele>
        <time>2021-08-21T05:28:49Z</time>
      </trkpt>
      <trkpt lat="42.7024760" lon="-5.4859890">
        <ele>1084.0</ele>
        <time>2021-08-21T05:28:50Z</time>
      </trkpt>
      <trkpt lat="42.7025040" lon="-5.4859920">
        <ele>1084.0</ele>
        <time>2021-08-21T05:28:51Z</time>
      </trkpt>
      <trkpt lat="42.7025320" lon="-5.4859970">
        <ele>1084.0</ele>
        <time>2021-08-21T05:28:52Z</time>
      </trkpt>
      <trkpt lat="42.7025580" lon="-5.4860010">
        <ele>1084.0</ele>
        <time>2021-08-21T05:28:53Z</time>
      </trkpt>
      <trkpt lat="42.7025980" lon="-5.4860100">
        <ele>1084.0</ele>
        <time>2021-08-21T05:28:54Z</time>
      </trkpt>
      <trkpt lat="42.7026110" lon="-5.4860140">
        <ele>1084.0</ele>
        <time>2021-08-21T05:28:55Z</time>
      </trkpt>
      <trkpt lat="42.7026390" lon="-5.4860190">
        <ele>1084.0</ele>
        <time>2021-08-21T05:28:56Z</time>
      </trkpt>
      <trkpt lat="42.7026650" lon="-5.4860250">
        <ele>1084.0</ele>
        <time>2021-08-21T05:28:57Z</time>
      </trkpt>
      <trkpt lat="42.7026920" lon="-5.4860340">
        <ele>1084.0</ele>
        <time>2021-08-21T05:28:58Z</time>
      </trkpt>
      <trkpt lat="42.7027180" lon="-5.4860410">
        <ele>1084.0</ele>
        <time>2021-08-21T05:28:59Z</time>
      </trkpt>
      <trkpt lat="42.7027460" lon="-5.4860480">
        <ele>1084.0</ele>
        <time>2021-08-21T05:29:00Z</time>
      </trkpt>
      <trkpt lat="42.7027730" lon="-5.4860570">
        <ele>1084.0</ele>
        <time>2021-08-21T05:29:01Z</time>
      </trkpt>
      <trkpt lat="42.7027980" lon="-5.4860670">
        <ele>1084.0</ele>
        <time>2021-08-21T05:29:02Z</time>
      </trkpt>
      <trkpt lat="42.7028360" lon="-5.4860790">
        <ele>1084.0</ele>
        <time>2021-08-21T05:29:03Z</time>
      </trkpt>
      <trkpt lat="42.7028470" lon="-5.4860830">
        <ele>1084.0</ele>
        <time>2021-08-21T05:29:04Z</time>
      </trkpt>
      <trkpt lat="42.7028740" lon="-5.4860930">
        <ele>1084.0</ele>
        <time>2021-08-21T05:29:05Z</time>
      </trkpt>
      <trkpt lat="42.7029130" lon="-5.4861080">
        <ele>1084.0</ele>
        <time>2021-08-21T05:29:06Z</time>
      </trkpt>
      <trkpt lat="42.7029250" lon="-5.4861140">
        <ele>1084.0</ele>
        <time>2021-08-21T05:29:07Z</time>
      </trkpt>
      <trkpt lat="42.7029510" lon="-5.4861220">
        <ele>1084.0</ele>
        <time>2021-08-21T05:29:08Z</time>
      </trkpt>
      <trkpt lat="42.7029770" lon="-5.4861280">
        <ele>1084.0</ele>
        <time>2021-08-21T05:29:09Z</time>
      </trkpt>
      <trkpt lat="42.7030030" lon="-5.4861350">
        <ele>1084.0</ele>
        <time>2021-08-21T05:29:10Z</time>
      </trkpt>
      <trkpt lat="42.7030420" lon="-5.4861410">
        <ele>1084.0</ele>
        <time>2021-08-21T05:29:11Z</time>
      </trkpt>
      <trkpt lat="42.7030560" lon="-5.4861420">
        <ele>1084.0</ele>
        <time>2021-08-21T05:29:12Z</time>
      </trkpt>
      <trkpt lat="42.7030820" lon="-5.4861430">
        <ele>1084.0</ele>
        <time>2021-08-21T05:29:13Z</time>
      </trkpt>
      <trkpt lat="42.7031100" lon="-5.4861460">
        <ele>1084.0</ele>
        <time>2021-08-21T05:29:14Z</time>
      </trkpt>
      <trkpt lat="42.7031360" lon="-5.4861500">
        <ele>1084.0</ele>
        <time>2021-08-21T05:29:15Z</time>
      </trkpt>
      <trkpt lat="42.7031620" lon="-5.4861480">
        <ele>1085.0</ele>
        <time>2021-08-21T05:29:16Z</time>
      </trkpt>
      <trkpt lat="42.7031880" lon="-5.4861420">
        <ele>1085.0</ele>
        <time>2021-08-21T05:29:17Z</time>
      </trkpt>
      <trkpt lat="42.7032140" lon="-5.4861360">
        <ele>1085.0</ele>
        <time>2021-08-21T05:29:18Z</time>
      </trkpt>
      <trkpt lat="42.7032400" lon="-5.4861310">
        <ele>1085.0</ele>
        <time>2021-08-21T05:29:19Z</time>
      </trkpt>
      <trkpt lat="42.7032630" lon="-5.4861270">
        <ele>1085.0</ele>
        <time>2021-08-21T05:29:20Z</time>
      </trkpt>
      <trkpt lat="42.7032890" lon="-5.4861230">
        <ele>1085.0</ele>
        <time>2021-08-21T05:29:21Z</time>
      </trkpt>
      <trkpt lat="42.7033270" lon="-5.4861120">
        <ele>1085.0</ele>
        <time>2021-08-21T05:29:22Z</time>
      </trkpt>
      <trkpt lat="42.7033410" lon="-5.4861080">
        <ele>1085.0</ele>
        <time>2021-08-21T05:29:23Z</time>
      </trkpt>
      <trkpt lat="42.7033660" lon="-5.4860990">
        <ele>1084.0</ele>
        <time>2021-08-21T05:29:24Z</time>
      </trkpt>
      <trkpt lat="42.7033920" lon="-5.4860920">
        <ele>1084.0</ele>
        <time>2021-08-21T05:29:25Z</time>
      </trkpt>
      <trkpt lat="42.7034180" lon="-5.4860820">
        <ele>1084.0</ele>
        <time>2021-08-21T05:29:26Z</time>
      </trkpt>
      <trkpt lat="42.7034550" lon="-5.4860650">
        <ele>1084.0</ele>
        <time>2021-08-21T05:29:27Z</time>
      </trkpt>
      <trkpt lat="42.7034680" lon="-5.4860590">
        <ele>1085.0</ele>
        <time>2021-08-21T05:29:28Z</time>
      </trkpt>
      <trkpt lat="42.7034910" lon="-5.4860490">
        <ele>1085.0</ele>
        <time>2021-08-21T05:29:29Z</time>
      </trkpt>
      <trkpt lat="42.7035160" lon="-5.4860410">
        <ele>1085.0</ele>
        <time>2021-08-21T05:29:30Z</time>
      </trkpt>
      <trkpt lat="42.7035440" lon="-5.4860340">
        <ele>1085.0</ele>
        <time>2021-08-21T05:29:31Z</time>
      </trkpt>
      <trkpt lat="42.7035710" lon="-5.4860240">
        <ele>1084.0</ele>
        <time>2021-08-21T05:29:32Z</time>
      </trkpt>
      <trkpt lat="42.7035970" lon="-5.4860120">
        <ele>1084.0</ele>
        <time>2021-08-21T05:29:33Z</time>
      </trkpt>
      <trkpt lat="42.7036230" lon="-5.4859980">
        <ele>1084.0</ele>
        <time>2021-08-21T05:29:34Z</time>
      </trkpt>
      <trkpt lat="42.7036480" lon="-5.4859830">
        <ele>1084.0</ele>
        <time>2021-08-21T05:29:35Z</time>
      </trkpt>
      <trkpt lat="42.7036730" lon="-5.4859690">
        <ele>1084.0</ele>
        <time>2021-08-21T05:29:36Z</time>
      </trkpt>
      <trkpt lat="42.7036970" lon="-5.4859560">
        <ele>1084.0</ele>
        <time>2021-08-21T05:29:37Z</time>
      </trkpt>
      <trkpt lat="42.7037210" lon="-5.4859430">
        <ele>1084.0</ele>
        <time>2021-08-21T05:29:38Z</time>
      </trkpt>
      <trkpt lat="42.7037490" lon="-5.4859290">
        <ele>1084.0</ele>
        <time>2021-08-21T05:29:39Z</time>
      </trkpt>
      <trkpt lat="42.7037870" lon="-5.4859080">
        <ele>1084.0</ele>
        <time>2021-08-21T05:29:40Z</time>
      </trkpt>
      <trkpt lat="42.7037990" lon="-5.4859010">
        <ele>1084.0</ele>
        <time>2021-08-21T05:29:41Z</time>
      </trkpt>
      <trkpt lat="42.7038240" lon="-5.4858870">
        <ele>1084.0</ele>
        <time>2021-08-21T05:29:42Z</time>
      </trkpt>
      <trkpt lat="42.7038470" lon="-5.4858740">
        <ele>1084.0</ele>
        <time>2021-08-21T05:29:43Z</time>
      </trkpt>
      <trkpt lat="42.7038470" lon="-5.4858740">
        <ele>1084.0</ele>
        <time>2021-08-21T05:29:44Z</time>
      </trkpt>
      <trkpt lat="42.7038980" lon="-5.4858470">
        <ele>1084.0</ele>
        <time>2021-08-21T05:29:45Z</time>
      </trkpt>
      <trkpt lat="42.7039230" lon="-5.4858340">
        <ele>1084.0</ele>
        <time>2021-08-21T05:29:46Z</time>
      </trkpt>
      <trkpt lat="42.7039480" lon="-5.4858220">
        <ele>1083.0</ele>
        <time>2021-08-21T05:29:47Z</time>
      </trkpt>
      <trkpt lat="42.7039730" lon="-5.4858090">
        <ele>1083.0</ele>
        <time>2021-08-21T05:29:48Z</time>
      </trkpt>
      <trkpt lat="42.7039970" lon="-5.4857970">
        <ele>1083.0</ele>
        <time>2021-08-21T05:29:49Z</time>
      </trkpt>
      <trkpt lat="42.7040210" lon="-5.4857850">
        <ele>1083.0</ele>
        <time>2021-08-21T05:29:50Z</time>
      </trkpt>
      <trkpt lat="42.7040440" lon="-5.4857710">
        <ele>1083.0</ele>
        <time>2021-08-21T05:29:51Z</time>
      </trkpt>
      <trkpt lat="42.7040670" lon="-5.4857570">
        <ele>1083.0</ele>
        <time>2021-08-21T05:29:52Z</time>
      </trkpt>
      <trkpt lat="42.7040900" lon="-5.4857430">
        <ele>1083.0</ele>
        <time>2021-08-21T05:29:53Z</time>
      </trkpt>
      <trkpt lat="42.7041100" lon="-5.4857300">
        <ele>1083.0</ele>
        <time>2021-08-21T05:29:54Z</time>
      </trkpt>
      <trkpt lat="42.7041310" lon="-5.4857180">
        <ele>1083.0</ele>
        <time>2021-08-21T05:29:55Z</time>
      </trkpt>
      <trkpt lat="42.7041550" lon="-5.4857060">
        <ele>1083.0</ele>
        <time>2021-08-21T05:29:56Z</time>
      </trkpt>
      <trkpt lat="42.7041800" lon="-5.4856950">
        <ele>1083.0</ele>
        <time>2021-08-21T05:29:57Z</time>
      </trkpt>
      <trkpt lat="42.7042040" lon="-5.4856850">
        <ele>1083.0</ele>
        <time>2021-08-21T05:29:58Z</time>
      </trkpt>
      <trkpt lat="42.7042270" lon="-5.4856740">
        <ele>1083.0</ele>
        <time>2021-08-21T05:29:59Z</time>
      </trkpt>
      <trkpt lat="42.7042610" lon="-5.4856590">
        <ele>1083.0</ele>
        <time>2021-08-21T05:30:00Z</time>
      </trkpt>
      <trkpt lat="42.7042720" lon="-5.4856530">
        <ele>1083.0</ele>
        <time>2021-08-21T05:30:01Z</time>
      </trkpt>
      <trkpt lat="42.7042960" lon="-5.4856410">
        <ele>1083.0</ele>
        <time>2021-08-21T05:30:02Z</time>
      </trkpt>
      <trkpt lat="42.7043310" lon="-5.4856210">
        <ele>1083.0</ele>
        <time>2021-08-21T05:30:03Z</time>
      </trkpt>
      <trkpt lat="42.7043430" lon="-5.4856140">
        <ele>1083.0</ele>
        <time>2021-08-21T05:30:04Z</time>
      </trkpt>
      <trkpt lat="42.7043670" lon="-5.4856000">
        <ele>1083.0</ele>
        <time>2021-08-21T05:30:05Z</time>
      </trkpt>
      <trkpt lat="42.7043900" lon="-5.4855910">
        <ele>1083.0</ele>
        <time>2021-08-21T05:30:06Z</time>
      </trkpt>
      <trkpt lat="42.7044150" lon="-5.4855810">
        <ele>1083.0</ele>
        <time>2021-08-21T05:30:07Z</time>
      </trkpt>
      <trkpt lat="42.7044390" lon="-5.4855720">
        <ele>1083.0</ele>
        <time>2021-08-21T05:30:08Z</time>
      </trkpt>
      <trkpt lat="42.7044630" lon="-5.4855620">
        <ele>1083.0</ele>
        <time>2021-08-21T05:30:09Z</time>
      </trkpt>
      <trkpt lat="42.7044880" lon="-5.4855540">
        <ele>1083.0</ele>
        <time>2021-08-21T05:30:10Z</time>
      </trkpt>
      <trkpt lat="42.7045130" lon="-5.4855440">
        <ele>1083.0</ele>
        <time>2021-08-21T05:30:11Z</time>
      </trkpt>
      <trkpt lat="42.7045380" lon="-5.4855350">
        <ele>1084.0</ele>
        <time>2021-08-21T05:30:12Z</time>
      </trkpt>
      <trkpt lat="42.7045640" lon="-5.4855300">
        <ele>1084.0</ele>
        <time>2021-08-21T05:30:13Z</time>
      </trkpt>
      <trkpt lat="42.7045880" lon="-5.4855260">
        <ele>1084.0</ele>
        <time>2021-08-21T05:30:14Z</time>
      </trkpt>
      <trkpt lat="42.7046110" lon="-5.4855230">
        <ele>1084.0</ele>
        <time>2021-08-21T05:30:15Z</time>
      </trkpt>
      <trkpt lat="42.7046350" lon="-5.4855150">
        <ele>1084.0</ele>
        <time>2021-08-21T05:30:16Z</time>
      </trkpt>
      <trkpt lat="42.7046710" lon="-5.4855050">
        <ele>1084.0</ele>
        <time>2021-08-21T05:30:17Z</time>
      </trkpt>
      <trkpt lat="42.7046830" lon="-5.4855020">
        <ele>1084.0</ele>
        <time>2021-08-21T05:30:18Z</time>
      </trkpt>
      <trkpt lat="42.7047090" lon="-5.4854950">
        <ele>1084.0</ele>
        <time>2021-08-21T05:30:19Z</time>
      </trkpt>
      <trkpt lat="42.7047490" lon="-5.4854840">
        <ele>1084.0</ele>
        <time>2021-08-21T05:30:20Z</time>
      </trkpt>
      <trkpt lat="42.7047620" lon="-5.4854800">
        <ele>1084.0</ele>
        <time>2021-08-21T05:30:21Z</time>
      </trkpt>
      <trkpt lat="42.7047900" lon="-5.4854720">
        <ele>1084.0</ele>
        <time>2021-08-21T05:30:22Z</time>
      </trkpt>
      <trkpt lat="42.7048150" lon="-5.4854640">
        <ele>1084.0</ele>
        <time>2021-08-21T05:30:23Z</time>
      </trkpt>
      <trkpt lat="42.7048520" lon="-5.4854540">
        <ele>1084.0</ele>
        <time>2021-08-21T05:30:24Z</time>
      </trkpt>
      <trkpt lat="42.7048640" lon="-5.4854500">
        <ele>1085.0</ele>
        <time>2021-08-21T05:30:25Z</time>
      </trkpt>
      <trkpt lat="42.7048850" lon="-5.4854420">
        <ele>1085.0</ele>
        <time>2021-08-21T05:30:26Z</time>
      </trkpt>
      <trkpt lat="42.7049080" lon="-5.4854350">
        <ele>1085.0</ele>
        <time>2021-08-21T05:30:27Z</time>
      </trkpt>
      <trkpt lat="42.7049440" lon="-5.4854220">
        <ele>1085.0</ele>
        <time>2021-08-21T05:30:28Z</time>
      </trkpt>
      <trkpt lat="42.7049550" lon="-5.4854170">
        <ele>1085.0</ele>
        <time>2021-08-21T05:30:29Z</time>
      </trkpt>
      <trkpt lat="42.7049790" lon="-5.4854090">
        <ele>1085.0</ele>
        <time>2021-08-21T05:30:30Z</time>
      </trkpt>
      <trkpt lat="42.7050030" lon="-5.4854000">
        <ele>1085.0</ele>
        <time>2021-08-21T05:30:31Z</time>
      </trkpt>
      <trkpt lat="42.7050270" lon="-5.4853900">
        <ele>1085.0</ele>
        <time>2021-08-21T05:30:32Z</time>
      </trkpt>
      <trkpt lat="42.7050630" lon="-5.4853820">
        <ele>1085.0</ele>
        <time>2021-08-21T05:30:33Z</time>
      </trkpt>
      <trkpt lat="42.7050750" lon="-5.4853780">
        <ele>1085.0</ele>
        <time>2021-08-21T05:30:34Z</time>
      </trkpt>
      <trkpt lat="42.7050990" lon="-5.4853710">
        <ele>1085.0</ele>
        <time>2021-08-21T05:30:35Z</time>
      </trkpt>
      <trkpt lat="42.7051240" lon="-5.4853620">
        <ele>1085.0</ele>
        <time>2021-08-21T05:30:36Z</time>
      </trkpt>
      <trkpt lat="42.7051490" lon="-5.4853550">
        <ele>1085.0</ele>
        <time>2021-08-21T05:30:37Z</time>
      </trkpt>
      <trkpt lat="42.7051730" lon="-5.4853500">
        <ele>1085.0</ele>
        <time>2021-08-21T05:30:38Z</time>
      </trkpt>
      <trkpt lat="42.7051960" lon="-5.4853430">
        <ele>1085.0</ele>
        <time>2021-08-21T05:30:39Z</time>
      </trkpt>
      <trkpt lat="42.7052200" lon="-5.4853370">
        <ele>1085.0</ele>
        <time>2021-08-21T05:30:40Z</time>
      </trkpt>
      <trkpt lat="42.7052460" lon="-5.4853310">
        <ele>1085.0</ele>
        <time>2021-08-21T05:30:41Z</time>
      </trkpt>
      <trkpt lat="42.7052700" lon="-5.4853270">
        <ele>1085.0</ele>
        <time>2021-08-21T05:30:42Z</time>
      </trkpt>
      <trkpt lat="42.7052950" lon="-5.4853220">
        <ele>1086.0</ele>
        <time>2021-08-21T05:30:43Z</time>
      </trkpt>
      <trkpt lat="42.7053200" lon="-5.4853170">
        <ele>1086.0</ele>
        <time>2021-08-21T05:30:44Z</time>
      </trkpt>
      <trkpt lat="42.7053450" lon="-5.4853120">
        <ele>1086.0</ele>
        <time>2021-08-21T05:30:45Z</time>
      </trkpt>
      <trkpt lat="42.7053700" lon="-5.4853080">
        <ele>1086.0</ele>
        <time>2021-08-21T05:30:46Z</time>
      </trkpt>
      <trkpt lat="42.7053930" lon="-5.4853050">
        <ele>1086.0</ele>
        <time>2021-08-21T05:30:47Z</time>
      </trkpt>
      <trkpt lat="42.7054190" lon="-5.4853010">
        <ele>1086.0</ele>
        <time>2021-08-21T05:30:48Z</time>
      </trkpt>
      <trkpt lat="42.7054420" lon="-5.4852970">
        <ele>1086.0</ele>
        <time>2021-08-21T05:30:49Z</time>
      </trkpt>
      <trkpt lat="42.7054670" lon="-5.4852920">
        <ele>1086.0</ele>
        <time>2021-08-21T05:30:50Z</time>
      </trkpt>
      <trkpt lat="42.7054920" lon="-5.4852870">
        <ele>1086.0</ele>
        <time>2021-08-21T05:30:51Z</time>
      </trkpt>
      <trkpt lat="42.7055170" lon="-5.4852840">
        <ele>1086.0</ele>
        <time>2021-08-21T05:30:52Z</time>
      </trkpt>
      <trkpt lat="42.7055410" lon="-5.4852800">
        <ele>1086.0</ele>
        <time>2021-08-21T05:30:53Z</time>
      </trkpt>
      <trkpt lat="42.7055640" lon="-5.4852770">
        <ele>1086.0</ele>
        <time>2021-08-21T05:30:54Z</time>
      </trkpt>
      <trkpt lat="42.7055890" lon="-5.4852740">
        <ele>1086.0</ele>
        <time>2021-08-21T05:30:55Z</time>
      </trkpt>
      <trkpt lat="42.7056130" lon="-5.4852690">
        <ele>1086.0</ele>
        <time>2021-08-21T05:30:56Z</time>
      </trkpt>
      <trkpt lat="42.7056360" lon="-5.4852650">
        <ele>1086.0</ele>
        <time>2021-08-21T05:30:57Z</time>
      </trkpt>
      <trkpt lat="42.7056600" lon="-5.4852600">
        <ele>1086.0</ele>
        <time>2021-08-21T05:30:58Z</time>
      </trkpt>
      <trkpt lat="42.7056830" lon="-5.4852550">
        <ele>1086.0</ele>
        <time>2021-08-21T05:30:59Z</time>
      </trkpt>
      <trkpt lat="42.7057190" lon="-5.4852490">
        <ele>1086.0</ele>
        <time>2021-08-21T05:31:00Z</time>
      </trkpt>
      <trkpt lat="42.7057310" lon="-5.4852480">
        <ele>1087.0</ele>
        <time>2021-08-21T05:31:01Z</time>
      </trkpt>
      <trkpt lat="42.7057550" lon="-5.4852450">
        <ele>1087.0</ele>
        <time>2021-08-21T05:31:02Z</time>
      </trkpt>
      <trkpt lat="42.7057790" lon="-5.4852430">
        <ele>1087.0</ele>
        <time>2021-08-21T05:31:03Z</time>
      </trkpt>
      <trkpt lat="42.7058030" lon="-5.4852400">
        <ele>1087.0</ele>
        <time>2021-08-21T05:31:04Z</time>
      </trkpt>
      <trkpt lat="42.7058250" lon="-5.4852340">
        <ele>1087.0</ele>
        <time>2021-08-21T05:31:05Z</time>
      </trkpt>
      <trkpt lat="42.7058600" lon="-5.4852290">
        <ele>1087.0</ele>
        <time>2021-08-21T05:31:06Z</time>
      </trkpt>
      <trkpt lat="42.7058720" lon="-5.4852270">
        <ele>1087.0</ele>
        <time>2021-08-21T05:31:07Z</time>
      </trkpt>
      <trkpt lat="42.7058950" lon="-5.4852260">
        <ele>1087.0</ele>
        <time>2021-08-21T05:31:08Z</time>
      </trkpt>
      <trkpt lat="42.7059190" lon="-5.4852230">
        <ele>1087.0</ele>
        <time>2021-08-21T05:31:09Z</time>
      </trkpt>
      <trkpt lat="42.7059410" lon="-5.4852200">
        <ele>1087.0</ele>
        <time>2021-08-21T05:31:10Z</time>
      </trkpt>
      <trkpt lat="42.7059660" lon="-5.4852190">
        <ele>1087.0</ele>
        <time>2021-08-21T05:31:11Z</time>
      </trkpt>
      <trkpt lat="42.7059920" lon="-5.4852180">
        <ele>1087.0</ele>
        <time>2021-08-21T05:31:12Z</time>
      </trkpt>
      <trkpt lat="42.7060160" lon="-5.4852170">
        <ele>1088.0</ele>
        <time>2021-08-21T05:31:13Z</time>
      </trkpt>
      <trkpt lat="42.7060430" lon="-5.4852150">
        <ele>1088.0</ele>
        <time>2021-08-21T05:31:14Z</time>
      </trkpt>
      <trkpt lat="42.7060670" lon="-5.4852110">
        <ele>1088.0</ele>
        <time>2021-08-21T05:31:15Z</time>
      </trkpt>
      <trkpt lat="42.7060910" lon="-5.4852070">
        <ele>1088.0</ele>
        <time>2021-08-21T05:31:16Z</time>
      </trkpt>
      <trkpt lat="42.7061150" lon="-5.4852040">
        <ele>1088.0</ele>
        <time>2021-08-21T05:31:17Z</time>
      </trkpt>
      <trkpt lat="42.7061390" lon="-5.4852000">
        <ele>1088.0</ele>
        <time>2021-08-21T05:31:18Z</time>
      </trkpt>
      <trkpt lat="42.7061640" lon="-5.4851970">
        <ele>1088.0</ele>
        <time>2021-08-21T05:31:19Z</time>
      </trkpt>
      <trkpt lat="42.7061890" lon="-5.4851940">
        <ele>1088.0</ele>
        <time>2021-08-21T05:31:20Z</time>
      </trkpt>
      <trkpt lat="42.7062150" lon="-5.4851890">
        <ele>1088.0</ele>
        <time>2021-08-21T05:31:21Z</time>
      </trkpt>
      <trkpt lat="42.7062400" lon="-5.4851860">
        <ele>1088.0</ele>
        <time>2021-08-21T05:31:22Z</time>
      </trkpt>
      <trkpt lat="42.7062650" lon="-5.4851850">
        <ele>1088.0</ele>
        <time>2021-08-21T05:31:23Z</time>
      </trkpt>
      <trkpt lat="42.7062890" lon="-5.4851820">
        <ele>1088.0</ele>
        <time>2021-08-21T05:31:24Z</time>
      </trkpt>
      <trkpt lat="42.7063130" lon="-5.4851800">
        <ele>1089.0</ele>
        <time>2021-08-21T05:31:25Z</time>
      </trkpt>
      <trkpt lat="42.7063370" lon="-5.4851770">
        <ele>1089.0</ele>
        <time>2021-08-21T05:31:26Z</time>
      </trkpt>
      <trkpt lat="42.7063620" lon="-5.4851750">
        <ele>1089.0</ele>
        <time>2021-08-21T05:31:27Z</time>
      </trkpt>
      <trkpt lat="42.7063880" lon="-5.4851720">
        <ele>1089.0</ele>
        <time>2021-08-21T05:31:28Z</time>
      </trkpt>
      <trkpt lat="42.7064120" lon="-5.4851700">
        <ele>1089.0</ele>
        <time>2021-08-21T05:31:29Z</time>
      </trkpt>
      <trkpt lat="42.7064370" lon="-5.4851670">
        <ele>1089.0</ele>
        <time>2021-08-21T05:31:30Z</time>
      </trkpt>
      <trkpt lat="42.7064620" lon="-5.4851660">
        <ele>1089.0</ele>
        <time>2021-08-21T05:31:31Z</time>
      </trkpt>
      <trkpt lat="42.7064890" lon="-5.4851640">
        <ele>1089.0</ele>
        <time>2021-08-21T05:31:32Z</time>
      </trkpt>
      <trkpt lat="42.7065150" lon="-5.4851620">
        <ele>1089.0</ele>
        <time>2021-08-21T05:31:33Z</time>
      </trkpt>
      <trkpt lat="42.7065420" lon="-5.4851600">
        <ele>1089.0</ele>
        <time>2021-08-21T05:31:34Z</time>
      </trkpt>
      <trkpt lat="42.7065700" lon="-5.4851570">
        <ele>1089.0</ele>
        <time>2021-08-21T05:31:35Z</time>
      </trkpt>
      <trkpt lat="42.7065950" lon="-5.4851500">
        <ele>1089.0</ele>
        <time>2021-08-21T05:31:36Z</time>
      </trkpt>
      <trkpt lat="42.7066240" lon="-5.4851430">
        <ele>1089.0</ele>
        <time>2021-08-21T05:31:37Z</time>
      </trkpt>
      <trkpt lat="42.7066500" lon="-5.4851380">
        <ele>1089.0</ele>
        <time>2021-08-21T05:31:38Z</time>
      </trkpt>
      <trkpt lat="42.7066770" lon="-5.4851340">
        <ele>1089.0</ele>
        <time>2021-08-21T05:31:39Z</time>
      </trkpt>
      <trkpt lat="42.7067030" lon="-5.4851310">
        <ele>1089.0</ele>
        <time>2021-08-21T05:31:40Z</time>
      </trkpt>
      <trkpt lat="42.7067290" lon="-5.4851280">
        <ele>1089.0</ele>
        <time>2021-08-21T05:31:41Z</time>
      </trkpt>
      <trkpt lat="42.7067560" lon="-5.4851260">
        <ele>1089.0</ele>
        <time>2021-08-21T05:31:42Z</time>
      </trkpt>
      <trkpt lat="42.7067830" lon="-5.4851260">
        <ele>1089.0</ele>
        <time>2021-08-21T05:31:43Z</time>
      </trkpt>
      <trkpt lat="42.7068220" lon="-5.4851280">
        <ele>1089.0</ele>
        <time>2021-08-21T05:31:44Z</time>
      </trkpt>
      <trkpt lat="42.7068350" lon="-5.4851290">
        <ele>1089.0</ele>
        <time>2021-08-21T05:31:45Z</time>
      </trkpt>
      <trkpt lat="42.7068620" lon="-5.4851300">
        <ele>1089.0</ele>
        <time>2021-08-21T05:31:46Z</time>
      </trkpt>
      <trkpt lat="42.7069030" lon="-5.4851320">
        <ele>1089.0</ele>
        <time>2021-08-21T05:31:47Z</time>
      </trkpt>
      <trkpt lat="42.7069160" lon="-5.4851330">
        <ele>1089.0</ele>
        <time>2021-08-21T05:31:48Z</time>
      </trkpt>
      <trkpt lat="42.7069430" lon="-5.4851340">
        <ele>1089.0</ele>
        <time>2021-08-21T05:31:49Z</time>
      </trkpt>
      <trkpt lat="42.7069830" lon="-5.4851390">
        <ele>1089.0</ele>
        <time>2021-08-21T05:31:50Z</time>
      </trkpt>
      <trkpt lat="42.7069960" lon="-5.4851420">
        <ele>1089.0</ele>
        <time>2021-08-21T05:31:51Z</time>
      </trkpt>
      <trkpt lat="42.7070240" lon="-5.4851460">
        <ele>1089.0</ele>
        <time>2021-08-21T05:31:52Z</time>
      </trkpt>
      <trkpt lat="42.7070640" lon="-5.4851480">
        <ele>1089.0</ele>
        <time>2021-08-21T05:31:53Z</time>
      </trkpt>
      <trkpt lat="42.7070770" lon="-5.4851490">
        <ele>1089.0</ele>
        <time>2021-08-21T05:31:54Z</time>
      </trkpt>
      <trkpt lat="42.7071040" lon="-5.4851530">
        <ele>1089.0</ele>
        <time>2021-08-21T05:31:55Z</time>
      </trkpt>
      <trkpt lat="42.7071570" lon="-5.4851590">
        <ele>1089.0</ele>
        <time>2021-08-21T05:31:56Z</time>
      </trkpt>
      <trkpt lat="42.7071840" lon="-5.4851620">
        <ele>1089.0</ele>
        <time>2021-08-21T05:31:58Z</time>
      </trkpt>
      <trkpt lat="42.7072120" lon="-5.4851640">
        <ele>1089.0</ele>
        <time>2021-08-21T05:31:59Z</time>
      </trkpt>
      <trkpt lat="42.7072400" lon="-5.4851650">
        <ele>1089.0</ele>
        <time>2021-08-21T05:32:00Z</time>
      </trkpt>
      <trkpt lat="42.7072680" lon="-5.4851640">
        <ele>1089.0</ele>
        <time>2021-08-21T05:32:01Z</time>
      </trkpt>
      <trkpt lat="42.7072960" lon="-5.4851640">
        <ele>1089.0</ele>
        <time>2021-08-21T05:32:02Z</time>
      </trkpt>
      <trkpt lat="42.7073240" lon="-5.4851640">
        <ele>1089.0</ele>
        <time>2021-08-21T05:32:03Z</time>
      </trkpt>
      <trkpt lat="42.7073510" lon="-5.4851640">
        <ele>1089.0</ele>
        <time>2021-08-21T05:32:04Z</time>
      </trkpt>
      <trkpt lat="42.7073790" lon="-5.4851650">
        <ele>1089.0</ele>
        <time>2021-08-21T05:32:05Z</time>
      </trkpt>
      <trkpt lat="42.7074070" lon="-5.4851660">
        <ele>1089.0</ele>
        <time>2021-08-21T05:32:06Z</time>
      </trkpt>
      <trkpt lat="42.7074320" lon="-5.4851670">
        <ele>1089.0</ele>
        <time>2021-08-21T05:32:07Z</time>
      </trkpt>
      <trkpt lat="42.7074600" lon="-5.4851670">
        <ele>1089.0</ele>
        <time>2021-08-21T05:32:08Z</time>
      </trkpt>
      <trkpt lat="42.7074870" lon="-5.4851660">
        <ele>1089.0</ele>
        <time>2021-08-21T05:32:09Z</time>
      </trkpt>
      <trkpt lat="42.7075150" lon="-5.4851630">
        <ele>1089.0</ele>
        <time>2021-08-21T05:32:10Z</time>
      </trkpt>
      <trkpt lat="42.7075420" lon="-5.4851600">
        <ele>1089.0</ele>
        <time>2021-08-21T05:32:11Z</time>
      </trkpt>
      <trkpt lat="42.7075830" lon="-5.4851540">
        <ele>1089.0</ele>
        <time>2021-08-21T05:32:12Z</time>
      </trkpt>
      <trkpt lat="42.7075960" lon="-5.4851510">
        <ele>1089.0</ele>
        <time>2021-08-21T05:32:13Z</time>
      </trkpt>
      <trkpt lat="42.7076230" lon="-5.4851460">
        <ele>1089.0</ele>
        <time>2021-08-21T05:32:14Z</time>
      </trkpt>
      <trkpt lat="42.7076500" lon="-5.4851380">
        <ele>1089.0</ele>
        <time>2021-08-21T05:32:15Z</time>
      </trkpt>
      <trkpt lat="42.7076780" lon="-5.4851300">
        <ele>1089.0</ele>
        <time>2021-08-21T05:32:16Z</time>
      </trkpt>
      <trkpt lat="42.7077060" lon="-5.4851210">
        <ele>1089.0</ele>
        <time>2021-08-21T05:32:17Z</time>
      </trkpt>
      <trkpt lat="42.7077330" lon="-5.4851120">
        <ele>1089.0</ele>
        <time>2021-08-21T05:32:18Z</time>
      </trkpt>
      <trkpt lat="42.7077590" lon="-5.4851030">
        <ele>1089.0</ele>
        <time>2021-08-21T05:32:19Z</time>
      </trkpt>
      <trkpt lat="42.7077860" lon="-5.4850930">
        <ele>1089.0</ele>
        <time>2021-08-21T05:32:20Z</time>
      </trkpt>
      <trkpt lat="42.7078120" lon="-5.4850810">
        <ele>1089.0</ele>
        <time>2021-08-21T05:32:21Z</time>
      </trkpt>
      <trkpt lat="42.7078400" lon="-5.4850700">
        <ele>1089.0</ele>
        <time>2021-08-21T05:32:22Z</time>
      </trkpt>
      <trkpt lat="42.7078650" lon="-5.4850600">
        <ele>1089.0</ele>
        <time>2021-08-21T05:32:23Z</time>
      </trkpt>
      <trkpt lat="42.7078910" lon="-5.4850520">
        <ele>1089.0</ele>
        <time>2021-08-21T05:32:24Z</time>
      </trkpt>
      <trkpt lat="42.7079180" lon="-5.4850440">
        <ele>1089.0</ele>
        <time>2021-08-21T05:32:25Z</time>
      </trkpt>
      <trkpt lat="42.7079440" lon="-5.4850350">
        <ele>1089.0</ele>
        <time>2021-08-21T05:32:26Z</time>
      </trkpt>
      <trkpt lat="42.7079700" lon="-5.4850230">
        <ele>1089.0</ele>
        <time>2021-08-21T05:32:27Z</time>
      </trkpt>
      <trkpt lat="42.7079950" lon="-5.4850110">
        <ele>1089.0</ele>
        <time>2021-08-21T05:32:28Z</time>
      </trkpt>
      <trkpt lat="42.7080310" lon="-5.4849920">
        <ele>1089.0</ele>
        <time>2021-08-21T05:32:29Z</time>
      </trkpt>
      <trkpt lat="42.7080420" lon="-5.4849850">
        <ele>1089.0</ele>
        <time>2021-08-21T05:32:30Z</time>
      </trkpt>
      <trkpt lat="42.7080680" lon="-5.4849720">
        <ele>1089.0</ele>
        <time>2021-08-21T05:32:31Z</time>
      </trkpt>
      <trkpt lat="42.7080910" lon="-5.4849590">
        <ele>1089.0</ele>
        <time>2021-08-21T05:32:32Z</time>
      </trkpt>
      <trkpt lat="42.7081160" lon="-5.4849450">
        <ele>1089.0</ele>
        <time>2021-08-21T05:32:33Z</time>
      </trkpt>
      <trkpt lat="42.7081410" lon="-5.4849310">
        <ele>1089.0</ele>
        <time>2021-08-21T05:32:34Z</time>
      </trkpt>
      <trkpt lat="42.7081650" lon="-5.4849170">
        <ele>1089.0</ele>
        <time>2021-08-21T05:32:35Z</time>
      </trkpt>
      <trkpt lat="42.7081650" lon="-5.4849170">
        <ele>1089.0</ele>
        <time>2021-08-21T05:32:36Z</time>
      </trkpt>
      <trkpt lat="42.7082150" lon="-5.4848960">
        <ele>1089.0</ele>
        <time>2021-08-21T05:32:37Z</time>
      </trkpt>
      <trkpt lat="42.7082410" lon="-5.4848850">
        <ele>1089.0</ele>
        <time>2021-08-21T05:32:38Z</time>
      </trkpt>
      <trkpt lat="42.7082650" lon="-5.4848730">
        <ele>1089.0</ele>
        <time>2021-08-21T05:32:39Z</time>
      </trkpt>
      <trkpt lat="42.7082910" lon="-5.4848620">
        <ele>1089.0</ele>
        <time>2021-08-21T05:32:40Z</time>
      </trkpt>
      <trkpt lat="42.7083150" lon="-5.4848520">
        <ele>1089.0</ele>
        <time>2021-08-21T05:32:41Z</time>
      </trkpt>
      <trkpt lat="42.7083400" lon="-5.4848420">
        <ele>1089.0</ele>
        <time>2021-08-21T05:32:42Z</time>
      </trkpt>
      <trkpt lat="42.7083660" lon="-5.4848320">
        <ele>1089.0</ele>
        <time>2021-08-21T05:32:43Z</time>
      </trkpt>
      <trkpt lat="42.7084060" lon="-5.4848170">
        <ele>1089.0</ele>
        <time>2021-08-21T05:32:44Z</time>
      </trkpt>
      <trkpt lat="42.7084190" lon="-5.4848110">
        <ele>1089.0</ele>
        <time>2021-08-21T05:32:45Z</time>
      </trkpt>
      <trkpt lat="42.7084440" lon="-5.4848010">
        <ele>1089.0</ele>
        <time>2021-08-21T05:32:46Z</time>
      </trkpt>
      <trkpt lat="42.7084690" lon="-5.4847890">
        <ele>1089.0</ele>
        <time>2021-08-21T05:32:47Z</time>
      </trkpt>
      <trkpt lat="42.7084950" lon="-5.4847770">
        <ele>1089.0</ele>
        <time>2021-08-21T05:32:48Z</time>
      </trkpt>
      <trkpt lat="42.7085320" lon="-5.4847600">
        <ele>1089.0</ele>
        <time>2021-08-21T05:32:49Z</time>
      </trkpt>
      <trkpt lat="42.7085430" lon="-5.4847540">
        <ele>1089.0</ele>
        <time>2021-08-21T05:32:50Z</time>
      </trkpt>
      <trkpt lat="42.7085660" lon="-5.4847410">
        <ele>1089.0</ele>
        <time>2021-08-21T05:32:51Z</time>
      </trkpt>
      <trkpt lat="42.7085880" lon="-5.4847240">
        <ele>1089.0</ele>
        <time>2021-08-21T05:32:52Z</time>
      </trkpt>
      <trkpt lat="42.7086110" lon="-5.4847090">
        <ele>1089.0</ele>
        <time>2021-08-21T05:32:53Z</time>
      </trkpt>
      <trkpt lat="42.7086370" lon="-5.4846960">
        <ele>1089.0</ele>
        <time>2021-08-21T05:32:54Z</time>
      </trkpt>
      <trkpt lat="42.7086630" lon="-5.4846830">
        <ele>1089.0</ele>
        <time>2021-08-21T05:32:55Z</time>
      </trkpt>
      <trkpt lat="42.7086890" lon="-5.4846730">
        <ele>1089.0</ele>
        <time>2021-08-21T05:32:56Z</time>
      </trkpt>
      <trkpt lat="42.7087160" lon="-5.4846630">
        <ele>1089.0</ele>
        <time>2021-08-21T05:32:57Z</time>
      </trkpt>
      <trkpt lat="42.7087420" lon="-5.4846530">
        <ele>1089.0</ele>
        <time>2021-08-21T05:32:58Z</time>
      </trkpt>
      <trkpt lat="42.7087670" lon="-5.4846390">
        <ele>1089.0</ele>
        <time>2021-08-21T05:32:59Z</time>
      </trkpt>
      <trkpt lat="42.7087920" lon="-5.4846270">
        <ele>1089.0</ele>
        <time>2021-08-21T05:33:00Z</time>
      </trkpt>
      <trkpt lat="42.7088190" lon="-5.4846140">
        <ele>1089.0</ele>
        <time>2021-08-21T05:33:01Z</time>
      </trkpt>
      <trkpt lat="42.7088450" lon="-5.4846020">
        <ele>1090.0</ele>
        <time>2021-08-21T05:33:02Z</time>
      </trkpt>
      <trkpt lat="42.7088730" lon="-5.4845900">
        <ele>1090.0</ele>
        <time>2021-08-21T05:33:03Z</time>
      </trkpt>
      <trkpt lat="42.7089000" lon="-5.4845810">
        <ele>1090.0</ele>
        <time>2021-08-21T05:33:04Z</time>
      </trkpt>
      <trkpt lat="42.7089280" lon="-5.4845740">
        <ele>1090.0</ele>
        <time>2021-08-21T05:33:05Z</time>
      </trkpt>
      <trkpt lat="42.7089560" lon="-5.4845660">
        <ele>1090.0</ele>
        <time>2021-08-21T05:33:06Z</time>
      </trkpt>
      <trkpt lat="42.7089820" lon="-5.4845580">
        <ele>1090.0</ele>
        <time>2021-08-21T05:33:07Z</time>
      </trkpt>
      <trkpt lat="42.7090090" lon="-5.4845470">
        <ele>1090.0</ele>
        <time>2021-08-21T05:33:08Z</time>
      </trkpt>
      <trkpt lat="42.7090330" lon="-5.4845360">
        <ele>1090.0</ele>
        <time>2021-08-21T05:33:09Z</time>
      </trkpt>
      <trkpt lat="42.7090670" lon="-5.4845190">
        <ele>1090.0</ele>
        <time>2021-08-21T05:33:10Z</time>
      </trkpt>
      <trkpt lat="42.7090790" lon="-5.4845140">
        <ele>1090.0</ele>
        <time>2021-08-21T05:33:11Z</time>
      </trkpt>
      <trkpt lat="42.7091030" lon="-5.4845020">
        <ele>1090.0</ele>
        <time>2021-08-21T05:33:12Z</time>
      </trkpt>
      <trkpt lat="42.7091260" lon="-5.4844930">
        <ele>1090.0</ele>
        <time>2021-08-21T05:33:13Z</time>
      </trkpt>
      <trkpt lat="42.7091500" lon="-5.4844840">
        <ele>1090.0</ele>
        <time>2021-08-21T05:33:14Z</time>
      </trkpt>
      <trkpt lat="42.7091740" lon="-5.4844720">
        <ele>1090.0</ele>
        <time>2021-08-21T05:33:15Z</time>
      </trkpt>
      <trkpt lat="42.7091970" lon="-5.4844590">
        <ele>1090.0</ele>
        <time>2021-08-21T05:33:16Z</time>
      </trkpt>
      <trkpt lat="42.7092200" lon="-5.4844460">
        <ele>1090.0</ele>
        <time>2021-08-21T05:33:17Z</time>
      </trkpt>
      <trkpt lat="42.7092430" lon="-5.4844340">
        <ele>1090.0</ele>
        <time>2021-08-21T05:33:18Z</time>
      </trkpt>
      <trkpt lat="42.7092800" lon="-5.4844190">
        <ele>1090.0</ele>
        <time>2021-08-21T05:33:19Z</time>
      </trkpt>
      <trkpt lat="42.7092920" lon="-5.4844130">
        <ele>1090.0</ele>
        <time>2021-08-21T05:33:20Z</time>
      </trkpt>
      <trkpt lat="42.7093190" lon="-5.4844030">
        <ele>1090.0</ele>
        <time>2021-08-21T05:33:21Z</time>
      </trkpt>
      <trkpt lat="42.7093570" lon="-5.4843840">
        <ele>1090.0</ele>
        <time>2021-08-21T05:33:22Z</time>
      </trkpt>
      <trkpt lat="42.7093690" lon="-5.4843770">
        <ele>1090.0</ele>
        <time>2021-08-21T05:33:23Z</time>
      </trkpt>
      <trkpt lat="42.7093950" lon="-5.4843630">
        <ele>1090.0</ele>
        <time>2021-08-21T05:33:24Z</time>
      </trkpt>
      <trkpt lat="42.7094210" lon="-5.4843480">
        <ele>1090.0</ele>
        <time>2021-08-21T05:33:25Z</time>
      </trkpt>
      <trkpt lat="42.7094460" lon="-5.4843340">
        <ele>1091.0</ele>
        <time>2021-08-21T05:33:26Z</time>
      </trkpt>
      <trkpt lat="42.7094690" lon="-5.4843220">
        <ele>1091.0</ele>
        <time>2021-08-21T05:33:27Z</time>
      </trkpt>
      <trkpt lat="42.7094930" lon="-5.4843080">
        <ele>1091.0</ele>
        <time>2021-08-21T05:33:28Z</time>
      </trkpt>
      <trkpt lat="42.7095310" lon="-5.4842890">
        <ele>1091.0</ele>
        <time>2021-08-21T05:33:29Z</time>
      </trkpt>
      <trkpt lat="42.7095440" lon="-5.4842830">
        <ele>1091.0</ele>
        <time>2021-08-21T05:33:30Z</time>
      </trkpt>
      <trkpt lat="42.7095700" lon="-5.4842680">
        <ele>1091.0</ele>
        <time>2021-08-21T05:33:31Z</time>
      </trkpt>
      <trkpt lat="42.7096080" lon="-5.4842470">
        <ele>1091.0</ele>
        <time>2021-08-21T05:33:32Z</time>
      </trkpt>
      <trkpt lat="42.7096200" lon="-5.4842400">
        <ele>1091.0</ele>
        <time>2021-08-21T05:33:33Z</time>
      </trkpt>
      <trkpt lat="42.7096570" lon="-5.4842210">
        <ele>1091.0</ele>
        <time>2021-08-21T05:33:34Z</time>
      </trkpt>
      <trkpt lat="42.7096680" lon="-5.4842140">
        <ele>1091.0</ele>
        <time>2021-08-21T05:33:35Z</time>
      </trkpt>
      <trkpt lat="42.7097030" lon="-5.4841880">
        <ele>1091.0</ele>
        <time>2021-08-21T05:33:36Z</time>
      </trkpt>
      <trkpt lat="42.7097150" lon="-5.4841790">
        <ele>1090.0</ele>
        <time>2021-08-21T05:33:37Z</time>
      </trkpt>
      <trkpt lat="42.7097410" lon="-5.4841610">
        <ele>1090.0</ele>
        <time>2021-08-21T05:33:38Z</time>
      </trkpt>
      <trkpt lat="42.7097650" lon="-5.4841430">
        <ele>1091.0</ele>
        <time>2021-08-21T05:33:39Z</time>
      </trkpt>
      <trkpt lat="42.7097860" lon="-5.4841240">
        <ele>1090.0</ele>
        <time>2021-08-21T05:33:40Z</time>
      </trkpt>
      <trkpt lat="42.7098080" lon="-5.4841060">
        <ele>1090.0</ele>
        <time>2021-08-21T05:33:41Z</time>
      </trkpt>
      <trkpt lat="42.7098310" lon="-5.4840900">
        <ele>1090.0</ele>
        <time>2021-08-21T05:33:42Z</time>
      </trkpt>
      <trkpt lat="42.7098530" lon="-5.4840740">
        <ele>1090.0</ele>
        <time>2021-08-21T05:33:43Z</time>
      </trkpt>
      <trkpt lat="42.7098770" lon="-5.4840570">
        <ele>1090.0</ele>
        <time>2021-08-21T05:33:44Z</time>
      </trkpt>
      <trkpt lat="42.7099000" lon="-5.4840400">
        <ele>1090.0</ele>
        <time>2021-08-21T05:33:45Z</time>
      </trkpt>
      <trkpt lat="42.7099240" lon="-5.4840240">
        <ele>1090.0</ele>
        <time>2021-08-21T05:33:46Z</time>
      </trkpt>
      <trkpt lat="42.7099470" lon="-5.4840070">
        <ele>1090.0</ele>
        <time>2021-08-21T05:33:47Z</time>
      </trkpt>
      <trkpt lat="42.7099790" lon="-5.4839880">
        <ele>1090.0</ele>
        <time>2021-08-21T05:33:48Z</time>
      </trkpt>
      <trkpt lat="42.7099890" lon="-5.4839820">
        <ele>1090.0</ele>
        <time>2021-08-21T05:33:49Z</time>
      </trkpt>
      <trkpt lat="42.7100120" lon="-5.4839710">
        <ele>1090.0</ele>
        <time>2021-08-21T05:33:50Z</time>
      </trkpt>
      <trkpt lat="42.7100500" lon="-5.4839520">
        <ele>1090.0</ele>
        <time>2021-08-21T05:33:51Z</time>
      </trkpt>
      <trkpt lat="42.7100660" lon="-5.4839440">
        <ele>1090.0</ele>
        <time>2021-08-21T05:33:53Z</time>
      </trkpt>
      <trkpt lat="42.7100810" lon="-5.4839370">
        <ele>1090.0</ele>
        <time>2021-08-21T05:33:54Z</time>
      </trkpt>
      <trkpt lat="42.7101320" lon="-5.4839150">
        <ele>1090.0</ele>
        <time>2021-08-21T05:33:55Z</time>
      </trkpt>
      <trkpt lat="42.7101560" lon="-5.4839040">
        <ele>1090.0</ele>
        <time>2021-08-21T05:33:56Z</time>
      </trkpt>
      <trkpt lat="42.7101800" lon="-5.4838960">
        <ele>1090.0</ele>
        <time>2021-08-21T05:33:57Z</time>
      </trkpt>
      <trkpt lat="42.7102050" lon="-5.4838910">
        <ele>1090.0</ele>
        <time>2021-08-21T05:33:58Z</time>
      </trkpt>
      <trkpt lat="42.7102280" lon="-5.4838830">
        <ele>1090.0</ele>
        <time>2021-08-21T05:33:59Z</time>
      </trkpt>
      <trkpt lat="42.7102520" lon="-5.4838750">
        <ele>1090.0</ele>
        <time>2021-08-21T05:34:00Z</time>
      </trkpt>
      <trkpt lat="42.7102760" lon="-5.4838650">
        <ele>1090.0</ele>
        <time>2021-08-21T05:34:01Z</time>
      </trkpt>
      <trkpt lat="42.7102990" lon="-5.4838560">
        <ele>1090.0</ele>
        <time>2021-08-21T05:34:02Z</time>
      </trkpt>
      <trkpt lat="42.7103250" lon="-5.4838470">
        <ele>1090.0</ele>
        <time>2021-08-21T05:34:03Z</time>
      </trkpt>
      <trkpt lat="42.7103490" lon="-5.4838390">
        <ele>1090.0</ele>
        <time>2021-08-21T05:34:04Z</time>
      </trkpt>
      <trkpt lat="42.7103730" lon="-5.4838300">
        <ele>1090.0</ele>
        <time>2021-08-21T05:34:05Z</time>
      </trkpt>
      <trkpt lat="42.7104060" lon="-5.4838150">
        <ele>1090.0</ele>
        <time>2021-08-21T05:34:06Z</time>
      </trkpt>
      <trkpt lat="42.7104160" lon="-5.4838100">
        <ele>1090.0</ele>
        <time>2021-08-21T05:34:07Z</time>
      </trkpt>
      <trkpt lat="42.7104390" lon="-5.4838010">
        <ele>1090.0</ele>
        <time>2021-08-21T05:34:08Z</time>
      </trkpt>
      <trkpt lat="42.7104640" lon="-5.4837920">
        <ele>1090.0</ele>
        <time>2021-08-21T05:34:09Z</time>
      </trkpt>
      <trkpt lat="42.7104890" lon="-5.4837840">
        <ele>1090.0</ele>
        <time>2021-08-21T05:34:10Z</time>
      </trkpt>
      <trkpt lat="42.7105140" lon="-5.4837760">
        <ele>1090.0</ele>
        <time>2021-08-21T05:34:11Z</time>
      </trkpt>
      <trkpt lat="42.7105140" lon="-5.4837760">
        <ele>1090.0</ele>
        <time>2021-08-21T05:34:12Z</time>
      </trkpt>
      <trkpt lat="42.7105590" lon="-5.4837630">
        <ele>1091.0</ele>
        <time>2021-08-21T05:34:13Z</time>
      </trkpt>
      <trkpt lat="42.7105850" lon="-5.4837540">
        <ele>1091.0</ele>
        <time>2021-08-21T05:34:14Z</time>
      </trkpt>
      <trkpt lat="42.7106070" lon="-5.4837470">
        <ele>1091.0</ele>
        <time>2021-08-21T05:34:15Z</time>
      </trkpt>
      <trkpt lat="42.7106300" lon="-5.4837400">
        <ele>1091.0</ele>
        <time>2021-08-21T05:34:16Z</time>
      </trkpt>
      <trkpt lat="42.7106550" lon="-5.4837330">
        <ele>1091.0</ele>
        <time>2021-08-21T05:34:17Z</time>
      </trkpt>
      <trkpt lat="42.7106780" lon="-5.4837270">
        <ele>1091.0</ele>
        <time>2021-08-21T05:34:18Z</time>
      </trkpt>
      <trkpt lat="42.7107000" lon="-5.4837200">
        <ele>1091.0</ele>
        <time>2021-08-21T05:34:19Z</time>
      </trkpt>
      <trkpt lat="42.7107210" lon="-5.4837130">
        <ele>1091.0</ele>
        <time>2021-08-21T05:34:20Z</time>
      </trkpt>
      <trkpt lat="42.7107440" lon="-5.4837080">
        <ele>1091.0</ele>
        <time>2021-08-21T05:34:21Z</time>
      </trkpt>
      <trkpt lat="42.7107670" lon="-5.4837030">
        <ele>1091.0</ele>
        <time>2021-08-21T05:34:22Z</time>
      </trkpt>
      <trkpt lat="42.7107920" lon="-5.4836970">
        <ele>1091.0</ele>
        <time>2021-08-21T05:34:23Z</time>
      </trkpt>
      <trkpt lat="42.7108170" lon="-5.4836920">
        <ele>1091.0</ele>
        <time>2021-08-21T05:34:24Z</time>
      </trkpt>
      <trkpt lat="42.7108420" lon="-5.4836870">
        <ele>1091.0</ele>
        <time>2021-08-21T05:34:25Z</time>
      </trkpt>
      <trkpt lat="42.7108690" lon="-5.4836820">
        <ele>1091.0</ele>
        <time>2021-08-21T05:34:26Z</time>
      </trkpt>
      <trkpt lat="42.7108940" lon="-5.4836750">
        <ele>1091.0</ele>
        <time>2021-08-21T05:34:27Z</time>
      </trkpt>
      <trkpt lat="42.7109180" lon="-5.4836710">
        <ele>1091.0</ele>
        <time>2021-08-21T05:34:28Z</time>
      </trkpt>
      <trkpt lat="42.7109410" lon="-5.4836670">
        <ele>1091.0</ele>
        <time>2021-08-21T05:34:29Z</time>
      </trkpt>
      <trkpt lat="42.7109640" lon="-5.4836630">
        <ele>1091.0</ele>
        <time>2021-08-21T05:34:30Z</time>
      </trkpt>
      <trkpt lat="42.7109900" lon="-5.4836560">
        <ele>1091.0</ele>
        <time>2021-08-21T05:34:31Z</time>
      </trkpt>
      <trkpt lat="42.7110280" lon="-5.4836470">
        <ele>1091.0</ele>
        <time>2021-08-21T05:34:32Z</time>
      </trkpt>
      <trkpt lat="42.7110400" lon="-5.4836430">
        <ele>1091.0</ele>
        <time>2021-08-21T05:34:33Z</time>
      </trkpt>
      <trkpt lat="42.7110640" lon="-5.4836360">
        <ele>1091.0</ele>
        <time>2021-08-21T05:34:34Z</time>
      </trkpt>
      <trkpt lat="42.7110880" lon="-5.4836320">
        <ele>1091.0</ele>
        <time>2021-08-21T05:34:35Z</time>
      </trkpt>
      <trkpt lat="42.7111110" lon="-5.4836290">
        <ele>1091.0</ele>
        <time>2021-08-21T05:34:36Z</time>
      </trkpt>
      <trkpt lat="42.7111370" lon="-5.4836250">
        <ele>1092.0</ele>
        <time>2021-08-21T05:34:37Z</time>
      </trkpt>
      <trkpt lat="42.7111600" lon="-5.4836210">
        <ele>1092.0</ele>
        <time>2021-08-21T05:34:38Z</time>
      </trkpt>
      <trkpt lat="42.7111840" lon="-5.4836170">
        <ele>1092.0</ele>
        <time>2021-08-21T05:34:39Z</time>
      </trkpt>
      <trkpt lat="42.7112080" lon="-5.4836140">
        <ele>1092.0</ele>
        <time>2021-08-21T05:34:40Z</time>
      </trkpt>
      <trkpt lat="42.7112310" lon="-5.4836110">
        <ele>1092.0</ele>
        <time>2021-08-21T05:34:41Z</time>
      </trkpt>
      <trkpt lat="42.7112550" lon="-5.4836080">
        <ele>1092.0</ele>
        <time>2021-08-21T05:34:42Z</time>
      </trkpt>
      <trkpt lat="42.7112780" lon="-5.4836040">
        <ele>1092.0</ele>
        <time>2021-08-21T05:34:43Z</time>
      </trkpt>
      <trkpt lat="42.7113010" lon="-5.4835970">
        <ele>1092.0</ele>
        <time>2021-08-21T05:34:44Z</time>
      </trkpt>
      <trkpt lat="42.7113340" lon="-5.4835920">
        <ele>1092.0</ele>
        <time>2021-08-21T05:34:45Z</time>
      </trkpt>
      <trkpt lat="42.7113460" lon="-5.4835900">
        <ele>1092.0</ele>
        <time>2021-08-21T05:34:46Z</time>
      </trkpt>
      <trkpt lat="42.7113700" lon="-5.4835880">
        <ele>1092.0</ele>
        <time>2021-08-21T05:34:47Z</time>
      </trkpt>
      <trkpt lat="42.7114070" lon="-5.4835820">
        <ele>1092.0</ele>
        <time>2021-08-21T05:34:48Z</time>
      </trkpt>
      <trkpt lat="42.7114190" lon="-5.4835800">
        <ele>1093.0</ele>
        <time>2021-08-21T05:34:49Z</time>
      </trkpt>
      <trkpt lat="42.7114430" lon="-5.4835760">
        <ele>1093.0</ele>
        <time>2021-08-21T05:34:50Z</time>
      </trkpt>
      <trkpt lat="42.7114770" lon="-5.4835700">
        <ele>1093.0</ele>
        <time>2021-08-21T05:34:51Z</time>
      </trkpt>
      <trkpt lat="42.7114880" lon="-5.4835670">
        <ele>1093.0</ele>
        <time>2021-08-21T05:34:52Z</time>
      </trkpt>
      <trkpt lat="42.7115230" lon="-5.4835600">
        <ele>1093.0</ele>
        <time>2021-08-21T05:34:53Z</time>
      </trkpt>
      <trkpt lat="42.7115350" lon="-5.4835570">
        <ele>1093.0</ele>
        <time>2021-08-21T05:34:54Z</time>
      </trkpt>
      <trkpt lat="42.7115590" lon="-5.4835500">
        <ele>1093.0</ele>
        <time>2021-08-21T05:34:55Z</time>
      </trkpt>
      <trkpt lat="42.7115830" lon="-5.4835460">
        <ele>1093.0</ele>
        <time>2021-08-21T05:34:56Z</time>
      </trkpt>
      <trkpt lat="42.7116050" lon="-5.4835420">
        <ele>1093.0</ele>
        <time>2021-08-21T05:34:57Z</time>
      </trkpt>
      <trkpt lat="42.7116280" lon="-5.4835370">
        <ele>1094.0</ele>
        <time>2021-08-21T05:34:58Z</time>
      </trkpt>
      <trkpt lat="42.7116520" lon="-5.4835300">
        <ele>1094.0</ele>
        <time>2021-08-21T05:34:59Z</time>
      </trkpt>
      <trkpt lat="42.7116760" lon="-5.4835240">
        <ele>1094.0</ele>
        <time>2021-08-21T05:35:00Z</time>
      </trkpt>
      <trkpt lat="42.7117010" lon="-5.4835180">
        <ele>1094.0</ele>
        <time>2021-08-21T05:35:01Z</time>
      </trkpt>
      <trkpt lat="42.7117280" lon="-5.4835120">
        <ele>1094.0</ele>
        <time>2021-08-21T05:35:02Z</time>
      </trkpt>
      <trkpt lat="42.7117520" lon="-5.4835080">
        <ele>1094.0</ele>
        <time>2021-08-21T05:35:03Z</time>
      </trkpt>
      <trkpt lat="42.7117800" lon="-5.4835030">
        <ele>1094.0</ele>
        <time>2021-08-21T05:35:04Z</time>
      </trkpt>
      <trkpt lat="42.7118100" lon="-5.4834990">
        <ele>1094.0</ele>
        <time>2021-08-21T05:35:05Z</time>
      </trkpt>
      <trkpt lat="42.7118380" lon="-5.4834930">
        <ele>1094.0</ele>
        <time>2021-08-21T05:35:06Z</time>
      </trkpt>
      <trkpt lat="42.7118790" lon="-5.4834840">
        <ele>1094.0</ele>
        <time>2021-08-21T05:35:07Z</time>
      </trkpt>
      <trkpt lat="42.7118920" lon="-5.4834810">
        <ele>1094.0</ele>
        <time>2021-08-21T05:35:08Z</time>
      </trkpt>
      <trkpt lat="42.7119330" lon="-5.4834740">
        <ele>1094.0</ele>
        <time>2021-08-21T05:35:09Z</time>
      </trkpt>
      <trkpt lat="42.7119470" lon="-5.4834710">
        <ele>1094.0</ele>
        <time>2021-08-21T05:35:10Z</time>
      </trkpt>
      <trkpt lat="42.7119760" lon="-5.4834660">
        <ele>1094.0</ele>
        <time>2021-08-21T05:35:11Z</time>
      </trkpt>
      <trkpt lat="42.7120020" lon="-5.4834640">
        <ele>1094.0</ele>
        <time>2021-08-21T05:35:12Z</time>
      </trkpt>
      <trkpt lat="42.7120310" lon="-5.4834620">
        <ele>1094.0</ele>
        <time>2021-08-21T05:35:13Z</time>
      </trkpt>
      <trkpt lat="42.7120590" lon="-5.4834590">
        <ele>1094.0</ele>
        <time>2021-08-21T05:35:14Z</time>
      </trkpt>
      <trkpt lat="42.7120890" lon="-5.4834550">
        <ele>1094.0</ele>
        <time>2021-08-21T05:35:15Z</time>
      </trkpt>
      <trkpt lat="42.7121180" lon="-5.4834500">
        <ele>1094.0</ele>
        <time>2021-08-21T05:35:16Z</time>
      </trkpt>
      <trkpt lat="42.7121480" lon="-5.4834460">
        <ele>1094.0</ele>
        <time>2021-08-21T05:35:17Z</time>
      </trkpt>
      <trkpt lat="42.7121770" lon="-5.4834420">
        <ele>1094.0</ele>
        <time>2021-08-21T05:35:18Z</time>
      </trkpt>
      <trkpt lat="42.7122050" lon="-5.4834390">
        <ele>1094.0</ele>
        <time>2021-08-21T05:35:19Z</time>
      </trkpt>
      <trkpt lat="42.7122450" lon="-5.4834350">
        <ele>1094.0</ele>
        <time>2021-08-21T05:35:20Z</time>
      </trkpt>
      <trkpt lat="42.7122580" lon="-5.4834330">
        <ele>1094.0</ele>
        <time>2021-08-21T05:35:21Z</time>
      </trkpt>
      <trkpt lat="42.7122860" lon="-5.4834300">
        <ele>1094.0</ele>
        <time>2021-08-21T05:35:22Z</time>
      </trkpt>
      <trkpt lat="42.7123120" lon="-5.4834260">
        <ele>1094.0</ele>
        <time>2021-08-21T05:35:23Z</time>
      </trkpt>
      <trkpt lat="42.7123410" lon="-5.4834240">
        <ele>1094.0</ele>
        <time>2021-08-21T05:35:24Z</time>
      </trkpt>
      <trkpt lat="42.7123670" lon="-5.4834230">
        <ele>1094.0</ele>
        <time>2021-08-21T05:35:25Z</time>
      </trkpt>
      <trkpt lat="42.7124080" lon="-5.4834190">
        <ele>1094.0</ele>
        <time>2021-08-21T05:35:26Z</time>
      </trkpt>
      <trkpt lat="42.7124220" lon="-5.4834170">
        <ele>1094.0</ele>
        <time>2021-08-21T05:35:27Z</time>
      </trkpt>
      <trkpt lat="42.7124490" lon="-5.4834130">
        <ele>1094.0</ele>
        <time>2021-08-21T05:35:28Z</time>
      </trkpt>
      <trkpt lat="42.7124750" lon="-5.4834090">
        <ele>1094.0</ele>
        <time>2021-08-21T05:35:29Z</time>
      </trkpt>
      <trkpt lat="42.7125020" lon="-5.4834070">
        <ele>1094.0</ele>
        <time>2021-08-21T05:35:30Z</time>
      </trkpt>
      <trkpt lat="42.7125310" lon="-5.4834040">
        <ele>1094.0</ele>
        <time>2021-08-21T05:35:31Z</time>
      </trkpt>
      <trkpt lat="42.7125590" lon="-5.4834010">
        <ele>1094.0</ele>
        <time>2021-08-21T05:35:32Z</time>
      </trkpt>
      <trkpt lat="42.7125880" lon="-5.4833980">
        <ele>1094.0</ele>
        <time>2021-08-21T05:35:33Z</time>
      </trkpt>
      <trkpt lat="42.7126160" lon="-5.4833970">
        <ele>1094.0</ele>
        <time>2021-08-21T05:35:34Z</time>
      </trkpt>
      <trkpt lat="42.7126430" lon="-5.4833950">
        <ele>1094.0</ele>
        <time>2021-08-21T05:35:35Z</time>
      </trkpt>
      <trkpt lat="42.7126830" lon="-5.4833940">
        <ele>1094.0</ele>
        <time>2021-08-21T05:35:36Z</time>
      </trkpt>
      <trkpt lat="42.7126960" lon="-5.4833920">
        <ele>1093.0</ele>
        <time>2021-08-21T05:35:37Z</time>
      </trkpt>
      <trkpt lat="42.7127230" lon="-5.4833870">
        <ele>1093.0</ele>
        <time>2021-08-21T05:35:38Z</time>
      </trkpt>
      <trkpt lat="42.7127500" lon="-5.4833840">
        <ele>1093.0</ele>
        <time>2021-08-21T05:35:39Z</time>
      </trkpt>
      <trkpt lat="42.7127780" lon="-5.4833830">
        <ele>1093.0</ele>
        <time>2021-08-21T05:35:40Z</time>
      </trkpt>
      <trkpt lat="42.7128050" lon="-5.4833810">
        <ele>1093.0</ele>
        <time>2021-08-21T05:35:41Z</time>
      </trkpt>
      <trkpt lat="42.7128330" lon="-5.4833780">
        <ele>1093.0</ele>
        <time>2021-08-21T05:35:42Z</time>
      </trkpt>
      <trkpt lat="42.7128590" lon="-5.4833750">
        <ele>1093.0</ele>
        <time>2021-08-21T05:35:43Z</time>
      </trkpt>
      <trkpt lat="42.7128860" lon="-5.4833730">
        <ele>1093.0</ele>
        <time>2021-08-21T05:35:44Z</time>
      </trkpt>
      <trkpt lat="42.7129250" lon="-5.4833680">
        <ele>1093.0</ele>
        <time>2021-08-21T05:35:45Z</time>
      </trkpt>
      <trkpt lat="42.7129370" lon="-5.4833650">
        <ele>1094.0</ele>
        <time>2021-08-21T05:35:46Z</time>
      </trkpt>
      <trkpt lat="42.7129630" lon="-5.4833630">
        <ele>1094.0</ele>
        <time>2021-08-21T05:35:47Z</time>
      </trkpt>
      <trkpt lat="42.7129900" lon="-5.4833620">
        <ele>1093.0</ele>
        <time>2021-08-21T05:35:48Z</time>
      </trkpt>
      <trkpt lat="42.7130290" lon="-5.4833590">
        <ele>1093.0</ele>
        <time>2021-08-21T05:35:49Z</time>
      </trkpt>
      <trkpt lat="42.7130420" lon="-5.4833570">
        <ele>1093.0</ele>
        <time>2021-08-21T05:35:50Z</time>
      </trkpt>
      <trkpt lat="42.7130680" lon="-5.4833520">
        <ele>1093.0</ele>
        <time>2021-08-21T05:35:51Z</time>
      </trkpt>
      <trkpt lat="42.7131070" lon="-5.4833520">
        <ele>1093.0</ele>
        <time>2021-08-21T05:35:52Z</time>
      </trkpt>
      <trkpt lat="42.7131200" lon="-5.4833530">
        <ele>1094.0</ele>
        <time>2021-08-21T05:35:53Z</time>
      </trkpt>
      <trkpt lat="42.7131450" lon="-5.4833520">
        <ele>1094.0</ele>
        <time>2021-08-21T05:35:54Z</time>
      </trkpt>
      <trkpt lat="42.7131700" lon="-5.4833500">
        <ele>1094.0</ele>
        <time>2021-08-21T05:35:55Z</time>
      </trkpt>
      <trkpt lat="42.7131970" lon="-5.4833480">
        <ele>1093.0</ele>
        <time>2021-08-21T05:35:56Z</time>
      </trkpt>
      <trkpt lat="42.7132340" lon="-5.4833490">
        <ele>1093.0</ele>
        <time>2021-08-21T05:35:57Z</time>
      </trkpt>
      <trkpt lat="42.7132470" lon="-5.4833480">
        <ele>1093.0</ele>
        <time>2021-08-21T05:35:58Z</time>
      </trkpt>
      <trkpt lat="42.7132710" lon="-5.4833500">
        <ele>1093.0</ele>
        <time>2021-08-21T05:35:59Z</time>
      </trkpt>
      <trkpt lat="42.7132980" lon="-5.4833500">
        <ele>1093.0</ele>
        <time>2021-08-21T05:36:00Z</time>
      </trkpt>
      <trkpt lat="42.7133350" lon="-5.4833480">
        <ele>1093.0</ele>
        <time>2021-08-21T05:36:01Z</time>
      </trkpt>
      <trkpt lat="42.7133480" lon="-5.4833480">
        <ele>1093.0</ele>
        <time>2021-08-21T05:36:02Z</time>
      </trkpt>
      <trkpt lat="42.7133740" lon="-5.4833490">
        <ele>1093.0</ele>
        <time>2021-08-21T05:36:03Z</time>
      </trkpt>
      <trkpt lat="42.7134010" lon="-5.4833510">
        <ele>1093.0</ele>
        <time>2021-08-21T05:36:04Z</time>
      </trkpt>
      <trkpt lat="42.7134270" lon="-5.4833520">
        <ele>1093.0</ele>
        <time>2021-08-21T05:36:05Z</time>
      </trkpt>
      <trkpt lat="42.7134530" lon="-5.4833510">
        <ele>1093.0</ele>
        <time>2021-08-21T05:36:06Z</time>
      </trkpt>
      <trkpt lat="42.7134790" lon="-5.4833520">
        <ele>1094.0</ele>
        <time>2021-08-21T05:36:07Z</time>
      </trkpt>
      <trkpt lat="42.7135050" lon="-5.4833520">
        <ele>1094.0</ele>
        <time>2021-08-21T05:36:08Z</time>
      </trkpt>
      <trkpt lat="42.7135310" lon="-5.4833560">
        <ele>1094.0</ele>
        <time>2021-08-21T05:36:09Z</time>
      </trkpt>
      <trkpt lat="42.7135570" lon="-5.4833600">
        <ele>1094.0</ele>
        <time>2021-08-21T05:36:10Z</time>
      </trkpt>
      <trkpt lat="42.7135850" lon="-5.4833630">
        <ele>1094.0</ele>
        <time>2021-08-21T05:36:11Z</time>
      </trkpt>
      <trkpt lat="42.7136240" lon="-5.4833650">
        <ele>1094.0</ele>
        <time>2021-08-21T05:36:12Z</time>
      </trkpt>
      <trkpt lat="42.7136370" lon="-5.4833660">
        <ele>1094.0</ele>
        <time>2021-08-21T05:36:13Z</time>
      </trkpt>
      <trkpt lat="42.7136640" lon="-5.4833670">
        <ele>1094.0</ele>
        <time>2021-08-21T05:36:14Z</time>
      </trkpt>
      <trkpt lat="42.7136910" lon="-5.4833680">
        <ele>1094.0</ele>
        <time>2021-08-21T05:36:15Z</time>
      </trkpt>
      <trkpt lat="42.7137170" lon="-5.4833690">
        <ele>1094.0</ele>
        <time>2021-08-21T05:36:16Z</time>
      </trkpt>
      <trkpt lat="42.7137580" lon="-5.4833720">
        <ele>1094.0</ele>
        <time>2021-08-21T05:36:17Z</time>
      </trkpt>
      <trkpt lat="42.7137710" lon="-5.4833740">
        <ele>1094.0</ele>
        <time>2021-08-21T05:36:18Z</time>
      </trkpt>
      <trkpt lat="42.7137960" lon="-5.4833780">
        <ele>1094.0</ele>
        <time>2021-08-21T05:36:19Z</time>
      </trkpt>
      <trkpt lat="42.7138220" lon="-5.4833840">
        <ele>1094.0</ele>
        <time>2021-08-21T05:36:20Z</time>
      </trkpt>
      <trkpt lat="42.7138480" lon="-5.4833870">
        <ele>1094.0</ele>
        <time>2021-08-21T05:36:21Z</time>
      </trkpt>
      <trkpt lat="42.7138740" lon="-5.4833880">
        <ele>1094.0</ele>
        <time>2021-08-21T05:36:22Z</time>
      </trkpt>
      <trkpt lat="42.7139000" lon="-5.4833910">
        <ele>1094.0</ele>
        <time>2021-08-21T05:36:23Z</time>
      </trkpt>
      <trkpt lat="42.7139270" lon="-5.4833950">
        <ele>1094.0</ele>
        <time>2021-08-21T05:36:24Z</time>
      </trkpt>
      <trkpt lat="42.7139530" lon="-5.4833960">
        <ele>1094.0</ele>
        <time>2021-08-21T05:36:25Z</time>
      </trkpt>
      <trkpt lat="42.7139790" lon="-5.4833970">
        <ele>1094.0</ele>
        <time>2021-08-21T05:36:26Z</time>
      </trkpt>
      <trkpt lat="42.7140040" lon="-5.4833940">
        <ele>1094.0</ele>
        <time>2021-08-21T05:36:27Z</time>
      </trkpt>
      <trkpt lat="42.7140270" lon="-5.4833900">
        <ele>1094.0</ele>
        <time>2021-08-21T05:36:28Z</time>
      </trkpt>
      <trkpt lat="42.7140500" lon="-5.4833850">
        <ele>1094.0</ele>
        <time>2021-08-21T05:36:29Z</time>
      </trkpt>
      <trkpt lat="42.7140740" lon="-5.4833800">
        <ele>1094.0</ele>
        <time>2021-08-21T05:36:30Z</time>
      </trkpt>
      <trkpt lat="42.7141000" lon="-5.4833750">
        <ele>1094.0</ele>
        <time>2021-08-21T05:36:31Z</time>
      </trkpt>
      <trkpt lat="42.7141270" lon="-5.4833670">
        <ele>1094.0</ele>
        <time>2021-08-21T05:36:32Z</time>
      </trkpt>
      <trkpt lat="42.7141550" lon="-5.4833570">
        <ele>1094.0</ele>
        <time>2021-08-21T05:36:33Z</time>
      </trkpt>
      <trkpt lat="42.7141800" lon="-5.4833460">
        <ele>1094.0</ele>
        <time>2021-08-21T05:36:34Z</time>
      </trkpt>
      <trkpt lat="42.7142060" lon="-5.4833310">
        <ele>1094.0</ele>
        <time>2021-08-21T05:36:35Z</time>
      </trkpt>
      <trkpt lat="42.7142300" lon="-5.4833180">
        <ele>1094.0</ele>
        <time>2021-08-21T05:36:36Z</time>
      </trkpt>
      <trkpt lat="42.7142550" lon="-5.4833060">
        <ele>1095.0</ele>
        <time>2021-08-21T05:36:37Z</time>
      </trkpt>
      <trkpt lat="42.7142780" lon="-5.4832980">
        <ele>1095.0</ele>
        <time>2021-08-21T05:36:38Z</time>
      </trkpt>
      <trkpt lat="42.7143020" lon="-5.4832900">
        <ele>1095.0</ele>
        <time>2021-08-21T05:36:39Z</time>
      </trkpt>
      <trkpt lat="42.7143240" lon="-5.4832780">
        <ele>1095.0</ele>
        <time>2021-08-21T05:36:40Z</time>
      </trkpt>
      <trkpt lat="42.7143450" lon="-5.4832630">
        <ele>1095.0</ele>
        <time>2021-08-21T05:36:41Z</time>
      </trkpt>
      <trkpt lat="42.7143680" lon="-5.4832430">
        <ele>1095.0</ele>
        <time>2021-08-21T05:36:42Z</time>
      </trkpt>
      <trkpt lat="42.7143680" lon="-5.4832430">
        <ele>1095.0</ele>
        <time>2021-08-21T05:36:43Z</time>
      </trkpt>
      <trkpt lat="42.7144120" lon="-5.4832100">
        <ele>1095.0</ele>
        <time>2021-08-21T05:36:44Z</time>
      </trkpt>
      <trkpt lat="42.7144340" lon="-5.4831950">
        <ele>1095.0</ele>
        <time>2021-08-21T05:36:45Z</time>
      </trkpt>
      <trkpt lat="42.7144660" lon="-5.4831720">
        <ele>1095.0</ele>
        <time>2021-08-21T05:36:46Z</time>
      </trkpt>
      <trkpt lat="42.7144770" lon="-5.4831650">
        <ele>1095.0</ele>
        <time>2021-08-21T05:36:47Z</time>
      </trkpt>
      <trkpt lat="42.7144970" lon="-5.4831520">
        <ele>1095.0</ele>
        <time>2021-08-21T05:36:48Z</time>
      </trkpt>
      <trkpt lat="42.7145180" lon="-5.4831380">
        <ele>1095.0</ele>
        <time>2021-08-21T05:36:49Z</time>
      </trkpt>
      <trkpt lat="42.7145380" lon="-5.4831240">
        <ele>1095.0</ele>
        <time>2021-08-21T05:36:50Z</time>
      </trkpt>
      <trkpt lat="42.7145620" lon="-5.4831090">
        <ele>1095.0</ele>
        <time>2021-08-21T05:36:51Z</time>
      </trkpt>
      <trkpt lat="42.7145850" lon="-5.4830950">
        <ele>1095.0</ele>
        <time>2021-08-21T05:36:52Z</time>
      </trkpt>
      <trkpt lat="42.7146070" lon="-5.4830800">
        <ele>1095.0</ele>
        <time>2021-08-21T05:36:53Z</time>
      </trkpt>
      <trkpt lat="42.7146270" lon="-5.4830640">
        <ele>1095.0</ele>
        <time>2021-08-21T05:36:54Z</time>
      </trkpt>
      <trkpt lat="42.7146590" lon="-5.4830410">
        <ele>1095.0</ele>
        <time>2021-08-21T05:36:55Z</time>
      </trkpt>
      <trkpt lat="42.7146690" lon="-5.4830330">
        <ele>1095.0</ele>
        <time>2021-08-21T05:36:56Z</time>
      </trkpt>
      <trkpt lat="42.7146890" lon="-5.4830180">
        <ele>1096.0</ele>
        <time>2021-08-21T05:36:57Z</time>
      </trkpt>
      <trkpt lat="42.7147210" lon="-5.4829950">
        <ele>1096.0</ele>
        <time>2021-08-21T05:36:58Z</time>
      </trkpt>
      <trkpt lat="42.7147320" lon="-5.4829880">
        <ele>1096.0</ele>
        <time>2021-08-21T05:36:59Z</time>
      </trkpt>
      <trkpt lat="42.7147530" lon="-5.4829710">
        <ele>1096.0</ele>
        <time>2021-08-21T05:37:00Z</time>
      </trkpt>
      <trkpt lat="42.7147870" lon="-5.4829500">
        <ele>1096.0</ele>
        <time>2021-08-21T05:37:01Z</time>
      </trkpt>
      <trkpt lat="42.7147980" lon="-5.4829430">
        <ele>1096.0</ele>
        <time>2021-08-21T05:37:02Z</time>
      </trkpt>
      <trkpt lat="42.7148200" lon="-5.4829280">
        <ele>1096.0</ele>
        <time>2021-08-21T05:37:03Z</time>
      </trkpt>
      <trkpt lat="42.7148380" lon="-5.4829100">
        <ele>1096.0</ele>
        <time>2021-08-21T05:37:04Z</time>
      </trkpt>
      <trkpt lat="42.7148680" lon="-5.4828830">
        <ele>1096.0</ele>
        <time>2021-08-21T05:37:05Z</time>
      </trkpt>
      <trkpt lat="42.7148770" lon="-5.4828740">
        <ele>1096.0</ele>
        <time>2021-08-21T05:37:06Z</time>
      </trkpt>
      <trkpt lat="42.7149060" lon="-5.4828480">
        <ele>1096.0</ele>
        <time>2021-08-21T05:37:07Z</time>
      </trkpt>
      <trkpt lat="42.7149150" lon="-5.4828390">
        <ele>1096.0</ele>
        <time>2021-08-21T05:37:08Z</time>
      </trkpt>
      <trkpt lat="42.7149350" lon="-5.4828220">
        <ele>1096.0</ele>
        <time>2021-08-21T05:37:09Z</time>
      </trkpt>
      <trkpt lat="42.7149550" lon="-5.4828050">
        <ele>1096.0</ele>
        <time>2021-08-21T05:37:10Z</time>
      </trkpt>
      <trkpt lat="42.7149760" lon="-5.4827860">
        <ele>1096.0</ele>
        <time>2021-08-21T05:37:11Z</time>
      </trkpt>
      <trkpt lat="42.7149950" lon="-5.4827660">
        <ele>1096.0</ele>
        <time>2021-08-21T05:37:12Z</time>
      </trkpt>
      <trkpt lat="42.7150140" lon="-5.4827470">
        <ele>1096.0</ele>
        <time>2021-08-21T05:37:13Z</time>
      </trkpt>
      <trkpt lat="42.7150340" lon="-5.4827280">
        <ele>1096.0</ele>
        <time>2021-08-21T05:37:14Z</time>
      </trkpt>
      <trkpt lat="42.7150650" lon="-5.4826970">
        <ele>1096.0</ele>
        <time>2021-08-21T05:37:15Z</time>
      </trkpt>
      <trkpt lat="42.7150740" lon="-5.4826860">
        <ele>1096.0</ele>
        <time>2021-08-21T05:37:16Z</time>
      </trkpt>
      <trkpt lat="42.7151010" lon="-5.4826520">
        <ele>1096.0</ele>
        <time>2021-08-21T05:37:17Z</time>
      </trkpt>
      <trkpt lat="42.7151100" lon="-5.4826400">
        <ele>1096.0</ele>
        <time>2021-08-21T05:37:18Z</time>
      </trkpt>
      <trkpt lat="42.7151270" lon="-5.4826120">
        <ele>1096.0</ele>
        <time>2021-08-21T05:37:19Z</time>
      </trkpt>
      <trkpt lat="42.7151520" lon="-5.4825730">
        <ele>1096.0</ele>
        <time>2021-08-21T05:37:20Z</time>
      </trkpt>
      <trkpt lat="42.7151600" lon="-5.4825600">
        <ele>1096.0</ele>
        <time>2021-08-21T05:37:21Z</time>
      </trkpt>
      <trkpt lat="42.7151770" lon="-5.4825350">
        <ele>1096.0</ele>
        <time>2021-08-21T05:37:22Z</time>
      </trkpt>
      <trkpt lat="42.7151960" lon="-5.4825110">
        <ele>1096.0</ele>
        <time>2021-08-21T05:37:23Z</time>
      </trkpt>
      <trkpt lat="42.7152130" lon="-5.4824830">
        <ele>1096.0</ele>
        <time>2021-08-21T05:37:24Z</time>
      </trkpt>
      <trkpt lat="42.7152280" lon="-5.4824530">
        <ele>1096.0</ele>
        <time>2021-08-21T05:37:25Z</time>
      </trkpt>
      <trkpt lat="42.7152440" lon="-5.4824210">
        <ele>1096.0</ele>
        <time>2021-08-21T05:37:26Z</time>
      </trkpt>
      <trkpt lat="42.7152590" lon="-5.4823910">
        <ele>1096.0</ele>
        <time>2021-08-21T05:37:27Z</time>
      </trkpt>
      <trkpt lat="42.7152750" lon="-5.4823590">
        <ele>1096.0</ele>
        <time>2021-08-21T05:37:28Z</time>
      </trkpt>
      <trkpt lat="42.7152890" lon="-5.4823260">
        <ele>1096.0</ele>
        <time>2021-08-21T05:37:29Z</time>
      </trkpt>
      <trkpt lat="42.7153030" lon="-5.4822930">
        <ele>1096.0</ele>
        <time>2021-08-21T05:37:30Z</time>
      </trkpt>
      <trkpt lat="42.7153160" lon="-5.4822630">
        <ele>1096.0</ele>
        <time>2021-08-21T05:37:31Z</time>
      </trkpt>
      <trkpt lat="42.7153360" lon="-5.4822160">
        <ele>1096.0</ele>
        <time>2021-08-21T05:37:32Z</time>
      </trkpt>
      <trkpt lat="42.7153420" lon="-5.4821990">
        <ele>1096.0</ele>
        <time>2021-08-21T05:37:33Z</time>
      </trkpt>
      <trkpt lat="42.7153560" lon="-5.4821680">
        <ele>1096.0</ele>
        <time>2021-08-21T05:37:34Z</time>
      </trkpt>
      <trkpt lat="42.7153760" lon="-5.4821190">
        <ele>1096.0</ele>
        <time>2021-08-21T05:37:35Z</time>
      </trkpt>
      <trkpt lat="42.7153820" lon="-5.4821030">
        <ele>1096.0</ele>
        <time>2021-08-21T05:37:36Z</time>
      </trkpt>
      <trkpt lat="42.7153960" lon="-5.4820700">
        <ele>1096.0</ele>
        <time>2021-08-21T05:37:37Z</time>
      </trkpt>
      <trkpt lat="42.7154100" lon="-5.4820390">
        <ele>1096.0</ele>
        <time>2021-08-21T05:37:38Z</time>
      </trkpt>
      <trkpt lat="42.7154310" lon="-5.4819920">
        <ele>1096.0</ele>
        <time>2021-08-21T05:37:39Z</time>
      </trkpt>
      <trkpt lat="42.7154380" lon="-5.4819770">
        <ele>1096.0</ele>
        <time>2021-08-21T05:37:40Z</time>
      </trkpt>
      <trkpt lat="42.7154540" lon="-5.4819470">
        <ele>1096.0</ele>
        <time>2021-08-21T05:37:41Z</time>
      </trkpt>
      <trkpt lat="42.7154800" lon="-5.4819030">
        <ele>1096.0</ele>
        <time>2021-08-21T05:37:42Z</time>
      </trkpt>
      <trkpt lat="42.7154890" lon="-5.4818880">
        <ele>1096.0</ele>
        <time>2021-08-21T05:37:43Z</time>
      </trkpt>
      <trkpt lat="42.7155080" lon="-5.4818600">
        <ele>1096.0</ele>
        <time>2021-08-21T05:37:44Z</time>
      </trkpt>
      <trkpt lat="42.7155290" lon="-5.4818340">
        <ele>1095.0</ele>
        <time>2021-08-21T05:37:45Z</time>
      </trkpt>
      <trkpt lat="42.7155490" lon="-5.4818090">
        <ele>1095.0</ele>
        <time>2021-08-21T05:37:46Z</time>
      </trkpt>
      <trkpt lat="42.7155710" lon="-5.4817890">
        <ele>1095.0</ele>
        <time>2021-08-21T05:37:47Z</time>
      </trkpt>
      <trkpt lat="42.7155960" lon="-5.4817730">
        <ele>1095.0</ele>
        <time>2021-08-21T05:37:48Z</time>
      </trkpt>
      <trkpt lat="42.7156210" lon="-5.4817580">
        <ele>1095.0</ele>
        <time>2021-08-21T05:37:49Z</time>
      </trkpt>
      <trkpt lat="42.7156460" lon="-5.4817470">
        <ele>1094.0</ele>
        <time>2021-08-21T05:37:50Z</time>
      </trkpt>
      <trkpt lat="42.7156750" lon="-5.4817410">
        <ele>1094.0</ele>
        <time>2021-08-21T05:37:51Z</time>
      </trkpt>
      <trkpt lat="42.7157020" lon="-5.4817410">
        <ele>1094.0</ele>
        <time>2021-08-21T05:37:52Z</time>
      </trkpt>
      <trkpt lat="42.7157310" lon="-5.4817440">
        <ele>1094.0</ele>
        <time>2021-08-21T05:37:53Z</time>
      </trkpt>
      <trkpt lat="42.7157580" lon="-5.4817500">
        <ele>1093.0</ele>
        <time>2021-08-21T05:37:54Z</time>
      </trkpt>
      <trkpt lat="42.7157870" lon="-5.4817600">
        <ele>1093.0</ele>
        <time>2021-08-21T05:37:55Z</time>
      </trkpt>
      <trkpt lat="42.7158160" lon="-5.4817720">
        <ele>1093.0</ele>
        <time>2021-08-21T05:37:56Z</time>
      </trkpt>
      <trkpt lat="42.7158430" lon="-5.4817880">
        <ele>1093.0</ele>
        <time>2021-08-21T05:37:57Z</time>
      </trkpt>
      <trkpt lat="42.7158700" lon="-5.4818050">
        <ele>1093.0</ele>
        <time>2021-08-21T05:37:58Z</time>
      </trkpt>
      <trkpt lat="42.7158960" lon="-5.4818220">
        <ele>1093.0</ele>
        <time>2021-08-21T05:37:59Z</time>
      </trkpt>
      <trkpt lat="42.7159230" lon="-5.4818410">
        <ele>1093.0</ele>
        <time>2021-08-21T05:38:00Z</time>
      </trkpt>
      <trkpt lat="42.7159470" lon="-5.4818620">
        <ele>1092.0</ele>
        <time>2021-08-21T05:38:01Z</time>
      </trkpt>
      <trkpt lat="42.7159710" lon="-5.4818860">
        <ele>1092.0</ele>
        <time>2021-08-21T05:38:02Z</time>
      </trkpt>
      <trkpt lat="42.7160050" lon="-5.4819260">
        <ele>1092.0</ele>
        <time>2021-08-21T05:38:03Z</time>
      </trkpt>
      <trkpt lat="42.7160150" lon="-5.4819400">
        <ele>1092.0</ele>
        <time>2021-08-21T05:38:04Z</time>
      </trkpt>
      <trkpt lat="42.7160460" lon="-5.4819860">
        <ele>1092.0</ele>
        <time>2021-08-21T05:38:05Z</time>
      </trkpt>
      <trkpt lat="42.7160550" lon="-5.4820020">
        <ele>1091.0</ele>
        <time>2021-08-21T05:38:06Z</time>
      </trkpt>
      <trkpt lat="42.7160740" lon="-5.4820370">
        <ele>1091.0</ele>
        <time>2021-08-21T05:38:07Z</time>
      </trkpt>
      <trkpt lat="42.7160900" lon="-5.4820710">
        <ele>1091.0</ele>
        <time>2021-08-21T05:38:08Z</time>
      </trkpt>
      <trkpt lat="42.7161040" lon="-5.4821070">
        <ele>1091.0</ele>
        <time>2021-08-21T05:38:09Z</time>
      </trkpt>
      <trkpt lat="42.7161240" lon="-5.4821620">
        <ele>1091.0</ele>
        <time>2021-08-21T05:38:10Z</time>
      </trkpt>
      <trkpt lat="42.7161310" lon="-5.4821810">
        <ele>1091.0</ele>
        <time>2021-08-21T05:38:11Z</time>
      </trkpt>
      <trkpt lat="42.7161450" lon="-5.4822180">
        <ele>1091.0</ele>
        <time>2021-08-21T05:38:12Z</time>
      </trkpt>
      <trkpt lat="42.7161620" lon="-5.4822740">
        <ele>1091.0</ele>
        <time>2021-08-21T05:38:13Z</time>
      </trkpt>
      <trkpt lat="42.7161670" lon="-5.4822930">
        <ele>1090.0</ele>
        <time>2021-08-21T05:38:14Z</time>
      </trkpt>
      <trkpt lat="42.7161780" lon="-5.4823320">
        <ele>1090.0</ele>
        <time>2021-08-21T05:38:15Z</time>
      </trkpt>
      <trkpt lat="42.7161910" lon="-5.4823690">
        <ele>1090.0</ele>
        <time>2021-08-21T05:38:16Z</time>
      </trkpt>
      <trkpt lat="42.7162040" lon="-5.4824040">
        <ele>1090.0</ele>
        <time>2021-08-21T05:38:17Z</time>
      </trkpt>
      <trkpt lat="42.7162180" lon="-5.4824400">
        <ele>1090.0</ele>
        <time>2021-08-21T05:38:18Z</time>
      </trkpt>
      <trkpt lat="42.7162290" lon="-5.4824750">
        <ele>1090.0</ele>
        <time>2021-08-21T05:38:19Z</time>
      </trkpt>
      <trkpt lat="42.7162460" lon="-5.4825280">
        <ele>1090.0</ele>
        <time>2021-08-21T05:38:20Z</time>
      </trkpt>
      <trkpt lat="42.7162520" lon="-5.4825470">
        <ele>1090.0</ele>
        <time>2021-08-21T05:38:21Z</time>
      </trkpt>
      <trkpt lat="42.7162620" lon="-5.4825820">
        <ele>1090.0</ele>
        <time>2021-08-21T05:38:22Z</time>
      </trkpt>
      <trkpt lat="42.7162730" lon="-5.4826180">
        <ele>1090.0</ele>
        <time>2021-08-21T05:38:23Z</time>
      </trkpt>
      <trkpt lat="42.7162860" lon="-5.4826540">
        <ele>1090.0</ele>
        <time>2021-08-21T05:38:24Z</time>
      </trkpt>
      <trkpt lat="42.7162980" lon="-5.4826910">
        <ele>1090.0</ele>
        <time>2021-08-21T05:38:25Z</time>
      </trkpt>
      <trkpt lat="42.7163190" lon="-5.4827390">
        <ele>1090.0</ele>
        <time>2021-08-21T05:38:26Z</time>
      </trkpt>
      <trkpt lat="42.7163260" lon="-5.4827550">
        <ele>1089.0</ele>
        <time>2021-08-21T05:38:27Z</time>
      </trkpt>
      <trkpt lat="42.7163420" lon="-5.4827880">
        <ele>1089.0</ele>
        <time>2021-08-21T05:38:28Z</time>
      </trkpt>
      <trkpt lat="42.7163660" lon="-5.4828350">
        <ele>1089.0</ele>
        <time>2021-08-21T05:38:29Z</time>
      </trkpt>
      <trkpt lat="42.7163740" lon="-5.4828510">
        <ele>1089.0</ele>
        <time>2021-08-21T05:38:30Z</time>
      </trkpt>
      <trkpt lat="42.7163910" lon="-5.4828800">
        <ele>1089.0</ele>
        <time>2021-08-21T05:38:31Z</time>
      </trkpt>
      <trkpt lat="42.7164100" lon="-5.4829060">
        <ele>1089.0</ele>
        <time>2021-08-21T05:38:32Z</time>
      </trkpt>
      <trkpt lat="42.7164420" lon="-5.4829330">
        <ele>1089.0</ele>
        <time>2021-08-21T05:38:33Z</time>
      </trkpt>
      <trkpt lat="42.7164530" lon="-5.4829390">
        <ele>1088.0</ele>
        <time>2021-08-21T05:38:34Z</time>
      </trkpt>
      <trkpt lat="42.7164770" lon="-5.4829510">
        <ele>1088.0</ele>
        <time>2021-08-21T05:38:35Z</time>
      </trkpt>
      <trkpt lat="42.7164990" lon="-5.4829690">
        <ele>1088.0</ele>
        <time>2021-08-21T05:38:36Z</time>
      </trkpt>
      <trkpt lat="42.7165180" lon="-5.4829870">
        <ele>1088.0</ele>
        <time>2021-08-21T05:38:37Z</time>
      </trkpt>
      <trkpt lat="42.7165360" lon="-5.4830040">
        <ele>1088.0</ele>
        <time>2021-08-21T05:38:38Z</time>
      </trkpt>
      <trkpt lat="42.7165560" lon="-5.4830190">
        <ele>1088.0</ele>
        <time>2021-08-21T05:38:39Z</time>
      </trkpt>
      <trkpt lat="42.7165750" lon="-5.4830300">
        <ele>1088.0</ele>
        <time>2021-08-21T05:38:40Z</time>
      </trkpt>
      <trkpt lat="42.7165750" lon="-5.4830300">
        <ele>1088.0</ele>
        <time>2021-08-21T05:38:42Z</time>
      </trkpt>
      <trkpt lat="42.7165900" lon="-5.4830490">
        <ele>1088.0</ele>
        <time>2021-08-21T05:38:43Z</time>
      </trkpt>
      <trkpt lat="42.7165900" lon="-5.4830490">
        <ele>1088.0</ele>
        <time>2021-08-21T05:38:44Z</time>
      </trkpt>
      <trkpt lat="42.7165900" lon="-5.4830490">
        <ele>1088.0</ele>
        <time>2021-08-21T05:38:45Z</time>
      </trkpt>
      <trkpt lat="42.7165900" lon="-5.4830490">
        <ele>1089.0</ele>
        <time>2021-08-21T05:38:47Z</time>
      </trkpt>
      <trkpt lat="42.7165900" lon="-5.4830490">
        <ele>1089.0</ele>
        <time>2021-08-21T05:38:48Z</time>
      </trkpt>
      <trkpt lat="42.7165910" lon="-5.4830790">
        <ele>1089.0</ele>
        <time>2021-08-21T05:38:49Z</time>
      </trkpt>
      <trkpt lat="42.7165910" lon="-5.4830790">
        <ele>1089.0</ele>
        <time>2021-08-21T05:38:50Z</time>
      </trkpt>
      <trkpt lat="42.7165910" lon="-5.4830790">
        <ele>1089.0</ele>
        <time>2021-08-21T05:38:51Z</time>
      </trkpt>
      <trkpt lat="42.7165910" lon="-5.4830790">
        <ele>1089.0</ele>
        <time>2021-08-21T05:38:53Z</time>
      </trkpt>
      <trkpt lat="42.7165910" lon="-5.4830790">
        <ele>1089.0</ele>
        <time>2021-08-21T05:38:54Z</time>
      </trkpt>
      <trkpt lat="42.7165910" lon="-5.4830790">
        <ele>1089.0</ele>
        <time>2021-08-21T05:38:56Z</time>
      </trkpt>
      <trkpt lat="42.7165910" lon="-5.4830790">
        <ele>1089.0</ele>
        <time>2021-08-21T05:38:57Z</time>
      </trkpt>
      <trkpt lat="42.7165910" lon="-5.4830790">
        <ele>1089.0</ele>
        <time>2021-08-21T05:38:59Z</time>
      </trkpt>
      <trkpt lat="42.7165910" lon="-5.4830790">
        <ele>1089.0</ele>
        <time>2021-08-21T05:39:00Z</time>
      </trkpt>
      <trkpt lat="42.7165910" lon="-5.4830790">
        <ele>1089.0</ele>
        <time>2021-08-21T05:39:02Z</time>
      </trkpt>
      <trkpt lat="42.7165910" lon="-5.4830790">
        <ele>1089.0</ele>
        <time>2021-08-21T05:39:03Z</time>
      </trkpt>
      <trkpt lat="42.7165910" lon="-5.4830790">
        <ele>1089.0</ele>
        <time>2021-08-21T05:39:05Z</time>
      </trkpt>
      <trkpt lat="42.7165910" lon="-5.4830790">
        <ele>1089.0</ele>
        <time>2021-08-21T05:39:06Z</time>
      </trkpt>
      <trkpt lat="42.7165910" lon="-5.4830790">
        <ele>1089.0</ele>
        <time>2021-08-21T05:39:08Z</time>
      </trkpt>
      <trkpt lat="42.7165910" lon="-5.4830790">
        <ele>1089.0</ele>
        <time>2021-08-21T05:39:10Z</time>
      </trkpt>
      <trkpt lat="42.7165910" lon="-5.4830790">
        <ele>1089.0</ele>
        <time>2021-08-21T05:39:12Z</time>
      </trkpt>
      <trkpt lat="42.7165910" lon="-5.4830790">
        <ele>1089.0</ele>
        <time>2021-08-21T05:39:13Z</time>
      </trkpt>
      <trkpt lat="42.7165910" lon="-5.4830790">
        <ele>1089.0</ele>
        <time>2021-08-21T05:39:15Z</time>
      </trkpt>
      <trkpt lat="42.7165910" lon="-5.4830790">
        <ele>1089.0</ele>
        <time>2021-08-21T05:39:16Z</time>
      </trkpt>
      <trkpt lat="42.7165910" lon="-5.4830790">
        <ele>1089.0</ele>
        <time>2021-08-21T05:39:17Z</time>
      </trkpt>
      <trkpt lat="42.7165910" lon="-5.4830790">
        <ele>1089.0</ele>
        <time>2021-08-21T05:39:18Z</time>
      </trkpt>
      <trkpt lat="42.7165910" lon="-5.4830790">
        <ele>1088.0</ele>
        <time>2021-08-21T05:39:20Z</time>
      </trkpt>
      <trkpt lat="42.7165910" lon="-5.4830790">
        <ele>1088.0</ele>
        <time>2021-08-21T05:39:21Z</time>
      </trkpt>
      <trkpt lat="42.7165910" lon="-5.4830790">
        <ele>1088.0</ele>
        <time>2021-08-21T05:39:22Z</time>
      </trkpt>
      <trkpt lat="42.7165910" lon="-5.4830790">
        <ele>1088.0</ele>
        <time>2021-08-21T05:39:23Z</time>
      </trkpt>
      <trkpt lat="42.7165910" lon="-5.4830790">
        <ele>1088.0</ele>
        <time>2021-08-21T05:39:24Z</time>
      </trkpt>
      <trkpt lat="42.7165910" lon="-5.4830790">
        <ele>1088.0</ele>
        <time>2021-08-21T05:39:26Z</time>
      </trkpt>
      <trkpt lat="42.7165910" lon="-5.4830790">
        <ele>1088.0</ele>
        <time>2021-08-21T05:39:27Z</time>
      </trkpt>
      <trkpt lat="42.7165910" lon="-5.4830790">
        <ele>1088.0</ele>
        <time>2021-08-21T05:39:28Z</time>
      </trkpt>
      <trkpt lat="42.7165910" lon="-5.4830790">
        <ele>1088.0</ele>
        <time>2021-08-21T05:39:30Z</time>
      </trkpt>
      <trkpt lat="42.7165910" lon="-5.4830790">
        <ele>1088.0</ele>
        <time>2021-08-21T05:39:32Z</time>
      </trkpt>
      <trkpt lat="42.7165910" lon="-5.4830790">
        <ele>1088.0</ele>
        <time>2021-08-21T05:39:33Z</time>
      </trkpt>
      <trkpt lat="42.7165910" lon="-5.4830790">
        <ele>1088.0</ele>
        <time>2021-08-21T05:39:34Z</time>
      </trkpt>
      <trkpt lat="42.7165910" lon="-5.4830790">
        <ele>1088.0</ele>
        <time>2021-08-21T05:39:35Z</time>
      </trkpt>
      <trkpt lat="42.7165870" lon="-5.4830530">
        <ele>1088.0</ele>
        <time>2021-08-21T05:39:36Z</time>
      </trkpt>
      <trkpt lat="42.7165870" lon="-5.4830530">
        <ele>1088.0</ele>
        <time>2021-08-21T05:39:37Z</time>
      </trkpt>
      <trkpt lat="42.7165870" lon="-5.4830530">
        <ele>1088.0</ele>
        <time>2021-08-21T05:39:38Z</time>
      </trkpt>
      <trkpt lat="42.7165870" lon="-5.4830530">
        <ele>1088.0</ele>
        <time>2021-08-21T05:39:39Z</time>
      </trkpt>
      <trkpt lat="42.7165870" lon="-5.4830530">
        <ele>1088.0</ele>
        <time>2021-08-21T05:39:41Z</time>
      </trkpt>
      <trkpt lat="42.7165870" lon="-5.4830530">
        <ele>1088.0</ele>
        <time>2021-08-21T05:39:42Z</time>
      </trkpt>
      <trkpt lat="42.7165870" lon="-5.4830530">
        <ele>1088.0</ele>
        <time>2021-08-21T05:39:44Z</time>
      </trkpt>
      <trkpt lat="42.7165870" lon="-5.4830530">
        <ele>1088.0</ele>
        <time>2021-08-21T05:39:46Z</time>
      </trkpt>
      <trkpt lat="42.7165870" lon="-5.4830530">
        <ele>1088.0</ele>
        <time>2021-08-21T05:39:48Z</time>
      </trkpt>
      <trkpt lat="42.7165870" lon="-5.4830530">
        <ele>1088.0</ele>
        <time>2021-08-21T05:39:49Z</time>
      </trkpt>
      <trkpt lat="42.7165870" lon="-5.4830530">
        <ele>1088.0</ele>
        <time>2021-08-21T05:39:51Z</time>
      </trkpt>
      <trkpt lat="42.7165870" lon="-5.4830530">
        <ele>1088.0</ele>
        <time>2021-08-21T05:39:52Z</time>
      </trkpt>
      <trkpt lat="42.7165870" lon="-5.4830530">
        <ele>1088.0</ele>
        <time>2021-08-21T05:39:53Z</time>
      </trkpt>
      <trkpt lat="42.7165870" lon="-5.4830530">
        <ele>1087.0</ele>
        <time>2021-08-21T05:39:54Z</time>
      </trkpt>
      <trkpt lat="42.7165870" lon="-5.4830530">
        <ele>1087.0</ele>
        <time>2021-08-21T05:39:55Z</time>
      </trkpt>
      <trkpt lat="42.7165870" lon="-5.4830530">
        <ele>1087.0</ele>
        <time>2021-08-21T05:39:57Z</time>
      </trkpt>
      <trkpt lat="42.7165870" lon="-5.4830530">
        <ele>1087.0</ele>
        <time>2021-08-21T05:39:58Z</time>
      </trkpt>
      <trkpt lat="42.7165870" lon="-5.4830530">
        <ele>1087.0</ele>
        <time>2021-08-21T05:40:00Z</time>
      </trkpt>
      <trkpt lat="42.7165870" lon="-5.4830530">
        <ele>1087.0</ele>
        <time>2021-08-21T05:40:02Z</time>
      </trkpt>
      <trkpt lat="42.7165870" lon="-5.4830530">
        <ele>1087.0</ele>
        <time>2021-08-21T05:40:04Z</time>
      </trkpt>
      <trkpt lat="42.7165870" lon="-5.4830530">
        <ele>1088.0</ele>
        <time>2021-08-21T05:40:05Z</time>
      </trkpt>
      <trkpt lat="42.7165870" lon="-5.4830530">
        <ele>1088.0</ele>
        <time>2021-08-21T05:40:07Z</time>
      </trkpt>
      <trkpt lat="42.7165870" lon="-5.4830530">
        <ele>1088.0</ele>
        <time>2021-08-21T05:40:08Z</time>
      </trkpt>
      <trkpt lat="42.7165870" lon="-5.4830530">
        <ele>1088.0</ele>
        <time>2021-08-21T05:40:10Z</time>
      </trkpt>
      <trkpt lat="42.7165870" lon="-5.4830530">
        <ele>1089.0</ele>
        <time>2021-08-21T05:40:12Z</time>
      </trkpt>
      <trkpt lat="42.7165870" lon="-5.4830530">
        <ele>1089.0</ele>
        <time>2021-08-21T05:40:13Z</time>
      </trkpt>
      <trkpt lat="42.7165870" lon="-5.4830530">
        <ele>1089.0</ele>
        <time>2021-08-21T05:40:14Z</time>
      </trkpt>
      <trkpt lat="42.7165870" lon="-5.4830530">
        <ele>1089.0</ele>
        <time>2021-08-21T05:40:16Z</time>
      </trkpt>
      <trkpt lat="42.7165870" lon="-5.4830530">
        <ele>1089.0</ele>
        <time>2021-08-21T05:40:18Z</time>
      </trkpt>
      <trkpt lat="42.7165870" lon="-5.4830530">
        <ele>1089.0</ele>
        <time>2021-08-21T05:40:20Z</time>
      </trkpt>
      <trkpt lat="42.7165870" lon="-5.4830530">
        <ele>1088.0</ele>
        <time>2021-08-21T05:40:21Z</time>
      </trkpt>
      <trkpt lat="42.7165870" lon="-5.4830530">
        <ele>1088.0</ele>
        <time>2021-08-21T05:40:22Z</time>
      </trkpt>
      <trkpt lat="42.7165870" lon="-5.4830530">
        <ele>1089.0</ele>
        <time>2021-08-21T05:40:24Z</time>
      </trkpt>
      <trkpt lat="42.7165870" lon="-5.4830530">
        <ele>1089.0</ele>
        <time>2021-08-21T05:40:25Z</time>
      </trkpt>
      <trkpt lat="42.7165870" lon="-5.4830530">
        <ele>1089.0</ele>
        <time>2021-08-21T05:40:26Z</time>
      </trkpt>
      <trkpt lat="42.7165870" lon="-5.4830530">
        <ele>1088.0</ele>
        <time>2021-08-21T05:40:27Z</time>
      </trkpt>
      <trkpt lat="42.7165870" lon="-5.4830530">
        <ele>1088.0</ele>
        <time>2021-08-21T05:40:28Z</time>
      </trkpt>
      <trkpt lat="42.7165870" lon="-5.4830530">
        <ele>1088.0</ele>
        <time>2021-08-21T05:40:29Z</time>
      </trkpt>
      <trkpt lat="42.7165870" lon="-5.4830530">
        <ele>1088.0</ele>
        <time>2021-08-21T05:40:31Z</time>
      </trkpt>
      <trkpt lat="42.7165870" lon="-5.4830530">
        <ele>1088.0</ele>
        <time>2021-08-21T05:40:32Z</time>
      </trkpt>
      <trkpt lat="42.7165870" lon="-5.4830530">
        <ele>1088.0</ele>
        <time>2021-08-21T05:40:33Z</time>
      </trkpt>
      <trkpt lat="42.7165870" lon="-5.4830530">
        <ele>1088.0</ele>
        <time>2021-08-21T05:40:34Z</time>
      </trkpt>
      <trkpt lat="42.7165870" lon="-5.4830530">
        <ele>1088.0</ele>
        <time>2021-08-21T05:40:35Z</time>
      </trkpt>
      <trkpt lat="42.7165870" lon="-5.4830530">
        <ele>1088.0</ele>
        <time>2021-08-21T05:40:37Z</time>
      </trkpt>
      <trkpt lat="42.7165870" lon="-5.4830530">
        <ele>1087.0</ele>
        <time>2021-08-21T05:40:39Z</time>
      </trkpt>
      <trkpt lat="42.7165870" lon="-5.4830530">
        <ele>1087.0</ele>
        <time>2021-08-21T05:40:41Z</time>
      </trkpt>
      <trkpt lat="42.7165870" lon="-5.4830530">
        <ele>1087.0</ele>
        <time>2021-08-21T05:40:42Z</time>
      </trkpt>
      <trkpt lat="42.7165870" lon="-5.4830530">
        <ele>1087.0</ele>
        <time>2021-08-21T05:40:44Z</time>
      </trkpt>
      <trkpt lat="42.7165870" lon="-5.4830530">
        <ele>1087.0</ele>
        <time>2021-08-21T05:40:46Z</time>
      </trkpt>
      <trkpt lat="42.7165870" lon="-5.4830530">
        <ele>1087.0</ele>
        <time>2021-08-21T05:40:47Z</time>
      </trkpt>
      <trkpt lat="42.7165870" lon="-5.4830530">
        <ele>1087.0</ele>
        <time>2021-08-21T05:40:48Z</time>
      </trkpt>
      <trkpt lat="42.7165870" lon="-5.4830530">
        <ele>1087.0</ele>
        <time>2021-08-21T05:40:49Z</time>
      </trkpt>
      <trkpt lat="42.7165870" lon="-5.4830530">
        <ele>1087.0</ele>
        <time>2021-08-21T05:40:50Z</time>
      </trkpt>
      <trkpt lat="42.7165870" lon="-5.4830530">
        <ele>1086.0</ele>
        <time>2021-08-21T05:40:51Z</time>
      </trkpt>
      <trkpt lat="42.7165870" lon="-5.4830530">
        <ele>1086.0</ele>
        <time>2021-08-21T05:40:52Z</time>
      </trkpt>
      <trkpt lat="42.7165870" lon="-5.4830530">
        <ele>1086.0</ele>
        <time>2021-08-21T05:40:53Z</time>
      </trkpt>
      <trkpt lat="42.7165870" lon="-5.4830530">
        <ele>1086.0</ele>
        <time>2021-08-21T05:40:54Z</time>
      </trkpt>
      <trkpt lat="42.7165870" lon="-5.4830530">
        <ele>1086.0</ele>
        <time>2021-08-21T05:40:55Z</time>
      </trkpt>
      <trkpt lat="42.7165870" lon="-5.4830530">
        <ele>1086.0</ele>
        <time>2021-08-21T05:40:57Z</time>
      </trkpt>
      <trkpt lat="42.7165870" lon="-5.4830530">
        <ele>1086.0</ele>
        <time>2021-08-21T05:40:58Z</time>
      </trkpt>
      <trkpt lat="42.7165870" lon="-5.4830530">
        <ele>1086.0</ele>
        <time>2021-08-21T05:41:00Z</time>
      </trkpt>
      <trkpt lat="42.7165870" lon="-5.4830530">
        <ele>1086.0</ele>
        <time>2021-08-21T05:41:01Z</time>
      </trkpt>
      <trkpt lat="42.7165870" lon="-5.4830530">
        <ele>1086.0</ele>
        <time>2021-08-21T05:41:02Z</time>
      </trkpt>
      <trkpt lat="42.7166050" lon="-5.4830640">
        <ele>1086.0</ele>
        <time>2021-08-21T05:41:03Z</time>
      </trkpt>
      <trkpt lat="42.7166050" lon="-5.4830640">
        <ele>1086.0</ele>
        <time>2021-08-21T05:41:05Z</time>
      </trkpt>
      <trkpt lat="42.7166050" lon="-5.4830640">
        <ele>1086.0</ele>
        <time>2021-08-21T05:41:06Z</time>
      </trkpt>
      <trkpt lat="42.7166050" lon="-5.4830640">
        <ele>1086.0</ele>
        <time>2021-08-21T05:41:07Z</time>
      </trkpt>
      <trkpt lat="42.7166050" lon="-5.4830640">
        <ele>1086.0</ele>
        <time>2021-08-21T05:41:09Z</time>
      </trkpt>
      <trkpt lat="42.7166050" lon="-5.4830640">
        <ele>1086.0</ele>
        <time>2021-08-21T05:41:10Z</time>
      </trkpt>
      <trkpt lat="42.7166050" lon="-5.4830640">
        <ele>1086.0</ele>
        <time>2021-08-21T05:41:11Z</time>
      </trkpt>
      <trkpt lat="42.7166050" lon="-5.4830640">
        <ele>1086.0</ele>
        <time>2021-08-21T05:41:12Z</time>
      </trkpt>
      <trkpt lat="42.7166050" lon="-5.4830640">
        <ele>1086.0</ele>
        <time>2021-08-21T05:41:14Z</time>
      </trkpt>
      <trkpt lat="42.7166050" lon="-5.4830640">
        <ele>1086.0</ele>
        <time>2021-08-21T05:41:16Z</time>
      </trkpt>
      <trkpt lat="42.7166050" lon="-5.4830640">
        <ele>1086.0</ele>
        <time>2021-08-21T05:41:17Z</time>
      </trkpt>
      <trkpt lat="42.7166050" lon="-5.4830640">
        <ele>1086.0</ele>
        <time>2021-08-21T05:41:19Z</time>
      </trkpt>
      <trkpt lat="42.7166050" lon="-5.4830640">
        <ele>1086.0</ele>
        <time>2021-08-21T05:41:21Z</time>
      </trkpt>
      <trkpt lat="42.7166050" lon="-5.4830640">
        <ele>1086.0</ele>
        <time>2021-08-21T05:41:22Z</time>
      </trkpt>
      <trkpt lat="42.7166050" lon="-5.4830640">
        <ele>1086.0</ele>
        <time>2021-08-21T05:41:24Z</time>
      </trkpt>
      <trkpt lat="42.7166050" lon="-5.4830640">
        <ele>1086.0</ele>
        <time>2021-08-21T05:41:25Z</time>
      </trkpt>
      <trkpt lat="42.7166050" lon="-5.4830640">
        <ele>1086.0</ele>
        <time>2021-08-21T05:41:27Z</time>
      </trkpt>
      <trkpt lat="42.7166050" lon="-5.4830640">
        <ele>1086.0</ele>
        <time>2021-08-21T05:41:28Z</time>
      </trkpt>
      <trkpt lat="42.7166050" lon="-5.4830640">
        <ele>1086.0</ele>
        <time>2021-08-21T05:41:29Z</time>
      </trkpt>
      <trkpt lat="42.7166050" lon="-5.4830640">
        <ele>1086.0</ele>
        <time>2021-08-21T05:41:30Z</time>
      </trkpt>
      <trkpt lat="42.7166050" lon="-5.4830640">
        <ele>1086.0</ele>
        <time>2021-08-21T05:41:31Z</time>
      </trkpt>
      <trkpt lat="42.7166050" lon="-5.4830640">
        <ele>1086.0</ele>
        <time>2021-08-21T05:41:32Z</time>
      </trkpt>
      <trkpt lat="42.7166050" lon="-5.4830640">
        <ele>1086.0</ele>
        <time>2021-08-21T05:41:33Z</time>
      </trkpt>
      <trkpt lat="42.7166050" lon="-5.4830640">
        <ele>1086.0</ele>
        <time>2021-08-21T05:41:34Z</time>
      </trkpt>
      <trkpt lat="42.7165840" lon="-5.4830630">
        <ele>1086.0</ele>
        <time>2021-08-21T05:41:36Z</time>
      </trkpt>
      <trkpt lat="42.7165840" lon="-5.4830630">
        <ele>1086.0</ele>
        <time>2021-08-21T05:41:37Z</time>
      </trkpt>
      <trkpt lat="42.7165840" lon="-5.4830630">
        <ele>1086.0</ele>
        <time>2021-08-21T05:41:38Z</time>
      </trkpt>
      <trkpt lat="42.7165840" lon="-5.4830630">
        <ele>1086.0</ele>
        <time>2021-08-21T05:41:39Z</time>
      </trkpt>
      <trkpt lat="42.7165840" lon="-5.4830630">
        <ele>1086.0</ele>
        <time>2021-08-21T05:41:40Z</time>
      </trkpt>
      <trkpt lat="42.7165840" lon="-5.4830630">
        <ele>1086.0</ele>
        <time>2021-08-21T05:41:41Z</time>
      </trkpt>
      <trkpt lat="42.7165840" lon="-5.4830630">
        <ele>1086.0</ele>
        <time>2021-08-21T05:41:43Z</time>
      </trkpt>
      <trkpt lat="42.7165840" lon="-5.4830630">
        <ele>1086.0</ele>
        <time>2021-08-21T05:41:44Z</time>
      </trkpt>
      <trkpt lat="42.7165840" lon="-5.4830630">
        <ele>1086.0</ele>
        <time>2021-08-21T05:41:45Z</time>
      </trkpt>
      <trkpt lat="42.7165840" lon="-5.4830630">
        <ele>1086.0</ele>
        <time>2021-08-21T05:41:47Z</time>
      </trkpt>
      <trkpt lat="42.7165840" lon="-5.4830630">
        <ele>1086.0</ele>
        <time>2021-08-21T05:41:48Z</time>
      </trkpt>
      <trkpt lat="42.7165840" lon="-5.4830630">
        <ele>1086.0</ele>
        <time>2021-08-21T05:41:49Z</time>
      </trkpt>
      <trkpt lat="42.7165840" lon="-5.4830630">
        <ele>1086.0</ele>
        <time>2021-08-21T05:41:50Z</time>
      </trkpt>
      <trkpt lat="42.7165840" lon="-5.4830630">
        <ele>1086.0</ele>
        <time>2021-08-21T05:41:52Z</time>
      </trkpt>
      <trkpt lat="42.7165840" lon="-5.4830630">
        <ele>1086.0</ele>
        <time>2021-08-21T05:41:53Z</time>
      </trkpt>
      <trkpt lat="42.7165840" lon="-5.4830630">
        <ele>1086.0</ele>
        <time>2021-08-21T05:41:55Z</time>
      </trkpt>
      <trkpt lat="42.7165840" lon="-5.4830630">
        <ele>1086.0</ele>
        <time>2021-08-21T05:41:56Z</time>
      </trkpt>
      <trkpt lat="42.7165840" lon="-5.4830630">
        <ele>1086.0</ele>
        <time>2021-08-21T05:41:57Z</time>
      </trkpt>
      <trkpt lat="42.7165840" lon="-5.4830630">
        <ele>1086.0</ele>
        <time>2021-08-21T05:41:58Z</time>
      </trkpt>
      <trkpt lat="42.7165840" lon="-5.4830630">
        <ele>1086.0</ele>
        <time>2021-08-21T05:42:00Z</time>
      </trkpt>
      <trkpt lat="42.7165840" lon="-5.4830630">
        <ele>1086.0</ele>
        <time>2021-08-21T05:42:01Z</time>
      </trkpt>
      <trkpt lat="42.7165840" lon="-5.4830630">
        <ele>1086.0</ele>
        <time>2021-08-21T05:42:02Z</time>
      </trkpt>
      <trkpt lat="42.7165840" lon="-5.4830630">
        <ele>1086.0</ele>
        <time>2021-08-21T05:42:03Z</time>
      </trkpt>
      <trkpt lat="42.7165840" lon="-5.4830630">
        <ele>1086.0</ele>
        <time>2021-08-21T05:42:04Z</time>
      </trkpt>
      <trkpt lat="42.7165840" lon="-5.4830630">
        <ele>1086.0</ele>
        <time>2021-08-21T05:42:06Z</time>
      </trkpt>
      <trkpt lat="42.7165840" lon="-5.4830630">
        <ele>1086.0</ele>
        <time>2021-08-21T05:42:07Z</time>
      </trkpt>
      <trkpt lat="42.7165840" lon="-5.4830630">
        <ele>1086.0</ele>
        <time>2021-08-21T05:42:08Z</time>
      </trkpt>
      <trkpt lat="42.7165840" lon="-5.4830630">
        <ele>1086.0</ele>
        <time>2021-08-21T05:42:09Z</time>
      </trkpt>
      <trkpt lat="42.7165840" lon="-5.4830630">
        <ele>1086.0</ele>
        <time>2021-08-21T05:42:10Z</time>
      </trkpt>
      <trkpt lat="42.7165840" lon="-5.4830630">
        <ele>1086.0</ele>
        <time>2021-08-21T05:42:11Z</time>
      </trkpt>
      <trkpt lat="42.7165840" lon="-5.4830630">
        <ele>1086.0</ele>
        <time>2021-08-21T05:42:12Z</time>
      </trkpt>
      <trkpt lat="42.7165840" lon="-5.4830630">
        <ele>1086.0</ele>
        <time>2021-08-21T05:42:13Z</time>
      </trkpt>
      <trkpt lat="42.7165840" lon="-5.4830630">
        <ele>1086.0</ele>
        <time>2021-08-21T05:42:14Z</time>
      </trkpt>
      <trkpt lat="42.7165840" lon="-5.4830630">
        <ele>1086.0</ele>
        <time>2021-08-21T05:42:15Z</time>
      </trkpt>
      <trkpt lat="42.7165840" lon="-5.4830630">
        <ele>1086.0</ele>
        <time>2021-08-21T05:42:17Z</time>
      </trkpt>
      <trkpt lat="42.7165840" lon="-5.4830630">
        <ele>1086.0</ele>
        <time>2021-08-21T05:42:18Z</time>
      </trkpt>
      <trkpt lat="42.7165840" lon="-5.4830630">
        <ele>1086.0</ele>
        <time>2021-08-21T05:42:19Z</time>
      </trkpt>
      <trkpt lat="42.7165840" lon="-5.4830630">
        <ele>1086.0</ele>
        <time>2021-08-21T05:42:20Z</time>
      </trkpt>
      <trkpt lat="42.7165840" lon="-5.4830630">
        <ele>1086.0</ele>
        <time>2021-08-21T05:42:21Z</time>
      </trkpt>
      <trkpt lat="42.7165840" lon="-5.4830630">
        <ele>1086.0</ele>
        <time>2021-08-21T05:42:22Z</time>
      </trkpt>
      <trkpt lat="42.7165840" lon="-5.4830630">
        <ele>1086.0</ele>
        <time>2021-08-21T05:42:23Z</time>
      </trkpt>
      <trkpt lat="42.7165840" lon="-5.4830630">
        <ele>1086.0</ele>
        <time>2021-08-21T05:42:25Z</time>
      </trkpt>
      <trkpt lat="42.7165840" lon="-5.4830630">
        <ele>1086.0</ele>
        <time>2021-08-21T05:42:26Z</time>
      </trkpt>
      <trkpt lat="42.7165840" lon="-5.4830630">
        <ele>1086.0</ele>
        <time>2021-08-21T05:42:27Z</time>
      </trkpt>
      <trkpt lat="42.7165840" lon="-5.4830630">
        <ele>1086.0</ele>
        <time>2021-08-21T05:42:28Z</time>
      </trkpt>
      <trkpt lat="42.7165840" lon="-5.4830630">
        <ele>1086.0</ele>
        <time>2021-08-21T05:42:29Z</time>
      </trkpt>
      <trkpt lat="42.7165840" lon="-5.4830630">
        <ele>1085.0</ele>
        <time>2021-08-21T05:42:30Z</time>
      </trkpt>
      <trkpt lat="42.7165840" lon="-5.4830630">
        <ele>1085.0</ele>
        <time>2021-08-21T05:42:31Z</time>
      </trkpt>
      <trkpt lat="42.7165680" lon="-5.4830500">
        <ele>1085.0</ele>
        <time>2021-08-21T05:42:32Z</time>
      </trkpt>
      <trkpt lat="42.7165680" lon="-5.4830500">
        <ele>1085.0</ele>
        <time>2021-08-21T05:42:34Z</time>
      </trkpt>
      <trkpt lat="42.7165680" lon="-5.4830500">
        <ele>1085.0</ele>
        <time>2021-08-21T05:42:35Z</time>
      </trkpt>
      <trkpt lat="42.7165680" lon="-5.4830500">
        <ele>1085.0</ele>
        <time>2021-08-21T05:42:36Z</time>
      </trkpt>
      <trkpt lat="42.7165880" lon="-5.4830790">
        <ele>1085.0</ele>
        <time>2021-08-21T05:42:37Z</time>
      </trkpt>
      <trkpt lat="42.7166060" lon="-5.4830870">
        <ele>1085.0</ele>
        <time>2021-08-21T05:42:38Z</time>
      </trkpt>
      <trkpt lat="42.7166280" lon="-5.4830990">
        <ele>1085.0</ele>
        <time>2021-08-21T05:42:39Z</time>
      </trkpt>
      <trkpt lat="42.7166520" lon="-5.4831090">
        <ele>1085.0</ele>
        <time>2021-08-21T05:42:40Z</time>
      </trkpt>
      <trkpt lat="42.7166760" lon="-5.4831170">
        <ele>1085.0</ele>
        <time>2021-08-21T05:42:41Z</time>
      </trkpt>
      <trkpt lat="42.7167020" lon="-5.4831210">
        <ele>1085.0</ele>
        <time>2021-08-21T05:42:42Z</time>
      </trkpt>
      <trkpt lat="42.7167430" lon="-5.4831280">
        <ele>1085.0</ele>
        <time>2021-08-21T05:42:43Z</time>
      </trkpt>
      <trkpt lat="42.7167570" lon="-5.4831300">
        <ele>1085.0</ele>
        <time>2021-08-21T05:42:44Z</time>
      </trkpt>
      <trkpt lat="42.7167840" lon="-5.4831310">
        <ele>1085.0</ele>
        <time>2021-08-21T05:42:45Z</time>
      </trkpt>
      <trkpt lat="42.7168090" lon="-5.4831330">
        <ele>1085.0</ele>
        <time>2021-08-21T05:42:46Z</time>
      </trkpt>
      <trkpt lat="42.7168370" lon="-5.4831330">
        <ele>1085.0</ele>
        <time>2021-08-21T05:42:47Z</time>
      </trkpt>
      <trkpt lat="42.7168660" lon="-5.4831310">
        <ele>1085.0</ele>
        <time>2021-08-21T05:42:48Z</time>
      </trkpt>
      <trkpt lat="42.7168950" lon="-5.4831290">
        <ele>1085.0</ele>
        <time>2021-08-21T05:42:49Z</time>
      </trkpt>
      <trkpt lat="42.7169230" lon="-5.4831270">
        <ele>1085.0</ele>
        <time>2021-08-21T05:42:50Z</time>
      </trkpt>
      <trkpt lat="42.7169520" lon="-5.4831240">
        <ele>1085.0</ele>
        <time>2021-08-21T05:42:51Z</time>
      </trkpt>
      <trkpt lat="42.7169800" lon="-5.4831210">
        <ele>1085.0</ele>
        <time>2021-08-21T05:42:52Z</time>
      </trkpt>
      <trkpt lat="42.7170230" lon="-5.4831210">
        <ele>1085.0</ele>
        <time>2021-08-21T05:42:53Z</time>
      </trkpt>
      <trkpt lat="42.7170370" lon="-5.4831200">
        <ele>1085.0</ele>
        <time>2021-08-21T05:42:54Z</time>
      </trkpt>
      <trkpt lat="42.7170650" lon="-5.4831200">
        <ele>1085.0</ele>
        <time>2021-08-21T05:42:55Z</time>
      </trkpt>
      <trkpt lat="42.7171060" lon="-5.4831180">
        <ele>1085.0</ele>
        <time>2021-08-21T05:42:56Z</time>
      </trkpt>
      <trkpt lat="42.7171200" lon="-5.4831170">
        <ele>1085.0</ele>
        <time>2021-08-21T05:42:57Z</time>
      </trkpt>
      <trkpt lat="42.7171450" lon="-5.4831160">
        <ele>1086.0</ele>
        <time>2021-08-21T05:42:58Z</time>
      </trkpt>
      <trkpt lat="42.7171740" lon="-5.4831170">
        <ele>1086.0</ele>
        <time>2021-08-21T05:42:59Z</time>
      </trkpt>
      <trkpt lat="42.7172020" lon="-5.4831150">
        <ele>1086.0</ele>
        <time>2021-08-21T05:43:00Z</time>
      </trkpt>
      <trkpt lat="42.7172280" lon="-5.4831150">
        <ele>1086.0</ele>
        <time>2021-08-21T05:43:01Z</time>
      </trkpt>
      <trkpt lat="42.7172680" lon="-5.4831120">
        <ele>1086.0</ele>
        <time>2021-08-21T05:43:02Z</time>
      </trkpt>
      <trkpt lat="42.7172810" lon="-5.4831110">
        <ele>1086.0</ele>
        <time>2021-08-21T05:43:03Z</time>
      </trkpt>
      <trkpt lat="42.7173240" lon="-5.4831030">
        <ele>1086.0</ele>
        <time>2021-08-21T05:43:04Z</time>
      </trkpt>
      <trkpt lat="42.7173380" lon="-5.4830990">
        <ele>1087.0</ele>
        <time>2021-08-21T05:43:05Z</time>
      </trkpt>
      <trkpt lat="42.7173670" lon="-5.4830920">
        <ele>1087.0</ele>
        <time>2021-08-21T05:43:06Z</time>
      </trkpt>
      <trkpt lat="42.7174100" lon="-5.4830820">
        <ele>1087.0</ele>
        <time>2021-08-21T05:43:07Z</time>
      </trkpt>
      <trkpt lat="42.7174240" lon="-5.4830780">
        <ele>1087.0</ele>
        <time>2021-08-21T05:43:08Z</time>
      </trkpt>
      <trkpt lat="42.7174540" lon="-5.4830690">
        <ele>1087.0</ele>
        <time>2021-08-21T05:43:09Z</time>
      </trkpt>
      <trkpt lat="42.7174830" lon="-5.4830580">
        <ele>1087.0</ele>
        <time>2021-08-21T05:43:10Z</time>
      </trkpt>
      <trkpt lat="42.7175120" lon="-5.4830450">
        <ele>1087.0</ele>
        <time>2021-08-21T05:43:11Z</time>
      </trkpt>
      <trkpt lat="42.7175380" lon="-5.4830390">
        <ele>1087.0</ele>
        <time>2021-08-21T05:43:12Z</time>
      </trkpt>
      <trkpt lat="42.7175620" lon="-5.4830340">
        <ele>1087.0</ele>
        <time>2021-08-21T05:43:13Z</time>
      </trkpt>
      <trkpt lat="42.7175880" lon="-5.4830280">
        <ele>1086.0</ele>
        <time>2021-08-21T05:43:14Z</time>
      </trkpt>
      <trkpt lat="42.7176170" lon="-5.4830190">
        <ele>1086.0</ele>
        <time>2021-08-21T05:43:15Z</time>
      </trkpt>
      <trkpt lat="42.7176450" lon="-5.4830060">
        <ele>1086.0</ele>
        <time>2021-08-21T05:43:16Z</time>
      </trkpt>
      <trkpt lat="42.7176880" lon="-5.4829870">
        <ele>1086.0</ele>
        <time>2021-08-21T05:43:17Z</time>
      </trkpt>
      <trkpt lat="42.7177010" lon="-5.4829810">
        <ele>1086.0</ele>
        <time>2021-08-21T05:43:18Z</time>
      </trkpt>
      <trkpt lat="42.7177300" lon="-5.4829710">
        <ele>1086.0</ele>
        <time>2021-08-21T05:43:19Z</time>
      </trkpt>
      <trkpt lat="42.7177580" lon="-5.4829590">
        <ele>1086.0</ele>
        <time>2021-08-21T05:43:20Z</time>
      </trkpt>
      <trkpt lat="42.7177840" lon="-5.4829450">
        <ele>1086.0</ele>
        <time>2021-08-21T05:43:21Z</time>
      </trkpt>
      <trkpt lat="42.7177840" lon="-5.4829450">
        <ele>1086.0</ele>
        <time>2021-08-21T05:43:22Z</time>
      </trkpt>
      <trkpt lat="42.7178350" lon="-5.4829170">
        <ele>1086.0</ele>
        <time>2021-08-21T05:43:23Z</time>
      </trkpt>
      <trkpt lat="42.7178600" lon="-5.4829020">
        <ele>1086.0</ele>
        <time>2021-08-21T05:43:24Z</time>
      </trkpt>
      <trkpt lat="42.7178860" lon="-5.4828890">
        <ele>1085.0</ele>
        <time>2021-08-21T05:43:25Z</time>
      </trkpt>
      <trkpt lat="42.7179140" lon="-5.4828760">
        <ele>1085.0</ele>
        <time>2021-08-21T05:43:26Z</time>
      </trkpt>
      <trkpt lat="42.7179420" lon="-5.4828660">
        <ele>1085.0</ele>
        <time>2021-08-21T05:43:27Z</time>
      </trkpt>
      <trkpt lat="42.7179670" lon="-5.4828550">
        <ele>1085.0</ele>
        <time>2021-08-21T05:43:28Z</time>
      </trkpt>
      <trkpt lat="42.7179930" lon="-5.4828390">
        <ele>1085.0</ele>
        <time>2021-08-21T05:43:29Z</time>
      </trkpt>
      <trkpt lat="42.7180200" lon="-5.4828250">
        <ele>1085.0</ele>
        <time>2021-08-21T05:43:30Z</time>
      </trkpt>
      <trkpt lat="42.7180500" lon="-5.4828110">
        <ele>1085.0</ele>
        <time>2021-08-21T05:43:31Z</time>
      </trkpt>
      <trkpt lat="42.7180780" lon="-5.4827990">
        <ele>1085.0</ele>
        <time>2021-08-21T05:43:32Z</time>
      </trkpt>
      <trkpt lat="42.7181320" lon="-5.4827760">
        <ele>1085.0</ele>
        <time>2021-08-21T05:43:33Z</time>
      </trkpt>
      <trkpt lat="42.7181580" lon="-5.4827640">
        <ele>1084.0</ele>
        <time>2021-08-21T05:43:35Z</time>
      </trkpt>
      <trkpt lat="42.7181870" lon="-5.4827550">
        <ele>1084.0</ele>
        <time>2021-08-21T05:43:36Z</time>
      </trkpt>
      <trkpt lat="42.7182270" lon="-5.4827450">
        <ele>1084.0</ele>
        <time>2021-08-21T05:43:37Z</time>
      </trkpt>
      <trkpt lat="42.7182390" lon="-5.4827410">
        <ele>1084.0</ele>
        <time>2021-08-21T05:43:38Z</time>
      </trkpt>
      <trkpt lat="42.7182660" lon="-5.4827330">
        <ele>1084.0</ele>
        <time>2021-08-21T05:43:39Z</time>
      </trkpt>
      <trkpt lat="42.7182660" lon="-5.4827330">
        <ele>1084.0</ele>
        <time>2021-08-21T05:43:40Z</time>
      </trkpt>
      <trkpt lat="42.7183200" lon="-5.4827130">
        <ele>1083.0</ele>
        <time>2021-08-21T05:43:41Z</time>
      </trkpt>
      <trkpt lat="42.7183630" lon="-5.4826970">
        <ele>1083.0</ele>
        <time>2021-08-21T05:43:42Z</time>
      </trkpt>
      <trkpt lat="42.7183760" lon="-5.4826910">
        <ele>1083.0</ele>
        <time>2021-08-21T05:43:43Z</time>
      </trkpt>
      <trkpt lat="42.7184020" lon="-5.4826810">
        <ele>1083.0</ele>
        <time>2021-08-21T05:43:44Z</time>
      </trkpt>
      <trkpt lat="42.7184290" lon="-5.4826720">
        <ele>1083.0</ele>
        <time>2021-08-21T05:43:45Z</time>
      </trkpt>
      <trkpt lat="42.7184720" lon="-5.4826580">
        <ele>1083.0</ele>
        <time>2021-08-21T05:43:46Z</time>
      </trkpt>
      <trkpt lat="42.7184860" lon="-5.4826530">
        <ele>1083.0</ele>
        <time>2021-08-21T05:43:47Z</time>
      </trkpt>
      <trkpt lat="42.7185150" lon="-5.4826420">
        <ele>1083.0</ele>
        <time>2021-08-21T05:43:48Z</time>
      </trkpt>
      <trkpt lat="42.7185440" lon="-5.4826330">
        <ele>1083.0</ele>
        <time>2021-08-21T05:43:49Z</time>
      </trkpt>
      <trkpt lat="42.7185720" lon="-5.4826260">
        <ele>1083.0</ele>
        <time>2021-08-21T05:43:50Z</time>
      </trkpt>
      <trkpt lat="42.7185990" lon="-5.4826180">
        <ele>1083.0</ele>
        <time>2021-08-21T05:43:51Z</time>
      </trkpt>
      <trkpt lat="42.7186270" lon="-5.4826110">
        <ele>1083.0</ele>
        <time>2021-08-21T05:43:52Z</time>
      </trkpt>
      <trkpt lat="42.7186550" lon="-5.4826050">
        <ele>1083.0</ele>
        <time>2021-08-21T05:43:53Z</time>
      </trkpt>
      <trkpt lat="42.7186960" lon="-5.4826040">
        <ele>1083.0</ele>
        <time>2021-08-21T05:43:54Z</time>
      </trkpt>
      <trkpt lat="42.7187100" lon="-5.4826050">
        <ele>1083.0</ele>
        <time>2021-08-21T05:43:55Z</time>
      </trkpt>
      <trkpt lat="42.7187390" lon="-5.4826060">
        <ele>1083.0</ele>
        <time>2021-08-21T05:43:56Z</time>
      </trkpt>
      <trkpt lat="42.7187680" lon="-5.4826070">
        <ele>1082.0</ele>
        <time>2021-08-21T05:43:57Z</time>
      </trkpt>
      <trkpt lat="42.7187960" lon="-5.4826110">
        <ele>1082.0</ele>
        <time>2021-08-21T05:43:58Z</time>
      </trkpt>
      <trkpt lat="42.7188270" lon="-5.4826180">
        <ele>1082.0</ele>
        <time>2021-08-21T05:43:59Z</time>
      </trkpt>
      <trkpt lat="42.7188550" lon="-5.4826240">
        <ele>1082.0</ele>
        <time>2021-08-21T05:44:00Z</time>
      </trkpt>
      <trkpt lat="42.7188820" lon="-5.4826310">
        <ele>1082.0</ele>
        <time>2021-08-21T05:44:01Z</time>
      </trkpt>
      <trkpt lat="42.7189100" lon="-5.4826380">
        <ele>1082.0</ele>
        <time>2021-08-21T05:44:02Z</time>
      </trkpt>
      <trkpt lat="42.7189400" lon="-5.4826430">
        <ele>1082.0</ele>
        <time>2021-08-21T05:44:03Z</time>
      </trkpt>
      <trkpt lat="42.7189690" lon="-5.4826490">
        <ele>1082.0</ele>
        <time>2021-08-21T05:44:04Z</time>
      </trkpt>
      <trkpt lat="42.7189980" lon="-5.4826560">
        <ele>1082.0</ele>
        <time>2021-08-21T05:44:05Z</time>
      </trkpt>
      <trkpt lat="42.7190270" lon="-5.4826640">
        <ele>1082.0</ele>
        <time>2021-08-21T05:44:06Z</time>
      </trkpt>
      <trkpt lat="42.7190710" lon="-5.4826740">
        <ele>1082.0</ele>
        <time>2021-08-21T05:44:07Z</time>
      </trkpt>
      <trkpt lat="42.7190860" lon="-5.4826770">
        <ele>1082.0</ele>
        <time>2021-08-21T05:44:08Z</time>
      </trkpt>
      <trkpt lat="42.7191150" lon="-5.4826810">
        <ele>1081.0</ele>
        <time>2021-08-21T05:44:09Z</time>
      </trkpt>
      <trkpt lat="42.7191450" lon="-5.4826850">
        <ele>1081.0</ele>
        <time>2021-08-21T05:44:10Z</time>
      </trkpt>
      <trkpt lat="42.7191730" lon="-5.4826910">
        <ele>1081.0</ele>
        <time>2021-08-21T05:44:11Z</time>
      </trkpt>
      <trkpt lat="42.7192010" lon="-5.4827000">
        <ele>1081.0</ele>
        <time>2021-08-21T05:44:12Z</time>
      </trkpt>
      <trkpt lat="42.7192270" lon="-5.4827080">
        <ele>1081.0</ele>
        <time>2021-08-21T05:44:13Z</time>
      </trkpt>
      <trkpt lat="42.7192680" lon="-5.4827210">
        <ele>1081.0</ele>
        <time>2021-08-21T05:44:14Z</time>
      </trkpt>
      <trkpt lat="42.7192810" lon="-5.4827260">
        <ele>1081.0</ele>
        <time>2021-08-21T05:44:15Z</time>
      </trkpt>
      <trkpt lat="42.7193070" lon="-5.4827370">
        <ele>1081.0</ele>
        <time>2021-08-21T05:44:16Z</time>
      </trkpt>
      <trkpt lat="42.7193340" lon="-5.4827470">
        <ele>1081.0</ele>
        <time>2021-08-21T05:44:17Z</time>
      </trkpt>
      <trkpt lat="42.7193610" lon="-5.4827580">
        <ele>1081.0</ele>
        <time>2021-08-21T05:44:18Z</time>
      </trkpt>
      <trkpt lat="42.7193880" lon="-5.4827660">
        <ele>1081.0</ele>
        <time>2021-08-21T05:44:19Z</time>
      </trkpt>
      <trkpt lat="42.7194160" lon="-5.4827750">
        <ele>1081.0</ele>
        <time>2021-08-21T05:44:20Z</time>
      </trkpt>
      <trkpt lat="42.7194440" lon="-5.4827820">
        <ele>1081.0</ele>
        <time>2021-08-21T05:44:21Z</time>
      </trkpt>
      <trkpt lat="42.7194720" lon="-5.4827890">
        <ele>1081.0</ele>
        <time>2021-08-21T05:44:22Z</time>
      </trkpt>
      <trkpt lat="42.7194990" lon="-5.4827970">
        <ele>1081.0</ele>
        <time>2021-08-21T05:44:23Z</time>
      </trkpt>
      <trkpt lat="42.7195390" lon="-5.4828090">
        <ele>1081.0</ele>
        <time>2021-08-21T05:44:24Z</time>
      </trkpt>
      <trkpt lat="42.7195530" lon="-5.4828140">
        <ele>1081.0</ele>
        <time>2021-08-21T05:44:25Z</time>
      </trkpt>
      <trkpt lat="42.7195840" lon="-5.4828220">
        <ele>1081.0</ele>
        <time>2021-08-21T05:44:26Z</time>
      </trkpt>
      <trkpt lat="42.7196130" lon="-5.4828290">
        <ele>1081.0</ele>
        <time>2021-08-21T05:44:27Z</time>
      </trkpt>
      <trkpt lat="42.7196430" lon="-5.4828340">
        <ele>1080.0</ele>
        <time>2021-08-21T05:44:28Z</time>
      </trkpt>
      <trkpt lat="42.7196870" lon="-5.4828400">
        <ele>1080.0</ele>
        <time>2021-08-21T05:44:29Z</time>
      </trkpt>
      <trkpt lat="42.7197020" lon="-5.4828420">
        <ele>1080.0</ele>
        <time>2021-08-21T05:44:30Z</time>
      </trkpt>
      <trkpt lat="42.7197310" lon="-5.4828440">
        <ele>1080.0</ele>
        <time>2021-08-21T05:44:31Z</time>
      </trkpt>
      <trkpt lat="42.7197620" lon="-5.4828450">
        <ele>1080.0</ele>
        <time>2021-08-21T05:44:32Z</time>
      </trkpt>
      <trkpt lat="42.7197900" lon="-5.4828450">
        <ele>1080.0</ele>
        <time>2021-08-21T05:44:33Z</time>
      </trkpt>
      <trkpt lat="42.7198340" lon="-5.4828380">
        <ele>1080.0</ele>
        <time>2021-08-21T05:44:34Z</time>
      </trkpt>
      <trkpt lat="42.7198480" lon="-5.4828350">
        <ele>1080.0</ele>
        <time>2021-08-21T05:44:35Z</time>
      </trkpt>
      <trkpt lat="42.7198770" lon="-5.4828300">
        <ele>1080.0</ele>
        <time>2021-08-21T05:44:36Z</time>
      </trkpt>
      <trkpt lat="42.7199060" lon="-5.4828250">
        <ele>1080.0</ele>
        <time>2021-08-21T05:44:37Z</time>
      </trkpt>
      <trkpt lat="42.7199350" lon="-5.4828190">
        <ele>1080.0</ele>
        <time>2021-08-21T05:44:38Z</time>
      </trkpt>
      <trkpt lat="42.7199640" lon="-5.4828140">
        <ele>1080.0</ele>
        <time>2021-08-21T05:44:39Z</time>
      </trkpt>
      <trkpt lat="42.7199910" lon="-5.4828080">
        <ele>1079.0</ele>
        <time>2021-08-21T05:44:40Z</time>
      </trkpt>
      <trkpt lat="42.7200200" lon="-5.4828000">
        <ele>1079.0</ele>
        <time>2021-08-21T05:44:41Z</time>
      </trkpt>
      <trkpt lat="42.7200630" lon="-5.4827900">
        <ele>1079.0</ele>
        <time>2021-08-21T05:44:42Z</time>
      </trkpt>
      <trkpt lat="42.7200770" lon="-5.4827860">
        <ele>1079.0</ele>
        <time>2021-08-21T05:44:43Z</time>
      </trkpt>
      <trkpt lat="42.7201060" lon="-5.4827790">
        <ele>1079.0</ele>
        <time>2021-08-21T05:44:44Z</time>
      </trkpt>
      <trkpt lat="42.7201340" lon="-5.4827710">
        <ele>1079.0</ele>
        <time>2021-08-21T05:44:45Z</time>
      </trkpt>
      <trkpt lat="42.7201610" lon="-5.4827630">
        <ele>1079.0</ele>
        <time>2021-08-21T05:44:46Z</time>
      </trkpt>
      <trkpt lat="42.7201890" lon="-5.4827540">
        <ele>1079.0</ele>
        <time>2021-08-21T05:44:47Z</time>
      </trkpt>
      <trkpt lat="42.7202170" lon="-5.4827450">
        <ele>1079.0</ele>
        <time>2021-08-21T05:44:48Z</time>
      </trkpt>
      <trkpt lat="42.7202440" lon="-5.4827370">
        <ele>1079.0</ele>
        <time>2021-08-21T05:44:49Z</time>
      </trkpt>
      <trkpt lat="42.7202710" lon="-5.4827270">
        <ele>1079.0</ele>
        <time>2021-08-21T05:44:50Z</time>
      </trkpt>
      <trkpt lat="42.7202980" lon="-5.4827170">
        <ele>1079.0</ele>
        <time>2021-08-21T05:44:51Z</time>
      </trkpt>
      <trkpt lat="42.7203380" lon="-5.4827030">
        <ele>1079.0</ele>
        <time>2021-08-21T05:44:52Z</time>
      </trkpt>
      <trkpt lat="42.7203510" lon="-5.4826980">
        <ele>1078.0</ele>
        <time>2021-08-21T05:44:53Z</time>
      </trkpt>
      <trkpt lat="42.7203780" lon="-5.4826870">
        <ele>1078.0</ele>
        <time>2021-08-21T05:44:54Z</time>
      </trkpt>
      <trkpt lat="42.7204040" lon="-5.4826730">
        <ele>1078.0</ele>
        <time>2021-08-21T05:44:55Z</time>
      </trkpt>
      <trkpt lat="42.7204320" lon="-5.4826590">
        <ele>1078.0</ele>
        <time>2021-08-21T05:44:56Z</time>
      </trkpt>
      <trkpt lat="42.7204570" lon="-5.4826440">
        <ele>1078.0</ele>
        <time>2021-08-21T05:44:57Z</time>
      </trkpt>
      <trkpt lat="42.7204950" lon="-5.4826190">
        <ele>1078.0</ele>
        <time>2021-08-21T05:44:58Z</time>
      </trkpt>
      <trkpt lat="42.7205070" lon="-5.4826100">
        <ele>1078.0</ele>
        <time>2021-08-21T05:44:59Z</time>
      </trkpt>
      <trkpt lat="42.7205310" lon="-5.4825920">
        <ele>1078.0</ele>
        <time>2021-08-21T05:45:00Z</time>
      </trkpt>
      <trkpt lat="42.7205550" lon="-5.4825760">
        <ele>1078.0</ele>
        <time>2021-08-21T05:45:01Z</time>
      </trkpt>
      <trkpt lat="42.7205800" lon="-5.4825610">
        <ele>1078.0</ele>
        <time>2021-08-21T05:45:02Z</time>
      </trkpt>
      <trkpt lat="42.7206040" lon="-5.4825460">
        <ele>1078.0</ele>
        <time>2021-08-21T05:45:03Z</time>
      </trkpt>
      <trkpt lat="42.7206280" lon="-5.4825320">
        <ele>1078.0</ele>
        <time>2021-08-21T05:45:04Z</time>
      </trkpt>
      <trkpt lat="42.7206530" lon="-5.4825160">
        <ele>1078.0</ele>
        <time>2021-08-21T05:45:05Z</time>
      </trkpt>
      <trkpt lat="42.7206770" lon="-5.4824990">
        <ele>1078.0</ele>
        <time>2021-08-21T05:45:06Z</time>
      </trkpt>
      <trkpt lat="42.7207030" lon="-5.4824820">
        <ele>1078.0</ele>
        <time>2021-08-21T05:45:07Z</time>
      </trkpt>
      <trkpt lat="42.7207280" lon="-5.4824630">
        <ele>1077.0</ele>
        <time>2021-08-21T05:45:08Z</time>
      </trkpt>
      <trkpt lat="42.7207530" lon="-5.4824430">
        <ele>1077.0</ele>
        <time>2021-08-21T05:45:09Z</time>
      </trkpt>
      <trkpt lat="42.7207760" lon="-5.4824240">
        <ele>1077.0</ele>
        <time>2021-08-21T05:45:10Z</time>
      </trkpt>
      <trkpt lat="42.7207990" lon="-5.4824030">
        <ele>1077.0</ele>
        <time>2021-08-21T05:45:11Z</time>
      </trkpt>
      <trkpt lat="42.7208230" lon="-5.4823840">
        <ele>1077.0</ele>
        <time>2021-08-21T05:45:12Z</time>
      </trkpt>
      <trkpt lat="42.7208590" lon="-5.4823510">
        <ele>1077.0</ele>
        <time>2021-08-21T05:45:13Z</time>
      </trkpt>
      <trkpt lat="42.7208700" lon="-5.4823400">
        <ele>1077.0</ele>
        <time>2021-08-21T05:45:14Z</time>
      </trkpt>
      <trkpt lat="42.7209020" lon="-5.4823070">
        <ele>1077.0</ele>
        <time>2021-08-21T05:45:15Z</time>
      </trkpt>
      <trkpt lat="42.7209120" lon="-5.4822950">
        <ele>1077.0</ele>
        <time>2021-08-21T05:45:16Z</time>
      </trkpt>
      <trkpt lat="42.7209310" lon="-5.4822680">
        <ele>1077.0</ele>
        <time>2021-08-21T05:45:17Z</time>
      </trkpt>
      <trkpt lat="42.7209500" lon="-5.4822410">
        <ele>1077.0</ele>
        <time>2021-08-21T05:45:18Z</time>
      </trkpt>
      <trkpt lat="42.7209700" lon="-5.4822180">
        <ele>1077.0</ele>
        <time>2021-08-21T05:45:19Z</time>
      </trkpt>
      <trkpt lat="42.7209880" lon="-5.4821930">
        <ele>1077.0</ele>
        <time>2021-08-21T05:45:20Z</time>
      </trkpt>
      <trkpt lat="42.7210040" lon="-5.4821660">
        <ele>1077.0</ele>
        <time>2021-08-21T05:45:21Z</time>
      </trkpt>
      <trkpt lat="42.7210200" lon="-5.4821370">
        <ele>1077.0</ele>
        <time>2021-08-21T05:45:22Z</time>
      </trkpt>
      <trkpt lat="42.7210360" lon="-5.4821070">
        <ele>1077.0</ele>
        <time>2021-08-21T05:45:23Z</time>
      </trkpt>
      <trkpt lat="42.7210500" lon="-5.4820770">
        <ele>1077.0</ele>
        <time>2021-08-21T05:45:24Z</time>
      </trkpt>
      <trkpt lat="42.7210660" lon="-5.4820480">
        <ele>1077.0</ele>
        <time>2021-08-21T05:45:25Z</time>
      </trkpt>
      <trkpt lat="42.7210780" lon="-5.4820160">
        <ele>1077.0</ele>
        <time>2021-08-21T05:45:26Z</time>
      </trkpt>
      <trkpt lat="42.7210910" lon="-5.4819830">
        <ele>1077.0</ele>
        <time>2021-08-21T05:45:27Z</time>
      </trkpt>
      <trkpt lat="42.7211030" lon="-5.4819500">
        <ele>1077.0</ele>
        <time>2021-08-21T05:45:28Z</time>
      </trkpt>
      <trkpt lat="42.7211130" lon="-5.4819160">
        <ele>1077.0</ele>
        <time>2021-08-21T05:45:29Z</time>
      </trkpt>
      <trkpt lat="42.7211240" lon="-5.4818840">
        <ele>1077.0</ele>
        <time>2021-08-21T05:45:30Z</time>
      </trkpt>
      <trkpt lat="42.7211350" lon="-5.4818520">
        <ele>1077.0</ele>
        <time>2021-08-21T05:45:31Z</time>
      </trkpt>
      <trkpt lat="42.7211450" lon="-5.4818220">
        <ele>1077.0</ele>
        <time>2021-08-21T05:45:32Z</time>
      </trkpt>
      <trkpt lat="42.7211590" lon="-5.4817900">
        <ele>1077.0</ele>
        <time>2021-08-21T05:45:33Z</time>
      </trkpt>
      <trkpt lat="42.7211760" lon="-5.4817460">
        <ele>1077.0</ele>
        <time>2021-08-21T05:45:34Z</time>
      </trkpt>
      <trkpt lat="42.7211820" lon="-5.4817300">
        <ele>1078.0</ele>
        <time>2021-08-21T05:45:35Z</time>
      </trkpt>
      <trkpt lat="42.7211940" lon="-5.4817000">
        <ele>1078.0</ele>
        <time>2021-08-21T05:45:36Z</time>
      </trkpt>
      <trkpt lat="42.7212100" lon="-5.4816540">
        <ele>1078.0</ele>
        <time>2021-08-21T05:45:37Z</time>
      </trkpt>
      <trkpt lat="42.7212160" lon="-5.4816380">
        <ele>1078.0</ele>
        <time>2021-08-21T05:45:38Z</time>
      </trkpt>
      <trkpt lat="42.7212290" lon="-5.4816090">
        <ele>1078.0</ele>
        <time>2021-08-21T05:45:39Z</time>
      </trkpt>
      <trkpt lat="42.7212420" lon="-5.4815790">
        <ele>1078.0</ele>
        <time>2021-08-21T05:45:40Z</time>
      </trkpt>
      <trkpt lat="42.7212540" lon="-5.4815500">
        <ele>1078.0</ele>
        <time>2021-08-21T05:45:41Z</time>
      </trkpt>
      <trkpt lat="42.7212630" lon="-5.4815190">
        <ele>1078.0</ele>
        <time>2021-08-21T05:45:42Z</time>
      </trkpt>
      <trkpt lat="42.7212710" lon="-5.4814900">
        <ele>1078.0</ele>
        <time>2021-08-21T05:45:43Z</time>
      </trkpt>
      <trkpt lat="42.7212780" lon="-5.4814600">
        <ele>1078.0</ele>
        <time>2021-08-21T05:45:44Z</time>
      </trkpt>
      <trkpt lat="42.7212870" lon="-5.4814320">
        <ele>1078.0</ele>
        <time>2021-08-21T05:45:45Z</time>
      </trkpt>
      <trkpt lat="42.7212950" lon="-5.4814030">
        <ele>1078.0</ele>
        <time>2021-08-21T05:45:46Z</time>
      </trkpt>
      <trkpt lat="42.7213040" lon="-5.4813750">
        <ele>1078.0</ele>
        <time>2021-08-21T05:45:47Z</time>
      </trkpt>
      <trkpt lat="42.7213120" lon="-5.4813450">
        <ele>1078.0</ele>
        <time>2021-08-21T05:45:48Z</time>
      </trkpt>
      <trkpt lat="42.7213220" lon="-5.4813150">
        <ele>1078.0</ele>
        <time>2021-08-21T05:45:49Z</time>
      </trkpt>
      <trkpt lat="42.7213320" lon="-5.4812860">
        <ele>1078.0</ele>
        <time>2021-08-21T05:45:50Z</time>
      </trkpt>
      <trkpt lat="42.7213420" lon="-5.4812570">
        <ele>1079.0</ele>
        <time>2021-08-21T05:45:51Z</time>
      </trkpt>
      <trkpt lat="42.7213510" lon="-5.4812270">
        <ele>1079.0</ele>
        <time>2021-08-21T05:45:52Z</time>
      </trkpt>
      <trkpt lat="42.7213600" lon="-5.4811980">
        <ele>1079.0</ele>
        <time>2021-08-21T05:45:53Z</time>
      </trkpt>
      <trkpt lat="42.7213680" lon="-5.4811690">
        <ele>1079.0</ele>
        <time>2021-08-21T05:45:54Z</time>
      </trkpt>
      <trkpt lat="42.7213740" lon="-5.4811400">
        <ele>1079.0</ele>
        <time>2021-08-21T05:45:55Z</time>
      </trkpt>
      <trkpt lat="42.7213850" lon="-5.4811120">
        <ele>1079.0</ele>
        <time>2021-08-21T05:45:56Z</time>
      </trkpt>
      <trkpt lat="42.7213980" lon="-5.4810840">
        <ele>1079.0</ele>
        <time>2021-08-21T05:45:57Z</time>
      </trkpt>
      <trkpt lat="42.7214100" lon="-5.4810540">
        <ele>1079.0</ele>
        <time>2021-08-21T05:45:58Z</time>
      </trkpt>
      <trkpt lat="42.7214220" lon="-5.4810260">
        <ele>1079.0</ele>
        <time>2021-08-21T05:45:59Z</time>
      </trkpt>
      <trkpt lat="42.7214320" lon="-5.4809980">
        <ele>1079.0</ele>
        <time>2021-08-21T05:46:00Z</time>
      </trkpt>
      <trkpt lat="42.7214420" lon="-5.4809710">
        <ele>1079.0</ele>
        <time>2021-08-21T05:46:01Z</time>
      </trkpt>
      <trkpt lat="42.7214530" lon="-5.4809400">
        <ele>1080.0</ele>
        <time>2021-08-21T05:46:02Z</time>
      </trkpt>
      <trkpt lat="42.7214620" lon="-5.4809100">
        <ele>1080.0</ele>
        <time>2021-08-21T05:46:03Z</time>
      </trkpt>
      <trkpt lat="42.7214710" lon="-5.4808790">
        <ele>1080.0</ele>
        <time>2021-08-21T05:46:04Z</time>
      </trkpt>
      <trkpt lat="42.7214810" lon="-5.4808520">
        <ele>1080.0</ele>
        <time>2021-08-21T05:46:05Z</time>
      </trkpt>
      <trkpt lat="42.7214920" lon="-5.4808220">
        <ele>1080.0</ele>
        <time>2021-08-21T05:46:06Z</time>
      </trkpt>
      <trkpt lat="42.7215020" lon="-5.4807930">
        <ele>1080.0</ele>
        <time>2021-08-21T05:46:07Z</time>
      </trkpt>
      <trkpt lat="42.7215120" lon="-5.4807650">
        <ele>1080.0</ele>
        <time>2021-08-21T05:46:08Z</time>
      </trkpt>
      <trkpt lat="42.7215330" lon="-5.4807060">
        <ele>1080.0</ele>
        <time>2021-08-21T05:46:09Z</time>
      </trkpt>
      <trkpt lat="42.7215430" lon="-5.4806760">
        <ele>1080.0</ele>
        <time>2021-08-21T05:46:10Z</time>
      </trkpt>
      <trkpt lat="42.7215610" lon="-5.4806310">
        <ele>1080.0</ele>
        <time>2021-08-21T05:46:12Z</time>
      </trkpt>
      <trkpt lat="42.7215680" lon="-5.4806160">
        <ele>1081.0</ele>
        <time>2021-08-21T05:46:13Z</time>
      </trkpt>
      <trkpt lat="42.7215790" lon="-5.4805860">
        <ele>1081.0</ele>
        <time>2021-08-21T05:46:14Z</time>
      </trkpt>
      <trkpt lat="42.7215910" lon="-5.4805570">
        <ele>1081.0</ele>
        <time>2021-08-21T05:46:15Z</time>
      </trkpt>
      <trkpt lat="42.7216030" lon="-5.4805270">
        <ele>1081.0</ele>
        <time>2021-08-21T05:46:16Z</time>
      </trkpt>
      <trkpt lat="42.7216160" lon="-5.4804960">
        <ele>1081.0</ele>
        <time>2021-08-21T05:46:17Z</time>
      </trkpt>
      <trkpt lat="42.7216260" lon="-5.4804640">
        <ele>1081.0</ele>
        <time>2021-08-21T05:46:18Z</time>
      </trkpt>
      <trkpt lat="42.7216430" lon="-5.4804150">
        <ele>1081.0</ele>
        <time>2021-08-21T05:46:19Z</time>
      </trkpt>
      <trkpt lat="42.7216510" lon="-5.4803980">
        <ele>1081.0</ele>
        <time>2021-08-21T05:46:20Z</time>
      </trkpt>
      <trkpt lat="42.7216650" lon="-5.4803640">
        <ele>1081.0</ele>
        <time>2021-08-21T05:46:21Z</time>
      </trkpt>
      <trkpt lat="42.7216820" lon="-5.4803320">
        <ele>1081.0</ele>
        <time>2021-08-21T05:46:22Z</time>
      </trkpt>
      <trkpt lat="42.7216950" lon="-5.4802970">
        <ele>1081.0</ele>
        <time>2021-08-21T05:46:23Z</time>
      </trkpt>
      <trkpt lat="42.7217090" lon="-5.4802640">
        <ele>1081.0</ele>
        <time>2021-08-21T05:46:24Z</time>
      </trkpt>
      <trkpt lat="42.7217210" lon="-5.4802290">
        <ele>1081.0</ele>
        <time>2021-08-21T05:46:25Z</time>
      </trkpt>
      <trkpt lat="42.7217340" lon="-5.4801940">
        <ele>1081.0</ele>
        <time>2021-08-21T05:46:26Z</time>
      </trkpt>
      <trkpt lat="42.7217470" lon="-5.4801590">
        <ele>1082.0</ele>
        <time>2021-08-21T05:46:27Z</time>
      </trkpt>
      <trkpt lat="42.7217620" lon="-5.4801260">
        <ele>1082.0</ele>
        <time>2021-08-21T05:46:28Z</time>
      </trkpt>
      <trkpt lat="42.7217730" lon="-5.4800930">
        <ele>1082.0</ele>
        <time>2021-08-21T05:46:29Z</time>
      </trkpt>
      <trkpt lat="42.7217870" lon="-5.4800600">
        <ele>1082.0</ele>
        <time>2021-08-21T05:46:30Z</time>
      </trkpt>
      <trkpt lat="42.7218080" lon="-5.4800100">
        <ele>1082.0</ele>
        <time>2021-08-21T05:46:31Z</time>
      </trkpt>
      <trkpt lat="42.7218150" lon="-5.4799930">
        <ele>1082.0</ele>
        <time>2021-08-21T05:46:32Z</time>
      </trkpt>
      <trkpt lat="42.7218300" lon="-5.4799600">
        <ele>1082.0</ele>
        <time>2021-08-21T05:46:33Z</time>
      </trkpt>
      <trkpt lat="42.7218440" lon="-5.4799260">
        <ele>1082.0</ele>
        <time>2021-08-21T05:46:34Z</time>
      </trkpt>
      <trkpt lat="42.7218570" lon="-5.4798910">
        <ele>1082.0</ele>
        <time>2021-08-21T05:46:35Z</time>
      </trkpt>
      <trkpt lat="42.7218720" lon="-5.4798570">
        <ele>1082.0</ele>
        <time>2021-08-21T05:46:36Z</time>
      </trkpt>
      <trkpt lat="42.7218820" lon="-5.4798210">
        <ele>1082.0</ele>
        <time>2021-08-21T05:46:37Z</time>
      </trkpt>
      <trkpt lat="42.7218950" lon="-5.4797840">
        <ele>1082.0</ele>
        <time>2021-08-21T05:46:38Z</time>
      </trkpt>
      <trkpt lat="42.7219130" lon="-5.4797500">
        <ele>1082.0</ele>
        <time>2021-08-21T05:46:39Z</time>
      </trkpt>
      <trkpt lat="42.7219280" lon="-5.4797170">
        <ele>1083.0</ele>
        <time>2021-08-21T05:46:40Z</time>
      </trkpt>
      <trkpt lat="42.7219440" lon="-5.4796840">
        <ele>1083.0</ele>
        <time>2021-08-21T05:46:41Z</time>
      </trkpt>
      <trkpt lat="42.7219600" lon="-5.4796510">
        <ele>1083.0</ele>
        <time>2021-08-21T05:46:42Z</time>
      </trkpt>
      <trkpt lat="42.7219710" lon="-5.4796150">
        <ele>1083.0</ele>
        <time>2021-08-21T05:46:43Z</time>
      </trkpt>
      <trkpt lat="42.7219810" lon="-5.4795800">
        <ele>1083.0</ele>
        <time>2021-08-21T05:46:44Z</time>
      </trkpt>
      <trkpt lat="42.7219940" lon="-5.4795480">
        <ele>1083.0</ele>
        <time>2021-08-21T05:46:45Z</time>
      </trkpt>
      <trkpt lat="42.7220060" lon="-5.4795150">
        <ele>1083.0</ele>
        <time>2021-08-21T05:46:46Z</time>
      </trkpt>
      <trkpt lat="42.7220180" lon="-5.4794820">
        <ele>1083.0</ele>
        <time>2021-08-21T05:46:47Z</time>
      </trkpt>
      <trkpt lat="42.7220310" lon="-5.4794500">
        <ele>1083.0</ele>
        <time>2021-08-21T05:46:48Z</time>
      </trkpt>
      <trkpt lat="42.7220450" lon="-5.4794190">
        <ele>1083.0</ele>
        <time>2021-08-21T05:46:49Z</time>
      </trkpt>
      <trkpt lat="42.7220670" lon="-5.4793700">
        <ele>1083.0</ele>
        <time>2021-08-21T05:46:50Z</time>
      </trkpt>
      <trkpt lat="42.7220740" lon="-5.4793530">
        <ele>1083.0</ele>
        <time>2021-08-21T05:46:51Z</time>
      </trkpt>
      <trkpt lat="42.7220880" lon="-5.4793180">
        <ele>1083.0</ele>
        <time>2021-08-21T05:46:52Z</time>
      </trkpt>
      <trkpt lat="42.7221000" lon="-5.4792840">
        <ele>1083.0</ele>
        <time>2021-08-21T05:46:53Z</time>
      </trkpt>
      <trkpt lat="42.7221120" lon="-5.4792550">
        <ele>1083.0</ele>
        <time>2021-08-21T05:46:54Z</time>
      </trkpt>
      <trkpt lat="42.7221250" lon="-5.4792260">
        <ele>1083.0</ele>
        <time>2021-08-21T05:46:55Z</time>
      </trkpt>
      <trkpt lat="42.7221400" lon="-5.4791960">
        <ele>1083.0</ele>
        <time>2021-08-21T05:46:56Z</time>
      </trkpt>
      <trkpt lat="42.7221530" lon="-5.4791640">
        <ele>1083.0</ele>
        <time>2021-08-21T05:46:57Z</time>
      </trkpt>
      <trkpt lat="42.7221660" lon="-5.4791330">
        <ele>1083.0</ele>
        <time>2021-08-21T05:46:58Z</time>
      </trkpt>
      <trkpt lat="42.7221780" lon="-5.4791010">
        <ele>1083.0</ele>
        <time>2021-08-21T05:46:59Z</time>
      </trkpt>
      <trkpt lat="42.7221890" lon="-5.4790690">
        <ele>1083.0</ele>
        <time>2021-08-21T05:47:00Z</time>
      </trkpt>
      <trkpt lat="42.7222100" lon="-5.4790230">
        <ele>1083.0</ele>
        <time>2021-08-21T05:47:01Z</time>
      </trkpt>
      <trkpt lat="42.7222160" lon="-5.4790070">
        <ele>1083.0</ele>
        <time>2021-08-21T05:47:02Z</time>
      </trkpt>
      <trkpt lat="42.7222260" lon="-5.4789740">
        <ele>1083.0</ele>
        <time>2021-08-21T05:47:03Z</time>
      </trkpt>
      <trkpt lat="42.7222430" lon="-5.4789230">
        <ele>1083.0</ele>
        <time>2021-08-21T05:47:04Z</time>
      </trkpt>
      <trkpt lat="42.7222480" lon="-5.4789050">
        <ele>1083.0</ele>
        <time>2021-08-21T05:47:05Z</time>
      </trkpt>
      <trkpt lat="42.7222670" lon="-5.4788550">
        <ele>1083.0</ele>
        <time>2021-08-21T05:47:06Z</time>
      </trkpt>
      <trkpt lat="42.7222730" lon="-5.4788380">
        <ele>1083.0</ele>
        <time>2021-08-21T05:47:07Z</time>
      </trkpt>
      <trkpt lat="42.7222840" lon="-5.4788050">
        <ele>1083.0</ele>
        <time>2021-08-21T05:47:08Z</time>
      </trkpt>
      <trkpt lat="42.7222970" lon="-5.4787730">
        <ele>1083.0</ele>
        <time>2021-08-21T05:47:09Z</time>
      </trkpt>
      <trkpt lat="42.7223100" lon="-5.4787410">
        <ele>1083.0</ele>
        <time>2021-08-21T05:47:10Z</time>
      </trkpt>
      <trkpt lat="42.7223220" lon="-5.4787080">
        <ele>1083.0</ele>
        <time>2021-08-21T05:47:11Z</time>
      </trkpt>
      <trkpt lat="42.7223330" lon="-5.4786750">
        <ele>1083.0</ele>
        <time>2021-08-21T05:47:12Z</time>
      </trkpt>
      <trkpt lat="42.7223430" lon="-5.4786410">
        <ele>1083.0</ele>
        <time>2021-08-21T05:47:13Z</time>
      </trkpt>
      <trkpt lat="42.7223540" lon="-5.4786080">
        <ele>1083.0</ele>
        <time>2021-08-21T05:47:14Z</time>
      </trkpt>
      <trkpt lat="42.7223660" lon="-5.4785760">
        <ele>1083.0</ele>
        <time>2021-08-21T05:47:15Z</time>
      </trkpt>
      <trkpt lat="42.7223780" lon="-5.4785430">
        <ele>1083.0</ele>
        <time>2021-08-21T05:47:16Z</time>
      </trkpt>
      <trkpt lat="42.7223850" lon="-5.4785100">
        <ele>1083.0</ele>
        <time>2021-08-21T05:47:17Z</time>
      </trkpt>
      <trkpt lat="42.7223900" lon="-5.4784570">
        <ele>1083.0</ele>
        <time>2021-08-21T05:47:18Z</time>
      </trkpt>
      <trkpt lat="42.7223920" lon="-5.4784400">
        <ele>1083.0</ele>
        <time>2021-08-21T05:47:19Z</time>
      </trkpt>
      <trkpt lat="42.7223990" lon="-5.4784070">
        <ele>1083.0</ele>
        <time>2021-08-21T05:47:20Z</time>
      </trkpt>
      <trkpt lat="42.7224050" lon="-5.4783750">
        <ele>1083.0</ele>
        <time>2021-08-21T05:47:21Z</time>
      </trkpt>
      <trkpt lat="42.7224120" lon="-5.4783420">
        <ele>1084.0</ele>
        <time>2021-08-21T05:47:22Z</time>
      </trkpt>
      <trkpt lat="42.7224120" lon="-5.4783080">
        <ele>1084.0</ele>
        <time>2021-08-21T05:47:23Z</time>
      </trkpt>
      <trkpt lat="42.7224130" lon="-5.4782730">
        <ele>1084.0</ele>
        <time>2021-08-21T05:47:24Z</time>
      </trkpt>
      <trkpt lat="42.7224130" lon="-5.4782370">
        <ele>1084.0</ele>
        <time>2021-08-21T05:47:25Z</time>
      </trkpt>
      <trkpt lat="42.7224140" lon="-5.4782030">
        <ele>1084.0</ele>
        <time>2021-08-21T05:47:26Z</time>
      </trkpt>
      <trkpt lat="42.7224150" lon="-5.4781660">
        <ele>1084.0</ele>
        <time>2021-08-21T05:47:27Z</time>
      </trkpt>
      <trkpt lat="42.7224150" lon="-5.4781120">
        <ele>1084.0</ele>
        <time>2021-08-21T05:47:28Z</time>
      </trkpt>
      <trkpt lat="42.7224130" lon="-5.4780940">
        <ele>1084.0</ele>
        <time>2021-08-21T05:47:29Z</time>
      </trkpt>
      <trkpt lat="42.7224070" lon="-5.4780580">
        <ele>1084.0</ele>
        <time>2021-08-21T05:47:30Z</time>
      </trkpt>
      <trkpt lat="42.7224040" lon="-5.4780200">
        <ele>1084.0</ele>
        <time>2021-08-21T05:47:31Z</time>
      </trkpt>
      <trkpt lat="42.7223980" lon="-5.4779840">
        <ele>1084.0</ele>
        <time>2021-08-21T05:47:32Z</time>
      </trkpt>
      <trkpt lat="42.7223880" lon="-5.4779480">
        <ele>1084.0</ele>
        <time>2021-08-21T05:47:33Z</time>
      </trkpt>
      <trkpt lat="42.7223790" lon="-5.4779120">
        <ele>1084.0</ele>
        <time>2021-08-21T05:47:34Z</time>
      </trkpt>
      <trkpt lat="42.7223730" lon="-5.4778750">
        <ele>1084.0</ele>
        <time>2021-08-21T05:47:35Z</time>
      </trkpt>
      <trkpt lat="42.7223670" lon="-5.4778390">
        <ele>1084.0</ele>
        <time>2021-08-21T05:47:36Z</time>
      </trkpt>
      <trkpt lat="42.7223600" lon="-5.4778040">
        <ele>1084.0</ele>
        <time>2021-08-21T05:47:37Z</time>
      </trkpt>
      <trkpt lat="42.7223540" lon="-5.4777710">
        <ele>1084.0</ele>
        <time>2021-08-21T05:47:38Z</time>
      </trkpt>
      <trkpt lat="42.7223480" lon="-5.4777340">
        <ele>1084.0</ele>
        <time>2021-08-21T05:47:39Z</time>
      </trkpt>
      <trkpt lat="42.7223430" lon="-5.4776980">
        <ele>1084.0</ele>
        <time>2021-08-21T05:47:40Z</time>
      </trkpt>
      <trkpt lat="42.7223370" lon="-5.4776630">
        <ele>1084.0</ele>
        <time>2021-08-21T05:47:41Z</time>
      </trkpt>
      <trkpt lat="42.7223300" lon="-5.4776280">
        <ele>1084.0</ele>
        <time>2021-08-21T05:47:42Z</time>
      </trkpt>
      <trkpt lat="42.7223240" lon="-5.4775930">
        <ele>1084.0</ele>
        <time>2021-08-21T05:47:43Z</time>
      </trkpt>
      <trkpt lat="42.7223200" lon="-5.4775590">
        <ele>1085.0</ele>
        <time>2021-08-21T05:47:44Z</time>
      </trkpt>
      <trkpt lat="42.7223150" lon="-5.4775270">
        <ele>1085.0</ele>
        <time>2021-08-21T05:47:45Z</time>
      </trkpt>
      <trkpt lat="42.7223060" lon="-5.4774930">
        <ele>1085.0</ele>
        <time>2021-08-21T05:47:46Z</time>
      </trkpt>
      <trkpt lat="42.7222960" lon="-5.4774600">
        <ele>1085.0</ele>
        <time>2021-08-21T05:47:47Z</time>
      </trkpt>
      <trkpt lat="42.7222900" lon="-5.4774250">
        <ele>1085.0</ele>
        <time>2021-08-21T05:47:48Z</time>
      </trkpt>
      <trkpt lat="42.7222830" lon="-5.4773730">
        <ele>1085.0</ele>
        <time>2021-08-21T05:47:49Z</time>
      </trkpt>
      <trkpt lat="42.7222810" lon="-5.4773550">
        <ele>1085.0</ele>
        <time>2021-08-21T05:47:50Z</time>
      </trkpt>
      <trkpt lat="42.7222760" lon="-5.4773210">
        <ele>1085.0</ele>
        <time>2021-08-21T05:47:51Z</time>
      </trkpt>
      <trkpt lat="42.7222680" lon="-5.4772670">
        <ele>1085.0</ele>
        <time>2021-08-21T05:47:52Z</time>
      </trkpt>
      <trkpt lat="42.7222650" lon="-5.4772500">
        <ele>1085.0</ele>
        <time>2021-08-21T05:47:53Z</time>
      </trkpt>
      <trkpt lat="42.7222620" lon="-5.4772130">
        <ele>1085.0</ele>
        <time>2021-08-21T05:47:54Z</time>
      </trkpt>
      <trkpt lat="42.7222590" lon="-5.4771790">
        <ele>1085.0</ele>
        <time>2021-08-21T05:47:55Z</time>
      </trkpt>
      <trkpt lat="42.7222560" lon="-5.4771440">
        <ele>1085.0</ele>
        <time>2021-08-21T05:47:56Z</time>
      </trkpt>
      <trkpt lat="42.7222530" lon="-5.4771090">
        <ele>1085.0</ele>
        <time>2021-08-21T05:47:57Z</time>
      </trkpt>
      <trkpt lat="42.7222440" lon="-5.4770760">
        <ele>1086.0</ele>
        <time>2021-08-21T05:47:58Z</time>
      </trkpt>
      <trkpt lat="42.7222360" lon="-5.4770440">
        <ele>1086.0</ele>
        <time>2021-08-21T05:47:59Z</time>
      </trkpt>
      <trkpt lat="42.7222280" lon="-5.4770110">
        <ele>1086.0</ele>
        <time>2021-08-21T05:48:00Z</time>
      </trkpt>
      <trkpt lat="42.7222200" lon="-5.4769780">
        <ele>1086.0</ele>
        <time>2021-08-21T05:48:01Z</time>
      </trkpt>
      <trkpt lat="42.7222120" lon="-5.4769450">
        <ele>1086.0</ele>
        <time>2021-08-21T05:48:02Z</time>
      </trkpt>
      <trkpt lat="42.7222040" lon="-5.4769120">
        <ele>1086.0</ele>
        <time>2021-08-21T05:48:03Z</time>
      </trkpt>
      <trkpt lat="42.7221970" lon="-5.4768810">
        <ele>1086.0</ele>
        <time>2021-08-21T05:48:04Z</time>
      </trkpt>
      <trkpt lat="42.7221900" lon="-5.4768520">
        <ele>1086.0</ele>
        <time>2021-08-21T05:48:05Z</time>
      </trkpt>
      <trkpt lat="42.7221790" lon="-5.4768030">
        <ele>1086.0</ele>
        <time>2021-08-21T05:48:06Z</time>
      </trkpt>
      <trkpt lat="42.7221760" lon="-5.4767880">
        <ele>1086.0</ele>
        <time>2021-08-21T05:48:07Z</time>
      </trkpt>
      <trkpt lat="42.7221690" lon="-5.4767550">
        <ele>1086.0</ele>
        <time>2021-08-21T05:48:08Z</time>
      </trkpt>
      <trkpt lat="42.7221580" lon="-5.4767070">
        <ele>1086.0</ele>
        <time>2021-08-21T05:48:09Z</time>
      </trkpt>
      <trkpt lat="42.7221540" lon="-5.4766910">
        <ele>1086.0</ele>
        <time>2021-08-21T05:48:10Z</time>
      </trkpt>
      <trkpt lat="42.7221480" lon="-5.4766600">
        <ele>1087.0</ele>
        <time>2021-08-21T05:48:11Z</time>
      </trkpt>
      <trkpt lat="42.7221400" lon="-5.4766280">
        <ele>1087.0</ele>
        <time>2021-08-21T05:48:12Z</time>
      </trkpt>
      <trkpt lat="42.7221330" lon="-5.4765970">
        <ele>1087.0</ele>
        <time>2021-08-21T05:48:13Z</time>
      </trkpt>
      <trkpt lat="42.7221270" lon="-5.4765670">
        <ele>1087.0</ele>
        <time>2021-08-21T05:48:14Z</time>
      </trkpt>
      <trkpt lat="42.7221200" lon="-5.4765360">
        <ele>1087.0</ele>
        <time>2021-08-21T05:48:15Z</time>
      </trkpt>
      <trkpt lat="42.7221140" lon="-5.4765040">
        <ele>1087.0</ele>
        <time>2021-08-21T05:48:16Z</time>
      </trkpt>
      <trkpt lat="42.7221070" lon="-5.4764710">
        <ele>1087.0</ele>
        <time>2021-08-21T05:48:17Z</time>
      </trkpt>
      <trkpt lat="42.7221020" lon="-5.4764390">
        <ele>1087.0</ele>
        <time>2021-08-21T05:48:18Z</time>
      </trkpt>
      <trkpt lat="42.7220960" lon="-5.4764080">
        <ele>1087.0</ele>
        <time>2021-08-21T05:48:19Z</time>
      </trkpt>
      <trkpt lat="42.7220900" lon="-5.4763770">
        <ele>1087.0</ele>
        <time>2021-08-21T05:48:20Z</time>
      </trkpt>
      <trkpt lat="42.7220850" lon="-5.4763460">
        <ele>1087.0</ele>
        <time>2021-08-21T05:48:21Z</time>
      </trkpt>
      <trkpt lat="42.7220790" lon="-5.4762980">
        <ele>1087.0</ele>
        <time>2021-08-21T05:48:22Z</time>
      </trkpt>
      <trkpt lat="42.7220750" lon="-5.4762820">
        <ele>1088.0</ele>
        <time>2021-08-21T05:48:23Z</time>
      </trkpt>
      <trkpt lat="42.7220710" lon="-5.4762510">
        <ele>1088.0</ele>
        <time>2021-08-21T05:48:24Z</time>
      </trkpt>
      <trkpt lat="42.7220660" lon="-5.4762180">
        <ele>1088.0</ele>
        <time>2021-08-21T05:48:25Z</time>
      </trkpt>
      <trkpt lat="42.7220620" lon="-5.4761860">
        <ele>1088.0</ele>
        <time>2021-08-21T05:48:26Z</time>
      </trkpt>
      <trkpt lat="42.7220600" lon="-5.4761530">
        <ele>1088.0</ele>
        <time>2021-08-21T05:48:27Z</time>
      </trkpt>
      <trkpt lat="42.7220610" lon="-5.4761190">
        <ele>1088.0</ele>
        <time>2021-08-21T05:48:28Z</time>
      </trkpt>
      <trkpt lat="42.7220610" lon="-5.4760660">
        <ele>1088.0</ele>
        <time>2021-08-21T05:48:29Z</time>
      </trkpt>
      <trkpt lat="42.7220620" lon="-5.4760480">
        <ele>1088.0</ele>
        <time>2021-08-21T05:48:30Z</time>
      </trkpt>
      <trkpt lat="42.7220680" lon="-5.4760130">
        <ele>1088.0</ele>
        <time>2021-08-21T05:48:31Z</time>
      </trkpt>
      <trkpt lat="42.7220810" lon="-5.4759680">
        <ele>1088.0</ele>
        <time>2021-08-21T05:48:32Z</time>
      </trkpt>
      <trkpt lat="42.7220870" lon="-5.4759530">
        <ele>1088.0</ele>
        <time>2021-08-21T05:48:33Z</time>
      </trkpt>
      <trkpt lat="42.7220990" lon="-5.4759260">
        <ele>1088.0</ele>
        <time>2021-08-21T05:48:34Z</time>
      </trkpt>
      <trkpt lat="42.7221240" lon="-5.4758900">
        <ele>1088.0</ele>
        <time>2021-08-21T05:48:35Z</time>
      </trkpt>
      <trkpt lat="42.7221340" lon="-5.4758800">
        <ele>1088.0</ele>
        <time>2021-08-21T05:48:36Z</time>
      </trkpt>
      <trkpt lat="42.7221550" lon="-5.4758630">
        <ele>1088.0</ele>
        <time>2021-08-21T05:48:37Z</time>
      </trkpt>
      <trkpt lat="42.7221760" lon="-5.4758490">
        <ele>1088.0</ele>
        <time>2021-08-21T05:48:38Z</time>
      </trkpt>
      <trkpt lat="42.7221980" lon="-5.4758360">
        <ele>1089.0</ele>
        <time>2021-08-21T05:48:39Z</time>
      </trkpt>
      <trkpt lat="42.7222220" lon="-5.4758230">
        <ele>1088.0</ele>
        <time>2021-08-21T05:48:40Z</time>
      </trkpt>
      <trkpt lat="42.7222490" lon="-5.4758090">
        <ele>1089.0</ele>
        <time>2021-08-21T05:48:41Z</time>
      </trkpt>
      <trkpt lat="42.7222860" lon="-5.4757960">
        <ele>1089.0</ele>
        <time>2021-08-21T05:48:42Z</time>
      </trkpt>
      <trkpt lat="42.7222980" lon="-5.4757920">
        <ele>1089.0</ele>
        <time>2021-08-21T05:48:43Z</time>
      </trkpt>
      <trkpt lat="42.7223360" lon="-5.4757740">
        <ele>1089.0</ele>
        <time>2021-08-21T05:48:44Z</time>
      </trkpt>
      <trkpt lat="42.7223480" lon="-5.4757680">
        <ele>1089.0</ele>
        <time>2021-08-21T05:48:45Z</time>
      </trkpt>
      <trkpt lat="42.7223780" lon="-5.4757550">
        <ele>1089.0</ele>
        <time>2021-08-21T05:48:46Z</time>
      </trkpt>
      <trkpt lat="42.7224040" lon="-5.4757480">
        <ele>1089.0</ele>
        <time>2021-08-21T05:48:47Z</time>
      </trkpt>
      <trkpt lat="42.7224300" lon="-5.4757400">
        <ele>1089.0</ele>
        <time>2021-08-21T05:48:48Z</time>
      </trkpt>
      <trkpt lat="42.7224540" lon="-5.4757320">
        <ele>1089.0</ele>
        <time>2021-08-21T05:48:49Z</time>
      </trkpt>
      <trkpt lat="42.7224810" lon="-5.4757260">
        <ele>1089.0</ele>
        <time>2021-08-21T05:48:50Z</time>
      </trkpt>
      <trkpt lat="42.7225060" lon="-5.4757200">
        <ele>1089.0</ele>
        <time>2021-08-21T05:48:51Z</time>
      </trkpt>
      <trkpt lat="42.7225280" lon="-5.4757130">
        <ele>1090.0</ele>
        <time>2021-08-21T05:48:52Z</time>
      </trkpt>
      <trkpt lat="42.7225520" lon="-5.4757070">
        <ele>1090.0</ele>
        <time>2021-08-21T05:48:53Z</time>
      </trkpt>
      <trkpt lat="42.7225770" lon="-5.4757010">
        <ele>1090.0</ele>
        <time>2021-08-21T05:48:54Z</time>
      </trkpt>
      <trkpt lat="42.7226030" lon="-5.4756970">
        <ele>1090.0</ele>
        <time>2021-08-21T05:48:55Z</time>
      </trkpt>
      <trkpt lat="42.7226300" lon="-5.4756900">
        <ele>1090.0</ele>
        <time>2021-08-21T05:48:56Z</time>
      </trkpt>
      <trkpt lat="42.7226570" lon="-5.4756810">
        <ele>1090.0</ele>
        <time>2021-08-21T05:48:57Z</time>
      </trkpt>
      <trkpt lat="42.7226840" lon="-5.4756730">
        <ele>1090.0</ele>
        <time>2021-08-21T05:48:58Z</time>
      </trkpt>
      <trkpt lat="42.7227140" lon="-5.4756630">
        <ele>1090.0</ele>
        <time>2021-08-21T05:48:59Z</time>
      </trkpt>
      <trkpt lat="42.7227410" lon="-5.4756550">
        <ele>1090.0</ele>
        <time>2021-08-21T05:49:00Z</time>
      </trkpt>
      <trkpt lat="42.7227810" lon="-5.4756440">
        <ele>1090.0</ele>
        <time>2021-08-21T05:49:01Z</time>
      </trkpt>
      <trkpt lat="42.7227940" lon="-5.4756400">
        <ele>1091.0</ele>
        <time>2021-08-21T05:49:02Z</time>
      </trkpt>
      <trkpt lat="42.7228200" lon="-5.4756330">
        <ele>1091.0</ele>
        <time>2021-08-21T05:49:03Z</time>
      </trkpt>
      <trkpt lat="42.7228200" lon="-5.4756330">
        <ele>1091.0</ele>
        <time>2021-08-21T05:49:04Z</time>
      </trkpt>
      <trkpt lat="42.7228760" lon="-5.4756160">
        <ele>1091.0</ele>
        <time>2021-08-21T05:49:05Z</time>
      </trkpt>
      <trkpt lat="42.7229040" lon="-5.4756060">
        <ele>1091.0</ele>
        <time>2021-08-21T05:49:06Z</time>
      </trkpt>
      <trkpt lat="42.7229310" lon="-5.4755990">
        <ele>1091.0</ele>
        <time>2021-08-21T05:49:07Z</time>
      </trkpt>
      <trkpt lat="42.7229590" lon="-5.4755880">
        <ele>1091.0</ele>
        <time>2021-08-21T05:49:08Z</time>
      </trkpt>
      <trkpt lat="42.7229880" lon="-5.4755770">
        <ele>1091.0</ele>
        <time>2021-08-21T05:49:09Z</time>
      </trkpt>
      <trkpt lat="42.7230430" lon="-5.4755640">
        <ele>1091.0</ele>
        <time>2021-08-21T05:49:10Z</time>
      </trkpt>
      <trkpt lat="42.7230430" lon="-5.4755640">
        <ele>1091.0</ele>
        <time>2021-08-21T05:49:11Z</time>
      </trkpt>
      <trkpt lat="42.7230710" lon="-5.4755600">
        <ele>1091.0</ele>
        <time>2021-08-21T05:49:12Z</time>
      </trkpt>
      <trkpt lat="42.7230950" lon="-5.4755580">
        <ele>1090.0</ele>
        <time>2021-08-21T05:49:13Z</time>
      </trkpt>
      <trkpt lat="42.7231350" lon="-5.4755500">
        <ele>1090.0</ele>
        <time>2021-08-21T05:49:14Z</time>
      </trkpt>
      <trkpt lat="42.7231490" lon="-5.4755450">
        <ele>1091.0</ele>
        <time>2021-08-21T05:49:15Z</time>
      </trkpt>
      <trkpt lat="42.7231760" lon="-5.4755370">
        <ele>1091.0</ele>
        <time>2021-08-21T05:49:16Z</time>
      </trkpt>
      <trkpt lat="42.7232020" lon="-5.4755300">
        <ele>1091.0</ele>
        <time>2021-08-21T05:49:17Z</time>
      </trkpt>
      <trkpt lat="42.7232270" lon="-5.4755240">
        <ele>1091.0</ele>
        <time>2021-08-21T05:49:18Z</time>
      </trkpt>
      <trkpt lat="42.7232500" lon="-5.4755150">
        <ele>1091.0</ele>
        <time>2021-08-21T05:49:19Z</time>
      </trkpt>
      <trkpt lat="42.7232770" lon="-5.4755050">
        <ele>1091.0</ele>
        <time>2021-08-21T05:49:20Z</time>
      </trkpt>
      <trkpt lat="42.7233020" lon="-5.4754970">
        <ele>1091.0</ele>
        <time>2021-08-21T05:49:21Z</time>
      </trkpt>
      <trkpt lat="42.7233280" lon="-5.4754900">
        <ele>1091.0</ele>
        <time>2021-08-21T05:49:22Z</time>
      </trkpt>
      <trkpt lat="42.7233530" lon="-5.4754870">
        <ele>1091.0</ele>
        <time>2021-08-21T05:49:23Z</time>
      </trkpt>
      <trkpt lat="42.7233780" lon="-5.4754780">
        <ele>1091.0</ele>
        <time>2021-08-21T05:49:24Z</time>
      </trkpt>
      <trkpt lat="42.7234000" lon="-5.4754720">
        <ele>1091.0</ele>
        <time>2021-08-21T05:49:25Z</time>
      </trkpt>
      <trkpt lat="42.7234230" lon="-5.4754650">
        <ele>1091.0</ele>
        <time>2021-08-21T05:49:26Z</time>
      </trkpt>
      <trkpt lat="42.7234440" lon="-5.4754560">
        <ele>1092.0</ele>
        <time>2021-08-21T05:49:27Z</time>
      </trkpt>
      <trkpt lat="42.7234650" lon="-5.4754470">
        <ele>1092.0</ele>
        <time>2021-08-21T05:49:28Z</time>
      </trkpt>
      <trkpt lat="42.7235010" lon="-5.4754330">
        <ele>1092.0</ele>
        <time>2021-08-21T05:49:29Z</time>
      </trkpt>
      <trkpt lat="42.7235130" lon="-5.4754270">
        <ele>1091.0</ele>
        <time>2021-08-21T05:49:30Z</time>
      </trkpt>
      <trkpt lat="42.7235370" lon="-5.4754170">
        <ele>1091.0</ele>
        <time>2021-08-21T05:49:31Z</time>
      </trkpt>
      <trkpt lat="42.7235610" lon="-5.4754080">
        <ele>1091.0</ele>
        <time>2021-08-21T05:49:32Z</time>
      </trkpt>
      <trkpt lat="42.7236000" lon="-5.4753950">
        <ele>1091.0</ele>
        <time>2021-08-21T05:49:33Z</time>
      </trkpt>
      <trkpt lat="42.7236140" lon="-5.4753890">
        <ele>1091.0</ele>
        <time>2021-08-21T05:49:34Z</time>
      </trkpt>
      <trkpt lat="42.7236480" lon="-5.4753760">
        <ele>1091.0</ele>
        <time>2021-08-21T05:49:35Z</time>
      </trkpt>
      <trkpt lat="42.7236600" lon="-5.4753720">
        <ele>1091.0</ele>
        <time>2021-08-21T05:49:36Z</time>
      </trkpt>
      <trkpt lat="42.7236810" lon="-5.4753660">
        <ele>1092.0</ele>
        <time>2021-08-21T05:49:37Z</time>
      </trkpt>
      <trkpt lat="42.7237160" lon="-5.4753500">
        <ele>1092.0</ele>
        <time>2021-08-21T05:49:38Z</time>
      </trkpt>
      <trkpt lat="42.7237270" lon="-5.4753430">
        <ele>1092.0</ele>
        <time>2021-08-21T05:49:39Z</time>
      </trkpt>
      <trkpt lat="42.7237510" lon="-5.4753330">
        <ele>1092.0</ele>
        <time>2021-08-21T05:49:40Z</time>
      </trkpt>
      <trkpt lat="42.7237760" lon="-5.4753220">
        <ele>1092.0</ele>
        <time>2021-08-21T05:49:41Z</time>
      </trkpt>
      <trkpt lat="42.7238010" lon="-5.4753130">
        <ele>1092.0</ele>
        <time>2021-08-21T05:49:42Z</time>
      </trkpt>
      <trkpt lat="42.7238250" lon="-5.4753030">
        <ele>1092.0</ele>
        <time>2021-08-21T05:49:43Z</time>
      </trkpt>
      <trkpt lat="42.7238500" lon="-5.4752930">
        <ele>1092.0</ele>
        <time>2021-08-21T05:49:44Z</time>
      </trkpt>
      <trkpt lat="42.7238730" lon="-5.4752830">
        <ele>1092.0</ele>
        <time>2021-08-21T05:49:45Z</time>
      </trkpt>
      <trkpt lat="42.7238970" lon="-5.4752740">
        <ele>1092.0</ele>
        <time>2021-08-21T05:49:46Z</time>
      </trkpt>
      <trkpt lat="42.7239200" lon="-5.4752640">
        <ele>1092.0</ele>
        <time>2021-08-21T05:49:47Z</time>
      </trkpt>
      <trkpt lat="42.7239420" lon="-5.4752550">
        <ele>1092.0</ele>
        <time>2021-08-21T05:49:48Z</time>
      </trkpt>
      <trkpt lat="42.7239620" lon="-5.4752450">
        <ele>1092.0</ele>
        <time>2021-08-21T05:49:49Z</time>
      </trkpt>
      <trkpt lat="42.7239960" lon="-5.4752340">
        <ele>1092.0</ele>
        <time>2021-08-21T05:49:50Z</time>
      </trkpt>
      <trkpt lat="42.7240080" lon="-5.4752290">
        <ele>1092.0</ele>
        <time>2021-08-21T05:49:51Z</time>
      </trkpt>
      <trkpt lat="42.7240410" lon="-5.4752180">
        <ele>1092.0</ele>
        <time>2021-08-21T05:49:52Z</time>
      </trkpt>
      <trkpt lat="42.7240520" lon="-5.4752130">
        <ele>1092.0</ele>
        <time>2021-08-21T05:49:53Z</time>
      </trkpt>
      <trkpt lat="42.7240740" lon="-5.4752030">
        <ele>1092.0</ele>
        <time>2021-08-21T05:49:54Z</time>
      </trkpt>
      <trkpt lat="42.7240970" lon="-5.4751960">
        <ele>1093.0</ele>
        <time>2021-08-21T05:49:55Z</time>
      </trkpt>
      <trkpt lat="42.7241220" lon="-5.4751860">
        <ele>1092.0</ele>
        <time>2021-08-21T05:49:56Z</time>
      </trkpt>
      <trkpt lat="42.7241450" lon="-5.4751790">
        <ele>1092.0</ele>
        <time>2021-08-21T05:49:57Z</time>
      </trkpt>
      <trkpt lat="42.7241820" lon="-5.4751650">
        <ele>1092.0</ele>
        <time>2021-08-21T05:49:58Z</time>
      </trkpt>
      <trkpt lat="42.7241940" lon="-5.4751610">
        <ele>1093.0</ele>
        <time>2021-08-21T05:49:59Z</time>
      </trkpt>
      <trkpt lat="42.7242310" lon="-5.4751470">
        <ele>1093.0</ele>
        <time>2021-08-21T05:50:00Z</time>
      </trkpt>
      <trkpt lat="42.7242430" lon="-5.4751430">
        <ele>1093.0</ele>
        <time>2021-08-21T05:50:01Z</time>
      </trkpt>
      <trkpt lat="42.7242680" lon="-5.4751370">
        <ele>1093.0</ele>
        <time>2021-08-21T05:50:02Z</time>
      </trkpt>
      <trkpt lat="42.7242910" lon="-5.4751290">
        <ele>1093.0</ele>
        <time>2021-08-21T05:50:03Z</time>
      </trkpt>
      <trkpt lat="42.7243160" lon="-5.4751200">
        <ele>1093.0</ele>
        <time>2021-08-21T05:50:04Z</time>
      </trkpt>
      <trkpt lat="42.7243420" lon="-5.4751090">
        <ele>1093.0</ele>
        <time>2021-08-21T05:50:05Z</time>
      </trkpt>
      <trkpt lat="42.7243770" lon="-5.4750930">
        <ele>1093.0</ele>
        <time>2021-08-21T05:50:06Z</time>
      </trkpt>
      <trkpt lat="42.7243890" lon="-5.4750870">
        <ele>1093.0</ele>
        <time>2021-08-21T05:50:07Z</time>
      </trkpt>
      <trkpt lat="42.7244240" lon="-5.4750740">
        <ele>1093.0</ele>
        <time>2021-08-21T05:50:08Z</time>
      </trkpt>
      <trkpt lat="42.7244350" lon="-5.4750690">
        <ele>1093.0</ele>
        <time>2021-08-21T05:50:09Z</time>
      </trkpt>
      <trkpt lat="42.7244750" lon="-5.4750550">
        <ele>1093.0</ele>
        <time>2021-08-21T05:50:10Z</time>
      </trkpt>
      <trkpt lat="42.7244880" lon="-5.4750510">
        <ele>1093.0</ele>
        <time>2021-08-21T05:50:11Z</time>
      </trkpt>
      <trkpt lat="42.7245120" lon="-5.4750410">
        <ele>1093.0</ele>
        <time>2021-08-21T05:50:12Z</time>
      </trkpt>
      <trkpt lat="42.7245360" lon="-5.4750300">
        <ele>1093.0</ele>
        <time>2021-08-21T05:50:13Z</time>
      </trkpt>
      <trkpt lat="42.7245620" lon="-5.4750180">
        <ele>1093.0</ele>
        <time>2021-08-21T05:50:14Z</time>
      </trkpt>
      <trkpt lat="42.7245870" lon="-5.4750050">
        <ele>1093.0</ele>
        <time>2021-08-21T05:50:15Z</time>
      </trkpt>
      <trkpt lat="42.7246120" lon="-5.4749890">
        <ele>1093.0</ele>
        <time>2021-08-21T05:50:16Z</time>
      </trkpt>
      <trkpt lat="42.7246350" lon="-5.4749740">
        <ele>1093.0</ele>
        <time>2021-08-21T05:50:17Z</time>
      </trkpt>
      <trkpt lat="42.7246600" lon="-5.4749590">
        <ele>1093.0</ele>
        <time>2021-08-21T05:50:18Z</time>
      </trkpt>
      <trkpt lat="42.7246880" lon="-5.4749430">
        <ele>1093.0</ele>
        <time>2021-08-21T05:50:19Z</time>
      </trkpt>
      <trkpt lat="42.7247150" lon="-5.4749280">
        <ele>1093.0</ele>
        <time>2021-08-21T05:50:20Z</time>
      </trkpt>
      <trkpt lat="42.7247580" lon="-5.4749120">
        <ele>1093.0</ele>
        <time>2021-08-21T05:50:21Z</time>
      </trkpt>
      <trkpt lat="42.7247710" lon="-5.4749070">
        <ele>1093.0</ele>
        <time>2021-08-21T05:50:22Z</time>
      </trkpt>
      <trkpt lat="42.7247980" lon="-5.4748950">
        <ele>1093.0</ele>
        <time>2021-08-21T05:50:23Z</time>
      </trkpt>
      <trkpt lat="42.7248210" lon="-5.4748850">
        <ele>1093.0</ele>
        <time>2021-08-21T05:50:24Z</time>
      </trkpt>
      <trkpt lat="42.7248470" lon="-5.4748730">
        <ele>1093.0</ele>
        <time>2021-08-21T05:50:25Z</time>
      </trkpt>
      <trkpt lat="42.7248750" lon="-5.4748630">
        <ele>1093.0</ele>
        <time>2021-08-21T05:50:26Z</time>
      </trkpt>
      <trkpt lat="42.7249030" lon="-5.4748530">
        <ele>1093.0</ele>
        <time>2021-08-21T05:50:27Z</time>
      </trkpt>
      <trkpt lat="42.7249320" lon="-5.4748410">
        <ele>1093.0</ele>
        <time>2021-08-21T05:50:28Z</time>
      </trkpt>
      <trkpt lat="42.7249570" lon="-5.4748310">
        <ele>1093.0</ele>
        <time>2021-08-21T05:50:29Z</time>
      </trkpt>
      <trkpt lat="42.7249840" lon="-5.4748220">
        <ele>1093.0</ele>
        <time>2021-08-21T05:50:30Z</time>
      </trkpt>
      <trkpt lat="42.7250090" lon="-5.4748100">
        <ele>1093.0</ele>
        <time>2021-08-21T05:50:31Z</time>
      </trkpt>
      <trkpt lat="42.7250350" lon="-5.4747950">
        <ele>1092.0</ele>
        <time>2021-08-21T05:50:32Z</time>
      </trkpt>
      <trkpt lat="42.7250620" lon="-5.4747830">
        <ele>1092.0</ele>
        <time>2021-08-21T05:50:33Z</time>
      </trkpt>
      <trkpt lat="42.7250910" lon="-5.4747740">
        <ele>1092.0</ele>
        <time>2021-08-21T05:50:34Z</time>
      </trkpt>
      <trkpt lat="42.7251170" lon="-5.4747650">
        <ele>1092.0</ele>
        <time>2021-08-21T05:50:35Z</time>
      </trkpt>
      <trkpt lat="42.7251430" lon="-5.4747560">
        <ele>1092.0</ele>
        <time>2021-08-21T05:50:36Z</time>
      </trkpt>
      <trkpt lat="42.7251700" lon="-5.4747490">
        <ele>1092.0</ele>
        <time>2021-08-21T05:50:37Z</time>
      </trkpt>
      <trkpt lat="42.7251940" lon="-5.4747430">
        <ele>1093.0</ele>
        <time>2021-08-21T05:50:38Z</time>
      </trkpt>
      <trkpt lat="42.7251940" lon="-5.4747430">
        <ele>1093.0</ele>
        <time>2021-08-21T05:50:39Z</time>
      </trkpt>
      <trkpt lat="42.7252450" lon="-5.4747330">
        <ele>1093.0</ele>
        <time>2021-08-21T05:50:40Z</time>
      </trkpt>
      <trkpt lat="42.7252730" lon="-5.4747250">
        <ele>1093.0</ele>
        <time>2021-08-21T05:50:41Z</time>
      </trkpt>
      <trkpt lat="42.7253080" lon="-5.4747070">
        <ele>1093.0</ele>
        <time>2021-08-21T05:50:42Z</time>
      </trkpt>
      <trkpt lat="42.7253200" lon="-5.4747010">
        <ele>1093.0</ele>
        <time>2021-08-21T05:50:43Z</time>
      </trkpt>
      <trkpt lat="42.7253450" lon="-5.4746910">
        <ele>1093.0</ele>
        <time>2021-08-21T05:50:44Z</time>
      </trkpt>
      <trkpt lat="42.7253690" lon="-5.4746800">
        <ele>1093.0</ele>
        <time>2021-08-21T05:50:45Z</time>
      </trkpt>
      <trkpt lat="42.7253950" lon="-5.4746690">
        <ele>1093.0</ele>
        <time>2021-08-21T05:50:46Z</time>
      </trkpt>
      <trkpt lat="42.7254220" lon="-5.4746590">
        <ele>1093.0</ele>
        <time>2021-08-21T05:50:47Z</time>
      </trkpt>
      <trkpt lat="42.7254500" lon="-5.4746470">
        <ele>1093.0</ele>
        <time>2021-08-21T05:50:48Z</time>
      </trkpt>
      <trkpt lat="42.7254790" lon="-5.4746330">
        <ele>1093.0</ele>
        <time>2021-08-21T05:50:49Z</time>
      </trkpt>
      <trkpt lat="42.7255050" lon="-5.4746210">
        <ele>1093.0</ele>
        <time>2021-08-21T05:50:50Z</time>
      </trkpt>
      <trkpt lat="42.7255280" lon="-5.4746110">
        <ele>1093.0</ele>
        <time>2021-08-21T05:50:51Z</time>
      </trkpt>
      <trkpt lat="42.7255660" lon="-5.4746020">
        <ele>1093.0</ele>
        <time>2021-08-21T05:50:52Z</time>
      </trkpt>
      <trkpt lat="42.7255790" lon="-5.4745990">
        <ele>1093.0</ele>
        <time>2021-08-21T05:50:53Z</time>
      </trkpt>
      <trkpt lat="42.7256070" lon="-5.4745890">
        <ele>1093.0</ele>
        <time>2021-08-21T05:50:54Z</time>
      </trkpt>
      <trkpt lat="42.7256350" lon="-5.4745780">
        <ele>1093.0</ele>
        <time>2021-08-21T05:50:55Z</time>
      </trkpt>
      <trkpt lat="42.7256630" lon="-5.4745670">
        <ele>1093.0</ele>
        <time>2021-08-21T05:50:56Z</time>
      </trkpt>
      <trkpt lat="42.7256900" lon="-5.4745530">
        <ele>1093.0</ele>
        <time>2021-08-21T05:50:57Z</time>
      </trkpt>
      <trkpt lat="42.7257200" lon="-5.4745410">
        <ele>1093.0</ele>
        <time>2021-08-21T05:50:58Z</time>
      </trkpt>
      <trkpt lat="42.7257610" lon="-5.4745230">
        <ele>1093.0</ele>
        <time>2021-08-21T05:50:59Z</time>
      </trkpt>
      <trkpt lat="42.7257740" lon="-5.4745160">
        <ele>1094.0</ele>
        <time>2021-08-21T05:51:00Z</time>
      </trkpt>
      <trkpt lat="42.7257980" lon="-5.4745040">
        <ele>1093.0</ele>
        <time>2021-08-21T05:51:01Z</time>
      </trkpt>
      <trkpt lat="42.7258210" lon="-5.4744920">
        <ele>1093.0</ele>
        <time>2021-08-21T05:51:02Z</time>
      </trkpt>
      <trkpt lat="42.7258470" lon="-5.4744840">
        <ele>1094.0</ele>
        <time>2021-08-21T05:51:03Z</time>
      </trkpt>
      <trkpt lat="42.7258730" lon="-5.4744730">
        <ele>1094.0</ele>
        <time>2021-08-21T05:51:04Z</time>
      </trkpt>
      <trkpt lat="42.7258980" lon="-5.4744620">
        <ele>1094.0</ele>
        <time>2021-08-21T05:51:05Z</time>
      </trkpt>
      <trkpt lat="42.7259370" lon="-5.4744500">
        <ele>1094.0</ele>
        <time>2021-08-21T05:51:06Z</time>
      </trkpt>
      <trkpt lat="42.7259500" lon="-5.4744440">
        <ele>1094.0</ele>
        <time>2021-08-21T05:51:07Z</time>
      </trkpt>
      <trkpt lat="42.7259730" lon="-5.4744340">
        <ele>1094.0</ele>
        <time>2021-08-21T05:51:08Z</time>
      </trkpt>
      <trkpt lat="42.7259970" lon="-5.4744240">
        <ele>1094.0</ele>
        <time>2021-08-21T05:51:09Z</time>
      </trkpt>
      <trkpt lat="42.7260210" lon="-5.4744190">
        <ele>1094.0</ele>
        <time>2021-08-21T05:51:10Z</time>
      </trkpt>
      <trkpt lat="42.7260440" lon="-5.4744150">
        <ele>1094.0</ele>
        <time>2021-08-21T05:51:11Z</time>
      </trkpt>
      <trkpt lat="42.7260680" lon="-5.4744100">
        <ele>1094.0</ele>
        <time>2021-08-21T05:51:12Z</time>
      </trkpt>
      <trkpt lat="42.7260940" lon="-5.4744020">
        <ele>1094.0</ele>
        <time>2021-08-21T05:51:13Z</time>
      </trkpt>
      <trkpt lat="42.7261220" lon="-5.4743950">
        <ele>1094.0</ele>
        <time>2021-08-21T05:51:14Z</time>
      </trkpt>
      <trkpt lat="42.7261470" lon="-5.4743880">
        <ele>1094.0</ele>
        <time>2021-08-21T05:51:15Z</time>
      </trkpt>
      <trkpt lat="42.7261740" lon="-5.4743800">
        <ele>1095.0</ele>
        <time>2021-08-21T05:51:16Z</time>
      </trkpt>
      <trkpt lat="42.7261740" lon="-5.4743800">
        <ele>1095.0</ele>
        <time>2021-08-21T05:51:17Z</time>
      </trkpt>
      <trkpt lat="42.7262340" lon="-5.4743680">
        <ele>1095.0</ele>
        <time>2021-08-21T05:51:18Z</time>
      </trkpt>
      <trkpt lat="42.7262600" lon="-5.4743590">
        <ele>1095.0</ele>
        <time>2021-08-21T05:51:19Z</time>
      </trkpt>
      <trkpt lat="42.7262990" lon="-5.4743500">
        <ele>1095.0</ele>
        <time>2021-08-21T05:51:20Z</time>
      </trkpt>
      <trkpt lat="42.7263120" lon="-5.4743470">
        <ele>1095.0</ele>
        <time>2021-08-21T05:51:21Z</time>
      </trkpt>
      <trkpt lat="42.7263350" lon="-5.4743420">
        <ele>1096.0</ele>
        <time>2021-08-21T05:51:22Z</time>
      </trkpt>
      <trkpt lat="42.7263570" lon="-5.4743350">
        <ele>1096.0</ele>
        <time>2021-08-21T05:51:23Z</time>
      </trkpt>
      <trkpt lat="42.7263790" lon="-5.4743260">
        <ele>1096.0</ele>
        <time>2021-08-21T05:51:24Z</time>
      </trkpt>
      <trkpt lat="42.7264040" lon="-5.4743160">
        <ele>1096.0</ele>
        <time>2021-08-21T05:51:25Z</time>
      </trkpt>
      <trkpt lat="42.7264290" lon="-5.4743070">
        <ele>1097.0</ele>
        <time>2021-08-21T05:51:26Z</time>
      </trkpt>
      <trkpt lat="42.7264700" lon="-5.4742910">
        <ele>1097.0</ele>
        <time>2021-08-21T05:51:27Z</time>
      </trkpt>
      <trkpt lat="42.7264850" lon="-5.4742840">
        <ele>1097.0</ele>
        <time>2021-08-21T05:51:28Z</time>
      </trkpt>
      <trkpt lat="42.7265140" lon="-5.4742720">
        <ele>1097.0</ele>
        <time>2021-08-21T05:51:29Z</time>
      </trkpt>
      <trkpt lat="42.7265410" lon="-5.4742570">
        <ele>1096.0</ele>
        <time>2021-08-21T05:51:30Z</time>
      </trkpt>
      <trkpt lat="42.7265680" lon="-5.4742430">
        <ele>1096.0</ele>
        <time>2021-08-21T05:51:31Z</time>
      </trkpt>
      <trkpt lat="42.7265950" lon="-5.4742310">
        <ele>1096.0</ele>
        <time>2021-08-21T05:51:32Z</time>
      </trkpt>
      <trkpt lat="42.7266210" lon="-5.4742210">
        <ele>1096.0</ele>
        <time>2021-08-21T05:51:33Z</time>
      </trkpt>
      <trkpt lat="42.7266470" lon="-5.4742100">
        <ele>1096.0</ele>
        <time>2021-08-21T05:51:34Z</time>
      </trkpt>
      <trkpt lat="42.7266720" lon="-5.4741970">
        <ele>1097.0</ele>
        <time>2021-08-21T05:51:35Z</time>
      </trkpt>
      <trkpt lat="42.7266950" lon="-5.4741840">
        <ele>1097.0</ele>
        <time>2021-08-21T05:51:36Z</time>
      </trkpt>
      <trkpt lat="42.7267320" lon="-5.4741700">
        <ele>1097.0</ele>
        <time>2021-08-21T05:51:37Z</time>
      </trkpt>
      <trkpt lat="42.7267440" lon="-5.4741670">
        <ele>1097.0</ele>
        <time>2021-08-21T05:51:38Z</time>
      </trkpt>
      <trkpt lat="42.7267660" lon="-5.4741620">
        <ele>1097.0</ele>
        <time>2021-08-21T05:51:39Z</time>
      </trkpt>
      <trkpt lat="42.7267890" lon="-5.4741530">
        <ele>1097.0</ele>
        <time>2021-08-21T05:51:40Z</time>
      </trkpt>
      <trkpt lat="42.7268130" lon="-5.4741430">
        <ele>1098.0</ele>
        <time>2021-08-21T05:51:41Z</time>
      </trkpt>
      <trkpt lat="42.7268370" lon="-5.4741350">
        <ele>1098.0</ele>
        <time>2021-08-21T05:51:42Z</time>
      </trkpt>
      <trkpt lat="42.7268620" lon="-5.4741270">
        <ele>1098.0</ele>
        <time>2021-08-21T05:51:43Z</time>
      </trkpt>
      <trkpt lat="42.7269000" lon="-5.4741160">
        <ele>1098.0</ele>
        <time>2021-08-21T05:51:44Z</time>
      </trkpt>
      <trkpt lat="42.7269120" lon="-5.4741130">
        <ele>1098.0</ele>
        <time>2021-08-21T05:51:45Z</time>
      </trkpt>
      <trkpt lat="42.7269390" lon="-5.4741030">
        <ele>1099.0</ele>
        <time>2021-08-21T05:51:46Z</time>
      </trkpt>
      <trkpt lat="42.7269660" lon="-5.4740900">
        <ele>1099.0</ele>
        <time>2021-08-21T05:51:47Z</time>
      </trkpt>
      <trkpt lat="42.7269890" lon="-5.4740820">
        <ele>1099.0</ele>
        <time>2021-08-21T05:51:48Z</time>
      </trkpt>
      <trkpt lat="42.7270100" lon="-5.4740780">
        <ele>1099.0</ele>
        <time>2021-08-21T05:51:49Z</time>
      </trkpt>
      <trkpt lat="42.7270310" lon="-5.4740740">
        <ele>1099.0</ele>
        <time>2021-08-21T05:51:50Z</time>
      </trkpt>
      <trkpt lat="42.7270560" lon="-5.4740660">
        <ele>1099.0</ele>
        <time>2021-08-21T05:51:51Z</time>
      </trkpt>
      <trkpt lat="42.7270800" lon="-5.4740540">
        <ele>1099.0</ele>
        <time>2021-08-21T05:51:52Z</time>
      </trkpt>
      <trkpt lat="42.7271030" lon="-5.4740450">
        <ele>1099.0</ele>
        <time>2021-08-21T05:51:53Z</time>
      </trkpt>
      <trkpt lat="42.7271240" lon="-5.4740360">
        <ele>1099.0</ele>
        <time>2021-08-21T05:51:54Z</time>
      </trkpt>
      <trkpt lat="42.7271480" lon="-5.4740240">
        <ele>1099.0</ele>
        <time>2021-08-21T05:51:55Z</time>
      </trkpt>
      <trkpt lat="42.7271860" lon="-5.4740090">
        <ele>1099.0</ele>
        <time>2021-08-21T05:51:56Z</time>
      </trkpt>
      <trkpt lat="42.7271990" lon="-5.4740030">
        <ele>1100.0</ele>
        <time>2021-08-21T05:51:57Z</time>
      </trkpt>
      <trkpt lat="42.7272200" lon="-5.4739920">
        <ele>1100.0</ele>
        <time>2021-08-21T05:51:58Z</time>
      </trkpt>
      <trkpt lat="42.7272500" lon="-5.4739700">
        <ele>1100.0</ele>
        <time>2021-08-21T05:51:59Z</time>
      </trkpt>
      <trkpt lat="42.7272600" lon="-5.4739640">
        <ele>1100.0</ele>
        <time>2021-08-21T05:52:00Z</time>
      </trkpt>
      <trkpt lat="42.7272820" lon="-5.4739550">
        <ele>1100.0</ele>
        <time>2021-08-21T05:52:01Z</time>
      </trkpt>
      <trkpt lat="42.7273010" lon="-5.4739440">
        <ele>1101.0</ele>
        <time>2021-08-21T05:52:02Z</time>
      </trkpt>
      <trkpt lat="42.7273210" lon="-5.4739350">
        <ele>1101.0</ele>
        <time>2021-08-21T05:52:03Z</time>
      </trkpt>
      <trkpt lat="42.7273410" lon="-5.4739300">
        <ele>1101.0</ele>
        <time>2021-08-21T05:52:04Z</time>
      </trkpt>
      <trkpt lat="42.7273760" lon="-5.4739160">
        <ele>1101.0</ele>
        <time>2021-08-21T05:52:05Z</time>
      </trkpt>
      <trkpt lat="42.7273870" lon="-5.4739100">
        <ele>1101.0</ele>
        <time>2021-08-21T05:52:06Z</time>
      </trkpt>
      <trkpt lat="42.7274090" lon="-5.4739000">
        <ele>1101.0</ele>
        <time>2021-08-21T05:52:07Z</time>
      </trkpt>
      <trkpt lat="42.7274280" lon="-5.4738900">
        <ele>1101.0</ele>
        <time>2021-08-21T05:52:08Z</time>
      </trkpt>
      <trkpt lat="42.7274500" lon="-5.4738770">
        <ele>1102.0</ele>
        <time>2021-08-21T05:52:09Z</time>
      </trkpt>
      <trkpt lat="42.7274710" lon="-5.4738660">
        <ele>1102.0</ele>
        <time>2021-08-21T05:52:10Z</time>
      </trkpt>
      <trkpt lat="42.7274920" lon="-5.4738560">
        <ele>1102.0</ele>
        <time>2021-08-21T05:52:11Z</time>
      </trkpt>
      <trkpt lat="42.7275130" lon="-5.4738470">
        <ele>1102.0</ele>
        <time>2021-08-21T05:52:12Z</time>
      </trkpt>
      <trkpt lat="42.7275350" lon="-5.4738340">
        <ele>1102.0</ele>
        <time>2021-08-21T05:52:13Z</time>
      </trkpt>
      <trkpt lat="42.7275570" lon="-5.4738220">
        <ele>1102.0</ele>
        <time>2021-08-21T05:52:14Z</time>
      </trkpt>
      <trkpt lat="42.7275760" lon="-5.4738150">
        <ele>1102.0</ele>
        <time>2021-08-21T05:52:15Z</time>
      </trkpt>
      <trkpt lat="42.7275950" lon="-5.4738060">
        <ele>1102.0</ele>
        <time>2021-08-21T05:52:16Z</time>
      </trkpt>
      <trkpt lat="42.7276150" lon="-5.4737940">
        <ele>1102.0</ele>
        <time>2021-08-21T05:52:17Z</time>
      </trkpt>
      <trkpt lat="42.7276460" lon="-5.4737800">
        <ele>1102.0</ele>
        <time>2021-08-21T05:52:18Z</time>
      </trkpt>
      <trkpt lat="42.7276560" lon="-5.4737740">
        <ele>1102.0</ele>
        <time>2021-08-21T05:52:19Z</time>
      </trkpt>
      <trkpt lat="42.7276770" lon="-5.4737640">
        <ele>1103.0</ele>
        <time>2021-08-21T05:52:20Z</time>
      </trkpt>
      <trkpt lat="42.7276960" lon="-5.4737560">
        <ele>1103.0</ele>
        <time>2021-08-21T05:52:21Z</time>
      </trkpt>
      <trkpt lat="42.7277160" lon="-5.4737480">
        <ele>1103.0</ele>
        <time>2021-08-21T05:52:22Z</time>
      </trkpt>
      <trkpt lat="42.7277380" lon="-5.4737380">
        <ele>1103.0</ele>
        <time>2021-08-21T05:52:23Z</time>
      </trkpt>
      <trkpt lat="42.7277700" lon="-5.4737270">
        <ele>1103.0</ele>
        <time>2021-08-21T05:52:24Z</time>
      </trkpt>
      <trkpt lat="42.7277810" lon="-5.4737220">
        <ele>1103.0</ele>
        <time>2021-08-21T05:52:25Z</time>
      </trkpt>
      <trkpt lat="42.7278020" lon="-5.4737130">
        <ele>1103.0</ele>
        <time>2021-08-21T05:52:26Z</time>
      </trkpt>
      <trkpt lat="42.7278210" lon="-5.4737050">
        <ele>1103.0</ele>
        <time>2021-08-21T05:52:27Z</time>
      </trkpt>
      <trkpt lat="42.7278430" lon="-5.4736940">
        <ele>1103.0</ele>
        <time>2021-08-21T05:52:28Z</time>
      </trkpt>
      <trkpt lat="42.7278660" lon="-5.4736830">
        <ele>1103.0</ele>
        <time>2021-08-21T05:52:29Z</time>
      </trkpt>
      <trkpt lat="42.7278880" lon="-5.4736720">
        <ele>1103.0</ele>
        <time>2021-08-21T05:52:30Z</time>
      </trkpt>
      <trkpt lat="42.7279090" lon="-5.4736620">
        <ele>1103.0</ele>
        <time>2021-08-21T05:52:31Z</time>
      </trkpt>
      <trkpt lat="42.7279400" lon="-5.4736480">
        <ele>1103.0</ele>
        <time>2021-08-21T05:52:32Z</time>
      </trkpt>
      <trkpt lat="42.7279510" lon="-5.4736420">
        <ele>1103.0</ele>
        <time>2021-08-21T05:52:33Z</time>
      </trkpt>
      <trkpt lat="42.7279760" lon="-5.4736240">
        <ele>1103.0</ele>
        <time>2021-08-21T05:52:34Z</time>
      </trkpt>
      <trkpt lat="42.7279990" lon="-5.4736100">
        <ele>1103.0</ele>
        <time>2021-08-21T05:52:35Z</time>
      </trkpt>
      <trkpt lat="42.7280210" lon="-5.4735960">
        <ele>1103.0</ele>
        <time>2021-08-21T05:52:36Z</time>
      </trkpt>
      <trkpt lat="42.7280410" lon="-5.4735870">
        <ele>1103.0</ele>
        <time>2021-08-21T05:52:37Z</time>
      </trkpt>
      <trkpt lat="42.7280610" lon="-5.4735790">
        <ele>1103.0</ele>
        <time>2021-08-21T05:52:38Z</time>
      </trkpt>
      <trkpt lat="42.7280810" lon="-5.4735720">
        <ele>1103.0</ele>
        <time>2021-08-21T05:52:39Z</time>
      </trkpt>
      <trkpt lat="42.7281010" lon="-5.4735630">
        <ele>1103.0</ele>
        <time>2021-08-21T05:52:40Z</time>
      </trkpt>
      <trkpt lat="42.7281240" lon="-5.4735510">
        <ele>1103.0</ele>
        <time>2021-08-21T05:52:41Z</time>
      </trkpt>
      <trkpt lat="42.7281450" lon="-5.4735400">
        <ele>1103.0</ele>
        <time>2021-08-21T05:52:42Z</time>
      </trkpt>
      <trkpt lat="42.7281800" lon="-5.4735210">
        <ele>1103.0</ele>
        <time>2021-08-21T05:52:43Z</time>
      </trkpt>
      <trkpt lat="42.7281910" lon="-5.4735140">
        <ele>1103.0</ele>
        <time>2021-08-21T05:52:44Z</time>
      </trkpt>
      <trkpt lat="42.7282120" lon="-5.4735040">
        <ele>1103.0</ele>
        <time>2021-08-21T05:52:45Z</time>
      </trkpt>
      <trkpt lat="42.7282350" lon="-5.4734960">
        <ele>1103.0</ele>
        <time>2021-08-21T05:52:46Z</time>
      </trkpt>
      <trkpt lat="42.7282570" lon="-5.4734850">
        <ele>1103.0</ele>
        <time>2021-08-21T05:52:47Z</time>
      </trkpt>
      <trkpt lat="42.7282800" lon="-5.4734750">
        <ele>1103.0</ele>
        <time>2021-08-21T05:52:48Z</time>
      </trkpt>
      <trkpt lat="42.7283020" lon="-5.4734620">
        <ele>1103.0</ele>
        <time>2021-08-21T05:52:49Z</time>
      </trkpt>
      <trkpt lat="42.7283230" lon="-5.4734530">
        <ele>1103.0</ele>
        <time>2021-08-21T05:52:50Z</time>
      </trkpt>
      <trkpt lat="42.7283440" lon="-5.4734430">
        <ele>1103.0</ele>
        <time>2021-08-21T05:52:51Z</time>
      </trkpt>
      <trkpt lat="42.7283640" lon="-5.4734340">
        <ele>1103.0</ele>
        <time>2021-08-21T05:52:52Z</time>
      </trkpt>
      <trkpt lat="42.7283850" lon="-5.4734250">
        <ele>1103.0</ele>
        <time>2021-08-21T05:52:53Z</time>
      </trkpt>
      <trkpt lat="42.7284070" lon="-5.4734160">
        <ele>1102.0</ele>
        <time>2021-08-21T05:52:54Z</time>
      </trkpt>
      <trkpt lat="42.7284310" lon="-5.4734030">
        <ele>1102.0</ele>
        <time>2021-08-21T05:52:55Z</time>
      </trkpt>
      <trkpt lat="42.7284640" lon="-5.4733860">
        <ele>1102.0</ele>
        <time>2021-08-21T05:52:56Z</time>
      </trkpt>
      <trkpt lat="42.7284740" lon="-5.4733810">
        <ele>1102.0</ele>
        <time>2021-08-21T05:52:57Z</time>
      </trkpt>
      <trkpt lat="42.7285070" lon="-5.4733650">
        <ele>1102.0</ele>
        <time>2021-08-21T05:52:58Z</time>
      </trkpt>
      <trkpt lat="42.7285180" lon="-5.4733590">
        <ele>1102.0</ele>
        <time>2021-08-21T05:52:59Z</time>
      </trkpt>
      <trkpt lat="42.7285410" lon="-5.4733480">
        <ele>1102.0</ele>
        <time>2021-08-21T05:53:00Z</time>
      </trkpt>
      <trkpt lat="42.7285730" lon="-5.4733300">
        <ele>1102.0</ele>
        <time>2021-08-21T05:53:01Z</time>
      </trkpt>
      <trkpt lat="42.7285820" lon="-5.4733250">
        <ele>1102.0</ele>
        <time>2021-08-21T05:53:02Z</time>
      </trkpt>
      <trkpt lat="42.7286040" lon="-5.4733160">
        <ele>1102.0</ele>
        <time>2021-08-21T05:53:03Z</time>
      </trkpt>
      <trkpt lat="42.7286270" lon="-5.4733060">
        <ele>1102.0</ele>
        <time>2021-08-21T05:53:04Z</time>
      </trkpt>
      <trkpt lat="42.7286480" lon="-5.4732960">
        <ele>1102.0</ele>
        <time>2021-08-21T05:53:05Z</time>
      </trkpt>
      <trkpt lat="42.7286700" lon="-5.4732850">
        <ele>1102.0</ele>
        <time>2021-08-21T05:53:06Z</time>
      </trkpt>
      <trkpt lat="42.7286910" lon="-5.4732760">
        <ele>1102.0</ele>
        <time>2021-08-21T05:53:07Z</time>
      </trkpt>
      <trkpt lat="42.7287130" lon="-5.4732680">
        <ele>1102.0</ele>
        <time>2021-08-21T05:53:08Z</time>
      </trkpt>
      <trkpt lat="42.7287330" lon="-5.4732610">
        <ele>1102.0</ele>
        <time>2021-08-21T05:53:09Z</time>
      </trkpt>
      <trkpt lat="42.7287550" lon="-5.4732510">
        <ele>1102.0</ele>
        <time>2021-08-21T05:53:10Z</time>
      </trkpt>
      <trkpt lat="42.7287780" lon="-5.4732390">
        <ele>1102.0</ele>
        <time>2021-08-21T05:53:11Z</time>
      </trkpt>
      <trkpt lat="42.7288000" lon="-5.4732280">
        <ele>1102.0</ele>
        <time>2021-08-21T05:53:12Z</time>
      </trkpt>
      <trkpt lat="42.7288210" lon="-5.4732190">
        <ele>1102.0</ele>
        <time>2021-08-21T05:53:13Z</time>
      </trkpt>
      <trkpt lat="42.7288430" lon="-5.4732100">
        <ele>1102.0</ele>
        <time>2021-08-21T05:53:14Z</time>
      </trkpt>
      <trkpt lat="42.7288770" lon="-5.4731940">
        <ele>1102.0</ele>
        <time>2021-08-21T05:53:15Z</time>
      </trkpt>
      <trkpt lat="42.7288880" lon="-5.4731890">
        <ele>1102.0</ele>
        <time>2021-08-21T05:53:16Z</time>
      </trkpt>
      <trkpt lat="42.7289100" lon="-5.4731780">
        <ele>1102.0</ele>
        <time>2021-08-21T05:53:17Z</time>
      </trkpt>
      <trkpt lat="42.7289320" lon="-5.4731670">
        <ele>1102.0</ele>
        <time>2021-08-21T05:53:18Z</time>
      </trkpt>
      <trkpt lat="42.7289550" lon="-5.4731570">
        <ele>1103.0</ele>
        <time>2021-08-21T05:53:19Z</time>
      </trkpt>
      <trkpt lat="42.7289800" lon="-5.4731430">
        <ele>1103.0</ele>
        <time>2021-08-21T05:53:20Z</time>
      </trkpt>
      <trkpt lat="42.7290050" lon="-5.4731330">
        <ele>1103.0</ele>
        <time>2021-08-21T05:53:21Z</time>
      </trkpt>
      <trkpt lat="42.7290290" lon="-5.4731180">
        <ele>1103.0</ele>
        <time>2021-08-21T05:53:22Z</time>
      </trkpt>
      <trkpt lat="42.7290520" lon="-5.4731050">
        <ele>1103.0</ele>
        <time>2021-08-21T05:53:23Z</time>
      </trkpt>
      <trkpt lat="42.7290740" lon="-5.4730960">
        <ele>1103.0</ele>
        <time>2021-08-21T05:53:24Z</time>
      </trkpt>
      <trkpt lat="42.7290950" lon="-5.4730850">
        <ele>1103.0</ele>
        <time>2021-08-21T05:53:25Z</time>
      </trkpt>
      <trkpt lat="42.7291280" lon="-5.4730690">
        <ele>1103.0</ele>
        <time>2021-08-21T05:53:26Z</time>
      </trkpt>
      <trkpt lat="42.7291390" lon="-5.4730640">
        <ele>1103.0</ele>
        <time>2021-08-21T05:53:27Z</time>
      </trkpt>
      <trkpt lat="42.7291600" lon="-5.4730570">
        <ele>1103.0</ele>
        <time>2021-08-21T05:53:28Z</time>
      </trkpt>
      <trkpt lat="42.7291910" lon="-5.4730480">
        <ele>1103.0</ele>
        <time>2021-08-21T05:53:29Z</time>
      </trkpt>
      <trkpt lat="42.7292010" lon="-5.4730450">
        <ele>1104.0</ele>
        <time>2021-08-21T05:53:30Z</time>
      </trkpt>
      <trkpt lat="42.7292250" lon="-5.4730370">
        <ele>1104.0</ele>
        <time>2021-08-21T05:53:31Z</time>
      </trkpt>
      <trkpt lat="42.7292560" lon="-5.4730250">
        <ele>1104.0</ele>
        <time>2021-08-21T05:53:32Z</time>
      </trkpt>
      <trkpt lat="42.7292670" lon="-5.4730210">
        <ele>1104.0</ele>
        <time>2021-08-21T05:53:33Z</time>
      </trkpt>
      <trkpt lat="42.7292880" lon="-5.4730110">
        <ele>1104.0</ele>
        <time>2021-08-21T05:53:34Z</time>
      </trkpt>
      <trkpt lat="42.7293080" lon="-5.4730020">
        <ele>1104.0</ele>
        <time>2021-08-21T05:53:35Z</time>
      </trkpt>
      <trkpt lat="42.7293300" lon="-5.4729940">
        <ele>1105.0</ele>
        <time>2021-08-21T05:53:36Z</time>
      </trkpt>
      <trkpt lat="42.7293500" lon="-5.4729860">
        <ele>1105.0</ele>
        <time>2021-08-21T05:53:37Z</time>
      </trkpt>
      <trkpt lat="42.7293710" lon="-5.4729760">
        <ele>1105.0</ele>
        <time>2021-08-21T05:53:38Z</time>
      </trkpt>
      <trkpt lat="42.7293930" lon="-5.4729680">
        <ele>1105.0</ele>
        <time>2021-08-21T05:53:39Z</time>
      </trkpt>
      <trkpt lat="42.7294180" lon="-5.4729570">
        <ele>1105.0</ele>
        <time>2021-08-21T05:53:40Z</time>
      </trkpt>
      <trkpt lat="42.7294410" lon="-5.4729460">
        <ele>1105.0</ele>
        <time>2021-08-21T05:53:41Z</time>
      </trkpt>
      <trkpt lat="42.7294760" lon="-5.4729260">
        <ele>1105.0</ele>
        <time>2021-08-21T05:53:42Z</time>
      </trkpt>
      <trkpt lat="42.7294860" lon="-5.4729200">
        <ele>1105.0</ele>
        <time>2021-08-21T05:53:43Z</time>
      </trkpt>
      <trkpt lat="42.7295100" lon="-5.4729100">
        <ele>1105.0</ele>
        <time>2021-08-21T05:53:44Z</time>
      </trkpt>
      <trkpt lat="42.7295320" lon="-5.4729010">
        <ele>1105.0</ele>
        <time>2021-08-21T05:53:45Z</time>
      </trkpt>
      <trkpt lat="42.7295560" lon="-5.4728910">
        <ele>1105.0</ele>
        <time>2021-08-21T05:53:46Z</time>
      </trkpt>
      <trkpt lat="42.7295800" lon="-5.4728830">
        <ele>1105.0</ele>
        <time>2021-08-21T05:53:47Z</time>
      </trkpt>
      <trkpt lat="42.7296040" lon="-5.4728730">
        <ele>1105.0</ele>
        <time>2021-08-21T05:53:48Z</time>
      </trkpt>
      <trkpt lat="42.7296250" lon="-5.4728630">
        <ele>1105.0</ele>
        <time>2021-08-21T05:53:49Z</time>
      </trkpt>
      <trkpt lat="42.7296480" lon="-5.4728530">
        <ele>1106.0</ele>
        <time>2021-08-21T05:53:50Z</time>
      </trkpt>
      <trkpt lat="42.7296700" lon="-5.4728420">
        <ele>1106.0</ele>
        <time>2021-08-21T05:53:51Z</time>
      </trkpt>
      <trkpt lat="42.7296940" lon="-5.4728310">
        <ele>1106.0</ele>
        <time>2021-08-21T05:53:52Z</time>
      </trkpt>
      <trkpt lat="42.7297280" lon="-5.4728180">
        <ele>1106.0</ele>
        <time>2021-08-21T05:53:53Z</time>
      </trkpt>
      <trkpt lat="42.7297400" lon="-5.4728130">
        <ele>1106.0</ele>
        <time>2021-08-21T05:53:54Z</time>
      </trkpt>
      <trkpt lat="42.7297640" lon="-5.4728030">
        <ele>1106.0</ele>
        <time>2021-08-21T05:53:55Z</time>
      </trkpt>
      <trkpt lat="42.7297880" lon="-5.4727920">
        <ele>1106.0</ele>
        <time>2021-08-21T05:53:56Z</time>
      </trkpt>
      <trkpt lat="42.7298130" lon="-5.4727800">
        <ele>1107.0</ele>
        <time>2021-08-21T05:53:57Z</time>
      </trkpt>
      <trkpt lat="42.7298430" lon="-5.4727650">
        <ele>1107.0</ele>
        <time>2021-08-21T05:53:58Z</time>
      </trkpt>
      <trkpt lat="42.7298530" lon="-5.4727610">
        <ele>1107.0</ele>
        <time>2021-08-21T05:53:59Z</time>
      </trkpt>
      <trkpt lat="42.7298770" lon="-5.4727500">
        <ele>1107.0</ele>
        <time>2021-08-21T05:54:00Z</time>
      </trkpt>
      <trkpt lat="42.7299020" lon="-5.4727410">
        <ele>1107.0</ele>
        <time>2021-08-21T05:54:01Z</time>
      </trkpt>
      <trkpt lat="42.7299360" lon="-5.4727250">
        <ele>1107.0</ele>
        <time>2021-08-21T05:54:02Z</time>
      </trkpt>
      <trkpt lat="42.7299470" lon="-5.4727190">
        <ele>1107.0</ele>
        <time>2021-08-21T05:54:03Z</time>
      </trkpt>
      <trkpt lat="42.7299690" lon="-5.4727040">
        <ele>1107.0</ele>
        <time>2021-08-21T05:54:04Z</time>
      </trkpt>
      <trkpt lat="42.7299930" lon="-5.4726920">
        <ele>1107.0</ele>
        <time>2021-08-21T05:54:05Z</time>
      </trkpt>
      <trkpt lat="42.7300150" lon="-5.4726810">
        <ele>1107.0</ele>
        <time>2021-08-21T05:54:06Z</time>
      </trkpt>
      <trkpt lat="42.7300370" lon="-5.4726730">
        <ele>1107.0</ele>
        <time>2021-08-21T05:54:07Z</time>
      </trkpt>
      <trkpt lat="42.7300570" lon="-5.4726650">
        <ele>1107.0</ele>
        <time>2021-08-21T05:54:08Z</time>
      </trkpt>
      <trkpt lat="42.7300890" lon="-5.4726490">
        <ele>1107.0</ele>
        <time>2021-08-21T05:54:09Z</time>
      </trkpt>
      <trkpt lat="42.7300990" lon="-5.4726430">
        <ele>1108.0</ele>
        <time>2021-08-21T05:54:10Z</time>
      </trkpt>
      <trkpt lat="42.7301240" lon="-5.4726310">
        <ele>1108.0</ele>
        <time>2021-08-21T05:54:11Z</time>
      </trkpt>
      <trkpt lat="42.7301470" lon="-5.4726210">
        <ele>1108.0</ele>
        <time>2021-08-21T05:54:12Z</time>
      </trkpt>
      <trkpt lat="42.7301820" lon="-5.4726070">
        <ele>1108.0</ele>
        <time>2021-08-21T05:54:13Z</time>
      </trkpt>
      <trkpt lat="42.7301940" lon="-5.4726020">
        <ele>1108.0</ele>
        <time>2021-08-21T05:54:14Z</time>
      </trkpt>
      <trkpt lat="42.7302140" lon="-5.4725920">
        <ele>1108.0</ele>
        <time>2021-08-21T05:54:15Z</time>
      </trkpt>
      <trkpt lat="42.7302350" lon="-5.4725820">
        <ele>1108.0</ele>
        <time>2021-08-21T05:54:16Z</time>
      </trkpt>
      <trkpt lat="42.7302710" lon="-5.4725690">
        <ele>1108.0</ele>
        <time>2021-08-21T05:54:17Z</time>
      </trkpt>
      <trkpt lat="42.7302820" lon="-5.4725650">
        <ele>1109.0</ele>
        <time>2021-08-21T05:54:18Z</time>
      </trkpt>
      <trkpt lat="42.7303070" lon="-5.4725550">
        <ele>1109.0</ele>
        <time>2021-08-21T05:54:19Z</time>
      </trkpt>
      <trkpt lat="42.7303310" lon="-5.4725450">
        <ele>1109.0</ele>
        <time>2021-08-21T05:54:20Z</time>
      </trkpt>
      <trkpt lat="42.7303550" lon="-5.4725350">
        <ele>1109.0</ele>
        <time>2021-08-21T05:54:21Z</time>
      </trkpt>
      <trkpt lat="42.7303800" lon="-5.4725280">
        <ele>1109.0</ele>
        <time>2021-08-21T05:54:22Z</time>
      </trkpt>
      <trkpt lat="42.7304120" lon="-5.4725190">
        <ele>1109.0</ele>
        <time>2021-08-21T05:54:23Z</time>
      </trkpt>
      <trkpt lat="42.7304230" lon="-5.4725150">
        <ele>1109.0</ele>
        <time>2021-08-21T05:54:24Z</time>
      </trkpt>
      <trkpt lat="42.7304480" lon="-5.4725050">
        <ele>1110.0</ele>
        <time>2021-08-21T05:54:25Z</time>
      </trkpt>
      <trkpt lat="42.7304810" lon="-5.4724910">
        <ele>1110.0</ele>
        <time>2021-08-21T05:54:26Z</time>
      </trkpt>
      <trkpt lat="42.7304920" lon="-5.4724870">
        <ele>1110.0</ele>
        <time>2021-08-21T05:54:27Z</time>
      </trkpt>
      <trkpt lat="42.7305140" lon="-5.4724820">
        <ele>1110.0</ele>
        <time>2021-08-21T05:54:28Z</time>
      </trkpt>
      <trkpt lat="42.7305330" lon="-5.4724790">
        <ele>1110.0</ele>
        <time>2021-08-21T05:54:29Z</time>
      </trkpt>
      <trkpt lat="42.7305560" lon="-5.4724730">
        <ele>1110.0</ele>
        <time>2021-08-21T05:54:30Z</time>
      </trkpt>
      <trkpt lat="42.7305810" lon="-5.4724680">
        <ele>1110.0</ele>
        <time>2021-08-21T05:54:31Z</time>
      </trkpt>
      <trkpt lat="42.7306020" lon="-5.4724670">
        <ele>1110.0</ele>
        <time>2021-08-21T05:54:32Z</time>
      </trkpt>
      <trkpt lat="42.7306260" lon="-5.4724680">
        <ele>1111.0</ele>
        <time>2021-08-21T05:54:33Z</time>
      </trkpt>
      <trkpt lat="42.7306510" lon="-5.4724680">
        <ele>1111.0</ele>
        <time>2021-08-21T05:54:34Z</time>
      </trkpt>
      <trkpt lat="42.7306740" lon="-5.4724680">
        <ele>1111.0</ele>
        <time>2021-08-21T05:54:35Z</time>
      </trkpt>
      <trkpt lat="42.7306990" lon="-5.4724680">
        <ele>1111.0</ele>
        <time>2021-08-21T05:54:36Z</time>
      </trkpt>
      <trkpt lat="42.7307230" lon="-5.4724680">
        <ele>1111.0</ele>
        <time>2021-08-21T05:54:37Z</time>
      </trkpt>
      <trkpt lat="42.7307460" lon="-5.4724700">
        <ele>1111.0</ele>
        <time>2021-08-21T05:54:38Z</time>
      </trkpt>
      <trkpt lat="42.7307680" lon="-5.4724750">
        <ele>1111.0</ele>
        <time>2021-08-21T05:54:39Z</time>
      </trkpt>
      <trkpt lat="42.7307880" lon="-5.4724840">
        <ele>1111.0</ele>
        <time>2021-08-21T05:54:40Z</time>
      </trkpt>
      <trkpt lat="42.7308100" lon="-5.4724930">
        <ele>1111.0</ele>
        <time>2021-08-21T05:54:41Z</time>
      </trkpt>
      <trkpt lat="42.7308310" lon="-5.4725010">
        <ele>1112.0</ele>
        <time>2021-08-21T05:54:42Z</time>
      </trkpt>
      <trkpt lat="42.7308540" lon="-5.4725080">
        <ele>1112.0</ele>
        <time>2021-08-21T05:54:43Z</time>
      </trkpt>
      <trkpt lat="42.7308730" lon="-5.4725160">
        <ele>1112.0</ele>
        <time>2021-08-21T05:54:44Z</time>
      </trkpt>
      <trkpt lat="42.7309050" lon="-5.4725220">
        <ele>1112.0</ele>
        <time>2021-08-21T05:54:45Z</time>
      </trkpt>
      <trkpt lat="42.7309150" lon="-5.4725250">
        <ele>1112.0</ele>
        <time>2021-08-21T05:54:46Z</time>
      </trkpt>
      <trkpt lat="42.7309390" lon="-5.4725280">
        <ele>1112.0</ele>
        <time>2021-08-21T05:54:47Z</time>
      </trkpt>
      <trkpt lat="42.7309600" lon="-5.4725340">
        <ele>1112.0</ele>
        <time>2021-08-21T05:54:48Z</time>
      </trkpt>
      <trkpt lat="42.7309850" lon="-5.4725410">
        <ele>1112.0</ele>
        <time>2021-08-21T05:54:49Z</time>
      </trkpt>
      <trkpt lat="42.7310050" lon="-5.4725480">
        <ele>1112.0</ele>
        <time>2021-08-21T05:54:50Z</time>
      </trkpt>
      <trkpt lat="42.7310280" lon="-5.4725530">
        <ele>1112.0</ele>
        <time>2021-08-21T05:54:51Z</time>
      </trkpt>
      <trkpt lat="42.7310480" lon="-5.4725580">
        <ele>1112.0</ele>
        <time>2021-08-21T05:54:52Z</time>
      </trkpt>
      <trkpt lat="42.7310730" lon="-5.4725620">
        <ele>1112.0</ele>
        <time>2021-08-21T05:54:53Z</time>
      </trkpt>
      <trkpt lat="42.7310950" lon="-5.4725690">
        <ele>1112.0</ele>
        <time>2021-08-21T05:54:54Z</time>
      </trkpt>
      <trkpt lat="42.7311170" lon="-5.4725770">
        <ele>1112.0</ele>
        <time>2021-08-21T05:54:55Z</time>
      </trkpt>
      <trkpt lat="42.7311530" lon="-5.4725860">
        <ele>1112.0</ele>
        <time>2021-08-21T05:54:56Z</time>
      </trkpt>
      <trkpt lat="42.7311640" lon="-5.4725890">
        <ele>1112.0</ele>
        <time>2021-08-21T05:54:57Z</time>
      </trkpt>
      <trkpt lat="42.7311880" lon="-5.4725960">
        <ele>1112.0</ele>
        <time>2021-08-21T05:54:58Z</time>
      </trkpt>
      <trkpt lat="42.7312080" lon="-5.4726040">
        <ele>1112.0</ele>
        <time>2021-08-21T05:54:59Z</time>
      </trkpt>
      <trkpt lat="42.7312310" lon="-5.4726130">
        <ele>1112.0</ele>
        <time>2021-08-21T05:55:00Z</time>
      </trkpt>
      <trkpt lat="42.7312510" lon="-5.4726210">
        <ele>1112.0</ele>
        <time>2021-08-21T05:55:01Z</time>
      </trkpt>
      <trkpt lat="42.7312740" lon="-5.4726290">
        <ele>1112.0</ele>
        <time>2021-08-21T05:55:02Z</time>
      </trkpt>
      <trkpt lat="42.7312970" lon="-5.4726380">
        <ele>1112.0</ele>
        <time>2021-08-21T05:55:03Z</time>
      </trkpt>
      <trkpt lat="42.7313280" lon="-5.4726500">
        <ele>1112.0</ele>
        <time>2021-08-21T05:55:04Z</time>
      </trkpt>
      <trkpt lat="42.7313380" lon="-5.4726540">
        <ele>1113.0</ele>
        <time>2021-08-21T05:55:05Z</time>
      </trkpt>
      <trkpt lat="42.7313600" lon="-5.4726610">
        <ele>1113.0</ele>
        <time>2021-08-21T05:55:06Z</time>
      </trkpt>
      <trkpt lat="42.7313810" lon="-5.4726700">
        <ele>1113.0</ele>
        <time>2021-08-21T05:55:07Z</time>
      </trkpt>
      <trkpt lat="42.7314040" lon="-5.4726800">
        <ele>1113.0</ele>
        <time>2021-08-21T05:55:08Z</time>
      </trkpt>
      <trkpt lat="42.7314240" lon="-5.4726870">
        <ele>1113.0</ele>
        <time>2021-08-21T05:55:09Z</time>
      </trkpt>
      <trkpt lat="42.7314470" lon="-5.4726960">
        <ele>1113.0</ele>
        <time>2021-08-21T05:55:10Z</time>
      </trkpt>
      <trkpt lat="42.7314660" lon="-5.4727050">
        <ele>1113.0</ele>
        <time>2021-08-21T05:55:11Z</time>
      </trkpt>
      <trkpt lat="42.7314880" lon="-5.4727120">
        <ele>1114.0</ele>
        <time>2021-08-21T05:55:12Z</time>
      </trkpt>
      <trkpt lat="42.7315080" lon="-5.4727170">
        <ele>1114.0</ele>
        <time>2021-08-21T05:55:13Z</time>
      </trkpt>
      <trkpt lat="42.7315310" lon="-5.4727230">
        <ele>1114.0</ele>
        <time>2021-08-21T05:55:14Z</time>
      </trkpt>
      <trkpt lat="42.7315520" lon="-5.4727270">
        <ele>1114.0</ele>
        <time>2021-08-21T05:55:15Z</time>
      </trkpt>
      <trkpt lat="42.7315970" lon="-5.4727380">
        <ele>1114.0</ele>
        <time>2021-08-21T05:55:16Z</time>
      </trkpt>
      <trkpt lat="42.7315970" lon="-5.4727380">
        <ele>1114.0</ele>
        <time>2021-08-21T05:55:17Z</time>
      </trkpt>
      <trkpt lat="42.7316210" lon="-5.4727420">
        <ele>1114.0</ele>
        <time>2021-08-21T05:55:18Z</time>
      </trkpt>
      <trkpt lat="42.7316430" lon="-5.4727500">
        <ele>1114.0</ele>
        <time>2021-08-21T05:55:19Z</time>
      </trkpt>
      <trkpt lat="42.7316640" lon="-5.4727560">
        <ele>1114.0</ele>
        <time>2021-08-21T05:55:20Z</time>
      </trkpt>
      <trkpt lat="42.7316880" lon="-5.4727620">
        <ele>1114.0</ele>
        <time>2021-08-21T05:55:21Z</time>
      </trkpt>
      <trkpt lat="42.7317090" lon="-5.4727680">
        <ele>1114.0</ele>
        <time>2021-08-21T05:55:22Z</time>
      </trkpt>
      <trkpt lat="42.7317440" lon="-5.4727780">
        <ele>1114.0</ele>
        <time>2021-08-21T05:55:23Z</time>
      </trkpt>
      <trkpt lat="42.7317550" lon="-5.4727810">
        <ele>1114.0</ele>
        <time>2021-08-21T05:55:24Z</time>
      </trkpt>
      <trkpt lat="42.7317760" lon="-5.4727930">
        <ele>1114.0</ele>
        <time>2021-08-21T05:55:25Z</time>
      </trkpt>
      <trkpt lat="42.7317980" lon="-5.4728030">
        <ele>1114.0</ele>
        <time>2021-08-21T05:55:26Z</time>
      </trkpt>
      <trkpt lat="42.7318210" lon="-5.4728120">
        <ele>1114.0</ele>
        <time>2021-08-21T05:55:27Z</time>
      </trkpt>
      <trkpt lat="42.7318440" lon="-5.4728250">
        <ele>1114.0</ele>
        <time>2021-08-21T05:55:28Z</time>
      </trkpt>
      <trkpt lat="42.7318660" lon="-5.4728380">
        <ele>1114.0</ele>
        <time>2021-08-21T05:55:29Z</time>
      </trkpt>
      <trkpt lat="42.7318900" lon="-5.4728490">
        <ele>1114.0</ele>
        <time>2021-08-21T05:55:30Z</time>
      </trkpt>
      <trkpt lat="42.7319120" lon="-5.4728600">
        <ele>1114.0</ele>
        <time>2021-08-21T05:55:31Z</time>
      </trkpt>
      <trkpt lat="42.7319360" lon="-5.4728720">
        <ele>1114.0</ele>
        <time>2021-08-21T05:55:32Z</time>
      </trkpt>
      <trkpt lat="42.7319590" lon="-5.4728810">
        <ele>1114.0</ele>
        <time>2021-08-21T05:55:33Z</time>
      </trkpt>
      <trkpt lat="42.7319790" lon="-5.4728910">
        <ele>1114.0</ele>
        <time>2021-08-21T05:55:34Z</time>
      </trkpt>
      <trkpt lat="42.7320020" lon="-5.4729010">
        <ele>1114.0</ele>
        <time>2021-08-21T05:55:35Z</time>
      </trkpt>
      <trkpt lat="42.7320240" lon="-5.4729130">
        <ele>1114.0</ele>
        <time>2021-08-21T05:55:36Z</time>
      </trkpt>
      <trkpt lat="42.7320470" lon="-5.4729250">
        <ele>1115.0</ele>
        <time>2021-08-21T05:55:37Z</time>
      </trkpt>
      <trkpt lat="42.7320690" lon="-5.4729420">
        <ele>1115.0</ele>
        <time>2021-08-21T05:55:38Z</time>
      </trkpt>
      <trkpt lat="42.7320920" lon="-5.4729580">
        <ele>1114.0</ele>
        <time>2021-08-21T05:55:39Z</time>
      </trkpt>
      <trkpt lat="42.7321120" lon="-5.4729740">
        <ele>1114.0</ele>
        <time>2021-08-21T05:55:40Z</time>
      </trkpt>
      <trkpt lat="42.7321330" lon="-5.4729910">
        <ele>1114.0</ele>
        <time>2021-08-21T05:55:41Z</time>
      </trkpt>
      <trkpt lat="42.7321530" lon="-5.4730100">
        <ele>1114.0</ele>
        <time>2021-08-21T05:55:42Z</time>
      </trkpt>
      <trkpt lat="42.7321750" lon="-5.4730300">
        <ele>1114.0</ele>
        <time>2021-08-21T05:55:43Z</time>
      </trkpt>
      <trkpt lat="42.7321930" lon="-5.4730460">
        <ele>1115.0</ele>
        <time>2021-08-21T05:55:44Z</time>
      </trkpt>
      <trkpt lat="42.7322110" lon="-5.4730650">
        <ele>1115.0</ele>
        <time>2021-08-21T05:55:45Z</time>
      </trkpt>
      <trkpt lat="42.7322320" lon="-5.4730880">
        <ele>1115.0</ele>
        <time>2021-08-21T05:55:46Z</time>
      </trkpt>
      <trkpt lat="42.7322600" lon="-5.4731230">
        <ele>1115.0</ele>
        <time>2021-08-21T05:55:47Z</time>
      </trkpt>
      <trkpt lat="42.7322690" lon="-5.4731350">
        <ele>1114.0</ele>
        <time>2021-08-21T05:55:48Z</time>
      </trkpt>
      <trkpt lat="42.7322900" lon="-5.4731560">
        <ele>1114.0</ele>
        <time>2021-08-21T05:55:49Z</time>
      </trkpt>
      <trkpt lat="42.7323110" lon="-5.4731740">
        <ele>1114.0</ele>
        <time>2021-08-21T05:55:50Z</time>
      </trkpt>
      <trkpt lat="42.7323370" lon="-5.4731900">
        <ele>1115.0</ele>
        <time>2021-08-21T05:55:51Z</time>
      </trkpt>
      <trkpt lat="42.7323610" lon="-5.4732060">
        <ele>1115.0</ele>
        <time>2021-08-21T05:55:52Z</time>
      </trkpt>
      <trkpt lat="42.7323820" lon="-5.4732260">
        <ele>1115.0</ele>
        <time>2021-08-21T05:55:53Z</time>
      </trkpt>
      <trkpt lat="42.7324150" lon="-5.4732610">
        <ele>1115.0</ele>
        <time>2021-08-21T05:55:54Z</time>
      </trkpt>
      <trkpt lat="42.7324250" lon="-5.4732720">
        <ele>1115.0</ele>
        <time>2021-08-21T05:55:55Z</time>
      </trkpt>
      <trkpt lat="42.7324440" lon="-5.4732960">
        <ele>1115.0</ele>
        <time>2021-08-21T05:55:56Z</time>
      </trkpt>
      <trkpt lat="42.7324790" lon="-5.4733280">
        <ele>1115.0</ele>
        <time>2021-08-21T05:55:57Z</time>
      </trkpt>
      <trkpt lat="42.7324900" lon="-5.4733370">
        <ele>1114.0</ele>
        <time>2021-08-21T05:55:58Z</time>
      </trkpt>
      <trkpt lat="42.7325140" lon="-5.4733580">
        <ele>1114.0</ele>
        <time>2021-08-21T05:55:59Z</time>
      </trkpt>
      <trkpt lat="42.7325380" lon="-5.4733800">
        <ele>1114.0</ele>
        <time>2021-08-21T05:56:00Z</time>
      </trkpt>
      <trkpt lat="42.7325740" lon="-5.4734110">
        <ele>1114.0</ele>
        <time>2021-08-21T05:56:01Z</time>
      </trkpt>
      <trkpt lat="42.7325850" lon="-5.4734220">
        <ele>1114.0</ele>
        <time>2021-08-21T05:56:02Z</time>
      </trkpt>
      <trkpt lat="42.7326050" lon="-5.4734430">
        <ele>1114.0</ele>
        <time>2021-08-21T05:56:03Z</time>
      </trkpt>
      <trkpt lat="42.7326380" lon="-5.4734710">
        <ele>1114.0</ele>
        <time>2021-08-21T05:56:04Z</time>
      </trkpt>
      <trkpt lat="42.7326480" lon="-5.4734810">
        <ele>1114.0</ele>
        <time>2021-08-21T05:56:05Z</time>
      </trkpt>
      <trkpt lat="42.7326670" lon="-5.4735030">
        <ele>1114.0</ele>
        <time>2021-08-21T05:56:06Z</time>
      </trkpt>
      <trkpt lat="42.7326880" lon="-5.4735250">
        <ele>1114.0</ele>
        <time>2021-08-21T05:56:07Z</time>
      </trkpt>
      <trkpt lat="42.7327080" lon="-5.4735490">
        <ele>1114.0</ele>
        <time>2021-08-21T05:56:08Z</time>
      </trkpt>
      <trkpt lat="42.7327280" lon="-5.4735730">
        <ele>1114.0</ele>
        <time>2021-08-21T05:56:09Z</time>
      </trkpt>
      <trkpt lat="42.7327480" lon="-5.4735970">
        <ele>1114.0</ele>
        <time>2021-08-21T05:56:10Z</time>
      </trkpt>
      <trkpt lat="42.7327700" lon="-5.4736180">
        <ele>1114.0</ele>
        <time>2021-08-21T05:56:11Z</time>
      </trkpt>
      <trkpt lat="42.7327930" lon="-5.4736370">
        <ele>1114.0</ele>
        <time>2021-08-21T05:56:12Z</time>
      </trkpt>
      <trkpt lat="42.7328150" lon="-5.4736580">
        <ele>1114.0</ele>
        <time>2021-08-21T05:56:13Z</time>
      </trkpt>
      <trkpt lat="42.7328470" lon="-5.4736830">
        <ele>1114.0</ele>
        <time>2021-08-21T05:56:14Z</time>
      </trkpt>
      <trkpt lat="42.7328570" lon="-5.4736910">
        <ele>1115.0</ele>
        <time>2021-08-21T05:56:15Z</time>
      </trkpt>
      <trkpt lat="42.7328790" lon="-5.4737080">
        <ele>1115.0</ele>
        <time>2021-08-21T05:56:16Z</time>
      </trkpt>
      <trkpt lat="42.7329030" lon="-5.4737260">
        <ele>1115.0</ele>
        <time>2021-08-21T05:56:17Z</time>
      </trkpt>
      <trkpt lat="42.7329280" lon="-5.4737410">
        <ele>1114.0</ele>
        <time>2021-08-21T05:56:18Z</time>
      </trkpt>
      <trkpt lat="42.7329520" lon="-5.4737590">
        <ele>1114.0</ele>
        <time>2021-08-21T05:56:19Z</time>
      </trkpt>
      <trkpt lat="42.7329750" lon="-5.4737790">
        <ele>1114.0</ele>
        <time>2021-08-21T05:56:20Z</time>
      </trkpt>
      <trkpt lat="42.7329960" lon="-5.4737970">
        <ele>1114.0</ele>
        <time>2021-08-21T05:56:21Z</time>
      </trkpt>
      <trkpt lat="42.7330180" lon="-5.4738150">
        <ele>1114.0</ele>
        <time>2021-08-21T05:56:22Z</time>
      </trkpt>
      <trkpt lat="42.7330400" lon="-5.4738360">
        <ele>1114.0</ele>
        <time>2021-08-21T05:56:23Z</time>
      </trkpt>
      <trkpt lat="42.7330630" lon="-5.4738560">
        <ele>1114.0</ele>
        <time>2021-08-21T05:56:24Z</time>
      </trkpt>
      <trkpt lat="42.7330860" lon="-5.4738750">
        <ele>1114.0</ele>
        <time>2021-08-21T05:56:25Z</time>
      </trkpt>
      <trkpt lat="42.7331080" lon="-5.4738930">
        <ele>1114.0</ele>
        <time>2021-08-21T05:56:26Z</time>
      </trkpt>
      <trkpt lat="42.7331450" lon="-5.4739210">
        <ele>1114.0</ele>
        <time>2021-08-21T05:56:27Z</time>
      </trkpt>
      <trkpt lat="42.7331570" lon="-5.4739300">
        <ele>1114.0</ele>
        <time>2021-08-21T05:56:28Z</time>
      </trkpt>
      <trkpt lat="42.7331810" lon="-5.4739480">
        <ele>1114.0</ele>
        <time>2021-08-21T05:56:29Z</time>
      </trkpt>
      <trkpt lat="42.7332010" lon="-5.4739670">
        <ele>1114.0</ele>
        <time>2021-08-21T05:56:30Z</time>
      </trkpt>
      <trkpt lat="42.7332210" lon="-5.4739860">
        <ele>1114.0</ele>
        <time>2021-08-21T05:56:31Z</time>
      </trkpt>
      <trkpt lat="42.7332410" lon="-5.4740070">
        <ele>1114.0</ele>
        <time>2021-08-21T05:56:32Z</time>
      </trkpt>
      <trkpt lat="42.7332620" lon="-5.4740260">
        <ele>1114.0</ele>
        <time>2021-08-21T05:56:33Z</time>
      </trkpt>
      <trkpt lat="42.7332810" lon="-5.4740460">
        <ele>1114.0</ele>
        <time>2021-08-21T05:56:34Z</time>
      </trkpt>
      <trkpt lat="42.7333020" lon="-5.4740680">
        <ele>1114.0</ele>
        <time>2021-08-21T05:56:35Z</time>
      </trkpt>
      <trkpt lat="42.7333230" lon="-5.4740870">
        <ele>1114.0</ele>
        <time>2021-08-21T05:56:36Z</time>
      </trkpt>
      <trkpt lat="42.7333430" lon="-5.4741050">
        <ele>1114.0</ele>
        <time>2021-08-21T05:56:37Z</time>
      </trkpt>
      <trkpt lat="42.7333630" lon="-5.4741240">
        <ele>1114.0</ele>
        <time>2021-08-21T05:56:38Z</time>
      </trkpt>
      <trkpt lat="42.7333860" lon="-5.4741430">
        <ele>1114.0</ele>
        <time>2021-08-21T05:56:39Z</time>
      </trkpt>
      <trkpt lat="42.7334080" lon="-5.4741630">
        <ele>1114.0</ele>
        <time>2021-08-21T05:56:40Z</time>
      </trkpt>
      <trkpt lat="42.7334280" lon="-5.4741790">
        <ele>1114.0</ele>
        <time>2021-08-21T05:56:41Z</time>
      </trkpt>
      <trkpt lat="42.7334500" lon="-5.4741970">
        <ele>1114.0</ele>
        <time>2021-08-21T05:56:42Z</time>
      </trkpt>
      <trkpt lat="42.7334710" lon="-5.4742170">
        <ele>1114.0</ele>
        <time>2021-08-21T05:56:43Z</time>
      </trkpt>
      <trkpt lat="42.7334920" lon="-5.4742360">
        <ele>1114.0</ele>
        <time>2021-08-21T05:56:44Z</time>
      </trkpt>
      <trkpt lat="42.7335150" lon="-5.4742500">
        <ele>1114.0</ele>
        <time>2021-08-21T05:56:45Z</time>
      </trkpt>
      <trkpt lat="42.7335380" lon="-5.4742680">
        <ele>1114.0</ele>
        <time>2021-08-21T05:56:46Z</time>
      </trkpt>
      <trkpt lat="42.7335670" lon="-5.4742930">
        <ele>1114.0</ele>
        <time>2021-08-21T05:56:47Z</time>
      </trkpt>
      <trkpt lat="42.7335770" lon="-5.4743010">
        <ele>1114.0</ele>
        <time>2021-08-21T05:56:48Z</time>
      </trkpt>
      <trkpt lat="42.7335960" lon="-5.4743180">
        <ele>1114.0</ele>
        <time>2021-08-21T05:56:49Z</time>
      </trkpt>
      <trkpt lat="42.7336170" lon="-5.4743340">
        <ele>1114.0</ele>
        <time>2021-08-21T05:56:50Z</time>
      </trkpt>
      <trkpt lat="42.7336390" lon="-5.4743490">
        <ele>1114.0</ele>
        <time>2021-08-21T05:56:51Z</time>
      </trkpt>
      <trkpt lat="42.7336570" lon="-5.4743670">
        <ele>1114.0</ele>
        <time>2021-08-21T05:56:52Z</time>
      </trkpt>
      <trkpt lat="42.7336800" lon="-5.4743760">
        <ele>1114.0</ele>
        <time>2021-08-21T05:56:53Z</time>
      </trkpt>
      <trkpt lat="42.7337200" lon="-5.4743940">
        <ele>1114.0</ele>
        <time>2021-08-21T05:56:54Z</time>
      </trkpt>
      <trkpt lat="42.7337330" lon="-5.4744040">
        <ele>1113.0</ele>
        <time>2021-08-21T05:56:55Z</time>
      </trkpt>
      <trkpt lat="42.7337560" lon="-5.4744220">
        <ele>1113.0</ele>
        <time>2021-08-21T05:56:56Z</time>
      </trkpt>
      <trkpt lat="42.7337730" lon="-5.4744360">
        <ele>1113.0</ele>
        <time>2021-08-21T05:56:57Z</time>
      </trkpt>
      <trkpt lat="42.7338020" lon="-5.4744620">
        <ele>1113.0</ele>
        <time>2021-08-21T05:56:58Z</time>
      </trkpt>
      <trkpt lat="42.7338120" lon="-5.4744720">
        <ele>1112.0</ele>
        <time>2021-08-21T05:56:59Z</time>
      </trkpt>
      <trkpt lat="42.7338310" lon="-5.4744880">
        <ele>1112.0</ele>
        <time>2021-08-21T05:57:00Z</time>
      </trkpt>
      <trkpt lat="42.7338480" lon="-5.4745110">
        <ele>1112.0</ele>
        <time>2021-08-21T05:57:01Z</time>
      </trkpt>
      <trkpt lat="42.7338680" lon="-5.4745310">
        <ele>1113.0</ele>
        <time>2021-08-21T05:57:02Z</time>
      </trkpt>
      <trkpt lat="42.7338900" lon="-5.4745480">
        <ele>1113.0</ele>
        <time>2021-08-21T05:57:03Z</time>
      </trkpt>
      <trkpt lat="42.7339090" lon="-5.4745670">
        <ele>1113.0</ele>
        <time>2021-08-21T05:57:04Z</time>
      </trkpt>
      <trkpt lat="42.7339300" lon="-5.4745800">
        <ele>1112.0</ele>
        <time>2021-08-21T05:57:05Z</time>
      </trkpt>
      <trkpt lat="42.7339520" lon="-5.4745970">
        <ele>1112.0</ele>
        <time>2021-08-21T05:57:06Z</time>
      </trkpt>
      <trkpt lat="42.7339870" lon="-5.4746170">
        <ele>1112.0</ele>
        <time>2021-08-21T05:57:07Z</time>
      </trkpt>
      <trkpt lat="42.7339980" lon="-5.4746240">
        <ele>1112.0</ele>
        <time>2021-08-21T05:57:08Z</time>
      </trkpt>
      <trkpt lat="42.7340180" lon="-5.4746460">
        <ele>1112.0</ele>
        <time>2021-08-21T05:57:09Z</time>
      </trkpt>
      <trkpt lat="42.7340390" lon="-5.4746690">
        <ele>1112.0</ele>
        <time>2021-08-21T05:57:10Z</time>
      </trkpt>
      <trkpt lat="42.7340720" lon="-5.4747000">
        <ele>1112.0</ele>
        <time>2021-08-21T05:57:11Z</time>
      </trkpt>
      <trkpt lat="42.7340830" lon="-5.4747100">
        <ele>1112.0</ele>
        <time>2021-08-21T05:57:12Z</time>
      </trkpt>
      <trkpt lat="42.7341020" lon="-5.4747350">
        <ele>1112.0</ele>
        <time>2021-08-21T05:57:13Z</time>
      </trkpt>
      <trkpt lat="42.7341210" lon="-5.4747540">
        <ele>1112.0</ele>
        <time>2021-08-21T05:57:14Z</time>
      </trkpt>
      <trkpt lat="42.7341400" lon="-5.4747740">
        <ele>1112.0</ele>
        <time>2021-08-21T05:57:15Z</time>
      </trkpt>
      <trkpt lat="42.7341610" lon="-5.4747970">
        <ele>1113.0</ele>
        <time>2021-08-21T05:57:16Z</time>
      </trkpt>
      <trkpt lat="42.7341930" lon="-5.4748250">
        <ele>1113.0</ele>
        <time>2021-08-21T05:57:17Z</time>
      </trkpt>
      <trkpt lat="42.7342030" lon="-5.4748350">
        <ele>1112.0</ele>
        <time>2021-08-21T05:57:18Z</time>
      </trkpt>
      <trkpt lat="42.7342270" lon="-5.4748540">
        <ele>1112.0</ele>
        <time>2021-08-21T05:57:19Z</time>
      </trkpt>
      <trkpt lat="42.7342490" lon="-5.4748730">
        <ele>1112.0</ele>
        <time>2021-08-21T05:57:20Z</time>
      </trkpt>
      <trkpt lat="42.7342670" lon="-5.4748960">
        <ele>1112.0</ele>
        <time>2021-08-21T05:57:21Z</time>
      </trkpt>
      <trkpt lat="42.7342870" lon="-5.4749180">
        <ele>1113.0</ele>
        <time>2021-08-21T05:57:22Z</time>
      </trkpt>
      <trkpt lat="42.7343080" lon="-5.4749410">
        <ele>1113.0</ele>
        <time>2021-08-21T05:57:23Z</time>
      </trkpt>
      <trkpt lat="42.7343300" lon="-5.4749630">
        <ele>1112.0</ele>
        <time>2021-08-21T05:57:24Z</time>
      </trkpt>
      <trkpt lat="42.7343490" lon="-5.4749910">
        <ele>1112.0</ele>
        <time>2021-08-21T05:57:25Z</time>
      </trkpt>
      <trkpt lat="42.7343820" lon="-5.4750460">
        <ele>1112.0</ele>
        <time>2021-08-21T05:57:26Z</time>
      </trkpt>
      <trkpt lat="42.7343980" lon="-5.4750730">
        <ele>1112.0</ele>
        <time>2021-08-21T05:57:27Z</time>
      </trkpt>
      <trkpt lat="42.7343980" lon="-5.4750730">
        <ele>1112.0</ele>
        <time>2021-08-21T05:57:28Z</time>
      </trkpt>
      <trkpt lat="42.7344140" lon="-5.4750990">
        <ele>1112.0</ele>
        <time>2021-08-21T05:57:29Z</time>
      </trkpt>
      <trkpt lat="42.7344330" lon="-5.4751270">
        <ele>1112.0</ele>
        <time>2021-08-21T05:57:30Z</time>
      </trkpt>
      <trkpt lat="42.7344490" lon="-5.4751550">
        <ele>1112.0</ele>
        <time>2021-08-21T05:57:31Z</time>
      </trkpt>
      <trkpt lat="42.7344640" lon="-5.4751820">
        <ele>1112.0</ele>
        <time>2021-08-21T05:57:32Z</time>
      </trkpt>
      <trkpt lat="42.7344840" lon="-5.4752300">
        <ele>1112.0</ele>
        <time>2021-08-21T05:57:33Z</time>
      </trkpt>
      <trkpt lat="42.7344910" lon="-5.4752460">
        <ele>1112.0</ele>
        <time>2021-08-21T05:57:34Z</time>
      </trkpt>
      <trkpt lat="42.7345050" lon="-5.4752760">
        <ele>1112.0</ele>
        <time>2021-08-21T05:57:35Z</time>
      </trkpt>
      <trkpt lat="42.7345300" lon="-5.4753170">
        <ele>1112.0</ele>
        <time>2021-08-21T05:57:36Z</time>
      </trkpt>
      <trkpt lat="42.7345380" lon="-5.4753320">
        <ele>1112.0</ele>
        <time>2021-08-21T05:57:37Z</time>
      </trkpt>
      <trkpt lat="42.7345520" lon="-5.4753620">
        <ele>1112.0</ele>
        <time>2021-08-21T05:57:38Z</time>
      </trkpt>
      <trkpt lat="42.7345660" lon="-5.4753910">
        <ele>1112.0</ele>
        <time>2021-08-21T05:57:39Z</time>
      </trkpt>
      <trkpt lat="42.7345820" lon="-5.4754210">
        <ele>1113.0</ele>
        <time>2021-08-21T05:57:40Z</time>
      </trkpt>
      <trkpt lat="42.7345950" lon="-5.4754520">
        <ele>1113.0</ele>
        <time>2021-08-21T05:57:41Z</time>
      </trkpt>
      <trkpt lat="42.7346100" lon="-5.4754830">
        <ele>1113.0</ele>
        <time>2021-08-21T05:57:42Z</time>
      </trkpt>
      <trkpt lat="42.7346270" lon="-5.4755110">
        <ele>1113.0</ele>
        <time>2021-08-21T05:57:43Z</time>
      </trkpt>
      <trkpt lat="42.7346460" lon="-5.4755350">
        <ele>1113.0</ele>
        <time>2021-08-21T05:57:44Z</time>
      </trkpt>
      <trkpt lat="42.7346660" lon="-5.4755600">
        <ele>1113.0</ele>
        <time>2021-08-21T05:57:45Z</time>
      </trkpt>
      <trkpt lat="42.7346990" lon="-5.4755960">
        <ele>1113.0</ele>
        <time>2021-08-21T05:57:46Z</time>
      </trkpt>
      <trkpt lat="42.7347100" lon="-5.4756070">
        <ele>1113.0</ele>
        <time>2021-08-21T05:57:47Z</time>
      </trkpt>
      <trkpt lat="42.7347300" lon="-5.4756290">
        <ele>1113.0</ele>
        <time>2021-08-21T05:57:48Z</time>
      </trkpt>
      <trkpt lat="42.7347510" lon="-5.4756500">
        <ele>1113.0</ele>
        <time>2021-08-21T05:57:49Z</time>
      </trkpt>
      <trkpt lat="42.7347730" lon="-5.4756690">
        <ele>1113.0</ele>
        <time>2021-08-21T05:57:50Z</time>
      </trkpt>
      <trkpt lat="42.7347930" lon="-5.4756850">
        <ele>1113.0</ele>
        <time>2021-08-21T05:57:51Z</time>
      </trkpt>
      <trkpt lat="42.7348160" lon="-5.4757000">
        <ele>1113.0</ele>
        <time>2021-08-21T05:57:52Z</time>
      </trkpt>
      <trkpt lat="42.7348410" lon="-5.4757150">
        <ele>1113.0</ele>
        <time>2021-08-21T05:57:53Z</time>
      </trkpt>
      <trkpt lat="42.7348680" lon="-5.4757260">
        <ele>1113.0</ele>
        <time>2021-08-21T05:57:54Z</time>
      </trkpt>
      <trkpt lat="42.7348960" lon="-5.4757390">
        <ele>1113.0</ele>
        <time>2021-08-21T05:57:55Z</time>
      </trkpt>
      <trkpt lat="42.7349230" lon="-5.4757510">
        <ele>1113.0</ele>
        <time>2021-08-21T05:57:56Z</time>
      </trkpt>
      <trkpt lat="42.7349500" lon="-5.4757650">
        <ele>1113.0</ele>
        <time>2021-08-21T05:57:57Z</time>
      </trkpt>
      <trkpt lat="42.7349790" lon="-5.4757740">
        <ele>1113.0</ele>
        <time>2021-08-21T05:57:58Z</time>
      </trkpt>
      <trkpt lat="42.7350050" lon="-5.4757830">
        <ele>1114.0</ele>
        <time>2021-08-21T05:57:59Z</time>
      </trkpt>
      <trkpt lat="42.7350300" lon="-5.4757900">
        <ele>1114.0</ele>
        <time>2021-08-21T05:58:00Z</time>
      </trkpt>
      <trkpt lat="42.7350580" lon="-5.4757940">
        <ele>1114.0</ele>
        <time>2021-08-21T05:58:01Z</time>
      </trkpt>
      <trkpt lat="42.7350850" lon="-5.4758000">
        <ele>1114.0</ele>
        <time>2021-08-21T05:58:02Z</time>
      </trkpt>
      <trkpt lat="42.7351120" lon="-5.4758050">
        <ele>1114.0</ele>
        <time>2021-08-21T05:58:03Z</time>
      </trkpt>
      <trkpt lat="42.7351480" lon="-5.4758160">
        <ele>1114.0</ele>
        <time>2021-08-21T05:58:04Z</time>
      </trkpt>
      <trkpt lat="42.7351590" lon="-5.4758210">
        <ele>1114.0</ele>
        <time>2021-08-21T05:58:05Z</time>
      </trkpt>
      <trkpt lat="42.7351800" lon="-5.4758310">
        <ele>1115.0</ele>
        <time>2021-08-21T05:58:06Z</time>
      </trkpt>
      <trkpt lat="42.7352030" lon="-5.4758400">
        <ele>1115.0</ele>
        <time>2021-08-21T05:58:07Z</time>
      </trkpt>
      <trkpt lat="42.7352300" lon="-5.4758440">
        <ele>1115.0</ele>
        <time>2021-08-21T05:58:08Z</time>
      </trkpt>
      <trkpt lat="42.7352570" lon="-5.4758430">
        <ele>1115.0</ele>
        <time>2021-08-21T05:58:09Z</time>
      </trkpt>
      <trkpt lat="42.7352870" lon="-5.4758390">
        <ele>1115.0</ele>
        <time>2021-08-21T05:58:10Z</time>
      </trkpt>
      <trkpt lat="42.7353130" lon="-5.4758310">
        <ele>1115.0</ele>
        <time>2021-08-21T05:58:11Z</time>
      </trkpt>
      <trkpt lat="42.7353410" lon="-5.4758200">
        <ele>1115.0</ele>
        <time>2021-08-21T05:58:12Z</time>
      </trkpt>
      <trkpt lat="42.7353700" lon="-5.4758100">
        <ele>1114.0</ele>
        <time>2021-08-21T05:58:13Z</time>
      </trkpt>
      <trkpt lat="42.7354120" lon="-5.4757910">
        <ele>1114.0</ele>
        <time>2021-08-21T05:58:14Z</time>
      </trkpt>
      <trkpt lat="42.7354250" lon="-5.4757830">
        <ele>1114.0</ele>
        <time>2021-08-21T05:58:15Z</time>
      </trkpt>
      <trkpt lat="42.7354670" lon="-5.4757550">
        <ele>1114.0</ele>
        <time>2021-08-21T05:58:16Z</time>
      </trkpt>
      <trkpt lat="42.7354800" lon="-5.4757470">
        <ele>1113.0</ele>
        <time>2021-08-21T05:58:17Z</time>
      </trkpt>
      <trkpt lat="42.7355050" lon="-5.4757310">
        <ele>1113.0</ele>
        <time>2021-08-21T05:58:18Z</time>
      </trkpt>
      <trkpt lat="42.7355300" lon="-5.4757160">
        <ele>1113.0</ele>
        <time>2021-08-21T05:58:19Z</time>
      </trkpt>
      <trkpt lat="42.7355530" lon="-5.4757020">
        <ele>1113.0</ele>
        <time>2021-08-21T05:58:20Z</time>
      </trkpt>
      <trkpt lat="42.7355780" lon="-5.4756840">
        <ele>1113.0</ele>
        <time>2021-08-21T05:58:21Z</time>
      </trkpt>
      <trkpt lat="42.7356200" lon="-5.4756490">
        <ele>1113.0</ele>
        <time>2021-08-21T05:58:22Z</time>
      </trkpt>
      <trkpt lat="42.7356330" lon="-5.4756380">
        <ele>1111.0</ele>
        <time>2021-08-21T05:58:23Z</time>
      </trkpt>
      <trkpt lat="42.7356580" lon="-5.4756180">
        <ele>1111.0</ele>
        <time>2021-08-21T05:58:24Z</time>
      </trkpt>
      <trkpt lat="42.7356800" lon="-5.4755990">
        <ele>1111.0</ele>
        <time>2021-08-21T05:58:25Z</time>
      </trkpt>
      <trkpt lat="42.7357010" lon="-5.4755790">
        <ele>1111.0</ele>
        <time>2021-08-21T05:58:26Z</time>
      </trkpt>
      <trkpt lat="42.7357230" lon="-5.4755580">
        <ele>1111.0</ele>
        <time>2021-08-21T05:58:27Z</time>
      </trkpt>
      <trkpt lat="42.7357430" lon="-5.4755380">
        <ele>1111.0</ele>
        <time>2021-08-21T05:58:28Z</time>
      </trkpt>
      <trkpt lat="42.7357620" lon="-5.4755180">
        <ele>1111.0</ele>
        <time>2021-08-21T05:58:29Z</time>
      </trkpt>
      <trkpt lat="42.7357810" lon="-5.4754980">
        <ele>1111.0</ele>
        <time>2021-08-21T05:58:30Z</time>
      </trkpt>
      <trkpt lat="42.7357990" lon="-5.4754780">
        <ele>1111.0</ele>
        <time>2021-08-21T05:58:31Z</time>
      </trkpt>
      <trkpt lat="42.7358160" lon="-5.4754580">
        <ele>1111.0</ele>
        <time>2021-08-21T05:58:32Z</time>
      </trkpt>
      <trkpt lat="42.7358430" lon="-5.4754340">
        <ele>1111.0</ele>
        <time>2021-08-21T05:58:33Z</time>
      </trkpt>
      <trkpt lat="42.7358520" lon="-5.4754270">
        <ele>1110.0</ele>
        <time>2021-08-21T05:58:34Z</time>
      </trkpt>
      <trkpt lat="42.7358730" lon="-5.4754100">
        <ele>1110.0</ele>
        <time>2021-08-21T05:58:35Z</time>
      </trkpt>
      <trkpt lat="42.7358920" lon="-5.4753860">
        <ele>1110.0</ele>
        <time>2021-08-21T05:58:36Z</time>
      </trkpt>
      <trkpt lat="42.7359090" lon="-5.4753610">
        <ele>1110.0</ele>
        <time>2021-08-21T05:58:37Z</time>
      </trkpt>
      <trkpt lat="42.7359270" lon="-5.4753370">
        <ele>1110.0</ele>
        <time>2021-08-21T05:58:38Z</time>
      </trkpt>
      <trkpt lat="42.7359450" lon="-5.4753150">
        <ele>1110.0</ele>
        <time>2021-08-21T05:58:39Z</time>
      </trkpt>
      <trkpt lat="42.7359640" lon="-5.4752940">
        <ele>1110.0</ele>
        <time>2021-08-21T05:58:40Z</time>
      </trkpt>
      <trkpt lat="42.7359810" lon="-5.4752730">
        <ele>1110.0</ele>
        <time>2021-08-21T05:58:41Z</time>
      </trkpt>
      <trkpt lat="42.7360060" lon="-5.4752450">
        <ele>1110.0</ele>
        <time>2021-08-21T05:58:42Z</time>
      </trkpt>
      <trkpt lat="42.7360150" lon="-5.4752350">
        <ele>1110.0</ele>
        <time>2021-08-21T05:58:43Z</time>
      </trkpt>
      <trkpt lat="42.7360380" lon="-5.4752130">
        <ele>1110.0</ele>
        <time>2021-08-21T05:58:44Z</time>
      </trkpt>
      <trkpt lat="42.7360580" lon="-5.4751940">
        <ele>1110.0</ele>
        <time>2021-08-21T05:58:45Z</time>
      </trkpt>
      <trkpt lat="42.7360770" lon="-5.4751720">
        <ele>1110.0</ele>
        <time>2021-08-21T05:58:46Z</time>
      </trkpt>
      <trkpt lat="42.7360960" lon="-5.4751520">
        <ele>1110.0</ele>
        <time>2021-08-21T05:58:47Z</time>
      </trkpt>
      <trkpt lat="42.7361130" lon="-5.4751350">
        <ele>1110.0</ele>
        <time>2021-08-21T05:58:48Z</time>
      </trkpt>
      <trkpt lat="42.7361400" lon="-5.4751090">
        <ele>1110.0</ele>
        <time>2021-08-21T05:58:49Z</time>
      </trkpt>
      <trkpt lat="42.7361490" lon="-5.4751000">
        <ele>1110.0</ele>
        <time>2021-08-21T05:58:50Z</time>
      </trkpt>
      <trkpt lat="42.7361660" lon="-5.4750800">
        <ele>1110.0</ele>
        <time>2021-08-21T05:58:51Z</time>
      </trkpt>
      <trkpt lat="42.7361920" lon="-5.4750530">
        <ele>1110.0</ele>
        <time>2021-08-21T05:58:52Z</time>
      </trkpt>
      <trkpt lat="42.7362010" lon="-5.4750440">
        <ele>1110.0</ele>
        <time>2021-08-21T05:58:53Z</time>
      </trkpt>
      <trkpt lat="42.7362210" lon="-5.4750260">
        <ele>1110.0</ele>
        <time>2021-08-21T05:58:54Z</time>
      </trkpt>
      <trkpt lat="42.7362430" lon="-5.4750100">
        <ele>1110.0</ele>
        <time>2021-08-21T05:58:55Z</time>
      </trkpt>
      <trkpt lat="42.7362640" lon="-5.4749920">
        <ele>1110.0</ele>
        <time>2021-08-21T05:58:56Z</time>
      </trkpt>
      <trkpt lat="42.7362850" lon="-5.4749730">
        <ele>1110.0</ele>
        <time>2021-08-21T05:58:57Z</time>
      </trkpt>
      <trkpt lat="42.7363040" lon="-5.4749520">
        <ele>1110.0</ele>
        <time>2021-08-21T05:58:58Z</time>
      </trkpt>
      <trkpt lat="42.7363250" lon="-5.4749340">
        <ele>1110.0</ele>
        <time>2021-08-21T05:58:59Z</time>
      </trkpt>
      <trkpt lat="42.7363450" lon="-5.4749160">
        <ele>1110.0</ele>
        <time>2021-08-21T05:59:00Z</time>
      </trkpt>
      <trkpt lat="42.7363640" lon="-5.4748990">
        <ele>1110.0</ele>
        <time>2021-08-21T05:59:01Z</time>
      </trkpt>
      <trkpt lat="42.7363840" lon="-5.4748810">
        <ele>1110.0</ele>
        <time>2021-08-21T05:59:02Z</time>
      </trkpt>
      <trkpt lat="42.7364160" lon="-5.4748510">
        <ele>1110.0</ele>
        <time>2021-08-21T05:59:03Z</time>
      </trkpt>
      <trkpt lat="42.7364270" lon="-5.4748400">
        <ele>1110.0</ele>
        <time>2021-08-21T05:59:04Z</time>
      </trkpt>
      <trkpt lat="42.7364490" lon="-5.4748230">
        <ele>1110.0</ele>
        <time>2021-08-21T05:59:05Z</time>
      </trkpt>
      <trkpt lat="42.7364700" lon="-5.4748060">
        <ele>1110.0</ele>
        <time>2021-08-21T05:59:06Z</time>
      </trkpt>
      <trkpt lat="42.7364930" lon="-5.4747880">
        <ele>1110.0</ele>
        <time>2021-08-21T05:59:07Z</time>
      </trkpt>
      <trkpt lat="42.7365170" lon="-5.4747710">
        <ele>1110.0</ele>
        <time>2021-08-21T05:59:08Z</time>
      </trkpt>
      <trkpt lat="42.7365410" lon="-5.4747550">
        <ele>1110.0</ele>
        <time>2021-08-21T05:59:09Z</time>
      </trkpt>
      <trkpt lat="42.7365650" lon="-5.4747390">
        <ele>1110.0</ele>
        <time>2021-08-21T05:59:10Z</time>
      </trkpt>
      <trkpt lat="42.7365970" lon="-5.4747150">
        <ele>1110.0</ele>
        <time>2021-08-21T05:59:11Z</time>
      </trkpt>
      <trkpt lat="42.7366070" lon="-5.4747070">
        <ele>1110.0</ele>
        <time>2021-08-21T05:59:12Z</time>
      </trkpt>
      <trkpt lat="42.7366300" lon="-5.4746900">
        <ele>1110.0</ele>
        <time>2021-08-21T05:59:13Z</time>
      </trkpt>
      <trkpt lat="42.7366520" lon="-5.4746770">
        <ele>1110.0</ele>
        <time>2021-08-21T05:59:14Z</time>
      </trkpt>
      <trkpt lat="42.7366740" lon="-5.4746630">
        <ele>1110.0</ele>
        <time>2021-08-21T05:59:15Z</time>
      </trkpt>
      <trkpt lat="42.7366960" lon="-5.4746510">
        <ele>1110.0</ele>
        <time>2021-08-21T05:59:16Z</time>
      </trkpt>
      <trkpt lat="42.7367200" lon="-5.4746370">
        <ele>1110.0</ele>
        <time>2021-08-21T05:59:17Z</time>
      </trkpt>
      <trkpt lat="42.7367420" lon="-5.4746240">
        <ele>1111.0</ele>
        <time>2021-08-21T05:59:18Z</time>
      </trkpt>
      <trkpt lat="42.7367650" lon="-5.4746100">
        <ele>1111.0</ele>
        <time>2021-08-21T05:59:19Z</time>
      </trkpt>
      <trkpt lat="42.7367880" lon="-5.4745930">
        <ele>1111.0</ele>
        <time>2021-08-21T05:59:20Z</time>
      </trkpt>
      <trkpt lat="42.7368410" lon="-5.4745740">
        <ele>1111.0</ele>
        <time>2021-08-21T05:59:21Z</time>
      </trkpt>
      <trkpt lat="42.7368830" lon="-5.4745630">
        <ele>1111.0</ele>
        <time>2021-08-21T05:59:23Z</time>
      </trkpt>
      <trkpt lat="42.7368970" lon="-5.4745600">
        <ele>1111.0</ele>
        <time>2021-08-21T05:59:24Z</time>
      </trkpt>
      <trkpt lat="42.7369220" lon="-5.4745550">
        <ele>1111.0</ele>
        <time>2021-08-21T05:59:25Z</time>
      </trkpt>
      <trkpt lat="42.7369470" lon="-5.4745510">
        <ele>1111.0</ele>
        <time>2021-08-21T05:59:26Z</time>
      </trkpt>
      <trkpt lat="42.7369750" lon="-5.4745470">
        <ele>1111.0</ele>
        <time>2021-08-21T05:59:27Z</time>
      </trkpt>
      <trkpt lat="42.7370020" lon="-5.4745430">
        <ele>1112.0</ele>
        <time>2021-08-21T05:59:28Z</time>
      </trkpt>
      <trkpt lat="42.7370300" lon="-5.4745410">
        <ele>1112.0</ele>
        <time>2021-08-21T05:59:29Z</time>
      </trkpt>
      <trkpt lat="42.7370730" lon="-5.4745430">
        <ele>1112.0</ele>
        <time>2021-08-21T05:59:30Z</time>
      </trkpt>
      <trkpt lat="42.7370870" lon="-5.4745440">
        <ele>1112.0</ele>
        <time>2021-08-21T05:59:31Z</time>
      </trkpt>
      <trkpt lat="42.7371160" lon="-5.4745450">
        <ele>1112.0</ele>
        <time>2021-08-21T05:59:32Z</time>
      </trkpt>
      <trkpt lat="42.7371430" lon="-5.4745450">
        <ele>1112.0</ele>
        <time>2021-08-21T05:59:33Z</time>
      </trkpt>
      <trkpt lat="42.7371690" lon="-5.4745450">
        <ele>1112.0</ele>
        <time>2021-08-21T05:59:34Z</time>
      </trkpt>
      <trkpt lat="42.7371960" lon="-5.4745420">
        <ele>1112.0</ele>
        <time>2021-08-21T05:59:35Z</time>
      </trkpt>
      <trkpt lat="42.7372220" lon="-5.4745410">
        <ele>1112.0</ele>
        <time>2021-08-21T05:59:36Z</time>
      </trkpt>
      <trkpt lat="42.7372470" lon="-5.4745420">
        <ele>1112.0</ele>
        <time>2021-08-21T05:59:37Z</time>
      </trkpt>
      <trkpt lat="42.7372720" lon="-5.4745440">
        <ele>1112.0</ele>
        <time>2021-08-21T05:59:38Z</time>
      </trkpt>
      <trkpt lat="42.7372950" lon="-5.4745490">
        <ele>1112.0</ele>
        <time>2021-08-21T05:59:39Z</time>
      </trkpt>
      <trkpt lat="42.7373190" lon="-5.4745560">
        <ele>1112.0</ele>
        <time>2021-08-21T05:59:40Z</time>
      </trkpt>
      <trkpt lat="42.7373540" lon="-5.4745620">
        <ele>1112.0</ele>
        <time>2021-08-21T05:59:41Z</time>
      </trkpt>
      <trkpt lat="42.7373650" lon="-5.4745640">
        <ele>1111.0</ele>
        <time>2021-08-21T05:59:42Z</time>
      </trkpt>
      <trkpt lat="42.7373900" lon="-5.4745690">
        <ele>1111.0</ele>
        <time>2021-08-21T05:59:43Z</time>
      </trkpt>
      <trkpt lat="42.7374180" lon="-5.4745740">
        <ele>1111.0</ele>
        <time>2021-08-21T05:59:44Z</time>
      </trkpt>
      <trkpt lat="42.7374440" lon="-5.4745780">
        <ele>1111.0</ele>
        <time>2021-08-21T05:59:45Z</time>
      </trkpt>
      <trkpt lat="42.7374710" lon="-5.4745820">
        <ele>1111.0</ele>
        <time>2021-08-21T05:59:46Z</time>
      </trkpt>
      <trkpt lat="42.7374990" lon="-5.4745860">
        <ele>1111.0</ele>
        <time>2021-08-21T05:59:47Z</time>
      </trkpt>
      <trkpt lat="42.7375280" lon="-5.4745870">
        <ele>1111.0</ele>
        <time>2021-08-21T05:59:48Z</time>
      </trkpt>
      <trkpt lat="42.7375710" lon="-5.4745850">
        <ele>1111.0</ele>
        <time>2021-08-21T05:59:49Z</time>
      </trkpt>
      <trkpt lat="42.7375850" lon="-5.4745840">
        <ele>1111.0</ele>
        <time>2021-08-21T05:59:50Z</time>
      </trkpt>
      <trkpt lat="42.7376140" lon="-5.4745820">
        <ele>1111.0</ele>
        <time>2021-08-21T05:59:51Z</time>
      </trkpt>
      <trkpt lat="42.7376410" lon="-5.4745800">
        <ele>1111.0</ele>
        <time>2021-08-21T05:59:52Z</time>
      </trkpt>
      <trkpt lat="42.7376700" lon="-5.4745770">
        <ele>1111.0</ele>
        <time>2021-08-21T05:59:53Z</time>
      </trkpt>
      <trkpt lat="42.7376990" lon="-5.4745760">
        <ele>1111.0</ele>
        <time>2021-08-21T05:59:54Z</time>
      </trkpt>
      <trkpt lat="42.7377280" lon="-5.4745750">
        <ele>1111.0</ele>
        <time>2021-08-21T05:59:55Z</time>
      </trkpt>
      <trkpt lat="42.7377580" lon="-5.4745750">
        <ele>1111.0</ele>
        <time>2021-08-21T05:59:56Z</time>
      </trkpt>
      <trkpt lat="42.7377880" lon="-5.4745730">
        <ele>1111.0</ele>
        <time>2021-08-21T05:59:57Z</time>
      </trkpt>
      <trkpt lat="42.7378170" lon="-5.4745720">
        <ele>1111.0</ele>
        <time>2021-08-21T05:59:58Z</time>
      </trkpt>
      <trkpt lat="42.7378450" lon="-5.4745680">
        <ele>1111.0</ele>
        <time>2021-08-21T05:59:59Z</time>
      </trkpt>
      <trkpt lat="42.7378750" lon="-5.4745630">
        <ele>1111.0</ele>
        <time>2021-08-21T06:00:00Z</time>
      </trkpt>
      <trkpt lat="42.7379030" lon="-5.4745570">
        <ele>1111.0</ele>
        <time>2021-08-21T06:00:01Z</time>
      </trkpt>
      <trkpt lat="42.7379310" lon="-5.4745520">
        <ele>1111.0</ele>
        <time>2021-08-21T06:00:02Z</time>
      </trkpt>
      <trkpt lat="42.7379570" lon="-5.4745480">
        <ele>1111.0</ele>
        <time>2021-08-21T06:00:03Z</time>
      </trkpt>
      <trkpt lat="42.7379840" lon="-5.4745450">
        <ele>1111.0</ele>
        <time>2021-08-21T06:00:04Z</time>
      </trkpt>
      <trkpt lat="42.7380090" lon="-5.4745460">
        <ele>1111.0</ele>
        <time>2021-08-21T06:00:05Z</time>
      </trkpt>
      <trkpt lat="42.7380350" lon="-5.4745440">
        <ele>1111.0</ele>
        <time>2021-08-21T06:00:06Z</time>
      </trkpt>
      <trkpt lat="42.7380630" lon="-5.4745390">
        <ele>1112.0</ele>
        <time>2021-08-21T06:00:07Z</time>
      </trkpt>
      <trkpt lat="42.7381040" lon="-5.4745320">
        <ele>1112.0</ele>
        <time>2021-08-21T06:00:08Z</time>
      </trkpt>
      <trkpt lat="42.7381170" lon="-5.4745300">
        <ele>1112.0</ele>
        <time>2021-08-21T06:00:09Z</time>
      </trkpt>
      <trkpt lat="42.7381440" lon="-5.4745240">
        <ele>1112.0</ele>
        <time>2021-08-21T06:00:10Z</time>
      </trkpt>
      <trkpt lat="42.7381830" lon="-5.4745160">
        <ele>1112.0</ele>
        <time>2021-08-21T06:00:11Z</time>
      </trkpt>
      <trkpt lat="42.7381950" lon="-5.4745120">
        <ele>1112.0</ele>
        <time>2021-08-21T06:00:12Z</time>
      </trkpt>
      <trkpt lat="42.7382220" lon="-5.4745070">
        <ele>1112.0</ele>
        <time>2021-08-21T06:00:13Z</time>
      </trkpt>
      <trkpt lat="42.7382480" lon="-5.4744980">
        <ele>1112.0</ele>
        <time>2021-08-21T06:00:14Z</time>
      </trkpt>
      <trkpt lat="42.7382770" lon="-5.4744900">
        <ele>1112.0</ele>
        <time>2021-08-21T06:00:15Z</time>
      </trkpt>
      <trkpt lat="42.7383050" lon="-5.4744810">
        <ele>1112.0</ele>
        <time>2021-08-21T06:00:16Z</time>
      </trkpt>
      <trkpt lat="42.7383450" lon="-5.4744620">
        <ele>1112.0</ele>
        <time>2021-08-21T06:00:17Z</time>
      </trkpt>
      <trkpt lat="42.7383560" lon="-5.4744550">
        <ele>1112.0</ele>
        <time>2021-08-21T06:00:18Z</time>
      </trkpt>
      <trkpt lat="42.7383810" lon="-5.4744430">
        <ele>1112.0</ele>
        <time>2021-08-21T06:00:19Z</time>
      </trkpt>
      <trkpt lat="42.7384060" lon="-5.4744250">
        <ele>1112.0</ele>
        <time>2021-08-21T06:00:20Z</time>
      </trkpt>
      <trkpt lat="42.7384350" lon="-5.4744050">
        <ele>1112.0</ele>
        <time>2021-08-21T06:00:21Z</time>
      </trkpt>
      <trkpt lat="42.7384590" lon="-5.4743860">
        <ele>1112.0</ele>
        <time>2021-08-21T06:00:22Z</time>
      </trkpt>
      <trkpt lat="42.7384790" lon="-5.4743660">
        <ele>1112.0</ele>
        <time>2021-08-21T06:00:23Z</time>
      </trkpt>
      <trkpt lat="42.7384990" lon="-5.4743460">
        <ele>1112.0</ele>
        <time>2021-08-21T06:00:24Z</time>
      </trkpt>
      <trkpt lat="42.7385200" lon="-5.4743260">
        <ele>1112.0</ele>
        <time>2021-08-21T06:00:25Z</time>
      </trkpt>
      <trkpt lat="42.7385390" lon="-5.4743060">
        <ele>1112.0</ele>
        <time>2021-08-21T06:00:26Z</time>
      </trkpt>
      <trkpt lat="42.7385600" lon="-5.4742830">
        <ele>1112.0</ele>
        <time>2021-08-21T06:00:27Z</time>
      </trkpt>
      <trkpt lat="42.7385600" lon="-5.4742830">
        <ele>1112.0</ele>
        <time>2021-08-21T06:00:28Z</time>
      </trkpt>
      <trkpt lat="42.7385980" lon="-5.4742300">
        <ele>1112.0</ele>
        <time>2021-08-21T06:00:29Z</time>
      </trkpt>
      <trkpt lat="42.7386170" lon="-5.4742070">
        <ele>1113.0</ele>
        <time>2021-08-21T06:00:30Z</time>
      </trkpt>
      <trkpt lat="42.7386370" lon="-5.4741820">
        <ele>1113.0</ele>
        <time>2021-08-21T06:00:31Z</time>
      </trkpt>
      <trkpt lat="42.7386570" lon="-5.4741550">
        <ele>1113.0</ele>
        <time>2021-08-21T06:00:32Z</time>
      </trkpt>
      <trkpt lat="42.7386770" lon="-5.4741240">
        <ele>1113.0</ele>
        <time>2021-08-21T06:00:33Z</time>
      </trkpt>
      <trkpt lat="42.7386950" lon="-5.4740970">
        <ele>1113.0</ele>
        <time>2021-08-21T06:00:34Z</time>
      </trkpt>
      <trkpt lat="42.7387120" lon="-5.4740710">
        <ele>1113.0</ele>
        <time>2021-08-21T06:00:35Z</time>
      </trkpt>
      <trkpt lat="42.7387420" lon="-5.4740300">
        <ele>1113.0</ele>
        <time>2021-08-21T06:00:36Z</time>
      </trkpt>
      <trkpt lat="42.7387500" lon="-5.4740150">
        <ele>1113.0</ele>
        <time>2021-08-21T06:00:37Z</time>
      </trkpt>
      <trkpt lat="42.7387680" lon="-5.4739880">
        <ele>1113.0</ele>
        <time>2021-08-21T06:00:38Z</time>
      </trkpt>
      <trkpt lat="42.7387860" lon="-5.4739580">
        <ele>1113.0</ele>
        <time>2021-08-21T06:00:39Z</time>
      </trkpt>
      <trkpt lat="42.7388060" lon="-5.4739310">
        <ele>1113.0</ele>
        <time>2021-08-21T06:00:40Z</time>
      </trkpt>
      <trkpt lat="42.7388230" lon="-5.4739040">
        <ele>1113.0</ele>
        <time>2021-08-21T06:00:41Z</time>
      </trkpt>
      <trkpt lat="42.7388400" lon="-5.4738780">
        <ele>1113.0</ele>
        <time>2021-08-21T06:00:42Z</time>
      </trkpt>
      <trkpt lat="42.7388560" lon="-5.4738520">
        <ele>1113.0</ele>
        <time>2021-08-21T06:00:43Z</time>
      </trkpt>
      <trkpt lat="42.7388850" lon="-5.4738090">
        <ele>1113.0</ele>
        <time>2021-08-21T06:00:44Z</time>
      </trkpt>
      <trkpt lat="42.7388940" lon="-5.4737950">
        <ele>1113.0</ele>
        <time>2021-08-21T06:00:45Z</time>
      </trkpt>
      <trkpt lat="42.7389220" lon="-5.4737520">
        <ele>1113.0</ele>
        <time>2021-08-21T06:00:46Z</time>
      </trkpt>
      <trkpt lat="42.7389310" lon="-5.4737370">
        <ele>1113.0</ele>
        <time>2021-08-21T06:00:47Z</time>
      </trkpt>
      <trkpt lat="42.7389590" lon="-5.4736930">
        <ele>1113.0</ele>
        <time>2021-08-21T06:00:48Z</time>
      </trkpt>
      <trkpt lat="42.7389670" lon="-5.4736790">
        <ele>1113.0</ele>
        <time>2021-08-21T06:00:49Z</time>
      </trkpt>
      <trkpt lat="42.7389850" lon="-5.4736530">
        <ele>1113.0</ele>
        <time>2021-08-21T06:00:50Z</time>
      </trkpt>
      <trkpt lat="42.7390030" lon="-5.4736250">
        <ele>1113.0</ele>
        <time>2021-08-21T06:00:51Z</time>
      </trkpt>
      <trkpt lat="42.7390180" lon="-5.4735960">
        <ele>1113.0</ele>
        <time>2021-08-21T06:00:52Z</time>
      </trkpt>
      <trkpt lat="42.7390360" lon="-5.4735710">
        <ele>1113.0</ele>
        <time>2021-08-21T06:00:53Z</time>
      </trkpt>
      <trkpt lat="42.7390530" lon="-5.4735460">
        <ele>1113.0</ele>
        <time>2021-08-21T06:00:54Z</time>
      </trkpt>
      <trkpt lat="42.7390690" lon="-5.4735170">
        <ele>1113.0</ele>
        <time>2021-08-21T06:00:55Z</time>
      </trkpt>
      <trkpt lat="42.7390850" lon="-5.4734880">
        <ele>1113.0</ele>
        <time>2021-08-21T06:00:56Z</time>
      </trkpt>
      <trkpt lat="42.7391010" lon="-5.4734600">
        <ele>1113.0</ele>
        <time>2021-08-21T06:00:57Z</time>
      </trkpt>
      <trkpt lat="42.7391170" lon="-5.4734320">
        <ele>1113.0</ele>
        <time>2021-08-21T06:00:58Z</time>
      </trkpt>
      <trkpt lat="42.7391320" lon="-5.4734030">
        <ele>1113.0</ele>
        <time>2021-08-21T06:00:59Z</time>
      </trkpt>
      <trkpt lat="42.7391470" lon="-5.4733760">
        <ele>1113.0</ele>
        <time>2021-08-21T06:01:00Z</time>
      </trkpt>
      <trkpt lat="42.7391600" lon="-5.4733500">
        <ele>1113.0</ele>
        <time>2021-08-21T06:01:01Z</time>
      </trkpt>
      <trkpt lat="42.7391750" lon="-5.4733230">
        <ele>1113.0</ele>
        <time>2021-08-21T06:01:02Z</time>
      </trkpt>
      <trkpt lat="42.7391900" lon="-5.4732960">
        <ele>1113.0</ele>
        <time>2021-08-21T06:01:03Z</time>
      </trkpt>
      <trkpt lat="42.7392060" lon="-5.4732690">
        <ele>1113.0</ele>
        <time>2021-08-21T06:01:04Z</time>
      </trkpt>
      <trkpt lat="42.7392310" lon="-5.4732270">
        <ele>1113.0</ele>
        <time>2021-08-21T06:01:05Z</time>
      </trkpt>
      <trkpt lat="42.7392410" lon="-5.4732130">
        <ele>1113.0</ele>
        <time>2021-08-21T06:01:06Z</time>
      </trkpt>
      <trkpt lat="42.7392610" lon="-5.4731840">
        <ele>1113.0</ele>
        <time>2021-08-21T06:01:07Z</time>
      </trkpt>
      <trkpt lat="42.7392800" lon="-5.4731560">
        <ele>1113.0</ele>
        <time>2021-08-21T06:01:08Z</time>
      </trkpt>
      <trkpt lat="42.7392980" lon="-5.4731260">
        <ele>1113.0</ele>
        <time>2021-08-21T06:01:09Z</time>
      </trkpt>
      <trkpt lat="42.7393190" lon="-5.4731010">
        <ele>1113.0</ele>
        <time>2021-08-21T06:01:10Z</time>
      </trkpt>
      <trkpt lat="42.7393390" lon="-5.4730760">
        <ele>1112.0</ele>
        <time>2021-08-21T06:01:11Z</time>
      </trkpt>
      <trkpt lat="42.7393590" lon="-5.4730500">
        <ele>1112.0</ele>
        <time>2021-08-21T06:01:12Z</time>
      </trkpt>
      <trkpt lat="42.7393890" lon="-5.4730090">
        <ele>1112.0</ele>
        <time>2021-08-21T06:01:13Z</time>
      </trkpt>
      <trkpt lat="42.7393980" lon="-5.4729950">
        <ele>1112.0</ele>
        <time>2021-08-21T06:01:14Z</time>
      </trkpt>
      <trkpt lat="42.7394180" lon="-5.4729650">
        <ele>1112.0</ele>
        <time>2021-08-21T06:01:15Z</time>
      </trkpt>
      <trkpt lat="42.7394360" lon="-5.4729360">
        <ele>1112.0</ele>
        <time>2021-08-21T06:01:16Z</time>
      </trkpt>
      <trkpt lat="42.7394540" lon="-5.4729100">
        <ele>1112.0</ele>
        <time>2021-08-21T06:01:17Z</time>
      </trkpt>
      <trkpt lat="42.7394790" lon="-5.4728760">
        <ele>1112.0</ele>
        <time>2021-08-21T06:01:18Z</time>
      </trkpt>
      <trkpt lat="42.7394870" lon="-5.4728640">
        <ele>1112.0</ele>
        <time>2021-08-21T06:01:19Z</time>
      </trkpt>
      <trkpt lat="42.7395060" lon="-5.4728440">
        <ele>1112.0</ele>
        <time>2021-08-21T06:01:20Z</time>
      </trkpt>
      <trkpt lat="42.7395250" lon="-5.4728250">
        <ele>1112.0</ele>
        <time>2021-08-21T06:01:21Z</time>
      </trkpt>
      <trkpt lat="42.7395440" lon="-5.4728080">
        <ele>1112.0</ele>
        <time>2021-08-21T06:01:22Z</time>
      </trkpt>
      <trkpt lat="42.7395610" lon="-5.4727900">
        <ele>1112.0</ele>
        <time>2021-08-21T06:01:23Z</time>
      </trkpt>
      <trkpt lat="42.7395910" lon="-5.4727630">
        <ele>1112.0</ele>
        <time>2021-08-21T06:01:24Z</time>
      </trkpt>
      <trkpt lat="42.7396000" lon="-5.4727540">
        <ele>1112.0</ele>
        <time>2021-08-21T06:01:25Z</time>
      </trkpt>
      <trkpt lat="42.7396210" lon="-5.4727380">
        <ele>1112.0</ele>
        <time>2021-08-21T06:01:26Z</time>
      </trkpt>
      <trkpt lat="42.7396390" lon="-5.4727250">
        <ele>1112.0</ele>
        <time>2021-08-21T06:01:27Z</time>
      </trkpt>
      <trkpt lat="42.7396600" lon="-5.4727090">
        <ele>1112.0</ele>
        <time>2021-08-21T06:01:28Z</time>
      </trkpt>
      <trkpt lat="42.7396790" lon="-5.4726940">
        <ele>1112.0</ele>
        <time>2021-08-21T06:01:29Z</time>
      </trkpt>
      <trkpt lat="42.7397000" lon="-5.4726790">
        <ele>1112.0</ele>
        <time>2021-08-21T06:01:30Z</time>
      </trkpt>
      <trkpt lat="42.7397190" lon="-5.4726660">
        <ele>1112.0</ele>
        <time>2021-08-21T06:01:31Z</time>
      </trkpt>
      <trkpt lat="42.7397400" lon="-5.4726540">
        <ele>1113.0</ele>
        <time>2021-08-21T06:01:32Z</time>
      </trkpt>
      <trkpt lat="42.7397590" lon="-5.4726430">
        <ele>1113.0</ele>
        <time>2021-08-21T06:01:33Z</time>
      </trkpt>
      <trkpt lat="42.7397770" lon="-5.4726320">
        <ele>1113.0</ele>
        <time>2021-08-21T06:01:34Z</time>
      </trkpt>
      <trkpt lat="42.7398050" lon="-5.4726100">
        <ele>1113.0</ele>
        <time>2021-08-21T06:01:35Z</time>
      </trkpt>
      <trkpt lat="42.7398150" lon="-5.4726020">
        <ele>1113.0</ele>
        <time>2021-08-21T06:01:36Z</time>
      </trkpt>
      <trkpt lat="42.7398340" lon="-5.4725910">
        <ele>1113.0</ele>
        <time>2021-08-21T06:01:37Z</time>
      </trkpt>
      <trkpt lat="42.7398550" lon="-5.4725800">
        <ele>1113.0</ele>
        <time>2021-08-21T06:01:38Z</time>
      </trkpt>
      <trkpt lat="42.7398760" lon="-5.4725700">
        <ele>1113.0</ele>
        <time>2021-08-21T06:01:39Z</time>
      </trkpt>
      <trkpt lat="42.7398980" lon="-5.4725630">
        <ele>1113.0</ele>
        <time>2021-08-21T06:01:40Z</time>
      </trkpt>
      <trkpt lat="42.7399200" lon="-5.4725520">
        <ele>1113.0</ele>
        <time>2021-08-21T06:01:41Z</time>
      </trkpt>
      <trkpt lat="42.7399430" lon="-5.4725410">
        <ele>1113.0</ele>
        <time>2021-08-21T06:01:42Z</time>
      </trkpt>
      <trkpt lat="42.7399750" lon="-5.4725230">
        <ele>1113.0</ele>
        <time>2021-08-21T06:01:43Z</time>
      </trkpt>
      <trkpt lat="42.7399850" lon="-5.4725160">
        <ele>1113.0</ele>
        <time>2021-08-21T06:01:44Z</time>
      </trkpt>
      <trkpt lat="42.7400060" lon="-5.4725010">
        <ele>1113.0</ele>
        <time>2021-08-21T06:01:45Z</time>
      </trkpt>
      <trkpt lat="42.7400250" lon="-5.4724850">
        <ele>1114.0</ele>
        <time>2021-08-21T06:01:46Z</time>
      </trkpt>
      <trkpt lat="42.7400430" lon="-5.4724700">
        <ele>1114.0</ele>
        <time>2021-08-21T06:01:47Z</time>
      </trkpt>
      <trkpt lat="42.7400600" lon="-5.4724570">
        <ele>1114.0</ele>
        <time>2021-08-21T06:01:48Z</time>
      </trkpt>
      <trkpt lat="42.7400790" lon="-5.4724440">
        <ele>1114.0</ele>
        <time>2021-08-21T06:01:49Z</time>
      </trkpt>
      <trkpt lat="42.7400970" lon="-5.4724330">
        <ele>1114.0</ele>
        <time>2021-08-21T06:01:50Z</time>
      </trkpt>
      <trkpt lat="42.7401180" lon="-5.4724180">
        <ele>1114.0</ele>
        <time>2021-08-21T06:01:51Z</time>
      </trkpt>
      <trkpt lat="42.7401390" lon="-5.4724060">
        <ele>1114.0</ele>
        <time>2021-08-21T06:01:52Z</time>
      </trkpt>
      <trkpt lat="42.7401600" lon="-5.4723930">
        <ele>1114.0</ele>
        <time>2021-08-21T06:01:53Z</time>
      </trkpt>
      <trkpt lat="42.7401810" lon="-5.4723820">
        <ele>1114.0</ele>
        <time>2021-08-21T06:01:54Z</time>
      </trkpt>
      <trkpt lat="42.7402020" lon="-5.4723700">
        <ele>1114.0</ele>
        <time>2021-08-21T06:01:55Z</time>
      </trkpt>
      <trkpt lat="42.7402250" lon="-5.4723560">
        <ele>1114.0</ele>
        <time>2021-08-21T06:01:56Z</time>
      </trkpt>
      <trkpt lat="42.7402580" lon="-5.4723370">
        <ele>1114.0</ele>
        <time>2021-08-21T06:01:57Z</time>
      </trkpt>
      <trkpt lat="42.7402680" lon="-5.4723300">
        <ele>1114.0</ele>
        <time>2021-08-21T06:01:58Z</time>
      </trkpt>
      <trkpt lat="42.7402900" lon="-5.4723150">
        <ele>1114.0</ele>
        <time>2021-08-21T06:01:59Z</time>
      </trkpt>
      <trkpt lat="42.7403110" lon="-5.4722970">
        <ele>1114.0</ele>
        <time>2021-08-21T06:02:00Z</time>
      </trkpt>
      <trkpt lat="42.7403320" lon="-5.4722790">
        <ele>1114.0</ele>
        <time>2021-08-21T06:02:01Z</time>
      </trkpt>
      <trkpt lat="42.7403630" lon="-5.4722590">
        <ele>1114.0</ele>
        <time>2021-08-21T06:02:02Z</time>
      </trkpt>
      <trkpt lat="42.7403740" lon="-5.4722540">
        <ele>1115.0</ele>
        <time>2021-08-21T06:02:03Z</time>
      </trkpt>
      <trkpt lat="42.7403940" lon="-5.4722440">
        <ele>1115.0</ele>
        <time>2021-08-21T06:02:04Z</time>
      </trkpt>
      <trkpt lat="42.7404160" lon="-5.4722360">
        <ele>1115.0</ele>
        <time>2021-08-21T06:02:05Z</time>
      </trkpt>
      <trkpt lat="42.7404360" lon="-5.4722260">
        <ele>1115.0</ele>
        <time>2021-08-21T06:02:06Z</time>
      </trkpt>
      <trkpt lat="42.7404670" lon="-5.4722070">
        <ele>1115.0</ele>
        <time>2021-08-21T06:02:07Z</time>
      </trkpt>
      <trkpt lat="42.7404780" lon="-5.4721990">
        <ele>1115.0</ele>
        <time>2021-08-21T06:02:08Z</time>
      </trkpt>
      <trkpt lat="42.7405000" lon="-5.4721830">
        <ele>1115.0</ele>
        <time>2021-08-21T06:02:09Z</time>
      </trkpt>
      <trkpt lat="42.7405200" lon="-5.4721700">
        <ele>1115.0</ele>
        <time>2021-08-21T06:02:10Z</time>
      </trkpt>
      <trkpt lat="42.7405400" lon="-5.4721560">
        <ele>1115.0</ele>
        <time>2021-08-21T06:02:11Z</time>
      </trkpt>
      <trkpt lat="42.7405600" lon="-5.4721420">
        <ele>1116.0</ele>
        <time>2021-08-21T06:02:12Z</time>
      </trkpt>
      <trkpt lat="42.7405820" lon="-5.4721290">
        <ele>1116.0</ele>
        <time>2021-08-21T06:02:13Z</time>
      </trkpt>
      <trkpt lat="42.7406050" lon="-5.4721140">
        <ele>1116.0</ele>
        <time>2021-08-21T06:02:14Z</time>
      </trkpt>
      <trkpt lat="42.7406260" lon="-5.4721020">
        <ele>1116.0</ele>
        <time>2021-08-21T06:02:15Z</time>
      </trkpt>
      <trkpt lat="42.7406480" lon="-5.4720880">
        <ele>1116.0</ele>
        <time>2021-08-21T06:02:16Z</time>
      </trkpt>
      <trkpt lat="42.7406690" lon="-5.4720750">
        <ele>1116.0</ele>
        <time>2021-08-21T06:02:17Z</time>
      </trkpt>
      <trkpt lat="42.7407010" lon="-5.4720570">
        <ele>1116.0</ele>
        <time>2021-08-21T06:02:18Z</time>
      </trkpt>
      <trkpt lat="42.7407120" lon="-5.4720510">
        <ele>1117.0</ele>
        <time>2021-08-21T06:02:19Z</time>
      </trkpt>
      <trkpt lat="42.7407360" lon="-5.4720380">
        <ele>1117.0</ele>
        <time>2021-08-21T06:02:20Z</time>
      </trkpt>
      <trkpt lat="42.7407680" lon="-5.4720200">
        <ele>1117.0</ele>
        <time>2021-08-21T06:02:21Z</time>
      </trkpt>
      <trkpt lat="42.7407790" lon="-5.4720130">
        <ele>1117.0</ele>
        <time>2021-08-21T06:02:22Z</time>
      </trkpt>
      <trkpt lat="42.7408020" lon="-5.4719990">
        <ele>1117.0</ele>
        <time>2021-08-21T06:02:23Z</time>
      </trkpt>
      <trkpt lat="42.7408250" lon="-5.4719860">
        <ele>1117.0</ele>
        <time>2021-08-21T06:02:24Z</time>
      </trkpt>
      <trkpt lat="42.7408490" lon="-5.4719740">
        <ele>1118.0</ele>
        <time>2021-08-21T06:02:25Z</time>
      </trkpt>
      <trkpt lat="42.7408730" lon="-5.4719600">
        <ele>1118.0</ele>
        <time>2021-08-21T06:02:26Z</time>
      </trkpt>
      <trkpt lat="42.7408960" lon="-5.4719480">
        <ele>1118.0</ele>
        <time>2021-08-21T06:02:27Z</time>
      </trkpt>
      <trkpt lat="42.7409190" lon="-5.4719350">
        <ele>1118.0</ele>
        <time>2021-08-21T06:02:28Z</time>
      </trkpt>
      <trkpt lat="42.7409430" lon="-5.4719230">
        <ele>1118.0</ele>
        <time>2021-08-21T06:02:29Z</time>
      </trkpt>
      <trkpt lat="42.7409680" lon="-5.4719110">
        <ele>1118.0</ele>
        <time>2021-08-21T06:02:30Z</time>
      </trkpt>
      <trkpt lat="42.7410020" lon="-5.4718950">
        <ele>1118.0</ele>
        <time>2021-08-21T06:02:31Z</time>
      </trkpt>
      <trkpt lat="42.7410140" lon="-5.4718900">
        <ele>1118.0</ele>
        <time>2021-08-21T06:02:32Z</time>
      </trkpt>
      <trkpt lat="42.7410380" lon="-5.4718810">
        <ele>1118.0</ele>
        <time>2021-08-21T06:02:33Z</time>
      </trkpt>
      <trkpt lat="42.7410600" lon="-5.4718710">
        <ele>1118.0</ele>
        <time>2021-08-21T06:02:34Z</time>
      </trkpt>
      <trkpt lat="42.7410850" lon="-5.4718570">
        <ele>1119.0</ele>
        <time>2021-08-21T06:02:35Z</time>
      </trkpt>
      <trkpt lat="42.7411070" lon="-5.4718460">
        <ele>1119.0</ele>
        <time>2021-08-21T06:02:36Z</time>
      </trkpt>
      <trkpt lat="42.7411320" lon="-5.4718340">
        <ele>1119.0</ele>
        <time>2021-08-21T06:02:37Z</time>
      </trkpt>
      <trkpt lat="42.7411720" lon="-5.4718220">
        <ele>1119.0</ele>
        <time>2021-08-21T06:02:38Z</time>
      </trkpt>
      <trkpt lat="42.7411860" lon="-5.4718170">
        <ele>1119.0</ele>
        <time>2021-08-21T06:02:39Z</time>
      </trkpt>
      <trkpt lat="42.7412120" lon="-5.4718110">
        <ele>1119.0</ele>
        <time>2021-08-21T06:02:40Z</time>
      </trkpt>
      <trkpt lat="42.7412120" lon="-5.4718110">
        <ele>1119.0</ele>
        <time>2021-08-21T06:02:41Z</time>
      </trkpt>
      <trkpt lat="42.7412670" lon="-5.4718080">
        <ele>1119.0</ele>
        <time>2021-08-21T06:02:42Z</time>
      </trkpt>
      <trkpt lat="42.7412940" lon="-5.4718030">
        <ele>1120.0</ele>
        <time>2021-08-21T06:02:43Z</time>
      </trkpt>
      <trkpt lat="42.7413220" lon="-5.4717990">
        <ele>1120.0</ele>
        <time>2021-08-21T06:02:44Z</time>
      </trkpt>
      <trkpt lat="42.7413490" lon="-5.4717930">
        <ele>1120.0</ele>
        <time>2021-08-21T06:02:45Z</time>
      </trkpt>
      <trkpt lat="42.7413740" lon="-5.4717870">
        <ele>1120.0</ele>
        <time>2021-08-21T06:02:46Z</time>
      </trkpt>
      <trkpt lat="42.7413990" lon="-5.4717830">
        <ele>1120.0</ele>
        <time>2021-08-21T06:02:47Z</time>
      </trkpt>
      <trkpt lat="42.7414250" lon="-5.4717780">
        <ele>1120.0</ele>
        <time>2021-08-21T06:02:48Z</time>
      </trkpt>
      <trkpt lat="42.7414520" lon="-5.4717760">
        <ele>1120.0</ele>
        <time>2021-08-21T06:02:49Z</time>
      </trkpt>
      <trkpt lat="42.7414790" lon="-5.4717750">
        <ele>1120.0</ele>
        <time>2021-08-21T06:02:50Z</time>
      </trkpt>
      <trkpt lat="42.7415020" lon="-5.4717720">
        <ele>1121.0</ele>
        <time>2021-08-21T06:02:51Z</time>
      </trkpt>
      <trkpt lat="42.7415250" lon="-5.4717670">
        <ele>1121.0</ele>
        <time>2021-08-21T06:02:52Z</time>
      </trkpt>
      <trkpt lat="42.7415520" lon="-5.4717600">
        <ele>1121.0</ele>
        <time>2021-08-21T06:02:53Z</time>
      </trkpt>
      <trkpt lat="42.7415800" lon="-5.4717540">
        <ele>1121.0</ele>
        <time>2021-08-21T06:02:54Z</time>
      </trkpt>
      <trkpt lat="42.7416100" lon="-5.4717450">
        <ele>1121.0</ele>
        <time>2021-08-21T06:02:55Z</time>
      </trkpt>
      <trkpt lat="42.7416420" lon="-5.4717330">
        <ele>1121.0</ele>
        <time>2021-08-21T06:02:56Z</time>
      </trkpt>
      <trkpt lat="42.7416700" lon="-5.4717210">
        <ele>1121.0</ele>
        <time>2021-08-21T06:02:57Z</time>
      </trkpt>
      <trkpt lat="42.7416960" lon="-5.4717090">
        <ele>1121.0</ele>
        <time>2021-08-21T06:02:58Z</time>
      </trkpt>
      <trkpt lat="42.7417210" lon="-5.4716930">
        <ele>1121.0</ele>
        <time>2021-08-21T06:02:59Z</time>
      </trkpt>
      <trkpt lat="42.7417500" lon="-5.4716750">
        <ele>1121.0</ele>
        <time>2021-08-21T06:03:00Z</time>
      </trkpt>
      <trkpt lat="42.7417760" lon="-5.4716590">
        <ele>1121.0</ele>
        <time>2021-08-21T06:03:01Z</time>
      </trkpt>
      <trkpt lat="42.7418030" lon="-5.4716420">
        <ele>1121.0</ele>
        <time>2021-08-21T06:03:02Z</time>
      </trkpt>
      <trkpt lat="42.7418280" lon="-5.4716280">
        <ele>1121.0</ele>
        <time>2021-08-21T06:03:03Z</time>
      </trkpt>
      <trkpt lat="42.7418540" lon="-5.4716120">
        <ele>1121.0</ele>
        <time>2021-08-21T06:03:04Z</time>
      </trkpt>
      <trkpt lat="42.7418780" lon="-5.4715990">
        <ele>1121.0</ele>
        <time>2021-08-21T06:03:05Z</time>
      </trkpt>
      <trkpt lat="42.7419040" lon="-5.4715840">
        <ele>1121.0</ele>
        <time>2021-08-21T06:03:06Z</time>
      </trkpt>
      <trkpt lat="42.7419280" lon="-5.4715680">
        <ele>1121.0</ele>
        <time>2021-08-21T06:03:07Z</time>
      </trkpt>
      <trkpt lat="42.7419500" lon="-5.4715500">
        <ele>1121.0</ele>
        <time>2021-08-21T06:03:08Z</time>
      </trkpt>
      <trkpt lat="42.7419710" lon="-5.4715340">
        <ele>1121.0</ele>
        <time>2021-08-21T06:03:09Z</time>
      </trkpt>
      <trkpt lat="42.7419930" lon="-5.4715200">
        <ele>1121.0</ele>
        <time>2021-08-21T06:03:10Z</time>
      </trkpt>
      <trkpt lat="42.7420160" lon="-5.4715050">
        <ele>1121.0</ele>
        <time>2021-08-21T06:03:11Z</time>
      </trkpt>
      <trkpt lat="42.7420410" lon="-5.4714910">
        <ele>1122.0</ele>
        <time>2021-08-21T06:03:12Z</time>
      </trkpt>
      <trkpt lat="42.7420670" lon="-5.4714780">
        <ele>1122.0</ele>
        <time>2021-08-21T06:03:13Z</time>
      </trkpt>
      <trkpt lat="42.7420940" lon="-5.4714660">
        <ele>1122.0</ele>
        <time>2021-08-21T06:03:14Z</time>
      </trkpt>
      <trkpt lat="42.7421340" lon="-5.4714480">
        <ele>1122.0</ele>
        <time>2021-08-21T06:03:15Z</time>
      </trkpt>
      <trkpt lat="42.7421470" lon="-5.4714420">
        <ele>1122.0</ele>
        <time>2021-08-21T06:03:16Z</time>
      </trkpt>
      <trkpt lat="42.7421730" lon="-5.4714290">
        <ele>1122.0</ele>
        <time>2021-08-21T06:03:17Z</time>
      </trkpt>
      <trkpt lat="42.7422100" lon="-5.4714090">
        <ele>1122.0</ele>
        <time>2021-08-21T06:03:18Z</time>
      </trkpt>
      <trkpt lat="42.7422210" lon="-5.4714010">
        <ele>1122.0</ele>
        <time>2021-08-21T06:03:19Z</time>
      </trkpt>
      <trkpt lat="42.7422440" lon="-5.4713880">
        <ele>1122.0</ele>
        <time>2021-08-21T06:03:20Z</time>
      </trkpt>
      <trkpt lat="42.7422700" lon="-5.4713730">
        <ele>1122.0</ele>
        <time>2021-08-21T06:03:21Z</time>
      </trkpt>
      <trkpt lat="42.7422960" lon="-5.4713540">
        <ele>1122.0</ele>
        <time>2021-08-21T06:03:22Z</time>
      </trkpt>
      <trkpt lat="42.7423210" lon="-5.4713360">
        <ele>1122.0</ele>
        <time>2021-08-21T06:03:23Z</time>
      </trkpt>
      <trkpt lat="42.7423470" lon="-5.4713140">
        <ele>1122.0</ele>
        <time>2021-08-21T06:03:24Z</time>
      </trkpt>
      <trkpt lat="42.7423690" lon="-5.4712960">
        <ele>1122.0</ele>
        <time>2021-08-21T06:03:25Z</time>
      </trkpt>
      <trkpt lat="42.7423930" lon="-5.4712770">
        <ele>1122.0</ele>
        <time>2021-08-21T06:03:26Z</time>
      </trkpt>
      <trkpt lat="42.7424150" lon="-5.4712610">
        <ele>1122.0</ele>
        <time>2021-08-21T06:03:27Z</time>
      </trkpt>
      <trkpt lat="42.7424360" lon="-5.4712420">
        <ele>1122.0</ele>
        <time>2021-08-21T06:03:28Z</time>
      </trkpt>
      <trkpt lat="42.7424570" lon="-5.4712240">
        <ele>1123.0</ele>
        <time>2021-08-21T06:03:29Z</time>
      </trkpt>
      <trkpt lat="42.7424880" lon="-5.4711920">
        <ele>1123.0</ele>
        <time>2021-08-21T06:03:30Z</time>
      </trkpt>
      <trkpt lat="42.7424970" lon="-5.4711810">
        <ele>1123.0</ele>
        <time>2021-08-21T06:03:31Z</time>
      </trkpt>
      <trkpt lat="42.7425170" lon="-5.4711580">
        <ele>1123.0</ele>
        <time>2021-08-21T06:03:32Z</time>
      </trkpt>
      <trkpt lat="42.7425470" lon="-5.4711230">
        <ele>1123.0</ele>
        <time>2021-08-21T06:03:33Z</time>
      </trkpt>
      <trkpt lat="42.7425570" lon="-5.4711110">
        <ele>1123.0</ele>
        <time>2021-08-21T06:03:34Z</time>
      </trkpt>
      <trkpt lat="42.7425740" lon="-5.4710830">
        <ele>1123.0</ele>
        <time>2021-08-21T06:03:35Z</time>
      </trkpt>
      <trkpt lat="42.7425910" lon="-5.4710560">
        <ele>1123.0</ele>
        <time>2021-08-21T06:03:36Z</time>
      </trkpt>
      <trkpt lat="42.7426190" lon="-5.4710160">
        <ele>1123.0</ele>
        <time>2021-08-21T06:03:37Z</time>
      </trkpt>
      <trkpt lat="42.7426290" lon="-5.4710020">
        <ele>1123.0</ele>
        <time>2021-08-21T06:03:38Z</time>
      </trkpt>
      <trkpt lat="42.7426440" lon="-5.4709740">
        <ele>1123.0</ele>
        <time>2021-08-21T06:03:39Z</time>
      </trkpt>
      <trkpt lat="42.7426570" lon="-5.4709470">
        <ele>1123.0</ele>
        <time>2021-08-21T06:03:40Z</time>
      </trkpt>
      <trkpt lat="42.7426690" lon="-5.4709200">
        <ele>1123.0</ele>
        <time>2021-08-21T06:03:41Z</time>
      </trkpt>
      <trkpt lat="42.7426790" lon="-5.4708940">
        <ele>1123.0</ele>
        <time>2021-08-21T06:03:42Z</time>
      </trkpt>
      <trkpt lat="42.7426890" lon="-5.4708710">
        <ele>1123.0</ele>
        <time>2021-08-21T06:03:43Z</time>
      </trkpt>
      <trkpt lat="42.7427060" lon="-5.4708490">
        <ele>1123.0</ele>
        <time>2021-08-21T06:03:44Z</time>
      </trkpt>
      <trkpt lat="42.7427190" lon="-5.4708250">
        <ele>1123.0</ele>
        <time>2021-08-21T06:03:45Z</time>
      </trkpt>
      <trkpt lat="42.7427350" lon="-5.4707980">
        <ele>1123.0</ele>
        <time>2021-08-21T06:03:46Z</time>
      </trkpt>
      <trkpt lat="42.7427510" lon="-5.4707670">
        <ele>1123.0</ele>
        <time>2021-08-21T06:03:47Z</time>
      </trkpt>
      <trkpt lat="42.7427690" lon="-5.4707370">
        <ele>1123.0</ele>
        <time>2021-08-21T06:03:48Z</time>
      </trkpt>
      <trkpt lat="42.7427860" lon="-5.4707080">
        <ele>1123.0</ele>
        <time>2021-08-21T06:03:49Z</time>
      </trkpt>
      <trkpt lat="42.7428050" lon="-5.4706790">
        <ele>1123.0</ele>
        <time>2021-08-21T06:03:50Z</time>
      </trkpt>
      <trkpt lat="42.7428250" lon="-5.4706470">
        <ele>1123.0</ele>
        <time>2021-08-21T06:03:51Z</time>
      </trkpt>
      <trkpt lat="42.7428450" lon="-5.4706140">
        <ele>1123.0</ele>
        <time>2021-08-21T06:03:52Z</time>
      </trkpt>
      <trkpt lat="42.7428690" lon="-5.4705650">
        <ele>1123.0</ele>
        <time>2021-08-21T06:03:53Z</time>
      </trkpt>
      <trkpt lat="42.7428760" lon="-5.4705470">
        <ele>1123.0</ele>
        <time>2021-08-21T06:03:54Z</time>
      </trkpt>
      <trkpt lat="42.7428900" lon="-5.4705120">
        <ele>1123.0</ele>
        <time>2021-08-21T06:03:55Z</time>
      </trkpt>
      <trkpt lat="42.7429150" lon="-5.4704610">
        <ele>1123.0</ele>
        <time>2021-08-21T06:03:56Z</time>
      </trkpt>
      <trkpt lat="42.7429230" lon="-5.4704440">
        <ele>1123.0</ele>
        <time>2021-08-21T06:03:57Z</time>
      </trkpt>
      <trkpt lat="42.7429380" lon="-5.4704110">
        <ele>1123.0</ele>
        <time>2021-08-21T06:03:58Z</time>
      </trkpt>
      <trkpt lat="42.7429550" lon="-5.4703790">
        <ele>1123.0</ele>
        <time>2021-08-21T06:03:59Z</time>
      </trkpt>
      <trkpt lat="42.7429660" lon="-5.4703470">
        <ele>1123.0</ele>
        <time>2021-08-21T06:04:00Z</time>
      </trkpt>
      <trkpt lat="42.7429800" lon="-5.4703130">
        <ele>1123.0</ele>
        <time>2021-08-21T06:04:01Z</time>
      </trkpt>
      <trkpt lat="42.7429920" lon="-5.4702770">
        <ele>1123.0</ele>
        <time>2021-08-21T06:04:02Z</time>
      </trkpt>
      <trkpt lat="42.7430050" lon="-5.4702440">
        <ele>1123.0</ele>
        <time>2021-08-21T06:04:03Z</time>
      </trkpt>
      <trkpt lat="42.7430200" lon="-5.4702120">
        <ele>1123.0</ele>
        <time>2021-08-21T06:04:04Z</time>
      </trkpt>
      <trkpt lat="42.7430330" lon="-5.4701760">
        <ele>1123.0</ele>
        <time>2021-08-21T06:04:05Z</time>
      </trkpt>
      <trkpt lat="42.7430430" lon="-5.4701410">
        <ele>1123.0</ele>
        <time>2021-08-21T06:04:06Z</time>
      </trkpt>
      <trkpt lat="42.7430540" lon="-5.4701080">
        <ele>1123.0</ele>
        <time>2021-08-21T06:04:07Z</time>
      </trkpt>
      <trkpt lat="42.7430680" lon="-5.4700800">
        <ele>1123.0</ele>
        <time>2021-08-21T06:04:08Z</time>
      </trkpt>
      <trkpt lat="42.7430800" lon="-5.4700470">
        <ele>1123.0</ele>
        <time>2021-08-21T06:04:09Z</time>
      </trkpt>
      <trkpt lat="42.7430950" lon="-5.4699950">
        <ele>1123.0</ele>
        <time>2021-08-21T06:04:10Z</time>
      </trkpt>
      <trkpt lat="42.7431000" lon="-5.4699780">
        <ele>1123.0</ele>
        <time>2021-08-21T06:04:11Z</time>
      </trkpt>
      <trkpt lat="42.7431110" lon="-5.4699450">
        <ele>1123.0</ele>
        <time>2021-08-21T06:04:12Z</time>
      </trkpt>
      <trkpt lat="42.7431200" lon="-5.4699140">
        <ele>1123.0</ele>
        <time>2021-08-21T06:04:13Z</time>
      </trkpt>
      <trkpt lat="42.7431250" lon="-5.4698840">
        <ele>1123.0</ele>
        <time>2021-08-21T06:04:14Z</time>
      </trkpt>
      <trkpt lat="42.7431400" lon="-5.4698380">
        <ele>1123.0</ele>
        <time>2021-08-21T06:04:15Z</time>
      </trkpt>
      <trkpt lat="42.7431460" lon="-5.4698230">
        <ele>1123.0</ele>
        <time>2021-08-21T06:04:16Z</time>
      </trkpt>
      <trkpt lat="42.7431570" lon="-5.4697930">
        <ele>1123.0</ele>
        <time>2021-08-21T06:04:17Z</time>
      </trkpt>
      <trkpt lat="42.7431690" lon="-5.4697640">
        <ele>1123.0</ele>
        <time>2021-08-21T06:04:18Z</time>
      </trkpt>
      <trkpt lat="42.7431830" lon="-5.4697360">
        <ele>1124.0</ele>
        <time>2021-08-21T06:04:19Z</time>
      </trkpt>
      <trkpt lat="42.7432030" lon="-5.4696970">
        <ele>1124.0</ele>
        <time>2021-08-21T06:04:20Z</time>
      </trkpt>
      <trkpt lat="42.7432100" lon="-5.4696840">
        <ele>1124.0</ele>
        <time>2021-08-21T06:04:21Z</time>
      </trkpt>
      <trkpt lat="42.7432240" lon="-5.4696610">
        <ele>1124.0</ele>
        <time>2021-08-21T06:04:22Z</time>
      </trkpt>
      <trkpt lat="42.7432360" lon="-5.4696360">
        <ele>1124.0</ele>
        <time>2021-08-21T06:04:23Z</time>
      </trkpt>
      <trkpt lat="42.7432510" lon="-5.4696100">
        <ele>1124.0</ele>
        <time>2021-08-21T06:04:24Z</time>
      </trkpt>
      <trkpt lat="42.7432650" lon="-5.4695860">
        <ele>1124.0</ele>
        <time>2021-08-21T06:04:25Z</time>
      </trkpt>
      <trkpt lat="42.7432790" lon="-5.4695640">
        <ele>1124.0</ele>
        <time>2021-08-21T06:04:26Z</time>
      </trkpt>
      <trkpt lat="42.7432920" lon="-5.4695420">
        <ele>1124.0</ele>
        <time>2021-08-21T06:04:27Z</time>
      </trkpt>
      <trkpt lat="42.7433060" lon="-5.4695200">
        <ele>1124.0</ele>
        <time>2021-08-21T06:04:28Z</time>
      </trkpt>
      <trkpt lat="42.7433170" lon="-5.4695000">
        <ele>1125.0</ele>
        <time>2021-08-21T06:04:29Z</time>
      </trkpt>
      <trkpt lat="42.7433290" lon="-5.4694770">
        <ele>1125.0</ele>
        <time>2021-08-21T06:04:30Z</time>
      </trkpt>
      <trkpt lat="42.7433410" lon="-5.4694550">
        <ele>1125.0</ele>
        <time>2021-08-21T06:04:31Z</time>
      </trkpt>
      <trkpt lat="42.7433540" lon="-5.4694340">
        <ele>1125.0</ele>
        <time>2021-08-21T06:04:32Z</time>
      </trkpt>
      <trkpt lat="42.7433690" lon="-5.4694160">
        <ele>1125.0</ele>
        <time>2021-08-21T06:04:33Z</time>
      </trkpt>
      <trkpt lat="42.7433840" lon="-5.4693960">
        <ele>1125.0</ele>
        <time>2021-08-21T06:04:34Z</time>
      </trkpt>
      <trkpt lat="42.7434000" lon="-5.4693730">
        <ele>1125.0</ele>
        <time>2021-08-21T06:04:35Z</time>
      </trkpt>
      <trkpt lat="42.7434170" lon="-5.4693520">
        <ele>1125.0</ele>
        <time>2021-08-21T06:04:36Z</time>
      </trkpt>
      <trkpt lat="42.7434340" lon="-5.4693310">
        <ele>1125.0</ele>
        <time>2021-08-21T06:04:37Z</time>
      </trkpt>
      <trkpt lat="42.7434440" lon="-5.4693090">
        <ele>1126.0</ele>
        <time>2021-08-21T06:04:38Z</time>
      </trkpt>
      <trkpt lat="42.7434600" lon="-5.4692880">
        <ele>1126.0</ele>
        <time>2021-08-21T06:04:39Z</time>
      </trkpt>
      <trkpt lat="42.7434760" lon="-5.4692640">
        <ele>1126.0</ele>
        <time>2021-08-21T06:04:40Z</time>
      </trkpt>
      <trkpt lat="42.7434940" lon="-5.4692410">
        <ele>1126.0</ele>
        <time>2021-08-21T06:04:41Z</time>
      </trkpt>
      <trkpt lat="42.7435110" lon="-5.4692170">
        <ele>1126.0</ele>
        <time>2021-08-21T06:04:42Z</time>
      </trkpt>
      <trkpt lat="42.7435280" lon="-5.4691940">
        <ele>1126.0</ele>
        <time>2021-08-21T06:04:43Z</time>
      </trkpt>
      <trkpt lat="42.7435520" lon="-5.4691630">
        <ele>1126.0</ele>
        <time>2021-08-21T06:04:44Z</time>
      </trkpt>
      <trkpt lat="42.7435610" lon="-5.4691520">
        <ele>1126.0</ele>
        <time>2021-08-21T06:04:45Z</time>
      </trkpt>
      <trkpt lat="42.7435790" lon="-5.4691300">
        <ele>1127.0</ele>
        <time>2021-08-21T06:04:46Z</time>
      </trkpt>
      <trkpt lat="42.7435950" lon="-5.4691080">
        <ele>1127.0</ele>
        <time>2021-08-21T06:04:47Z</time>
      </trkpt>
      <trkpt lat="42.7436140" lon="-5.4690850">
        <ele>1127.0</ele>
        <time>2021-08-21T06:04:48Z</time>
      </trkpt>
      <trkpt lat="42.7436320" lon="-5.4690630">
        <ele>1127.0</ele>
        <time>2021-08-21T06:04:49Z</time>
      </trkpt>
      <trkpt lat="42.7436460" lon="-5.4690430">
        <ele>1127.0</ele>
        <time>2021-08-21T06:04:50Z</time>
      </trkpt>
      <trkpt lat="42.7436650" lon="-5.4690220">
        <ele>1127.0</ele>
        <time>2021-08-21T06:04:51Z</time>
      </trkpt>
      <trkpt lat="42.7436790" lon="-5.4690010">
        <ele>1127.0</ele>
        <time>2021-08-21T06:04:52Z</time>
      </trkpt>
      <trkpt lat="42.7436940" lon="-5.4689810">
        <ele>1127.0</ele>
        <time>2021-08-21T06:04:53Z</time>
      </trkpt>
      <trkpt lat="42.7437110" lon="-5.4689600">
        <ele>1127.0</ele>
        <time>2021-08-21T06:04:54Z</time>
      </trkpt>
      <trkpt lat="42.7437110" lon="-5.4689600">
        <ele>1127.0</ele>
        <time>2021-08-21T06:04:55Z</time>
      </trkpt>
      <trkpt lat="42.7437450" lon="-5.4689200">
        <ele>1128.0</ele>
        <time>2021-08-21T06:04:56Z</time>
      </trkpt>
      <trkpt lat="42.7437620" lon="-5.4688980">
        <ele>1128.0</ele>
        <time>2021-08-21T06:04:57Z</time>
      </trkpt>
      <trkpt lat="42.7437810" lon="-5.4688760">
        <ele>1128.0</ele>
        <time>2021-08-21T06:04:58Z</time>
      </trkpt>
      <trkpt lat="42.7438020" lon="-5.4688540">
        <ele>1128.0</ele>
        <time>2021-08-21T06:04:59Z</time>
      </trkpt>
      <trkpt lat="42.7438230" lon="-5.4688300">
        <ele>1128.0</ele>
        <time>2021-08-21T06:05:00Z</time>
      </trkpt>
      <trkpt lat="42.7438460" lon="-5.4688050">
        <ele>1127.0</ele>
        <time>2021-08-21T06:05:01Z</time>
      </trkpt>
      <trkpt lat="42.7438640" lon="-5.4687810">
        <ele>1127.0</ele>
        <time>2021-08-21T06:05:02Z</time>
      </trkpt>
      <trkpt lat="42.7438920" lon="-5.4687450">
        <ele>1127.0</ele>
        <time>2021-08-21T06:05:03Z</time>
      </trkpt>
      <trkpt lat="42.7439010" lon="-5.4687330">
        <ele>1127.0</ele>
        <time>2021-08-21T06:05:04Z</time>
      </trkpt>
      <trkpt lat="42.7439190" lon="-5.4687090">
        <ele>1127.0</ele>
        <time>2021-08-21T06:05:05Z</time>
      </trkpt>
      <trkpt lat="42.7439340" lon="-5.4686870">
        <ele>1127.0</ele>
        <time>2021-08-21T06:05:06Z</time>
      </trkpt>
      <trkpt lat="42.7439530" lon="-5.4686630">
        <ele>1127.0</ele>
        <time>2021-08-21T06:05:07Z</time>
      </trkpt>
      <trkpt lat="42.7439720" lon="-5.4686410">
        <ele>1127.0</ele>
        <time>2021-08-21T06:05:08Z</time>
      </trkpt>
      <trkpt lat="42.7439890" lon="-5.4686180">
        <ele>1127.0</ele>
        <time>2021-08-21T06:05:09Z</time>
      </trkpt>
      <trkpt lat="42.7440060" lon="-5.4685970">
        <ele>1127.0</ele>
        <time>2021-08-21T06:05:10Z</time>
      </trkpt>
      <trkpt lat="42.7440250" lon="-5.4685750">
        <ele>1127.0</ele>
        <time>2021-08-21T06:05:11Z</time>
      </trkpt>
      <trkpt lat="42.7440430" lon="-5.4685540">
        <ele>1127.0</ele>
        <time>2021-08-21T06:05:12Z</time>
      </trkpt>
      <trkpt lat="42.7440630" lon="-5.4685350">
        <ele>1127.0</ele>
        <time>2021-08-21T06:05:13Z</time>
      </trkpt>
      <trkpt lat="42.7440800" lon="-5.4685150">
        <ele>1128.0</ele>
        <time>2021-08-21T06:05:14Z</time>
      </trkpt>
      <trkpt lat="42.7441030" lon="-5.4684880">
        <ele>1128.0</ele>
        <time>2021-08-21T06:05:15Z</time>
      </trkpt>
      <trkpt lat="42.7441100" lon="-5.4684780">
        <ele>1128.0</ele>
        <time>2021-08-21T06:05:16Z</time>
      </trkpt>
      <trkpt lat="42.7441260" lon="-5.4684590">
        <ele>1128.0</ele>
        <time>2021-08-21T06:05:17Z</time>
      </trkpt>
      <trkpt lat="42.7441540" lon="-5.4684320">
        <ele>1128.0</ele>
        <time>2021-08-21T06:05:18Z</time>
      </trkpt>
      <trkpt lat="42.7441620" lon="-5.4684240">
        <ele>1129.0</ele>
        <time>2021-08-21T06:05:19Z</time>
      </trkpt>
      <trkpt lat="42.7441800" lon="-5.4684090">
        <ele>1129.0</ele>
        <time>2021-08-21T06:05:20Z</time>
      </trkpt>
      <trkpt lat="42.7441990" lon="-5.4683940">
        <ele>1129.0</ele>
        <time>2021-08-21T06:05:21Z</time>
      </trkpt>
      <trkpt lat="42.7442170" lon="-5.4683780">
        <ele>1129.0</ele>
        <time>2021-08-21T06:05:22Z</time>
      </trkpt>
      <trkpt lat="42.7442340" lon="-5.4683620">
        <ele>1130.0</ele>
        <time>2021-08-21T06:05:23Z</time>
      </trkpt>
      <trkpt lat="42.7442530" lon="-5.4683470">
        <ele>1130.0</ele>
        <time>2021-08-21T06:05:24Z</time>
      </trkpt>
      <trkpt lat="42.7442740" lon="-5.4683340">
        <ele>1130.0</ele>
        <time>2021-08-21T06:05:25Z</time>
      </trkpt>
      <trkpt lat="42.7442980" lon="-5.4683200">
        <ele>1130.0</ele>
        <time>2021-08-21T06:05:26Z</time>
      </trkpt>
      <trkpt lat="42.7443180" lon="-5.4683080">
        <ele>1130.0</ele>
        <time>2021-08-21T06:05:27Z</time>
      </trkpt>
      <trkpt lat="42.7443370" lon="-5.4682950">
        <ele>1130.0</ele>
        <time>2021-08-21T06:05:28Z</time>
      </trkpt>
      <trkpt lat="42.7443550" lon="-5.4682850">
        <ele>1130.0</ele>
        <time>2021-08-21T06:05:29Z</time>
      </trkpt>
      <trkpt lat="42.7443730" lon="-5.4682740">
        <ele>1130.0</ele>
        <time>2021-08-21T06:05:30Z</time>
      </trkpt>
      <trkpt lat="42.7443910" lon="-5.4682650">
        <ele>1131.0</ele>
        <time>2021-08-21T06:05:31Z</time>
      </trkpt>
      <trkpt lat="42.7444110" lon="-5.4682530">
        <ele>1131.0</ele>
        <time>2021-08-21T06:05:32Z</time>
      </trkpt>
      <trkpt lat="42.7444310" lon="-5.4682400">
        <ele>1131.0</ele>
        <time>2021-08-21T06:05:33Z</time>
      </trkpt>
      <trkpt lat="42.7444510" lon="-5.4682270">
        <ele>1131.0</ele>
        <time>2021-08-21T06:05:34Z</time>
      </trkpt>
      <trkpt lat="42.7444710" lon="-5.4682160">
        <ele>1131.0</ele>
        <time>2021-08-21T06:05:35Z</time>
      </trkpt>
      <trkpt lat="42.7444900" lon="-5.4682050">
        <ele>1131.0</ele>
        <time>2021-08-21T06:05:36Z</time>
      </trkpt>
      <trkpt lat="42.7445100" lon="-5.4681920">
        <ele>1132.0</ele>
        <time>2021-08-21T06:05:37Z</time>
      </trkpt>
      <trkpt lat="42.7445410" lon="-5.4681710">
        <ele>1132.0</ele>
        <time>2021-08-21T06:05:38Z</time>
      </trkpt>
      <trkpt lat="42.7445520" lon="-5.4681630">
        <ele>1132.0</ele>
        <time>2021-08-21T06:05:39Z</time>
      </trkpt>
      <trkpt lat="42.7445730" lon="-5.4681500">
        <ele>1132.0</ele>
        <time>2021-08-21T06:05:40Z</time>
      </trkpt>
      <trkpt lat="42.7445940" lon="-5.4681360">
        <ele>1132.0</ele>
        <time>2021-08-21T06:05:41Z</time>
      </trkpt>
      <trkpt lat="42.7446140" lon="-5.4681210">
        <ele>1132.0</ele>
        <time>2021-08-21T06:05:42Z</time>
      </trkpt>
      <trkpt lat="42.7446340" lon="-5.4681060">
        <ele>1132.0</ele>
        <time>2021-08-21T06:05:43Z</time>
      </trkpt>
      <trkpt lat="42.7446540" lon="-5.4680930">
        <ele>1133.0</ele>
        <time>2021-08-21T06:05:44Z</time>
      </trkpt>
      <trkpt lat="42.7446850" lon="-5.4680710">
        <ele>1133.0</ele>
        <time>2021-08-21T06:05:45Z</time>
      </trkpt>
      <trkpt lat="42.7446940" lon="-5.4680640">
        <ele>1133.0</ele>
        <time>2021-08-21T06:05:46Z</time>
      </trkpt>
      <trkpt lat="42.7447140" lon="-5.4680500">
        <ele>1133.0</ele>
        <time>2021-08-21T06:05:47Z</time>
      </trkpt>
      <trkpt lat="42.7447340" lon="-5.4680360">
        <ele>1133.0</ele>
        <time>2021-08-21T06:05:48Z</time>
      </trkpt>
      <trkpt lat="42.7447520" lon="-5.4680200">
        <ele>1133.0</ele>
        <time>2021-08-21T06:05:49Z</time>
      </trkpt>
      <trkpt lat="42.7447790" lon="-5.4679970">
        <ele>1133.0</ele>
        <time>2021-08-21T06:05:50Z</time>
      </trkpt>
      <trkpt lat="42.7447880" lon="-5.4679890">
        <ele>1133.0</ele>
        <time>2021-08-21T06:05:51Z</time>
      </trkpt>
      <trkpt lat="42.7448050" lon="-5.4679730">
        <ele>1133.0</ele>
        <time>2021-08-21T06:05:52Z</time>
      </trkpt>
      <trkpt lat="42.7448240" lon="-5.4679590">
        <ele>1134.0</ele>
        <time>2021-08-21T06:05:53Z</time>
      </trkpt>
      <trkpt lat="42.7448440" lon="-5.4679440">
        <ele>1134.0</ele>
        <time>2021-08-21T06:05:54Z</time>
      </trkpt>
      <trkpt lat="42.7448640" lon="-5.4679300">
        <ele>1134.0</ele>
        <time>2021-08-21T06:05:55Z</time>
      </trkpt>
      <trkpt lat="42.7448850" lon="-5.4679160">
        <ele>1134.0</ele>
        <time>2021-08-21T06:05:56Z</time>
      </trkpt>
      <trkpt lat="42.7449040" lon="-5.4679030">
        <ele>1134.0</ele>
        <time>2021-08-21T06:05:57Z</time>
      </trkpt>
      <trkpt lat="42.7449260" lon="-5.4678870">
        <ele>1134.0</ele>
        <time>2021-08-21T06:05:58Z</time>
      </trkpt>
      <trkpt lat="42.7449480" lon="-5.4678710">
        <ele>1134.0</ele>
        <time>2021-08-21T06:05:59Z</time>
      </trkpt>
      <trkpt lat="42.7449860" lon="-5.4678460">
        <ele>1134.0</ele>
        <time>2021-08-21T06:06:00Z</time>
      </trkpt>
      <trkpt lat="42.7449990" lon="-5.4678390">
        <ele>1134.0</ele>
        <time>2021-08-21T06:06:01Z</time>
      </trkpt>
      <trkpt lat="42.7450230" lon="-5.4678260">
        <ele>1134.0</ele>
        <time>2021-08-21T06:06:02Z</time>
      </trkpt>
      <trkpt lat="42.7450460" lon="-5.4678130">
        <ele>1135.0</ele>
        <time>2021-08-21T06:06:03Z</time>
      </trkpt>
      <trkpt lat="42.7450650" lon="-5.4677990">
        <ele>1135.0</ele>
        <time>2021-08-21T06:06:04Z</time>
      </trkpt>
      <trkpt lat="42.7450810" lon="-5.4677860">
        <ele>1135.0</ele>
        <time>2021-08-21T06:06:05Z</time>
      </trkpt>
      <trkpt lat="42.7450990" lon="-5.4677720">
        <ele>1135.0</ele>
        <time>2021-08-21T06:06:06Z</time>
      </trkpt>
      <trkpt lat="42.7451190" lon="-5.4677630">
        <ele>1136.0</ele>
        <time>2021-08-21T06:06:07Z</time>
      </trkpt>
      <trkpt lat="42.7451370" lon="-5.4677530">
        <ele>1136.0</ele>
        <time>2021-08-21T06:06:08Z</time>
      </trkpt>
      <trkpt lat="42.7451670" lon="-5.4677360">
        <ele>1136.0</ele>
        <time>2021-08-21T06:06:09Z</time>
      </trkpt>
      <trkpt lat="42.7451780" lon="-5.4677290">
        <ele>1136.0</ele>
        <time>2021-08-21T06:06:10Z</time>
      </trkpt>
      <trkpt lat="42.7452000" lon="-5.4677190">
        <ele>1136.0</ele>
        <time>2021-08-21T06:06:11Z</time>
      </trkpt>
      <trkpt lat="42.7452240" lon="-5.4677090">
        <ele>1136.0</ele>
        <time>2021-08-21T06:06:12Z</time>
      </trkpt>
      <trkpt lat="42.7452420" lon="-5.4676980">
        <ele>1136.0</ele>
        <time>2021-08-21T06:06:13Z</time>
      </trkpt>
      <trkpt lat="42.7452610" lon="-5.4676880">
        <ele>1136.0</ele>
        <time>2021-08-21T06:06:14Z</time>
      </trkpt>
      <trkpt lat="42.7452820" lon="-5.4676770">
        <ele>1136.0</ele>
        <time>2021-08-21T06:06:15Z</time>
      </trkpt>
      <trkpt lat="42.7453010" lon="-5.4676690">
        <ele>1136.0</ele>
        <time>2021-08-21T06:06:16Z</time>
      </trkpt>
      <trkpt lat="42.7453240" lon="-5.4676620">
        <ele>1136.0</ele>
        <time>2021-08-21T06:06:17Z</time>
      </trkpt>
      <trkpt lat="42.7453440" lon="-5.4676540">
        <ele>1136.0</ele>
        <time>2021-08-21T06:06:18Z</time>
      </trkpt>
      <trkpt lat="42.7453660" lon="-5.4676450">
        <ele>1136.0</ele>
        <time>2021-08-21T06:06:19Z</time>
      </trkpt>
      <trkpt lat="42.7453850" lon="-5.4676430">
        <ele>1136.0</ele>
        <time>2021-08-21T06:06:20Z</time>
      </trkpt>
      <trkpt lat="42.7454090" lon="-5.4676350">
        <ele>1136.0</ele>
        <time>2021-08-21T06:06:21Z</time>
      </trkpt>
      <trkpt lat="42.7454290" lon="-5.4676260">
        <ele>1136.0</ele>
        <time>2021-08-21T06:06:22Z</time>
      </trkpt>
      <trkpt lat="42.7454540" lon="-5.4676160">
        <ele>1137.0</ele>
        <time>2021-08-21T06:06:23Z</time>
      </trkpt>
      <trkpt lat="42.7454750" lon="-5.4676030">
        <ele>1137.0</ele>
        <time>2021-08-21T06:06:24Z</time>
      </trkpt>
      <trkpt lat="42.7454970" lon="-5.4675940">
        <ele>1137.0</ele>
        <time>2021-08-21T06:06:25Z</time>
      </trkpt>
      <trkpt lat="42.7455180" lon="-5.4675820">
        <ele>1138.0</ele>
        <time>2021-08-21T06:06:26Z</time>
      </trkpt>
      <trkpt lat="42.7455380" lon="-5.4675690">
        <ele>1138.0</ele>
        <time>2021-08-21T06:06:27Z</time>
      </trkpt>
      <trkpt lat="42.7455550" lon="-5.4675570">
        <ele>1138.0</ele>
        <time>2021-08-21T06:06:28Z</time>
      </trkpt>
      <trkpt lat="42.7455720" lon="-5.4675480">
        <ele>1138.0</ele>
        <time>2021-08-21T06:06:29Z</time>
      </trkpt>
      <trkpt lat="42.7455900" lon="-5.4675360">
        <ele>1138.0</ele>
        <time>2021-08-21T06:06:30Z</time>
      </trkpt>
      <trkpt lat="42.7456120" lon="-5.4675230">
        <ele>1138.0</ele>
        <time>2021-08-21T06:06:31Z</time>
      </trkpt>
      <trkpt lat="42.7456380" lon="-5.4675100">
        <ele>1138.0</ele>
        <time>2021-08-21T06:06:32Z</time>
      </trkpt>
      <trkpt lat="42.7456640" lon="-5.4674970">
        <ele>1139.0</ele>
        <time>2021-08-21T06:06:33Z</time>
      </trkpt>
      <trkpt lat="42.7456900" lon="-5.4674800">
        <ele>1139.0</ele>
        <time>2021-08-21T06:06:34Z</time>
      </trkpt>
      <trkpt lat="42.7457140" lon="-5.4674620">
        <ele>1139.0</ele>
        <time>2021-08-21T06:06:35Z</time>
      </trkpt>
      <trkpt lat="42.7457400" lon="-5.4674480">
        <ele>1139.0</ele>
        <time>2021-08-21T06:06:36Z</time>
      </trkpt>
      <trkpt lat="42.7457670" lon="-5.4674320">
        <ele>1140.0</ele>
        <time>2021-08-21T06:06:37Z</time>
      </trkpt>
      <trkpt lat="42.7457910" lon="-5.4674200">
        <ele>1140.0</ele>
        <time>2021-08-21T06:06:38Z</time>
      </trkpt>
      <trkpt lat="42.7458160" lon="-5.4674060">
        <ele>1140.0</ele>
        <time>2021-08-21T06:06:39Z</time>
      </trkpt>
      <trkpt lat="42.7458400" lon="-5.4673920">
        <ele>1140.0</ele>
        <time>2021-08-21T06:06:40Z</time>
      </trkpt>
      <trkpt lat="42.7458630" lon="-5.4673780">
        <ele>1140.0</ele>
        <time>2021-08-21T06:06:41Z</time>
      </trkpt>
      <trkpt lat="42.7459030" lon="-5.4673550">
        <ele>1140.0</ele>
        <time>2021-08-21T06:06:42Z</time>
      </trkpt>
      <trkpt lat="42.7459150" lon="-5.4673470">
        <ele>1140.0</ele>
        <time>2021-08-21T06:06:43Z</time>
      </trkpt>
      <trkpt lat="42.7459410" lon="-5.4673350">
        <ele>1140.0</ele>
        <time>2021-08-21T06:06:44Z</time>
      </trkpt>
      <trkpt lat="42.7459750" lon="-5.4673150">
        <ele>1140.0</ele>
        <time>2021-08-21T06:06:45Z</time>
      </trkpt>
      <trkpt lat="42.7459870" lon="-5.4673070">
        <ele>1141.0</ele>
        <time>2021-08-21T06:06:46Z</time>
      </trkpt>
      <trkpt lat="42.7460270" lon="-5.4672840">
        <ele>1141.0</ele>
        <time>2021-08-21T06:06:47Z</time>
      </trkpt>
      <trkpt lat="42.7460390" lon="-5.4672750">
        <ele>1141.0</ele>
        <time>2021-08-21T06:06:48Z</time>
      </trkpt>
      <trkpt lat="42.7460630" lon="-5.4672620">
        <ele>1141.0</ele>
        <time>2021-08-21T06:06:49Z</time>
      </trkpt>
      <trkpt lat="42.7460880" lon="-5.4672460">
        <ele>1142.0</ele>
        <time>2021-08-21T06:06:50Z</time>
      </trkpt>
      <trkpt lat="42.7461130" lon="-5.4672320">
        <ele>1142.0</ele>
        <time>2021-08-21T06:06:51Z</time>
      </trkpt>
      <trkpt lat="42.7461460" lon="-5.4672150">
        <ele>1142.0</ele>
        <time>2021-08-21T06:06:52Z</time>
      </trkpt>
      <trkpt lat="42.7461590" lon="-5.4672080">
        <ele>1142.0</ele>
        <time>2021-08-21T06:06:53Z</time>
      </trkpt>
      <trkpt lat="42.7461850" lon="-5.4671940">
        <ele>1142.0</ele>
        <time>2021-08-21T06:06:54Z</time>
      </trkpt>
      <trkpt lat="42.7462220" lon="-5.4671750">
        <ele>1142.0</ele>
        <time>2021-08-21T06:06:55Z</time>
      </trkpt>
      <trkpt lat="42.7462340" lon="-5.4671690">
        <ele>1142.0</ele>
        <time>2021-08-21T06:06:56Z</time>
      </trkpt>
      <trkpt lat="42.7462600" lon="-5.4671540">
        <ele>1143.0</ele>
        <time>2021-08-21T06:06:57Z</time>
      </trkpt>
      <trkpt lat="42.7462830" lon="-5.4671400">
        <ele>1143.0</ele>
        <time>2021-08-21T06:06:58Z</time>
      </trkpt>
      <trkpt lat="42.7463050" lon="-5.4671290">
        <ele>1143.0</ele>
        <time>2021-08-21T06:06:59Z</time>
      </trkpt>
      <trkpt lat="42.7463270" lon="-5.4671190">
        <ele>1143.0</ele>
        <time>2021-08-21T06:07:00Z</time>
      </trkpt>
      <trkpt lat="42.7463510" lon="-5.4671070">
        <ele>1143.0</ele>
        <time>2021-08-21T06:07:01Z</time>
      </trkpt>
      <trkpt lat="42.7463740" lon="-5.4670950">
        <ele>1143.0</ele>
        <time>2021-08-21T06:07:02Z</time>
      </trkpt>
      <trkpt lat="42.7463980" lon="-5.4670820">
        <ele>1143.0</ele>
        <time>2021-08-21T06:07:03Z</time>
      </trkpt>
      <trkpt lat="42.7464230" lon="-5.4670690">
        <ele>1143.0</ele>
        <time>2021-08-21T06:07:04Z</time>
      </trkpt>
      <trkpt lat="42.7464460" lon="-5.4670550">
        <ele>1143.0</ele>
        <time>2021-08-21T06:07:05Z</time>
      </trkpt>
      <trkpt lat="42.7464810" lon="-5.4670380">
        <ele>1143.0</ele>
        <time>2021-08-21T06:07:06Z</time>
      </trkpt>
      <trkpt lat="42.7464920" lon="-5.4670320">
        <ele>1144.0</ele>
        <time>2021-08-21T06:07:07Z</time>
      </trkpt>
      <trkpt lat="42.7465170" lon="-5.4670190">
        <ele>1144.0</ele>
        <time>2021-08-21T06:07:08Z</time>
      </trkpt>
      <trkpt lat="42.7465420" lon="-5.4670070">
        <ele>1144.0</ele>
        <time>2021-08-21T06:07:09Z</time>
      </trkpt>
      <trkpt lat="42.7465420" lon="-5.4670070">
        <ele>1144.0</ele>
        <time>2021-08-21T06:07:10Z</time>
      </trkpt>
      <trkpt lat="42.7465960" lon="-5.4669590">
        <ele>1144.0</ele>
        <time>2021-08-21T06:07:11Z</time>
      </trkpt>
      <trkpt lat="42.7466060" lon="-5.4669480">
        <ele>1144.0</ele>
        <time>2021-08-21T06:07:12Z</time>
      </trkpt>
      <trkpt lat="42.7466280" lon="-5.4669260">
        <ele>1144.0</ele>
        <time>2021-08-21T06:07:13Z</time>
      </trkpt>
      <trkpt lat="42.7466520" lon="-5.4669100">
        <ele>1145.0</ele>
        <time>2021-08-21T06:07:14Z</time>
      </trkpt>
      <trkpt lat="42.7466750" lon="-5.4668980">
        <ele>1145.0</ele>
        <time>2021-08-21T06:07:15Z</time>
      </trkpt>
      <trkpt lat="42.7466960" lon="-5.4668870">
        <ele>1145.0</ele>
        <time>2021-08-21T06:07:16Z</time>
      </trkpt>
      <trkpt lat="42.7467180" lon="-5.4668780">
        <ele>1145.0</ele>
        <time>2021-08-21T06:07:17Z</time>
      </trkpt>
      <trkpt lat="42.7467400" lon="-5.4668680">
        <ele>1145.0</ele>
        <time>2021-08-21T06:07:18Z</time>
      </trkpt>
      <trkpt lat="42.7467630" lon="-5.4668570">
        <ele>1146.0</ele>
        <time>2021-08-21T06:07:19Z</time>
      </trkpt>
      <trkpt lat="42.7467840" lon="-5.4668440">
        <ele>1146.0</ele>
        <time>2021-08-21T06:07:20Z</time>
      </trkpt>
      <trkpt lat="42.7468160" lon="-5.4668300">
        <ele>1146.0</ele>
        <time>2021-08-21T06:07:21Z</time>
      </trkpt>
      <trkpt lat="42.7468260" lon="-5.4668250">
        <ele>1146.0</ele>
        <time>2021-08-21T06:07:22Z</time>
      </trkpt>
      <trkpt lat="42.7468460" lon="-5.4668160">
        <ele>1147.0</ele>
        <time>2021-08-21T06:07:23Z</time>
      </trkpt>
      <trkpt lat="42.7468690" lon="-5.4668070">
        <ele>1147.0</ele>
        <time>2021-08-21T06:07:24Z</time>
      </trkpt>
      <trkpt lat="42.7468920" lon="-5.4668000">
        <ele>1147.0</ele>
        <time>2021-08-21T06:07:25Z</time>
      </trkpt>
      <trkpt lat="42.7469140" lon="-5.4667930">
        <ele>1147.0</ele>
        <time>2021-08-21T06:07:26Z</time>
      </trkpt>
      <trkpt lat="42.7469360" lon="-5.4667870">
        <ele>1147.0</ele>
        <time>2021-08-21T06:07:27Z</time>
      </trkpt>
      <trkpt lat="42.7469590" lon="-5.4667800">
        <ele>1147.0</ele>
        <time>2021-08-21T06:07:28Z</time>
      </trkpt>
      <trkpt lat="42.7469820" lon="-5.4667720">
        <ele>1147.0</ele>
        <time>2021-08-21T06:07:29Z</time>
      </trkpt>
      <trkpt lat="42.7470180" lon="-5.4667600">
        <ele>1147.0</ele>
        <time>2021-08-21T06:07:30Z</time>
      </trkpt>
      <trkpt lat="42.7470300" lon="-5.4667560">
        <ele>1147.0</ele>
        <time>2021-08-21T06:07:31Z</time>
      </trkpt>
      <trkpt lat="42.7470520" lon="-5.4667450">
        <ele>1147.0</ele>
        <time>2021-08-21T06:07:32Z</time>
      </trkpt>
      <trkpt lat="42.7470750" lon="-5.4667370">
        <ele>1148.0</ele>
        <time>2021-08-21T06:07:33Z</time>
      </trkpt>
      <trkpt lat="42.7470950" lon="-5.4667310">
        <ele>1148.0</ele>
        <time>2021-08-21T06:07:34Z</time>
      </trkpt>
      <trkpt lat="42.7471180" lon="-5.4667200">
        <ele>1148.0</ele>
        <time>2021-08-21T06:07:35Z</time>
      </trkpt>
      <trkpt lat="42.7471410" lon="-5.4667080">
        <ele>1148.0</ele>
        <time>2021-08-21T06:07:36Z</time>
      </trkpt>
      <trkpt lat="42.7471640" lon="-5.4666980">
        <ele>1148.0</ele>
        <time>2021-08-21T06:07:37Z</time>
      </trkpt>
      <trkpt lat="42.7471870" lon="-5.4666880">
        <ele>1148.0</ele>
        <time>2021-08-21T06:07:38Z</time>
      </trkpt>
      <trkpt lat="42.7472090" lon="-5.4666770">
        <ele>1148.0</ele>
        <time>2021-08-21T06:07:39Z</time>
      </trkpt>
      <trkpt lat="42.7472300" lon="-5.4666680">
        <ele>1149.0</ele>
        <time>2021-08-21T06:07:40Z</time>
      </trkpt>
      <trkpt lat="42.7472540" lon="-5.4666570">
        <ele>1149.0</ele>
        <time>2021-08-21T06:07:41Z</time>
      </trkpt>
      <trkpt lat="42.7472740" lon="-5.4666500">
        <ele>1149.0</ele>
        <time>2021-08-21T06:07:42Z</time>
      </trkpt>
      <trkpt lat="42.7472960" lon="-5.4666430">
        <ele>1149.0</ele>
        <time>2021-08-21T06:07:43Z</time>
      </trkpt>
      <trkpt lat="42.7473190" lon="-5.4666350">
        <ele>1149.0</ele>
        <time>2021-08-21T06:07:44Z</time>
      </trkpt>
      <trkpt lat="42.7473440" lon="-5.4666230">
        <ele>1150.0</ele>
        <time>2021-08-21T06:07:45Z</time>
      </trkpt>
      <trkpt lat="42.7473650" lon="-5.4666110">
        <ele>1150.0</ele>
        <time>2021-08-21T06:07:46Z</time>
      </trkpt>
      <trkpt lat="42.7473870" lon="-5.4666010">
        <ele>1150.0</ele>
        <time>2021-08-21T06:07:47Z</time>
      </trkpt>
      <trkpt lat="42.7474100" lon="-5.4665930">
        <ele>1150.0</ele>
        <time>2021-08-21T06:07:48Z</time>
      </trkpt>
      <trkpt lat="42.7474450" lon="-5.4665800">
        <ele>1150.0</ele>
        <time>2021-08-21T06:07:49Z</time>
      </trkpt>
      <trkpt lat="42.7474570" lon="-5.4665740">
        <ele>1150.0</ele>
        <time>2021-08-21T06:07:50Z</time>
      </trkpt>
      <trkpt lat="42.7474810" lon="-5.4665600">
        <ele>1150.0</ele>
        <time>2021-08-21T06:07:51Z</time>
      </trkpt>
      <trkpt lat="42.7475070" lon="-5.4665490">
        <ele>1150.0</ele>
        <time>2021-08-21T06:07:52Z</time>
      </trkpt>
      <trkpt lat="42.7475300" lon="-5.4665440">
        <ele>1150.0</ele>
        <time>2021-08-21T06:07:53Z</time>
      </trkpt>
      <trkpt lat="42.7475630" lon="-5.4665360">
        <ele>1150.0</ele>
        <time>2021-08-21T06:07:54Z</time>
      </trkpt>
      <trkpt lat="42.7475740" lon="-5.4665330">
        <ele>1150.0</ele>
        <time>2021-08-21T06:07:55Z</time>
      </trkpt>
      <trkpt lat="42.7475980" lon="-5.4665280">
        <ele>1150.0</ele>
        <time>2021-08-21T06:07:56Z</time>
      </trkpt>
      <trkpt lat="42.7476200" lon="-5.4665220">
        <ele>1151.0</ele>
        <time>2021-08-21T06:07:57Z</time>
      </trkpt>
      <trkpt lat="42.7476430" lon="-5.4665160">
        <ele>1151.0</ele>
        <time>2021-08-21T06:07:58Z</time>
      </trkpt>
      <trkpt lat="42.7476650" lon="-5.4665090">
        <ele>1151.0</ele>
        <time>2021-08-21T06:07:59Z</time>
      </trkpt>
      <trkpt lat="42.7476860" lon="-5.4664990">
        <ele>1151.0</ele>
        <time>2021-08-21T06:08:00Z</time>
      </trkpt>
      <trkpt lat="42.7477210" lon="-5.4664870">
        <ele>1151.0</ele>
        <time>2021-08-21T06:08:01Z</time>
      </trkpt>
      <trkpt lat="42.7477320" lon="-5.4664810">
        <ele>1151.0</ele>
        <time>2021-08-21T06:08:02Z</time>
      </trkpt>
      <trkpt lat="42.7477570" lon="-5.4664650">
        <ele>1151.0</ele>
        <time>2021-08-21T06:08:03Z</time>
      </trkpt>
      <trkpt lat="42.7477830" lon="-5.4664480">
        <ele>1152.0</ele>
        <time>2021-08-21T06:08:04Z</time>
      </trkpt>
      <trkpt lat="42.7478070" lon="-5.4664350">
        <ele>1152.0</ele>
        <time>2021-08-21T06:08:05Z</time>
      </trkpt>
      <trkpt lat="42.7478420" lon="-5.4664210">
        <ele>1152.0</ele>
        <time>2021-08-21T06:08:06Z</time>
      </trkpt>
      <trkpt lat="42.7478530" lon="-5.4664180">
        <ele>1151.0</ele>
        <time>2021-08-21T06:08:07Z</time>
      </trkpt>
      <trkpt lat="42.7478770" lon="-5.4664110">
        <ele>1152.0</ele>
        <time>2021-08-21T06:08:08Z</time>
      </trkpt>
      <trkpt lat="42.7479140" lon="-5.4664060">
        <ele>1152.0</ele>
        <time>2021-08-21T06:08:09Z</time>
      </trkpt>
      <trkpt lat="42.7479260" lon="-5.4664040">
        <ele>1152.0</ele>
        <time>2021-08-21T06:08:10Z</time>
      </trkpt>
      <trkpt lat="42.7479530" lon="-5.4663990">
        <ele>1152.0</ele>
        <time>2021-08-21T06:08:11Z</time>
      </trkpt>
      <trkpt lat="42.7479920" lon="-5.4663880">
        <ele>1152.0</ele>
        <time>2021-08-21T06:08:12Z</time>
      </trkpt>
      <trkpt lat="42.7480050" lon="-5.4663830">
        <ele>1152.0</ele>
        <time>2021-08-21T06:08:13Z</time>
      </trkpt>
      <trkpt lat="42.7480280" lon="-5.4663750">
        <ele>1152.0</ele>
        <time>2021-08-21T06:08:14Z</time>
      </trkpt>
      <trkpt lat="42.7480650" lon="-5.4663640">
        <ele>1152.0</ele>
        <time>2021-08-21T06:08:15Z</time>
      </trkpt>
      <trkpt lat="42.7480770" lon="-5.4663600">
        <ele>1153.0</ele>
        <time>2021-08-21T06:08:16Z</time>
      </trkpt>
      <trkpt lat="42.7481010" lon="-5.4663540">
        <ele>1153.0</ele>
        <time>2021-08-21T06:08:17Z</time>
      </trkpt>
      <trkpt lat="42.7481390" lon="-5.4663420">
        <ele>1153.0</ele>
        <time>2021-08-21T06:08:18Z</time>
      </trkpt>
      <trkpt lat="42.7481510" lon="-5.4663380">
        <ele>1154.0</ele>
        <time>2021-08-21T06:08:19Z</time>
      </trkpt>
      <trkpt lat="42.7481770" lon="-5.4663290">
        <ele>1154.0</ele>
        <time>2021-08-21T06:08:20Z</time>
      </trkpt>
      <trkpt lat="42.7482020" lon="-5.4663230">
        <ele>1154.0</ele>
        <time>2021-08-21T06:08:21Z</time>
      </trkpt>
      <trkpt lat="42.7482260" lon="-5.4663190">
        <ele>1154.0</ele>
        <time>2021-08-21T06:08:22Z</time>
      </trkpt>
      <trkpt lat="42.7482510" lon="-5.4663170">
        <ele>1154.0</ele>
        <time>2021-08-21T06:08:23Z</time>
      </trkpt>
      <trkpt lat="42.7482760" lon="-5.4663140">
        <ele>1154.0</ele>
        <time>2021-08-21T06:08:24Z</time>
      </trkpt>
      <trkpt lat="42.7483150" lon="-5.4662980">
        <ele>1154.0</ele>
        <time>2021-08-21T06:08:25Z</time>
      </trkpt>
      <trkpt lat="42.7483280" lon="-5.4662920">
        <ele>1155.0</ele>
        <time>2021-08-21T06:08:26Z</time>
      </trkpt>
      <trkpt lat="42.7483550" lon="-5.4662800">
        <ele>1155.0</ele>
        <time>2021-08-21T06:08:27Z</time>
      </trkpt>
      <trkpt lat="42.7483810" lon="-5.4662670">
        <ele>1155.0</ele>
        <time>2021-08-21T06:08:28Z</time>
      </trkpt>
      <trkpt lat="42.7484170" lon="-5.4662490">
        <ele>1155.0</ele>
        <time>2021-08-21T06:08:29Z</time>
      </trkpt>
      <trkpt lat="42.7484290" lon="-5.4662420">
        <ele>1154.0</ele>
        <time>2021-08-21T06:08:30Z</time>
      </trkpt>
      <trkpt lat="42.7484570" lon="-5.4662260">
        <ele>1154.0</ele>
        <time>2021-08-21T06:08:31Z</time>
      </trkpt>
      <trkpt lat="42.7484940" lon="-5.4662100">
        <ele>1154.0</ele>
        <time>2021-08-21T06:08:32Z</time>
      </trkpt>
      <trkpt lat="42.7485050" lon="-5.4662040">
        <ele>1154.0</ele>
        <time>2021-08-21T06:08:33Z</time>
      </trkpt>
      <trkpt lat="42.7485300" lon="-5.4661930">
        <ele>1154.0</ele>
        <time>2021-08-21T06:08:34Z</time>
      </trkpt>
      <trkpt lat="42.7485550" lon="-5.4661840">
        <ele>1154.0</ele>
        <time>2021-08-21T06:08:35Z</time>
      </trkpt>
      <trkpt lat="42.7485790" lon="-5.4661720">
        <ele>1153.0</ele>
        <time>2021-08-21T06:08:36Z</time>
      </trkpt>
      <trkpt lat="42.7486040" lon="-5.4661560">
        <ele>1153.0</ele>
        <time>2021-08-21T06:08:37Z</time>
      </trkpt>
      <trkpt lat="42.7486450" lon="-5.4661300">
        <ele>1153.0</ele>
        <time>2021-08-21T06:08:38Z</time>
      </trkpt>
      <trkpt lat="42.7486590" lon="-5.4661210">
        <ele>1153.0</ele>
        <time>2021-08-21T06:08:39Z</time>
      </trkpt>
      <trkpt lat="42.7486880" lon="-5.4661010">
        <ele>1152.0</ele>
        <time>2021-08-21T06:08:40Z</time>
      </trkpt>
      <trkpt lat="42.7487270" lon="-5.4660720">
        <ele>1152.0</ele>
        <time>2021-08-21T06:08:41Z</time>
      </trkpt>
      <trkpt lat="42.7487390" lon="-5.4660630">
        <ele>1152.0</ele>
        <time>2021-08-21T06:08:42Z</time>
      </trkpt>
      <trkpt lat="42.7487750" lon="-5.4660290">
        <ele>1152.0</ele>
        <time>2021-08-21T06:08:43Z</time>
      </trkpt>
      <trkpt lat="42.7487860" lon="-5.4660170">
        <ele>1151.0</ele>
        <time>2021-08-21T06:08:44Z</time>
      </trkpt>
      <trkpt lat="42.7488070" lon="-5.4659970">
        <ele>1151.0</ele>
        <time>2021-08-21T06:08:45Z</time>
      </trkpt>
      <trkpt lat="42.7488260" lon="-5.4659780">
        <ele>1151.0</ele>
        <time>2021-08-21T06:08:46Z</time>
      </trkpt>
      <trkpt lat="42.7488440" lon="-5.4659580">
        <ele>1151.0</ele>
        <time>2021-08-21T06:08:47Z</time>
      </trkpt>
      <trkpt lat="42.7488630" lon="-5.4659380">
        <ele>1151.0</ele>
        <time>2021-08-21T06:08:48Z</time>
      </trkpt>
      <trkpt lat="42.7488830" lon="-5.4659150">
        <ele>1151.0</ele>
        <time>2021-08-21T06:08:49Z</time>
      </trkpt>
      <trkpt lat="42.7489040" lon="-5.4658940">
        <ele>1151.0</ele>
        <time>2021-08-21T06:08:50Z</time>
      </trkpt>
      <trkpt lat="42.7489360" lon="-5.4658670">
        <ele>1151.0</ele>
        <time>2021-08-21T06:08:51Z</time>
      </trkpt>
      <trkpt lat="42.7489470" lon="-5.4658590">
        <ele>1151.0</ele>
        <time>2021-08-21T06:08:52Z</time>
      </trkpt>
      <trkpt lat="42.7489710" lon="-5.4658410">
        <ele>1151.0</ele>
        <time>2021-08-21T06:08:53Z</time>
      </trkpt>
      <trkpt lat="42.7489910" lon="-5.4658250">
        <ele>1151.0</ele>
        <time>2021-08-21T06:08:54Z</time>
      </trkpt>
      <trkpt lat="42.7490140" lon="-5.4658080">
        <ele>1151.0</ele>
        <time>2021-08-21T06:08:55Z</time>
      </trkpt>
      <trkpt lat="42.7490380" lon="-5.4657870">
        <ele>1151.0</ele>
        <time>2021-08-21T06:08:56Z</time>
      </trkpt>
      <trkpt lat="42.7490580" lon="-5.4657650">
        <ele>1151.0</ele>
        <time>2021-08-21T06:08:57Z</time>
      </trkpt>
      <trkpt lat="42.7490890" lon="-5.4657360">
        <ele>1151.0</ele>
        <time>2021-08-21T06:08:58Z</time>
      </trkpt>
      <trkpt lat="42.7490990" lon="-5.4657260">
        <ele>1150.0</ele>
        <time>2021-08-21T06:08:59Z</time>
      </trkpt>
      <trkpt lat="42.7491220" lon="-5.4657080">
        <ele>1150.0</ele>
        <time>2021-08-21T06:09:00Z</time>
      </trkpt>
      <trkpt lat="42.7491430" lon="-5.4656910">
        <ele>1150.0</ele>
        <time>2021-08-21T06:09:01Z</time>
      </trkpt>
      <trkpt lat="42.7491640" lon="-5.4656710">
        <ele>1150.0</ele>
        <time>2021-08-21T06:09:02Z</time>
      </trkpt>
      <trkpt lat="42.7491870" lon="-5.4656530">
        <ele>1150.0</ele>
        <time>2021-08-21T06:09:03Z</time>
      </trkpt>
      <trkpt lat="42.7492070" lon="-5.4656360">
        <ele>1150.0</ele>
        <time>2021-08-21T06:09:04Z</time>
      </trkpt>
      <trkpt lat="42.7492270" lon="-5.4656200">
        <ele>1150.0</ele>
        <time>2021-08-21T06:09:05Z</time>
      </trkpt>
      <trkpt lat="42.7492520" lon="-5.4656050">
        <ele>1150.0</ele>
        <time>2021-08-21T06:09:06Z</time>
      </trkpt>
      <trkpt lat="42.7492710" lon="-5.4655900">
        <ele>1150.0</ele>
        <time>2021-08-21T06:09:07Z</time>
      </trkpt>
      <trkpt lat="42.7492880" lon="-5.4655770">
        <ele>1150.0</ele>
        <time>2021-08-21T06:09:08Z</time>
      </trkpt>
      <trkpt lat="42.7493040" lon="-5.4655670">
        <ele>1150.0</ele>
        <time>2021-08-21T06:09:09Z</time>
      </trkpt>
      <trkpt lat="42.7493250" lon="-5.4655540">
        <ele>1150.0</ele>
        <time>2021-08-21T06:09:10Z</time>
      </trkpt>
      <trkpt lat="42.7493440" lon="-5.4655390">
        <ele>1149.0</ele>
        <time>2021-08-21T06:09:11Z</time>
      </trkpt>
      <trkpt lat="42.7493620" lon="-5.4655260">
        <ele>1149.0</ele>
        <time>2021-08-21T06:09:12Z</time>
      </trkpt>
      <trkpt lat="42.7493820" lon="-5.4655140">
        <ele>1149.0</ele>
        <time>2021-08-21T06:09:13Z</time>
      </trkpt>
      <trkpt lat="42.7494010" lon="-5.4655050">
        <ele>1149.0</ele>
        <time>2021-08-21T06:09:14Z</time>
      </trkpt>
      <trkpt lat="42.7494220" lon="-5.4654990">
        <ele>1149.0</ele>
        <time>2021-08-21T06:09:15Z</time>
      </trkpt>
      <trkpt lat="42.7494420" lon="-5.4654900">
        <ele>1149.0</ele>
        <time>2021-08-21T06:09:16Z</time>
      </trkpt>
      <trkpt lat="42.7494650" lon="-5.4654790">
        <ele>1149.0</ele>
        <time>2021-08-21T06:09:17Z</time>
      </trkpt>
      <trkpt lat="42.7494860" lon="-5.4654650">
        <ele>1149.0</ele>
        <time>2021-08-21T06:09:18Z</time>
      </trkpt>
      <trkpt lat="42.7495150" lon="-5.4654490">
        <ele>1149.0</ele>
        <time>2021-08-21T06:09:19Z</time>
      </trkpt>
      <trkpt lat="42.7495250" lon="-5.4654420">
        <ele>1149.0</ele>
        <time>2021-08-21T06:09:20Z</time>
      </trkpt>
      <trkpt lat="42.7495450" lon="-5.4654260">
        <ele>1149.0</ele>
        <time>2021-08-21T06:09:21Z</time>
      </trkpt>
      <trkpt lat="42.7495660" lon="-5.4654130">
        <ele>1149.0</ele>
        <time>2021-08-21T06:09:22Z</time>
      </trkpt>
      <trkpt lat="42.7495980" lon="-5.4653920">
        <ele>1149.0</ele>
        <time>2021-08-21T06:09:23Z</time>
      </trkpt>
      <trkpt lat="42.7496080" lon="-5.4653850">
        <ele>1149.0</ele>
        <time>2021-08-21T06:09:24Z</time>
      </trkpt>
      <trkpt lat="42.7496360" lon="-5.4653650">
        <ele>1149.0</ele>
        <time>2021-08-21T06:09:25Z</time>
      </trkpt>
      <trkpt lat="42.7496450" lon="-5.4653590">
        <ele>1150.0</ele>
        <time>2021-08-21T06:09:26Z</time>
      </trkpt>
      <trkpt lat="42.7496640" lon="-5.4653440">
        <ele>1150.0</ele>
        <time>2021-08-21T06:09:27Z</time>
      </trkpt>
      <trkpt lat="42.7496830" lon="-5.4653330">
        <ele>1150.0</ele>
        <time>2021-08-21T06:09:28Z</time>
      </trkpt>
      <trkpt lat="42.7497050" lon="-5.4653200">
        <ele>1150.0</ele>
        <time>2021-08-21T06:09:29Z</time>
      </trkpt>
      <trkpt lat="42.7497270" lon="-5.4653050">
        <ele>1150.0</ele>
        <time>2021-08-21T06:09:30Z</time>
      </trkpt>
      <trkpt lat="42.7497490" lon="-5.4652900">
        <ele>1150.0</ele>
        <time>2021-08-21T06:09:31Z</time>
      </trkpt>
      <trkpt lat="42.7497690" lon="-5.4652750">
        <ele>1150.0</ele>
        <time>2021-08-21T06:09:32Z</time>
      </trkpt>
      <trkpt lat="42.7497880" lon="-5.4652610">
        <ele>1150.0</ele>
        <time>2021-08-21T06:09:33Z</time>
      </trkpt>
      <trkpt lat="42.7498080" lon="-5.4652480">
        <ele>1150.0</ele>
        <time>2021-08-21T06:09:34Z</time>
      </trkpt>
      <trkpt lat="42.7498300" lon="-5.4652350">
        <ele>1150.0</ele>
        <time>2021-08-21T06:09:35Z</time>
      </trkpt>
      <trkpt lat="42.7498490" lon="-5.4652200">
        <ele>1150.0</ele>
        <time>2021-08-21T06:09:36Z</time>
      </trkpt>
      <trkpt lat="42.7498700" lon="-5.4652030">
        <ele>1150.0</ele>
        <time>2021-08-21T06:09:37Z</time>
      </trkpt>
      <trkpt lat="42.7499020" lon="-5.4651810">
        <ele>1150.0</ele>
        <time>2021-08-21T06:09:38Z</time>
      </trkpt>
      <trkpt lat="42.7499120" lon="-5.4651730">
        <ele>1151.0</ele>
        <time>2021-08-21T06:09:39Z</time>
      </trkpt>
      <trkpt lat="42.7499340" lon="-5.4651590">
        <ele>1151.0</ele>
        <time>2021-08-21T06:09:40Z</time>
      </trkpt>
      <trkpt lat="42.7499630" lon="-5.4651390">
        <ele>1151.0</ele>
        <time>2021-08-21T06:09:41Z</time>
      </trkpt>
      <trkpt lat="42.7499720" lon="-5.4651310">
        <ele>1151.0</ele>
        <time>2021-08-21T06:09:42Z</time>
      </trkpt>
      <trkpt lat="42.7499930" lon="-5.4651150">
        <ele>1151.0</ele>
        <time>2021-08-21T06:09:43Z</time>
      </trkpt>
      <trkpt lat="42.7500140" lon="-5.4651010">
        <ele>1151.0</ele>
        <time>2021-08-21T06:09:44Z</time>
      </trkpt>
      <trkpt lat="42.7500360" lon="-5.4650870">
        <ele>1151.0</ele>
        <time>2021-08-21T06:09:45Z</time>
      </trkpt>
      <trkpt lat="42.7500570" lon="-5.4650720">
        <ele>1151.0</ele>
        <time>2021-08-21T06:09:46Z</time>
      </trkpt>
      <trkpt lat="42.7500780" lon="-5.4650580">
        <ele>1151.0</ele>
        <time>2021-08-21T06:09:47Z</time>
      </trkpt>
      <trkpt lat="42.7501110" lon="-5.4650400">
        <ele>1151.0</ele>
        <time>2021-08-21T06:09:48Z</time>
      </trkpt>
      <trkpt lat="42.7501220" lon="-5.4650340">
        <ele>1151.0</ele>
        <time>2021-08-21T06:09:49Z</time>
      </trkpt>
      <trkpt lat="42.7501440" lon="-5.4650220">
        <ele>1151.0</ele>
        <time>2021-08-21T06:09:50Z</time>
      </trkpt>
      <trkpt lat="42.7501680" lon="-5.4650070">
        <ele>1151.0</ele>
        <time>2021-08-21T06:09:51Z</time>
      </trkpt>
      <trkpt lat="42.7501940" lon="-5.4649940">
        <ele>1152.0</ele>
        <time>2021-08-21T06:09:52Z</time>
      </trkpt>
      <trkpt lat="42.7502200" lon="-5.4649850">
        <ele>1152.0</ele>
        <time>2021-08-21T06:09:53Z</time>
      </trkpt>
      <trkpt lat="42.7502450" lon="-5.4649770">
        <ele>1152.0</ele>
        <time>2021-08-21T06:09:54Z</time>
      </trkpt>
      <trkpt lat="42.7502700" lon="-5.4649670">
        <ele>1152.0</ele>
        <time>2021-08-21T06:09:55Z</time>
      </trkpt>
      <trkpt lat="42.7502950" lon="-5.4649570">
        <ele>1152.0</ele>
        <time>2021-08-21T06:09:56Z</time>
      </trkpt>
      <trkpt lat="42.7503200" lon="-5.4649490">
        <ele>1152.0</ele>
        <time>2021-08-21T06:09:57Z</time>
      </trkpt>
      <trkpt lat="42.7503430" lon="-5.4649390">
        <ele>1152.0</ele>
        <time>2021-08-21T06:09:58Z</time>
      </trkpt>
      <trkpt lat="42.7503640" lon="-5.4649320">
        <ele>1152.0</ele>
        <time>2021-08-21T06:09:59Z</time>
      </trkpt>
      <trkpt lat="42.7503890" lon="-5.4649270">
        <ele>1152.0</ele>
        <time>2021-08-21T06:10:00Z</time>
      </trkpt>
      <trkpt lat="42.7504120" lon="-5.4649260">
        <ele>1152.0</ele>
        <time>2021-08-21T06:10:01Z</time>
      </trkpt>
      <trkpt lat="42.7504360" lon="-5.4649280">
        <ele>1153.0</ele>
        <time>2021-08-21T06:10:02Z</time>
      </trkpt>
      <trkpt lat="42.7504640" lon="-5.4649280">
        <ele>1153.0</ele>
        <time>2021-08-21T06:10:03Z</time>
      </trkpt>
      <trkpt lat="42.7504890" lon="-5.4649290">
        <ele>1153.0</ele>
        <time>2021-08-21T06:10:04Z</time>
      </trkpt>
      <trkpt lat="42.7505150" lon="-5.4649320">
        <ele>1153.0</ele>
        <time>2021-08-21T06:10:05Z</time>
      </trkpt>
      <trkpt lat="42.7505380" lon="-5.4649350">
        <ele>1154.0</ele>
        <time>2021-08-21T06:10:06Z</time>
      </trkpt>
      <trkpt lat="42.7505640" lon="-5.4649350">
        <ele>1154.0</ele>
        <time>2021-08-21T06:10:07Z</time>
      </trkpt>
      <trkpt lat="42.7505890" lon="-5.4649380">
        <ele>1154.0</ele>
        <time>2021-08-21T06:10:08Z</time>
      </trkpt>
      <trkpt lat="42.7506160" lon="-5.4649420">
        <ele>1154.0</ele>
        <time>2021-08-21T06:10:09Z</time>
      </trkpt>
      <trkpt lat="42.7506420" lon="-5.4649480">
        <ele>1154.0</ele>
        <time>2021-08-21T06:10:10Z</time>
      </trkpt>
      <trkpt lat="42.7506660" lon="-5.4649530">
        <ele>1154.0</ele>
        <time>2021-08-21T06:10:11Z</time>
      </trkpt>
      <trkpt lat="42.7506920" lon="-5.4649580">
        <ele>1154.0</ele>
        <time>2021-08-21T06:10:12Z</time>
      </trkpt>
      <trkpt lat="42.7507200" lon="-5.4649640">
        <ele>1154.0</ele>
        <time>2021-08-21T06:10:13Z</time>
      </trkpt>
      <trkpt lat="42.7507480" lon="-5.4649670">
        <ele>1154.0</ele>
        <time>2021-08-21T06:10:14Z</time>
      </trkpt>
      <trkpt lat="42.7507760" lon="-5.4649690">
        <ele>1154.0</ele>
        <time>2021-08-21T06:10:15Z</time>
      </trkpt>
      <trkpt lat="42.7508010" lon="-5.4649740">
        <ele>1154.0</ele>
        <time>2021-08-21T06:10:16Z</time>
      </trkpt>
      <trkpt lat="42.7508280" lon="-5.4649800">
        <ele>1154.0</ele>
        <time>2021-08-21T06:10:17Z</time>
      </trkpt>
      <trkpt lat="42.7508580" lon="-5.4649830">
        <ele>1154.0</ele>
        <time>2021-08-21T06:10:18Z</time>
      </trkpt>
      <trkpt lat="42.7508850" lon="-5.4649870">
        <ele>1154.0</ele>
        <time>2021-08-21T06:10:19Z</time>
      </trkpt>
      <trkpt lat="42.7509120" lon="-5.4649920">
        <ele>1154.0</ele>
        <time>2021-08-21T06:10:20Z</time>
      </trkpt>
      <trkpt lat="42.7509380" lon="-5.4649970">
        <ele>1154.0</ele>
        <time>2021-08-21T06:10:21Z</time>
      </trkpt>
      <trkpt lat="42.7509670" lon="-5.4650010">
        <ele>1154.0</ele>
        <time>2021-08-21T06:10:22Z</time>
      </trkpt>
      <trkpt lat="42.7509960" lon="-5.4650040">
        <ele>1154.0</ele>
        <time>2021-08-21T06:10:23Z</time>
      </trkpt>
      <trkpt lat="42.7510250" lon="-5.4650060">
        <ele>1154.0</ele>
        <time>2021-08-21T06:10:24Z</time>
      </trkpt>
      <trkpt lat="42.7510660" lon="-5.4650130">
        <ele>1154.0</ele>
        <time>2021-08-21T06:10:25Z</time>
      </trkpt>
      <trkpt lat="42.7510790" lon="-5.4650160">
        <ele>1153.0</ele>
        <time>2021-08-21T06:10:26Z</time>
      </trkpt>
      <trkpt lat="42.7511060" lon="-5.4650190">
        <ele>1154.0</ele>
        <time>2021-08-21T06:10:27Z</time>
      </trkpt>
      <trkpt lat="42.7511320" lon="-5.4650200">
        <ele>1154.0</ele>
        <time>2021-08-21T06:10:28Z</time>
      </trkpt>
      <trkpt lat="42.7511620" lon="-5.4650200">
        <ele>1154.0</ele>
        <time>2021-08-21T06:10:29Z</time>
      </trkpt>
      <trkpt lat="42.7511900" lon="-5.4650200">
        <ele>1154.0</ele>
        <time>2021-08-21T06:10:30Z</time>
      </trkpt>
      <trkpt lat="42.7512170" lon="-5.4650220">
        <ele>1154.0</ele>
        <time>2021-08-21T06:10:31Z</time>
      </trkpt>
      <trkpt lat="42.7512590" lon="-5.4650250">
        <ele>1154.0</ele>
        <time>2021-08-21T06:10:32Z</time>
      </trkpt>
      <trkpt lat="42.7512720" lon="-5.4650270">
        <ele>1154.0</ele>
        <time>2021-08-21T06:10:33Z</time>
      </trkpt>
      <trkpt lat="42.7512980" lon="-5.4650310">
        <ele>1154.0</ele>
        <time>2021-08-21T06:10:34Z</time>
      </trkpt>
      <trkpt lat="42.7513250" lon="-5.4650330">
        <ele>1154.0</ele>
        <time>2021-08-21T06:10:35Z</time>
      </trkpt>
      <trkpt lat="42.7513510" lon="-5.4650330">
        <ele>1154.0</ele>
        <time>2021-08-21T06:10:36Z</time>
      </trkpt>
      <trkpt lat="42.7513780" lon="-5.4650310">
        <ele>1154.0</ele>
        <time>2021-08-21T06:10:37Z</time>
      </trkpt>
      <trkpt lat="42.7514050" lon="-5.4650320">
        <ele>1154.0</ele>
        <time>2021-08-21T06:10:38Z</time>
      </trkpt>
      <trkpt lat="42.7514480" lon="-5.4650320">
        <ele>1154.0</ele>
        <time>2021-08-21T06:10:39Z</time>
      </trkpt>
      <trkpt lat="42.7514610" lon="-5.4650320">
        <ele>1154.0</ele>
        <time>2021-08-21T06:10:40Z</time>
      </trkpt>
      <trkpt lat="42.7514910" lon="-5.4650320">
        <ele>1154.0</ele>
        <time>2021-08-21T06:10:41Z</time>
      </trkpt>
      <trkpt lat="42.7515350" lon="-5.4650310">
        <ele>1154.0</ele>
        <time>2021-08-21T06:10:42Z</time>
      </trkpt>
      <trkpt lat="42.7515500" lon="-5.4650300">
        <ele>1153.0</ele>
        <time>2021-08-21T06:10:43Z</time>
      </trkpt>
      <trkpt lat="42.7515930" lon="-5.4650290">
        <ele>1153.0</ele>
        <time>2021-08-21T06:10:44Z</time>
      </trkpt>
      <trkpt lat="42.7516070" lon="-5.4650290">
        <ele>1153.0</ele>
        <time>2021-08-21T06:10:45Z</time>
      </trkpt>
      <trkpt lat="42.7516310" lon="-5.4650300">
        <ele>1153.0</ele>
        <time>2021-08-21T06:10:46Z</time>
      </trkpt>
      <trkpt lat="42.7516550" lon="-5.4650330">
        <ele>1153.0</ele>
        <time>2021-08-21T06:10:47Z</time>
      </trkpt>
      <trkpt lat="42.7516820" lon="-5.4650380">
        <ele>1153.0</ele>
        <time>2021-08-21T06:10:48Z</time>
      </trkpt>
      <trkpt lat="42.7517080" lon="-5.4650460">
        <ele>1153.0</ele>
        <time>2021-08-21T06:10:49Z</time>
      </trkpt>
      <trkpt lat="42.7517340" lon="-5.4650540">
        <ele>1153.0</ele>
        <time>2021-08-21T06:10:50Z</time>
      </trkpt>
      <trkpt lat="42.7517610" lon="-5.4650600">
        <ele>1153.0</ele>
        <time>2021-08-21T06:10:51Z</time>
      </trkpt>
      <trkpt lat="42.7517880" lon="-5.4650700">
        <ele>1153.0</ele>
        <time>2021-08-21T06:10:52Z</time>
      </trkpt>
      <trkpt lat="42.7518170" lon="-5.4650780">
        <ele>1153.0</ele>
        <time>2021-08-21T06:10:53Z</time>
      </trkpt>
      <trkpt lat="42.7518590" lon="-5.4650920">
        <ele>1153.0</ele>
        <time>2021-08-21T06:10:54Z</time>
      </trkpt>
      <trkpt lat="42.7518710" lon="-5.4650970">
        <ele>1153.0</ele>
        <time>2021-08-21T06:10:55Z</time>
      </trkpt>
      <trkpt lat="42.7518940" lon="-5.4651070">
        <ele>1153.0</ele>
        <time>2021-08-21T06:10:56Z</time>
      </trkpt>
      <trkpt lat="42.7519170" lon="-5.4651170">
        <ele>1153.0</ele>
        <time>2021-08-21T06:10:57Z</time>
      </trkpt>
      <trkpt lat="42.7519400" lon="-5.4651300">
        <ele>1153.0</ele>
        <time>2021-08-21T06:10:58Z</time>
      </trkpt>
      <trkpt lat="42.7519650" lon="-5.4651420">
        <ele>1153.0</ele>
        <time>2021-08-21T06:10:59Z</time>
      </trkpt>
      <trkpt lat="42.7519860" lon="-5.4651540">
        <ele>1153.0</ele>
        <time>2021-08-21T06:11:00Z</time>
      </trkpt>
      <trkpt lat="42.7520080" lon="-5.4651630">
        <ele>1153.0</ele>
        <time>2021-08-21T06:11:01Z</time>
      </trkpt>
      <trkpt lat="42.7520320" lon="-5.4651760">
        <ele>1153.0</ele>
        <time>2021-08-21T06:11:02Z</time>
      </trkpt>
      <trkpt lat="42.7520550" lon="-5.4651910">
        <ele>1153.0</ele>
        <time>2021-08-21T06:11:03Z</time>
      </trkpt>
      <trkpt lat="42.7520910" lon="-5.4652110">
        <ele>1153.0</ele>
        <time>2021-08-21T06:11:04Z</time>
      </trkpt>
      <trkpt lat="42.7521020" lon="-5.4652170">
        <ele>1154.0</ele>
        <time>2021-08-21T06:11:05Z</time>
      </trkpt>
      <trkpt lat="42.7521240" lon="-5.4652280">
        <ele>1154.0</ele>
        <time>2021-08-21T06:11:06Z</time>
      </trkpt>
      <trkpt lat="42.7521490" lon="-5.4652400">
        <ele>1154.0</ele>
        <time>2021-08-21T06:11:07Z</time>
      </trkpt>
      <trkpt lat="42.7521730" lon="-5.4652490">
        <ele>1154.0</ele>
        <time>2021-08-21T06:11:08Z</time>
      </trkpt>
      <trkpt lat="42.7521950" lon="-5.4652590">
        <ele>1154.0</ele>
        <time>2021-08-21T06:11:09Z</time>
      </trkpt>
      <trkpt lat="42.7522190" lon="-5.4652680">
        <ele>1154.0</ele>
        <time>2021-08-21T06:11:10Z</time>
      </trkpt>
      <trkpt lat="42.7522450" lon="-5.4652790">
        <ele>1154.0</ele>
        <time>2021-08-21T06:11:11Z</time>
      </trkpt>
      <trkpt lat="42.7522660" lon="-5.4652890">
        <ele>1154.0</ele>
        <time>2021-08-21T06:11:12Z</time>
      </trkpt>
      <trkpt lat="42.7522880" lon="-5.4652990">
        <ele>1154.0</ele>
        <time>2021-08-21T06:11:13Z</time>
      </trkpt>
      <trkpt lat="42.7523130" lon="-5.4653070">
        <ele>1154.0</ele>
        <time>2021-08-21T06:11:14Z</time>
      </trkpt>
      <trkpt lat="42.7523380" lon="-5.4653200">
        <ele>1154.0</ele>
        <time>2021-08-21T06:11:15Z</time>
      </trkpt>
      <trkpt lat="42.7523630" lon="-5.4653280">
        <ele>1154.0</ele>
        <time>2021-08-21T06:11:16Z</time>
      </trkpt>
      <trkpt lat="42.7523890" lon="-5.4653330">
        <ele>1154.0</ele>
        <time>2021-08-21T06:11:17Z</time>
      </trkpt>
      <trkpt lat="42.7524160" lon="-5.4653370">
        <ele>1154.0</ele>
        <time>2021-08-21T06:11:18Z</time>
      </trkpt>
      <trkpt lat="42.7524430" lon="-5.4653450">
        <ele>1154.0</ele>
        <time>2021-08-21T06:11:19Z</time>
      </trkpt>
      <trkpt lat="42.7524800" lon="-5.4653600">
        <ele>1154.0</ele>
        <time>2021-08-21T06:11:20Z</time>
      </trkpt>
      <trkpt lat="42.7524930" lon="-5.4653650">
        <ele>1154.0</ele>
        <time>2021-08-21T06:11:21Z</time>
      </trkpt>
      <trkpt lat="42.7525430" lon="-5.4653790">
        <ele>1154.0</ele>
        <time>2021-08-21T06:11:22Z</time>
      </trkpt>
      <trkpt lat="42.7525670" lon="-5.4653880">
        <ele>1154.0</ele>
        <time>2021-08-21T06:11:24Z</time>
      </trkpt>
      <trkpt lat="42.7525930" lon="-5.4653980">
        <ele>1155.0</ele>
        <time>2021-08-21T06:11:25Z</time>
      </trkpt>
      <trkpt lat="42.7526190" lon="-5.4654080">
        <ele>1155.0</ele>
        <time>2021-08-21T06:11:26Z</time>
      </trkpt>
      <trkpt lat="42.7526440" lon="-5.4654170">
        <ele>1155.0</ele>
        <time>2021-08-21T06:11:27Z</time>
      </trkpt>
      <trkpt lat="42.7526680" lon="-5.4654280">
        <ele>1155.0</ele>
        <time>2021-08-21T06:11:28Z</time>
      </trkpt>
      <trkpt lat="42.7526920" lon="-5.4654330">
        <ele>1155.0</ele>
        <time>2021-08-21T06:11:29Z</time>
      </trkpt>
      <trkpt lat="42.7527130" lon="-5.4654380">
        <ele>1155.0</ele>
        <time>2021-08-21T06:11:30Z</time>
      </trkpt>
      <trkpt lat="42.7527380" lon="-5.4654420">
        <ele>1155.0</ele>
        <time>2021-08-21T06:11:31Z</time>
      </trkpt>
      <trkpt lat="42.7527760" lon="-5.4654510">
        <ele>1155.0</ele>
        <time>2021-08-21T06:11:32Z</time>
      </trkpt>
      <trkpt lat="42.7527890" lon="-5.4654550">
        <ele>1154.0</ele>
        <time>2021-08-21T06:11:33Z</time>
      </trkpt>
      <trkpt lat="42.7528140" lon="-5.4654610">
        <ele>1154.0</ele>
        <time>2021-08-21T06:11:34Z</time>
      </trkpt>
      <trkpt lat="42.7528380" lon="-5.4654650">
        <ele>1154.0</ele>
        <time>2021-08-21T06:11:35Z</time>
      </trkpt>
      <trkpt lat="42.7528640" lon="-5.4654680">
        <ele>1154.0</ele>
        <time>2021-08-21T06:11:36Z</time>
      </trkpt>
      <trkpt lat="42.7528900" lon="-5.4654720">
        <ele>1154.0</ele>
        <time>2021-08-21T06:11:37Z</time>
      </trkpt>
      <trkpt lat="42.7529190" lon="-5.4654770">
        <ele>1155.0</ele>
        <time>2021-08-21T06:11:38Z</time>
      </trkpt>
      <trkpt lat="42.7529480" lon="-5.4654850">
        <ele>1155.0</ele>
        <time>2021-08-21T06:11:39Z</time>
      </trkpt>
      <trkpt lat="42.7529770" lon="-5.4654910">
        <ele>1155.0</ele>
        <time>2021-08-21T06:11:40Z</time>
      </trkpt>
      <trkpt lat="42.7530050" lon="-5.4654920">
        <ele>1155.0</ele>
        <time>2021-08-21T06:11:41Z</time>
      </trkpt>
      <trkpt lat="42.7530050" lon="-5.4654920">
        <ele>1155.0</ele>
        <time>2021-08-21T06:11:43Z</time>
      </trkpt>
      <trkpt lat="42.7530310" lon="-5.4654620">
        <ele>1155.0</ele>
        <time>2021-08-21T06:11:44Z</time>
      </trkpt>
      <trkpt lat="42.7530570" lon="-5.4654420">
        <ele>1154.0</ele>
        <time>2021-08-21T06:11:45Z</time>
      </trkpt>
      <trkpt lat="42.7530800" lon="-5.4654140">
        <ele>1154.0</ele>
        <time>2021-08-21T06:11:46Z</time>
      </trkpt>
      <trkpt lat="42.7531120" lon="-5.4653760">
        <ele>1154.0</ele>
        <time>2021-08-21T06:11:47Z</time>
      </trkpt>
      <trkpt lat="42.7531230" lon="-5.4653620">
        <ele>1153.0</ele>
        <time>2021-08-21T06:11:48Z</time>
      </trkpt>
      <trkpt lat="42.7531410" lon="-5.4653310">
        <ele>1153.0</ele>
        <time>2021-08-21T06:11:49Z</time>
      </trkpt>
      <trkpt lat="42.7531580" lon="-5.4652990">
        <ele>1153.0</ele>
        <time>2021-08-21T06:11:50Z</time>
      </trkpt>
      <trkpt lat="42.7531730" lon="-5.4652700">
        <ele>1153.0</ele>
        <time>2021-08-21T06:11:51Z</time>
      </trkpt>
      <trkpt lat="42.7531870" lon="-5.4652410">
        <ele>1152.0</ele>
        <time>2021-08-21T06:11:52Z</time>
      </trkpt>
      <trkpt lat="42.7532000" lon="-5.4652120">
        <ele>1152.0</ele>
        <time>2021-08-21T06:11:53Z</time>
      </trkpt>
      <trkpt lat="42.7532080" lon="-5.4651820">
        <ele>1152.0</ele>
        <time>2021-08-21T06:11:54Z</time>
      </trkpt>
      <trkpt lat="42.7532170" lon="-5.4651520">
        <ele>1152.0</ele>
        <time>2021-08-21T06:11:55Z</time>
      </trkpt>
      <trkpt lat="42.7532250" lon="-5.4651190">
        <ele>1151.0</ele>
        <time>2021-08-21T06:11:56Z</time>
      </trkpt>
      <trkpt lat="42.7532350" lon="-5.4650880">
        <ele>1151.0</ele>
        <time>2021-08-21T06:11:57Z</time>
      </trkpt>
      <trkpt lat="42.7532410" lon="-5.4650570">
        <ele>1151.0</ele>
        <time>2021-08-21T06:11:58Z</time>
      </trkpt>
      <trkpt lat="42.7532500" lon="-5.4650260">
        <ele>1151.0</ele>
        <time>2021-08-21T06:11:59Z</time>
      </trkpt>
      <trkpt lat="42.7532550" lon="-5.4649770">
        <ele>1151.0</ele>
        <time>2021-08-21T06:12:00Z</time>
      </trkpt>
      <trkpt lat="42.7532570" lon="-5.4649620">
        <ele>1151.0</ele>
        <time>2021-08-21T06:12:01Z</time>
      </trkpt>
      <trkpt lat="42.7532640" lon="-5.4649160">
        <ele>1151.0</ele>
        <time>2021-08-21T06:12:02Z</time>
      </trkpt>
      <trkpt lat="42.7532660" lon="-5.4648990">
        <ele>1151.0</ele>
        <time>2021-08-21T06:12:03Z</time>
      </trkpt>
      <trkpt lat="42.7532720" lon="-5.4648680">
        <ele>1150.0</ele>
        <time>2021-08-21T06:12:04Z</time>
      </trkpt>
      <trkpt lat="42.7532780" lon="-5.4648380">
        <ele>1150.0</ele>
        <time>2021-08-21T06:12:05Z</time>
      </trkpt>
      <trkpt lat="42.7532870" lon="-5.4647940">
        <ele>1150.0</ele>
        <time>2021-08-21T06:12:06Z</time>
      </trkpt>
      <trkpt lat="42.7532890" lon="-5.4647790">
        <ele>1150.0</ele>
        <time>2021-08-21T06:12:07Z</time>
      </trkpt>
      <trkpt lat="42.7532940" lon="-5.4647500">
        <ele>1150.0</ele>
        <time>2021-08-21T06:12:08Z</time>
      </trkpt>
      <trkpt lat="42.7533010" lon="-5.4647210">
        <ele>1150.0</ele>
        <time>2021-08-21T06:12:09Z</time>
      </trkpt>
      <trkpt lat="42.7533070" lon="-5.4646930">
        <ele>1150.0</ele>
        <time>2021-08-21T06:12:10Z</time>
      </trkpt>
      <trkpt lat="42.7533150" lon="-5.4646640">
        <ele>1150.0</ele>
        <time>2021-08-21T06:12:11Z</time>
      </trkpt>
      <trkpt lat="42.7533280" lon="-5.4646220">
        <ele>1150.0</ele>
        <time>2021-08-21T06:12:12Z</time>
      </trkpt>
      <trkpt lat="42.7533320" lon="-5.4646080">
        <ele>1151.0</ele>
        <time>2021-08-21T06:12:13Z</time>
      </trkpt>
      <trkpt lat="42.7533400" lon="-5.4645810">
        <ele>1151.0</ele>
        <time>2021-08-21T06:12:14Z</time>
      </trkpt>
      <trkpt lat="42.7533490" lon="-5.4645550">
        <ele>1151.0</ele>
        <time>2021-08-21T06:12:15Z</time>
      </trkpt>
      <trkpt lat="42.7533560" lon="-5.4645300">
        <ele>1151.0</ele>
        <time>2021-08-21T06:12:16Z</time>
      </trkpt>
      <trkpt lat="42.7533650" lon="-5.4645050">
        <ele>1151.0</ele>
        <time>2021-08-21T06:12:17Z</time>
      </trkpt>
      <trkpt lat="42.7533740" lon="-5.4644830">
        <ele>1151.0</ele>
        <time>2021-08-21T06:12:18Z</time>
      </trkpt>
      <trkpt lat="42.7533820" lon="-5.4644600">
        <ele>1151.0</ele>
        <time>2021-08-21T06:12:19Z</time>
      </trkpt>
      <trkpt lat="42.7533940" lon="-5.4644340">
        <ele>1151.0</ele>
        <time>2021-08-21T06:12:20Z</time>
      </trkpt>
      <trkpt lat="42.7534030" lon="-5.4644110">
        <ele>1151.0</ele>
        <time>2021-08-21T06:12:21Z</time>
      </trkpt>
      <trkpt lat="42.7534100" lon="-5.4643850">
        <ele>1151.0</ele>
        <time>2021-08-21T06:12:22Z</time>
      </trkpt>
      <trkpt lat="42.7534180" lon="-5.4643600">
        <ele>1151.0</ele>
        <time>2021-08-21T06:12:23Z</time>
      </trkpt>
      <trkpt lat="42.7534310" lon="-5.4643350">
        <ele>1152.0</ele>
        <time>2021-08-21T06:12:24Z</time>
      </trkpt>
      <trkpt lat="42.7534420" lon="-5.4643080">
        <ele>1152.0</ele>
        <time>2021-08-21T06:12:25Z</time>
      </trkpt>
      <trkpt lat="42.7534550" lon="-5.4642810">
        <ele>1152.0</ele>
        <time>2021-08-21T06:12:26Z</time>
      </trkpt>
      <trkpt lat="42.7534680" lon="-5.4642540">
        <ele>1152.0</ele>
        <time>2021-08-21T06:12:27Z</time>
      </trkpt>
      <trkpt lat="42.7534810" lon="-5.4642260">
        <ele>1152.0</ele>
        <time>2021-08-21T06:12:28Z</time>
      </trkpt>
      <trkpt lat="42.7534950" lon="-5.4641990">
        <ele>1152.0</ele>
        <time>2021-08-21T06:12:29Z</time>
      </trkpt>
      <trkpt lat="42.7534950" lon="-5.4641990">
        <ele>1153.0</ele>
        <time>2021-08-21T06:12:30Z</time>
      </trkpt>
      <trkpt lat="42.7535190" lon="-5.4641490">
        <ele>1153.0</ele>
        <time>2021-08-21T06:12:31Z</time>
      </trkpt>
      <trkpt lat="42.7535320" lon="-5.4641230">
        <ele>1153.0</ele>
        <time>2021-08-21T06:12:32Z</time>
      </trkpt>
      <trkpt lat="42.7535480" lon="-5.4640870">
        <ele>1153.0</ele>
        <time>2021-08-21T06:12:33Z</time>
      </trkpt>
      <trkpt lat="42.7535530" lon="-5.4640750">
        <ele>1154.0</ele>
        <time>2021-08-21T06:12:34Z</time>
      </trkpt>
      <trkpt lat="42.7535650" lon="-5.4640500">
        <ele>1154.0</ele>
        <time>2021-08-21T06:12:35Z</time>
      </trkpt>
      <trkpt lat="42.7535780" lon="-5.4640140">
        <ele>1154.0</ele>
        <time>2021-08-21T06:12:36Z</time>
      </trkpt>
      <trkpt lat="42.7535830" lon="-5.4640020">
        <ele>1154.0</ele>
        <time>2021-08-21T06:12:37Z</time>
      </trkpt>
      <trkpt lat="42.7535940" lon="-5.4639780">
        <ele>1155.0</ele>
        <time>2021-08-21T06:12:38Z</time>
      </trkpt>
      <trkpt lat="42.7536060" lon="-5.4639530">
        <ele>1155.0</ele>
        <time>2021-08-21T06:12:39Z</time>
      </trkpt>
      <trkpt lat="42.7536170" lon="-5.4639320">
        <ele>1155.0</ele>
        <time>2021-08-21T06:12:40Z</time>
      </trkpt>
      <trkpt lat="42.7536280" lon="-5.4639110">
        <ele>1155.0</ele>
        <time>2021-08-21T06:12:41Z</time>
      </trkpt>
      <trkpt lat="42.7536430" lon="-5.4638920">
        <ele>1155.0</ele>
        <time>2021-08-21T06:12:42Z</time>
      </trkpt>
      <trkpt lat="42.7536580" lon="-5.4638760">
        <ele>1156.0</ele>
        <time>2021-08-21T06:12:43Z</time>
      </trkpt>
      <trkpt lat="42.7536580" lon="-5.4638760">
        <ele>1156.0</ele>
        <time>2021-08-21T06:12:44Z</time>
      </trkpt>
      <trkpt lat="42.7536900" lon="-5.4638450">
        <ele>1156.0</ele>
        <time>2021-08-21T06:12:45Z</time>
      </trkpt>
      <trkpt lat="42.7537070" lon="-5.4638310">
        <ele>1156.0</ele>
        <time>2021-08-21T06:12:46Z</time>
      </trkpt>
      <trkpt lat="42.7537240" lon="-5.4638160">
        <ele>1156.0</ele>
        <time>2021-08-21T06:12:47Z</time>
      </trkpt>
      <trkpt lat="42.7537420" lon="-5.4638010">
        <ele>1156.0</ele>
        <time>2021-08-21T06:12:48Z</time>
      </trkpt>
      <trkpt lat="42.7537420" lon="-5.4638010">
        <ele>1156.0</ele>
        <time>2021-08-21T06:12:49Z</time>
      </trkpt>
      <trkpt lat="42.7537970" lon="-5.4637640">
        <ele>1156.0</ele>
        <time>2021-08-21T06:12:50Z</time>
      </trkpt>
      <trkpt lat="42.7538070" lon="-5.4637570">
        <ele>1156.0</ele>
        <time>2021-08-21T06:12:51Z</time>
      </trkpt>
      <trkpt lat="42.7538260" lon="-5.4637460">
        <ele>1156.0</ele>
        <time>2021-08-21T06:12:52Z</time>
      </trkpt>
      <trkpt lat="42.7538490" lon="-5.4637370">
        <ele>1156.0</ele>
        <time>2021-08-21T06:12:53Z</time>
      </trkpt>
      <trkpt lat="42.7538750" lon="-5.4637280">
        <ele>1156.0</ele>
        <time>2021-08-21T06:12:54Z</time>
      </trkpt>
      <trkpt lat="42.7539010" lon="-5.4637210">
        <ele>1156.0</ele>
        <time>2021-08-21T06:12:55Z</time>
      </trkpt>
      <trkpt lat="42.7539260" lon="-5.4637150">
        <ele>1156.0</ele>
        <time>2021-08-21T06:12:56Z</time>
      </trkpt>
      <trkpt lat="42.7539510" lon="-5.4637100">
        <ele>1157.0</ele>
        <time>2021-08-21T06:12:57Z</time>
      </trkpt>
      <trkpt lat="42.7539880" lon="-5.4636990">
        <ele>1157.0</ele>
        <time>2021-08-21T06:12:58Z</time>
      </trkpt>
      <trkpt lat="42.7540000" lon="-5.4636950">
        <ele>1157.0</ele>
        <time>2021-08-21T06:12:59Z</time>
      </trkpt>
      <trkpt lat="42.7540260" lon="-5.4636870">
        <ele>1157.0</ele>
        <time>2021-08-21T06:13:00Z</time>
      </trkpt>
      <trkpt lat="42.7540480" lon="-5.4636810">
        <ele>1157.0</ele>
        <time>2021-08-21T06:13:01Z</time>
      </trkpt>
      <trkpt lat="42.7540700" lon="-5.4636790">
        <ele>1158.0</ele>
        <time>2021-08-21T06:13:02Z</time>
      </trkpt>
      <trkpt lat="42.7540910" lon="-5.4636750">
        <ele>1158.0</ele>
        <time>2021-08-21T06:13:03Z</time>
      </trkpt>
      <trkpt lat="42.7541150" lon="-5.4636650">
        <ele>1158.0</ele>
        <time>2021-08-21T06:13:04Z</time>
      </trkpt>
      <trkpt lat="42.7541410" lon="-5.4636520">
        <ele>1158.0</ele>
        <time>2021-08-21T06:13:05Z</time>
      </trkpt>
      <trkpt lat="42.7541650" lon="-5.4636420">
        <ele>1159.0</ele>
        <time>2021-08-21T06:13:06Z</time>
      </trkpt>
      <trkpt lat="42.7542140" lon="-5.4636240">
        <ele>1159.0</ele>
        <time>2021-08-21T06:13:07Z</time>
      </trkpt>
      <trkpt lat="42.7542390" lon="-5.4636140">
        <ele>1159.0</ele>
        <time>2021-08-21T06:13:09Z</time>
      </trkpt>
      <trkpt lat="42.7542650" lon="-5.4636040">
        <ele>1160.0</ele>
        <time>2021-08-21T06:13:10Z</time>
      </trkpt>
      <trkpt lat="42.7542920" lon="-5.4635940">
        <ele>1160.0</ele>
        <time>2021-08-21T06:13:11Z</time>
      </trkpt>
      <trkpt lat="42.7543190" lon="-5.4635810">
        <ele>1160.0</ele>
        <time>2021-08-21T06:13:12Z</time>
      </trkpt>
      <trkpt lat="42.7543430" lon="-5.4635700">
        <ele>1160.0</ele>
        <time>2021-08-21T06:13:13Z</time>
      </trkpt>
      <trkpt lat="42.7543680" lon="-5.4635620">
        <ele>1160.0</ele>
        <time>2021-08-21T06:13:14Z</time>
      </trkpt>
      <trkpt lat="42.7544050" lon="-5.4635470">
        <ele>1160.0</ele>
        <time>2021-08-21T06:13:15Z</time>
      </trkpt>
      <trkpt lat="42.7544170" lon="-5.4635430">
        <ele>1160.0</ele>
        <time>2021-08-21T06:13:16Z</time>
      </trkpt>
      <trkpt lat="42.7544540" lon="-5.4635320">
        <ele>1160.0</ele>
        <time>2021-08-21T06:13:17Z</time>
      </trkpt>
      <trkpt lat="42.7544660" lon="-5.4635270">
        <ele>1161.0</ele>
        <time>2021-08-21T06:13:18Z</time>
      </trkpt>
      <trkpt lat="42.7544900" lon="-5.4635210">
        <ele>1161.0</ele>
        <time>2021-08-21T06:13:19Z</time>
      </trkpt>
      <trkpt lat="42.7545280" lon="-5.4635100">
        <ele>1161.0</ele>
        <time>2021-08-21T06:13:20Z</time>
      </trkpt>
      <trkpt lat="42.7545410" lon="-5.4635060">
        <ele>1162.0</ele>
        <time>2021-08-21T06:13:21Z</time>
      </trkpt>
      <trkpt lat="42.7545770" lon="-5.4634920">
        <ele>1162.0</ele>
        <time>2021-08-21T06:13:22Z</time>
      </trkpt>
      <trkpt lat="42.7545880" lon="-5.4634870">
        <ele>1162.0</ele>
        <time>2021-08-21T06:13:23Z</time>
      </trkpt>
      <trkpt lat="42.7546260" lon="-5.4634770">
        <ele>1162.0</ele>
        <time>2021-08-21T06:13:24Z</time>
      </trkpt>
      <trkpt lat="42.7546390" lon="-5.4634730">
        <ele>1162.0</ele>
        <time>2021-08-21T06:13:25Z</time>
      </trkpt>
      <trkpt lat="42.7546770" lon="-5.4634620">
        <ele>1162.0</ele>
        <time>2021-08-21T06:13:26Z</time>
      </trkpt>
      <trkpt lat="42.7546910" lon="-5.4634570">
        <ele>1163.0</ele>
        <time>2021-08-21T06:13:27Z</time>
      </trkpt>
      <trkpt lat="42.7547180" lon="-5.4634470">
        <ele>1163.0</ele>
        <time>2021-08-21T06:13:28Z</time>
      </trkpt>
      <trkpt lat="42.7547590" lon="-5.4634310">
        <ele>1163.0</ele>
        <time>2021-08-21T06:13:29Z</time>
      </trkpt>
      <trkpt lat="42.7547720" lon="-5.4634260">
        <ele>1163.0</ele>
        <time>2021-08-21T06:13:30Z</time>
      </trkpt>
      <trkpt lat="42.7547990" lon="-5.4634180">
        <ele>1164.0</ele>
        <time>2021-08-21T06:13:31Z</time>
      </trkpt>
      <trkpt lat="42.7548260" lon="-5.4634090">
        <ele>1164.0</ele>
        <time>2021-08-21T06:13:32Z</time>
      </trkpt>
      <trkpt lat="42.7548520" lon="-5.4634010">
        <ele>1164.0</ele>
        <time>2021-08-21T06:13:33Z</time>
      </trkpt>
      <trkpt lat="42.7548940" lon="-5.4633860">
        <ele>1164.0</ele>
        <time>2021-08-21T06:13:34Z</time>
      </trkpt>
      <trkpt lat="42.7549080" lon="-5.4633800">
        <ele>1164.0</ele>
        <time>2021-08-21T06:13:35Z</time>
      </trkpt>
      <trkpt lat="42.7549380" lon="-5.4633740">
        <ele>1164.0</ele>
        <time>2021-08-21T06:13:36Z</time>
      </trkpt>
      <trkpt lat="42.7549830" lon="-5.4633580">
        <ele>1164.0</ele>
        <time>2021-08-21T06:13:37Z</time>
      </trkpt>
      <trkpt lat="42.7549980" lon="-5.4633530">
        <ele>1165.0</ele>
        <time>2021-08-21T06:13:38Z</time>
      </trkpt>
      <trkpt lat="42.7550410" lon="-5.4633410">
        <ele>1165.0</ele>
        <time>2021-08-21T06:13:39Z</time>
      </trkpt>
      <trkpt lat="42.7550560" lon="-5.4633360">
        <ele>1165.0</ele>
        <time>2021-08-21T06:13:40Z</time>
      </trkpt>
      <trkpt lat="42.7550830" lon="-5.4633280">
        <ele>1165.0</ele>
        <time>2021-08-21T06:13:41Z</time>
      </trkpt>
      <trkpt lat="42.7551120" lon="-5.4633170">
        <ele>1165.0</ele>
        <time>2021-08-21T06:13:42Z</time>
      </trkpt>
      <trkpt lat="42.7551380" lon="-5.4633030">
        <ele>1165.0</ele>
        <time>2021-08-21T06:13:43Z</time>
      </trkpt>
      <trkpt lat="42.7551640" lon="-5.4632890">
        <ele>1165.0</ele>
        <time>2021-08-21T06:13:44Z</time>
      </trkpt>
      <trkpt lat="42.7551920" lon="-5.4632740">
        <ele>1165.0</ele>
        <time>2021-08-21T06:13:45Z</time>
      </trkpt>
      <trkpt lat="42.7552220" lon="-5.4632600">
        <ele>1165.0</ele>
        <time>2021-08-21T06:13:46Z</time>
      </trkpt>
      <trkpt lat="42.7552520" lon="-5.4632430">
        <ele>1164.0</ele>
        <time>2021-08-21T06:13:47Z</time>
      </trkpt>
      <trkpt lat="42.7552820" lon="-5.4632290">
        <ele>1163.0</ele>
        <time>2021-08-21T06:13:48Z</time>
      </trkpt>
      <trkpt lat="42.7553090" lon="-5.4632210">
        <ele>1163.0</ele>
        <time>2021-08-21T06:13:49Z</time>
      </trkpt>
      <trkpt lat="42.7553330" lon="-5.4632130">
        <ele>1163.0</ele>
        <time>2021-08-21T06:13:50Z</time>
      </trkpt>
      <trkpt lat="42.7553580" lon="-5.4632020">
        <ele>1163.0</ele>
        <time>2021-08-21T06:13:51Z</time>
      </trkpt>
      <trkpt lat="42.7553840" lon="-5.4631950">
        <ele>1163.0</ele>
        <time>2021-08-21T06:13:52Z</time>
      </trkpt>
      <trkpt lat="42.7554070" lon="-5.4631890">
        <ele>1163.0</ele>
        <time>2021-08-21T06:13:53Z</time>
      </trkpt>
      <trkpt lat="42.7554300" lon="-5.4631800">
        <ele>1163.0</ele>
        <time>2021-08-21T06:13:54Z</time>
      </trkpt>
      <trkpt lat="42.7554570" lon="-5.4631740">
        <ele>1163.0</ele>
        <time>2021-08-21T06:13:55Z</time>
      </trkpt>
      <trkpt lat="42.7554840" lon="-5.4631640">
        <ele>1163.0</ele>
        <time>2021-08-21T06:13:56Z</time>
      </trkpt>
      <trkpt lat="42.7555240" lon="-5.4631520">
        <ele>1163.0</ele>
        <time>2021-08-21T06:13:57Z</time>
      </trkpt>
      <trkpt lat="42.7555370" lon="-5.4631470">
        <ele>1163.0</ele>
        <time>2021-08-21T06:13:58Z</time>
      </trkpt>
      <trkpt lat="42.7555650" lon="-5.4631380">
        <ele>1163.0</ele>
        <time>2021-08-21T06:13:59Z</time>
      </trkpt>
      <trkpt lat="42.7555930" lon="-5.4631350">
        <ele>1163.0</ele>
        <time>2021-08-21T06:14:00Z</time>
      </trkpt>
      <trkpt lat="42.7556190" lon="-5.4631320">
        <ele>1163.0</ele>
        <time>2021-08-21T06:14:01Z</time>
      </trkpt>
      <trkpt lat="42.7556580" lon="-5.4631320">
        <ele>1163.0</ele>
        <time>2021-08-21T06:14:02Z</time>
      </trkpt>
      <trkpt lat="42.7556710" lon="-5.4631330">
        <ele>1164.0</ele>
        <time>2021-08-21T06:14:03Z</time>
      </trkpt>
      <trkpt lat="42.7557110" lon="-5.4631380">
        <ele>1164.0</ele>
        <time>2021-08-21T06:14:04Z</time>
      </trkpt>
      <trkpt lat="42.7557250" lon="-5.4631400">
        <ele>1164.0</ele>
        <time>2021-08-21T06:14:05Z</time>
      </trkpt>
      <trkpt lat="42.7557500" lon="-5.4631440">
        <ele>1164.0</ele>
        <time>2021-08-21T06:14:06Z</time>
      </trkpt>
      <trkpt lat="42.7557770" lon="-5.4631530">
        <ele>1164.0</ele>
        <time>2021-08-21T06:14:07Z</time>
      </trkpt>
      <trkpt lat="42.7558020" lon="-5.4631610">
        <ele>1165.0</ele>
        <time>2021-08-21T06:14:08Z</time>
      </trkpt>
      <trkpt lat="42.7558300" lon="-5.4631690">
        <ele>1165.0</ele>
        <time>2021-08-21T06:14:09Z</time>
      </trkpt>
      <trkpt lat="42.7558570" lon="-5.4631760">
        <ele>1165.0</ele>
        <time>2021-08-21T06:14:10Z</time>
      </trkpt>
      <trkpt lat="42.7558830" lon="-5.4631870">
        <ele>1165.0</ele>
        <time>2021-08-21T06:14:11Z</time>
      </trkpt>
      <trkpt lat="42.7559080" lon="-5.4631990">
        <ele>1165.0</ele>
        <time>2021-08-21T06:14:12Z</time>
      </trkpt>
      <trkpt lat="42.7559340" lon="-5.4632120">
        <ele>1165.0</ele>
        <time>2021-08-21T06:14:13Z</time>
      </trkpt>
      <trkpt lat="42.7559580" lon="-5.4632310">
        <ele>1165.0</ele>
        <time>2021-08-21T06:14:14Z</time>
      </trkpt>
      <trkpt lat="42.7559800" lon="-5.4632520">
        <ele>1165.0</ele>
        <time>2021-08-21T06:14:15Z</time>
      </trkpt>
      <trkpt lat="42.7560010" lon="-5.4632750">
        <ele>1165.0</ele>
        <time>2021-08-21T06:14:16Z</time>
      </trkpt>
      <trkpt lat="42.7560220" lon="-5.4632980">
        <ele>1165.0</ele>
        <time>2021-08-21T06:14:17Z</time>
      </trkpt>
      <trkpt lat="42.7560420" lon="-5.4633210">
        <ele>1165.0</ele>
        <time>2021-08-21T06:14:18Z</time>
      </trkpt>
      <trkpt lat="42.7560630" lon="-5.4633460">
        <ele>1164.0</ele>
        <time>2021-08-21T06:14:19Z</time>
      </trkpt>
      <trkpt lat="42.7560920" lon="-5.4633850">
        <ele>1164.0</ele>
        <time>2021-08-21T06:14:20Z</time>
      </trkpt>
      <trkpt lat="42.7561010" lon="-5.4634000">
        <ele>1164.0</ele>
        <time>2021-08-21T06:14:21Z</time>
      </trkpt>
      <trkpt lat="42.7561140" lon="-5.4634290">
        <ele>1164.0</ele>
        <time>2021-08-21T06:14:22Z</time>
      </trkpt>
      <trkpt lat="42.7561360" lon="-5.4634720">
        <ele>1164.0</ele>
        <time>2021-08-21T06:14:23Z</time>
      </trkpt>
      <trkpt lat="42.7561440" lon="-5.4634860">
        <ele>1164.0</ele>
        <time>2021-08-21T06:14:24Z</time>
      </trkpt>
      <trkpt lat="42.7561600" lon="-5.4635150">
        <ele>1164.0</ele>
        <time>2021-08-21T06:14:25Z</time>
      </trkpt>
      <trkpt lat="42.7561740" lon="-5.4635460">
        <ele>1164.0</ele>
        <time>2021-08-21T06:14:26Z</time>
      </trkpt>
      <trkpt lat="42.7561890" lon="-5.4635750">
        <ele>1163.0</ele>
        <time>2021-08-21T06:14:27Z</time>
      </trkpt>
      <trkpt lat="42.7562040" lon="-5.4636060">
        <ele>1163.0</ele>
        <time>2021-08-21T06:14:28Z</time>
      </trkpt>
      <trkpt lat="42.7562170" lon="-5.4636380">
        <ele>1163.0</ele>
        <time>2021-08-21T06:14:29Z</time>
      </trkpt>
      <trkpt lat="42.7562290" lon="-5.4636710">
        <ele>1163.0</ele>
        <time>2021-08-21T06:14:30Z</time>
      </trkpt>
      <trkpt lat="42.7562440" lon="-5.4637250">
        <ele>1163.0</ele>
        <time>2021-08-21T06:14:31Z</time>
      </trkpt>
      <trkpt lat="42.7562480" lon="-5.4637430">
        <ele>1163.0</ele>
        <time>2021-08-21T06:14:32Z</time>
      </trkpt>
      <trkpt lat="42.7562690" lon="-5.4637940">
        <ele>1163.0</ele>
        <time>2021-08-21T06:14:33Z</time>
      </trkpt>
      <trkpt lat="42.7562760" lon="-5.4638110">
        <ele>1163.0</ele>
        <time>2021-08-21T06:14:34Z</time>
      </trkpt>
      <trkpt lat="42.7562880" lon="-5.4638450">
        <ele>1162.0</ele>
        <time>2021-08-21T06:14:35Z</time>
      </trkpt>
      <trkpt lat="42.7563000" lon="-5.4638780">
        <ele>1162.0</ele>
        <time>2021-08-21T06:14:36Z</time>
      </trkpt>
      <trkpt lat="42.7563140" lon="-5.4639080">
        <ele>1162.0</ele>
        <time>2021-08-21T06:14:37Z</time>
      </trkpt>
      <trkpt lat="42.7563300" lon="-5.4639370">
        <ele>1162.0</ele>
        <time>2021-08-21T06:14:38Z</time>
      </trkpt>
      <trkpt lat="42.7563500" lon="-5.4639870">
        <ele>1162.0</ele>
        <time>2021-08-21T06:14:39Z</time>
      </trkpt>
      <trkpt lat="42.7563570" lon="-5.4640040">
        <ele>1162.0</ele>
        <time>2021-08-21T06:14:40Z</time>
      </trkpt>
      <trkpt lat="42.7563710" lon="-5.4640350">
        <ele>1162.0</ele>
        <time>2021-08-21T06:14:41Z</time>
      </trkpt>
      <trkpt lat="42.7563880" lon="-5.4640860">
        <ele>1162.0</ele>
        <time>2021-08-21T06:14:42Z</time>
      </trkpt>
      <trkpt lat="42.7563930" lon="-5.4641050">
        <ele>1162.0</ele>
        <time>2021-08-21T06:14:43Z</time>
      </trkpt>
      <trkpt lat="42.7564040" lon="-5.4641390">
        <ele>1162.0</ele>
        <time>2021-08-21T06:14:44Z</time>
      </trkpt>
      <trkpt lat="42.7564210" lon="-5.4641720">
        <ele>1162.0</ele>
        <time>2021-08-21T06:14:45Z</time>
      </trkpt>
      <trkpt lat="42.7564400" lon="-5.4642250">
        <ele>1162.0</ele>
        <time>2021-08-21T06:14:46Z</time>
      </trkpt>
      <trkpt lat="42.7564470" lon="-5.4642410">
        <ele>1162.0</ele>
        <time>2021-08-21T06:14:47Z</time>
      </trkpt>
      <trkpt lat="42.7564700" lon="-5.4642840">
        <ele>1162.0</ele>
        <time>2021-08-21T06:14:48Z</time>
      </trkpt>
      <trkpt lat="42.7564800" lon="-5.4642980">
        <ele>1162.0</ele>
        <time>2021-08-21T06:14:49Z</time>
      </trkpt>
      <trkpt lat="42.7564980" lon="-5.4643260">
        <ele>1162.0</ele>
        <time>2021-08-21T06:14:50Z</time>
      </trkpt>
      <trkpt lat="42.7565170" lon="-5.4643550">
        <ele>1162.0</ele>
        <time>2021-08-21T06:14:51Z</time>
      </trkpt>
      <trkpt lat="42.7565360" lon="-5.4643850">
        <ele>1162.0</ele>
        <time>2021-08-21T06:14:52Z</time>
      </trkpt>
      <trkpt lat="42.7565490" lon="-5.4644180">
        <ele>1162.0</ele>
        <time>2021-08-21T06:14:53Z</time>
      </trkpt>
      <trkpt lat="42.7565610" lon="-5.4644530">
        <ele>1162.0</ele>
        <time>2021-08-21T06:14:54Z</time>
      </trkpt>
      <trkpt lat="42.7565750" lon="-5.4644850">
        <ele>1162.0</ele>
        <time>2021-08-21T06:14:55Z</time>
      </trkpt>
      <trkpt lat="42.7565890" lon="-5.4645170">
        <ele>1162.0</ele>
        <time>2021-08-21T06:14:56Z</time>
      </trkpt>
      <trkpt lat="42.7566000" lon="-5.4645490">
        <ele>1162.0</ele>
        <time>2021-08-21T06:14:57Z</time>
      </trkpt>
      <trkpt lat="42.7566120" lon="-5.4645830">
        <ele>1162.0</ele>
        <time>2021-08-21T06:14:58Z</time>
      </trkpt>
      <trkpt lat="42.7566240" lon="-5.4646150">
        <ele>1162.0</ele>
        <time>2021-08-21T06:14:59Z</time>
      </trkpt>
      <trkpt lat="42.7566360" lon="-5.4646480">
        <ele>1162.0</ele>
        <time>2021-08-21T06:15:00Z</time>
      </trkpt>
      <trkpt lat="42.7566540" lon="-5.4646980">
        <ele>1162.0</ele>
        <time>2021-08-21T06:15:01Z</time>
      </trkpt>
      <trkpt lat="42.7566600" lon="-5.4647140">
        <ele>1162.0</ele>
        <time>2021-08-21T06:15:02Z</time>
      </trkpt>
      <trkpt lat="42.7566750" lon="-5.4647620">
        <ele>1162.0</ele>
        <time>2021-08-21T06:15:03Z</time>
      </trkpt>
      <trkpt lat="42.7566820" lon="-5.4647800">
        <ele>1162.0</ele>
        <time>2021-08-21T06:15:04Z</time>
      </trkpt>
      <trkpt lat="42.7566940" lon="-5.4648130">
        <ele>1162.0</ele>
        <time>2021-08-21T06:15:05Z</time>
      </trkpt>
      <trkpt lat="42.7567040" lon="-5.4648460">
        <ele>1162.0</ele>
        <time>2021-08-21T06:15:06Z</time>
      </trkpt>
      <trkpt lat="42.7567180" lon="-5.4648990">
        <ele>1162.0</ele>
        <time>2021-08-21T06:15:07Z</time>
      </trkpt>
      <trkpt lat="42.7567230" lon="-5.4649160">
        <ele>1163.0</ele>
        <time>2021-08-21T06:15:08Z</time>
      </trkpt>
      <trkpt lat="42.7567350" lon="-5.4649470">
        <ele>1163.0</ele>
        <time>2021-08-21T06:15:09Z</time>
      </trkpt>
      <trkpt lat="42.7567420" lon="-5.4649830">
        <ele>1163.0</ele>
        <time>2021-08-21T06:15:10Z</time>
      </trkpt>
      <trkpt lat="42.7567570" lon="-5.4650310">
        <ele>1163.0</ele>
        <time>2021-08-21T06:15:11Z</time>
      </trkpt>
      <trkpt lat="42.7567630" lon="-5.4650470">
        <ele>1163.0</ele>
        <time>2021-08-21T06:15:12Z</time>
      </trkpt>
      <trkpt lat="42.7567770" lon="-5.4650780">
        <ele>1163.0</ele>
        <time>2021-08-21T06:15:13Z</time>
      </trkpt>
      <trkpt lat="42.7567960" lon="-5.4651070">
        <ele>1163.0</ele>
        <time>2021-08-21T06:15:14Z</time>
      </trkpt>
      <trkpt lat="42.7568240" lon="-5.4651500">
        <ele>1163.0</ele>
        <time>2021-08-21T06:15:15Z</time>
      </trkpt>
      <trkpt lat="42.7568330" lon="-5.4651660">
        <ele>1163.0</ele>
        <time>2021-08-21T06:15:16Z</time>
      </trkpt>
      <trkpt lat="42.7568510" lon="-5.4651930">
        <ele>1163.0</ele>
        <time>2021-08-21T06:15:17Z</time>
      </trkpt>
      <trkpt lat="42.7568660" lon="-5.4652230">
        <ele>1163.0</ele>
        <time>2021-08-21T06:15:18Z</time>
      </trkpt>
      <trkpt lat="42.7568780" lon="-5.4652530">
        <ele>1163.0</ele>
        <time>2021-08-21T06:15:19Z</time>
      </trkpt>
      <trkpt lat="42.7568940" lon="-5.4652810">
        <ele>1163.0</ele>
        <time>2021-08-21T06:15:20Z</time>
      </trkpt>
      <trkpt lat="42.7569100" lon="-5.4653090">
        <ele>1163.0</ele>
        <time>2021-08-21T06:15:21Z</time>
      </trkpt>
      <trkpt lat="42.7569100" lon="-5.4653090">
        <ele>1163.0</ele>
        <time>2021-08-21T06:15:22Z</time>
      </trkpt>
      <trkpt lat="42.7569400" lon="-5.4653680">
        <ele>1163.0</ele>
        <time>2021-08-21T06:15:23Z</time>
      </trkpt>
      <trkpt lat="42.7569580" lon="-5.4653960">
        <ele>1163.0</ele>
        <time>2021-08-21T06:15:24Z</time>
      </trkpt>
      <trkpt lat="42.7569740" lon="-5.4654240">
        <ele>1163.0</ele>
        <time>2021-08-21T06:15:25Z</time>
      </trkpt>
      <trkpt lat="42.7569920" lon="-5.4654520">
        <ele>1163.0</ele>
        <time>2021-08-21T06:15:26Z</time>
      </trkpt>
      <trkpt lat="42.7570060" lon="-5.4654860">
        <ele>1163.0</ele>
        <time>2021-08-21T06:15:27Z</time>
      </trkpt>
      <trkpt lat="42.7570210" lon="-5.4655170">
        <ele>1163.0</ele>
        <time>2021-08-21T06:15:28Z</time>
      </trkpt>
      <trkpt lat="42.7570360" lon="-5.4655470">
        <ele>1163.0</ele>
        <time>2021-08-21T06:15:29Z</time>
      </trkpt>
      <trkpt lat="42.7570490" lon="-5.4655790">
        <ele>1163.0</ele>
        <time>2021-08-21T06:15:30Z</time>
      </trkpt>
      <trkpt lat="42.7570670" lon="-5.4656060">
        <ele>1163.0</ele>
        <time>2021-08-21T06:15:31Z</time>
      </trkpt>
      <trkpt lat="42.7570870" lon="-5.4656290">
        <ele>1163.0</ele>
        <time>2021-08-21T06:15:32Z</time>
      </trkpt>
      <trkpt lat="42.7570990" lon="-5.4656530">
        <ele>1163.0</ele>
        <time>2021-08-21T06:15:33Z</time>
      </trkpt>
      <trkpt lat="42.7571180" lon="-5.4656960">
        <ele>1163.0</ele>
        <time>2021-08-21T06:15:34Z</time>
      </trkpt>
      <trkpt lat="42.7571240" lon="-5.4657100">
        <ele>1163.0</ele>
        <time>2021-08-21T06:15:35Z</time>
      </trkpt>
      <trkpt lat="42.7571530" lon="-5.4657480">
        <ele>1163.0</ele>
        <time>2021-08-21T06:15:36Z</time>
      </trkpt>
      <trkpt lat="42.7571600" lon="-5.4657620">
        <ele>1163.0</ele>
        <time>2021-08-21T06:15:37Z</time>
      </trkpt>
      <trkpt lat="42.7571800" lon="-5.4657900">
        <ele>1163.0</ele>
        <time>2021-08-21T06:15:38Z</time>
      </trkpt>
      <trkpt lat="42.7571980" lon="-5.4658160">
        <ele>1163.0</ele>
        <time>2021-08-21T06:15:39Z</time>
      </trkpt>
      <trkpt lat="42.7572170" lon="-5.4658400">
        <ele>1162.0</ele>
        <time>2021-08-21T06:15:40Z</time>
      </trkpt>
      <trkpt lat="42.7572360" lon="-5.4658640">
        <ele>1162.0</ele>
        <time>2021-08-21T06:15:41Z</time>
      </trkpt>
      <trkpt lat="42.7572560" lon="-5.4658860">
        <ele>1162.0</ele>
        <time>2021-08-21T06:15:42Z</time>
      </trkpt>
      <trkpt lat="42.7572730" lon="-5.4659080">
        <ele>1162.0</ele>
        <time>2021-08-21T06:15:43Z</time>
      </trkpt>
      <trkpt lat="42.7572920" lon="-5.4659290">
        <ele>1162.0</ele>
        <time>2021-08-21T06:15:44Z</time>
      </trkpt>
      <trkpt lat="42.7573160" lon="-5.4659510">
        <ele>1162.0</ele>
        <time>2021-08-21T06:15:45Z</time>
      </trkpt>
      <trkpt lat="42.7573430" lon="-5.4659710">
        <ele>1162.0</ele>
        <time>2021-08-21T06:15:46Z</time>
      </trkpt>
      <trkpt lat="42.7573680" lon="-5.4659920">
        <ele>1162.0</ele>
        <time>2021-08-21T06:15:47Z</time>
      </trkpt>
      <trkpt lat="42.7573910" lon="-5.4660090">
        <ele>1162.0</ele>
        <time>2021-08-21T06:15:48Z</time>
      </trkpt>
      <trkpt lat="42.7574150" lon="-5.4660290">
        <ele>1162.0</ele>
        <time>2021-08-21T06:15:49Z</time>
      </trkpt>
      <trkpt lat="42.7574400" lon="-5.4660470">
        <ele>1161.0</ele>
        <time>2021-08-21T06:15:50Z</time>
      </trkpt>
      <trkpt lat="42.7574650" lon="-5.4660640">
        <ele>1162.0</ele>
        <time>2021-08-21T06:15:51Z</time>
      </trkpt>
      <trkpt lat="42.7574880" lon="-5.4660820">
        <ele>1161.0</ele>
        <time>2021-08-21T06:15:52Z</time>
      </trkpt>
      <trkpt lat="42.7575130" lon="-5.4661040">
        <ele>1161.0</ele>
        <time>2021-08-21T06:15:53Z</time>
      </trkpt>
      <trkpt lat="42.7575310" lon="-5.4661300">
        <ele>1161.0</ele>
        <time>2021-08-21T06:15:54Z</time>
      </trkpt>
      <trkpt lat="42.7575510" lon="-5.4661510">
        <ele>1161.0</ele>
        <time>2021-08-21T06:15:55Z</time>
      </trkpt>
      <trkpt lat="42.7575720" lon="-5.4661700">
        <ele>1161.0</ele>
        <time>2021-08-21T06:15:56Z</time>
      </trkpt>
      <trkpt lat="42.7575960" lon="-5.4661900">
        <ele>1161.0</ele>
        <time>2021-08-21T06:15:57Z</time>
      </trkpt>
      <trkpt lat="42.7576260" lon="-5.4662090">
        <ele>1161.0</ele>
        <time>2021-08-21T06:15:58Z</time>
      </trkpt>
      <trkpt lat="42.7576480" lon="-5.4662300">
        <ele>1160.0</ele>
        <time>2021-08-21T06:15:59Z</time>
      </trkpt>
      <trkpt lat="42.7576730" lon="-5.4662440">
        <ele>1160.0</ele>
        <time>2021-08-21T06:16:00Z</time>
      </trkpt>
      <trkpt lat="42.7576970" lon="-5.4662580">
        <ele>1160.0</ele>
        <time>2021-08-21T06:16:01Z</time>
      </trkpt>
      <trkpt lat="42.7577210" lon="-5.4662720">
        <ele>1160.0</ele>
        <time>2021-08-21T06:16:02Z</time>
      </trkpt>
      <trkpt lat="42.7577480" lon="-5.4662880">
        <ele>1160.0</ele>
        <time>2021-08-21T06:16:03Z</time>
      </trkpt>
      <trkpt lat="42.7577790" lon="-5.4662990">
        <ele>1160.0</ele>
        <time>2021-08-21T06:16:04Z</time>
      </trkpt>
      <trkpt lat="42.7578060" lon="-5.4663100">
        <ele>1160.0</ele>
        <time>2021-08-21T06:16:05Z</time>
      </trkpt>
      <trkpt lat="42.7578320" lon="-5.4663210">
        <ele>1159.0</ele>
        <time>2021-08-21T06:16:06Z</time>
      </trkpt>
      <trkpt lat="42.7578610" lon="-5.4663290">
        <ele>1159.0</ele>
        <time>2021-08-21T06:16:07Z</time>
      </trkpt>
      <trkpt lat="42.7578890" lon="-5.4663360">
        <ele>1159.0</ele>
        <time>2021-08-21T06:16:08Z</time>
      </trkpt>
      <trkpt lat="42.7579170" lon="-5.4663420">
        <ele>1159.0</ele>
        <time>2021-08-21T06:16:09Z</time>
      </trkpt>
      <trkpt lat="42.7579440" lon="-5.4663460">
        <ele>1159.0</ele>
        <time>2021-08-21T06:16:10Z</time>
      </trkpt>
      <trkpt lat="42.7579880" lon="-5.4663480">
        <ele>1159.0</ele>
        <time>2021-08-21T06:16:11Z</time>
      </trkpt>
      <trkpt lat="42.7580040" lon="-5.4663460">
        <ele>1158.0</ele>
        <time>2021-08-21T06:16:12Z</time>
      </trkpt>
      <trkpt lat="42.7580370" lon="-5.4663440">
        <ele>1158.0</ele>
        <time>2021-08-21T06:16:13Z</time>
      </trkpt>
      <trkpt lat="42.7580710" lon="-5.4663440">
        <ele>1158.0</ele>
        <time>2021-08-21T06:16:14Z</time>
      </trkpt>
      <trkpt lat="42.7580990" lon="-5.4663450">
        <ele>1158.0</ele>
        <time>2021-08-21T06:16:15Z</time>
      </trkpt>
      <trkpt lat="42.7581290" lon="-5.4663480">
        <ele>1157.0</ele>
        <time>2021-08-21T06:16:16Z</time>
      </trkpt>
      <trkpt lat="42.7581590" lon="-5.4663500">
        <ele>1157.0</ele>
        <time>2021-08-21T06:16:17Z</time>
      </trkpt>
      <trkpt lat="42.7581860" lon="-5.4663510">
        <ele>1157.0</ele>
        <time>2021-08-21T06:16:18Z</time>
      </trkpt>
      <trkpt lat="42.7582140" lon="-5.4663500">
        <ele>1157.0</ele>
        <time>2021-08-21T06:16:19Z</time>
      </trkpt>
      <trkpt lat="42.7582410" lon="-5.4663480">
        <ele>1157.0</ele>
        <time>2021-08-21T06:16:20Z</time>
      </trkpt>
      <trkpt lat="42.7582690" lon="-5.4663490">
        <ele>1157.0</ele>
        <time>2021-08-21T06:16:21Z</time>
      </trkpt>
      <trkpt lat="42.7582990" lon="-5.4663460">
        <ele>1157.0</ele>
        <time>2021-08-21T06:16:22Z</time>
      </trkpt>
      <trkpt lat="42.7583310" lon="-5.4663440">
        <ele>1157.0</ele>
        <time>2021-08-21T06:16:23Z</time>
      </trkpt>
      <trkpt lat="42.7583610" lon="-5.4663470">
        <ele>1157.0</ele>
        <time>2021-08-21T06:16:24Z</time>
      </trkpt>
      <trkpt lat="42.7583900" lon="-5.4663510">
        <ele>1157.0</ele>
        <time>2021-08-21T06:16:25Z</time>
      </trkpt>
      <trkpt lat="42.7584190" lon="-5.4663520">
        <ele>1157.0</ele>
        <time>2021-08-21T06:16:26Z</time>
      </trkpt>
      <trkpt lat="42.7584480" lon="-5.4663490">
        <ele>1157.0</ele>
        <time>2021-08-21T06:16:27Z</time>
      </trkpt>
      <trkpt lat="42.7584780" lon="-5.4663440">
        <ele>1157.0</ele>
        <time>2021-08-21T06:16:28Z</time>
      </trkpt>
      <trkpt lat="42.7585070" lon="-5.4663410">
        <ele>1156.0</ele>
        <time>2021-08-21T06:16:29Z</time>
      </trkpt>
      <trkpt lat="42.7585380" lon="-5.4663390">
        <ele>1156.0</ele>
        <time>2021-08-21T06:16:30Z</time>
      </trkpt>
      <trkpt lat="42.7585740" lon="-5.4663340">
        <ele>1156.0</ele>
        <time>2021-08-21T06:16:31Z</time>
      </trkpt>
      <trkpt lat="42.7586020" lon="-5.4663300">
        <ele>1156.0</ele>
        <time>2021-08-21T06:16:32Z</time>
      </trkpt>
      <trkpt lat="42.7586310" lon="-5.4663270">
        <ele>1155.0</ele>
        <time>2021-08-21T06:16:33Z</time>
      </trkpt>
      <trkpt lat="42.7586620" lon="-5.4663250">
        <ele>1155.0</ele>
        <time>2021-08-21T06:16:34Z</time>
      </trkpt>
      <trkpt lat="42.7586920" lon="-5.4663270">
        <ele>1155.0</ele>
        <time>2021-08-21T06:16:35Z</time>
      </trkpt>
      <trkpt lat="42.7587430" lon="-5.4663210">
        <ele>1155.0</ele>
        <time>2021-08-21T06:16:36Z</time>
      </trkpt>
      <trkpt lat="42.7587590" lon="-5.4663180">
        <ele>1153.0</ele>
        <time>2021-08-21T06:16:37Z</time>
      </trkpt>
      <trkpt lat="42.7587930" lon="-5.4663140">
        <ele>1152.0</ele>
        <time>2021-08-21T06:16:38Z</time>
      </trkpt>
      <trkpt lat="42.7588270" lon="-5.4663150">
        <ele>1152.0</ele>
        <time>2021-08-21T06:16:39Z</time>
      </trkpt>
      <trkpt lat="42.7588610" lon="-5.4663170">
        <ele>1151.0</ele>
        <time>2021-08-21T06:16:40Z</time>
      </trkpt>
      <trkpt lat="42.7589100" lon="-5.4663190">
        <ele>1151.0</ele>
        <time>2021-08-21T06:16:41Z</time>
      </trkpt>
      <trkpt lat="42.7589250" lon="-5.4663180">
        <ele>1150.0</ele>
        <time>2021-08-21T06:16:42Z</time>
      </trkpt>
      <trkpt lat="42.7589560" lon="-5.4663170">
        <ele>1150.0</ele>
        <time>2021-08-21T06:16:43Z</time>
      </trkpt>
      <trkpt lat="42.7589850" lon="-5.4663120">
        <ele>1149.0</ele>
        <time>2021-08-21T06:16:44Z</time>
      </trkpt>
      <trkpt lat="42.7590160" lon="-5.4663080">
        <ele>1149.0</ele>
        <time>2021-08-21T06:16:45Z</time>
      </trkpt>
      <trkpt lat="42.7590440" lon="-5.4663070">
        <ele>1148.0</ele>
        <time>2021-08-21T06:16:46Z</time>
      </trkpt>
      <trkpt lat="42.7590810" lon="-5.4663040">
        <ele>1148.0</ele>
        <time>2021-08-21T06:16:47Z</time>
      </trkpt>
      <trkpt lat="42.7590940" lon="-5.4663030">
        <ele>1148.0</ele>
        <time>2021-08-21T06:16:48Z</time>
      </trkpt>
      <trkpt lat="42.7591180" lon="-5.4662990">
        <ele>1148.0</ele>
        <time>2021-08-21T06:16:49Z</time>
      </trkpt>
      <trkpt lat="42.7591450" lon="-5.4662950">
        <ele>1148.0</ele>
        <time>2021-08-21T06:16:50Z</time>
      </trkpt>
      <trkpt lat="42.7591880" lon="-5.4662890">
        <ele>1148.0</ele>
        <time>2021-08-21T06:16:51Z</time>
      </trkpt>
      <trkpt lat="42.7592020" lon="-5.4662870">
        <ele>1147.0</ele>
        <time>2021-08-21T06:16:52Z</time>
      </trkpt>
      <trkpt lat="42.7592300" lon="-5.4662850">
        <ele>1147.0</ele>
        <time>2021-08-21T06:16:53Z</time>
      </trkpt>
      <trkpt lat="42.7592560" lon="-5.4662840">
        <ele>1147.0</ele>
        <time>2021-08-21T06:16:54Z</time>
      </trkpt>
      <trkpt lat="42.7592960" lon="-5.4662850">
        <ele>1147.0</ele>
        <time>2021-08-21T06:16:55Z</time>
      </trkpt>
      <trkpt lat="42.7593090" lon="-5.4662850">
        <ele>1146.0</ele>
        <time>2021-08-21T06:16:56Z</time>
      </trkpt>
      <trkpt lat="42.7593370" lon="-5.4662830">
        <ele>1146.0</ele>
        <time>2021-08-21T06:16:57Z</time>
      </trkpt>
      <trkpt lat="42.7593650" lon="-5.4662800">
        <ele>1146.0</ele>
        <time>2021-08-21T06:16:58Z</time>
      </trkpt>
      <trkpt lat="42.7593940" lon="-5.4662780">
        <ele>1146.0</ele>
        <time>2021-08-21T06:16:59Z</time>
      </trkpt>
      <trkpt lat="42.7594240" lon="-5.4662790">
        <ele>1145.0</ele>
        <time>2021-08-21T06:17:00Z</time>
      </trkpt>
      <trkpt lat="42.7594550" lon="-5.4662800">
        <ele>1145.0</ele>
        <time>2021-08-21T06:17:01Z</time>
      </trkpt>
      <trkpt lat="42.7594840" lon="-5.4662790">
        <ele>1144.0</ele>
        <time>2021-08-21T06:17:02Z</time>
      </trkpt>
      <trkpt lat="42.7595100" lon="-5.4662780">
        <ele>1144.0</ele>
        <time>2021-08-21T06:17:03Z</time>
      </trkpt>
      <trkpt lat="42.7595500" lon="-5.4662730">
        <ele>1144.0</ele>
        <time>2021-08-21T06:17:04Z</time>
      </trkpt>
      <trkpt lat="42.7595630" lon="-5.4662710">
        <ele>1143.0</ele>
        <time>2021-08-21T06:17:05Z</time>
      </trkpt>
      <trkpt lat="42.7595880" lon="-5.4662690">
        <ele>1143.0</ele>
        <time>2021-08-21T06:17:06Z</time>
      </trkpt>
      <trkpt lat="42.7596130" lon="-5.4662670">
        <ele>1142.0</ele>
        <time>2021-08-21T06:17:07Z</time>
      </trkpt>
      <trkpt lat="42.7596410" lon="-5.4662640">
        <ele>1142.0</ele>
        <time>2021-08-21T06:17:08Z</time>
      </trkpt>
      <trkpt lat="42.7596650" lon="-5.4662630">
        <ele>1142.0</ele>
        <time>2021-08-21T06:17:09Z</time>
      </trkpt>
      <trkpt lat="42.7596910" lon="-5.4662640">
        <ele>1141.0</ele>
        <time>2021-08-21T06:17:10Z</time>
      </trkpt>
      <trkpt lat="42.7597200" lon="-5.4662620">
        <ele>1141.0</ele>
        <time>2021-08-21T06:17:11Z</time>
      </trkpt>
      <trkpt lat="42.7597480" lon="-5.4662620">
        <ele>1141.0</ele>
        <time>2021-08-21T06:17:12Z</time>
      </trkpt>
      <trkpt lat="42.7597770" lon="-5.4662610">
        <ele>1141.0</ele>
        <time>2021-08-21T06:17:13Z</time>
      </trkpt>
      <trkpt lat="42.7598040" lon="-5.4662590">
        <ele>1140.0</ele>
        <time>2021-08-21T06:17:14Z</time>
      </trkpt>
      <trkpt lat="42.7598330" lon="-5.4662550">
        <ele>1140.0</ele>
        <time>2021-08-21T06:17:15Z</time>
      </trkpt>
      <trkpt lat="42.7598610" lon="-5.4662500">
        <ele>1140.0</ele>
        <time>2021-08-21T06:17:16Z</time>
      </trkpt>
      <trkpt lat="42.7598880" lon="-5.4662480">
        <ele>1140.0</ele>
        <time>2021-08-21T06:17:17Z</time>
      </trkpt>
      <trkpt lat="42.7599170" lon="-5.4662450">
        <ele>1140.0</ele>
        <time>2021-08-21T06:17:18Z</time>
      </trkpt>
      <trkpt lat="42.7599620" lon="-5.4662450">
        <ele>1140.0</ele>
        <time>2021-08-21T06:17:19Z</time>
      </trkpt>
      <trkpt lat="42.7599780" lon="-5.4662450">
        <ele>1139.0</ele>
        <time>2021-08-21T06:17:20Z</time>
      </trkpt>
      <trkpt lat="42.7600040" lon="-5.4662460">
        <ele>1139.0</ele>
        <time>2021-08-21T06:17:21Z</time>
      </trkpt>
      <trkpt lat="42.7600500" lon="-5.4662420">
        <ele>1139.0</ele>
        <time>2021-08-21T06:17:22Z</time>
      </trkpt>
      <trkpt lat="42.7600650" lon="-5.4662400">
        <ele>1138.0</ele>
        <time>2021-08-21T06:17:23Z</time>
      </trkpt>
      <trkpt lat="42.7600970" lon="-5.4662380">
        <ele>1138.0</ele>
        <time>2021-08-21T06:17:24Z</time>
      </trkpt>
      <trkpt lat="42.7601260" lon="-5.4662390">
        <ele>1138.0</ele>
        <time>2021-08-21T06:17:25Z</time>
      </trkpt>
      <trkpt lat="42.7601540" lon="-5.4662400">
        <ele>1138.0</ele>
        <time>2021-08-21T06:17:26Z</time>
      </trkpt>
      <trkpt lat="42.7601820" lon="-5.4662380">
        <ele>1138.0</ele>
        <time>2021-08-21T06:17:27Z</time>
      </trkpt>
      <trkpt lat="42.7602110" lon="-5.4662380">
        <ele>1137.0</ele>
        <time>2021-08-21T06:17:28Z</time>
      </trkpt>
      <trkpt lat="42.7602390" lon="-5.4662370">
        <ele>1137.0</ele>
        <time>2021-08-21T06:17:29Z</time>
      </trkpt>
      <trkpt lat="42.7602650" lon="-5.4662380">
        <ele>1137.0</ele>
        <time>2021-08-21T06:17:30Z</time>
      </trkpt>
      <trkpt lat="42.7602910" lon="-5.4662400">
        <ele>1137.0</ele>
        <time>2021-08-21T06:17:31Z</time>
      </trkpt>
      <trkpt lat="42.7603170" lon="-5.4662450">
        <ele>1137.0</ele>
        <time>2021-08-21T06:17:32Z</time>
      </trkpt>
      <trkpt lat="42.7603430" lon="-5.4662490">
        <ele>1137.0</ele>
        <time>2021-08-21T06:17:33Z</time>
      </trkpt>
      <trkpt lat="42.7603710" lon="-5.4662510">
        <ele>1137.0</ele>
        <time>2021-08-21T06:17:34Z</time>
      </trkpt>
      <trkpt lat="42.7604000" lon="-5.4662530">
        <ele>1137.0</ele>
        <time>2021-08-21T06:17:35Z</time>
      </trkpt>
      <trkpt lat="42.7604420" lon="-5.4662510">
        <ele>1137.0</ele>
        <time>2021-08-21T06:17:36Z</time>
      </trkpt>
      <trkpt lat="42.7604570" lon="-5.4662490">
        <ele>1136.0</ele>
        <time>2021-08-21T06:17:37Z</time>
      </trkpt>
      <trkpt lat="42.7604840" lon="-5.4662460">
        <ele>1136.0</ele>
        <time>2021-08-21T06:17:38Z</time>
      </trkpt>
      <trkpt lat="42.7605270" lon="-5.4662430">
        <ele>1136.0</ele>
        <time>2021-08-21T06:17:39Z</time>
      </trkpt>
      <trkpt lat="42.7605410" lon="-5.4662420">
        <ele>1136.0</ele>
        <time>2021-08-21T06:17:40Z</time>
      </trkpt>
      <trkpt lat="42.7605680" lon="-5.4662400">
        <ele>1136.0</ele>
        <time>2021-08-21T06:17:41Z</time>
      </trkpt>
      <trkpt lat="42.7605920" lon="-5.4662420">
        <ele>1136.0</ele>
        <time>2021-08-21T06:17:42Z</time>
      </trkpt>
      <trkpt lat="42.7606190" lon="-5.4662430">
        <ele>1136.0</ele>
        <time>2021-08-21T06:17:43Z</time>
      </trkpt>
      <trkpt lat="42.7606450" lon="-5.4662470">
        <ele>1136.0</ele>
        <time>2021-08-21T06:17:44Z</time>
      </trkpt>
      <trkpt lat="42.7606710" lon="-5.4662510">
        <ele>1136.0</ele>
        <time>2021-08-21T06:17:45Z</time>
      </trkpt>
      <trkpt lat="42.7606970" lon="-5.4662560">
        <ele>1135.0</ele>
        <time>2021-08-21T06:17:46Z</time>
      </trkpt>
      <trkpt lat="42.7607220" lon="-5.4662600">
        <ele>1135.0</ele>
        <time>2021-08-21T06:17:47Z</time>
      </trkpt>
      <trkpt lat="42.7607470" lon="-5.4662650">
        <ele>1135.0</ele>
        <time>2021-08-21T06:17:48Z</time>
      </trkpt>
      <trkpt lat="42.7607710" lon="-5.4662690">
        <ele>1135.0</ele>
        <time>2021-08-21T06:17:49Z</time>
      </trkpt>
      <trkpt lat="42.7607950" lon="-5.4662730">
        <ele>1135.0</ele>
        <time>2021-08-21T06:17:50Z</time>
      </trkpt>
      <trkpt lat="42.7608190" lon="-5.4662780">
        <ele>1135.0</ele>
        <time>2021-08-21T06:17:51Z</time>
      </trkpt>
      <trkpt lat="42.7608430" lon="-5.4662820">
        <ele>1135.0</ele>
        <time>2021-08-21T06:17:52Z</time>
      </trkpt>
      <trkpt lat="42.7608670" lon="-5.4662850">
        <ele>1134.0</ele>
        <time>2021-08-21T06:17:53Z</time>
      </trkpt>
      <trkpt lat="42.7609030" lon="-5.4662900">
        <ele>1134.0</ele>
        <time>2021-08-21T06:17:54Z</time>
      </trkpt>
      <trkpt lat="42.7609140" lon="-5.4662920">
        <ele>1134.0</ele>
        <time>2021-08-21T06:17:55Z</time>
      </trkpt>
      <trkpt lat="42.7609380" lon="-5.4662950">
        <ele>1134.0</ele>
        <time>2021-08-21T06:17:56Z</time>
      </trkpt>
      <trkpt lat="42.7609760" lon="-5.4662990">
        <ele>1134.0</ele>
        <time>2021-08-21T06:17:57Z</time>
      </trkpt>
      <trkpt lat="42.7609880" lon="-5.4663000">
        <ele>1134.0</ele>
        <time>2021-08-21T06:17:58Z</time>
      </trkpt>
      <trkpt lat="42.7610110" lon="-5.4663010">
        <ele>1134.0</ele>
        <time>2021-08-21T06:17:59Z</time>
      </trkpt>
      <trkpt lat="42.7610350" lon="-5.4663020">
        <ele>1134.0</ele>
        <time>2021-08-21T06:18:00Z</time>
      </trkpt>
      <trkpt lat="42.7610590" lon="-5.4663030">
        <ele>1134.0</ele>
        <time>2021-08-21T06:18:01Z</time>
      </trkpt>
      <trkpt lat="42.7610810" lon="-5.4663060">
        <ele>1134.0</ele>
        <time>2021-08-21T06:18:02Z</time>
      </trkpt>
      <trkpt lat="42.7611030" lon="-5.4663090">
        <ele>1134.0</ele>
        <time>2021-08-21T06:18:03Z</time>
      </trkpt>
      <trkpt lat="42.7611260" lon="-5.4663130">
        <ele>1134.0</ele>
        <time>2021-08-21T06:18:04Z</time>
      </trkpt>
      <trkpt lat="42.7611510" lon="-5.4663140">
        <ele>1134.0</ele>
        <time>2021-08-21T06:18:05Z</time>
      </trkpt>
      <trkpt lat="42.7611740" lon="-5.4663180">
        <ele>1134.0</ele>
        <time>2021-08-21T06:18:06Z</time>
      </trkpt>
      <trkpt lat="42.7611940" lon="-5.4663200">
        <ele>1134.0</ele>
        <time>2021-08-21T06:18:07Z</time>
      </trkpt>
      <trkpt lat="42.7612130" lon="-5.4663230">
        <ele>1134.0</ele>
        <time>2021-08-21T06:18:08Z</time>
      </trkpt>
      <trkpt lat="42.7612370" lon="-5.4663230">
        <ele>1135.0</ele>
        <time>2021-08-21T06:18:09Z</time>
      </trkpt>
      <trkpt lat="42.7612570" lon="-5.4663260">
        <ele>1135.0</ele>
        <time>2021-08-21T06:18:10Z</time>
      </trkpt>
      <trkpt lat="42.7612800" lon="-5.4663250">
        <ele>1135.0</ele>
        <time>2021-08-21T06:18:11Z</time>
      </trkpt>
      <trkpt lat="42.7613030" lon="-5.4663260">
        <ele>1136.0</ele>
        <time>2021-08-21T06:18:12Z</time>
      </trkpt>
      <trkpt lat="42.7613250" lon="-5.4663240">
        <ele>1136.0</ele>
        <time>2021-08-21T06:18:13Z</time>
      </trkpt>
      <trkpt lat="42.7613470" lon="-5.4663230">
        <ele>1136.0</ele>
        <time>2021-08-21T06:18:14Z</time>
      </trkpt>
      <trkpt lat="42.7613690" lon="-5.4663230">
        <ele>1136.0</ele>
        <time>2021-08-21T06:18:15Z</time>
      </trkpt>
      <trkpt lat="42.7613920" lon="-5.4663190">
        <ele>1136.0</ele>
        <time>2021-08-21T06:18:16Z</time>
      </trkpt>
      <trkpt lat="42.7614130" lon="-5.4663170">
        <ele>1136.0</ele>
        <time>2021-08-21T06:18:17Z</time>
      </trkpt>
      <trkpt lat="42.7614350" lon="-5.4663150">
        <ele>1136.0</ele>
        <time>2021-08-21T06:18:18Z</time>
      </trkpt>
      <trkpt lat="42.7614540" lon="-5.4663140">
        <ele>1136.0</ele>
        <time>2021-08-21T06:18:19Z</time>
      </trkpt>
      <trkpt lat="42.7614540" lon="-5.4663140">
        <ele>1137.0</ele>
        <time>2021-08-21T06:18:20Z</time>
      </trkpt>
      <trkpt lat="42.7614930" lon="-5.4663050">
        <ele>1137.0</ele>
        <time>2021-08-21T06:18:21Z</time>
      </trkpt>
      <trkpt lat="42.7615140" lon="-5.4663000">
        <ele>1137.0</ele>
        <time>2021-08-21T06:18:22Z</time>
      </trkpt>
      <trkpt lat="42.7615330" lon="-5.4662980">
        <ele>1137.0</ele>
        <time>2021-08-21T06:18:23Z</time>
      </trkpt>
      <trkpt lat="42.7615330" lon="-5.4662980">
        <ele>1138.0</ele>
        <time>2021-08-21T06:18:24Z</time>
      </trkpt>
      <trkpt lat="42.7615670" lon="-5.4662920">
        <ele>1138.0</ele>
        <time>2021-08-21T06:18:25Z</time>
      </trkpt>
      <trkpt lat="42.7616160" lon="-5.4662870">
        <ele>1138.0</ele>
        <time>2021-08-21T06:18:27Z</time>
      </trkpt>
      <trkpt lat="42.7616260" lon="-5.4662860">
        <ele>1139.0</ele>
        <time>2021-08-21T06:18:28Z</time>
      </trkpt>
      <trkpt lat="42.7616470" lon="-5.4662840">
        <ele>1139.0</ele>
        <time>2021-08-21T06:18:29Z</time>
      </trkpt>
      <trkpt lat="42.7616810" lon="-5.4662790">
        <ele>1139.0</ele>
        <time>2021-08-21T06:18:30Z</time>
      </trkpt>
      <trkpt lat="42.7616920" lon="-5.4662760">
        <ele>1139.0</ele>
        <time>2021-08-21T06:18:31Z</time>
      </trkpt>
      <trkpt lat="42.7617160" lon="-5.4662710">
        <ele>1139.0</ele>
        <time>2021-08-21T06:18:32Z</time>
      </trkpt>
      <trkpt lat="42.7617390" lon="-5.4662690">
        <ele>1140.0</ele>
        <time>2021-08-21T06:18:33Z</time>
      </trkpt>
      <trkpt lat="42.7617600" lon="-5.4662660">
        <ele>1140.0</ele>
        <time>2021-08-21T06:18:34Z</time>
      </trkpt>
      <trkpt lat="42.7617920" lon="-5.4662600">
        <ele>1140.0</ele>
        <time>2021-08-21T06:18:35Z</time>
      </trkpt>
      <trkpt lat="42.7618020" lon="-5.4662580">
        <ele>1140.0</ele>
        <time>2021-08-21T06:18:36Z</time>
      </trkpt>
      <trkpt lat="42.7618250" lon="-5.4662560">
        <ele>1140.0</ele>
        <time>2021-08-21T06:18:37Z</time>
      </trkpt>
      <trkpt lat="42.7618470" lon="-5.4662550">
        <ele>1140.0</ele>
        <time>2021-08-21T06:18:38Z</time>
      </trkpt>
      <trkpt lat="42.7618680" lon="-5.4662520">
        <ele>1141.0</ele>
        <time>2021-08-21T06:18:39Z</time>
      </trkpt>
      <trkpt lat="42.7618930" lon="-5.4662480">
        <ele>1141.0</ele>
        <time>2021-08-21T06:18:40Z</time>
      </trkpt>
      <trkpt lat="42.7619180" lon="-5.4662440">
        <ele>1141.0</ele>
        <time>2021-08-21T06:18:41Z</time>
      </trkpt>
      <trkpt lat="42.7619410" lon="-5.4662410">
        <ele>1141.0</ele>
        <time>2021-08-21T06:18:42Z</time>
      </trkpt>
      <trkpt lat="42.7619860" lon="-5.4662290">
        <ele>1141.0</ele>
        <time>2021-08-21T06:18:44Z</time>
      </trkpt>
      <trkpt lat="42.7620080" lon="-5.4662230">
        <ele>1141.0</ele>
        <time>2021-08-21T06:18:45Z</time>
      </trkpt>
      <trkpt lat="42.7620300" lon="-5.4662180">
        <ele>1142.0</ele>
        <time>2021-08-21T06:18:46Z</time>
      </trkpt>
      <trkpt lat="42.7620530" lon="-5.4662130">
        <ele>1142.0</ele>
        <time>2021-08-21T06:18:47Z</time>
      </trkpt>
      <trkpt lat="42.7620760" lon="-5.4662040">
        <ele>1142.0</ele>
        <time>2021-08-21T06:18:48Z</time>
      </trkpt>
      <trkpt lat="42.7620990" lon="-5.4661970">
        <ele>1142.0</ele>
        <time>2021-08-21T06:18:49Z</time>
      </trkpt>
      <trkpt lat="42.7621210" lon="-5.4661870">
        <ele>1142.0</ele>
        <time>2021-08-21T06:18:50Z</time>
      </trkpt>
      <trkpt lat="42.7621210" lon="-5.4661870">
        <ele>1142.0</ele>
        <time>2021-08-21T06:18:51Z</time>
      </trkpt>
      <trkpt lat="42.7621780" lon="-5.4661650">
        <ele>1142.0</ele>
        <time>2021-08-21T06:18:52Z</time>
      </trkpt>
      <trkpt lat="42.7621890" lon="-5.4661600">
        <ele>1143.0</ele>
        <time>2021-08-21T06:18:53Z</time>
      </trkpt>
      <trkpt lat="42.7622130" lon="-5.4661500">
        <ele>1143.0</ele>
        <time>2021-08-21T06:18:54Z</time>
      </trkpt>
      <trkpt lat="42.7622380" lon="-5.4661410">
        <ele>1143.0</ele>
        <time>2021-08-21T06:18:55Z</time>
      </trkpt>
      <trkpt lat="42.7622730" lon="-5.4661250">
        <ele>1143.0</ele>
        <time>2021-08-21T06:18:56Z</time>
      </trkpt>
      <trkpt lat="42.7622850" lon="-5.4661200">
        <ele>1143.0</ele>
        <time>2021-08-21T06:18:57Z</time>
      </trkpt>
      <trkpt lat="42.7623080" lon="-5.4661100">
        <ele>1143.0</ele>
        <time>2021-08-21T06:18:58Z</time>
      </trkpt>
      <trkpt lat="42.7623310" lon="-5.4660980">
        <ele>1143.0</ele>
        <time>2021-08-21T06:18:59Z</time>
      </trkpt>
      <trkpt lat="42.7623560" lon="-5.4660860">
        <ele>1143.0</ele>
        <time>2021-08-21T06:19:00Z</time>
      </trkpt>
      <trkpt lat="42.7623920" lon="-5.4660700">
        <ele>1143.0</ele>
        <time>2021-08-21T06:19:01Z</time>
      </trkpt>
      <trkpt lat="42.7624040" lon="-5.4660640">
        <ele>1143.0</ele>
        <time>2021-08-21T06:19:02Z</time>
      </trkpt>
      <trkpt lat="42.7624390" lon="-5.4660450">
        <ele>1143.0</ele>
        <time>2021-08-21T06:19:03Z</time>
      </trkpt>
      <trkpt lat="42.7624510" lon="-5.4660390">
        <ele>1143.0</ele>
        <time>2021-08-21T06:19:04Z</time>
      </trkpt>
      <trkpt lat="42.7624750" lon="-5.4660270">
        <ele>1144.0</ele>
        <time>2021-08-21T06:19:05Z</time>
      </trkpt>
      <trkpt lat="42.7624990" lon="-5.4660160">
        <ele>1144.0</ele>
        <time>2021-08-21T06:19:06Z</time>
      </trkpt>
      <trkpt lat="42.7625220" lon="-5.4660030">
        <ele>1144.0</ele>
        <time>2021-08-21T06:19:07Z</time>
      </trkpt>
      <trkpt lat="42.7625440" lon="-5.4659910">
        <ele>1144.0</ele>
        <time>2021-08-21T06:19:08Z</time>
      </trkpt>
      <trkpt lat="42.7625660" lon="-5.4659780">
        <ele>1144.0</ele>
        <time>2021-08-21T06:19:09Z</time>
      </trkpt>
      <trkpt lat="42.7625980" lon="-5.4659620">
        <ele>1144.0</ele>
        <time>2021-08-21T06:19:10Z</time>
      </trkpt>
      <trkpt lat="42.7626090" lon="-5.4659570">
        <ele>1144.0</ele>
        <time>2021-08-21T06:19:11Z</time>
      </trkpt>
      <trkpt lat="42.7626320" lon="-5.4659460">
        <ele>1145.0</ele>
        <time>2021-08-21T06:19:12Z</time>
      </trkpt>
      <trkpt lat="42.7626550" lon="-5.4659340">
        <ele>1144.0</ele>
        <time>2021-08-21T06:19:13Z</time>
      </trkpt>
      <trkpt lat="42.7626770" lon="-5.4659220">
        <ele>1145.0</ele>
        <time>2021-08-21T06:19:14Z</time>
      </trkpt>
      <trkpt lat="42.7626980" lon="-5.4659110">
        <ele>1145.0</ele>
        <time>2021-08-21T06:19:15Z</time>
      </trkpt>
      <trkpt lat="42.7627210" lon="-5.4659020">
        <ele>1145.0</ele>
        <time>2021-08-21T06:19:16Z</time>
      </trkpt>
      <trkpt lat="42.7627480" lon="-5.4658930">
        <ele>1145.0</ele>
        <time>2021-08-21T06:19:17Z</time>
      </trkpt>
      <trkpt lat="42.7627720" lon="-5.4658850">
        <ele>1145.0</ele>
        <time>2021-08-21T06:19:18Z</time>
      </trkpt>
      <trkpt lat="42.7627960" lon="-5.4658780">
        <ele>1145.0</ele>
        <time>2021-08-21T06:19:19Z</time>
      </trkpt>
      <trkpt lat="42.7628200" lon="-5.4658670">
        <ele>1146.0</ele>
        <time>2021-08-21T06:19:20Z</time>
      </trkpt>
      <trkpt lat="42.7628440" lon="-5.4658570">
        <ele>1146.0</ele>
        <time>2021-08-21T06:19:21Z</time>
      </trkpt>
      <trkpt lat="42.7628680" lon="-5.4658490">
        <ele>1146.0</ele>
        <time>2021-08-21T06:19:22Z</time>
      </trkpt>
      <trkpt lat="42.7628930" lon="-5.4658420">
        <ele>1146.0</ele>
        <time>2021-08-21T06:19:23Z</time>
      </trkpt>
      <trkpt lat="42.7629170" lon="-5.4658370">
        <ele>1146.0</ele>
        <time>2021-08-21T06:19:24Z</time>
      </trkpt>
      <trkpt lat="42.7629400" lon="-5.4658310">
        <ele>1146.0</ele>
        <time>2021-08-21T06:19:25Z</time>
      </trkpt>
      <trkpt lat="42.7629640" lon="-5.4658250">
        <ele>1146.0</ele>
        <time>2021-08-21T06:19:26Z</time>
      </trkpt>
      <trkpt lat="42.7629880" lon="-5.4658200">
        <ele>1146.0</ele>
        <time>2021-08-21T06:19:27Z</time>
      </trkpt>
      <trkpt lat="42.7630150" lon="-5.4658140">
        <ele>1146.0</ele>
        <time>2021-08-21T06:19:28Z</time>
      </trkpt>
      <trkpt lat="42.7630420" lon="-5.4658090">
        <ele>1147.0</ele>
        <time>2021-08-21T06:19:29Z</time>
      </trkpt>
      <trkpt lat="42.7630680" lon="-5.4658070">
        <ele>1147.0</ele>
        <time>2021-08-21T06:19:30Z</time>
      </trkpt>
      <trkpt lat="42.7630920" lon="-5.4658070">
        <ele>1147.0</ele>
        <time>2021-08-21T06:19:31Z</time>
      </trkpt>
      <trkpt lat="42.7631180" lon="-5.4658080">
        <ele>1147.0</ele>
        <time>2021-08-21T06:19:32Z</time>
      </trkpt>
      <trkpt lat="42.7631440" lon="-5.4658090">
        <ele>1147.0</ele>
        <time>2021-08-21T06:19:33Z</time>
      </trkpt>
      <trkpt lat="42.7631720" lon="-5.4658090">
        <ele>1147.0</ele>
        <time>2021-08-21T06:19:34Z</time>
      </trkpt>
      <trkpt lat="42.7632000" lon="-5.4658080">
        <ele>1148.0</ele>
        <time>2021-08-21T06:19:35Z</time>
      </trkpt>
      <trkpt lat="42.7632270" lon="-5.4658060">
        <ele>1148.0</ele>
        <time>2021-08-21T06:19:36Z</time>
      </trkpt>
      <trkpt lat="42.7632530" lon="-5.4658050">
        <ele>1148.0</ele>
        <time>2021-08-21T06:19:37Z</time>
      </trkpt>
      <trkpt lat="42.7632770" lon="-5.4658090">
        <ele>1148.0</ele>
        <time>2021-08-21T06:19:38Z</time>
      </trkpt>
      <trkpt lat="42.7633060" lon="-5.4658130">
        <ele>1148.0</ele>
        <time>2021-08-21T06:19:39Z</time>
      </trkpt>
      <trkpt lat="42.7633310" lon="-5.4658190">
        <ele>1149.0</ele>
        <time>2021-08-21T06:19:40Z</time>
      </trkpt>
      <trkpt lat="42.7633600" lon="-5.4658260">
        <ele>1149.0</ele>
        <time>2021-08-21T06:19:41Z</time>
      </trkpt>
      <trkpt lat="42.7633830" lon="-5.4658320">
        <ele>1149.0</ele>
        <time>2021-08-21T06:19:42Z</time>
      </trkpt>
      <trkpt lat="42.7634190" lon="-5.4658390">
        <ele>1149.0</ele>
        <time>2021-08-21T06:19:43Z</time>
      </trkpt>
      <trkpt lat="42.7634310" lon="-5.4658420">
        <ele>1149.0</ele>
        <time>2021-08-21T06:19:44Z</time>
      </trkpt>
      <trkpt lat="42.7634570" lon="-5.4658480">
        <ele>1149.0</ele>
        <time>2021-08-21T06:19:45Z</time>
      </trkpt>
      <trkpt lat="42.7634850" lon="-5.4658530">
        <ele>1149.0</ele>
        <time>2021-08-21T06:19:46Z</time>
      </trkpt>
      <trkpt lat="42.7635120" lon="-5.4658540">
        <ele>1150.0</ele>
        <time>2021-08-21T06:19:47Z</time>
      </trkpt>
      <trkpt lat="42.7635390" lon="-5.4658590">
        <ele>1150.0</ele>
        <time>2021-08-21T06:19:48Z</time>
      </trkpt>
      <trkpt lat="42.7635650" lon="-5.4658650">
        <ele>1150.0</ele>
        <time>2021-08-21T06:19:49Z</time>
      </trkpt>
      <trkpt lat="42.7635890" lon="-5.4658700">
        <ele>1150.0</ele>
        <time>2021-08-21T06:19:50Z</time>
      </trkpt>
      <trkpt lat="42.7636290" lon="-5.4658730">
        <ele>1150.0</ele>
        <time>2021-08-21T06:19:51Z</time>
      </trkpt>
      <trkpt lat="42.7636420" lon="-5.4658740">
        <ele>1150.0</ele>
        <time>2021-08-21T06:19:52Z</time>
      </trkpt>
      <trkpt lat="42.7636830" lon="-5.4658810">
        <ele>1150.0</ele>
        <time>2021-08-21T06:19:53Z</time>
      </trkpt>
      <trkpt lat="42.7636960" lon="-5.4658840">
        <ele>1151.0</ele>
        <time>2021-08-21T06:19:54Z</time>
      </trkpt>
      <trkpt lat="42.7637210" lon="-5.4658900">
        <ele>1151.0</ele>
        <time>2021-08-21T06:19:55Z</time>
      </trkpt>
      <trkpt lat="42.7637470" lon="-5.4658960">
        <ele>1151.0</ele>
        <time>2021-08-21T06:19:56Z</time>
      </trkpt>
      <trkpt lat="42.7637700" lon="-5.4659020">
        <ele>1151.0</ele>
        <time>2021-08-21T06:19:57Z</time>
      </trkpt>
      <trkpt lat="42.7638100" lon="-5.4659080">
        <ele>1151.0</ele>
        <time>2021-08-21T06:19:58Z</time>
      </trkpt>
      <trkpt lat="42.7638230" lon="-5.4659110">
        <ele>1151.0</ele>
        <time>2021-08-21T06:19:59Z</time>
      </trkpt>
      <trkpt lat="42.7638500" lon="-5.4659160">
        <ele>1151.0</ele>
        <time>2021-08-21T06:20:00Z</time>
      </trkpt>
      <trkpt lat="42.7638750" lon="-5.4659230">
        <ele>1151.0</ele>
        <time>2021-08-21T06:20:01Z</time>
      </trkpt>
      <trkpt lat="42.7638990" lon="-5.4659270">
        <ele>1151.0</ele>
        <time>2021-08-21T06:20:02Z</time>
      </trkpt>
      <trkpt lat="42.7639270" lon="-5.4659310">
        <ele>1151.0</ele>
        <time>2021-08-21T06:20:03Z</time>
      </trkpt>
      <trkpt lat="42.7639530" lon="-5.4659340">
        <ele>1152.0</ele>
        <time>2021-08-21T06:20:04Z</time>
      </trkpt>
      <trkpt lat="42.7639790" lon="-5.4659370">
        <ele>1152.0</ele>
        <time>2021-08-21T06:20:05Z</time>
      </trkpt>
      <trkpt lat="42.7640000" lon="-5.4659440">
        <ele>1152.0</ele>
        <time>2021-08-21T06:20:06Z</time>
      </trkpt>
      <trkpt lat="42.7640240" lon="-5.4659510">
        <ele>1152.0</ele>
        <time>2021-08-21T06:20:07Z</time>
      </trkpt>
      <trkpt lat="42.7640610" lon="-5.4659630">
        <ele>1152.0</ele>
        <time>2021-08-21T06:20:08Z</time>
      </trkpt>
      <trkpt lat="42.7640730" lon="-5.4659680">
        <ele>1152.0</ele>
        <time>2021-08-21T06:20:09Z</time>
      </trkpt>
      <trkpt lat="42.7640960" lon="-5.4659770">
        <ele>1152.0</ele>
        <time>2021-08-21T06:20:10Z</time>
      </trkpt>
      <trkpt lat="42.7641190" lon="-5.4659850">
        <ele>1152.0</ele>
        <time>2021-08-21T06:20:11Z</time>
      </trkpt>
      <trkpt lat="42.7641450" lon="-5.4659920">
        <ele>1152.0</ele>
        <time>2021-08-21T06:20:12Z</time>
      </trkpt>
      <trkpt lat="42.7641660" lon="-5.4660010">
        <ele>1152.0</ele>
        <time>2021-08-21T06:20:13Z</time>
      </trkpt>
      <trkpt lat="42.7641890" lon="-5.4660060">
        <ele>1152.0</ele>
        <time>2021-08-21T06:20:14Z</time>
      </trkpt>
      <trkpt lat="42.7642240" lon="-5.4660170">
        <ele>1152.0</ele>
        <time>2021-08-21T06:20:15Z</time>
      </trkpt>
      <trkpt lat="42.7642370" lon="-5.4660190">
        <ele>1152.0</ele>
        <time>2021-08-21T06:20:16Z</time>
      </trkpt>
      <trkpt lat="42.7642600" lon="-5.4660260">
        <ele>1152.0</ele>
        <time>2021-08-21T06:20:17Z</time>
      </trkpt>
      <trkpt lat="42.7642860" lon="-5.4660320">
        <ele>1152.0</ele>
        <time>2021-08-21T06:20:18Z</time>
      </trkpt>
      <trkpt lat="42.7643100" lon="-5.4660380">
        <ele>1152.0</ele>
        <time>2021-08-21T06:20:19Z</time>
      </trkpt>
      <trkpt lat="42.7643350" lon="-5.4660410">
        <ele>1152.0</ele>
        <time>2021-08-21T06:20:20Z</time>
      </trkpt>
      <trkpt lat="42.7643620" lon="-5.4660440">
        <ele>1152.0</ele>
        <time>2021-08-21T06:20:21Z</time>
      </trkpt>
      <trkpt lat="42.7643900" lon="-5.4660450">
        <ele>1152.0</ele>
        <time>2021-08-21T06:20:22Z</time>
      </trkpt>
      <trkpt lat="42.7644160" lon="-5.4660440">
        <ele>1152.0</ele>
        <time>2021-08-21T06:20:23Z</time>
      </trkpt>
      <trkpt lat="42.7644440" lon="-5.4660460">
        <ele>1152.0</ele>
        <time>2021-08-21T06:20:24Z</time>
      </trkpt>
      <trkpt lat="42.7644710" lon="-5.4660460">
        <ele>1152.0</ele>
        <time>2021-08-21T06:20:25Z</time>
      </trkpt>
      <trkpt lat="42.7644960" lon="-5.4660460">
        <ele>1152.0</ele>
        <time>2021-08-21T06:20:26Z</time>
      </trkpt>
      <trkpt lat="42.7645200" lon="-5.4660440">
        <ele>1152.0</ele>
        <time>2021-08-21T06:20:27Z</time>
      </trkpt>
      <trkpt lat="42.7645440" lon="-5.4660410">
        <ele>1152.0</ele>
        <time>2021-08-21T06:20:28Z</time>
      </trkpt>
      <trkpt lat="42.7645680" lon="-5.4660360">
        <ele>1152.0</ele>
        <time>2021-08-21T06:20:29Z</time>
      </trkpt>
      <trkpt lat="42.7645910" lon="-5.4660270">
        <ele>1152.0</ele>
        <time>2021-08-21T06:20:30Z</time>
      </trkpt>
      <trkpt lat="42.7646100" lon="-5.4660190">
        <ele>1152.0</ele>
        <time>2021-08-21T06:20:31Z</time>
      </trkpt>
      <trkpt lat="42.7646280" lon="-5.4660090">
        <ele>1152.0</ele>
        <time>2021-08-21T06:20:32Z</time>
      </trkpt>
      <trkpt lat="42.7646490" lon="-5.4659990">
        <ele>1152.0</ele>
        <time>2021-08-21T06:20:33Z</time>
      </trkpt>
      <trkpt lat="42.7646720" lon="-5.4659890">
        <ele>1152.0</ele>
        <time>2021-08-21T06:20:34Z</time>
      </trkpt>
      <trkpt lat="42.7646960" lon="-5.4659790">
        <ele>1152.0</ele>
        <time>2021-08-21T06:20:35Z</time>
      </trkpt>
      <trkpt lat="42.7647200" lon="-5.4659680">
        <ele>1152.0</ele>
        <time>2021-08-21T06:20:36Z</time>
      </trkpt>
      <trkpt lat="42.7647450" lon="-5.4659570">
        <ele>1152.0</ele>
        <time>2021-08-21T06:20:37Z</time>
      </trkpt>
      <trkpt lat="42.7647670" lon="-5.4659460">
        <ele>1152.0</ele>
        <time>2021-08-21T06:20:38Z</time>
      </trkpt>
      <trkpt lat="42.7647910" lon="-5.4659350">
        <ele>1152.0</ele>
        <time>2021-08-21T06:20:39Z</time>
      </trkpt>
      <trkpt lat="42.7648150" lon="-5.4659250">
        <ele>1152.0</ele>
        <time>2021-08-21T06:20:40Z</time>
      </trkpt>
      <trkpt lat="42.7648400" lon="-5.4659140">
        <ele>1152.0</ele>
        <time>2021-08-21T06:20:41Z</time>
      </trkpt>
      <trkpt lat="42.7648640" lon="-5.4659040">
        <ele>1152.0</ele>
        <time>2021-08-21T06:20:42Z</time>
      </trkpt>
      <trkpt lat="42.7648890" lon="-5.4658920">
        <ele>1152.0</ele>
        <time>2021-08-21T06:20:43Z</time>
      </trkpt>
      <trkpt lat="42.7649100" lon="-5.4658780">
        <ele>1152.0</ele>
        <time>2021-08-21T06:20:44Z</time>
      </trkpt>
      <trkpt lat="42.7649320" lon="-5.4658640">
        <ele>1152.0</ele>
        <time>2021-08-21T06:20:45Z</time>
      </trkpt>
      <trkpt lat="42.7649540" lon="-5.4658490">
        <ele>1152.0</ele>
        <time>2021-08-21T06:20:46Z</time>
      </trkpt>
      <trkpt lat="42.7649750" lon="-5.4658360">
        <ele>1152.0</ele>
        <time>2021-08-21T06:20:47Z</time>
      </trkpt>
      <trkpt lat="42.7649960" lon="-5.4658240">
        <ele>1152.0</ele>
        <time>2021-08-21T06:20:48Z</time>
      </trkpt>
      <trkpt lat="42.7650180" lon="-5.4658120">
        <ele>1152.0</ele>
        <time>2021-08-21T06:20:49Z</time>
      </trkpt>
      <trkpt lat="42.7650420" lon="-5.4658000">
        <ele>1152.0</ele>
        <time>2021-08-21T06:20:50Z</time>
      </trkpt>
      <trkpt lat="42.7650680" lon="-5.4657880">
        <ele>1153.0</ele>
        <time>2021-08-21T06:20:51Z</time>
      </trkpt>
      <trkpt lat="42.7650920" lon="-5.4657770">
        <ele>1153.0</ele>
        <time>2021-08-21T06:20:52Z</time>
      </trkpt>
      <trkpt lat="42.7651140" lon="-5.4657650">
        <ele>1153.0</ele>
        <time>2021-08-21T06:20:53Z</time>
      </trkpt>
      <trkpt lat="42.7651340" lon="-5.4657530">
        <ele>1153.0</ele>
        <time>2021-08-21T06:20:54Z</time>
      </trkpt>
      <trkpt lat="42.7651560" lon="-5.4657390">
        <ele>1153.0</ele>
        <time>2021-08-21T06:20:55Z</time>
      </trkpt>
      <trkpt lat="42.7651800" lon="-5.4657250">
        <ele>1153.0</ele>
        <time>2021-08-21T06:20:56Z</time>
      </trkpt>
      <trkpt lat="42.7652020" lon="-5.4657110">
        <ele>1153.0</ele>
        <time>2021-08-21T06:20:57Z</time>
      </trkpt>
      <trkpt lat="42.7652260" lon="-5.4656960">
        <ele>1153.0</ele>
        <time>2021-08-21T06:20:58Z</time>
      </trkpt>
      <trkpt lat="42.7652470" lon="-5.4656850">
        <ele>1153.0</ele>
        <time>2021-08-21T06:20:59Z</time>
      </trkpt>
      <trkpt lat="42.7652680" lon="-5.4656730">
        <ele>1153.0</ele>
        <time>2021-08-21T06:21:00Z</time>
      </trkpt>
      <trkpt lat="42.7652870" lon="-5.4656570">
        <ele>1153.0</ele>
        <time>2021-08-21T06:21:01Z</time>
      </trkpt>
      <trkpt lat="42.7653060" lon="-5.4656400">
        <ele>1153.0</ele>
        <time>2021-08-21T06:21:02Z</time>
      </trkpt>
      <trkpt lat="42.7653280" lon="-5.4656230">
        <ele>1153.0</ele>
        <time>2021-08-21T06:21:03Z</time>
      </trkpt>
      <trkpt lat="42.7653480" lon="-5.4656100">
        <ele>1153.0</ele>
        <time>2021-08-21T06:21:04Z</time>
      </trkpt>
      <trkpt lat="42.7653690" lon="-5.4655970">
        <ele>1153.0</ele>
        <time>2021-08-21T06:21:05Z</time>
      </trkpt>
      <trkpt lat="42.7653880" lon="-5.4655830">
        <ele>1153.0</ele>
        <time>2021-08-21T06:21:06Z</time>
      </trkpt>
      <trkpt lat="42.7654100" lon="-5.4655710">
        <ele>1153.0</ele>
        <time>2021-08-21T06:21:07Z</time>
      </trkpt>
      <trkpt lat="42.7654300" lon="-5.4655590">
        <ele>1153.0</ele>
        <time>2021-08-21T06:21:08Z</time>
      </trkpt>
      <trkpt lat="42.7654500" lon="-5.4655460">
        <ele>1153.0</ele>
        <time>2021-08-21T06:21:09Z</time>
      </trkpt>
      <trkpt lat="42.7654700" lon="-5.4655310">
        <ele>1153.0</ele>
        <time>2021-08-21T06:21:10Z</time>
      </trkpt>
      <trkpt lat="42.7654900" lon="-5.4655170">
        <ele>1153.0</ele>
        <time>2021-08-21T06:21:11Z</time>
      </trkpt>
      <trkpt lat="42.7655060" lon="-5.4655030">
        <ele>1154.0</ele>
        <time>2021-08-21T06:21:12Z</time>
      </trkpt>
      <trkpt lat="42.7655270" lon="-5.4654870">
        <ele>1154.0</ele>
        <time>2021-08-21T06:21:13Z</time>
      </trkpt>
      <trkpt lat="42.7655500" lon="-5.4654720">
        <ele>1154.0</ele>
        <time>2021-08-21T06:21:14Z</time>
      </trkpt>
      <trkpt lat="42.7655820" lon="-5.4654520">
        <ele>1154.0</ele>
        <time>2021-08-21T06:21:15Z</time>
      </trkpt>
      <trkpt lat="42.7655930" lon="-5.4654470">
        <ele>1154.0</ele>
        <time>2021-08-21T06:21:16Z</time>
      </trkpt>
      <trkpt lat="42.7656110" lon="-5.4654350">
        <ele>1154.0</ele>
        <time>2021-08-21T06:21:17Z</time>
      </trkpt>
      <trkpt lat="42.7656330" lon="-5.4654180">
        <ele>1154.0</ele>
        <time>2021-08-21T06:21:18Z</time>
      </trkpt>
      <trkpt lat="42.7656560" lon="-5.4654010">
        <ele>1155.0</ele>
        <time>2021-08-21T06:21:19Z</time>
      </trkpt>
      <trkpt lat="42.7656760" lon="-5.4653860">
        <ele>1155.0</ele>
        <time>2021-08-21T06:21:20Z</time>
      </trkpt>
      <trkpt lat="42.7657100" lon="-5.4653660">
        <ele>1155.0</ele>
        <time>2021-08-21T06:21:21Z</time>
      </trkpt>
      <trkpt lat="42.7657190" lon="-5.4653590">
        <ele>1155.0</ele>
        <time>2021-08-21T06:21:22Z</time>
      </trkpt>
      <trkpt lat="42.7657370" lon="-5.4653480">
        <ele>1155.0</ele>
        <time>2021-08-21T06:21:23Z</time>
      </trkpt>
      <trkpt lat="42.7657810" lon="-5.4653170">
        <ele>1155.0</ele>
        <time>2021-08-21T06:21:25Z</time>
      </trkpt>
      <trkpt lat="42.7657920" lon="-5.4653120">
        <ele>1155.0</ele>
        <time>2021-08-21T06:21:26Z</time>
      </trkpt>
      <trkpt lat="42.7658140" lon="-5.4653060">
        <ele>1155.0</ele>
        <time>2021-08-21T06:21:27Z</time>
      </trkpt>
      <trkpt lat="42.7658510" lon="-5.4653020">
        <ele>1155.0</ele>
        <time>2021-08-21T06:21:28Z</time>
      </trkpt>
      <trkpt lat="42.7658640" lon="-5.4653030">
        <ele>1156.0</ele>
        <time>2021-08-21T06:21:29Z</time>
      </trkpt>
      <trkpt lat="42.7658940" lon="-5.4653010">
        <ele>1156.0</ele>
        <time>2021-08-21T06:21:30Z</time>
      </trkpt>
      <trkpt lat="42.7659210" lon="-5.4653000">
        <ele>1156.0</ele>
        <time>2021-08-21T06:21:31Z</time>
      </trkpt>
      <trkpt lat="42.7659210" lon="-5.4653000">
        <ele>1156.0</ele>
        <time>2021-08-21T06:21:32Z</time>
      </trkpt>
      <trkpt lat="42.7659850" lon="-5.4652960">
        <ele>1156.0</ele>
        <time>2021-08-21T06:21:33Z</time>
      </trkpt>
      <trkpt lat="42.7659980" lon="-5.4652950">
        <ele>1156.0</ele>
        <time>2021-08-21T06:21:34Z</time>
      </trkpt>
      <trkpt lat="42.7660260" lon="-5.4652970">
        <ele>1157.0</ele>
        <time>2021-08-21T06:21:35Z</time>
      </trkpt>
      <trkpt lat="42.7660530" lon="-5.4652960">
        <ele>1157.0</ele>
        <time>2021-08-21T06:21:36Z</time>
      </trkpt>
      <trkpt lat="42.7660810" lon="-5.4652960">
        <ele>1157.0</ele>
        <time>2021-08-21T06:21:37Z</time>
      </trkpt>
      <trkpt lat="42.7661090" lon="-5.4652970">
        <ele>1157.0</ele>
        <time>2021-08-21T06:21:38Z</time>
      </trkpt>
      <trkpt lat="42.7661380" lon="-5.4652980">
        <ele>1157.0</ele>
        <time>2021-08-21T06:21:39Z</time>
      </trkpt>
      <trkpt lat="42.7661630" lon="-5.4653010">
        <ele>1157.0</ele>
        <time>2021-08-21T06:21:40Z</time>
      </trkpt>
      <trkpt lat="42.7661900" lon="-5.4653060">
        <ele>1157.0</ele>
        <time>2021-08-21T06:21:41Z</time>
      </trkpt>
      <trkpt lat="42.7662170" lon="-5.4653110">
        <ele>1157.0</ele>
        <time>2021-08-21T06:21:42Z</time>
      </trkpt>
      <trkpt lat="42.7662490" lon="-5.4653130">
        <ele>1157.0</ele>
        <time>2021-08-21T06:21:43Z</time>
      </trkpt>
      <trkpt lat="42.7662780" lon="-5.4653170">
        <ele>1157.0</ele>
        <time>2021-08-21T06:21:44Z</time>
      </trkpt>
      <trkpt lat="42.7663060" lon="-5.4653220">
        <ele>1157.0</ele>
        <time>2021-08-21T06:21:45Z</time>
      </trkpt>
      <trkpt lat="42.7663340" lon="-5.4653270">
        <ele>1157.0</ele>
        <time>2021-08-21T06:21:46Z</time>
      </trkpt>
      <trkpt lat="42.7663620" lon="-5.4653320">
        <ele>1157.0</ele>
        <time>2021-08-21T06:21:47Z</time>
      </trkpt>
      <trkpt lat="42.7663900" lon="-5.4653380">
        <ele>1157.0</ele>
        <time>2021-08-21T06:21:48Z</time>
      </trkpt>
      <trkpt lat="42.7664180" lon="-5.4653460">
        <ele>1157.0</ele>
        <time>2021-08-21T06:21:49Z</time>
      </trkpt>
      <trkpt lat="42.7664450" lon="-5.4653530">
        <ele>1157.0</ele>
        <time>2021-08-21T06:21:50Z</time>
      </trkpt>
      <trkpt lat="42.7664700" lon="-5.4653600">
        <ele>1157.0</ele>
        <time>2021-08-21T06:21:51Z</time>
      </trkpt>
      <trkpt lat="42.7664980" lon="-5.4653620">
        <ele>1157.0</ele>
        <time>2021-08-21T06:21:52Z</time>
      </trkpt>
      <trkpt lat="42.7665250" lon="-5.4653650">
        <ele>1157.0</ele>
        <time>2021-08-21T06:21:53Z</time>
      </trkpt>
      <trkpt lat="42.7665530" lon="-5.4653690">
        <ele>1157.0</ele>
        <time>2021-08-21T06:21:54Z</time>
      </trkpt>
      <trkpt lat="42.7665800" lon="-5.4653750">
        <ele>1157.0</ele>
        <time>2021-08-21T06:21:55Z</time>
      </trkpt>
      <trkpt lat="42.7666050" lon="-5.4653830">
        <ele>1157.0</ele>
        <time>2021-08-21T06:21:56Z</time>
      </trkpt>
      <trkpt lat="42.7666310" lon="-5.4653910">
        <ele>1157.0</ele>
        <time>2021-08-21T06:21:57Z</time>
      </trkpt>
      <trkpt lat="42.7666540" lon="-5.4654010">
        <ele>1157.0</ele>
        <time>2021-08-21T06:21:58Z</time>
      </trkpt>
      <trkpt lat="42.7666940" lon="-5.4654130">
        <ele>1157.0</ele>
        <time>2021-08-21T06:21:59Z</time>
      </trkpt>
      <trkpt lat="42.7667060" lon="-5.4654170">
        <ele>1157.0</ele>
        <time>2021-08-21T06:22:00Z</time>
      </trkpt>
      <trkpt lat="42.7667310" lon="-5.4654270">
        <ele>1156.0</ele>
        <time>2021-08-21T06:22:01Z</time>
      </trkpt>
      <trkpt lat="42.7667730" lon="-5.4654430">
        <ele>1156.0</ele>
        <time>2021-08-21T06:22:02Z</time>
      </trkpt>
      <trkpt lat="42.7667870" lon="-5.4654470">
        <ele>1156.0</ele>
        <time>2021-08-21T06:22:03Z</time>
      </trkpt>
      <trkpt lat="42.7668280" lon="-5.4654630">
        <ele>1156.0</ele>
        <time>2021-08-21T06:22:04Z</time>
      </trkpt>
      <trkpt lat="42.7668420" lon="-5.4654690">
        <ele>1156.0</ele>
        <time>2021-08-21T06:22:05Z</time>
      </trkpt>
      <trkpt lat="42.7668710" lon="-5.4654780">
        <ele>1156.0</ele>
        <time>2021-08-21T06:22:06Z</time>
      </trkpt>
      <trkpt lat="42.7668990" lon="-5.4654880">
        <ele>1156.0</ele>
        <time>2021-08-21T06:22:07Z</time>
      </trkpt>
      <trkpt lat="42.7669290" lon="-5.4654960">
        <ele>1156.0</ele>
        <time>2021-08-21T06:22:08Z</time>
      </trkpt>
      <trkpt lat="42.7669550" lon="-5.4655030">
        <ele>1156.0</ele>
        <time>2021-08-21T06:22:09Z</time>
      </trkpt>
      <trkpt lat="42.7669830" lon="-5.4655090">
        <ele>1156.0</ele>
        <time>2021-08-21T06:22:10Z</time>
      </trkpt>
      <trkpt lat="42.7670230" lon="-5.4655190">
        <ele>1156.0</ele>
        <time>2021-08-21T06:22:11Z</time>
      </trkpt>
      <trkpt lat="42.7670360" lon="-5.4655230">
        <ele>1156.0</ele>
        <time>2021-08-21T06:22:12Z</time>
      </trkpt>
      <trkpt lat="42.7670630" lon="-5.4655310">
        <ele>1156.0</ele>
        <time>2021-08-21T06:22:13Z</time>
      </trkpt>
      <trkpt lat="42.7670890" lon="-5.4655390">
        <ele>1156.0</ele>
        <time>2021-08-21T06:22:14Z</time>
      </trkpt>
      <trkpt lat="42.7671170" lon="-5.4655480">
        <ele>1156.0</ele>
        <time>2021-08-21T06:22:15Z</time>
      </trkpt>
      <trkpt lat="42.7671450" lon="-5.4655540">
        <ele>1156.0</ele>
        <time>2021-08-21T06:22:16Z</time>
      </trkpt>
      <trkpt lat="42.7671740" lon="-5.4655620">
        <ele>1156.0</ele>
        <time>2021-08-21T06:22:17Z</time>
      </trkpt>
      <trkpt lat="42.7672150" lon="-5.4655690">
        <ele>1156.0</ele>
        <time>2021-08-21T06:22:18Z</time>
      </trkpt>
      <trkpt lat="42.7672280" lon="-5.4655730">
        <ele>1156.0</ele>
        <time>2021-08-21T06:22:19Z</time>
      </trkpt>
      <trkpt lat="42.7672570" lon="-5.4655780">
        <ele>1156.0</ele>
        <time>2021-08-21T06:22:20Z</time>
      </trkpt>
      <trkpt lat="42.7672840" lon="-5.4655830">
        <ele>1156.0</ele>
        <time>2021-08-21T06:22:21Z</time>
      </trkpt>
      <trkpt lat="42.7673130" lon="-5.4655880">
        <ele>1156.0</ele>
        <time>2021-08-21T06:22:22Z</time>
      </trkpt>
      <trkpt lat="42.7673420" lon="-5.4655920">
        <ele>1156.0</ele>
        <time>2021-08-21T06:22:23Z</time>
      </trkpt>
      <trkpt lat="42.7673700" lon="-5.4655980">
        <ele>1156.0</ele>
        <time>2021-08-21T06:22:24Z</time>
      </trkpt>
      <trkpt lat="42.7673970" lon="-5.4656040">
        <ele>1156.0</ele>
        <time>2021-08-21T06:22:25Z</time>
      </trkpt>
      <trkpt lat="42.7674200" lon="-5.4656090">
        <ele>1156.0</ele>
        <time>2021-08-21T06:22:26Z</time>
      </trkpt>
      <trkpt lat="42.7674460" lon="-5.4656170">
        <ele>1156.0</ele>
        <time>2021-08-21T06:22:27Z</time>
      </trkpt>
      <trkpt lat="42.7674720" lon="-5.4656220">
        <ele>1156.0</ele>
        <time>2021-08-21T06:22:28Z</time>
      </trkpt>
      <trkpt lat="42.7674990" lon="-5.4656250">
        <ele>1156.0</ele>
        <time>2021-08-21T06:22:29Z</time>
      </trkpt>
      <trkpt lat="42.7675270" lon="-5.4656270">
        <ele>1156.0</ele>
        <time>2021-08-21T06:22:30Z</time>
      </trkpt>
      <trkpt lat="42.7675560" lon="-5.4656300">
        <ele>1156.0</ele>
        <time>2021-08-21T06:22:31Z</time>
      </trkpt>
      <trkpt lat="42.7675800" lon="-5.4656310">
        <ele>1157.0</ele>
        <time>2021-08-21T06:22:32Z</time>
      </trkpt>
      <trkpt lat="42.7676070" lon="-5.4656300">
        <ele>1156.0</ele>
        <time>2021-08-21T06:22:33Z</time>
      </trkpt>
      <trkpt lat="42.7676330" lon="-5.4656290">
        <ele>1156.0</ele>
        <time>2021-08-21T06:22:34Z</time>
      </trkpt>
      <trkpt lat="42.7676570" lon="-5.4656310">
        <ele>1156.0</ele>
        <time>2021-08-21T06:22:35Z</time>
      </trkpt>
      <trkpt lat="42.7676840" lon="-5.4656330">
        <ele>1156.0</ele>
        <time>2021-08-21T06:22:36Z</time>
      </trkpt>
      <trkpt lat="42.7677120" lon="-5.4656370">
        <ele>1156.0</ele>
        <time>2021-08-21T06:22:37Z</time>
      </trkpt>
      <trkpt lat="42.7677120" lon="-5.4656370">
        <ele>1156.0</ele>
        <time>2021-08-21T06:22:38Z</time>
      </trkpt>
      <trkpt lat="42.7677810" lon="-5.4656420">
        <ele>1156.0</ele>
        <time>2021-08-21T06:22:39Z</time>
      </trkpt>
      <trkpt lat="42.7677950" lon="-5.4656430">
        <ele>1157.0</ele>
        <time>2021-08-21T06:22:40Z</time>
      </trkpt>
      <trkpt lat="42.7678220" lon="-5.4656460">
        <ele>1157.0</ele>
        <time>2021-08-21T06:22:41Z</time>
      </trkpt>
      <trkpt lat="42.7678470" lon="-5.4656480">
        <ele>1157.0</ele>
        <time>2021-08-21T06:22:42Z</time>
      </trkpt>
      <trkpt lat="42.7678720" lon="-5.4656500">
        <ele>1157.0</ele>
        <time>2021-08-21T06:22:43Z</time>
      </trkpt>
      <trkpt lat="42.7678950" lon="-5.4656510">
        <ele>1157.0</ele>
        <time>2021-08-21T06:22:44Z</time>
      </trkpt>
      <trkpt lat="42.7679200" lon="-5.4656520">
        <ele>1157.0</ele>
        <time>2021-08-21T06:22:45Z</time>
      </trkpt>
      <trkpt lat="42.7679450" lon="-5.4656510">
        <ele>1157.0</ele>
        <time>2021-08-21T06:22:46Z</time>
      </trkpt>
      <trkpt lat="42.7679700" lon="-5.4656520">
        <ele>1157.0</ele>
        <time>2021-08-21T06:22:47Z</time>
      </trkpt>
      <trkpt lat="42.7679970" lon="-5.4656530">
        <ele>1157.0</ele>
        <time>2021-08-21T06:22:48Z</time>
      </trkpt>
      <trkpt lat="42.7680260" lon="-5.4656500">
        <ele>1157.0</ele>
        <time>2021-08-21T06:22:49Z</time>
      </trkpt>
      <trkpt lat="42.7680530" lon="-5.4656490">
        <ele>1157.0</ele>
        <time>2021-08-21T06:22:50Z</time>
      </trkpt>
      <trkpt lat="42.7680820" lon="-5.4656450">
        <ele>1157.0</ele>
        <time>2021-08-21T06:22:51Z</time>
      </trkpt>
      <trkpt lat="42.7681100" lon="-5.4656430">
        <ele>1157.0</ele>
        <time>2021-08-21T06:22:52Z</time>
      </trkpt>
      <trkpt lat="42.7681340" lon="-5.4656450">
        <ele>1157.0</ele>
        <time>2021-08-21T06:22:53Z</time>
      </trkpt>
      <trkpt lat="42.7681720" lon="-5.4656470">
        <ele>1157.0</ele>
        <time>2021-08-21T06:22:54Z</time>
      </trkpt>
      <trkpt lat="42.7681840" lon="-5.4656460">
        <ele>1157.0</ele>
        <time>2021-08-21T06:22:55Z</time>
      </trkpt>
      <trkpt lat="42.7682110" lon="-5.4656450">
        <ele>1157.0</ele>
        <time>2021-08-21T06:22:56Z</time>
      </trkpt>
      <trkpt lat="42.7682380" lon="-5.4656430">
        <ele>1157.0</ele>
        <time>2021-08-21T06:22:57Z</time>
      </trkpt>
      <trkpt lat="42.7682640" lon="-5.4656460">
        <ele>1157.0</ele>
        <time>2021-08-21T06:22:58Z</time>
      </trkpt>
      <trkpt lat="42.7682900" lon="-5.4656460">
        <ele>1157.0</ele>
        <time>2021-08-21T06:22:59Z</time>
      </trkpt>
      <trkpt lat="42.7683170" lon="-5.4656480">
        <ele>1157.0</ele>
        <time>2021-08-21T06:23:00Z</time>
      </trkpt>
      <trkpt lat="42.7683440" lon="-5.4656490">
        <ele>1157.0</ele>
        <time>2021-08-21T06:23:01Z</time>
      </trkpt>
      <trkpt lat="42.7683730" lon="-5.4656490">
        <ele>1157.0</ele>
        <time>2021-08-21T06:23:02Z</time>
      </trkpt>
      <trkpt lat="42.7684020" lon="-5.4656480">
        <ele>1156.0</ele>
        <time>2021-08-21T06:23:03Z</time>
      </trkpt>
      <trkpt lat="42.7684290" lon="-5.4656480">
        <ele>1157.0</ele>
        <time>2021-08-21T06:23:04Z</time>
      </trkpt>
      <trkpt lat="42.7684580" lon="-5.4656490">
        <ele>1156.0</ele>
        <time>2021-08-21T06:23:05Z</time>
      </trkpt>
      <trkpt lat="42.7684860" lon="-5.4656520">
        <ele>1156.0</ele>
        <time>2021-08-21T06:23:06Z</time>
      </trkpt>
      <trkpt lat="42.7685130" lon="-5.4656570">
        <ele>1156.0</ele>
        <time>2021-08-21T06:23:07Z</time>
      </trkpt>
      <trkpt lat="42.7685400" lon="-5.4656570">
        <ele>1156.0</ele>
        <time>2021-08-21T06:23:08Z</time>
      </trkpt>
      <trkpt lat="42.7685680" lon="-5.4656560">
        <ele>1156.0</ele>
        <time>2021-08-21T06:23:09Z</time>
      </trkpt>
      <trkpt lat="42.7685960" lon="-5.4656570">
        <ele>1156.0</ele>
        <time>2021-08-21T06:23:10Z</time>
      </trkpt>
      <trkpt lat="42.7686240" lon="-5.4656570">
        <ele>1156.0</ele>
        <time>2021-08-21T06:23:11Z</time>
      </trkpt>
      <trkpt lat="42.7686510" lon="-5.4656580">
        <ele>1156.0</ele>
        <time>2021-08-21T06:23:12Z</time>
      </trkpt>
      <trkpt lat="42.7686920" lon="-5.4656600">
        <ele>1156.0</ele>
        <time>2021-08-21T06:23:13Z</time>
      </trkpt>
      <trkpt lat="42.7687050" lon="-5.4656600">
        <ele>1156.0</ele>
        <time>2021-08-21T06:23:14Z</time>
      </trkpt>
      <trkpt lat="42.7687460" lon="-5.4656600">
        <ele>1156.0</ele>
        <time>2021-08-21T06:23:15Z</time>
      </trkpt>
      <trkpt lat="42.7687610" lon="-5.4656600">
        <ele>1156.0</ele>
        <time>2021-08-21T06:23:16Z</time>
      </trkpt>
      <trkpt lat="42.7687890" lon="-5.4656600">
        <ele>1156.0</ele>
        <time>2021-08-21T06:23:17Z</time>
      </trkpt>
      <trkpt lat="42.7688170" lon="-5.4656610">
        <ele>1156.0</ele>
        <time>2021-08-21T06:23:18Z</time>
      </trkpt>
      <trkpt lat="42.7688430" lon="-5.4656650">
        <ele>1155.0</ele>
        <time>2021-08-21T06:23:19Z</time>
      </trkpt>
      <trkpt lat="42.7688680" lon="-5.4656690">
        <ele>1155.0</ele>
        <time>2021-08-21T06:23:20Z</time>
      </trkpt>
      <trkpt lat="42.7688920" lon="-5.4656710">
        <ele>1155.0</ele>
        <time>2021-08-21T06:23:21Z</time>
      </trkpt>
      <trkpt lat="42.7689180" lon="-5.4656750">
        <ele>1155.0</ele>
        <time>2021-08-21T06:23:22Z</time>
      </trkpt>
      <trkpt lat="42.7689450" lon="-5.4656780">
        <ele>1155.0</ele>
        <time>2021-08-21T06:23:23Z</time>
      </trkpt>
      <trkpt lat="42.7689740" lon="-5.4656810">
        <ele>1155.0</ele>
        <time>2021-08-21T06:23:24Z</time>
      </trkpt>
      <trkpt lat="42.7690020" lon="-5.4656840">
        <ele>1155.0</ele>
        <time>2021-08-21T06:23:25Z</time>
      </trkpt>
      <trkpt lat="42.7690290" lon="-5.4656870">
        <ele>1155.0</ele>
        <time>2021-08-21T06:23:26Z</time>
      </trkpt>
      <trkpt lat="42.7690550" lon="-5.4656890">
        <ele>1155.0</ele>
        <time>2021-08-21T06:23:27Z</time>
      </trkpt>
      <trkpt lat="42.7690810" lon="-5.4656950">
        <ele>1155.0</ele>
        <time>2021-08-21T06:23:28Z</time>
      </trkpt>
      <trkpt lat="42.7691080" lon="-5.4656980">
        <ele>1155.0</ele>
        <time>2021-08-21T06:23:29Z</time>
      </trkpt>
      <trkpt lat="42.7691320" lon="-5.4657030">
        <ele>1155.0</ele>
        <time>2021-08-21T06:23:30Z</time>
      </trkpt>
      <trkpt lat="42.7691580" lon="-5.4657060">
        <ele>1155.0</ele>
        <time>2021-08-21T06:23:31Z</time>
      </trkpt>
      <trkpt lat="42.7691840" lon="-5.4657070">
        <ele>1155.0</ele>
        <time>2021-08-21T06:23:32Z</time>
      </trkpt>
      <trkpt lat="42.7692090" lon="-5.4657060">
        <ele>1155.0</ele>
        <time>2021-08-21T06:23:33Z</time>
      </trkpt>
      <trkpt lat="42.7692330" lon="-5.4657070">
        <ele>1155.0</ele>
        <time>2021-08-21T06:23:34Z</time>
      </trkpt>
      <trkpt lat="42.7692560" lon="-5.4657100">
        <ele>1155.0</ele>
        <time>2021-08-21T06:23:35Z</time>
      </trkpt>
      <trkpt lat="42.7692820" lon="-5.4657140">
        <ele>1155.0</ele>
        <time>2021-08-21T06:23:36Z</time>
      </trkpt>
      <trkpt lat="42.7693210" lon="-5.4657200">
        <ele>1155.0</ele>
        <time>2021-08-21T06:23:37Z</time>
      </trkpt>
      <trkpt lat="42.7693340" lon="-5.4657220">
        <ele>1154.0</ele>
        <time>2021-08-21T06:23:38Z</time>
      </trkpt>
      <trkpt lat="42.7693610" lon="-5.4657270">
        <ele>1154.0</ele>
        <time>2021-08-21T06:23:39Z</time>
      </trkpt>
      <trkpt lat="42.7694010" lon="-5.4657320">
        <ele>1154.0</ele>
        <time>2021-08-21T06:23:40Z</time>
      </trkpt>
      <trkpt lat="42.7694140" lon="-5.4657340">
        <ele>1154.0</ele>
        <time>2021-08-21T06:23:41Z</time>
      </trkpt>
      <trkpt lat="42.7694420" lon="-5.4657400">
        <ele>1154.0</ele>
        <time>2021-08-21T06:23:42Z</time>
      </trkpt>
      <trkpt lat="42.7694690" lon="-5.4657420">
        <ele>1154.0</ele>
        <time>2021-08-21T06:23:43Z</time>
      </trkpt>
      <trkpt lat="42.7694990" lon="-5.4657460">
        <ele>1154.0</ele>
        <time>2021-08-21T06:23:44Z</time>
      </trkpt>
      <trkpt lat="42.7695310" lon="-5.4657460">
        <ele>1154.0</ele>
        <time>2021-08-21T06:23:45Z</time>
      </trkpt>
      <trkpt lat="42.7695600" lon="-5.4657510">
        <ele>1154.0</ele>
        <time>2021-08-21T06:23:46Z</time>
      </trkpt>
      <trkpt lat="42.7695910" lon="-5.4657560">
        <ele>1154.0</ele>
        <time>2021-08-21T06:23:47Z</time>
      </trkpt>
      <trkpt lat="42.7696200" lon="-5.4657600">
        <ele>1154.0</ele>
        <time>2021-08-21T06:23:48Z</time>
      </trkpt>
      <trkpt lat="42.7696490" lon="-5.4657620">
        <ele>1154.0</ele>
        <time>2021-08-21T06:23:49Z</time>
      </trkpt>
      <trkpt lat="42.7696760" lon="-5.4657660">
        <ele>1154.0</ele>
        <time>2021-08-21T06:23:50Z</time>
      </trkpt>
      <trkpt lat="42.7697030" lon="-5.4657710">
        <ele>1154.0</ele>
        <time>2021-08-21T06:23:51Z</time>
      </trkpt>
      <trkpt lat="42.7697320" lon="-5.4657730">
        <ele>1154.0</ele>
        <time>2021-08-21T06:23:52Z</time>
      </trkpt>
      <trkpt lat="42.7697590" lon="-5.4657760">
        <ele>1154.0</ele>
        <time>2021-08-21T06:23:53Z</time>
      </trkpt>
      <trkpt lat="42.7697870" lon="-5.4657810">
        <ele>1154.0</ele>
        <time>2021-08-21T06:23:54Z</time>
      </trkpt>
      <trkpt lat="42.7698170" lon="-5.4657860">
        <ele>1154.0</ele>
        <time>2021-08-21T06:23:55Z</time>
      </trkpt>
      <trkpt lat="42.7698480" lon="-5.4657880">
        <ele>1154.0</ele>
        <time>2021-08-21T06:23:56Z</time>
      </trkpt>
      <trkpt lat="42.7698770" lon="-5.4657940">
        <ele>1154.0</ele>
        <time>2021-08-21T06:23:57Z</time>
      </trkpt>
      <trkpt lat="42.7699220" lon="-5.4658000">
        <ele>1154.0</ele>
        <time>2021-08-21T06:23:58Z</time>
      </trkpt>
      <trkpt lat="42.7699370" lon="-5.4658000">
        <ele>1154.0</ele>
        <time>2021-08-21T06:23:59Z</time>
      </trkpt>
      <trkpt lat="42.7699660" lon="-5.4658030">
        <ele>1154.0</ele>
        <time>2021-08-21T06:24:00Z</time>
      </trkpt>
      <trkpt lat="42.7700060" lon="-5.4658060">
        <ele>1154.0</ele>
        <time>2021-08-21T06:24:01Z</time>
      </trkpt>
      <trkpt lat="42.7700190" lon="-5.4658070">
        <ele>1155.0</ele>
        <time>2021-08-21T06:24:02Z</time>
      </trkpt>
      <trkpt lat="42.7700460" lon="-5.4658080">
        <ele>1155.0</ele>
        <time>2021-08-21T06:24:03Z</time>
      </trkpt>
      <trkpt lat="42.7700750" lon="-5.4658080">
        <ele>1155.0</ele>
        <time>2021-08-21T06:24:04Z</time>
      </trkpt>
      <trkpt lat="42.7701030" lon="-5.4658080">
        <ele>1155.0</ele>
        <time>2021-08-21T06:24:05Z</time>
      </trkpt>
      <trkpt lat="42.7701320" lon="-5.4658100">
        <ele>1155.0</ele>
        <time>2021-08-21T06:24:06Z</time>
      </trkpt>
      <trkpt lat="42.7701590" lon="-5.4658120">
        <ele>1155.0</ele>
        <time>2021-08-21T06:24:07Z</time>
      </trkpt>
      <trkpt lat="42.7701870" lon="-5.4658140">
        <ele>1155.0</ele>
        <time>2021-08-21T06:24:08Z</time>
      </trkpt>
      <trkpt lat="42.7702120" lon="-5.4658170">
        <ele>1155.0</ele>
        <time>2021-08-21T06:24:09Z</time>
      </trkpt>
      <trkpt lat="42.7702390" lon="-5.4658200">
        <ele>1155.0</ele>
        <time>2021-08-21T06:24:10Z</time>
      </trkpt>
      <trkpt lat="42.7702640" lon="-5.4658250">
        <ele>1155.0</ele>
        <time>2021-08-21T06:24:11Z</time>
      </trkpt>
      <trkpt lat="42.7702920" lon="-5.4658250">
        <ele>1155.0</ele>
        <time>2021-08-21T06:24:12Z</time>
      </trkpt>
      <trkpt lat="42.7703190" lon="-5.4658250">
        <ele>1155.0</ele>
        <time>2021-08-21T06:24:13Z</time>
      </trkpt>
      <trkpt lat="42.7703440" lon="-5.4658240">
        <ele>1155.0</ele>
        <time>2021-08-21T06:24:14Z</time>
      </trkpt>
      <trkpt lat="42.7703670" lon="-5.4658250">
        <ele>1155.0</ele>
        <time>2021-08-21T06:24:15Z</time>
      </trkpt>
      <trkpt lat="42.7703920" lon="-5.4658260">
        <ele>1155.0</ele>
        <time>2021-08-21T06:24:16Z</time>
      </trkpt>
      <trkpt lat="42.7704280" lon="-5.4658200">
        <ele>1155.0</ele>
        <time>2021-08-21T06:24:17Z</time>
      </trkpt>
      <trkpt lat="42.7704410" lon="-5.4658180">
        <ele>1155.0</ele>
        <time>2021-08-21T06:24:18Z</time>
      </trkpt>
      <trkpt lat="42.7704660" lon="-5.4658150">
        <ele>1155.0</ele>
        <time>2021-08-21T06:24:19Z</time>
      </trkpt>
      <trkpt lat="42.7704930" lon="-5.4658150">
        <ele>1155.0</ele>
        <time>2021-08-21T06:24:20Z</time>
      </trkpt>
      <trkpt lat="42.7705200" lon="-5.4658130">
        <ele>1155.0</ele>
        <time>2021-08-21T06:24:21Z</time>
      </trkpt>
      <trkpt lat="42.7705460" lon="-5.4658100">
        <ele>1155.0</ele>
        <time>2021-08-21T06:24:22Z</time>
      </trkpt>
      <trkpt lat="42.7705700" lon="-5.4658070">
        <ele>1155.0</ele>
        <time>2021-08-21T06:24:23Z</time>
      </trkpt>
      <trkpt lat="42.7705970" lon="-5.4658050">
        <ele>1155.0</ele>
        <time>2021-08-21T06:24:24Z</time>
      </trkpt>
      <trkpt lat="42.7706210" lon="-5.4658040">
        <ele>1155.0</ele>
        <time>2021-08-21T06:24:25Z</time>
      </trkpt>
      <trkpt lat="42.7706740" lon="-5.4657990">
        <ele>1155.0</ele>
        <time>2021-08-21T06:24:26Z</time>
      </trkpt>
      <trkpt lat="42.7706740" lon="-5.4657990">
        <ele>1155.0</ele>
        <time>2021-08-21T06:24:27Z</time>
      </trkpt>
      <trkpt lat="42.7707000" lon="-5.4657970">
        <ele>1155.0</ele>
        <time>2021-08-21T06:24:28Z</time>
      </trkpt>
      <trkpt lat="42.7707250" lon="-5.4657960">
        <ele>1155.0</ele>
        <time>2021-08-21T06:24:29Z</time>
      </trkpt>
      <trkpt lat="42.7707500" lon="-5.4657960">
        <ele>1155.0</ele>
        <time>2021-08-21T06:24:30Z</time>
      </trkpt>
      <trkpt lat="42.7707720" lon="-5.4657970">
        <ele>1155.0</ele>
        <time>2021-08-21T06:24:31Z</time>
      </trkpt>
      <trkpt lat="42.7707720" lon="-5.4657970">
        <ele>1155.0</ele>
        <time>2021-08-21T06:24:32Z</time>
      </trkpt>
      <trkpt lat="42.7708200" lon="-5.4657910">
        <ele>1154.0</ele>
        <time>2021-08-21T06:24:33Z</time>
      </trkpt>
      <trkpt lat="42.7708460" lon="-5.4657870">
        <ele>1154.0</ele>
        <time>2021-08-21T06:24:34Z</time>
      </trkpt>
      <trkpt lat="42.7708830" lon="-5.4657860">
        <ele>1154.0</ele>
        <time>2021-08-21T06:24:35Z</time>
      </trkpt>
      <trkpt lat="42.7708960" lon="-5.4657860">
        <ele>1154.0</ele>
        <time>2021-08-21T06:24:36Z</time>
      </trkpt>
      <trkpt lat="42.7709220" lon="-5.4657840">
        <ele>1154.0</ele>
        <time>2021-08-21T06:24:37Z</time>
      </trkpt>
      <trkpt lat="42.7709720" lon="-5.4657810">
        <ele>1154.0</ele>
        <time>2021-08-21T06:24:38Z</time>
      </trkpt>
      <trkpt lat="42.7709720" lon="-5.4657810">
        <ele>1153.0</ele>
        <time>2021-08-21T06:24:39Z</time>
      </trkpt>
      <trkpt lat="42.7709960" lon="-5.4657830">
        <ele>1153.0</ele>
        <time>2021-08-21T06:24:40Z</time>
      </trkpt>
      <trkpt lat="42.7710190" lon="-5.4657840">
        <ele>1153.0</ele>
        <time>2021-08-21T06:24:41Z</time>
      </trkpt>
      <trkpt lat="42.7710430" lon="-5.4657850">
        <ele>1153.0</ele>
        <time>2021-08-21T06:24:42Z</time>
      </trkpt>
      <trkpt lat="42.7710670" lon="-5.4657870">
        <ele>1153.0</ele>
        <time>2021-08-21T06:24:43Z</time>
      </trkpt>
      <trkpt lat="42.7710920" lon="-5.4657880">
        <ele>1153.0</ele>
        <time>2021-08-21T06:24:44Z</time>
      </trkpt>
      <trkpt lat="42.7711180" lon="-5.4657930">
        <ele>1152.0</ele>
        <time>2021-08-21T06:24:45Z</time>
      </trkpt>
      <trkpt lat="42.7711460" lon="-5.4657950">
        <ele>1152.0</ele>
        <time>2021-08-21T06:24:46Z</time>
      </trkpt>
      <trkpt lat="42.7711730" lon="-5.4658000">
        <ele>1152.0</ele>
        <time>2021-08-21T06:24:47Z</time>
      </trkpt>
      <trkpt lat="42.7711940" lon="-5.4658020">
        <ele>1152.0</ele>
        <time>2021-08-21T06:24:48Z</time>
      </trkpt>
      <trkpt lat="42.7712160" lon="-5.4658040">
        <ele>1152.0</ele>
        <time>2021-08-21T06:24:49Z</time>
      </trkpt>
      <trkpt lat="42.7712500" lon="-5.4658110">
        <ele>1152.0</ele>
        <time>2021-08-21T06:24:50Z</time>
      </trkpt>
      <trkpt lat="42.7712610" lon="-5.4658140">
        <ele>1152.0</ele>
        <time>2021-08-21T06:24:51Z</time>
      </trkpt>
      <trkpt lat="42.7712860" lon="-5.4658200">
        <ele>1152.0</ele>
        <time>2021-08-21T06:24:52Z</time>
      </trkpt>
      <trkpt lat="42.7713080" lon="-5.4658290">
        <ele>1152.0</ele>
        <time>2021-08-21T06:24:53Z</time>
      </trkpt>
      <trkpt lat="42.7713320" lon="-5.4658360">
        <ele>1152.0</ele>
        <time>2021-08-21T06:24:54Z</time>
      </trkpt>
      <trkpt lat="42.7713560" lon="-5.4658440">
        <ele>1152.0</ele>
        <time>2021-08-21T06:24:55Z</time>
      </trkpt>
      <trkpt lat="42.7713770" lon="-5.4658520">
        <ele>1152.0</ele>
        <time>2021-08-21T06:24:56Z</time>
      </trkpt>
      <trkpt lat="42.7714000" lon="-5.4658590">
        <ele>1152.0</ele>
        <time>2021-08-21T06:24:57Z</time>
      </trkpt>
      <trkpt lat="42.7714250" lon="-5.4658660">
        <ele>1152.0</ele>
        <time>2021-08-21T06:24:58Z</time>
      </trkpt>
      <trkpt lat="42.7714520" lon="-5.4658730">
        <ele>1152.0</ele>
        <time>2021-08-21T06:24:59Z</time>
      </trkpt>
      <trkpt lat="42.7714790" lon="-5.4658790">
        <ele>1152.0</ele>
        <time>2021-08-21T06:25:00Z</time>
      </trkpt>
      <trkpt lat="42.7715060" lon="-5.4658840">
        <ele>1152.0</ele>
        <time>2021-08-21T06:25:01Z</time>
      </trkpt>
      <trkpt lat="42.7715350" lon="-5.4658910">
        <ele>1152.0</ele>
        <time>2021-08-21T06:25:02Z</time>
      </trkpt>
      <trkpt lat="42.7715710" lon="-5.4659020">
        <ele>1152.0</ele>
        <time>2021-08-21T06:25:03Z</time>
      </trkpt>
      <trkpt lat="42.7715820" lon="-5.4659060">
        <ele>1152.0</ele>
        <time>2021-08-21T06:25:04Z</time>
      </trkpt>
      <trkpt lat="42.7716090" lon="-5.4659110">
        <ele>1152.0</ele>
        <time>2021-08-21T06:25:05Z</time>
      </trkpt>
      <trkpt lat="42.7716340" lon="-5.4659180">
        <ele>1152.0</ele>
        <time>2021-08-21T06:25:06Z</time>
      </trkpt>
      <trkpt lat="42.7716570" lon="-5.4659250">
        <ele>1152.0</ele>
        <time>2021-08-21T06:25:07Z</time>
      </trkpt>
      <trkpt lat="42.7716810" lon="-5.4659310">
        <ele>1152.0</ele>
        <time>2021-08-21T06:25:08Z</time>
      </trkpt>
      <trkpt lat="42.7717070" lon="-5.4659400">
        <ele>1152.0</ele>
        <time>2021-08-21T06:25:09Z</time>
      </trkpt>
      <trkpt lat="42.7717070" lon="-5.4659400">
        <ele>1152.0</ele>
        <time>2021-08-21T06:25:10Z</time>
      </trkpt>
      <trkpt lat="42.7717670" lon="-5.4659580">
        <ele>1152.0</ele>
        <time>2021-08-21T06:25:11Z</time>
      </trkpt>
      <trkpt lat="42.7717790" lon="-5.4659620">
        <ele>1152.0</ele>
        <time>2021-08-21T06:25:12Z</time>
      </trkpt>
      <trkpt lat="42.7718140" lon="-5.4659750">
        <ele>1152.0</ele>
        <time>2021-08-21T06:25:13Z</time>
      </trkpt>
      <trkpt lat="42.7718250" lon="-5.4659810">
        <ele>1151.0</ele>
        <time>2021-08-21T06:25:14Z</time>
      </trkpt>
      <trkpt lat="42.7718450" lon="-5.4659920">
        <ele>1151.0</ele>
        <time>2021-08-21T06:25:15Z</time>
      </trkpt>
      <trkpt lat="42.7718680" lon="-5.4660030">
        <ele>1151.0</ele>
        <time>2021-08-21T06:25:16Z</time>
      </trkpt>
      <trkpt lat="42.7719010" lon="-5.4660170">
        <ele>1151.0</ele>
        <time>2021-08-21T06:25:17Z</time>
      </trkpt>
      <trkpt lat="42.7719120" lon="-5.4660220">
        <ele>1152.0</ele>
        <time>2021-08-21T06:25:18Z</time>
      </trkpt>
      <trkpt lat="42.7719340" lon="-5.4660290">
        <ele>1152.0</ele>
        <time>2021-08-21T06:25:19Z</time>
      </trkpt>
      <trkpt lat="42.7719540" lon="-5.4660410">
        <ele>1152.0</ele>
        <time>2021-08-21T06:25:20Z</time>
      </trkpt>
      <trkpt lat="42.7719780" lon="-5.4660520">
        <ele>1152.0</ele>
        <time>2021-08-21T06:25:21Z</time>
      </trkpt>
      <trkpt lat="42.7720020" lon="-5.4660590">
        <ele>1152.0</ele>
        <time>2021-08-21T06:25:22Z</time>
      </trkpt>
      <trkpt lat="42.7720400" lon="-5.4660710">
        <ele>1152.0</ele>
        <time>2021-08-21T06:25:23Z</time>
      </trkpt>
      <trkpt lat="42.7720530" lon="-5.4660750">
        <ele>1152.0</ele>
        <time>2021-08-21T06:25:24Z</time>
      </trkpt>
      <trkpt lat="42.7720760" lon="-5.4660870">
        <ele>1152.0</ele>
        <time>2021-08-21T06:25:25Z</time>
      </trkpt>
      <trkpt lat="42.7721010" lon="-5.4661000">
        <ele>1152.0</ele>
        <time>2021-08-21T06:25:26Z</time>
      </trkpt>
      <trkpt lat="42.7721240" lon="-5.4661150">
        <ele>1152.0</ele>
        <time>2021-08-21T06:25:27Z</time>
      </trkpt>
      <trkpt lat="42.7721600" lon="-5.4661310">
        <ele>1152.0</ele>
        <time>2021-08-21T06:25:28Z</time>
      </trkpt>
      <trkpt lat="42.7721720" lon="-5.4661360">
        <ele>1152.0</ele>
        <time>2021-08-21T06:25:29Z</time>
      </trkpt>
      <trkpt lat="42.7722030" lon="-5.4661600">
        <ele>1152.0</ele>
        <time>2021-08-21T06:25:30Z</time>
      </trkpt>
      <trkpt lat="42.7722150" lon="-5.4661670">
        <ele>1152.0</ele>
        <time>2021-08-21T06:25:31Z</time>
      </trkpt>
      <trkpt lat="42.7722420" lon="-5.4661760">
        <ele>1152.0</ele>
        <time>2021-08-21T06:25:32Z</time>
      </trkpt>
      <trkpt lat="42.7722660" lon="-5.4661810">
        <ele>1152.0</ele>
        <time>2021-08-21T06:25:33Z</time>
      </trkpt>
      <trkpt lat="42.7722870" lon="-5.4661880">
        <ele>1152.0</ele>
        <time>2021-08-21T06:25:34Z</time>
      </trkpt>
      <trkpt lat="42.7723100" lon="-5.4661940">
        <ele>1152.0</ele>
        <time>2021-08-21T06:25:35Z</time>
      </trkpt>
      <trkpt lat="42.7723320" lon="-5.4662010">
        <ele>1152.0</ele>
        <time>2021-08-21T06:25:36Z</time>
      </trkpt>
      <trkpt lat="42.7723560" lon="-5.4662090">
        <ele>1152.0</ele>
        <time>2021-08-21T06:25:37Z</time>
      </trkpt>
      <trkpt lat="42.7723830" lon="-5.4662170">
        <ele>1152.0</ele>
        <time>2021-08-21T06:25:38Z</time>
      </trkpt>
      <trkpt lat="42.7724270" lon="-5.4662320">
        <ele>1152.0</ele>
        <time>2021-08-21T06:25:39Z</time>
      </trkpt>
      <trkpt lat="42.7724400" lon="-5.4662380">
        <ele>1152.0</ele>
        <time>2021-08-21T06:25:40Z</time>
      </trkpt>
      <trkpt lat="42.7724690" lon="-5.4662450">
        <ele>1152.0</ele>
        <time>2021-08-21T06:25:41Z</time>
      </trkpt>
      <trkpt lat="42.7725150" lon="-5.4662480">
        <ele>1152.0</ele>
        <time>2021-08-21T06:25:42Z</time>
      </trkpt>
      <trkpt lat="42.7725280" lon="-5.4662500">
        <ele>1152.0</ele>
        <time>2021-08-21T06:25:43Z</time>
      </trkpt>
      <trkpt lat="42.7725550" lon="-5.4662550">
        <ele>1153.0</ele>
        <time>2021-08-21T06:25:44Z</time>
      </trkpt>
      <trkpt lat="42.7725820" lon="-5.4662580">
        <ele>1153.0</ele>
        <time>2021-08-21T06:25:45Z</time>
      </trkpt>
      <trkpt lat="42.7726180" lon="-5.4662580">
        <ele>1153.0</ele>
        <time>2021-08-21T06:25:46Z</time>
      </trkpt>
      <trkpt lat="42.7726520" lon="-5.4662600">
        <ele>1153.0</ele>
        <time>2021-08-21T06:25:47Z</time>
      </trkpt>
      <trkpt lat="42.7726840" lon="-5.4662640">
        <ele>1153.0</ele>
        <time>2021-08-21T06:25:48Z</time>
      </trkpt>
      <trkpt lat="42.7727140" lon="-5.4662630">
        <ele>1153.0</ele>
        <time>2021-08-21T06:25:49Z</time>
      </trkpt>
      <trkpt lat="42.7727410" lon="-5.4662620">
        <ele>1153.0</ele>
        <time>2021-08-21T06:25:50Z</time>
      </trkpt>
      <trkpt lat="42.7727710" lon="-5.4662610">
        <ele>1153.0</ele>
        <time>2021-08-21T06:25:51Z</time>
      </trkpt>
      <trkpt lat="42.7727980" lon="-5.4662620">
        <ele>1153.0</ele>
        <time>2021-08-21T06:25:52Z</time>
      </trkpt>
      <trkpt lat="42.7728270" lon="-5.4662660">
        <ele>1153.0</ele>
        <time>2021-08-21T06:25:53Z</time>
      </trkpt>
      <trkpt lat="42.7728580" lon="-5.4662680">
        <ele>1153.0</ele>
        <time>2021-08-21T06:25:54Z</time>
      </trkpt>
      <trkpt lat="42.7728910" lon="-5.4662690">
        <ele>1153.0</ele>
        <time>2021-08-21T06:25:55Z</time>
      </trkpt>
      <trkpt lat="42.7729190" lon="-5.4662680">
        <ele>1153.0</ele>
        <time>2021-08-21T06:25:56Z</time>
      </trkpt>
      <trkpt lat="42.7729710" lon="-5.4662710">
        <ele>1153.0</ele>
        <time>2021-08-21T06:25:57Z</time>
      </trkpt>
      <trkpt lat="42.7729710" lon="-5.4662710">
        <ele>1153.0</ele>
        <time>2021-08-21T06:25:58Z</time>
      </trkpt>
      <trkpt lat="42.7730110" lon="-5.4662750">
        <ele>1153.0</ele>
        <time>2021-08-21T06:25:59Z</time>
      </trkpt>
      <trkpt lat="42.7730240" lon="-5.4662750">
        <ele>1153.0</ele>
        <time>2021-08-21T06:26:00Z</time>
      </trkpt>
      <trkpt lat="42.7730510" lon="-5.4662740">
        <ele>1153.0</ele>
        <time>2021-08-21T06:26:01Z</time>
      </trkpt>
      <trkpt lat="42.7730770" lon="-5.4662710">
        <ele>1153.0</ele>
        <time>2021-08-21T06:26:02Z</time>
      </trkpt>
      <trkpt lat="42.7731050" lon="-5.4662680">
        <ele>1153.0</ele>
        <time>2021-08-21T06:26:03Z</time>
      </trkpt>
      <trkpt lat="42.7731340" lon="-5.4662660">
        <ele>1153.0</ele>
        <time>2021-08-21T06:26:04Z</time>
      </trkpt>
      <trkpt lat="42.7731600" lon="-5.4662660">
        <ele>1154.0</ele>
        <time>2021-08-21T06:26:05Z</time>
      </trkpt>
      <trkpt lat="42.7731880" lon="-5.4662670">
        <ele>1154.0</ele>
        <time>2021-08-21T06:26:06Z</time>
      </trkpt>
      <trkpt lat="42.7732140" lon="-5.4662680">
        <ele>1154.0</ele>
        <time>2021-08-21T06:26:07Z</time>
      </trkpt>
      <trkpt lat="42.7732430" lon="-5.4662660">
        <ele>1154.0</ele>
        <time>2021-08-21T06:26:08Z</time>
      </trkpt>
      <trkpt lat="42.7732690" lon="-5.4662650">
        <ele>1154.0</ele>
        <time>2021-08-21T06:26:09Z</time>
      </trkpt>
      <trkpt lat="42.7732950" lon="-5.4662610">
        <ele>1154.0</ele>
        <time>2021-08-21T06:26:10Z</time>
      </trkpt>
      <trkpt lat="42.7733220" lon="-5.4662580">
        <ele>1154.0</ele>
        <time>2021-08-21T06:26:11Z</time>
      </trkpt>
      <trkpt lat="42.7733490" lon="-5.4662550">
        <ele>1154.0</ele>
        <time>2021-08-21T06:26:12Z</time>
      </trkpt>
      <trkpt lat="42.7733740" lon="-5.4662540">
        <ele>1154.0</ele>
        <time>2021-08-21T06:26:13Z</time>
      </trkpt>
      <trkpt lat="42.7734000" lon="-5.4662560">
        <ele>1154.0</ele>
        <time>2021-08-21T06:26:14Z</time>
      </trkpt>
      <trkpt lat="42.7734280" lon="-5.4662560">
        <ele>1154.0</ele>
        <time>2021-08-21T06:26:15Z</time>
      </trkpt>
      <trkpt lat="42.7734680" lon="-5.4662550">
        <ele>1154.0</ele>
        <time>2021-08-21T06:26:16Z</time>
      </trkpt>
      <trkpt lat="42.7734810" lon="-5.4662530">
        <ele>1155.0</ele>
        <time>2021-08-21T06:26:17Z</time>
      </trkpt>
      <trkpt lat="42.7735080" lon="-5.4662460">
        <ele>1155.0</ele>
        <time>2021-08-21T06:26:18Z</time>
      </trkpt>
      <trkpt lat="42.7735360" lon="-5.4662400">
        <ele>1155.0</ele>
        <time>2021-08-21T06:26:19Z</time>
      </trkpt>
      <trkpt lat="42.7735630" lon="-5.4662340">
        <ele>1155.0</ele>
        <time>2021-08-21T06:26:20Z</time>
      </trkpt>
      <trkpt lat="42.7735900" lon="-5.4662300">
        <ele>1155.0</ele>
        <time>2021-08-21T06:26:21Z</time>
      </trkpt>
      <trkpt lat="42.7736160" lon="-5.4662260">
        <ele>1155.0</ele>
        <time>2021-08-21T06:26:22Z</time>
      </trkpt>
      <trkpt lat="42.7736460" lon="-5.4662230">
        <ele>1155.0</ele>
        <time>2021-08-21T06:26:23Z</time>
      </trkpt>
      <trkpt lat="42.7736720" lon="-5.4662200">
        <ele>1155.0</ele>
        <time>2021-08-21T06:26:24Z</time>
      </trkpt>
      <trkpt lat="42.7737110" lon="-5.4662170">
        <ele>1155.0</ele>
        <time>2021-08-21T06:26:25Z</time>
      </trkpt>
      <trkpt lat="42.7737240" lon="-5.4662180">
        <ele>1155.0</ele>
        <time>2021-08-21T06:26:26Z</time>
      </trkpt>
      <trkpt lat="42.7737510" lon="-5.4662190">
        <ele>1155.0</ele>
        <time>2021-08-21T06:26:27Z</time>
      </trkpt>
      <trkpt lat="42.7737880" lon="-5.4662190">
        <ele>1155.0</ele>
        <time>2021-08-21T06:26:28Z</time>
      </trkpt>
      <trkpt lat="42.7738000" lon="-5.4662180">
        <ele>1155.0</ele>
        <time>2021-08-21T06:26:29Z</time>
      </trkpt>
      <trkpt lat="42.7738240" lon="-5.4662140">
        <ele>1155.0</ele>
        <time>2021-08-21T06:26:30Z</time>
      </trkpt>
      <trkpt lat="42.7738490" lon="-5.4662100">
        <ele>1156.0</ele>
        <time>2021-08-21T06:26:31Z</time>
      </trkpt>
      <trkpt lat="42.7738750" lon="-5.4662050">
        <ele>1155.0</ele>
        <time>2021-08-21T06:26:32Z</time>
      </trkpt>
      <trkpt lat="42.7739010" lon="-5.4662020">
        <ele>1155.0</ele>
        <time>2021-08-21T06:26:33Z</time>
      </trkpt>
      <trkpt lat="42.7739270" lon="-5.4662010">
        <ele>1155.0</ele>
        <time>2021-08-21T06:26:34Z</time>
      </trkpt>
      <trkpt lat="42.7739690" lon="-5.4661950">
        <ele>1155.0</ele>
        <time>2021-08-21T06:26:35Z</time>
      </trkpt>
      <trkpt lat="42.7739820" lon="-5.4661920">
        <ele>1156.0</ele>
        <time>2021-08-21T06:26:36Z</time>
      </trkpt>
      <trkpt lat="42.7740090" lon="-5.4661860">
        <ele>1156.0</ele>
        <time>2021-08-21T06:26:37Z</time>
      </trkpt>
      <trkpt lat="42.7740330" lon="-5.4661780">
        <ele>1156.0</ele>
        <time>2021-08-21T06:26:38Z</time>
      </trkpt>
      <trkpt lat="42.7740580" lon="-5.4661690">
        <ele>1155.0</ele>
        <time>2021-08-21T06:26:39Z</time>
      </trkpt>
      <trkpt lat="42.7740820" lon="-5.4661660">
        <ele>1155.0</ele>
        <time>2021-08-21T06:26:40Z</time>
      </trkpt>
      <trkpt lat="42.7741040" lon="-5.4661640">
        <ele>1155.0</ele>
        <time>2021-08-21T06:26:41Z</time>
      </trkpt>
      <trkpt lat="42.7741290" lon="-5.4661590">
        <ele>1155.0</ele>
        <time>2021-08-21T06:26:42Z</time>
      </trkpt>
      <trkpt lat="42.7741540" lon="-5.4661530">
        <ele>1155.0</ele>
        <time>2021-08-21T06:26:43Z</time>
      </trkpt>
      <trkpt lat="42.7741750" lon="-5.4661480">
        <ele>1155.0</ele>
        <time>2021-08-21T06:26:44Z</time>
      </trkpt>
      <trkpt lat="42.7741990" lon="-5.4661440">
        <ele>1155.0</ele>
        <time>2021-08-21T06:26:45Z</time>
      </trkpt>
      <trkpt lat="42.7742350" lon="-5.4661400">
        <ele>1155.0</ele>
        <time>2021-08-21T06:26:46Z</time>
      </trkpt>
      <trkpt lat="42.7742480" lon="-5.4661380">
        <ele>1155.0</ele>
        <time>2021-08-21T06:26:47Z</time>
      </trkpt>
      <trkpt lat="42.7742710" lon="-5.4661370">
        <ele>1155.0</ele>
        <time>2021-08-21T06:26:48Z</time>
      </trkpt>
      <trkpt lat="42.7743050" lon="-5.4661330">
        <ele>1155.0</ele>
        <time>2021-08-21T06:26:49Z</time>
      </trkpt>
      <trkpt lat="42.7743170" lon="-5.4661300">
        <ele>1155.0</ele>
        <time>2021-08-21T06:26:50Z</time>
      </trkpt>
      <trkpt lat="42.7743400" lon="-5.4661270">
        <ele>1155.0</ele>
        <time>2021-08-21T06:26:51Z</time>
      </trkpt>
      <trkpt lat="42.7743760" lon="-5.4661220">
        <ele>1155.0</ele>
        <time>2021-08-21T06:26:52Z</time>
      </trkpt>
      <trkpt lat="42.7743880" lon="-5.4661200">
        <ele>1155.0</ele>
        <time>2021-08-21T06:26:53Z</time>
      </trkpt>
      <trkpt lat="42.7744120" lon="-5.4661140">
        <ele>1155.0</ele>
        <time>2021-08-21T06:26:54Z</time>
      </trkpt>
      <trkpt lat="42.7744480" lon="-5.4661070">
        <ele>1155.0</ele>
        <time>2021-08-21T06:26:55Z</time>
      </trkpt>
      <trkpt lat="42.7744600" lon="-5.4661050">
        <ele>1155.0</ele>
        <time>2021-08-21T06:26:56Z</time>
      </trkpt>
      <trkpt lat="42.7744840" lon="-5.4661000">
        <ele>1155.0</ele>
        <time>2021-08-21T06:26:57Z</time>
      </trkpt>
      <trkpt lat="42.7745060" lon="-5.4660950">
        <ele>1154.0</ele>
        <time>2021-08-21T06:26:58Z</time>
      </trkpt>
      <trkpt lat="42.7745300" lon="-5.4660920">
        <ele>1154.0</ele>
        <time>2021-08-21T06:26:59Z</time>
      </trkpt>
      <trkpt lat="42.7745520" lon="-5.4660890">
        <ele>1154.0</ele>
        <time>2021-08-21T06:27:00Z</time>
      </trkpt>
      <trkpt lat="42.7745750" lon="-5.4660860">
        <ele>1154.0</ele>
        <time>2021-08-21T06:27:01Z</time>
      </trkpt>
      <trkpt lat="42.7745980" lon="-5.4660870">
        <ele>1154.0</ele>
        <time>2021-08-21T06:27:02Z</time>
      </trkpt>
      <trkpt lat="42.7746200" lon="-5.4660840">
        <ele>1154.0</ele>
        <time>2021-08-21T06:27:03Z</time>
      </trkpt>
      <trkpt lat="42.7746430" lon="-5.4660810">
        <ele>1154.0</ele>
        <time>2021-08-21T06:27:04Z</time>
      </trkpt>
      <trkpt lat="42.7746660" lon="-5.4660730">
        <ele>1154.0</ele>
        <time>2021-08-21T06:27:05Z</time>
      </trkpt>
      <trkpt lat="42.7746890" lon="-5.4660680">
        <ele>1154.0</ele>
        <time>2021-08-21T06:27:06Z</time>
      </trkpt>
      <trkpt lat="42.7747130" lon="-5.4660620">
        <ele>1154.0</ele>
        <time>2021-08-21T06:27:07Z</time>
      </trkpt>
      <trkpt lat="42.7747520" lon="-5.4660560">
        <ele>1154.0</ele>
        <time>2021-08-21T06:27:08Z</time>
      </trkpt>
      <trkpt lat="42.7747640" lon="-5.4660520">
        <ele>1154.0</ele>
        <time>2021-08-21T06:27:09Z</time>
      </trkpt>
      <trkpt lat="42.7747890" lon="-5.4660470">
        <ele>1154.0</ele>
        <time>2021-08-21T06:27:10Z</time>
      </trkpt>
      <trkpt lat="42.7748140" lon="-5.4660470">
        <ele>1153.0</ele>
        <time>2021-08-21T06:27:11Z</time>
      </trkpt>
      <trkpt lat="42.7748370" lon="-5.4660470">
        <ele>1153.0</ele>
        <time>2021-08-21T06:27:12Z</time>
      </trkpt>
      <trkpt lat="42.7748600" lon="-5.4660420">
        <ele>1153.0</ele>
        <time>2021-08-21T06:27:13Z</time>
      </trkpt>
      <trkpt lat="42.7748840" lon="-5.4660390">
        <ele>1153.0</ele>
        <time>2021-08-21T06:27:14Z</time>
      </trkpt>
      <trkpt lat="42.7749150" lon="-5.4660360">
        <ele>1153.0</ele>
        <time>2021-08-21T06:27:15Z</time>
      </trkpt>
      <trkpt lat="42.7749260" lon="-5.4660340">
        <ele>1153.0</ele>
        <time>2021-08-21T06:27:16Z</time>
      </trkpt>
      <trkpt lat="42.7749490" lon="-5.4660310">
        <ele>1153.0</ele>
        <time>2021-08-21T06:27:17Z</time>
      </trkpt>
      <trkpt lat="42.7749720" lon="-5.4660270">
        <ele>1153.0</ele>
        <time>2021-08-21T06:27:18Z</time>
      </trkpt>
      <trkpt lat="42.7749920" lon="-5.4660220">
        <ele>1153.0</ele>
        <time>2021-08-21T06:27:19Z</time>
      </trkpt>
      <trkpt lat="42.7750130" lon="-5.4660170">
        <ele>1153.0</ele>
        <time>2021-08-21T06:27:20Z</time>
      </trkpt>
      <trkpt lat="42.7750350" lon="-5.4660140">
        <ele>1153.0</ele>
        <time>2021-08-21T06:27:21Z</time>
      </trkpt>
      <trkpt lat="42.7750540" lon="-5.4660120">
        <ele>1153.0</ele>
        <time>2021-08-21T06:27:22Z</time>
      </trkpt>
      <trkpt lat="42.7750770" lon="-5.4660120">
        <ele>1153.0</ele>
        <time>2021-08-21T06:27:23Z</time>
      </trkpt>
      <trkpt lat="42.7751000" lon="-5.4660100">
        <ele>1152.0</ele>
        <time>2021-08-21T06:27:24Z</time>
      </trkpt>
      <trkpt lat="42.7751250" lon="-5.4660050">
        <ele>1152.0</ele>
        <time>2021-08-21T06:27:25Z</time>
      </trkpt>
      <trkpt lat="42.7751500" lon="-5.4660000">
        <ele>1152.0</ele>
        <time>2021-08-21T06:27:26Z</time>
      </trkpt>
      <trkpt lat="42.7751730" lon="-5.4659940">
        <ele>1152.0</ele>
        <time>2021-08-21T06:27:27Z</time>
      </trkpt>
      <trkpt lat="42.7751960" lon="-5.4659910">
        <ele>1152.0</ele>
        <time>2021-08-21T06:27:28Z</time>
      </trkpt>
      <trkpt lat="42.7752190" lon="-5.4659870">
        <ele>1151.0</ele>
        <time>2021-08-21T06:27:29Z</time>
      </trkpt>
      <trkpt lat="42.7752410" lon="-5.4659840">
        <ele>1151.0</ele>
        <time>2021-08-21T06:27:30Z</time>
      </trkpt>
      <trkpt lat="42.7752630" lon="-5.4659830">
        <ele>1151.0</ele>
        <time>2021-08-21T06:27:31Z</time>
      </trkpt>
      <trkpt lat="42.7752830" lon="-5.4659820">
        <ele>1151.0</ele>
        <time>2021-08-21T06:27:32Z</time>
      </trkpt>
      <trkpt lat="42.7753040" lon="-5.4659790">
        <ele>1151.0</ele>
        <time>2021-08-21T06:27:33Z</time>
      </trkpt>
      <trkpt lat="42.7753230" lon="-5.4659730">
        <ele>1151.0</ele>
        <time>2021-08-21T06:27:34Z</time>
      </trkpt>
      <trkpt lat="42.7753460" lon="-5.4659690">
        <ele>1151.0</ele>
        <time>2021-08-21T06:27:35Z</time>
      </trkpt>
      <trkpt lat="42.7753680" lon="-5.4659660">
        <ele>1151.0</ele>
        <time>2021-08-21T06:27:36Z</time>
      </trkpt>
      <trkpt lat="42.7753920" lon="-5.4659620">
        <ele>1151.0</ele>
        <time>2021-08-21T06:27:37Z</time>
      </trkpt>
      <trkpt lat="42.7754120" lon="-5.4659610">
        <ele>1152.0</ele>
        <time>2021-08-21T06:27:38Z</time>
      </trkpt>
      <trkpt lat="42.7754340" lon="-5.4659590">
        <ele>1152.0</ele>
        <time>2021-08-21T06:27:39Z</time>
      </trkpt>
      <trkpt lat="42.7754560" lon="-5.4659570">
        <ele>1152.0</ele>
        <time>2021-08-21T06:27:40Z</time>
      </trkpt>
      <trkpt lat="42.7754890" lon="-5.4659550">
        <ele>1152.0</ele>
        <time>2021-08-21T06:27:41Z</time>
      </trkpt>
      <trkpt lat="42.7755010" lon="-5.4659540">
        <ele>1152.0</ele>
        <time>2021-08-21T06:27:42Z</time>
      </trkpt>
      <trkpt lat="42.7755320" lon="-5.4659500">
        <ele>1152.0</ele>
        <time>2021-08-21T06:27:43Z</time>
      </trkpt>
      <trkpt lat="42.7755430" lon="-5.4659480">
        <ele>1152.0</ele>
        <time>2021-08-21T06:27:44Z</time>
      </trkpt>
      <trkpt lat="42.7755660" lon="-5.4659450">
        <ele>1152.0</ele>
        <time>2021-08-21T06:27:45Z</time>
      </trkpt>
      <trkpt lat="42.7755880" lon="-5.4659410">
        <ele>1152.0</ele>
        <time>2021-08-21T06:27:46Z</time>
      </trkpt>
      <trkpt lat="42.7756090" lon="-5.4659360">
        <ele>1152.0</ele>
        <time>2021-08-21T06:27:47Z</time>
      </trkpt>
      <trkpt lat="42.7756270" lon="-5.4659320">
        <ele>1152.0</ele>
        <time>2021-08-21T06:27:48Z</time>
      </trkpt>
      <trkpt lat="42.7756460" lon="-5.4659270">
        <ele>1152.0</ele>
        <time>2021-08-21T06:27:49Z</time>
      </trkpt>
      <trkpt lat="42.7756770" lon="-5.4659220">
        <ele>1152.0</ele>
        <time>2021-08-21T06:27:50Z</time>
      </trkpt>
      <trkpt lat="42.7756870" lon="-5.4659200">
        <ele>1152.0</ele>
        <time>2021-08-21T06:27:51Z</time>
      </trkpt>
      <trkpt lat="42.7757080" lon="-5.4659170">
        <ele>1152.0</ele>
        <time>2021-08-21T06:27:52Z</time>
      </trkpt>
      <trkpt lat="42.7757290" lon="-5.4659150">
        <ele>1152.0</ele>
        <time>2021-08-21T06:27:53Z</time>
      </trkpt>
      <trkpt lat="42.7757500" lon="-5.4659110">
        <ele>1152.0</ele>
        <time>2021-08-21T06:27:54Z</time>
      </trkpt>
      <trkpt lat="42.7757700" lon="-5.4659080">
        <ele>1152.0</ele>
        <time>2021-08-21T06:27:55Z</time>
      </trkpt>
      <trkpt lat="42.7757910" lon="-5.4659060">
        <ele>1152.0</ele>
        <time>2021-08-21T06:27:56Z</time>
      </trkpt>
      <trkpt lat="42.7758150" lon="-5.4659020">
        <ele>1152.0</ele>
        <time>2021-08-21T06:27:57Z</time>
      </trkpt>
      <trkpt lat="42.7758350" lon="-5.4658980">
        <ele>1152.0</ele>
        <time>2021-08-21T06:27:58Z</time>
      </trkpt>
      <trkpt lat="42.7758540" lon="-5.4658940">
        <ele>1152.0</ele>
        <time>2021-08-21T06:27:59Z</time>
      </trkpt>
      <trkpt lat="42.7758820" lon="-5.4658890">
        <ele>1152.0</ele>
        <time>2021-08-21T06:28:00Z</time>
      </trkpt>
      <trkpt lat="42.7758910" lon="-5.4658870">
        <ele>1152.0</ele>
        <time>2021-08-21T06:28:01Z</time>
      </trkpt>
      <trkpt lat="42.7759100" lon="-5.4658830">
        <ele>1151.0</ele>
        <time>2021-08-21T06:28:02Z</time>
      </trkpt>
      <trkpt lat="42.7759290" lon="-5.4658790">
        <ele>1151.0</ele>
        <time>2021-08-21T06:28:03Z</time>
      </trkpt>
      <trkpt lat="42.7759490" lon="-5.4658760">
        <ele>1152.0</ele>
        <time>2021-08-21T06:28:04Z</time>
      </trkpt>
      <trkpt lat="42.7759710" lon="-5.4658720">
        <ele>1151.0</ele>
        <time>2021-08-21T06:28:05Z</time>
      </trkpt>
      <trkpt lat="42.7759910" lon="-5.4658680">
        <ele>1151.0</ele>
        <time>2021-08-21T06:28:06Z</time>
      </trkpt>
      <trkpt lat="42.7760120" lon="-5.4658660">
        <ele>1151.0</ele>
        <time>2021-08-21T06:28:07Z</time>
      </trkpt>
      <trkpt lat="42.7760310" lon="-5.4658640">
        <ele>1151.0</ele>
        <time>2021-08-21T06:28:08Z</time>
      </trkpt>
      <trkpt lat="42.7760490" lon="-5.4658620">
        <ele>1151.0</ele>
        <time>2021-08-21T06:28:09Z</time>
      </trkpt>
      <trkpt lat="42.7760690" lon="-5.4658600">
        <ele>1151.0</ele>
        <time>2021-08-21T06:28:10Z</time>
      </trkpt>
      <trkpt lat="42.7760910" lon="-5.4658590">
        <ele>1151.0</ele>
        <time>2021-08-21T06:28:11Z</time>
      </trkpt>
      <trkpt lat="42.7761130" lon="-5.4658560">
        <ele>1151.0</ele>
        <time>2021-08-21T06:28:12Z</time>
      </trkpt>
      <trkpt lat="42.7761310" lon="-5.4658510">
        <ele>1152.0</ele>
        <time>2021-08-21T06:28:13Z</time>
      </trkpt>
      <trkpt lat="42.7761510" lon="-5.4658440">
        <ele>1152.0</ele>
        <time>2021-08-21T06:28:14Z</time>
      </trkpt>
      <trkpt lat="42.7761720" lon="-5.4658390">
        <ele>1152.0</ele>
        <time>2021-08-21T06:28:15Z</time>
      </trkpt>
      <trkpt lat="42.7761720" lon="-5.4658390">
        <ele>1152.0</ele>
        <time>2021-08-21T06:28:16Z</time>
      </trkpt>
      <trkpt lat="42.7762200" lon="-5.4658350">
        <ele>1152.0</ele>
        <time>2021-08-21T06:28:17Z</time>
      </trkpt>
      <trkpt lat="42.7762400" lon="-5.4658310">
        <ele>1152.0</ele>
        <time>2021-08-21T06:28:18Z</time>
      </trkpt>
      <trkpt lat="42.7762590" lon="-5.4658260">
        <ele>1152.0</ele>
        <time>2021-08-21T06:28:19Z</time>
      </trkpt>
      <trkpt lat="42.7762800" lon="-5.4658220">
        <ele>1152.0</ele>
        <time>2021-08-21T06:28:20Z</time>
      </trkpt>
      <trkpt lat="42.7762800" lon="-5.4658220">
        <ele>1152.0</ele>
        <time>2021-08-21T06:28:21Z</time>
      </trkpt>
      <trkpt lat="42.7763150" lon="-5.4658120">
        <ele>1152.0</ele>
        <time>2021-08-21T06:28:22Z</time>
      </trkpt>
      <trkpt lat="42.7763350" lon="-5.4658080">
        <ele>1152.0</ele>
        <time>2021-08-21T06:28:23Z</time>
      </trkpt>
      <trkpt lat="42.7763530" lon="-5.4658040">
        <ele>1152.0</ele>
        <time>2021-08-21T06:28:24Z</time>
      </trkpt>
      <trkpt lat="42.7763730" lon="-5.4658020">
        <ele>1153.0</ele>
        <time>2021-08-21T06:28:25Z</time>
      </trkpt>
      <trkpt lat="42.7763920" lon="-5.4657990">
        <ele>1153.0</ele>
        <time>2021-08-21T06:28:26Z</time>
      </trkpt>
      <trkpt lat="42.7764130" lon="-5.4657950">
        <ele>1153.0</ele>
        <time>2021-08-21T06:28:27Z</time>
      </trkpt>
      <trkpt lat="42.7764330" lon="-5.4657950">
        <ele>1153.0</ele>
        <time>2021-08-21T06:28:28Z</time>
      </trkpt>
      <trkpt lat="42.7764550" lon="-5.4657920">
        <ele>1153.0</ele>
        <time>2021-08-21T06:28:29Z</time>
      </trkpt>
      <trkpt lat="42.7764740" lon="-5.4657910">
        <ele>1153.0</ele>
        <time>2021-08-21T06:28:30Z</time>
      </trkpt>
      <trkpt lat="42.7764950" lon="-5.4657870">
        <ele>1153.0</ele>
        <time>2021-08-21T06:28:31Z</time>
      </trkpt>
      <trkpt lat="42.7765150" lon="-5.4657840">
        <ele>1153.0</ele>
        <time>2021-08-21T06:28:32Z</time>
      </trkpt>
      <trkpt lat="42.7765360" lon="-5.4657800">
        <ele>1153.0</ele>
        <time>2021-08-21T06:28:33Z</time>
      </trkpt>
      <trkpt lat="42.7765570" lon="-5.4657770">
        <ele>1153.0</ele>
        <time>2021-08-21T06:28:34Z</time>
      </trkpt>
      <trkpt lat="42.7765760" lon="-5.4657750">
        <ele>1154.0</ele>
        <time>2021-08-21T06:28:35Z</time>
      </trkpt>
      <trkpt lat="42.7765960" lon="-5.4657760">
        <ele>1154.0</ele>
        <time>2021-08-21T06:28:36Z</time>
      </trkpt>
      <trkpt lat="42.7766170" lon="-5.4657750">
        <ele>1154.0</ele>
        <time>2021-08-21T06:28:37Z</time>
      </trkpt>
      <trkpt lat="42.7766390" lon="-5.4657740">
        <ele>1154.0</ele>
        <time>2021-08-21T06:28:38Z</time>
      </trkpt>
      <trkpt lat="42.7766620" lon="-5.4657730">
        <ele>1154.0</ele>
        <time>2021-08-21T06:28:39Z</time>
      </trkpt>
      <trkpt lat="42.7766950" lon="-5.4657670">
        <ele>1154.0</ele>
        <time>2021-08-21T06:28:40Z</time>
      </trkpt>
      <trkpt lat="42.7767050" lon="-5.4657630">
        <ele>1154.0</ele>
        <time>2021-08-21T06:28:41Z</time>
      </trkpt>
      <trkpt lat="42.7767270" lon="-5.4657560">
        <ele>1154.0</ele>
        <time>2021-08-21T06:28:42Z</time>
      </trkpt>
      <trkpt lat="42.7767470" lon="-5.4657480">
        <ele>1155.0</ele>
        <time>2021-08-21T06:28:43Z</time>
      </trkpt>
      <trkpt lat="42.7767670" lon="-5.4657440">
        <ele>1155.0</ele>
        <time>2021-08-21T06:28:44Z</time>
      </trkpt>
      <trkpt lat="42.7767850" lon="-5.4657440">
        <ele>1155.0</ele>
        <time>2021-08-21T06:28:45Z</time>
      </trkpt>
      <trkpt lat="42.7768050" lon="-5.4657440">
        <ele>1155.0</ele>
        <time>2021-08-21T06:28:46Z</time>
      </trkpt>
      <trkpt lat="42.7768230" lon="-5.4657420">
        <ele>1155.0</ele>
        <time>2021-08-21T06:28:47Z</time>
      </trkpt>
      <trkpt lat="42.7768420" lon="-5.4657370">
        <ele>1155.0</ele>
        <time>2021-08-21T06:28:48Z</time>
      </trkpt>
      <trkpt lat="42.7768660" lon="-5.4657330">
        <ele>1155.0</ele>
        <time>2021-08-21T06:28:49Z</time>
      </trkpt>
      <trkpt lat="42.7768900" lon="-5.4657300">
        <ele>1155.0</ele>
        <time>2021-08-21T06:28:50Z</time>
      </trkpt>
      <trkpt lat="42.7769140" lon="-5.4657250">
        <ele>1155.0</ele>
        <time>2021-08-21T06:28:51Z</time>
      </trkpt>
      <trkpt lat="42.7769360" lon="-5.4657220">
        <ele>1155.0</ele>
        <time>2021-08-21T06:28:52Z</time>
      </trkpt>
      <trkpt lat="42.7769610" lon="-5.4657190">
        <ele>1155.0</ele>
        <time>2021-08-21T06:28:53Z</time>
      </trkpt>
      <trkpt lat="42.7769830" lon="-5.4657140">
        <ele>1155.0</ele>
        <time>2021-08-21T06:28:54Z</time>
      </trkpt>
      <trkpt lat="42.7770060" lon="-5.4657100">
        <ele>1155.0</ele>
        <time>2021-08-21T06:28:55Z</time>
      </trkpt>
      <trkpt lat="42.7770280" lon="-5.4657060">
        <ele>1155.0</ele>
        <time>2021-08-21T06:28:56Z</time>
      </trkpt>
      <trkpt lat="42.7770520" lon="-5.4657020">
        <ele>1156.0</ele>
        <time>2021-08-21T06:28:57Z</time>
      </trkpt>
      <trkpt lat="42.7770750" lon="-5.4656980">
        <ele>1156.0</ele>
        <time>2021-08-21T06:28:58Z</time>
      </trkpt>
      <trkpt lat="42.7770960" lon="-5.4656950">
        <ele>1156.0</ele>
        <time>2021-08-21T06:28:59Z</time>
      </trkpt>
      <trkpt lat="42.7771170" lon="-5.4656940">
        <ele>1156.0</ele>
        <time>2021-08-21T06:29:00Z</time>
      </trkpt>
      <trkpt lat="42.7771390" lon="-5.4656910">
        <ele>1156.0</ele>
        <time>2021-08-21T06:29:01Z</time>
      </trkpt>
      <trkpt lat="42.7771720" lon="-5.4656840">
        <ele>1156.0</ele>
        <time>2021-08-21T06:29:02Z</time>
      </trkpt>
      <trkpt lat="42.7771820" lon="-5.4656800">
        <ele>1157.0</ele>
        <time>2021-08-21T06:29:03Z</time>
      </trkpt>
      <trkpt lat="42.7772120" lon="-5.4656760">
        <ele>1157.0</ele>
        <time>2021-08-21T06:29:04Z</time>
      </trkpt>
      <trkpt lat="42.7772230" lon="-5.4656740">
        <ele>1157.0</ele>
        <time>2021-08-21T06:29:05Z</time>
      </trkpt>
      <trkpt lat="42.7772430" lon="-5.4656720">
        <ele>1157.0</ele>
        <time>2021-08-21T06:29:06Z</time>
      </trkpt>
      <trkpt lat="42.7772630" lon="-5.4656670">
        <ele>1157.0</ele>
        <time>2021-08-21T06:29:07Z</time>
      </trkpt>
      <trkpt lat="42.7772860" lon="-5.4656640">
        <ele>1157.0</ele>
        <time>2021-08-21T06:29:08Z</time>
      </trkpt>
      <trkpt lat="42.7773100" lon="-5.4656580">
        <ele>1157.0</ele>
        <time>2021-08-21T06:29:09Z</time>
      </trkpt>
      <trkpt lat="42.7773310" lon="-5.4656530">
        <ele>1157.0</ele>
        <time>2021-08-21T06:29:10Z</time>
      </trkpt>
      <trkpt lat="42.7773550" lon="-5.4656480">
        <ele>1157.0</ele>
        <time>2021-08-21T06:29:11Z</time>
      </trkpt>
      <trkpt lat="42.7773750" lon="-5.4656440">
        <ele>1157.0</ele>
        <time>2021-08-21T06:29:12Z</time>
      </trkpt>
      <trkpt lat="42.7773950" lon="-5.4656370">
        <ele>1158.0</ele>
        <time>2021-08-21T06:29:13Z</time>
      </trkpt>
      <trkpt lat="42.7774180" lon="-5.4656320">
        <ele>1158.0</ele>
        <time>2021-08-21T06:29:14Z</time>
      </trkpt>
      <trkpt lat="42.7774420" lon="-5.4656280">
        <ele>1158.0</ele>
        <time>2021-08-21T06:29:15Z</time>
      </trkpt>
      <trkpt lat="42.7774760" lon="-5.4656240">
        <ele>1158.0</ele>
        <time>2021-08-21T06:29:16Z</time>
      </trkpt>
      <trkpt lat="42.7774870" lon="-5.4656210">
        <ele>1158.0</ele>
        <time>2021-08-21T06:29:17Z</time>
      </trkpt>
      <trkpt lat="42.7775090" lon="-5.4656170">
        <ele>1158.0</ele>
        <time>2021-08-21T06:29:18Z</time>
      </trkpt>
      <trkpt lat="42.7775290" lon="-5.4656130">
        <ele>1158.0</ele>
        <time>2021-08-21T06:29:19Z</time>
      </trkpt>
      <trkpt lat="42.7775490" lon="-5.4656090">
        <ele>1158.0</ele>
        <time>2021-08-21T06:29:20Z</time>
      </trkpt>
      <trkpt lat="42.7775700" lon="-5.4656050">
        <ele>1158.0</ele>
        <time>2021-08-21T06:29:21Z</time>
      </trkpt>
      <trkpt lat="42.7775920" lon="-5.4656010">
        <ele>1158.0</ele>
        <time>2021-08-21T06:29:22Z</time>
      </trkpt>
      <trkpt lat="42.7776130" lon="-5.4655960">
        <ele>1159.0</ele>
        <time>2021-08-21T06:29:23Z</time>
      </trkpt>
      <trkpt lat="42.7776340" lon="-5.4655890">
        <ele>1159.0</ele>
        <time>2021-08-21T06:29:24Z</time>
      </trkpt>
      <trkpt lat="42.7776650" lon="-5.4655800">
        <ele>1159.0</ele>
        <time>2021-08-21T06:29:25Z</time>
      </trkpt>
      <trkpt lat="42.7776740" lon="-5.4655760">
        <ele>1159.0</ele>
        <time>2021-08-21T06:29:26Z</time>
      </trkpt>
      <trkpt lat="42.7776930" lon="-5.4655700">
        <ele>1159.0</ele>
        <time>2021-08-21T06:29:27Z</time>
      </trkpt>
      <trkpt lat="42.7777160" lon="-5.4655640">
        <ele>1159.0</ele>
        <time>2021-08-21T06:29:28Z</time>
      </trkpt>
      <trkpt lat="42.7777390" lon="-5.4655590">
        <ele>1159.0</ele>
        <time>2021-08-21T06:29:29Z</time>
      </trkpt>
      <trkpt lat="42.7777650" lon="-5.4655560">
        <ele>1160.0</ele>
        <time>2021-08-21T06:29:30Z</time>
      </trkpt>
      <trkpt lat="42.7777900" lon="-5.4655530">
        <ele>1160.0</ele>
        <time>2021-08-21T06:29:31Z</time>
      </trkpt>
      <trkpt lat="42.7778110" lon="-5.4655480">
        <ele>1160.0</ele>
        <time>2021-08-21T06:29:32Z</time>
      </trkpt>
      <trkpt lat="42.7778320" lon="-5.4655430">
        <ele>1160.0</ele>
        <time>2021-08-21T06:29:33Z</time>
      </trkpt>
      <trkpt lat="42.7778530" lon="-5.4655380">
        <ele>1160.0</ele>
        <time>2021-08-21T06:29:34Z</time>
      </trkpt>
      <trkpt lat="42.7778890" lon="-5.4655290">
        <ele>1160.0</ele>
        <time>2021-08-21T06:29:35Z</time>
      </trkpt>
      <trkpt lat="42.7779000" lon="-5.4655260">
        <ele>1160.0</ele>
        <time>2021-08-21T06:29:36Z</time>
      </trkpt>
      <trkpt lat="42.7779230" lon="-5.4655170">
        <ele>1160.0</ele>
        <time>2021-08-21T06:29:37Z</time>
      </trkpt>
      <trkpt lat="42.7779430" lon="-5.4655080">
        <ele>1160.0</ele>
        <time>2021-08-21T06:29:38Z</time>
      </trkpt>
      <trkpt lat="42.7779780" lon="-5.4654960">
        <ele>1160.0</ele>
        <time>2021-08-21T06:29:39Z</time>
      </trkpt>
      <trkpt lat="42.7779890" lon="-5.4654930">
        <ele>1160.0</ele>
        <time>2021-08-21T06:29:40Z</time>
      </trkpt>
      <trkpt lat="42.7780140" lon="-5.4654910">
        <ele>1161.0</ele>
        <time>2021-08-21T06:29:41Z</time>
      </trkpt>
      <trkpt lat="42.7780350" lon="-5.4654880">
        <ele>1161.0</ele>
        <time>2021-08-21T06:29:42Z</time>
      </trkpt>
      <trkpt lat="42.7780590" lon="-5.4654850">
        <ele>1161.0</ele>
        <time>2021-08-21T06:29:43Z</time>
      </trkpt>
      <trkpt lat="42.7780830" lon="-5.4654820">
        <ele>1161.0</ele>
        <time>2021-08-21T06:29:44Z</time>
      </trkpt>
      <trkpt lat="42.7781090" lon="-5.4654750">
        <ele>1161.0</ele>
        <time>2021-08-21T06:29:45Z</time>
      </trkpt>
      <trkpt lat="42.7781490" lon="-5.4654620">
        <ele>1161.0</ele>
        <time>2021-08-21T06:29:46Z</time>
      </trkpt>
      <trkpt lat="42.7781610" lon="-5.4654560">
        <ele>1161.0</ele>
        <time>2021-08-21T06:29:47Z</time>
      </trkpt>
      <trkpt lat="42.7781850" lon="-5.4654460">
        <ele>1161.0</ele>
        <time>2021-08-21T06:29:48Z</time>
      </trkpt>
      <trkpt lat="42.7782090" lon="-5.4654350">
        <ele>1161.0</ele>
        <time>2021-08-21T06:29:49Z</time>
      </trkpt>
      <trkpt lat="42.7782310" lon="-5.4654230">
        <ele>1161.0</ele>
        <time>2021-08-21T06:29:50Z</time>
      </trkpt>
      <trkpt lat="42.7782560" lon="-5.4654110">
        <ele>1161.0</ele>
        <time>2021-08-21T06:29:51Z</time>
      </trkpt>
      <trkpt lat="42.7782800" lon="-5.4653980">
        <ele>1161.0</ele>
        <time>2021-08-21T06:29:52Z</time>
      </trkpt>
      <trkpt lat="42.7783030" lon="-5.4653840">
        <ele>1161.0</ele>
        <time>2021-08-21T06:29:53Z</time>
      </trkpt>
      <trkpt lat="42.7783270" lon="-5.4653680">
        <ele>1161.0</ele>
        <time>2021-08-21T06:29:54Z</time>
      </trkpt>
      <trkpt lat="42.7783270" lon="-5.4653680">
        <ele>1161.0</ele>
        <time>2021-08-21T06:29:55Z</time>
      </trkpt>
      <trkpt lat="42.7783730" lon="-5.4653410">
        <ele>1162.0</ele>
        <time>2021-08-21T06:29:56Z</time>
      </trkpt>
      <trkpt lat="42.7783920" lon="-5.4653260">
        <ele>1162.0</ele>
        <time>2021-08-21T06:29:57Z</time>
      </trkpt>
      <trkpt lat="42.7784110" lon="-5.4653130">
        <ele>1162.0</ele>
        <time>2021-08-21T06:29:58Z</time>
      </trkpt>
      <trkpt lat="42.7784300" lon="-5.4652980">
        <ele>1162.0</ele>
        <time>2021-08-21T06:29:59Z</time>
      </trkpt>
      <trkpt lat="42.7784500" lon="-5.4652840">
        <ele>1162.0</ele>
        <time>2021-08-21T06:30:00Z</time>
      </trkpt>
      <trkpt lat="42.7784810" lon="-5.4652650">
        <ele>1162.0</ele>
        <time>2021-08-21T06:30:01Z</time>
      </trkpt>
      <trkpt lat="42.7784920" lon="-5.4652580">
        <ele>1162.0</ele>
        <time>2021-08-21T06:30:02Z</time>
      </trkpt>
      <trkpt lat="42.7785250" lon="-5.4652410">
        <ele>1162.0</ele>
        <time>2021-08-21T06:30:03Z</time>
      </trkpt>
      <trkpt lat="42.7785360" lon="-5.4652340">
        <ele>1163.0</ele>
        <time>2021-08-21T06:30:04Z</time>
      </trkpt>
      <trkpt lat="42.7785620" lon="-5.4652250">
        <ele>1163.0</ele>
        <time>2021-08-21T06:30:05Z</time>
      </trkpt>
      <trkpt lat="42.7785890" lon="-5.4652170">
        <ele>1163.0</ele>
        <time>2021-08-21T06:30:06Z</time>
      </trkpt>
      <trkpt lat="42.7786260" lon="-5.4652000">
        <ele>1163.0</ele>
        <time>2021-08-21T06:30:07Z</time>
      </trkpt>
      <trkpt lat="42.7786370" lon="-5.4651940">
        <ele>1163.0</ele>
        <time>2021-08-21T06:30:08Z</time>
      </trkpt>
      <trkpt lat="42.7786600" lon="-5.4651850">
        <ele>1163.0</ele>
        <time>2021-08-21T06:30:09Z</time>
      </trkpt>
      <trkpt lat="42.7786850" lon="-5.4651750">
        <ele>1164.0</ele>
        <time>2021-08-21T06:30:10Z</time>
      </trkpt>
      <trkpt lat="42.7787090" lon="-5.4651640">
        <ele>1164.0</ele>
        <time>2021-08-21T06:30:11Z</time>
      </trkpt>
      <trkpt lat="42.7787330" lon="-5.4651550">
        <ele>1164.0</ele>
        <time>2021-08-21T06:30:12Z</time>
      </trkpt>
      <trkpt lat="42.7787600" lon="-5.4651440">
        <ele>1164.0</ele>
        <time>2021-08-21T06:30:13Z</time>
      </trkpt>
      <trkpt lat="42.7787850" lon="-5.4651320">
        <ele>1164.0</ele>
        <time>2021-08-21T06:30:14Z</time>
      </trkpt>
      <trkpt lat="42.7788140" lon="-5.4651210">
        <ele>1164.0</ele>
        <time>2021-08-21T06:30:15Z</time>
      </trkpt>
      <trkpt lat="42.7788380" lon="-5.4651110">
        <ele>1164.0</ele>
        <time>2021-08-21T06:30:16Z</time>
      </trkpt>
      <trkpt lat="42.7788650" lon="-5.4651020">
        <ele>1164.0</ele>
        <time>2021-08-21T06:30:17Z</time>
      </trkpt>
      <trkpt lat="42.7788910" lon="-5.4650950">
        <ele>1164.0</ele>
        <time>2021-08-21T06:30:18Z</time>
      </trkpt>
      <trkpt lat="42.7789200" lon="-5.4650880">
        <ele>1164.0</ele>
        <time>2021-08-21T06:30:19Z</time>
      </trkpt>
      <trkpt lat="42.7789470" lon="-5.4650810">
        <ele>1164.0</ele>
        <time>2021-08-21T06:30:20Z</time>
      </trkpt>
      <trkpt lat="42.7789720" lon="-5.4650760">
        <ele>1164.0</ele>
        <time>2021-08-21T06:30:21Z</time>
      </trkpt>
      <trkpt lat="42.7789960" lon="-5.4650690">
        <ele>1164.0</ele>
        <time>2021-08-21T06:30:22Z</time>
      </trkpt>
      <trkpt lat="42.7790170" lon="-5.4650610">
        <ele>1165.0</ele>
        <time>2021-08-21T06:30:23Z</time>
      </trkpt>
      <trkpt lat="42.7790420" lon="-5.4650540">
        <ele>1165.0</ele>
        <time>2021-08-21T06:30:24Z</time>
      </trkpt>
      <trkpt lat="42.7790670" lon="-5.4650510">
        <ele>1165.0</ele>
        <time>2021-08-21T06:30:25Z</time>
      </trkpt>
      <trkpt lat="42.7791060" lon="-5.4650470">
        <ele>1165.0</ele>
        <time>2021-08-21T06:30:26Z</time>
      </trkpt>
      <trkpt lat="42.7791190" lon="-5.4650460">
        <ele>1165.0</ele>
        <time>2021-08-21T06:30:27Z</time>
      </trkpt>
      <trkpt lat="42.7791580" lon="-5.4650470">
        <ele>1165.0</ele>
        <time>2021-08-21T06:30:28Z</time>
      </trkpt>
      <trkpt lat="42.7791710" lon="-5.4650470">
        <ele>1165.0</ele>
        <time>2021-08-21T06:30:29Z</time>
      </trkpt>
      <trkpt lat="42.7791970" lon="-5.4650470">
        <ele>1165.0</ele>
        <time>2021-08-21T06:30:30Z</time>
      </trkpt>
      <trkpt lat="42.7792220" lon="-5.4650490">
        <ele>1166.0</ele>
        <time>2021-08-21T06:30:31Z</time>
      </trkpt>
      <trkpt lat="42.7792610" lon="-5.4650500">
        <ele>1166.0</ele>
        <time>2021-08-21T06:30:32Z</time>
      </trkpt>
      <trkpt lat="42.7792740" lon="-5.4650490">
        <ele>1166.0</ele>
        <time>2021-08-21T06:30:33Z</time>
      </trkpt>
      <trkpt lat="42.7793000" lon="-5.4650470">
        <ele>1166.0</ele>
        <time>2021-08-21T06:30:34Z</time>
      </trkpt>
      <trkpt lat="42.7793240" lon="-5.4650450">
        <ele>1166.0</ele>
        <time>2021-08-21T06:30:35Z</time>
      </trkpt>
      <trkpt lat="42.7793490" lon="-5.4650450">
        <ele>1166.0</ele>
        <time>2021-08-21T06:30:36Z</time>
      </trkpt>
      <trkpt lat="42.7793720" lon="-5.4650480">
        <ele>1166.0</ele>
        <time>2021-08-21T06:30:37Z</time>
      </trkpt>
      <trkpt lat="42.7793960" lon="-5.4650500">
        <ele>1166.0</ele>
        <time>2021-08-21T06:30:38Z</time>
      </trkpt>
      <trkpt lat="42.7794190" lon="-5.4650530">
        <ele>1166.0</ele>
        <time>2021-08-21T06:30:39Z</time>
      </trkpt>
      <trkpt lat="42.7794430" lon="-5.4650530">
        <ele>1166.0</ele>
        <time>2021-08-21T06:30:40Z</time>
      </trkpt>
      <trkpt lat="42.7794660" lon="-5.4650530">
        <ele>1166.0</ele>
        <time>2021-08-21T06:30:41Z</time>
      </trkpt>
      <trkpt lat="42.7794860" lon="-5.4650550">
        <ele>1166.0</ele>
        <time>2021-08-21T06:30:42Z</time>
      </trkpt>
      <trkpt lat="42.7795100" lon="-5.4650550">
        <ele>1166.0</ele>
        <time>2021-08-21T06:30:43Z</time>
      </trkpt>
      <trkpt lat="42.7795310" lon="-5.4650560">
        <ele>1166.0</ele>
        <time>2021-08-21T06:30:44Z</time>
      </trkpt>
      <trkpt lat="42.7795540" lon="-5.4650600">
        <ele>1166.0</ele>
        <time>2021-08-21T06:30:45Z</time>
      </trkpt>
      <trkpt lat="42.7795760" lon="-5.4650630">
        <ele>1166.0</ele>
        <time>2021-08-21T06:30:46Z</time>
      </trkpt>
      <trkpt lat="42.7796010" lon="-5.4650690">
        <ele>1167.0</ele>
        <time>2021-08-21T06:30:47Z</time>
      </trkpt>
      <trkpt lat="42.7796510" lon="-5.4650820">
        <ele>1167.0</ele>
        <time>2021-08-21T06:30:48Z</time>
      </trkpt>
      <trkpt lat="42.7796510" lon="-5.4650820">
        <ele>1167.0</ele>
        <time>2021-08-21T06:30:49Z</time>
      </trkpt>
      <trkpt lat="42.7796750" lon="-5.4650870">
        <ele>1167.0</ele>
        <time>2021-08-21T06:30:50Z</time>
      </trkpt>
      <trkpt lat="42.7797110" lon="-5.4650890">
        <ele>1167.0</ele>
        <time>2021-08-21T06:30:51Z</time>
      </trkpt>
      <trkpt lat="42.7797220" lon="-5.4650880">
        <ele>1167.0</ele>
        <time>2021-08-21T06:30:52Z</time>
      </trkpt>
      <trkpt lat="42.7797440" lon="-5.4650860">
        <ele>1167.0</ele>
        <time>2021-08-21T06:30:53Z</time>
      </trkpt>
      <trkpt lat="42.7797800" lon="-5.4650890">
        <ele>1167.0</ele>
        <time>2021-08-21T06:30:54Z</time>
      </trkpt>
      <trkpt lat="42.7797910" lon="-5.4650900">
        <ele>1167.0</ele>
        <time>2021-08-21T06:30:55Z</time>
      </trkpt>
      <trkpt lat="42.7798270" lon="-5.4650970">
        <ele>1167.0</ele>
        <time>2021-08-21T06:30:56Z</time>
      </trkpt>
      <trkpt lat="42.7798380" lon="-5.4651000">
        <ele>1167.0</ele>
        <time>2021-08-21T06:30:57Z</time>
      </trkpt>
      <trkpt lat="42.7798590" lon="-5.4651050">
        <ele>1167.0</ele>
        <time>2021-08-21T06:30:58Z</time>
      </trkpt>
      <trkpt lat="42.7798820" lon="-5.4651090">
        <ele>1168.0</ele>
        <time>2021-08-21T06:30:59Z</time>
      </trkpt>
      <trkpt lat="42.7799040" lon="-5.4651120">
        <ele>1168.0</ele>
        <time>2021-08-21T06:31:00Z</time>
      </trkpt>
      <trkpt lat="42.7799290" lon="-5.4651140">
        <ele>1168.0</ele>
        <time>2021-08-21T06:31:01Z</time>
      </trkpt>
      <trkpt lat="42.7799530" lon="-5.4651180">
        <ele>1168.0</ele>
        <time>2021-08-21T06:31:02Z</time>
      </trkpt>
      <trkpt lat="42.7799770" lon="-5.4651210">
        <ele>1168.0</ele>
        <time>2021-08-21T06:31:03Z</time>
      </trkpt>
      <trkpt lat="42.7799940" lon="-5.4651270">
        <ele>1168.0</ele>
        <time>2021-08-21T06:31:04Z</time>
      </trkpt>
      <trkpt lat="42.7799940" lon="-5.4651270">
        <ele>1168.0</ele>
        <time>2021-08-21T06:31:05Z</time>
      </trkpt>
      <trkpt lat="42.7800320" lon="-5.4651320">
        <ele>1168.0</ele>
        <time>2021-08-21T06:31:06Z</time>
      </trkpt>
      <trkpt lat="42.7800570" lon="-5.4651330">
        <ele>1168.0</ele>
        <time>2021-08-21T06:31:07Z</time>
      </trkpt>
      <trkpt lat="42.7800940" lon="-5.4651380">
        <ele>1168.0</ele>
        <time>2021-08-21T06:31:08Z</time>
      </trkpt>
      <trkpt lat="42.7801060" lon="-5.4651370">
        <ele>1169.0</ele>
        <time>2021-08-21T06:31:09Z</time>
      </trkpt>
      <trkpt lat="42.7801400" lon="-5.4651380">
        <ele>1169.0</ele>
        <time>2021-08-21T06:31:10Z</time>
      </trkpt>
      <trkpt lat="42.7801500" lon="-5.4651390">
        <ele>1169.0</ele>
        <time>2021-08-21T06:31:11Z</time>
      </trkpt>
      <trkpt lat="42.7801740" lon="-5.4651400">
        <ele>1169.0</ele>
        <time>2021-08-21T06:31:12Z</time>
      </trkpt>
      <trkpt lat="42.7801950" lon="-5.4651430">
        <ele>1169.0</ele>
        <time>2021-08-21T06:31:13Z</time>
      </trkpt>
      <trkpt lat="42.7802190" lon="-5.4651500">
        <ele>1169.0</ele>
        <time>2021-08-21T06:31:14Z</time>
      </trkpt>
      <trkpt lat="42.7802430" lon="-5.4651540">
        <ele>1169.0</ele>
        <time>2021-08-21T06:31:15Z</time>
      </trkpt>
      <trkpt lat="42.7802670" lon="-5.4651560">
        <ele>1170.0</ele>
        <time>2021-08-21T06:31:16Z</time>
      </trkpt>
      <trkpt lat="42.7802880" lon="-5.4651570">
        <ele>1170.0</ele>
        <time>2021-08-21T06:31:17Z</time>
      </trkpt>
      <trkpt lat="42.7803080" lon="-5.4651560">
        <ele>1170.0</ele>
        <time>2021-08-21T06:31:18Z</time>
      </trkpt>
      <trkpt lat="42.7803290" lon="-5.4651580">
        <ele>1170.0</ele>
        <time>2021-08-21T06:31:19Z</time>
      </trkpt>
      <trkpt lat="42.7803500" lon="-5.4651590">
        <ele>1170.0</ele>
        <time>2021-08-21T06:31:20Z</time>
      </trkpt>
      <trkpt lat="42.7803720" lon="-5.4651550">
        <ele>1170.0</ele>
        <time>2021-08-21T06:31:21Z</time>
      </trkpt>
      <trkpt lat="42.7803970" lon="-5.4651510">
        <ele>1170.0</ele>
        <time>2021-08-21T06:31:22Z</time>
      </trkpt>
      <trkpt lat="42.7804180" lon="-5.4651530">
        <ele>1170.0</ele>
        <time>2021-08-21T06:31:23Z</time>
      </trkpt>
      <trkpt lat="42.7804420" lon="-5.4651540">
        <ele>1171.0</ele>
        <time>2021-08-21T06:31:24Z</time>
      </trkpt>
      <trkpt lat="42.7804640" lon="-5.4651560">
        <ele>1171.0</ele>
        <time>2021-08-21T06:31:25Z</time>
      </trkpt>
      <trkpt lat="42.7804890" lon="-5.4651550">
        <ele>1171.0</ele>
        <time>2021-08-21T06:31:26Z</time>
      </trkpt>
      <trkpt lat="42.7805080" lon="-5.4651550">
        <ele>1171.0</ele>
        <time>2021-08-21T06:31:27Z</time>
      </trkpt>
      <trkpt lat="42.7805280" lon="-5.4651530">
        <ele>1171.0</ele>
        <time>2021-08-21T06:31:28Z</time>
      </trkpt>
      <trkpt lat="42.7805590" lon="-5.4651510">
        <ele>1171.0</ele>
        <time>2021-08-21T06:31:29Z</time>
      </trkpt>
      <trkpt lat="42.7805680" lon="-5.4651520">
        <ele>1171.0</ele>
        <time>2021-08-21T06:31:30Z</time>
      </trkpt>
      <trkpt lat="42.7806030" lon="-5.4651450">
        <ele>1171.0</ele>
        <time>2021-08-21T06:31:31Z</time>
      </trkpt>
      <trkpt lat="42.7806150" lon="-5.4651420">
        <ele>1171.0</ele>
        <time>2021-08-21T06:31:32Z</time>
      </trkpt>
      <trkpt lat="42.7806520" lon="-5.4651380">
        <ele>1171.0</ele>
        <time>2021-08-21T06:31:33Z</time>
      </trkpt>
      <trkpt lat="42.7806650" lon="-5.4651360">
        <ele>1171.0</ele>
        <time>2021-08-21T06:31:34Z</time>
      </trkpt>
      <trkpt lat="42.7806890" lon="-5.4651340">
        <ele>1171.0</ele>
        <time>2021-08-21T06:31:35Z</time>
      </trkpt>
      <trkpt lat="42.7807280" lon="-5.4651310">
        <ele>1171.0</ele>
        <time>2021-08-21T06:31:36Z</time>
      </trkpt>
      <trkpt lat="42.7807410" lon="-5.4651300">
        <ele>1171.0</ele>
        <time>2021-08-21T06:31:37Z</time>
      </trkpt>
      <trkpt lat="42.7807670" lon="-5.4651280">
        <ele>1172.0</ele>
        <time>2021-08-21T06:31:38Z</time>
      </trkpt>
      <trkpt lat="42.7807910" lon="-5.4651240">
        <ele>1172.0</ele>
        <time>2021-08-21T06:31:39Z</time>
      </trkpt>
      <trkpt lat="42.7807910" lon="-5.4651240">
        <ele>1172.0</ele>
        <time>2021-08-21T06:31:40Z</time>
      </trkpt>
      <trkpt lat="42.7808300" lon="-5.4651190">
        <ele>1172.0</ele>
        <time>2021-08-21T06:31:41Z</time>
      </trkpt>
      <trkpt lat="42.7808690" lon="-5.4651140">
        <ele>1172.0</ele>
        <time>2021-08-21T06:31:42Z</time>
      </trkpt>
      <trkpt lat="42.7809090" lon="-5.4651080">
        <ele>1172.0</ele>
        <time>2021-08-21T06:31:43Z</time>
      </trkpt>
      <trkpt lat="42.7809220" lon="-5.4651070">
        <ele>1172.0</ele>
        <time>2021-08-21T06:31:44Z</time>
      </trkpt>
      <trkpt lat="42.7809530" lon="-5.4651060">
        <ele>1172.0</ele>
        <time>2021-08-21T06:31:45Z</time>
      </trkpt>
      <trkpt lat="42.7809780" lon="-5.4651050">
        <ele>1172.0</ele>
        <time>2021-08-21T06:31:46Z</time>
      </trkpt>
      <trkpt lat="42.7810040" lon="-5.4651040">
        <ele>1172.0</ele>
        <time>2021-08-21T06:31:47Z</time>
      </trkpt>
      <trkpt lat="42.7810450" lon="-5.4651020">
        <ele>1172.0</ele>
        <time>2021-08-21T06:31:48Z</time>
      </trkpt>
      <trkpt lat="42.7810590" lon="-5.4651010">
        <ele>1173.0</ele>
        <time>2021-08-21T06:31:49Z</time>
      </trkpt>
      <trkpt lat="42.7810860" lon="-5.4650990">
        <ele>1173.0</ele>
        <time>2021-08-21T06:31:50Z</time>
      </trkpt>
      <trkpt lat="42.7811100" lon="-5.4650970">
        <ele>1173.0</ele>
        <time>2021-08-21T06:31:51Z</time>
      </trkpt>
      <trkpt lat="42.7811370" lon="-5.4650960">
        <ele>1173.0</ele>
        <time>2021-08-21T06:31:52Z</time>
      </trkpt>
      <trkpt lat="42.7811620" lon="-5.4650930">
        <ele>1173.0</ele>
        <time>2021-08-21T06:31:53Z</time>
      </trkpt>
      <trkpt lat="42.7811890" lon="-5.4650900">
        <ele>1173.0</ele>
        <time>2021-08-21T06:31:54Z</time>
      </trkpt>
      <trkpt lat="42.7812130" lon="-5.4650860">
        <ele>1173.0</ele>
        <time>2021-08-21T06:31:55Z</time>
      </trkpt>
      <trkpt lat="42.7812390" lon="-5.4650860">
        <ele>1173.0</ele>
        <time>2021-08-21T06:31:56Z</time>
      </trkpt>
      <trkpt lat="42.7812660" lon="-5.4650850">
        <ele>1174.0</ele>
        <time>2021-08-21T06:31:57Z</time>
      </trkpt>
      <trkpt lat="42.7812910" lon="-5.4650850">
        <ele>1174.0</ele>
        <time>2021-08-21T06:31:58Z</time>
      </trkpt>
      <trkpt lat="42.7813190" lon="-5.4650830">
        <ele>1174.0</ele>
        <time>2021-08-21T06:31:59Z</time>
      </trkpt>
      <trkpt lat="42.7813440" lon="-5.4650810">
        <ele>1174.0</ele>
        <time>2021-08-21T06:32:00Z</time>
      </trkpt>
      <trkpt lat="42.7813720" lon="-5.4650780">
        <ele>1174.0</ele>
        <time>2021-08-21T06:32:01Z</time>
      </trkpt>
      <trkpt lat="42.7814090" lon="-5.4650750">
        <ele>1174.0</ele>
        <time>2021-08-21T06:32:02Z</time>
      </trkpt>
      <trkpt lat="42.7814210" lon="-5.4650730">
        <ele>1174.0</ele>
        <time>2021-08-21T06:32:03Z</time>
      </trkpt>
      <trkpt lat="42.7814570" lon="-5.4650680">
        <ele>1174.0</ele>
        <time>2021-08-21T06:32:04Z</time>
      </trkpt>
      <trkpt lat="42.7814690" lon="-5.4650670">
        <ele>1175.0</ele>
        <time>2021-08-21T06:32:05Z</time>
      </trkpt>
      <trkpt lat="42.7814980" lon="-5.4650640">
        <ele>1175.0</ele>
        <time>2021-08-21T06:32:06Z</time>
      </trkpt>
      <trkpt lat="42.7815220" lon="-5.4650630">
        <ele>1175.0</ele>
        <time>2021-08-21T06:32:07Z</time>
      </trkpt>
      <trkpt lat="42.7815490" lon="-5.4650610">
        <ele>1175.0</ele>
        <time>2021-08-21T06:32:08Z</time>
      </trkpt>
      <trkpt lat="42.7815740" lon="-5.4650600">
        <ele>1175.0</ele>
        <time>2021-08-21T06:32:09Z</time>
      </trkpt>
      <trkpt lat="42.7815970" lon="-5.4650570">
        <ele>1175.0</ele>
        <time>2021-08-21T06:32:10Z</time>
      </trkpt>
      <trkpt lat="42.7816210" lon="-5.4650560">
        <ele>1176.0</ele>
        <time>2021-08-21T06:32:11Z</time>
      </trkpt>
      <trkpt lat="42.7816570" lon="-5.4650520">
        <ele>1176.0</ele>
        <time>2021-08-21T06:32:12Z</time>
      </trkpt>
      <trkpt lat="42.7816690" lon="-5.4650500">
        <ele>1176.0</ele>
        <time>2021-08-21T06:32:13Z</time>
      </trkpt>
      <trkpt lat="42.7816940" lon="-5.4650490">
        <ele>1176.0</ele>
        <time>2021-08-21T06:32:14Z</time>
      </trkpt>
      <trkpt lat="42.7817360" lon="-5.4650450">
        <ele>1176.0</ele>
        <time>2021-08-21T06:32:15Z</time>
      </trkpt>
      <trkpt lat="42.7817490" lon="-5.4650440">
        <ele>1176.0</ele>
        <time>2021-08-21T06:32:16Z</time>
      </trkpt>
      <trkpt lat="42.7817850" lon="-5.4650410">
        <ele>1176.0</ele>
        <time>2021-08-21T06:32:17Z</time>
      </trkpt>
      <trkpt lat="42.7817970" lon="-5.4650400">
        <ele>1177.0</ele>
        <time>2021-08-21T06:32:18Z</time>
      </trkpt>
      <trkpt lat="42.7818250" lon="-5.4650380">
        <ele>1177.0</ele>
        <time>2021-08-21T06:32:19Z</time>
      </trkpt>
      <trkpt lat="42.7818520" lon="-5.4650330">
        <ele>1177.0</ele>
        <time>2021-08-21T06:32:20Z</time>
      </trkpt>
      <trkpt lat="42.7818780" lon="-5.4650300">
        <ele>1177.0</ele>
        <time>2021-08-21T06:32:21Z</time>
      </trkpt>
      <trkpt lat="42.7819020" lon="-5.4650260">
        <ele>1177.0</ele>
        <time>2021-08-21T06:32:22Z</time>
      </trkpt>
      <trkpt lat="42.7819250" lon="-5.4650200">
        <ele>1177.0</ele>
        <time>2021-08-21T06:32:23Z</time>
      </trkpt>
      <trkpt lat="42.7819490" lon="-5.4650190">
        <ele>1178.0</ele>
        <time>2021-08-21T06:32:24Z</time>
      </trkpt>
      <trkpt lat="42.7819720" lon="-5.4650170">
        <ele>1178.0</ele>
        <time>2021-08-21T06:32:25Z</time>
      </trkpt>
      <trkpt lat="42.7819950" lon="-5.4650140">
        <ele>1178.0</ele>
        <time>2021-08-21T06:32:26Z</time>
      </trkpt>
      <trkpt lat="42.7819950" lon="-5.4650140">
        <ele>1178.0</ele>
        <time>2021-08-21T06:32:27Z</time>
      </trkpt>
      <trkpt lat="42.7820520" lon="-5.4650110">
        <ele>1178.0</ele>
        <time>2021-08-21T06:32:28Z</time>
      </trkpt>
      <trkpt lat="42.7820920" lon="-5.4650080">
        <ele>1178.0</ele>
        <time>2021-08-21T06:32:29Z</time>
      </trkpt>
      <trkpt lat="42.7821060" lon="-5.4650070">
        <ele>1178.0</ele>
        <time>2021-08-21T06:32:30Z</time>
      </trkpt>
      <trkpt lat="42.7821330" lon="-5.4650060">
        <ele>1178.0</ele>
        <time>2021-08-21T06:32:31Z</time>
      </trkpt>
      <trkpt lat="42.7821610" lon="-5.4650040">
        <ele>1178.0</ele>
        <time>2021-08-21T06:32:32Z</time>
      </trkpt>
      <trkpt lat="42.7822020" lon="-5.4650020">
        <ele>1178.0</ele>
        <time>2021-08-21T06:32:33Z</time>
      </trkpt>
      <trkpt lat="42.7822150" lon="-5.4650000">
        <ele>1177.0</ele>
        <time>2021-08-21T06:32:34Z</time>
      </trkpt>
      <trkpt lat="42.7822390" lon="-5.4649940">
        <ele>1178.0</ele>
        <time>2021-08-21T06:32:35Z</time>
      </trkpt>
      <trkpt lat="42.7822650" lon="-5.4649890">
        <ele>1178.0</ele>
        <time>2021-08-21T06:32:36Z</time>
      </trkpt>
      <trkpt lat="42.7822910" lon="-5.4649900">
        <ele>1178.0</ele>
        <time>2021-08-21T06:32:37Z</time>
      </trkpt>
      <trkpt lat="42.7823140" lon="-5.4649940">
        <ele>1178.0</ele>
        <time>2021-08-21T06:32:38Z</time>
      </trkpt>
      <trkpt lat="42.7823500" lon="-5.4649980">
        <ele>1178.0</ele>
        <time>2021-08-21T06:32:39Z</time>
      </trkpt>
      <trkpt lat="42.7823620" lon="-5.4650010">
        <ele>1178.0</ele>
        <time>2021-08-21T06:32:40Z</time>
      </trkpt>
      <trkpt lat="42.7823870" lon="-5.4650060">
        <ele>1178.0</ele>
        <time>2021-08-21T06:32:41Z</time>
      </trkpt>
      <trkpt lat="42.7824130" lon="-5.4650100">
        <ele>1178.0</ele>
        <time>2021-08-21T06:32:42Z</time>
      </trkpt>
      <trkpt lat="42.7824370" lon="-5.4650160">
        <ele>1178.0</ele>
        <time>2021-08-21T06:32:43Z</time>
      </trkpt>
      <trkpt lat="42.7824620" lon="-5.4650220">
        <ele>1178.0</ele>
        <time>2021-08-21T06:32:44Z</time>
      </trkpt>
      <trkpt lat="42.7824840" lon="-5.4650260">
        <ele>1178.0</ele>
        <time>2021-08-21T06:32:45Z</time>
      </trkpt>
      <trkpt lat="42.7825080" lon="-5.4650270">
        <ele>1178.0</ele>
        <time>2021-08-21T06:32:46Z</time>
      </trkpt>
      <trkpt lat="42.7825310" lon="-5.4650270">
        <ele>1178.0</ele>
        <time>2021-08-21T06:32:47Z</time>
      </trkpt>
      <trkpt lat="42.7825560" lon="-5.4650280">
        <ele>1178.0</ele>
        <time>2021-08-21T06:32:48Z</time>
      </trkpt>
      <trkpt lat="42.7825930" lon="-5.4650330">
        <ele>1178.0</ele>
        <time>2021-08-21T06:32:49Z</time>
      </trkpt>
      <trkpt lat="42.7826060" lon="-5.4650360">
        <ele>1178.0</ele>
        <time>2021-08-21T06:32:50Z</time>
      </trkpt>
      <trkpt lat="42.7826320" lon="-5.4650420">
        <ele>1178.0</ele>
        <time>2021-08-21T06:32:51Z</time>
      </trkpt>
      <trkpt lat="42.7826570" lon="-5.4650450">
        <ele>1178.0</ele>
        <time>2021-08-21T06:32:52Z</time>
      </trkpt>
      <trkpt lat="42.7826920" lon="-5.4650490">
        <ele>1178.0</ele>
        <time>2021-08-21T06:32:53Z</time>
      </trkpt>
      <trkpt lat="42.7827030" lon="-5.4650500">
        <ele>1179.0</ele>
        <time>2021-08-21T06:32:54Z</time>
      </trkpt>
      <trkpt lat="42.7827260" lon="-5.4650500">
        <ele>1179.0</ele>
        <time>2021-08-21T06:32:55Z</time>
      </trkpt>
      <trkpt lat="42.7827490" lon="-5.4650510">
        <ele>1179.0</ele>
        <time>2021-08-21T06:32:56Z</time>
      </trkpt>
      <trkpt lat="42.7827720" lon="-5.4650520">
        <ele>1179.0</ele>
        <time>2021-08-21T06:32:57Z</time>
      </trkpt>
      <trkpt lat="42.7828090" lon="-5.4650520">
        <ele>1179.0</ele>
        <time>2021-08-21T06:32:58Z</time>
      </trkpt>
      <trkpt lat="42.7828210" lon="-5.4650530">
        <ele>1179.0</ele>
        <time>2021-08-21T06:32:59Z</time>
      </trkpt>
      <trkpt lat="42.7828440" lon="-5.4650540">
        <ele>1179.0</ele>
        <time>2021-08-21T06:33:00Z</time>
      </trkpt>
      <trkpt lat="42.7828650" lon="-5.4650570">
        <ele>1179.0</ele>
        <time>2021-08-21T06:33:01Z</time>
      </trkpt>
      <trkpt lat="42.7829000" lon="-5.4650580">
        <ele>1179.0</ele>
        <time>2021-08-21T06:33:02Z</time>
      </trkpt>
      <trkpt lat="42.7829110" lon="-5.4650590">
        <ele>1179.0</ele>
        <time>2021-08-21T06:33:03Z</time>
      </trkpt>
      <trkpt lat="42.7829470" lon="-5.4650600">
        <ele>1179.0</ele>
        <time>2021-08-21T06:33:04Z</time>
      </trkpt>
      <trkpt lat="42.7829590" lon="-5.4650610">
        <ele>1179.0</ele>
        <time>2021-08-21T06:33:05Z</time>
      </trkpt>
      <trkpt lat="42.7829810" lon="-5.4650630">
        <ele>1179.0</ele>
        <time>2021-08-21T06:33:06Z</time>
      </trkpt>
      <trkpt lat="42.7830080" lon="-5.4650650">
        <ele>1179.0</ele>
        <time>2021-08-21T06:33:07Z</time>
      </trkpt>
      <trkpt lat="42.7830450" lon="-5.4650680">
        <ele>1179.0</ele>
        <time>2021-08-21T06:33:08Z</time>
      </trkpt>
      <trkpt lat="42.7830570" lon="-5.4650700">
        <ele>1179.0</ele>
        <time>2021-08-21T06:33:09Z</time>
      </trkpt>
      <trkpt lat="42.7830940" lon="-5.4650760">
        <ele>1179.0</ele>
        <time>2021-08-21T06:33:10Z</time>
      </trkpt>
      <trkpt lat="42.7831060" lon="-5.4650780">
        <ele>1179.0</ele>
        <time>2021-08-21T06:33:11Z</time>
      </trkpt>
      <trkpt lat="42.7831290" lon="-5.4650830">
        <ele>1179.0</ele>
        <time>2021-08-21T06:33:12Z</time>
      </trkpt>
      <trkpt lat="42.7831540" lon="-5.4650880">
        <ele>1179.0</ele>
        <time>2021-08-21T06:33:13Z</time>
      </trkpt>
      <trkpt lat="42.7831780" lon="-5.4650910">
        <ele>1179.0</ele>
        <time>2021-08-21T06:33:14Z</time>
      </trkpt>
      <trkpt lat="42.7832020" lon="-5.4650950">
        <ele>1179.0</ele>
        <time>2021-08-21T06:33:15Z</time>
      </trkpt>
      <trkpt lat="42.7832230" lon="-5.4651000">
        <ele>1179.0</ele>
        <time>2021-08-21T06:33:16Z</time>
      </trkpt>
      <trkpt lat="42.7832460" lon="-5.4651030">
        <ele>1179.0</ele>
        <time>2021-08-21T06:33:17Z</time>
      </trkpt>
      <trkpt lat="42.7832790" lon="-5.4651100">
        <ele>1179.0</ele>
        <time>2021-08-21T06:33:18Z</time>
      </trkpt>
      <trkpt lat="42.7832910" lon="-5.4651130">
        <ele>1179.0</ele>
        <time>2021-08-21T06:33:19Z</time>
      </trkpt>
      <trkpt lat="42.7833260" lon="-5.4651220">
        <ele>1179.0</ele>
        <time>2021-08-21T06:33:20Z</time>
      </trkpt>
      <trkpt lat="42.7833380" lon="-5.4651250">
        <ele>1179.0</ele>
        <time>2021-08-21T06:33:21Z</time>
      </trkpt>
      <trkpt lat="42.7833600" lon="-5.4651320">
        <ele>1179.0</ele>
        <time>2021-08-21T06:33:22Z</time>
      </trkpt>
      <trkpt lat="42.7833930" lon="-5.4651390">
        <ele>1179.0</ele>
        <time>2021-08-21T06:33:23Z</time>
      </trkpt>
      <trkpt lat="42.7834050" lon="-5.4651420">
        <ele>1179.0</ele>
        <time>2021-08-21T06:33:24Z</time>
      </trkpt>
      <trkpt lat="42.7834250" lon="-5.4651480">
        <ele>1179.0</ele>
        <time>2021-08-21T06:33:25Z</time>
      </trkpt>
      <trkpt lat="42.7834490" lon="-5.4651550">
        <ele>1179.0</ele>
        <time>2021-08-21T06:33:26Z</time>
      </trkpt>
      <trkpt lat="42.7834690" lon="-5.4651650">
        <ele>1179.0</ele>
        <time>2021-08-21T06:33:27Z</time>
      </trkpt>
      <trkpt lat="42.7834910" lon="-5.4651730">
        <ele>1179.0</ele>
        <time>2021-08-21T06:33:28Z</time>
      </trkpt>
      <trkpt lat="42.7835120" lon="-5.4651810">
        <ele>1179.0</ele>
        <time>2021-08-21T06:33:29Z</time>
      </trkpt>
      <trkpt lat="42.7835330" lon="-5.4651890">
        <ele>1179.0</ele>
        <time>2021-08-21T06:33:30Z</time>
      </trkpt>
      <trkpt lat="42.7835650" lon="-5.4652010">
        <ele>1179.0</ele>
        <time>2021-08-21T06:33:31Z</time>
      </trkpt>
      <trkpt lat="42.7835750" lon="-5.4652060">
        <ele>1180.0</ele>
        <time>2021-08-21T06:33:32Z</time>
      </trkpt>
      <trkpt lat="42.7835940" lon="-5.4652170">
        <ele>1180.0</ele>
        <time>2021-08-21T06:33:33Z</time>
      </trkpt>
      <trkpt lat="42.7836250" lon="-5.4652310">
        <ele>1180.0</ele>
        <time>2021-08-21T06:33:34Z</time>
      </trkpt>
      <trkpt lat="42.7836350" lon="-5.4652360">
        <ele>1180.0</ele>
        <time>2021-08-21T06:33:35Z</time>
      </trkpt>
      <trkpt lat="42.7836570" lon="-5.4652480">
        <ele>1180.0</ele>
        <time>2021-08-21T06:33:36Z</time>
      </trkpt>
      <trkpt lat="42.7836770" lon="-5.4652620">
        <ele>1180.0</ele>
        <time>2021-08-21T06:33:37Z</time>
      </trkpt>
      <trkpt lat="42.7837000" lon="-5.4652740">
        <ele>1180.0</ele>
        <time>2021-08-21T06:33:38Z</time>
      </trkpt>
      <trkpt lat="42.7837210" lon="-5.4652860">
        <ele>1180.0</ele>
        <time>2021-08-21T06:33:39Z</time>
      </trkpt>
      <trkpt lat="42.7837420" lon="-5.4653000">
        <ele>1180.0</ele>
        <time>2021-08-21T06:33:40Z</time>
      </trkpt>
      <trkpt lat="42.7837610" lon="-5.4653140">
        <ele>1180.0</ele>
        <time>2021-08-21T06:33:41Z</time>
      </trkpt>
      <trkpt lat="42.7837790" lon="-5.4653280">
        <ele>1180.0</ele>
        <time>2021-08-21T06:33:42Z</time>
      </trkpt>
      <trkpt lat="42.7837960" lon="-5.4653430">
        <ele>1180.0</ele>
        <time>2021-08-21T06:33:43Z</time>
      </trkpt>
      <trkpt lat="42.7838160" lon="-5.4653560">
        <ele>1180.0</ele>
        <time>2021-08-21T06:33:44Z</time>
      </trkpt>
      <trkpt lat="42.7838460" lon="-5.4653760">
        <ele>1180.0</ele>
        <time>2021-08-21T06:33:45Z</time>
      </trkpt>
      <trkpt lat="42.7838560" lon="-5.4653830">
        <ele>1181.0</ele>
        <time>2021-08-21T06:33:46Z</time>
      </trkpt>
      <trkpt lat="42.7838790" lon="-5.4653960">
        <ele>1181.0</ele>
        <time>2021-08-21T06:33:47Z</time>
      </trkpt>
      <trkpt lat="42.7839020" lon="-5.4654070">
        <ele>1181.0</ele>
        <time>2021-08-21T06:33:48Z</time>
      </trkpt>
      <trkpt lat="42.7839220" lon="-5.4654160">
        <ele>1181.0</ele>
        <time>2021-08-21T06:33:49Z</time>
      </trkpt>
      <trkpt lat="42.7839510" lon="-5.4654270">
        <ele>1181.0</ele>
        <time>2021-08-21T06:33:50Z</time>
      </trkpt>
      <trkpt lat="42.7839600" lon="-5.4654310">
        <ele>1181.0</ele>
        <time>2021-08-21T06:33:51Z</time>
      </trkpt>
      <trkpt lat="42.7839800" lon="-5.4654420">
        <ele>1181.0</ele>
        <time>2021-08-21T06:33:52Z</time>
      </trkpt>
      <trkpt lat="42.7840000" lon="-5.4654530">
        <ele>1181.0</ele>
        <time>2021-08-21T06:33:53Z</time>
      </trkpt>
      <trkpt lat="42.7840190" lon="-5.4654670">
        <ele>1181.0</ele>
        <time>2021-08-21T06:33:54Z</time>
      </trkpt>
      <trkpt lat="42.7840390" lon="-5.4654820">
        <ele>1181.0</ele>
        <time>2021-08-21T06:33:55Z</time>
      </trkpt>
      <trkpt lat="42.7840570" lon="-5.4654950">
        <ele>1181.0</ele>
        <time>2021-08-21T06:33:56Z</time>
      </trkpt>
      <trkpt lat="42.7840760" lon="-5.4655070">
        <ele>1181.0</ele>
        <time>2021-08-21T06:33:57Z</time>
      </trkpt>
      <trkpt lat="42.7840960" lon="-5.4655190">
        <ele>1181.0</ele>
        <time>2021-08-21T06:33:58Z</time>
      </trkpt>
      <trkpt lat="42.7841250" lon="-5.4655360">
        <ele>1181.0</ele>
        <time>2021-08-21T06:33:59Z</time>
      </trkpt>
      <trkpt lat="42.7841340" lon="-5.4655430">
        <ele>1181.0</ele>
        <time>2021-08-21T06:34:00Z</time>
      </trkpt>
      <trkpt lat="42.7841510" lon="-5.4655560">
        <ele>1181.0</ele>
        <time>2021-08-21T06:34:01Z</time>
      </trkpt>
      <trkpt lat="42.7841670" lon="-5.4655680">
        <ele>1181.0</ele>
        <time>2021-08-21T06:34:02Z</time>
      </trkpt>
      <trkpt lat="42.7841840" lon="-5.4655780">
        <ele>1182.0</ele>
        <time>2021-08-21T06:34:03Z</time>
      </trkpt>
      <trkpt lat="42.7842030" lon="-5.4655880">
        <ele>1182.0</ele>
        <time>2021-08-21T06:34:04Z</time>
      </trkpt>
      <trkpt lat="42.7842230" lon="-5.4655960">
        <ele>1182.0</ele>
        <time>2021-08-21T06:34:05Z</time>
      </trkpt>
      <trkpt lat="42.7842420" lon="-5.4656040">
        <ele>1182.0</ele>
        <time>2021-08-21T06:34:06Z</time>
      </trkpt>
      <trkpt lat="42.7842740" lon="-5.4656150">
        <ele>1182.0</ele>
        <time>2021-08-21T06:34:07Z</time>
      </trkpt>
      <trkpt lat="42.7842840" lon="-5.4656180">
        <ele>1182.0</ele>
        <time>2021-08-21T06:34:08Z</time>
      </trkpt>
      <trkpt lat="42.7842840" lon="-5.4656180">
        <ele>1182.0</ele>
        <time>2021-08-21T06:34:09Z</time>
      </trkpt>
      <trkpt lat="42.7843180" lon="-5.4656410">
        <ele>1182.0</ele>
        <time>2021-08-21T06:34:10Z</time>
      </trkpt>
      <trkpt lat="42.7843500" lon="-5.4656510">
        <ele>1182.0</ele>
        <time>2021-08-21T06:34:11Z</time>
      </trkpt>
      <trkpt lat="42.7843600" lon="-5.4656540">
        <ele>1183.0</ele>
        <time>2021-08-21T06:34:12Z</time>
      </trkpt>
      <trkpt lat="42.7843790" lon="-5.4656600">
        <ele>1183.0</ele>
        <time>2021-08-21T06:34:13Z</time>
      </trkpt>
      <trkpt lat="42.7843970" lon="-5.4656650">
        <ele>1183.0</ele>
        <time>2021-08-21T06:34:14Z</time>
      </trkpt>
      <trkpt lat="42.7844170" lon="-5.4656700">
        <ele>1183.0</ele>
        <time>2021-08-21T06:34:15Z</time>
      </trkpt>
      <trkpt lat="42.7844360" lon="-5.4656770">
        <ele>1183.0</ele>
        <time>2021-08-21T06:34:16Z</time>
      </trkpt>
      <trkpt lat="42.7844570" lon="-5.4656810">
        <ele>1183.0</ele>
        <time>2021-08-21T06:34:17Z</time>
      </trkpt>
      <trkpt lat="42.7844770" lon="-5.4656840">
        <ele>1183.0</ele>
        <time>2021-08-21T06:34:18Z</time>
      </trkpt>
      <trkpt lat="42.7844960" lon="-5.4656900">
        <ele>1183.0</ele>
        <time>2021-08-21T06:34:19Z</time>
      </trkpt>
      <trkpt lat="42.7845160" lon="-5.4656970">
        <ele>1183.0</ele>
        <time>2021-08-21T06:34:20Z</time>
      </trkpt>
      <trkpt lat="42.7845350" lon="-5.4657050">
        <ele>1184.0</ele>
        <time>2021-08-21T06:34:21Z</time>
      </trkpt>
      <trkpt lat="42.7845540" lon="-5.4657110">
        <ele>1184.0</ele>
        <time>2021-08-21T06:34:22Z</time>
      </trkpt>
      <trkpt lat="42.7845880" lon="-5.4657240">
        <ele>1184.0</ele>
        <time>2021-08-21T06:34:24Z</time>
      </trkpt>
      <trkpt lat="42.7845880" lon="-5.4657240">
        <ele>1184.0</ele>
        <time>2021-08-21T06:34:25Z</time>
      </trkpt>
      <trkpt lat="42.7846220" lon="-5.4657350">
        <ele>1184.0</ele>
        <time>2021-08-21T06:34:26Z</time>
      </trkpt>
      <trkpt lat="42.7846420" lon="-5.4657390">
        <ele>1185.0</ele>
        <time>2021-08-21T06:34:27Z</time>
      </trkpt>
      <trkpt lat="42.7846610" lon="-5.4657430">
        <ele>1185.0</ele>
        <time>2021-08-21T06:34:28Z</time>
      </trkpt>
      <trkpt lat="42.7846610" lon="-5.4657430">
        <ele>1185.0</ele>
        <time>2021-08-21T06:34:29Z</time>
      </trkpt>
      <trkpt lat="42.7846940" lon="-5.4657520">
        <ele>1185.0</ele>
        <time>2021-08-21T06:34:30Z</time>
      </trkpt>
      <trkpt lat="42.7846940" lon="-5.4657520">
        <ele>1185.0</ele>
        <time>2021-08-21T06:34:31Z</time>
      </trkpt>
      <trkpt lat="42.7847290" lon="-5.4657610">
        <ele>1185.0</ele>
        <time>2021-08-21T06:34:32Z</time>
      </trkpt>
      <trkpt lat="42.7847290" lon="-5.4657610">
        <ele>1185.0</ele>
        <time>2021-08-21T06:34:33Z</time>
      </trkpt>
      <trkpt lat="42.7847640" lon="-5.4657670">
        <ele>1185.0</ele>
        <time>2021-08-21T06:34:34Z</time>
      </trkpt>
      <trkpt lat="42.7847640" lon="-5.4657670">
        <ele>1186.0</ele>
        <time>2021-08-21T06:34:35Z</time>
      </trkpt>
      <trkpt lat="42.7847900" lon="-5.4657710">
        <ele>1186.0</ele>
        <time>2021-08-21T06:34:36Z</time>
      </trkpt>
      <trkpt lat="42.7847900" lon="-5.4657710">
        <ele>1186.0</ele>
        <time>2021-08-21T06:34:37Z</time>
      </trkpt>
      <trkpt lat="42.7848130" lon="-5.4657760">
        <ele>1186.0</ele>
        <time>2021-08-21T06:34:38Z</time>
      </trkpt>
      <trkpt lat="42.7848390" lon="-5.4657830">
        <ele>1186.0</ele>
        <time>2021-08-21T06:34:40Z</time>
      </trkpt>
      <trkpt lat="42.7848650" lon="-5.4657880">
        <ele>1186.0</ele>
        <time>2021-08-21T06:34:42Z</time>
      </trkpt>
      <trkpt lat="42.7848650" lon="-5.4657880">
        <ele>1186.0</ele>
        <time>2021-08-21T06:34:43Z</time>
      </trkpt>
      <trkpt lat="42.7848910" lon="-5.4657910">
        <ele>1186.0</ele>
        <time>2021-08-21T06:34:44Z</time>
      </trkpt>
      <trkpt lat="42.7848910" lon="-5.4657910">
        <ele>1187.0</ele>
        <time>2021-08-21T06:34:45Z</time>
      </trkpt>
      <trkpt lat="42.7849160" lon="-5.4657990">
        <ele>1187.0</ele>
        <time>2021-08-21T06:34:46Z</time>
      </trkpt>
      <trkpt lat="42.7849390" lon="-5.4658050">
        <ele>1187.0</ele>
        <time>2021-08-21T06:34:48Z</time>
      </trkpt>
      <trkpt lat="42.7849390" lon="-5.4658050">
        <ele>1187.0</ele>
        <time>2021-08-21T06:34:49Z</time>
      </trkpt>
      <trkpt lat="42.7849640" lon="-5.4658150">
        <ele>1187.0</ele>
        <time>2021-08-21T06:34:50Z</time>
      </trkpt>
      <trkpt lat="42.7849640" lon="-5.4658150">
        <ele>1187.0</ele>
        <time>2021-08-21T06:34:51Z</time>
      </trkpt>
      <trkpt lat="42.7849930" lon="-5.4658180">
        <ele>1187.0</ele>
        <time>2021-08-21T06:34:52Z</time>
      </trkpt>
      <trkpt lat="42.7849930" lon="-5.4658180">
        <ele>1188.0</ele>
        <time>2021-08-21T06:34:53Z</time>
      </trkpt>
      <trkpt lat="42.7849930" lon="-5.4658180">
        <ele>1188.0</ele>
        <time>2021-08-21T06:34:54Z</time>
      </trkpt>
      <trkpt lat="42.7849930" lon="-5.4658180">
        <ele>1188.0</ele>
        <time>2021-08-21T06:34:55Z</time>
      </trkpt>
      <trkpt lat="42.7850190" lon="-5.4658270">
        <ele>1188.0</ele>
        <time>2021-08-21T06:34:56Z</time>
      </trkpt>
      <trkpt lat="42.7850190" lon="-5.4658270">
        <ele>1188.0</ele>
        <time>2021-08-21T06:34:57Z</time>
      </trkpt>
      <trkpt lat="42.7850190" lon="-5.4658270">
        <ele>1188.0</ele>
        <time>2021-08-21T06:34:59Z</time>
      </trkpt>
      <trkpt lat="42.7850190" lon="-5.4658270">
        <ele>1188.0</ele>
        <time>2021-08-21T06:35:00Z</time>
      </trkpt>
      <trkpt lat="42.7850530" lon="-5.4658380">
        <ele>1188.0</ele>
        <time>2021-08-21T06:35:01Z</time>
      </trkpt>
      <trkpt lat="42.7850780" lon="-5.4658460">
        <ele>1188.0</ele>
        <time>2021-08-21T06:35:02Z</time>
      </trkpt>
      <trkpt lat="42.7851010" lon="-5.4658500">
        <ele>1189.0</ele>
        <time>2021-08-21T06:35:03Z</time>
      </trkpt>
      <trkpt lat="42.7851010" lon="-5.4658500">
        <ele>1189.0</ele>
        <time>2021-08-21T06:35:04Z</time>
      </trkpt>
      <trkpt lat="42.7851400" lon="-5.4658560">
        <ele>1189.0</ele>
        <time>2021-08-21T06:35:05Z</time>
      </trkpt>
      <trkpt lat="42.7851590" lon="-5.4658590">
        <ele>1189.0</ele>
        <time>2021-08-21T06:35:06Z</time>
      </trkpt>
      <trkpt lat="42.7851810" lon="-5.4658630">
        <ele>1189.0</ele>
        <time>2021-08-21T06:35:07Z</time>
      </trkpt>
      <trkpt lat="42.7851810" lon="-5.4658630">
        <ele>1190.0</ele>
        <time>2021-08-21T06:35:08Z</time>
      </trkpt>
      <trkpt lat="42.7852120" lon="-5.4658710">
        <ele>1190.0</ele>
        <time>2021-08-21T06:35:09Z</time>
      </trkpt>
      <trkpt lat="42.7852120" lon="-5.4658710">
        <ele>1190.0</ele>
        <time>2021-08-21T06:35:10Z</time>
      </trkpt>
      <trkpt lat="42.7852420" lon="-5.4658850">
        <ele>1191.0</ele>
        <time>2021-08-21T06:35:11Z</time>
      </trkpt>
      <trkpt lat="42.7852420" lon="-5.4658850">
        <ele>1191.0</ele>
        <time>2021-08-21T06:35:12Z</time>
      </trkpt>
      <trkpt lat="42.7852780" lon="-5.4658950">
        <ele>1191.0</ele>
        <time>2021-08-21T06:35:13Z</time>
      </trkpt>
      <trkpt lat="42.7852960" lon="-5.4658980">
        <ele>1191.0</ele>
        <time>2021-08-21T06:35:14Z</time>
      </trkpt>
      <trkpt lat="42.7853160" lon="-5.4659030">
        <ele>1191.0</ele>
        <time>2021-08-21T06:35:15Z</time>
      </trkpt>
      <trkpt lat="42.7853380" lon="-5.4659090">
        <ele>1191.0</ele>
        <time>2021-08-21T06:35:16Z</time>
      </trkpt>
      <trkpt lat="42.7853700" lon="-5.4659100">
        <ele>1191.0</ele>
        <time>2021-08-21T06:35:17Z</time>
      </trkpt>
      <trkpt lat="42.7853810" lon="-5.4659110">
        <ele>1192.0</ele>
        <time>2021-08-21T06:35:18Z</time>
      </trkpt>
      <trkpt lat="42.7854090" lon="-5.4659120">
        <ele>1192.0</ele>
        <time>2021-08-21T06:35:19Z</time>
      </trkpt>
      <trkpt lat="42.7854350" lon="-5.4659140">
        <ele>1192.0</ele>
        <time>2021-08-21T06:35:20Z</time>
      </trkpt>
      <trkpt lat="42.7854610" lon="-5.4659150">
        <ele>1192.0</ele>
        <time>2021-08-21T06:35:21Z</time>
      </trkpt>
      <trkpt lat="42.7854950" lon="-5.4659200">
        <ele>1192.0</ele>
        <time>2021-08-21T06:35:22Z</time>
      </trkpt>
      <trkpt lat="42.7855060" lon="-5.4659230">
        <ele>1192.0</ele>
        <time>2021-08-21T06:35:23Z</time>
      </trkpt>
      <trkpt lat="42.7855280" lon="-5.4659280">
        <ele>1193.0</ele>
        <time>2021-08-21T06:35:24Z</time>
      </trkpt>
      <trkpt lat="42.7855460" lon="-5.4659330">
        <ele>1193.0</ele>
        <time>2021-08-21T06:35:25Z</time>
      </trkpt>
      <trkpt lat="42.7855680" lon="-5.4659390">
        <ele>1193.0</ele>
        <time>2021-08-21T06:35:26Z</time>
      </trkpt>
      <trkpt lat="42.7855890" lon="-5.4659450">
        <ele>1193.0</ele>
        <time>2021-08-21T06:35:27Z</time>
      </trkpt>
      <trkpt lat="42.7856130" lon="-5.4659460">
        <ele>1193.0</ele>
        <time>2021-08-21T06:35:28Z</time>
      </trkpt>
      <trkpt lat="42.7856360" lon="-5.4659490">
        <ele>1193.0</ele>
        <time>2021-08-21T06:35:29Z</time>
      </trkpt>
      <trkpt lat="42.7856570" lon="-5.4659530">
        <ele>1194.0</ele>
        <time>2021-08-21T06:35:30Z</time>
      </trkpt>
      <trkpt lat="42.7856780" lon="-5.4659590">
        <ele>1194.0</ele>
        <time>2021-08-21T06:35:31Z</time>
      </trkpt>
      <trkpt lat="42.7857000" lon="-5.4659630">
        <ele>1194.0</ele>
        <time>2021-08-21T06:35:32Z</time>
      </trkpt>
      <trkpt lat="42.7857210" lon="-5.4659670">
        <ele>1194.0</ele>
        <time>2021-08-21T06:35:33Z</time>
      </trkpt>
      <trkpt lat="42.7857420" lon="-5.4659700">
        <ele>1195.0</ele>
        <time>2021-08-21T06:35:34Z</time>
      </trkpt>
      <trkpt lat="42.7857650" lon="-5.4659740">
        <ele>1195.0</ele>
        <time>2021-08-21T06:35:35Z</time>
      </trkpt>
      <trkpt lat="42.7857990" lon="-5.4659830">
        <ele>1195.0</ele>
        <time>2021-08-21T06:35:36Z</time>
      </trkpt>
      <trkpt lat="42.7858110" lon="-5.4659860">
        <ele>1195.0</ele>
        <time>2021-08-21T06:35:37Z</time>
      </trkpt>
      <trkpt lat="42.7858320" lon="-5.4659880">
        <ele>1195.0</ele>
        <time>2021-08-21T06:35:38Z</time>
      </trkpt>
      <trkpt lat="42.7858550" lon="-5.4659910">
        <ele>1195.0</ele>
        <time>2021-08-21T06:35:39Z</time>
      </trkpt>
      <trkpt lat="42.7858780" lon="-5.4659960">
        <ele>1195.0</ele>
        <time>2021-08-21T06:35:40Z</time>
      </trkpt>
      <trkpt lat="42.7859000" lon="-5.4660010">
        <ele>1196.0</ele>
        <time>2021-08-21T06:35:41Z</time>
      </trkpt>
      <trkpt lat="42.7859210" lon="-5.4660060">
        <ele>1196.0</ele>
        <time>2021-08-21T06:35:42Z</time>
      </trkpt>
      <trkpt lat="42.7859460" lon="-5.4660120">
        <ele>1196.0</ele>
        <time>2021-08-21T06:35:43Z</time>
      </trkpt>
      <trkpt lat="42.7859820" lon="-5.4660240">
        <ele>1196.0</ele>
        <time>2021-08-21T06:35:44Z</time>
      </trkpt>
      <trkpt lat="42.7859940" lon="-5.4660280">
        <ele>1196.0</ele>
        <time>2021-08-21T06:35:45Z</time>
      </trkpt>
      <trkpt lat="42.7860230" lon="-5.4660320">
        <ele>1196.0</ele>
        <time>2021-08-21T06:35:46Z</time>
      </trkpt>
      <trkpt lat="42.7860540" lon="-5.4660350">
        <ele>1196.0</ele>
        <time>2021-08-21T06:35:47Z</time>
      </trkpt>
      <trkpt lat="42.7860810" lon="-5.4660370">
        <ele>1196.0</ele>
        <time>2021-08-21T06:35:48Z</time>
      </trkpt>
      <trkpt lat="42.7861060" lon="-5.4660390">
        <ele>1196.0</ele>
        <time>2021-08-21T06:35:49Z</time>
      </trkpt>
      <trkpt lat="42.7861330" lon="-5.4660410">
        <ele>1197.0</ele>
        <time>2021-08-21T06:35:50Z</time>
      </trkpt>
      <trkpt lat="42.7861740" lon="-5.4660390">
        <ele>1197.0</ele>
        <time>2021-08-21T06:35:51Z</time>
      </trkpt>
      <trkpt lat="42.7861870" lon="-5.4660380">
        <ele>1197.0</ele>
        <time>2021-08-21T06:35:52Z</time>
      </trkpt>
      <trkpt lat="42.7862150" lon="-5.4660340">
        <ele>1197.0</ele>
        <time>2021-08-21T06:35:53Z</time>
      </trkpt>
      <trkpt lat="42.7862420" lon="-5.4660340">
        <ele>1197.0</ele>
        <time>2021-08-21T06:35:54Z</time>
      </trkpt>
      <trkpt lat="42.7862820" lon="-5.4660340">
        <ele>1197.0</ele>
        <time>2021-08-21T06:35:55Z</time>
      </trkpt>
      <trkpt lat="42.7862950" lon="-5.4660330">
        <ele>1197.0</ele>
        <time>2021-08-21T06:35:56Z</time>
      </trkpt>
      <trkpt lat="42.7863240" lon="-5.4660320">
        <ele>1197.0</ele>
        <time>2021-08-21T06:35:57Z</time>
      </trkpt>
      <trkpt lat="42.7863510" lon="-5.4660290">
        <ele>1197.0</ele>
        <time>2021-08-21T06:35:58Z</time>
      </trkpt>
      <trkpt lat="42.7863750" lon="-5.4660310">
        <ele>1198.0</ele>
        <time>2021-08-21T06:35:59Z</time>
      </trkpt>
      <trkpt lat="42.7864000" lon="-5.4660300">
        <ele>1198.0</ele>
        <time>2021-08-21T06:36:00Z</time>
      </trkpt>
      <trkpt lat="42.7864260" lon="-5.4660300">
        <ele>1198.0</ele>
        <time>2021-08-21T06:36:01Z</time>
      </trkpt>
      <trkpt lat="42.7864510" lon="-5.4660280">
        <ele>1198.0</ele>
        <time>2021-08-21T06:36:02Z</time>
      </trkpt>
      <trkpt lat="42.7864910" lon="-5.4660290">
        <ele>1198.0</ele>
        <time>2021-08-21T06:36:03Z</time>
      </trkpt>
      <trkpt lat="42.7865040" lon="-5.4660300">
        <ele>1198.0</ele>
        <time>2021-08-21T06:36:04Z</time>
      </trkpt>
      <trkpt lat="42.7865310" lon="-5.4660270">
        <ele>1198.0</ele>
        <time>2021-08-21T06:36:05Z</time>
      </trkpt>
      <trkpt lat="42.7865610" lon="-5.4660230">
        <ele>1198.0</ele>
        <time>2021-08-21T06:36:06Z</time>
      </trkpt>
      <trkpt lat="42.7865870" lon="-5.4660180">
        <ele>1198.0</ele>
        <time>2021-08-21T06:36:07Z</time>
      </trkpt>
      <trkpt lat="42.7866130" lon="-5.4660140">
        <ele>1199.0</ele>
        <time>2021-08-21T06:36:08Z</time>
      </trkpt>
      <trkpt lat="42.7866380" lon="-5.4660060">
        <ele>1199.0</ele>
        <time>2021-08-21T06:36:09Z</time>
      </trkpt>
      <trkpt lat="42.7866750" lon="-5.4659880">
        <ele>1199.0</ele>
        <time>2021-08-21T06:36:10Z</time>
      </trkpt>
      <trkpt lat="42.7866870" lon="-5.4659810">
        <ele>1199.0</ele>
        <time>2021-08-21T06:36:11Z</time>
      </trkpt>
      <trkpt lat="42.7867120" lon="-5.4659660">
        <ele>1199.0</ele>
        <time>2021-08-21T06:36:12Z</time>
      </trkpt>
      <trkpt lat="42.7867360" lon="-5.4659510">
        <ele>1199.0</ele>
        <time>2021-08-21T06:36:13Z</time>
      </trkpt>
      <trkpt lat="42.7867740" lon="-5.4659210">
        <ele>1199.0</ele>
        <time>2021-08-21T06:36:14Z</time>
      </trkpt>
      <trkpt lat="42.7867870" lon="-5.4659110">
        <ele>1199.0</ele>
        <time>2021-08-21T06:36:15Z</time>
      </trkpt>
      <trkpt lat="42.7868090" lon="-5.4658910">
        <ele>1198.0</ele>
        <time>2021-08-21T06:36:16Z</time>
      </trkpt>
      <trkpt lat="42.7868320" lon="-5.4658710">
        <ele>1198.0</ele>
        <time>2021-08-21T06:36:17Z</time>
      </trkpt>
      <trkpt lat="42.7868530" lon="-5.4658520">
        <ele>1198.0</ele>
        <time>2021-08-21T06:36:18Z</time>
      </trkpt>
      <trkpt lat="42.7868860" lon="-5.4658170">
        <ele>1198.0</ele>
        <time>2021-08-21T06:36:19Z</time>
      </trkpt>
      <trkpt lat="42.7868980" lon="-5.4658050">
        <ele>1198.0</ele>
        <time>2021-08-21T06:36:20Z</time>
      </trkpt>
      <trkpt lat="42.7869320" lon="-5.4657640">
        <ele>1198.0</ele>
        <time>2021-08-21T06:36:21Z</time>
      </trkpt>
      <trkpt lat="42.7869420" lon="-5.4657500">
        <ele>1198.0</ele>
        <time>2021-08-21T06:36:22Z</time>
      </trkpt>
      <trkpt lat="42.7869760" lon="-5.4657050">
        <ele>1198.0</ele>
        <time>2021-08-21T06:36:23Z</time>
      </trkpt>
      <trkpt lat="42.7869880" lon="-5.4656900">
        <ele>1197.0</ele>
        <time>2021-08-21T06:36:24Z</time>
      </trkpt>
      <trkpt lat="42.7870070" lon="-5.4656620">
        <ele>1197.0</ele>
        <time>2021-08-21T06:36:25Z</time>
      </trkpt>
      <trkpt lat="42.7870410" lon="-5.4656220">
        <ele>1197.0</ele>
        <time>2021-08-21T06:36:26Z</time>
      </trkpt>
      <trkpt lat="42.7870520" lon="-5.4656090">
        <ele>1197.0</ele>
        <time>2021-08-21T06:36:27Z</time>
      </trkpt>
      <trkpt lat="42.7870730" lon="-5.4655830">
        <ele>1197.0</ele>
        <time>2021-08-21T06:36:28Z</time>
      </trkpt>
      <trkpt lat="42.7870940" lon="-5.4655590">
        <ele>1197.0</ele>
        <time>2021-08-21T06:36:29Z</time>
      </trkpt>
      <trkpt lat="42.7871100" lon="-5.4655330">
        <ele>1197.0</ele>
        <time>2021-08-21T06:36:30Z</time>
      </trkpt>
      <trkpt lat="42.7871290" lon="-5.4655050">
        <ele>1197.0</ele>
        <time>2021-08-21T06:36:31Z</time>
      </trkpt>
      <trkpt lat="42.7871490" lon="-5.4654790">
        <ele>1197.0</ele>
        <time>2021-08-21T06:36:32Z</time>
      </trkpt>
      <trkpt lat="42.7871690" lon="-5.4654510">
        <ele>1197.0</ele>
        <time>2021-08-21T06:36:33Z</time>
      </trkpt>
      <trkpt lat="42.7871900" lon="-5.4654240">
        <ele>1197.0</ele>
        <time>2021-08-21T06:36:34Z</time>
      </trkpt>
      <trkpt lat="42.7872090" lon="-5.4653960">
        <ele>1197.0</ele>
        <time>2021-08-21T06:36:35Z</time>
      </trkpt>
      <trkpt lat="42.7872310" lon="-5.4653610">
        <ele>1197.0</ele>
        <time>2021-08-21T06:36:36Z</time>
      </trkpt>
      <trkpt lat="42.7872370" lon="-5.4653480">
        <ele>1197.0</ele>
        <time>2021-08-21T06:36:37Z</time>
      </trkpt>
      <trkpt lat="42.7872510" lon="-5.4653210">
        <ele>1197.0</ele>
        <time>2021-08-21T06:36:38Z</time>
      </trkpt>
      <trkpt lat="42.7872700" lon="-5.4652970">
        <ele>1197.0</ele>
        <time>2021-08-21T06:36:39Z</time>
      </trkpt>
      <trkpt lat="42.7872870" lon="-5.4652730">
        <ele>1197.0</ele>
        <time>2021-08-21T06:36:40Z</time>
      </trkpt>
      <trkpt lat="42.7873050" lon="-5.4652510">
        <ele>1197.0</ele>
        <time>2021-08-21T06:36:41Z</time>
      </trkpt>
      <trkpt lat="42.7873260" lon="-5.4652290">
        <ele>1197.0</ele>
        <time>2021-08-21T06:36:42Z</time>
      </trkpt>
      <trkpt lat="42.7873460" lon="-5.4652060">
        <ele>1197.0</ele>
        <time>2021-08-21T06:36:43Z</time>
      </trkpt>
      <trkpt lat="42.7873660" lon="-5.4651840">
        <ele>1197.0</ele>
        <time>2021-08-21T06:36:44Z</time>
      </trkpt>
      <trkpt lat="42.7873820" lon="-5.4651640">
        <ele>1197.0</ele>
        <time>2021-08-21T06:36:45Z</time>
      </trkpt>
      <trkpt lat="42.7874020" lon="-5.4651440">
        <ele>1196.0</ele>
        <time>2021-08-21T06:36:46Z</time>
      </trkpt>
      <trkpt lat="42.7874200" lon="-5.4651190">
        <ele>1196.0</ele>
        <time>2021-08-21T06:36:47Z</time>
      </trkpt>
      <trkpt lat="42.7874520" lon="-5.4650880">
        <ele>1196.0</ele>
        <time>2021-08-21T06:36:48Z</time>
      </trkpt>
      <trkpt lat="42.7874630" lon="-5.4650770">
        <ele>1196.0</ele>
        <time>2021-08-21T06:36:49Z</time>
      </trkpt>
      <trkpt lat="42.7874830" lon="-5.4650550">
        <ele>1196.0</ele>
        <time>2021-08-21T06:36:50Z</time>
      </trkpt>
      <trkpt lat="42.7875000" lon="-5.4650310">
        <ele>1196.0</ele>
        <time>2021-08-21T06:36:51Z</time>
      </trkpt>
      <trkpt lat="42.7875300" lon="-5.4649990">
        <ele>1196.0</ele>
        <time>2021-08-21T06:36:52Z</time>
      </trkpt>
      <trkpt lat="42.7875400" lon="-5.4649890">
        <ele>1196.0</ele>
        <time>2021-08-21T06:36:53Z</time>
      </trkpt>
      <trkpt lat="42.7875630" lon="-5.4649660">
        <ele>1196.0</ele>
        <time>2021-08-21T06:36:54Z</time>
      </trkpt>
      <trkpt lat="42.7875780" lon="-5.4649440">
        <ele>1196.0</ele>
        <time>2021-08-21T06:36:55Z</time>
      </trkpt>
      <trkpt lat="42.7875960" lon="-5.4649230">
        <ele>1196.0</ele>
        <time>2021-08-21T06:36:56Z</time>
      </trkpt>
      <trkpt lat="42.7876190" lon="-5.4649040">
        <ele>1196.0</ele>
        <time>2021-08-21T06:36:57Z</time>
      </trkpt>
      <trkpt lat="42.7876460" lon="-5.4648830">
        <ele>1196.0</ele>
        <time>2021-08-21T06:36:58Z</time>
      </trkpt>
      <trkpt lat="42.7876670" lon="-5.4648620">
        <ele>1196.0</ele>
        <time>2021-08-21T06:36:59Z</time>
      </trkpt>
      <trkpt lat="42.7876870" lon="-5.4648400">
        <ele>1196.0</ele>
        <time>2021-08-21T06:37:00Z</time>
      </trkpt>
      <trkpt lat="42.7877080" lon="-5.4648190">
        <ele>1196.0</ele>
        <time>2021-08-21T06:37:01Z</time>
      </trkpt>
      <trkpt lat="42.7877540" lon="-5.4647760">
        <ele>1196.0</ele>
        <time>2021-08-21T06:37:03Z</time>
      </trkpt>
      <trkpt lat="42.7877760" lon="-5.4647520">
        <ele>1196.0</ele>
        <time>2021-08-21T06:37:04Z</time>
      </trkpt>
      <trkpt lat="42.7877980" lon="-5.4647270">
        <ele>1196.0</ele>
        <time>2021-08-21T06:37:05Z</time>
      </trkpt>
      <trkpt lat="42.7878240" lon="-5.4647040">
        <ele>1196.0</ele>
        <time>2021-08-21T06:37:06Z</time>
      </trkpt>
      <trkpt lat="42.7878470" lon="-5.4646810">
        <ele>1196.0</ele>
        <time>2021-08-21T06:37:07Z</time>
      </trkpt>
      <trkpt lat="42.7878680" lon="-5.4646580">
        <ele>1197.0</ele>
        <time>2021-08-21T06:37:08Z</time>
      </trkpt>
      <trkpt lat="42.7879010" lon="-5.4646280">
        <ele>1197.0</ele>
        <time>2021-08-21T06:37:09Z</time>
      </trkpt>
      <trkpt lat="42.7879130" lon="-5.4646180">
        <ele>1197.0</ele>
        <time>2021-08-21T06:37:10Z</time>
      </trkpt>
      <trkpt lat="42.7879440" lon="-5.4645860">
        <ele>1197.0</ele>
        <time>2021-08-21T06:37:11Z</time>
      </trkpt>
      <trkpt lat="42.7879550" lon="-5.4645750">
        <ele>1197.0</ele>
        <time>2021-08-21T06:37:12Z</time>
      </trkpt>
      <trkpt lat="42.7879770" lon="-5.4645540">
        <ele>1197.0</ele>
        <time>2021-08-21T06:37:13Z</time>
      </trkpt>
      <trkpt lat="42.7880010" lon="-5.4645350">
        <ele>1197.0</ele>
        <time>2021-08-21T06:37:14Z</time>
      </trkpt>
      <trkpt lat="42.7880210" lon="-5.4645150">
        <ele>1197.0</ele>
        <time>2021-08-21T06:37:15Z</time>
      </trkpt>
      <trkpt lat="42.7880390" lon="-5.4644940">
        <ele>1197.0</ele>
        <time>2021-08-21T06:37:16Z</time>
      </trkpt>
      <trkpt lat="42.7880590" lon="-5.4644730">
        <ele>1197.0</ele>
        <time>2021-08-21T06:37:17Z</time>
      </trkpt>
      <trkpt lat="42.7880820" lon="-5.4644510">
        <ele>1197.0</ele>
        <time>2021-08-21T06:37:18Z</time>
      </trkpt>
      <trkpt lat="42.7881020" lon="-5.4644290">
        <ele>1197.0</ele>
        <time>2021-08-21T06:37:19Z</time>
      </trkpt>
      <trkpt lat="42.7881220" lon="-5.4644070">
        <ele>1197.0</ele>
        <time>2021-08-21T06:37:20Z</time>
      </trkpt>
      <trkpt lat="42.7881360" lon="-5.4643870">
        <ele>1198.0</ele>
        <time>2021-08-21T06:37:21Z</time>
      </trkpt>
      <trkpt lat="42.7881550" lon="-5.4643630">
        <ele>1198.0</ele>
        <time>2021-08-21T06:37:22Z</time>
      </trkpt>
      <trkpt lat="42.7881720" lon="-5.4643400">
        <ele>1198.0</ele>
        <time>2021-08-21T06:37:23Z</time>
      </trkpt>
      <trkpt lat="42.7881930" lon="-5.4643190">
        <ele>1198.0</ele>
        <time>2021-08-21T06:37:24Z</time>
      </trkpt>
      <trkpt lat="42.7882110" lon="-5.4642990">
        <ele>1198.0</ele>
        <time>2021-08-21T06:37:25Z</time>
      </trkpt>
      <trkpt lat="42.7882280" lon="-5.4642770">
        <ele>1198.0</ele>
        <time>2021-08-21T06:37:26Z</time>
      </trkpt>
      <trkpt lat="42.7882490" lon="-5.4642540">
        <ele>1198.0</ele>
        <time>2021-08-21T06:37:27Z</time>
      </trkpt>
      <trkpt lat="42.7882700" lon="-5.4642330">
        <ele>1198.0</ele>
        <time>2021-08-21T06:37:28Z</time>
      </trkpt>
      <trkpt lat="42.7882940" lon="-5.4642100">
        <ele>1198.0</ele>
        <time>2021-08-21T06:37:29Z</time>
      </trkpt>
      <trkpt lat="42.7883340" lon="-5.4641640">
        <ele>1198.0</ele>
        <time>2021-08-21T06:37:31Z</time>
      </trkpt>
      <trkpt lat="42.7883540" lon="-5.4641440">
        <ele>1198.0</ele>
        <time>2021-08-21T06:37:32Z</time>
      </trkpt>
      <trkpt lat="42.7883730" lon="-5.4641240">
        <ele>1198.0</ele>
        <time>2021-08-21T06:37:33Z</time>
      </trkpt>
      <trkpt lat="42.7883980" lon="-5.4641050">
        <ele>1199.0</ele>
        <time>2021-08-21T06:37:34Z</time>
      </trkpt>
      <trkpt lat="42.7884210" lon="-5.4640880">
        <ele>1199.0</ele>
        <time>2021-08-21T06:37:35Z</time>
      </trkpt>
      <trkpt lat="42.7884420" lon="-5.4640680">
        <ele>1199.0</ele>
        <time>2021-08-21T06:37:36Z</time>
      </trkpt>
      <trkpt lat="42.7884730" lon="-5.4640400">
        <ele>1199.0</ele>
        <time>2021-08-21T06:37:37Z</time>
      </trkpt>
      <trkpt lat="42.7884840" lon="-5.4640310">
        <ele>1198.0</ele>
        <time>2021-08-21T06:37:38Z</time>
      </trkpt>
      <trkpt lat="42.7885040" lon="-5.4640100">
        <ele>1198.0</ele>
        <time>2021-08-21T06:37:39Z</time>
      </trkpt>
      <trkpt lat="42.7885260" lon="-5.4639900">
        <ele>1198.0</ele>
        <time>2021-08-21T06:37:40Z</time>
      </trkpt>
      <trkpt lat="42.7885500" lon="-5.4639720">
        <ele>1198.0</ele>
        <time>2021-08-21T06:37:41Z</time>
      </trkpt>
      <trkpt lat="42.7885720" lon="-5.4639550">
        <ele>1198.0</ele>
        <time>2021-08-21T06:37:42Z</time>
      </trkpt>
      <trkpt lat="42.7885930" lon="-5.4639390">
        <ele>1198.0</ele>
        <time>2021-08-21T06:37:43Z</time>
      </trkpt>
      <trkpt lat="42.7886140" lon="-5.4639210">
        <ele>1198.0</ele>
        <time>2021-08-21T06:37:44Z</time>
      </trkpt>
      <trkpt lat="42.7886350" lon="-5.4639070">
        <ele>1198.0</ele>
        <time>2021-08-21T06:37:45Z</time>
      </trkpt>
      <trkpt lat="42.7886590" lon="-5.4638930">
        <ele>1198.0</ele>
        <time>2021-08-21T06:37:46Z</time>
      </trkpt>
      <trkpt lat="42.7886830" lon="-5.4638760">
        <ele>1198.0</ele>
        <time>2021-08-21T06:37:47Z</time>
      </trkpt>
      <trkpt lat="42.7887080" lon="-5.4638620">
        <ele>1198.0</ele>
        <time>2021-08-21T06:37:48Z</time>
      </trkpt>
      <trkpt lat="42.7887460" lon="-5.4638380">
        <ele>1198.0</ele>
        <time>2021-08-21T06:37:49Z</time>
      </trkpt>
      <trkpt lat="42.7887570" lon="-5.4638300">
        <ele>1198.0</ele>
        <time>2021-08-21T06:37:50Z</time>
      </trkpt>
      <trkpt lat="42.7887820" lon="-5.4638140">
        <ele>1197.0</ele>
        <time>2021-08-21T06:37:51Z</time>
      </trkpt>
      <trkpt lat="42.7888090" lon="-5.4637970">
        <ele>1197.0</ele>
        <time>2021-08-21T06:37:52Z</time>
      </trkpt>
      <trkpt lat="42.7888350" lon="-5.4637830">
        <ele>1197.0</ele>
        <time>2021-08-21T06:37:53Z</time>
      </trkpt>
      <trkpt lat="42.7888570" lon="-5.4637690">
        <ele>1197.0</ele>
        <time>2021-08-21T06:37:54Z</time>
      </trkpt>
      <trkpt lat="42.7888790" lon="-5.4637550">
        <ele>1197.0</ele>
        <time>2021-08-21T06:37:55Z</time>
      </trkpt>
      <trkpt lat="42.7889030" lon="-5.4637400">
        <ele>1197.0</ele>
        <time>2021-08-21T06:37:56Z</time>
      </trkpt>
      <trkpt lat="42.7889260" lon="-5.4637260">
        <ele>1197.0</ele>
        <time>2021-08-21T06:37:57Z</time>
      </trkpt>
      <trkpt lat="42.7889500" lon="-5.4637090">
        <ele>1197.0</ele>
        <time>2021-08-21T06:37:58Z</time>
      </trkpt>
      <trkpt lat="42.7889710" lon="-5.4636930">
        <ele>1197.0</ele>
        <time>2021-08-21T06:37:59Z</time>
      </trkpt>
      <trkpt lat="42.7889970" lon="-5.4636800">
        <ele>1197.0</ele>
        <time>2021-08-21T06:38:00Z</time>
      </trkpt>
      <trkpt lat="42.7890250" lon="-5.4636660">
        <ele>1197.0</ele>
        <time>2021-08-21T06:38:01Z</time>
      </trkpt>
      <trkpt lat="42.7890510" lon="-5.4636500">
        <ele>1196.0</ele>
        <time>2021-08-21T06:38:02Z</time>
      </trkpt>
      <trkpt lat="42.7890780" lon="-5.4636350">
        <ele>1196.0</ele>
        <time>2021-08-21T06:38:03Z</time>
      </trkpt>
      <trkpt lat="42.7891170" lon="-5.4636130">
        <ele>1196.0</ele>
        <time>2021-08-21T06:38:04Z</time>
      </trkpt>
      <trkpt lat="42.7891290" lon="-5.4636060">
        <ele>1196.0</ele>
        <time>2021-08-21T06:38:05Z</time>
      </trkpt>
      <trkpt lat="42.7891560" lon="-5.4635910">
        <ele>1196.0</ele>
        <time>2021-08-21T06:38:06Z</time>
      </trkpt>
      <trkpt lat="42.7891820" lon="-5.4635760">
        <ele>1196.0</ele>
        <time>2021-08-21T06:38:07Z</time>
      </trkpt>
      <trkpt lat="42.7892200" lon="-5.4635560">
        <ele>1196.0</ele>
        <time>2021-08-21T06:38:08Z</time>
      </trkpt>
      <trkpt lat="42.7892330" lon="-5.4635490">
        <ele>1195.0</ele>
        <time>2021-08-21T06:38:09Z</time>
      </trkpt>
      <trkpt lat="42.7892600" lon="-5.4635350">
        <ele>1195.0</ele>
        <time>2021-08-21T06:38:10Z</time>
      </trkpt>
      <trkpt lat="42.7892870" lon="-5.4635220">
        <ele>1195.0</ele>
        <time>2021-08-21T06:38:11Z</time>
      </trkpt>
      <trkpt lat="42.7893130" lon="-5.4635090">
        <ele>1195.0</ele>
        <time>2021-08-21T06:38:12Z</time>
      </trkpt>
      <trkpt lat="42.7893380" lon="-5.4634940">
        <ele>1195.0</ele>
        <time>2021-08-21T06:38:13Z</time>
      </trkpt>
      <trkpt lat="42.7893800" lon="-5.4634740">
        <ele>1195.0</ele>
        <time>2021-08-21T06:38:14Z</time>
      </trkpt>
      <trkpt lat="42.7893940" lon="-5.4634660">
        <ele>1194.0</ele>
        <time>2021-08-21T06:38:15Z</time>
      </trkpt>
      <trkpt lat="42.7894380" lon="-5.4634460">
        <ele>1194.0</ele>
        <time>2021-08-21T06:38:16Z</time>
      </trkpt>
      <trkpt lat="42.7894520" lon="-5.4634390">
        <ele>1194.0</ele>
        <time>2021-08-21T06:38:17Z</time>
      </trkpt>
      <trkpt lat="42.7894780" lon="-5.4634250">
        <ele>1194.0</ele>
        <time>2021-08-21T06:38:18Z</time>
      </trkpt>
      <trkpt lat="42.7895030" lon="-5.4634100">
        <ele>1194.0</ele>
        <time>2021-08-21T06:38:19Z</time>
      </trkpt>
      <trkpt lat="42.7895400" lon="-5.4633890">
        <ele>1194.0</ele>
        <time>2021-08-21T06:38:20Z</time>
      </trkpt>
      <trkpt lat="42.7895520" lon="-5.4633830">
        <ele>1193.0</ele>
        <time>2021-08-21T06:38:21Z</time>
      </trkpt>
      <trkpt lat="42.7895770" lon="-5.4633760">
        <ele>1193.0</ele>
        <time>2021-08-21T06:38:22Z</time>
      </trkpt>
      <trkpt lat="42.7896010" lon="-5.4633700">
        <ele>1193.0</ele>
        <time>2021-08-21T06:38:23Z</time>
      </trkpt>
      <trkpt lat="42.7896290" lon="-5.4633620">
        <ele>1193.0</ele>
        <time>2021-08-21T06:38:24Z</time>
      </trkpt>
      <trkpt lat="42.7896580" lon="-5.4633500">
        <ele>1193.0</ele>
        <time>2021-08-21T06:38:25Z</time>
      </trkpt>
      <trkpt lat="42.7896830" lon="-5.4633400">
        <ele>1193.0</ele>
        <time>2021-08-21T06:38:26Z</time>
      </trkpt>
      <trkpt lat="42.7897210" lon="-5.4633280">
        <ele>1193.0</ele>
        <time>2021-08-21T06:38:27Z</time>
      </trkpt>
      <trkpt lat="42.7897320" lon="-5.4633230">
        <ele>1192.0</ele>
        <time>2021-08-21T06:38:28Z</time>
      </trkpt>
      <trkpt lat="42.7897570" lon="-5.4633160">
        <ele>1192.0</ele>
        <time>2021-08-21T06:38:29Z</time>
      </trkpt>
      <trkpt lat="42.7897810" lon="-5.4633090">
        <ele>1192.0</ele>
        <time>2021-08-21T06:38:30Z</time>
      </trkpt>
      <trkpt lat="42.7898070" lon="-5.4633010">
        <ele>1192.0</ele>
        <time>2021-08-21T06:38:31Z</time>
      </trkpt>
      <trkpt lat="42.7898460" lon="-5.4632890">
        <ele>1192.0</ele>
        <time>2021-08-21T06:38:32Z</time>
      </trkpt>
      <trkpt lat="42.7898600" lon="-5.4632850">
        <ele>1192.0</ele>
        <time>2021-08-21T06:38:33Z</time>
      </trkpt>
      <trkpt lat="42.7898870" lon="-5.4632760">
        <ele>1192.0</ele>
        <time>2021-08-21T06:38:34Z</time>
      </trkpt>
      <trkpt lat="42.7899120" lon="-5.4632650">
        <ele>1192.0</ele>
        <time>2021-08-21T06:38:35Z</time>
      </trkpt>
      <trkpt lat="42.7899380" lon="-5.4632560">
        <ele>1192.0</ele>
        <time>2021-08-21T06:38:36Z</time>
      </trkpt>
      <trkpt lat="42.7899730" lon="-5.4632400">
        <ele>1192.0</ele>
        <time>2021-08-21T06:38:37Z</time>
      </trkpt>
      <trkpt lat="42.7899830" lon="-5.4632350">
        <ele>1192.0</ele>
        <time>2021-08-21T06:38:38Z</time>
      </trkpt>
      <trkpt lat="42.7900100" lon="-5.4632270">
        <ele>1191.0</ele>
        <time>2021-08-21T06:38:39Z</time>
      </trkpt>
      <trkpt lat="42.7900360" lon="-5.4632200">
        <ele>1192.0</ele>
        <time>2021-08-21T06:38:40Z</time>
      </trkpt>
      <trkpt lat="42.7900600" lon="-5.4632120">
        <ele>1191.0</ele>
        <time>2021-08-21T06:38:41Z</time>
      </trkpt>
      <trkpt lat="42.7900850" lon="-5.4632070">
        <ele>1191.0</ele>
        <time>2021-08-21T06:38:42Z</time>
      </trkpt>
      <trkpt lat="42.7901090" lon="-5.4632010">
        <ele>1191.0</ele>
        <time>2021-08-21T06:38:43Z</time>
      </trkpt>
      <trkpt lat="42.7901370" lon="-5.4631920">
        <ele>1191.0</ele>
        <time>2021-08-21T06:38:44Z</time>
      </trkpt>
      <trkpt lat="42.7901640" lon="-5.4631850">
        <ele>1191.0</ele>
        <time>2021-08-21T06:38:45Z</time>
      </trkpt>
      <trkpt lat="42.7902020" lon="-5.4631690">
        <ele>1191.0</ele>
        <time>2021-08-21T06:38:46Z</time>
      </trkpt>
      <trkpt lat="42.7902140" lon="-5.4631620">
        <ele>1191.0</ele>
        <time>2021-08-21T06:38:47Z</time>
      </trkpt>
      <trkpt lat="42.7902510" lon="-5.4631410">
        <ele>1191.0</ele>
        <time>2021-08-21T06:38:48Z</time>
      </trkpt>
      <trkpt lat="42.7902630" lon="-5.4631330">
        <ele>1191.0</ele>
        <time>2021-08-21T06:38:49Z</time>
      </trkpt>
      <trkpt lat="42.7902830" lon="-5.4631150">
        <ele>1190.0</ele>
        <time>2021-08-21T06:38:50Z</time>
      </trkpt>
      <trkpt lat="42.7903150" lon="-5.4630810">
        <ele>1190.0</ele>
        <time>2021-08-21T06:38:51Z</time>
      </trkpt>
      <trkpt lat="42.7903250" lon="-5.4630700">
        <ele>1190.0</ele>
        <time>2021-08-21T06:38:52Z</time>
      </trkpt>
      <trkpt lat="42.7903470" lon="-5.4630500">
        <ele>1190.0</ele>
        <time>2021-08-21T06:38:53Z</time>
      </trkpt>
      <trkpt lat="42.7903790" lon="-5.4630250">
        <ele>1190.0</ele>
        <time>2021-08-21T06:38:54Z</time>
      </trkpt>
      <trkpt lat="42.7903900" lon="-5.4630170">
        <ele>1190.0</ele>
        <time>2021-08-21T06:38:55Z</time>
      </trkpt>
      <trkpt lat="42.7904180" lon="-5.4629980">
        <ele>1190.0</ele>
        <time>2021-08-21T06:38:56Z</time>
      </trkpt>
      <trkpt lat="42.7904450" lon="-5.4629840">
        <ele>1189.0</ele>
        <time>2021-08-21T06:38:57Z</time>
      </trkpt>
      <trkpt lat="42.7904750" lon="-5.4629700">
        <ele>1189.0</ele>
        <time>2021-08-21T06:38:58Z</time>
      </trkpt>
      <trkpt lat="42.7904990" lon="-5.4629560">
        <ele>1189.0</ele>
        <time>2021-08-21T06:38:59Z</time>
      </trkpt>
      <trkpt lat="42.7905340" lon="-5.4629320">
        <ele>1189.0</ele>
        <time>2021-08-21T06:39:00Z</time>
      </trkpt>
      <trkpt lat="42.7905460" lon="-5.4629230">
        <ele>1189.0</ele>
        <time>2021-08-21T06:39:01Z</time>
      </trkpt>
      <trkpt lat="42.7905660" lon="-5.4629070">
        <ele>1189.0</ele>
        <time>2021-08-21T06:39:02Z</time>
      </trkpt>
      <trkpt lat="42.7905860" lon="-5.4628910">
        <ele>1189.0</ele>
        <time>2021-08-21T06:39:03Z</time>
      </trkpt>
      <trkpt lat="42.7906050" lon="-5.4628780">
        <ele>1189.0</ele>
        <time>2021-08-21T06:39:04Z</time>
      </trkpt>
      <trkpt lat="42.7906360" lon="-5.4628570">
        <ele>1189.0</ele>
        <time>2021-08-21T06:39:05Z</time>
      </trkpt>
      <trkpt lat="42.7906470" lon="-5.4628510">
        <ele>1189.0</ele>
        <time>2021-08-21T06:39:06Z</time>
      </trkpt>
      <trkpt lat="42.7906650" lon="-5.4628370">
        <ele>1189.0</ele>
        <time>2021-08-21T06:39:07Z</time>
      </trkpt>
      <trkpt lat="42.7906960" lon="-5.4628180">
        <ele>1189.0</ele>
        <time>2021-08-21T06:39:08Z</time>
      </trkpt>
      <trkpt lat="42.7907050" lon="-5.4628110">
        <ele>1189.0</ele>
        <time>2021-08-21T06:39:09Z</time>
      </trkpt>
      <trkpt lat="42.7907270" lon="-5.4627970">
        <ele>1189.0</ele>
        <time>2021-08-21T06:39:10Z</time>
      </trkpt>
      <trkpt lat="42.7907610" lon="-5.4627740">
        <ele>1189.0</ele>
        <time>2021-08-21T06:39:11Z</time>
      </trkpt>
      <trkpt lat="42.7907720" lon="-5.4627670">
        <ele>1189.0</ele>
        <time>2021-08-21T06:39:12Z</time>
      </trkpt>
      <trkpt lat="42.7907930" lon="-5.4627570">
        <ele>1189.0</ele>
        <time>2021-08-21T06:39:13Z</time>
      </trkpt>
      <trkpt lat="42.7908130" lon="-5.4627470">
        <ele>1189.0</ele>
        <time>2021-08-21T06:39:14Z</time>
      </trkpt>
      <trkpt lat="42.7908350" lon="-5.4627350">
        <ele>1189.0</ele>
        <time>2021-08-21T06:39:15Z</time>
      </trkpt>
      <trkpt lat="42.7908550" lon="-5.4627240">
        <ele>1189.0</ele>
        <time>2021-08-21T06:39:16Z</time>
      </trkpt>
      <trkpt lat="42.7908730" lon="-5.4627150">
        <ele>1189.0</ele>
        <time>2021-08-21T06:39:17Z</time>
      </trkpt>
      <trkpt lat="42.7908920" lon="-5.4627050">
        <ele>1189.0</ele>
        <time>2021-08-21T06:39:18Z</time>
      </trkpt>
      <trkpt lat="42.7909110" lon="-5.4626970">
        <ele>1189.0</ele>
        <time>2021-08-21T06:39:19Z</time>
      </trkpt>
      <trkpt lat="42.7909320" lon="-5.4626880">
        <ele>1189.0</ele>
        <time>2021-08-21T06:39:20Z</time>
      </trkpt>
      <trkpt lat="42.7909520" lon="-5.4626770">
        <ele>1189.0</ele>
        <time>2021-08-21T06:39:21Z</time>
      </trkpt>
      <trkpt lat="42.7909710" lon="-5.4626690">
        <ele>1189.0</ele>
        <time>2021-08-21T06:39:22Z</time>
      </trkpt>
      <trkpt lat="42.7909920" lon="-5.4626620">
        <ele>1189.0</ele>
        <time>2021-08-21T06:39:23Z</time>
      </trkpt>
      <trkpt lat="42.7910120" lon="-5.4626550">
        <ele>1189.0</ele>
        <time>2021-08-21T06:39:24Z</time>
      </trkpt>
      <trkpt lat="42.7910120" lon="-5.4626550">
        <ele>1189.0</ele>
        <time>2021-08-21T06:39:25Z</time>
      </trkpt>
      <trkpt lat="42.7910410" lon="-5.4626450">
        <ele>1189.0</ele>
        <time>2021-08-21T06:39:26Z</time>
      </trkpt>
      <trkpt lat="42.7910680" lon="-5.4626380">
        <ele>1189.0</ele>
        <time>2021-08-21T06:39:28Z</time>
      </trkpt>
      <trkpt lat="42.7910680" lon="-5.4626380">
        <ele>1189.0</ele>
        <time>2021-08-21T06:39:29Z</time>
      </trkpt>
      <trkpt lat="42.7910920" lon="-5.4626310">
        <ele>1189.0</ele>
        <time>2021-08-21T06:39:30Z</time>
      </trkpt>
      <trkpt lat="42.7910920" lon="-5.4626310">
        <ele>1189.0</ele>
        <time>2021-08-21T06:39:31Z</time>
      </trkpt>
      <trkpt lat="42.7911200" lon="-5.4626260">
        <ele>1189.0</ele>
        <time>2021-08-21T06:39:32Z</time>
      </trkpt>
      <trkpt lat="42.7911200" lon="-5.4626260">
        <ele>1189.0</ele>
        <time>2021-08-21T06:39:33Z</time>
      </trkpt>
      <trkpt lat="42.7911480" lon="-5.4626180">
        <ele>1189.0</ele>
        <time>2021-08-21T06:39:34Z</time>
      </trkpt>
      <trkpt lat="42.7911480" lon="-5.4626180">
        <ele>1189.0</ele>
        <time>2021-08-21T06:39:35Z</time>
      </trkpt>
      <trkpt lat="42.7911730" lon="-5.4626100">
        <ele>1189.0</ele>
        <time>2021-08-21T06:39:36Z</time>
      </trkpt>
      <trkpt lat="42.7911730" lon="-5.4626100">
        <ele>1189.0</ele>
        <time>2021-08-21T06:39:37Z</time>
      </trkpt>
      <trkpt lat="42.7911980" lon="-5.4626000">
        <ele>1189.0</ele>
        <time>2021-08-21T06:39:38Z</time>
      </trkpt>
      <trkpt lat="42.7911980" lon="-5.4626000">
        <ele>1189.0</ele>
        <time>2021-08-21T06:39:39Z</time>
      </trkpt>
      <trkpt lat="42.7912240" lon="-5.4625910">
        <ele>1189.0</ele>
        <time>2021-08-21T06:39:40Z</time>
      </trkpt>
      <trkpt lat="42.7912240" lon="-5.4625910">
        <ele>1189.0</ele>
        <time>2021-08-21T06:39:41Z</time>
      </trkpt>
      <trkpt lat="42.7912500" lon="-5.4625800">
        <ele>1189.0</ele>
        <time>2021-08-21T06:39:42Z</time>
      </trkpt>
      <trkpt lat="42.7912760" lon="-5.4625710">
        <ele>1190.0</ele>
        <time>2021-08-21T06:39:44Z</time>
      </trkpt>
      <trkpt lat="42.7912970" lon="-5.4625650">
        <ele>1190.0</ele>
        <time>2021-08-21T06:39:46Z</time>
      </trkpt>
      <trkpt lat="42.7912970" lon="-5.4625650">
        <ele>1190.0</ele>
        <time>2021-08-21T06:39:47Z</time>
      </trkpt>
      <trkpt lat="42.7913240" lon="-5.4625540">
        <ele>1190.0</ele>
        <time>2021-08-21T06:39:48Z</time>
      </trkpt>
      <trkpt lat="42.7913490" lon="-5.4625420">
        <ele>1190.0</ele>
        <time>2021-08-21T06:39:50Z</time>
      </trkpt>
      <trkpt lat="42.7913490" lon="-5.4625420">
        <ele>1191.0</ele>
        <time>2021-08-21T06:39:51Z</time>
      </trkpt>
      <trkpt lat="42.7913690" lon="-5.4625310">
        <ele>1191.0</ele>
        <time>2021-08-21T06:39:52Z</time>
      </trkpt>
      <trkpt lat="42.7913690" lon="-5.4625310">
        <ele>1191.0</ele>
        <time>2021-08-21T06:39:53Z</time>
      </trkpt>
      <trkpt lat="42.7913900" lon="-5.4625220">
        <ele>1191.0</ele>
        <time>2021-08-21T06:39:54Z</time>
      </trkpt>
      <trkpt lat="42.7913900" lon="-5.4625220">
        <ele>1191.0</ele>
        <time>2021-08-21T06:39:55Z</time>
      </trkpt>
      <trkpt lat="42.7914140" lon="-5.4625130">
        <ele>1191.0</ele>
        <time>2021-08-21T06:39:56Z</time>
      </trkpt>
      <trkpt lat="42.7914140" lon="-5.4625130">
        <ele>1191.0</ele>
        <time>2021-08-21T06:39:57Z</time>
      </trkpt>
      <trkpt lat="42.7914460" lon="-5.4625010">
        <ele>1191.0</ele>
        <time>2021-08-21T06:39:58Z</time>
      </trkpt>
      <trkpt lat="42.7914460" lon="-5.4625010">
        <ele>1191.0</ele>
        <time>2021-08-21T06:39:59Z</time>
      </trkpt>
      <trkpt lat="42.7914710" lon="-5.4624940">
        <ele>1192.0</ele>
        <time>2021-08-21T06:40:00Z</time>
      </trkpt>
      <trkpt lat="42.7914710" lon="-5.4624940">
        <ele>1192.0</ele>
        <time>2021-08-21T06:40:01Z</time>
      </trkpt>
      <trkpt lat="42.7914980" lon="-5.4624860">
        <ele>1192.0</ele>
        <time>2021-08-21T06:40:02Z</time>
      </trkpt>
      <trkpt lat="42.7914980" lon="-5.4624860">
        <ele>1192.0</ele>
        <time>2021-08-21T06:40:03Z</time>
      </trkpt>
      <trkpt lat="42.7915270" lon="-5.4624740">
        <ele>1192.0</ele>
        <time>2021-08-21T06:40:04Z</time>
      </trkpt>
      <trkpt lat="42.7915270" lon="-5.4624740">
        <ele>1192.0</ele>
        <time>2021-08-21T06:40:05Z</time>
      </trkpt>
      <trkpt lat="42.7915510" lon="-5.4624630">
        <ele>1193.0</ele>
        <time>2021-08-21T06:40:06Z</time>
      </trkpt>
      <trkpt lat="42.7915750" lon="-5.4624550">
        <ele>1193.0</ele>
        <time>2021-08-21T06:40:08Z</time>
      </trkpt>
      <trkpt lat="42.7915750" lon="-5.4624550">
        <ele>1193.0</ele>
        <time>2021-08-21T06:40:09Z</time>
      </trkpt>
      <trkpt lat="42.7916030" lon="-5.4624490">
        <ele>1193.0</ele>
        <time>2021-08-21T06:40:10Z</time>
      </trkpt>
      <trkpt lat="42.7916030" lon="-5.4624490">
        <ele>1194.0</ele>
        <time>2021-08-21T06:40:11Z</time>
      </trkpt>
      <trkpt lat="42.7916320" lon="-5.4624400">
        <ele>1194.0</ele>
        <time>2021-08-21T06:40:12Z</time>
      </trkpt>
      <trkpt lat="42.7916480" lon="-5.4624360">
        <ele>1194.0</ele>
        <time>2021-08-21T06:40:13Z</time>
      </trkpt>
      <trkpt lat="42.7916650" lon="-5.4624310">
        <ele>1194.0</ele>
        <time>2021-08-21T06:40:14Z</time>
      </trkpt>
      <trkpt lat="42.7916810" lon="-5.4624270">
        <ele>1194.0</ele>
        <time>2021-08-21T06:40:15Z</time>
      </trkpt>
      <trkpt lat="42.7917040" lon="-5.4624250">
        <ele>1195.0</ele>
        <time>2021-08-21T06:40:16Z</time>
      </trkpt>
      <trkpt lat="42.7917270" lon="-5.4624240">
        <ele>1195.0</ele>
        <time>2021-08-21T06:40:17Z</time>
      </trkpt>
      <trkpt lat="42.7917500" lon="-5.4624240">
        <ele>1195.0</ele>
        <time>2021-08-21T06:40:18Z</time>
      </trkpt>
      <trkpt lat="42.7917750" lon="-5.4624210">
        <ele>1195.0</ele>
        <time>2021-08-21T06:40:19Z</time>
      </trkpt>
      <trkpt lat="42.7917990" lon="-5.4624190">
        <ele>1195.0</ele>
        <time>2021-08-21T06:40:20Z</time>
      </trkpt>
      <trkpt lat="42.7918330" lon="-5.4624170">
        <ele>1195.0</ele>
        <time>2021-08-21T06:40:21Z</time>
      </trkpt>
      <trkpt lat="42.7918450" lon="-5.4624150">
        <ele>1195.0</ele>
        <time>2021-08-21T06:40:22Z</time>
      </trkpt>
      <trkpt lat="42.7918630" lon="-5.4624140">
        <ele>1195.0</ele>
        <time>2021-08-21T06:40:23Z</time>
      </trkpt>
      <trkpt lat="42.7918870" lon="-5.4624160">
        <ele>1195.0</ele>
        <time>2021-08-21T06:40:24Z</time>
      </trkpt>
      <trkpt lat="42.7919160" lon="-5.4624210">
        <ele>1196.0</ele>
        <time>2021-08-21T06:40:25Z</time>
      </trkpt>
      <trkpt lat="42.7919420" lon="-5.4624250">
        <ele>1196.0</ele>
        <time>2021-08-21T06:40:26Z</time>
      </trkpt>
      <trkpt lat="42.7919720" lon="-5.4624290">
        <ele>1196.0</ele>
        <time>2021-08-21T06:40:27Z</time>
      </trkpt>
      <trkpt lat="42.7920000" lon="-5.4624360">
        <ele>1196.0</ele>
        <time>2021-08-21T06:40:28Z</time>
      </trkpt>
      <trkpt lat="42.7920380" lon="-5.4624490">
        <ele>1196.0</ele>
        <time>2021-08-21T06:40:29Z</time>
      </trkpt>
      <trkpt lat="42.7920510" lon="-5.4624530">
        <ele>1196.0</ele>
        <time>2021-08-21T06:40:30Z</time>
      </trkpt>
      <trkpt lat="42.7920780" lon="-5.4624630">
        <ele>1196.0</ele>
        <time>2021-08-21T06:40:31Z</time>
      </trkpt>
      <trkpt lat="42.7921060" lon="-5.4624720">
        <ele>1196.0</ele>
        <time>2021-08-21T06:40:32Z</time>
      </trkpt>
      <trkpt lat="42.7921330" lon="-5.4624770">
        <ele>1196.0</ele>
        <time>2021-08-21T06:40:33Z</time>
      </trkpt>
      <trkpt lat="42.7921760" lon="-5.4624850">
        <ele>1196.0</ele>
        <time>2021-08-21T06:40:34Z</time>
      </trkpt>
      <trkpt lat="42.7921900" lon="-5.4624890">
        <ele>1196.0</ele>
        <time>2021-08-21T06:40:35Z</time>
      </trkpt>
      <trkpt lat="42.7922280" lon="-5.4625010">
        <ele>1196.0</ele>
        <time>2021-08-21T06:40:36Z</time>
      </trkpt>
      <trkpt lat="42.7922390" lon="-5.4625050">
        <ele>1197.0</ele>
        <time>2021-08-21T06:40:37Z</time>
      </trkpt>
      <trkpt lat="42.7922630" lon="-5.4625140">
        <ele>1197.0</ele>
        <time>2021-08-21T06:40:38Z</time>
      </trkpt>
      <trkpt lat="42.7922840" lon="-5.4625200">
        <ele>1197.0</ele>
        <time>2021-08-21T06:40:39Z</time>
      </trkpt>
      <trkpt lat="42.7923210" lon="-5.4625310">
        <ele>1197.0</ele>
        <time>2021-08-21T06:40:40Z</time>
      </trkpt>
      <trkpt lat="42.7923340" lon="-5.4625340">
        <ele>1197.0</ele>
        <time>2021-08-21T06:40:41Z</time>
      </trkpt>
      <trkpt lat="42.7923560" lon="-5.4625410">
        <ele>1197.0</ele>
        <time>2021-08-21T06:40:42Z</time>
      </trkpt>
      <trkpt lat="42.7923800" lon="-5.4625470">
        <ele>1197.0</ele>
        <time>2021-08-21T06:40:43Z</time>
      </trkpt>
      <trkpt lat="42.7924030" lon="-5.4625540">
        <ele>1197.0</ele>
        <time>2021-08-21T06:40:44Z</time>
      </trkpt>
      <trkpt lat="42.7924270" lon="-5.4625600">
        <ele>1197.0</ele>
        <time>2021-08-21T06:40:45Z</time>
      </trkpt>
      <trkpt lat="42.7924500" lon="-5.4625690">
        <ele>1197.0</ele>
        <time>2021-08-21T06:40:46Z</time>
      </trkpt>
      <trkpt lat="42.7924820" lon="-5.4625800">
        <ele>1197.0</ele>
        <time>2021-08-21T06:40:47Z</time>
      </trkpt>
      <trkpt lat="42.7924930" lon="-5.4625830">
        <ele>1197.0</ele>
        <time>2021-08-21T06:40:48Z</time>
      </trkpt>
      <trkpt lat="42.7925140" lon="-5.4625870">
        <ele>1197.0</ele>
        <time>2021-08-21T06:40:49Z</time>
      </trkpt>
      <trkpt lat="42.7925370" lon="-5.4625910">
        <ele>1198.0</ele>
        <time>2021-08-21T06:40:50Z</time>
      </trkpt>
      <trkpt lat="42.7925700" lon="-5.4625950">
        <ele>1198.0</ele>
        <time>2021-08-21T06:40:51Z</time>
      </trkpt>
      <trkpt lat="42.7925810" lon="-5.4625980">
        <ele>1198.0</ele>
        <time>2021-08-21T06:40:52Z</time>
      </trkpt>
      <trkpt lat="42.7926150" lon="-5.4626050">
        <ele>1198.0</ele>
        <time>2021-08-21T06:40:53Z</time>
      </trkpt>
      <trkpt lat="42.7926250" lon="-5.4626080">
        <ele>1198.0</ele>
        <time>2021-08-21T06:40:54Z</time>
      </trkpt>
      <trkpt lat="42.7926470" lon="-5.4626110">
        <ele>1198.0</ele>
        <time>2021-08-21T06:40:55Z</time>
      </trkpt>
      <trkpt lat="42.7926680" lon="-5.4626140">
        <ele>1198.0</ele>
        <time>2021-08-21T06:40:56Z</time>
      </trkpt>
      <trkpt lat="42.7927010" lon="-5.4626180">
        <ele>1198.0</ele>
        <time>2021-08-21T06:40:57Z</time>
      </trkpt>
      <trkpt lat="42.7927110" lon="-5.4626200">
        <ele>1198.0</ele>
        <time>2021-08-21T06:40:58Z</time>
      </trkpt>
      <trkpt lat="42.7927430" lon="-5.4626280">
        <ele>1198.0</ele>
        <time>2021-08-21T06:40:59Z</time>
      </trkpt>
      <trkpt lat="42.7927540" lon="-5.4626310">
        <ele>1198.0</ele>
        <time>2021-08-21T06:41:00Z</time>
      </trkpt>
      <trkpt lat="42.7927740" lon="-5.4626380">
        <ele>1198.0</ele>
        <time>2021-08-21T06:41:01Z</time>
      </trkpt>
      <trkpt lat="42.7927960" lon="-5.4626460">
        <ele>1198.0</ele>
        <time>2021-08-21T06:41:02Z</time>
      </trkpt>
      <trkpt lat="42.7928150" lon="-5.4626540">
        <ele>1198.0</ele>
        <time>2021-08-21T06:41:03Z</time>
      </trkpt>
      <trkpt lat="42.7928490" lon="-5.4626570">
        <ele>1198.0</ele>
        <time>2021-08-21T06:41:04Z</time>
      </trkpt>
      <trkpt lat="42.7928600" lon="-5.4626580">
        <ele>1199.0</ele>
        <time>2021-08-21T06:41:05Z</time>
      </trkpt>
      <trkpt lat="42.7928810" lon="-5.4626620">
        <ele>1199.0</ele>
        <time>2021-08-21T06:41:06Z</time>
      </trkpt>
      <trkpt lat="42.7929010" lon="-5.4626650">
        <ele>1199.0</ele>
        <time>2021-08-21T06:41:07Z</time>
      </trkpt>
      <trkpt lat="42.7929220" lon="-5.4626660">
        <ele>1199.0</ele>
        <time>2021-08-21T06:41:08Z</time>
      </trkpt>
      <trkpt lat="42.7929440" lon="-5.4626680">
        <ele>1199.0</ele>
        <time>2021-08-21T06:41:09Z</time>
      </trkpt>
      <trkpt lat="42.7929660" lon="-5.4626680">
        <ele>1199.0</ele>
        <time>2021-08-21T06:41:10Z</time>
      </trkpt>
      <trkpt lat="42.7929870" lon="-5.4626670">
        <ele>1199.0</ele>
        <time>2021-08-21T06:41:11Z</time>
      </trkpt>
      <trkpt lat="42.7930080" lon="-5.4626650">
        <ele>1199.0</ele>
        <time>2021-08-21T06:41:12Z</time>
      </trkpt>
      <trkpt lat="42.7930300" lon="-5.4626650">
        <ele>1200.0</ele>
        <time>2021-08-21T06:41:13Z</time>
      </trkpt>
      <trkpt lat="42.7930610" lon="-5.4626620">
        <ele>1200.0</ele>
        <time>2021-08-21T06:41:14Z</time>
      </trkpt>
      <trkpt lat="42.7930710" lon="-5.4626620">
        <ele>1200.0</ele>
        <time>2021-08-21T06:41:15Z</time>
      </trkpt>
      <trkpt lat="42.7930940" lon="-5.4626620">
        <ele>1200.0</ele>
        <time>2021-08-21T06:41:16Z</time>
      </trkpt>
      <trkpt lat="42.7931170" lon="-5.4626610">
        <ele>1200.0</ele>
        <time>2021-08-21T06:41:17Z</time>
      </trkpt>
      <trkpt lat="42.7931380" lon="-5.4626580">
        <ele>1200.0</ele>
        <time>2021-08-21T06:41:18Z</time>
      </trkpt>
      <trkpt lat="42.7931590" lon="-5.4626580">
        <ele>1200.0</ele>
        <time>2021-08-21T06:41:19Z</time>
      </trkpt>
      <trkpt lat="42.7931770" lon="-5.4626550">
        <ele>1201.0</ele>
        <time>2021-08-21T06:41:20Z</time>
      </trkpt>
      <trkpt lat="42.7931960" lon="-5.4626530">
        <ele>1201.0</ele>
        <time>2021-08-21T06:41:21Z</time>
      </trkpt>
      <trkpt lat="42.7932140" lon="-5.4626500">
        <ele>1201.0</ele>
        <time>2021-08-21T06:41:22Z</time>
      </trkpt>
      <trkpt lat="42.7932370" lon="-5.4626510">
        <ele>1201.0</ele>
        <time>2021-08-21T06:41:23Z</time>
      </trkpt>
      <trkpt lat="42.7932620" lon="-5.4626520">
        <ele>1201.0</ele>
        <time>2021-08-21T06:41:24Z</time>
      </trkpt>
      <trkpt lat="42.7932990" lon="-5.4626520">
        <ele>1201.0</ele>
        <time>2021-08-21T06:41:25Z</time>
      </trkpt>
      <trkpt lat="42.7933110" lon="-5.4626510">
        <ele>1201.0</ele>
        <time>2021-08-21T06:41:26Z</time>
      </trkpt>
      <trkpt lat="42.7933360" lon="-5.4626500">
        <ele>1201.0</ele>
        <time>2021-08-21T06:41:27Z</time>
      </trkpt>
      <trkpt lat="42.7933610" lon="-5.4626490">
        <ele>1201.0</ele>
        <time>2021-08-21T06:41:28Z</time>
      </trkpt>
      <trkpt lat="42.7934000" lon="-5.4626480">
        <ele>1201.0</ele>
        <time>2021-08-21T06:41:29Z</time>
      </trkpt>
      <trkpt lat="42.7934140" lon="-5.4626470">
        <ele>1201.0</ele>
        <time>2021-08-21T06:41:30Z</time>
      </trkpt>
      <trkpt lat="42.7934380" lon="-5.4626460">
        <ele>1201.0</ele>
        <time>2021-08-21T06:41:31Z</time>
      </trkpt>
      <trkpt lat="42.7934610" lon="-5.4626460">
        <ele>1201.0</ele>
        <time>2021-08-21T06:41:32Z</time>
      </trkpt>
      <trkpt lat="42.7934850" lon="-5.4626470">
        <ele>1202.0</ele>
        <time>2021-08-21T06:41:33Z</time>
      </trkpt>
      <trkpt lat="42.7935110" lon="-5.4626470">
        <ele>1202.0</ele>
        <time>2021-08-21T06:41:34Z</time>
      </trkpt>
      <trkpt lat="42.7935510" lon="-5.4626450">
        <ele>1202.0</ele>
        <time>2021-08-21T06:41:35Z</time>
      </trkpt>
      <trkpt lat="42.7935640" lon="-5.4626450">
        <ele>1202.0</ele>
        <time>2021-08-21T06:41:36Z</time>
      </trkpt>
      <trkpt lat="42.7936030" lon="-5.4626450">
        <ele>1202.0</ele>
        <time>2021-08-21T06:41:37Z</time>
      </trkpt>
      <trkpt lat="42.7936150" lon="-5.4626470">
        <ele>1202.0</ele>
        <time>2021-08-21T06:41:38Z</time>
      </trkpt>
      <trkpt lat="42.7936370" lon="-5.4626480">
        <ele>1202.0</ele>
        <time>2021-08-21T06:41:39Z</time>
      </trkpt>
      <trkpt lat="42.7936590" lon="-5.4626460">
        <ele>1202.0</ele>
        <time>2021-08-21T06:41:40Z</time>
      </trkpt>
      <trkpt lat="42.7936810" lon="-5.4626450">
        <ele>1202.0</ele>
        <time>2021-08-21T06:41:41Z</time>
      </trkpt>
      <trkpt lat="42.7937080" lon="-5.4626480">
        <ele>1202.0</ele>
        <time>2021-08-21T06:41:42Z</time>
      </trkpt>
      <trkpt lat="42.7937330" lon="-5.4626530">
        <ele>1202.0</ele>
        <time>2021-08-21T06:41:43Z</time>
      </trkpt>
      <trkpt lat="42.7937590" lon="-5.4626590">
        <ele>1202.0</ele>
        <time>2021-08-21T06:41:44Z</time>
      </trkpt>
      <trkpt lat="42.7938010" lon="-5.4626710">
        <ele>1202.0</ele>
        <time>2021-08-21T06:41:45Z</time>
      </trkpt>
      <trkpt lat="42.7938150" lon="-5.4626760">
        <ele>1202.0</ele>
        <time>2021-08-21T06:41:46Z</time>
      </trkpt>
      <trkpt lat="42.7938430" lon="-5.4626820">
        <ele>1202.0</ele>
        <time>2021-08-21T06:41:47Z</time>
      </trkpt>
      <trkpt lat="42.7938680" lon="-5.4626890">
        <ele>1202.0</ele>
        <time>2021-08-21T06:41:48Z</time>
      </trkpt>
      <trkpt lat="42.7938940" lon="-5.4626930">
        <ele>1202.0</ele>
        <time>2021-08-21T06:41:49Z</time>
      </trkpt>
      <trkpt lat="42.7939220" lon="-5.4627000">
        <ele>1202.0</ele>
        <time>2021-08-21T06:41:50Z</time>
      </trkpt>
      <trkpt lat="42.7939460" lon="-5.4627070">
        <ele>1202.0</ele>
        <time>2021-08-21T06:41:51Z</time>
      </trkpt>
      <trkpt lat="42.7939730" lon="-5.4627140">
        <ele>1202.0</ele>
        <time>2021-08-21T06:41:52Z</time>
      </trkpt>
      <trkpt lat="42.7939970" lon="-5.4627220">
        <ele>1202.0</ele>
        <time>2021-08-21T06:41:53Z</time>
      </trkpt>
      <trkpt lat="42.7940210" lon="-5.4627300">
        <ele>1202.0</ele>
        <time>2021-08-21T06:41:54Z</time>
      </trkpt>
      <trkpt lat="42.7940440" lon="-5.4627400">
        <ele>1202.0</ele>
        <time>2021-08-21T06:41:55Z</time>
      </trkpt>
      <trkpt lat="42.7940840" lon="-5.4627540">
        <ele>1202.0</ele>
        <time>2021-08-21T06:41:56Z</time>
      </trkpt>
      <trkpt lat="42.7940970" lon="-5.4627590">
        <ele>1203.0</ele>
        <time>2021-08-21T06:41:57Z</time>
      </trkpt>
      <trkpt lat="42.7941230" lon="-5.4627670">
        <ele>1203.0</ele>
        <time>2021-08-21T06:41:58Z</time>
      </trkpt>
      <trkpt lat="42.7941620" lon="-5.4627800">
        <ele>1203.0</ele>
        <time>2021-08-21T06:41:59Z</time>
      </trkpt>
      <trkpt lat="42.7941750" lon="-5.4627850">
        <ele>1203.0</ele>
        <time>2021-08-21T06:42:00Z</time>
      </trkpt>
      <trkpt lat="42.7942120" lon="-5.4627960">
        <ele>1203.0</ele>
        <time>2021-08-21T06:42:01Z</time>
      </trkpt>
      <trkpt lat="42.7942230" lon="-5.4628000">
        <ele>1203.0</ele>
        <time>2021-08-21T06:42:02Z</time>
      </trkpt>
      <trkpt lat="42.7942470" lon="-5.4628100">
        <ele>1203.0</ele>
        <time>2021-08-21T06:42:03Z</time>
      </trkpt>
      <trkpt lat="42.7942850" lon="-5.4628240">
        <ele>1203.0</ele>
        <time>2021-08-21T06:42:04Z</time>
      </trkpt>
      <trkpt lat="42.7942960" lon="-5.4628290">
        <ele>1203.0</ele>
        <time>2021-08-21T06:42:05Z</time>
      </trkpt>
      <trkpt lat="42.7943240" lon="-5.4628410">
        <ele>1203.0</ele>
        <time>2021-08-21T06:42:06Z</time>
      </trkpt>
      <trkpt lat="42.7943520" lon="-5.4628490">
        <ele>1203.0</ele>
        <time>2021-08-21T06:42:07Z</time>
      </trkpt>
      <trkpt lat="42.7943790" lon="-5.4628590">
        <ele>1204.0</ele>
        <time>2021-08-21T06:42:08Z</time>
      </trkpt>
      <trkpt lat="42.7944070" lon="-5.4628690">
        <ele>1204.0</ele>
        <time>2021-08-21T06:42:09Z</time>
      </trkpt>
      <trkpt lat="42.7944300" lon="-5.4628790">
        <ele>1204.0</ele>
        <time>2021-08-21T06:42:10Z</time>
      </trkpt>
      <trkpt lat="42.7944520" lon="-5.4628890">
        <ele>1204.0</ele>
        <time>2021-08-21T06:42:11Z</time>
      </trkpt>
      <trkpt lat="42.7944760" lon="-5.4628980">
        <ele>1204.0</ele>
        <time>2021-08-21T06:42:12Z</time>
      </trkpt>
      <trkpt lat="42.7945000" lon="-5.4629080">
        <ele>1204.0</ele>
        <time>2021-08-21T06:42:13Z</time>
      </trkpt>
      <trkpt lat="42.7945230" lon="-5.4629200">
        <ele>1204.0</ele>
        <time>2021-08-21T06:42:14Z</time>
      </trkpt>
      <trkpt lat="42.7945480" lon="-5.4629320">
        <ele>1204.0</ele>
        <time>2021-08-21T06:42:15Z</time>
      </trkpt>
      <trkpt lat="42.7945680" lon="-5.4629410">
        <ele>1204.0</ele>
        <time>2021-08-21T06:42:16Z</time>
      </trkpt>
      <trkpt lat="42.7945960" lon="-5.4629510">
        <ele>1204.0</ele>
        <time>2021-08-21T06:42:17Z</time>
      </trkpt>
      <trkpt lat="42.7946200" lon="-5.4629620">
        <ele>1204.0</ele>
        <time>2021-08-21T06:42:18Z</time>
      </trkpt>
      <trkpt lat="42.7946460" lon="-5.4629690">
        <ele>1204.0</ele>
        <time>2021-08-21T06:42:19Z</time>
      </trkpt>
      <trkpt lat="42.7946830" lon="-5.4629780">
        <ele>1204.0</ele>
        <time>2021-08-21T06:42:20Z</time>
      </trkpt>
      <trkpt lat="42.7946960" lon="-5.4629820">
        <ele>1204.0</ele>
        <time>2021-08-21T06:42:21Z</time>
      </trkpt>
      <trkpt lat="42.7947230" lon="-5.4629910">
        <ele>1204.0</ele>
        <time>2021-08-21T06:42:22Z</time>
      </trkpt>
      <trkpt lat="42.7947450" lon="-5.4630030">
        <ele>1204.0</ele>
        <time>2021-08-21T06:42:23Z</time>
      </trkpt>
      <trkpt lat="42.7947670" lon="-5.4630140">
        <ele>1204.0</ele>
        <time>2021-08-21T06:42:24Z</time>
      </trkpt>
      <trkpt lat="42.7947920" lon="-5.4630230">
        <ele>1204.0</ele>
        <time>2021-08-21T06:42:25Z</time>
      </trkpt>
      <trkpt lat="42.7948160" lon="-5.4630300">
        <ele>1204.0</ele>
        <time>2021-08-21T06:42:26Z</time>
      </trkpt>
      <trkpt lat="42.7948380" lon="-5.4630390">
        <ele>1204.0</ele>
        <time>2021-08-21T06:42:27Z</time>
      </trkpt>
      <trkpt lat="42.7948580" lon="-5.4630480">
        <ele>1204.0</ele>
        <time>2021-08-21T06:42:28Z</time>
      </trkpt>
      <trkpt lat="42.7948820" lon="-5.4630570">
        <ele>1204.0</ele>
        <time>2021-08-21T06:42:29Z</time>
      </trkpt>
      <trkpt lat="42.7949030" lon="-5.4630650">
        <ele>1204.0</ele>
        <time>2021-08-21T06:42:30Z</time>
      </trkpt>
      <trkpt lat="42.7949240" lon="-5.4630700">
        <ele>1204.0</ele>
        <time>2021-08-21T06:42:31Z</time>
      </trkpt>
      <trkpt lat="42.7949410" lon="-5.4630790">
        <ele>1204.0</ele>
        <time>2021-08-21T06:42:32Z</time>
      </trkpt>
      <trkpt lat="42.7949640" lon="-5.4630870">
        <ele>1204.0</ele>
        <time>2021-08-21T06:42:33Z</time>
      </trkpt>
      <trkpt lat="42.7949860" lon="-5.4630930">
        <ele>1204.0</ele>
        <time>2021-08-21T06:42:34Z</time>
      </trkpt>
      <trkpt lat="42.7949860" lon="-5.4630930">
        <ele>1205.0</ele>
        <time>2021-08-21T06:42:35Z</time>
      </trkpt>
      <trkpt lat="42.7950350" lon="-5.4631080">
        <ele>1205.0</ele>
        <time>2021-08-21T06:42:36Z</time>
      </trkpt>
      <trkpt lat="42.7950550" lon="-5.4631160">
        <ele>1205.0</ele>
        <time>2021-08-21T06:42:37Z</time>
      </trkpt>
      <trkpt lat="42.7950800" lon="-5.4631230">
        <ele>1205.0</ele>
        <time>2021-08-21T06:42:38Z</time>
      </trkpt>
      <trkpt lat="42.7951140" lon="-5.4631370">
        <ele>1205.0</ele>
        <time>2021-08-21T06:42:39Z</time>
      </trkpt>
      <trkpt lat="42.7951260" lon="-5.4631420">
        <ele>1205.0</ele>
        <time>2021-08-21T06:42:40Z</time>
      </trkpt>
      <trkpt lat="42.7951620" lon="-5.4631530">
        <ele>1205.0</ele>
        <time>2021-08-21T06:42:41Z</time>
      </trkpt>
      <trkpt lat="42.7951750" lon="-5.4631560">
        <ele>1205.0</ele>
        <time>2021-08-21T06:42:42Z</time>
      </trkpt>
      <trkpt lat="42.7952000" lon="-5.4631620">
        <ele>1205.0</ele>
        <time>2021-08-21T06:42:43Z</time>
      </trkpt>
      <trkpt lat="42.7952260" lon="-5.4631680">
        <ele>1205.0</ele>
        <time>2021-08-21T06:42:44Z</time>
      </trkpt>
      <trkpt lat="42.7952520" lon="-5.4631710">
        <ele>1206.0</ele>
        <time>2021-08-21T06:42:45Z</time>
      </trkpt>
      <trkpt lat="42.7952770" lon="-5.4631730">
        <ele>1206.0</ele>
        <time>2021-08-21T06:42:46Z</time>
      </trkpt>
      <trkpt lat="42.7953030" lon="-5.4631760">
        <ele>1206.0</ele>
        <time>2021-08-21T06:42:47Z</time>
      </trkpt>
      <trkpt lat="42.7953290" lon="-5.4631780">
        <ele>1206.0</ele>
        <time>2021-08-21T06:42:48Z</time>
      </trkpt>
      <trkpt lat="42.7953530" lon="-5.4631780">
        <ele>1206.0</ele>
        <time>2021-08-21T06:42:49Z</time>
      </trkpt>
      <trkpt lat="42.7953810" lon="-5.4631750">
        <ele>1206.0</ele>
        <time>2021-08-21T06:42:50Z</time>
      </trkpt>
      <trkpt lat="42.7954180" lon="-5.4631750">
        <ele>1206.0</ele>
        <time>2021-08-21T06:42:51Z</time>
      </trkpt>
      <trkpt lat="42.7954300" lon="-5.4631750">
        <ele>1206.0</ele>
        <time>2021-08-21T06:42:52Z</time>
      </trkpt>
      <trkpt lat="42.7954700" lon="-5.4631740">
        <ele>1206.0</ele>
        <time>2021-08-21T06:42:53Z</time>
      </trkpt>
      <trkpt lat="42.7954830" lon="-5.4631740">
        <ele>1206.0</ele>
        <time>2021-08-21T06:42:54Z</time>
      </trkpt>
      <trkpt lat="42.7955090" lon="-5.4631720">
        <ele>1206.0</ele>
        <time>2021-08-21T06:42:55Z</time>
      </trkpt>
      <trkpt lat="42.7955350" lon="-5.4631700">
        <ele>1206.0</ele>
        <time>2021-08-21T06:42:56Z</time>
      </trkpt>
      <trkpt lat="42.7955630" lon="-5.4631700">
        <ele>1206.0</ele>
        <time>2021-08-21T06:42:57Z</time>
      </trkpt>
      <trkpt lat="42.7955870" lon="-5.4631690">
        <ele>1206.0</ele>
        <time>2021-08-21T06:42:58Z</time>
      </trkpt>
      <trkpt lat="42.7956110" lon="-5.4631670">
        <ele>1206.0</ele>
        <time>2021-08-21T06:42:59Z</time>
      </trkpt>
      <trkpt lat="42.7956460" lon="-5.4631630">
        <ele>1206.0</ele>
        <time>2021-08-21T06:43:00Z</time>
      </trkpt>
      <trkpt lat="42.7956580" lon="-5.4631610">
        <ele>1206.0</ele>
        <time>2021-08-21T06:43:01Z</time>
      </trkpt>
      <trkpt lat="42.7956840" lon="-5.4631590">
        <ele>1206.0</ele>
        <time>2021-08-21T06:43:02Z</time>
      </trkpt>
      <trkpt lat="42.7957100" lon="-5.4631570">
        <ele>1206.0</ele>
        <time>2021-08-21T06:43:03Z</time>
      </trkpt>
      <trkpt lat="42.7957400" lon="-5.4631560">
        <ele>1206.0</ele>
        <time>2021-08-21T06:43:04Z</time>
      </trkpt>
      <trkpt lat="42.7957690" lon="-5.4631560">
        <ele>1206.0</ele>
        <time>2021-08-21T06:43:05Z</time>
      </trkpt>
      <trkpt lat="42.7957980" lon="-5.4631510">
        <ele>1206.0</ele>
        <time>2021-08-21T06:43:06Z</time>
      </trkpt>
      <trkpt lat="42.7958240" lon="-5.4631480">
        <ele>1206.0</ele>
        <time>2021-08-21T06:43:07Z</time>
      </trkpt>
      <trkpt lat="42.7958240" lon="-5.4631480">
        <ele>1206.0</ele>
        <time>2021-08-21T06:43:08Z</time>
      </trkpt>
      <trkpt lat="42.7958920" lon="-5.4631410">
        <ele>1206.0</ele>
        <time>2021-08-21T06:43:09Z</time>
      </trkpt>
      <trkpt lat="42.7959060" lon="-5.4631400">
        <ele>1206.0</ele>
        <time>2021-08-21T06:43:10Z</time>
      </trkpt>
      <trkpt lat="42.7959320" lon="-5.4631370">
        <ele>1206.0</ele>
        <time>2021-08-21T06:43:11Z</time>
      </trkpt>
      <trkpt lat="42.7959720" lon="-5.4631320">
        <ele>1206.0</ele>
        <time>2021-08-21T06:43:12Z</time>
      </trkpt>
      <trkpt lat="42.7959860" lon="-5.4631290">
        <ele>1206.0</ele>
        <time>2021-08-21T06:43:13Z</time>
      </trkpt>
      <trkpt lat="42.7960120" lon="-5.4631240">
        <ele>1206.0</ele>
        <time>2021-08-21T06:43:14Z</time>
      </trkpt>
      <trkpt lat="42.7960380" lon="-5.4631160">
        <ele>1206.0</ele>
        <time>2021-08-21T06:43:15Z</time>
      </trkpt>
      <trkpt lat="42.7960630" lon="-5.4631110">
        <ele>1206.0</ele>
        <time>2021-08-21T06:43:16Z</time>
      </trkpt>
      <trkpt lat="42.7960860" lon="-5.4631030">
        <ele>1206.0</ele>
        <time>2021-08-21T06:43:17Z</time>
      </trkpt>
      <trkpt lat="42.7961110" lon="-5.4630970">
        <ele>1206.0</ele>
        <time>2021-08-21T06:43:18Z</time>
      </trkpt>
      <trkpt lat="42.7961500" lon="-5.4630890">
        <ele>1206.0</ele>
        <time>2021-08-21T06:43:19Z</time>
      </trkpt>
      <trkpt lat="42.7961640" lon="-5.4630860">
        <ele>1206.0</ele>
        <time>2021-08-21T06:43:20Z</time>
      </trkpt>
      <trkpt lat="42.7961900" lon="-5.4630800">
        <ele>1206.0</ele>
        <time>2021-08-21T06:43:21Z</time>
      </trkpt>
      <trkpt lat="42.7962190" lon="-5.4630720">
        <ele>1206.0</ele>
        <time>2021-08-21T06:43:22Z</time>
      </trkpt>
      <trkpt lat="42.7962460" lon="-5.4630620">
        <ele>1206.0</ele>
        <time>2021-08-21T06:43:23Z</time>
      </trkpt>
      <trkpt lat="42.7962710" lon="-5.4630510">
        <ele>1206.0</ele>
        <time>2021-08-21T06:43:24Z</time>
      </trkpt>
      <trkpt lat="42.7963070" lon="-5.4630400">
        <ele>1206.0</ele>
        <time>2021-08-21T06:43:25Z</time>
      </trkpt>
      <trkpt lat="42.7963190" lon="-5.4630360">
        <ele>1206.0</ele>
        <time>2021-08-21T06:43:26Z</time>
      </trkpt>
      <trkpt lat="42.7963610" lon="-5.4630270">
        <ele>1206.0</ele>
        <time>2021-08-21T06:43:27Z</time>
      </trkpt>
      <trkpt lat="42.7963750" lon="-5.4630240">
        <ele>1206.0</ele>
        <time>2021-08-21T06:43:28Z</time>
      </trkpt>
      <trkpt lat="42.7964190" lon="-5.4630160">
        <ele>1206.0</ele>
        <time>2021-08-21T06:43:29Z</time>
      </trkpt>
      <trkpt lat="42.7964330" lon="-5.4630130">
        <ele>1206.0</ele>
        <time>2021-08-21T06:43:30Z</time>
      </trkpt>
      <trkpt lat="42.7964740" lon="-5.4630030">
        <ele>1206.0</ele>
        <time>2021-08-21T06:43:31Z</time>
      </trkpt>
      <trkpt lat="42.7964880" lon="-5.4630000">
        <ele>1207.0</ele>
        <time>2021-08-21T06:43:32Z</time>
      </trkpt>
      <trkpt lat="42.7965160" lon="-5.4629970">
        <ele>1207.0</ele>
        <time>2021-08-21T06:43:33Z</time>
      </trkpt>
      <trkpt lat="42.7965540" lon="-5.4629920">
        <ele>1207.0</ele>
        <time>2021-08-21T06:43:34Z</time>
      </trkpt>
      <trkpt lat="42.7965660" lon="-5.4629880">
        <ele>1207.0</ele>
        <time>2021-08-21T06:43:35Z</time>
      </trkpt>
      <trkpt lat="42.7966010" lon="-5.4629790">
        <ele>1207.0</ele>
        <time>2021-08-21T06:43:36Z</time>
      </trkpt>
      <trkpt lat="42.7966130" lon="-5.4629760">
        <ele>1207.0</ele>
        <time>2021-08-21T06:43:37Z</time>
      </trkpt>
      <trkpt lat="42.7966360" lon="-5.4629690">
        <ele>1207.0</ele>
        <time>2021-08-21T06:43:38Z</time>
      </trkpt>
      <trkpt lat="42.7966360" lon="-5.4629690">
        <ele>1207.0</ele>
        <time>2021-08-21T06:43:39Z</time>
      </trkpt>
      <trkpt lat="42.7966860" lon="-5.4629580">
        <ele>1207.0</ele>
        <time>2021-08-21T06:43:40Z</time>
      </trkpt>
      <trkpt lat="42.7967120" lon="-5.4629520">
        <ele>1207.0</ele>
        <time>2021-08-21T06:43:41Z</time>
      </trkpt>
      <trkpt lat="42.7967350" lon="-5.4629450">
        <ele>1208.0</ele>
        <time>2021-08-21T06:43:42Z</time>
      </trkpt>
      <trkpt lat="42.7967590" lon="-5.4629410">
        <ele>1208.0</ele>
        <time>2021-08-21T06:43:43Z</time>
      </trkpt>
      <trkpt lat="42.7967830" lon="-5.4629350">
        <ele>1208.0</ele>
        <time>2021-08-21T06:43:44Z</time>
      </trkpt>
      <trkpt lat="42.7968060" lon="-5.4629300">
        <ele>1208.0</ele>
        <time>2021-08-21T06:43:45Z</time>
      </trkpt>
      <trkpt lat="42.7968290" lon="-5.4629230">
        <ele>1208.0</ele>
        <time>2021-08-21T06:43:46Z</time>
      </trkpt>
      <trkpt lat="42.7968480" lon="-5.4629150">
        <ele>1208.0</ele>
        <time>2021-08-21T06:43:47Z</time>
      </trkpt>
      <trkpt lat="42.7968690" lon="-5.4629090">
        <ele>1208.0</ele>
        <time>2021-08-21T06:43:48Z</time>
      </trkpt>
      <trkpt lat="42.7968920" lon="-5.4629050">
        <ele>1208.0</ele>
        <time>2021-08-21T06:43:49Z</time>
      </trkpt>
      <trkpt lat="42.7969240" lon="-5.4628990">
        <ele>1208.0</ele>
        <time>2021-08-21T06:43:50Z</time>
      </trkpt>
      <trkpt lat="42.7969350" lon="-5.4628970">
        <ele>1208.0</ele>
        <time>2021-08-21T06:43:51Z</time>
      </trkpt>
      <trkpt lat="42.7969580" lon="-5.4628940">
        <ele>1208.0</ele>
        <time>2021-08-21T06:43:52Z</time>
      </trkpt>
      <trkpt lat="42.7969800" lon="-5.4628900">
        <ele>1209.0</ele>
        <time>2021-08-21T06:43:53Z</time>
      </trkpt>
      <trkpt lat="42.7970000" lon="-5.4628860">
        <ele>1209.0</ele>
        <time>2021-08-21T06:43:54Z</time>
      </trkpt>
      <trkpt lat="42.7970230" lon="-5.4628800">
        <ele>1209.0</ele>
        <time>2021-08-21T06:43:55Z</time>
      </trkpt>
      <trkpt lat="42.7970430" lon="-5.4628750">
        <ele>1209.0</ele>
        <time>2021-08-21T06:43:56Z</time>
      </trkpt>
      <trkpt lat="42.7970650" lon="-5.4628680">
        <ele>1209.0</ele>
        <time>2021-08-21T06:43:57Z</time>
      </trkpt>
      <trkpt lat="42.7970850" lon="-5.4628620">
        <ele>1209.0</ele>
        <time>2021-08-21T06:43:58Z</time>
      </trkpt>
      <trkpt lat="42.7971030" lon="-5.4628560">
        <ele>1209.0</ele>
        <time>2021-08-21T06:43:59Z</time>
      </trkpt>
      <trkpt lat="42.7971240" lon="-5.4628500">
        <ele>1209.0</ele>
        <time>2021-08-21T06:44:00Z</time>
      </trkpt>
      <trkpt lat="42.7971440" lon="-5.4628420">
        <ele>1210.0</ele>
        <time>2021-08-21T06:44:01Z</time>
      </trkpt>
      <trkpt lat="42.7971620" lon="-5.4628360">
        <ele>1210.0</ele>
        <time>2021-08-21T06:44:02Z</time>
      </trkpt>
      <trkpt lat="42.7971830" lon="-5.4628280">
        <ele>1210.0</ele>
        <time>2021-08-21T06:44:03Z</time>
      </trkpt>
      <trkpt lat="42.7972030" lon="-5.4628210">
        <ele>1210.0</ele>
        <time>2021-08-21T06:44:04Z</time>
      </trkpt>
      <trkpt lat="42.7972240" lon="-5.4628130">
        <ele>1210.0</ele>
        <time>2021-08-21T06:44:05Z</time>
      </trkpt>
      <trkpt lat="42.7972430" lon="-5.4628060">
        <ele>1210.0</ele>
        <time>2021-08-21T06:44:06Z</time>
      </trkpt>
      <trkpt lat="42.7972610" lon="-5.4627960">
        <ele>1210.0</ele>
        <time>2021-08-21T06:44:07Z</time>
      </trkpt>
      <trkpt lat="42.7972790" lon="-5.4627850">
        <ele>1211.0</ele>
        <time>2021-08-21T06:44:08Z</time>
      </trkpt>
      <trkpt lat="42.7973070" lon="-5.4627690">
        <ele>1211.0</ele>
        <time>2021-08-21T06:44:09Z</time>
      </trkpt>
      <trkpt lat="42.7973160" lon="-5.4627630">
        <ele>1211.0</ele>
        <time>2021-08-21T06:44:10Z</time>
      </trkpt>
      <trkpt lat="42.7973330" lon="-5.4627520">
        <ele>1211.0</ele>
        <time>2021-08-21T06:44:11Z</time>
      </trkpt>
      <trkpt lat="42.7973330" lon="-5.4627520">
        <ele>1212.0</ele>
        <time>2021-08-21T06:44:12Z</time>
      </trkpt>
      <trkpt lat="42.7973630" lon="-5.4627290">
        <ele>1212.0</ele>
        <time>2021-08-21T06:44:13Z</time>
      </trkpt>
      <trkpt lat="42.7973800" lon="-5.4627190">
        <ele>1212.0</ele>
        <time>2021-08-21T06:44:14Z</time>
      </trkpt>
      <trkpt lat="42.7973800" lon="-5.4627190">
        <ele>1212.0</ele>
        <time>2021-08-21T06:44:15Z</time>
      </trkpt>
      <trkpt lat="42.7974090" lon="-5.4627010">
        <ele>1212.0</ele>
        <time>2021-08-21T06:44:16Z</time>
      </trkpt>
      <trkpt lat="42.7974090" lon="-5.4627010">
        <ele>1212.0</ele>
        <time>2021-08-21T06:44:17Z</time>
      </trkpt>
      <trkpt lat="42.7974400" lon="-5.4626850">
        <ele>1213.0</ele>
        <time>2021-08-21T06:44:18Z</time>
      </trkpt>
      <trkpt lat="42.7974400" lon="-5.4626850">
        <ele>1213.0</ele>
        <time>2021-08-21T06:44:19Z</time>
      </trkpt>
      <trkpt lat="42.7974680" lon="-5.4626680">
        <ele>1213.0</ele>
        <time>2021-08-21T06:44:20Z</time>
      </trkpt>
      <trkpt lat="42.7974680" lon="-5.4626680">
        <ele>1213.0</ele>
        <time>2021-08-21T06:44:21Z</time>
      </trkpt>
      <trkpt lat="42.7974940" lon="-5.4626510">
        <ele>1213.0</ele>
        <time>2021-08-21T06:44:22Z</time>
      </trkpt>
      <trkpt lat="42.7974940" lon="-5.4626510">
        <ele>1214.0</ele>
        <time>2021-08-21T06:44:23Z</time>
      </trkpt>
      <trkpt lat="42.7975220" lon="-5.4626370">
        <ele>1214.0</ele>
        <time>2021-08-21T06:44:24Z</time>
      </trkpt>
      <trkpt lat="42.7975220" lon="-5.4626370">
        <ele>1214.0</ele>
        <time>2021-08-21T06:44:25Z</time>
      </trkpt>
      <trkpt lat="42.7975490" lon="-5.4626250">
        <ele>1214.0</ele>
        <time>2021-08-21T06:44:26Z</time>
      </trkpt>
      <trkpt lat="42.7975490" lon="-5.4626250">
        <ele>1214.0</ele>
        <time>2021-08-21T06:44:27Z</time>
      </trkpt>
      <trkpt lat="42.7975770" lon="-5.4626200">
        <ele>1214.0</ele>
        <time>2021-08-21T06:44:28Z</time>
      </trkpt>
      <trkpt lat="42.7975770" lon="-5.4626200">
        <ele>1215.0</ele>
        <time>2021-08-21T06:44:29Z</time>
      </trkpt>
      <trkpt lat="42.7976050" lon="-5.4626080">
        <ele>1215.0</ele>
        <time>2021-08-21T06:44:30Z</time>
      </trkpt>
      <trkpt lat="42.7976050" lon="-5.4626080">
        <ele>1215.0</ele>
        <time>2021-08-21T06:44:31Z</time>
      </trkpt>
      <trkpt lat="42.7976340" lon="-5.4625890">
        <ele>1215.0</ele>
        <time>2021-08-21T06:44:32Z</time>
      </trkpt>
      <trkpt lat="42.7976520" lon="-5.4625790">
        <ele>1215.0</ele>
        <time>2021-08-21T06:44:33Z</time>
      </trkpt>
      <trkpt lat="42.7976700" lon="-5.4625690">
        <ele>1216.0</ele>
        <time>2021-08-21T06:44:34Z</time>
      </trkpt>
      <trkpt lat="42.7976900" lon="-5.4625610">
        <ele>1216.0</ele>
        <time>2021-08-21T06:44:35Z</time>
      </trkpt>
      <trkpt lat="42.7977080" lon="-5.4625520">
        <ele>1216.0</ele>
        <time>2021-08-21T06:44:36Z</time>
      </trkpt>
      <trkpt lat="42.7977270" lon="-5.4625430">
        <ele>1216.0</ele>
        <time>2021-08-21T06:44:37Z</time>
      </trkpt>
      <trkpt lat="42.7977470" lon="-5.4625350">
        <ele>1216.0</ele>
        <time>2021-08-21T06:44:38Z</time>
      </trkpt>
      <trkpt lat="42.7977660" lon="-5.4625280">
        <ele>1216.0</ele>
        <time>2021-08-21T06:44:39Z</time>
      </trkpt>
      <trkpt lat="42.7977860" lon="-5.4625210">
        <ele>1217.0</ele>
        <time>2021-08-21T06:44:40Z</time>
      </trkpt>
      <trkpt lat="42.7978040" lon="-5.4625150">
        <ele>1217.0</ele>
        <time>2021-08-21T06:44:41Z</time>
      </trkpt>
      <trkpt lat="42.7978240" lon="-5.4625100">
        <ele>1217.0</ele>
        <time>2021-08-21T06:44:42Z</time>
      </trkpt>
      <trkpt lat="42.7978430" lon="-5.4625040">
        <ele>1217.0</ele>
        <time>2021-08-21T06:44:43Z</time>
      </trkpt>
      <trkpt lat="42.7978630" lon="-5.4625010">
        <ele>1217.0</ele>
        <time>2021-08-21T06:44:44Z</time>
      </trkpt>
      <trkpt lat="42.7978830" lon="-5.4624970">
        <ele>1217.0</ele>
        <time>2021-08-21T06:44:45Z</time>
      </trkpt>
      <trkpt lat="42.7979030" lon="-5.4624940">
        <ele>1217.0</ele>
        <time>2021-08-21T06:44:46Z</time>
      </trkpt>
      <trkpt lat="42.7979230" lon="-5.4624920">
        <ele>1217.0</ele>
        <time>2021-08-21T06:44:47Z</time>
      </trkpt>
      <trkpt lat="42.7979430" lon="-5.4624920">
        <ele>1217.0</ele>
        <time>2021-08-21T06:44:48Z</time>
      </trkpt>
      <trkpt lat="42.7979620" lon="-5.4624930">
        <ele>1217.0</ele>
        <time>2021-08-21T06:44:49Z</time>
      </trkpt>
      <trkpt lat="42.7979830" lon="-5.4624930">
        <ele>1217.0</ele>
        <time>2021-08-21T06:44:50Z</time>
      </trkpt>
      <trkpt lat="42.7980010" lon="-5.4624930">
        <ele>1218.0</ele>
        <time>2021-08-21T06:44:51Z</time>
      </trkpt>
      <trkpt lat="42.7980220" lon="-5.4624940">
        <ele>1218.0</ele>
        <time>2021-08-21T06:44:52Z</time>
      </trkpt>
      <trkpt lat="42.7980440" lon="-5.4624970">
        <ele>1218.0</ele>
        <time>2021-08-21T06:44:53Z</time>
      </trkpt>
      <trkpt lat="42.7980640" lon="-5.4624970">
        <ele>1218.0</ele>
        <time>2021-08-21T06:44:54Z</time>
      </trkpt>
      <trkpt lat="42.7980830" lon="-5.4624970">
        <ele>1219.0</ele>
        <time>2021-08-21T06:44:55Z</time>
      </trkpt>
      <trkpt lat="42.7980830" lon="-5.4624970">
        <ele>1219.0</ele>
        <time>2021-08-21T06:44:56Z</time>
      </trkpt>
      <trkpt lat="42.7981180" lon="-5.4624990">
        <ele>1219.0</ele>
        <time>2021-08-21T06:44:57Z</time>
      </trkpt>
      <trkpt lat="42.7981380" lon="-5.4625000">
        <ele>1219.0</ele>
        <time>2021-08-21T06:44:58Z</time>
      </trkpt>
      <trkpt lat="42.7981590" lon="-5.4625020">
        <ele>1219.0</ele>
        <time>2021-08-21T06:44:59Z</time>
      </trkpt>
      <trkpt lat="42.7981780" lon="-5.4625030">
        <ele>1220.0</ele>
        <time>2021-08-21T06:45:00Z</time>
      </trkpt>
      <trkpt lat="42.7981780" lon="-5.4625030">
        <ele>1220.0</ele>
        <time>2021-08-21T06:45:01Z</time>
      </trkpt>
      <trkpt lat="42.7982140" lon="-5.4625020">
        <ele>1220.0</ele>
        <time>2021-08-21T06:45:02Z</time>
      </trkpt>
      <trkpt lat="42.7982340" lon="-5.4625030">
        <ele>1220.0</ele>
        <time>2021-08-21T06:45:03Z</time>
      </trkpt>
      <trkpt lat="42.7982530" lon="-5.4625020">
        <ele>1221.0</ele>
        <time>2021-08-21T06:45:04Z</time>
      </trkpt>
      <trkpt lat="42.7982750" lon="-5.4625030">
        <ele>1221.0</ele>
        <time>2021-08-21T06:45:05Z</time>
      </trkpt>
      <trkpt lat="42.7982920" lon="-5.4625070">
        <ele>1221.0</ele>
        <time>2021-08-21T06:45:06Z</time>
      </trkpt>
      <trkpt lat="42.7982920" lon="-5.4625070">
        <ele>1221.0</ele>
        <time>2021-08-21T06:45:07Z</time>
      </trkpt>
      <trkpt lat="42.7983300" lon="-5.4625120">
        <ele>1221.0</ele>
        <time>2021-08-21T06:45:08Z</time>
      </trkpt>
      <trkpt lat="42.7983520" lon="-5.4625130">
        <ele>1222.0</ele>
        <time>2021-08-21T06:45:09Z</time>
      </trkpt>
      <trkpt lat="42.7983720" lon="-5.4625140">
        <ele>1222.0</ele>
        <time>2021-08-21T06:45:10Z</time>
      </trkpt>
      <trkpt lat="42.7983940" lon="-5.4625130">
        <ele>1222.0</ele>
        <time>2021-08-21T06:45:11Z</time>
      </trkpt>
      <trkpt lat="42.7984170" lon="-5.4625140">
        <ele>1222.0</ele>
        <time>2021-08-21T06:45:12Z</time>
      </trkpt>
      <trkpt lat="42.7984370" lon="-5.4625150">
        <ele>1222.0</ele>
        <time>2021-08-21T06:45:13Z</time>
      </trkpt>
      <trkpt lat="42.7984610" lon="-5.4625140">
        <ele>1223.0</ele>
        <time>2021-08-21T06:45:14Z</time>
      </trkpt>
      <trkpt lat="42.7984830" lon="-5.4625130">
        <ele>1223.0</ele>
        <time>2021-08-21T06:45:15Z</time>
      </trkpt>
      <trkpt lat="42.7985060" lon="-5.4625110">
        <ele>1223.0</ele>
        <time>2021-08-21T06:45:16Z</time>
      </trkpt>
      <trkpt lat="42.7985250" lon="-5.4625100">
        <ele>1223.0</ele>
        <time>2021-08-21T06:45:17Z</time>
      </trkpt>
      <trkpt lat="42.7985480" lon="-5.4625080">
        <ele>1224.0</ele>
        <time>2021-08-21T06:45:18Z</time>
      </trkpt>
      <trkpt lat="42.7985670" lon="-5.4625070">
        <ele>1224.0</ele>
        <time>2021-08-21T06:45:19Z</time>
      </trkpt>
      <trkpt lat="42.7985890" lon="-5.4625070">
        <ele>1224.0</ele>
        <time>2021-08-21T06:45:20Z</time>
      </trkpt>
      <trkpt lat="42.7986100" lon="-5.4625050">
        <ele>1224.0</ele>
        <time>2021-08-21T06:45:21Z</time>
      </trkpt>
      <trkpt lat="42.7986420" lon="-5.4625030">
        <ele>1224.0</ele>
        <time>2021-08-21T06:45:22Z</time>
      </trkpt>
      <trkpt lat="42.7986520" lon="-5.4625010">
        <ele>1224.0</ele>
        <time>2021-08-21T06:45:23Z</time>
      </trkpt>
      <trkpt lat="42.7986750" lon="-5.4625050">
        <ele>1224.0</ele>
        <time>2021-08-21T06:45:24Z</time>
      </trkpt>
      <trkpt lat="42.7986960" lon="-5.4625050">
        <ele>1224.0</ele>
        <time>2021-08-21T06:45:25Z</time>
      </trkpt>
      <trkpt lat="42.7987210" lon="-5.4625040">
        <ele>1224.0</ele>
        <time>2021-08-21T06:45:26Z</time>
      </trkpt>
      <trkpt lat="42.7987410" lon="-5.4625070">
        <ele>1225.0</ele>
        <time>2021-08-21T06:45:27Z</time>
      </trkpt>
      <trkpt lat="42.7987670" lon="-5.4625090">
        <ele>1225.0</ele>
        <time>2021-08-21T06:45:28Z</time>
      </trkpt>
      <trkpt lat="42.7988060" lon="-5.4625100">
        <ele>1225.0</ele>
        <time>2021-08-21T06:45:29Z</time>
      </trkpt>
      <trkpt lat="42.7988180" lon="-5.4625120">
        <ele>1225.0</ele>
        <time>2021-08-21T06:45:30Z</time>
      </trkpt>
      <trkpt lat="42.7988590" lon="-5.4625120">
        <ele>1225.0</ele>
        <time>2021-08-21T06:45:31Z</time>
      </trkpt>
      <trkpt lat="42.7988710" lon="-5.4625120">
        <ele>1226.0</ele>
        <time>2021-08-21T06:45:32Z</time>
      </trkpt>
      <trkpt lat="42.7988950" lon="-5.4625120">
        <ele>1226.0</ele>
        <time>2021-08-21T06:45:33Z</time>
      </trkpt>
      <trkpt lat="42.7989320" lon="-5.4625110">
        <ele>1226.0</ele>
        <time>2021-08-21T06:45:34Z</time>
      </trkpt>
      <trkpt lat="42.7989440" lon="-5.4625100">
        <ele>1226.0</ele>
        <time>2021-08-21T06:45:35Z</time>
      </trkpt>
      <trkpt lat="42.7989850" lon="-5.4625070">
        <ele>1226.0</ele>
        <time>2021-08-21T06:45:36Z</time>
      </trkpt>
      <trkpt lat="42.7989990" lon="-5.4625060">
        <ele>1226.0</ele>
        <time>2021-08-21T06:45:37Z</time>
      </trkpt>
      <trkpt lat="42.7990290" lon="-5.4625040">
        <ele>1227.0</ele>
        <time>2021-08-21T06:45:38Z</time>
      </trkpt>
      <trkpt lat="42.7990530" lon="-5.4625020">
        <ele>1227.0</ele>
        <time>2021-08-21T06:45:39Z</time>
      </trkpt>
      <trkpt lat="42.7990790" lon="-5.4625030">
        <ele>1227.0</ele>
        <time>2021-08-21T06:45:40Z</time>
      </trkpt>
      <trkpt lat="42.7991080" lon="-5.4625030">
        <ele>1227.0</ele>
        <time>2021-08-21T06:45:41Z</time>
      </trkpt>
      <trkpt lat="42.7991350" lon="-5.4625000">
        <ele>1227.0</ele>
        <time>2021-08-21T06:45:42Z</time>
      </trkpt>
      <trkpt lat="42.7991580" lon="-5.4624970">
        <ele>1227.0</ele>
        <time>2021-08-21T06:45:43Z</time>
      </trkpt>
      <trkpt lat="42.7991950" lon="-5.4624950">
        <ele>1227.0</ele>
        <time>2021-08-21T06:45:44Z</time>
      </trkpt>
      <trkpt lat="42.7992080" lon="-5.4624950">
        <ele>1227.0</ele>
        <time>2021-08-21T06:45:45Z</time>
      </trkpt>
      <trkpt lat="42.7992350" lon="-5.4624970">
        <ele>1227.0</ele>
        <time>2021-08-21T06:45:46Z</time>
      </trkpt>
      <trkpt lat="42.7992600" lon="-5.4624970">
        <ele>1227.0</ele>
        <time>2021-08-21T06:45:47Z</time>
      </trkpt>
      <trkpt lat="42.7992990" lon="-5.4624980">
        <ele>1227.0</ele>
        <time>2021-08-21T06:45:48Z</time>
      </trkpt>
      <trkpt lat="42.7993120" lon="-5.4624990">
        <ele>1228.0</ele>
        <time>2021-08-21T06:45:49Z</time>
      </trkpt>
      <trkpt lat="42.7993540" lon="-5.4625030">
        <ele>1228.0</ele>
        <time>2021-08-21T06:45:50Z</time>
      </trkpt>
      <trkpt lat="42.7993680" lon="-5.4625050">
        <ele>1228.0</ele>
        <time>2021-08-21T06:45:51Z</time>
      </trkpt>
      <trkpt lat="42.7993940" lon="-5.4625060">
        <ele>1228.0</ele>
        <time>2021-08-21T06:45:52Z</time>
      </trkpt>
      <trkpt lat="42.7994210" lon="-5.4625070">
        <ele>1228.0</ele>
        <time>2021-08-21T06:45:53Z</time>
      </trkpt>
      <trkpt lat="42.7994490" lon="-5.4625060">
        <ele>1228.0</ele>
        <time>2021-08-21T06:45:54Z</time>
      </trkpt>
      <trkpt lat="42.7994860" lon="-5.4625070">
        <ele>1228.0</ele>
        <time>2021-08-21T06:45:55Z</time>
      </trkpt>
      <trkpt lat="42.7994990" lon="-5.4625080">
        <ele>1228.0</ele>
        <time>2021-08-21T06:45:56Z</time>
      </trkpt>
      <trkpt lat="42.7995270" lon="-5.4625090">
        <ele>1229.0</ele>
        <time>2021-08-21T06:45:57Z</time>
      </trkpt>
      <trkpt lat="42.7995540" lon="-5.4625100">
        <ele>1229.0</ele>
        <time>2021-08-21T06:45:58Z</time>
      </trkpt>
      <trkpt lat="42.7995810" lon="-5.4625100">
        <ele>1229.0</ele>
        <time>2021-08-21T06:45:59Z</time>
      </trkpt>
      <trkpt lat="42.7996070" lon="-5.4625110">
        <ele>1229.0</ele>
        <time>2021-08-21T06:46:00Z</time>
      </trkpt>
      <trkpt lat="42.7996330" lon="-5.4625140">
        <ele>1229.0</ele>
        <time>2021-08-21T06:46:01Z</time>
      </trkpt>
      <trkpt lat="42.7996580" lon="-5.4625160">
        <ele>1229.0</ele>
        <time>2021-08-21T06:46:02Z</time>
      </trkpt>
      <trkpt lat="42.7996980" lon="-5.4625180">
        <ele>1229.0</ele>
        <time>2021-08-21T06:46:03Z</time>
      </trkpt>
      <trkpt lat="42.7997110" lon="-5.4625180">
        <ele>1229.0</ele>
        <time>2021-08-21T06:46:04Z</time>
      </trkpt>
      <trkpt lat="42.7997390" lon="-5.4625190">
        <ele>1229.0</ele>
        <time>2021-08-21T06:46:05Z</time>
      </trkpt>
      <trkpt lat="42.7997670" lon="-5.4625220">
        <ele>1229.0</ele>
        <time>2021-08-21T06:46:06Z</time>
      </trkpt>
      <trkpt lat="42.7998090" lon="-5.4625200">
        <ele>1229.0</ele>
        <time>2021-08-21T06:46:07Z</time>
      </trkpt>
      <trkpt lat="42.7998240" lon="-5.4625190">
        <ele>1229.0</ele>
        <time>2021-08-21T06:46:08Z</time>
      </trkpt>
      <trkpt lat="42.7998510" lon="-5.4625180">
        <ele>1229.0</ele>
        <time>2021-08-21T06:46:09Z</time>
      </trkpt>
      <trkpt lat="42.7998760" lon="-5.4625160">
        <ele>1229.0</ele>
        <time>2021-08-21T06:46:10Z</time>
      </trkpt>
      <trkpt lat="42.7999030" lon="-5.4625160">
        <ele>1229.0</ele>
        <time>2021-08-21T06:46:11Z</time>
      </trkpt>
      <trkpt lat="42.7999300" lon="-5.4625170">
        <ele>1229.0</ele>
        <time>2021-08-21T06:46:12Z</time>
      </trkpt>
      <trkpt lat="42.7999670" lon="-5.4625180">
        <ele>1229.0</ele>
        <time>2021-08-21T06:46:13Z</time>
      </trkpt>
      <trkpt lat="42.7999800" lon="-5.4625180">
        <ele>1229.0</ele>
        <time>2021-08-21T06:46:14Z</time>
      </trkpt>
      <trkpt lat="42.8000200" lon="-5.4625190">
        <ele>1229.0</ele>
        <time>2021-08-21T06:46:15Z</time>
      </trkpt>
      <trkpt lat="42.8000320" lon="-5.4625200">
        <ele>1229.0</ele>
        <time>2021-08-21T06:46:16Z</time>
      </trkpt>
      <trkpt lat="42.8000710" lon="-5.4625240">
        <ele>1229.0</ele>
        <time>2021-08-21T06:46:17Z</time>
      </trkpt>
      <trkpt lat="42.8000830" lon="-5.4625260">
        <ele>1229.0</ele>
        <time>2021-08-21T06:46:18Z</time>
      </trkpt>
      <trkpt lat="42.8001090" lon="-5.4625300">
        <ele>1229.0</ele>
        <time>2021-08-21T06:46:19Z</time>
      </trkpt>
      <trkpt lat="42.8001330" lon="-5.4625340">
        <ele>1229.0</ele>
        <time>2021-08-21T06:46:20Z</time>
      </trkpt>
      <trkpt lat="42.8001570" lon="-5.4625370">
        <ele>1229.0</ele>
        <time>2021-08-21T06:46:21Z</time>
      </trkpt>
      <trkpt lat="42.8001940" lon="-5.4625440">
        <ele>1229.0</ele>
        <time>2021-08-21T06:46:22Z</time>
      </trkpt>
      <trkpt lat="42.8002060" lon="-5.4625470">
        <ele>1229.0</ele>
        <time>2021-08-21T06:46:23Z</time>
      </trkpt>
      <trkpt lat="42.8002310" lon="-5.4625480">
        <ele>1229.0</ele>
        <time>2021-08-21T06:46:24Z</time>
      </trkpt>
      <trkpt lat="42.8002560" lon="-5.4625470">
        <ele>1229.0</ele>
        <time>2021-08-21T06:46:25Z</time>
      </trkpt>
      <trkpt lat="42.8002790" lon="-5.4625530">
        <ele>1229.0</ele>
        <time>2021-08-21T06:46:26Z</time>
      </trkpt>
      <trkpt lat="42.8002990" lon="-5.4625580">
        <ele>1229.0</ele>
        <time>2021-08-21T06:46:27Z</time>
      </trkpt>
      <trkpt lat="42.8003210" lon="-5.4625640">
        <ele>1229.0</ele>
        <time>2021-08-21T06:46:28Z</time>
      </trkpt>
      <trkpt lat="42.8003420" lon="-5.4625700">
        <ele>1229.0</ele>
        <time>2021-08-21T06:46:29Z</time>
      </trkpt>
      <trkpt lat="42.8003650" lon="-5.4625750">
        <ele>1229.0</ele>
        <time>2021-08-21T06:46:30Z</time>
      </trkpt>
      <trkpt lat="42.8003870" lon="-5.4625780">
        <ele>1229.0</ele>
        <time>2021-08-21T06:46:31Z</time>
      </trkpt>
      <trkpt lat="42.8004110" lon="-5.4625830">
        <ele>1229.0</ele>
        <time>2021-08-21T06:46:32Z</time>
      </trkpt>
      <trkpt lat="42.8004350" lon="-5.4625880">
        <ele>1229.0</ele>
        <time>2021-08-21T06:46:33Z</time>
      </trkpt>
      <trkpt lat="42.8004570" lon="-5.4625910">
        <ele>1229.0</ele>
        <time>2021-08-21T06:46:34Z</time>
      </trkpt>
      <trkpt lat="42.8004800" lon="-5.4625940">
        <ele>1229.0</ele>
        <time>2021-08-21T06:46:35Z</time>
      </trkpt>
      <trkpt lat="42.8005020" lon="-5.4625980">
        <ele>1229.0</ele>
        <time>2021-08-21T06:46:36Z</time>
      </trkpt>
      <trkpt lat="42.8005220" lon="-5.4626040">
        <ele>1229.0</ele>
        <time>2021-08-21T06:46:37Z</time>
      </trkpt>
      <trkpt lat="42.8005430" lon="-5.4626100">
        <ele>1229.0</ele>
        <time>2021-08-21T06:46:38Z</time>
      </trkpt>
      <trkpt lat="42.8005720" lon="-5.4626190">
        <ele>1229.0</ele>
        <time>2021-08-21T06:46:39Z</time>
      </trkpt>
      <trkpt lat="42.8005830" lon="-5.4626220">
        <ele>1229.0</ele>
        <time>2021-08-21T06:46:40Z</time>
      </trkpt>
      <trkpt lat="42.8006030" lon="-5.4626270">
        <ele>1229.0</ele>
        <time>2021-08-21T06:46:41Z</time>
      </trkpt>
      <trkpt lat="42.8006230" lon="-5.4626320">
        <ele>1229.0</ele>
        <time>2021-08-21T06:46:42Z</time>
      </trkpt>
      <trkpt lat="42.8006430" lon="-5.4626380">
        <ele>1229.0</ele>
        <time>2021-08-21T06:46:43Z</time>
      </trkpt>
      <trkpt lat="42.8006630" lon="-5.4626440">
        <ele>1229.0</ele>
        <time>2021-08-21T06:46:44Z</time>
      </trkpt>
      <trkpt lat="42.8006820" lon="-5.4626490">
        <ele>1229.0</ele>
        <time>2021-08-21T06:46:45Z</time>
      </trkpt>
      <trkpt lat="42.8007000" lon="-5.4626550">
        <ele>1229.0</ele>
        <time>2021-08-21T06:46:46Z</time>
      </trkpt>
      <trkpt lat="42.8007180" lon="-5.4626600">
        <ele>1229.0</ele>
        <time>2021-08-21T06:46:47Z</time>
      </trkpt>
      <trkpt lat="42.8007370" lon="-5.4626660">
        <ele>1229.0</ele>
        <time>2021-08-21T06:46:48Z</time>
      </trkpt>
      <trkpt lat="42.8007590" lon="-5.4626660">
        <ele>1229.0</ele>
        <time>2021-08-21T06:46:49Z</time>
      </trkpt>
      <trkpt lat="42.8007790" lon="-5.4626680">
        <ele>1229.0</ele>
        <time>2021-08-21T06:46:50Z</time>
      </trkpt>
      <trkpt lat="42.8008000" lon="-5.4626710">
        <ele>1229.0</ele>
        <time>2021-08-21T06:46:51Z</time>
      </trkpt>
      <trkpt lat="42.8008220" lon="-5.4626780">
        <ele>1229.0</ele>
        <time>2021-08-21T06:46:52Z</time>
      </trkpt>
      <trkpt lat="42.8008420" lon="-5.4626840">
        <ele>1229.0</ele>
        <time>2021-08-21T06:46:53Z</time>
      </trkpt>
      <trkpt lat="42.8008640" lon="-5.4626900">
        <ele>1229.0</ele>
        <time>2021-08-21T06:46:54Z</time>
      </trkpt>
      <trkpt lat="42.8008840" lon="-5.4626970">
        <ele>1230.0</ele>
        <time>2021-08-21T06:46:55Z</time>
      </trkpt>
      <trkpt lat="42.8009060" lon="-5.4627000">
        <ele>1230.0</ele>
        <time>2021-08-21T06:46:56Z</time>
      </trkpt>
      <trkpt lat="42.8009260" lon="-5.4627060">
        <ele>1230.0</ele>
        <time>2021-08-21T06:46:57Z</time>
      </trkpt>
      <trkpt lat="42.8009440" lon="-5.4627100">
        <ele>1230.0</ele>
        <time>2021-08-21T06:46:58Z</time>
      </trkpt>
      <trkpt lat="42.8009630" lon="-5.4627170">
        <ele>1230.0</ele>
        <time>2021-08-21T06:46:59Z</time>
      </trkpt>
      <trkpt lat="42.8009840" lon="-5.4627240">
        <ele>1230.0</ele>
        <time>2021-08-21T06:47:00Z</time>
      </trkpt>
      <trkpt lat="42.8010040" lon="-5.4627300">
        <ele>1230.0</ele>
        <time>2021-08-21T06:47:01Z</time>
      </trkpt>
      <trkpt lat="42.8010260" lon="-5.4627340">
        <ele>1231.0</ele>
        <time>2021-08-21T06:47:02Z</time>
      </trkpt>
      <trkpt lat="42.8010470" lon="-5.4627410">
        <ele>1231.0</ele>
        <time>2021-08-21T06:47:03Z</time>
      </trkpt>
      <trkpt lat="42.8010660" lon="-5.4627490">
        <ele>1231.0</ele>
        <time>2021-08-21T06:47:04Z</time>
      </trkpt>
      <trkpt lat="42.8010850" lon="-5.4627570">
        <ele>1231.0</ele>
        <time>2021-08-21T06:47:05Z</time>
      </trkpt>
      <trkpt lat="42.8011060" lon="-5.4627620">
        <ele>1231.0</ele>
        <time>2021-08-21T06:47:06Z</time>
      </trkpt>
      <trkpt lat="42.8011250" lon="-5.4627690">
        <ele>1231.0</ele>
        <time>2021-08-21T06:47:07Z</time>
      </trkpt>
      <trkpt lat="42.8011450" lon="-5.4627750">
        <ele>1232.0</ele>
        <time>2021-08-21T06:47:08Z</time>
      </trkpt>
      <trkpt lat="42.8011660" lon="-5.4627810">
        <ele>1232.0</ele>
        <time>2021-08-21T06:47:09Z</time>
      </trkpt>
      <trkpt lat="42.8011860" lon="-5.4627840">
        <ele>1232.0</ele>
        <time>2021-08-21T06:47:10Z</time>
      </trkpt>
      <trkpt lat="42.8012050" lon="-5.4627900">
        <ele>1232.0</ele>
        <time>2021-08-21T06:47:11Z</time>
      </trkpt>
      <trkpt lat="42.8012050" lon="-5.4627900">
        <ele>1232.0</ele>
        <time>2021-08-21T06:47:12Z</time>
      </trkpt>
      <trkpt lat="42.8012380" lon="-5.4628010">
        <ele>1232.0</ele>
        <time>2021-08-21T06:47:13Z</time>
      </trkpt>
      <trkpt lat="42.8012380" lon="-5.4628010">
        <ele>1232.0</ele>
        <time>2021-08-21T06:47:14Z</time>
      </trkpt>
      <trkpt lat="42.8012640" lon="-5.4628090">
        <ele>1232.0</ele>
        <time>2021-08-21T06:47:15Z</time>
      </trkpt>
      <trkpt lat="42.8012640" lon="-5.4628090">
        <ele>1233.0</ele>
        <time>2021-08-21T06:47:16Z</time>
      </trkpt>
      <trkpt lat="42.8012900" lon="-5.4628150">
        <ele>1233.0</ele>
        <time>2021-08-21T06:47:17Z</time>
      </trkpt>
      <trkpt lat="42.8013150" lon="-5.4628200">
        <ele>1233.0</ele>
        <time>2021-08-21T06:47:19Z</time>
      </trkpt>
      <trkpt lat="42.8013150" lon="-5.4628200">
        <ele>1233.0</ele>
        <time>2021-08-21T06:47:20Z</time>
      </trkpt>
      <trkpt lat="42.8013400" lon="-5.4628250">
        <ele>1233.0</ele>
        <time>2021-08-21T06:47:21Z</time>
      </trkpt>
      <trkpt lat="42.8013670" lon="-5.4628270">
        <ele>1234.0</ele>
        <time>2021-08-21T06:47:23Z</time>
      </trkpt>
      <trkpt lat="42.8013670" lon="-5.4628270">
        <ele>1234.0</ele>
        <time>2021-08-21T06:47:24Z</time>
      </trkpt>
      <trkpt lat="42.8013940" lon="-5.4628340">
        <ele>1234.0</ele>
        <time>2021-08-21T06:47:25Z</time>
      </trkpt>
      <trkpt lat="42.8014190" lon="-5.4628390">
        <ele>1234.0</ele>
        <time>2021-08-21T06:47:27Z</time>
      </trkpt>
      <trkpt lat="42.8014470" lon="-5.4628420">
        <ele>1234.0</ele>
        <time>2021-08-21T06:47:29Z</time>
      </trkpt>
      <trkpt lat="42.8014470" lon="-5.4628420">
        <ele>1235.0</ele>
        <time>2021-08-21T06:47:30Z</time>
      </trkpt>
      <trkpt lat="42.8014720" lon="-5.4628470">
        <ele>1235.0</ele>
        <time>2021-08-21T06:47:31Z</time>
      </trkpt>
      <trkpt lat="42.8014720" lon="-5.4628470">
        <ele>1235.0</ele>
        <time>2021-08-21T06:47:32Z</time>
      </trkpt>
      <trkpt lat="42.8014980" lon="-5.4628500">
        <ele>1235.0</ele>
        <time>2021-08-21T06:47:33Z</time>
      </trkpt>
      <trkpt lat="42.8014980" lon="-5.4628500">
        <ele>1235.0</ele>
        <time>2021-08-21T06:47:34Z</time>
      </trkpt>
      <trkpt lat="42.8015260" lon="-5.4628560">
        <ele>1236.0</ele>
        <time>2021-08-21T06:47:35Z</time>
      </trkpt>
      <trkpt lat="42.8015510" lon="-5.4628640">
        <ele>1236.0</ele>
        <time>2021-08-21T06:47:37Z</time>
      </trkpt>
      <trkpt lat="42.8015510" lon="-5.4628640">
        <ele>1236.0</ele>
        <time>2021-08-21T06:47:38Z</time>
      </trkpt>
      <trkpt lat="42.8015730" lon="-5.4628750">
        <ele>1236.0</ele>
        <time>2021-08-21T06:47:39Z</time>
      </trkpt>
      <trkpt lat="42.8015730" lon="-5.4628750">
        <ele>1236.0</ele>
        <time>2021-08-21T06:47:40Z</time>
      </trkpt>
      <trkpt lat="42.8015970" lon="-5.4628780">
        <ele>1236.0</ele>
        <time>2021-08-21T06:47:41Z</time>
      </trkpt>
      <trkpt lat="42.8015970" lon="-5.4628780">
        <ele>1237.0</ele>
        <time>2021-08-21T06:47:42Z</time>
      </trkpt>
      <trkpt lat="42.8016230" lon="-5.4628760">
        <ele>1237.0</ele>
        <time>2021-08-21T06:47:43Z</time>
      </trkpt>
      <trkpt lat="42.8016490" lon="-5.4628770">
        <ele>1237.0</ele>
        <time>2021-08-21T06:47:45Z</time>
      </trkpt>
      <trkpt lat="42.8016490" lon="-5.4628770">
        <ele>1238.0</ele>
        <time>2021-08-21T06:47:46Z</time>
      </trkpt>
      <trkpt lat="42.8016760" lon="-5.4628810">
        <ele>1238.0</ele>
        <time>2021-08-21T06:47:47Z</time>
      </trkpt>
      <trkpt lat="42.8016760" lon="-5.4628810">
        <ele>1238.0</ele>
        <time>2021-08-21T06:47:48Z</time>
      </trkpt>
      <trkpt lat="42.8017040" lon="-5.4628860">
        <ele>1238.0</ele>
        <time>2021-08-21T06:47:49Z</time>
      </trkpt>
      <trkpt lat="42.8017040" lon="-5.4628860">
        <ele>1239.0</ele>
        <time>2021-08-21T06:47:50Z</time>
      </trkpt>
      <trkpt lat="42.8017320" lon="-5.4628970">
        <ele>1239.0</ele>
        <time>2021-08-21T06:47:51Z</time>
      </trkpt>
      <trkpt lat="42.8017770" lon="-5.4629070">
        <ele>1239.0</ele>
        <time>2021-08-21T06:47:53Z</time>
      </trkpt>
      <trkpt lat="42.8017910" lon="-5.4629080">
        <ele>1239.0</ele>
        <time>2021-08-21T06:47:54Z</time>
      </trkpt>
      <trkpt lat="42.8018050" lon="-5.4629090">
        <ele>1240.0</ele>
        <time>2021-08-21T06:47:55Z</time>
      </trkpt>
      <trkpt lat="42.8018270" lon="-5.4629080">
        <ele>1240.0</ele>
        <time>2021-08-21T06:47:56Z</time>
      </trkpt>
      <trkpt lat="42.8018590" lon="-5.4629080">
        <ele>1240.0</ele>
        <time>2021-08-21T06:47:57Z</time>
      </trkpt>
      <trkpt lat="42.8018700" lon="-5.4629080">
        <ele>1240.0</ele>
        <time>2021-08-21T06:47:58Z</time>
      </trkpt>
      <trkpt lat="42.8018890" lon="-5.4629090">
        <ele>1240.0</ele>
        <time>2021-08-21T06:47:59Z</time>
      </trkpt>
      <trkpt lat="42.8019100" lon="-5.4629140">
        <ele>1241.0</ele>
        <time>2021-08-21T06:48:00Z</time>
      </trkpt>
      <trkpt lat="42.8019430" lon="-5.4629150">
        <ele>1241.0</ele>
        <time>2021-08-21T06:48:01Z</time>
      </trkpt>
      <trkpt lat="42.8019540" lon="-5.4629160">
        <ele>1241.0</ele>
        <time>2021-08-21T06:48:02Z</time>
      </trkpt>
      <trkpt lat="42.8019900" lon="-5.4629190">
        <ele>1241.0</ele>
        <time>2021-08-21T06:48:03Z</time>
      </trkpt>
      <trkpt lat="42.8020030" lon="-5.4629220">
        <ele>1241.0</ele>
        <time>2021-08-21T06:48:04Z</time>
      </trkpt>
      <trkpt lat="42.8020290" lon="-5.4629230">
        <ele>1241.0</ele>
        <time>2021-08-21T06:48:05Z</time>
      </trkpt>
      <trkpt lat="42.8020670" lon="-5.4629290">
        <ele>1241.0</ele>
        <time>2021-08-21T06:48:06Z</time>
      </trkpt>
      <trkpt lat="42.8020800" lon="-5.4629310">
        <ele>1242.0</ele>
        <time>2021-08-21T06:48:07Z</time>
      </trkpt>
      <trkpt lat="42.8021040" lon="-5.4629400">
        <ele>1242.0</ele>
        <time>2021-08-21T06:48:08Z</time>
      </trkpt>
      <trkpt lat="42.8021420" lon="-5.4629510">
        <ele>1242.0</ele>
        <time>2021-08-21T06:48:09Z</time>
      </trkpt>
      <trkpt lat="42.8021540" lon="-5.4629550">
        <ele>1242.0</ele>
        <time>2021-08-21T06:48:10Z</time>
      </trkpt>
      <trkpt lat="42.8021890" lon="-5.4629710">
        <ele>1242.0</ele>
        <time>2021-08-21T06:48:11Z</time>
      </trkpt>
      <trkpt lat="42.8021990" lon="-5.4629790">
        <ele>1242.0</ele>
        <time>2021-08-21T06:48:12Z</time>
      </trkpt>
      <trkpt lat="42.8022310" lon="-5.4630000">
        <ele>1242.0</ele>
        <time>2021-08-21T06:48:13Z</time>
      </trkpt>
      <trkpt lat="42.8022420" lon="-5.4630080">
        <ele>1242.0</ele>
        <time>2021-08-21T06:48:14Z</time>
      </trkpt>
      <trkpt lat="42.8022650" lon="-5.4630230">
        <ele>1242.0</ele>
        <time>2021-08-21T06:48:15Z</time>
      </trkpt>
      <trkpt lat="42.8023010" lon="-5.4630420">
        <ele>1242.0</ele>
        <time>2021-08-21T06:48:16Z</time>
      </trkpt>
      <trkpt lat="42.8023130" lon="-5.4630470">
        <ele>1243.0</ele>
        <time>2021-08-21T06:48:17Z</time>
      </trkpt>
      <trkpt lat="42.8023480" lon="-5.4630600">
        <ele>1243.0</ele>
        <time>2021-08-21T06:48:18Z</time>
      </trkpt>
      <trkpt lat="42.8023590" lon="-5.4630650">
        <ele>1243.0</ele>
        <time>2021-08-21T06:48:19Z</time>
      </trkpt>
      <trkpt lat="42.8023820" lon="-5.4630730">
        <ele>1243.0</ele>
        <time>2021-08-21T06:48:20Z</time>
      </trkpt>
      <trkpt lat="42.8024050" lon="-5.4630800">
        <ele>1243.0</ele>
        <time>2021-08-21T06:48:21Z</time>
      </trkpt>
      <trkpt lat="42.8024290" lon="-5.4630890">
        <ele>1243.0</ele>
        <time>2021-08-21T06:48:22Z</time>
      </trkpt>
      <trkpt lat="42.8024530" lon="-5.4630990">
        <ele>1243.0</ele>
        <time>2021-08-21T06:48:23Z</time>
      </trkpt>
      <trkpt lat="42.8024760" lon="-5.4631070">
        <ele>1243.0</ele>
        <time>2021-08-21T06:48:24Z</time>
      </trkpt>
      <trkpt lat="42.8025000" lon="-5.4631150">
        <ele>1243.0</ele>
        <time>2021-08-21T06:48:25Z</time>
      </trkpt>
      <trkpt lat="42.8025350" lon="-5.4631180">
        <ele>1243.0</ele>
        <time>2021-08-21T06:48:26Z</time>
      </trkpt>
      <trkpt lat="42.8025470" lon="-5.4631180">
        <ele>1244.0</ele>
        <time>2021-08-21T06:48:27Z</time>
      </trkpt>
      <trkpt lat="42.8025700" lon="-5.4631180">
        <ele>1244.0</ele>
        <time>2021-08-21T06:48:28Z</time>
      </trkpt>
      <trkpt lat="42.8026050" lon="-5.4631160">
        <ele>1244.0</ele>
        <time>2021-08-21T06:48:29Z</time>
      </trkpt>
      <trkpt lat="42.8026170" lon="-5.4631150">
        <ele>1244.0</ele>
        <time>2021-08-21T06:48:30Z</time>
      </trkpt>
      <trkpt lat="42.8026400" lon="-5.4631150">
        <ele>1244.0</ele>
        <time>2021-08-21T06:48:31Z</time>
      </trkpt>
      <trkpt lat="42.8026650" lon="-5.4631180">
        <ele>1244.0</ele>
        <time>2021-08-21T06:48:32Z</time>
      </trkpt>
      <trkpt lat="42.8026920" lon="-5.4631190">
        <ele>1244.0</ele>
        <time>2021-08-21T06:48:33Z</time>
      </trkpt>
      <trkpt lat="42.8027190" lon="-5.4631180">
        <ele>1244.0</ele>
        <time>2021-08-21T06:48:34Z</time>
      </trkpt>
      <trkpt lat="42.8027580" lon="-5.4631120">
        <ele>1244.0</ele>
        <time>2021-08-21T06:48:35Z</time>
      </trkpt>
      <trkpt lat="42.8027700" lon="-5.4631090">
        <ele>1244.0</ele>
        <time>2021-08-21T06:48:36Z</time>
      </trkpt>
      <trkpt lat="42.8027950" lon="-5.4631050">
        <ele>1244.0</ele>
        <time>2021-08-21T06:48:37Z</time>
      </trkpt>
      <trkpt lat="42.8028210" lon="-5.4631040">
        <ele>1244.0</ele>
        <time>2021-08-21T06:48:38Z</time>
      </trkpt>
      <trkpt lat="42.8028450" lon="-5.4631020">
        <ele>1244.0</ele>
        <time>2021-08-21T06:48:39Z</time>
      </trkpt>
      <trkpt lat="42.8028710" lon="-5.4630960">
        <ele>1244.0</ele>
        <time>2021-08-21T06:48:40Z</time>
      </trkpt>
      <trkpt lat="42.8028950" lon="-5.4630930">
        <ele>1245.0</ele>
        <time>2021-08-21T06:48:41Z</time>
      </trkpt>
      <trkpt lat="42.8029190" lon="-5.4630920">
        <ele>1245.0</ele>
        <time>2021-08-21T06:48:42Z</time>
      </trkpt>
      <trkpt lat="42.8029450" lon="-5.4630910">
        <ele>1244.0</ele>
        <time>2021-08-21T06:48:43Z</time>
      </trkpt>
      <trkpt lat="42.8029700" lon="-5.4630910">
        <ele>1244.0</ele>
        <time>2021-08-21T06:48:44Z</time>
      </trkpt>
      <trkpt lat="42.8029980" lon="-5.4630890">
        <ele>1244.0</ele>
        <time>2021-08-21T06:48:45Z</time>
      </trkpt>
      <trkpt lat="42.8030240" lon="-5.4630870">
        <ele>1245.0</ele>
        <time>2021-08-21T06:48:46Z</time>
      </trkpt>
      <trkpt lat="42.8030630" lon="-5.4630830">
        <ele>1245.0</ele>
        <time>2021-08-21T06:48:47Z</time>
      </trkpt>
      <trkpt lat="42.8030760" lon="-5.4630810">
        <ele>1245.0</ele>
        <time>2021-08-21T06:48:48Z</time>
      </trkpt>
      <trkpt lat="42.8031010" lon="-5.4630830">
        <ele>1245.0</ele>
        <time>2021-08-21T06:48:49Z</time>
      </trkpt>
      <trkpt lat="42.8031290" lon="-5.4630810">
        <ele>1245.0</ele>
        <time>2021-08-21T06:48:50Z</time>
      </trkpt>
      <trkpt lat="42.8031530" lon="-5.4630810">
        <ele>1245.0</ele>
        <time>2021-08-21T06:48:51Z</time>
      </trkpt>
      <trkpt lat="42.8031760" lon="-5.4630790">
        <ele>1245.0</ele>
        <time>2021-08-21T06:48:52Z</time>
      </trkpt>
      <trkpt lat="42.8032020" lon="-5.4630790">
        <ele>1245.0</ele>
        <time>2021-08-21T06:48:53Z</time>
      </trkpt>
      <trkpt lat="42.8032380" lon="-5.4630780">
        <ele>1245.0</ele>
        <time>2021-08-21T06:48:54Z</time>
      </trkpt>
      <trkpt lat="42.8032490" lon="-5.4630780">
        <ele>1245.0</ele>
        <time>2021-08-21T06:48:55Z</time>
      </trkpt>
      <trkpt lat="42.8032760" lon="-5.4630790">
        <ele>1245.0</ele>
        <time>2021-08-21T06:48:56Z</time>
      </trkpt>
      <trkpt lat="42.8033040" lon="-5.4630770">
        <ele>1246.0</ele>
        <time>2021-08-21T06:48:57Z</time>
      </trkpt>
      <trkpt lat="42.8033280" lon="-5.4630790">
        <ele>1246.0</ele>
        <time>2021-08-21T06:48:58Z</time>
      </trkpt>
      <trkpt lat="42.8033540" lon="-5.4630800">
        <ele>1246.0</ele>
        <time>2021-08-21T06:48:59Z</time>
      </trkpt>
      <trkpt lat="42.8033790" lon="-5.4630800">
        <ele>1246.0</ele>
        <time>2021-08-21T06:49:00Z</time>
      </trkpt>
      <trkpt lat="42.8034050" lon="-5.4630810">
        <ele>1246.0</ele>
        <time>2021-08-21T06:49:01Z</time>
      </trkpt>
      <trkpt lat="42.8034390" lon="-5.4630820">
        <ele>1246.0</ele>
        <time>2021-08-21T06:49:02Z</time>
      </trkpt>
      <trkpt lat="42.8034510" lon="-5.4630830">
        <ele>1246.0</ele>
        <time>2021-08-21T06:49:03Z</time>
      </trkpt>
      <trkpt lat="42.8034770" lon="-5.4630850">
        <ele>1247.0</ele>
        <time>2021-08-21T06:49:04Z</time>
      </trkpt>
      <trkpt lat="42.8035000" lon="-5.4630870">
        <ele>1247.0</ele>
        <time>2021-08-21T06:49:05Z</time>
      </trkpt>
      <trkpt lat="42.8035380" lon="-5.4630900">
        <ele>1247.0</ele>
        <time>2021-08-21T06:49:06Z</time>
      </trkpt>
      <trkpt lat="42.8035510" lon="-5.4630920">
        <ele>1247.0</ele>
        <time>2021-08-21T06:49:07Z</time>
      </trkpt>
      <trkpt lat="42.8035730" lon="-5.4630970">
        <ele>1247.0</ele>
        <time>2021-08-21T06:49:08Z</time>
      </trkpt>
      <trkpt lat="42.8035970" lon="-5.4631010">
        <ele>1247.0</ele>
        <time>2021-08-21T06:49:09Z</time>
      </trkpt>
      <trkpt lat="42.8036220" lon="-5.4631050">
        <ele>1247.0</ele>
        <time>2021-08-21T06:49:10Z</time>
      </trkpt>
      <trkpt lat="42.8036460" lon="-5.4631080">
        <ele>1247.0</ele>
        <time>2021-08-21T06:49:11Z</time>
      </trkpt>
      <trkpt lat="42.8036700" lon="-5.4631120">
        <ele>1247.0</ele>
        <time>2021-08-21T06:49:12Z</time>
      </trkpt>
      <trkpt lat="42.8037100" lon="-5.4631170">
        <ele>1247.0</ele>
        <time>2021-08-21T06:49:13Z</time>
      </trkpt>
      <trkpt lat="42.8037230" lon="-5.4631190">
        <ele>1247.0</ele>
        <time>2021-08-21T06:49:14Z</time>
      </trkpt>
      <trkpt lat="42.8037500" lon="-5.4631200">
        <ele>1247.0</ele>
        <time>2021-08-21T06:49:15Z</time>
      </trkpt>
      <trkpt lat="42.8037760" lon="-5.4631230">
        <ele>1247.0</ele>
        <time>2021-08-21T06:49:16Z</time>
      </trkpt>
      <trkpt lat="42.8038010" lon="-5.4631300">
        <ele>1247.0</ele>
        <time>2021-08-21T06:49:17Z</time>
      </trkpt>
      <trkpt lat="42.8038270" lon="-5.4631380">
        <ele>1247.0</ele>
        <time>2021-08-21T06:49:18Z</time>
      </trkpt>
      <trkpt lat="42.8038660" lon="-5.4631540">
        <ele>1247.0</ele>
        <time>2021-08-21T06:49:19Z</time>
      </trkpt>
      <trkpt lat="42.8038770" lon="-5.4631600">
        <ele>1248.0</ele>
        <time>2021-08-21T06:49:20Z</time>
      </trkpt>
      <trkpt lat="42.8038990" lon="-5.4631710">
        <ele>1248.0</ele>
        <time>2021-08-21T06:49:21Z</time>
      </trkpt>
      <trkpt lat="42.8039230" lon="-5.4631840">
        <ele>1248.0</ele>
        <time>2021-08-21T06:49:22Z</time>
      </trkpt>
      <trkpt lat="42.8039460" lon="-5.4631980">
        <ele>1248.0</ele>
        <time>2021-08-21T06:49:23Z</time>
      </trkpt>
      <trkpt lat="42.8039730" lon="-5.4632090">
        <ele>1248.0</ele>
        <time>2021-08-21T06:49:24Z</time>
      </trkpt>
      <trkpt lat="42.8039960" lon="-5.4632210">
        <ele>1248.0</ele>
        <time>2021-08-21T06:49:25Z</time>
      </trkpt>
      <trkpt lat="42.8040290" lon="-5.4632380">
        <ele>1248.0</ele>
        <time>2021-08-21T06:49:26Z</time>
      </trkpt>
      <trkpt lat="42.8040400" lon="-5.4632450">
        <ele>1249.0</ele>
        <time>2021-08-21T06:49:27Z</time>
      </trkpt>
      <trkpt lat="42.8040620" lon="-5.4632580">
        <ele>1249.0</ele>
        <time>2021-08-21T06:49:28Z</time>
      </trkpt>
      <trkpt lat="42.8040840" lon="-5.4632720">
        <ele>1249.0</ele>
        <time>2021-08-21T06:49:29Z</time>
      </trkpt>
      <trkpt lat="42.8041040" lon="-5.4632850">
        <ele>1249.0</ele>
        <time>2021-08-21T06:49:30Z</time>
      </trkpt>
      <trkpt lat="42.8041260" lon="-5.4632990">
        <ele>1249.0</ele>
        <time>2021-08-21T06:49:31Z</time>
      </trkpt>
      <trkpt lat="42.8041570" lon="-5.4633170">
        <ele>1249.0</ele>
        <time>2021-08-21T06:49:32Z</time>
      </trkpt>
      <trkpt lat="42.8041670" lon="-5.4633230">
        <ele>1249.0</ele>
        <time>2021-08-21T06:49:33Z</time>
      </trkpt>
      <trkpt lat="42.8041900" lon="-5.4633350">
        <ele>1250.0</ele>
        <time>2021-08-21T06:49:34Z</time>
      </trkpt>
      <trkpt lat="42.8042090" lon="-5.4633470">
        <ele>1250.0</ele>
        <time>2021-08-21T06:49:35Z</time>
      </trkpt>
      <trkpt lat="42.8042360" lon="-5.4633700">
        <ele>1250.0</ele>
        <time>2021-08-21T06:49:36Z</time>
      </trkpt>
      <trkpt lat="42.8042450" lon="-5.4633800">
        <ele>1250.0</ele>
        <time>2021-08-21T06:49:37Z</time>
      </trkpt>
      <trkpt lat="42.8042690" lon="-5.4633940">
        <ele>1250.0</ele>
        <time>2021-08-21T06:49:38Z</time>
      </trkpt>
      <trkpt lat="42.8042890" lon="-5.4634070">
        <ele>1250.0</ele>
        <time>2021-08-21T06:49:39Z</time>
      </trkpt>
      <trkpt lat="42.8043120" lon="-5.4634190">
        <ele>1251.0</ele>
        <time>2021-08-21T06:49:40Z</time>
      </trkpt>
      <trkpt lat="42.8043330" lon="-5.4634290">
        <ele>1251.0</ele>
        <time>2021-08-21T06:49:41Z</time>
      </trkpt>
      <trkpt lat="42.8043550" lon="-5.4634400">
        <ele>1251.0</ele>
        <time>2021-08-21T06:49:42Z</time>
      </trkpt>
      <trkpt lat="42.8043740" lon="-5.4634510">
        <ele>1251.0</ele>
        <time>2021-08-21T06:49:43Z</time>
      </trkpt>
      <trkpt lat="42.8043960" lon="-5.4634600">
        <ele>1251.0</ele>
        <time>2021-08-21T06:49:44Z</time>
      </trkpt>
      <trkpt lat="42.8044190" lon="-5.4634700">
        <ele>1251.0</ele>
        <time>2021-08-21T06:49:45Z</time>
      </trkpt>
      <trkpt lat="42.8044440" lon="-5.4634780">
        <ele>1252.0</ele>
        <time>2021-08-21T06:49:46Z</time>
      </trkpt>
      <trkpt lat="42.8044750" lon="-5.4634940">
        <ele>1252.0</ele>
        <time>2021-08-21T06:49:47Z</time>
      </trkpt>
      <trkpt lat="42.8044850" lon="-5.4635000">
        <ele>1252.0</ele>
        <time>2021-08-21T06:49:48Z</time>
      </trkpt>
      <trkpt lat="42.8045070" lon="-5.4635100">
        <ele>1252.0</ele>
        <time>2021-08-21T06:49:49Z</time>
      </trkpt>
      <trkpt lat="42.8045300" lon="-5.4635180">
        <ele>1252.0</ele>
        <time>2021-08-21T06:49:50Z</time>
      </trkpt>
      <trkpt lat="42.8045640" lon="-5.4635310">
        <ele>1252.0</ele>
        <time>2021-08-21T06:49:51Z</time>
      </trkpt>
      <trkpt lat="42.8045750" lon="-5.4635360">
        <ele>1252.0</ele>
        <time>2021-08-21T06:49:52Z</time>
      </trkpt>
      <trkpt lat="42.8046080" lon="-5.4635510">
        <ele>1252.0</ele>
        <time>2021-08-21T06:49:53Z</time>
      </trkpt>
      <trkpt lat="42.8046180" lon="-5.4635560">
        <ele>1252.0</ele>
        <time>2021-08-21T06:49:54Z</time>
      </trkpt>
      <trkpt lat="42.8046490" lon="-5.4635720">
        <ele>1252.0</ele>
        <time>2021-08-21T06:49:55Z</time>
      </trkpt>
      <trkpt lat="42.8046590" lon="-5.4635780">
        <ele>1253.0</ele>
        <time>2021-08-21T06:49:56Z</time>
      </trkpt>
      <trkpt lat="42.8046760" lon="-5.4635900">
        <ele>1253.0</ele>
        <time>2021-08-21T06:49:57Z</time>
      </trkpt>
      <trkpt lat="42.8046960" lon="-5.4636000">
        <ele>1253.0</ele>
        <time>2021-08-21T06:49:58Z</time>
      </trkpt>
      <trkpt lat="42.8047160" lon="-5.4636100">
        <ele>1253.0</ele>
        <time>2021-08-21T06:49:59Z</time>
      </trkpt>
      <trkpt lat="42.8047360" lon="-5.4636180">
        <ele>1254.0</ele>
        <time>2021-08-21T06:50:00Z</time>
      </trkpt>
      <trkpt lat="42.8047550" lon="-5.4636280">
        <ele>1254.0</ele>
        <time>2021-08-21T06:50:01Z</time>
      </trkpt>
      <trkpt lat="42.8047750" lon="-5.4636400">
        <ele>1254.0</ele>
        <time>2021-08-21T06:50:02Z</time>
      </trkpt>
      <trkpt lat="42.8047950" lon="-5.4636480">
        <ele>1254.0</ele>
        <time>2021-08-21T06:50:03Z</time>
      </trkpt>
      <trkpt lat="42.8048150" lon="-5.4636570">
        <ele>1254.0</ele>
        <time>2021-08-21T06:50:04Z</time>
      </trkpt>
      <trkpt lat="42.8048350" lon="-5.4636660">
        <ele>1254.0</ele>
        <time>2021-08-21T06:50:05Z</time>
      </trkpt>
      <trkpt lat="42.8048540" lon="-5.4636740">
        <ele>1254.0</ele>
        <time>2021-08-21T06:50:06Z</time>
      </trkpt>
      <trkpt lat="42.8048710" lon="-5.4636860">
        <ele>1255.0</ele>
        <time>2021-08-21T06:50:07Z</time>
      </trkpt>
      <trkpt lat="42.8048900" lon="-5.4636970">
        <ele>1255.0</ele>
        <time>2021-08-21T06:50:08Z</time>
      </trkpt>
      <trkpt lat="42.8049110" lon="-5.4637090">
        <ele>1255.0</ele>
        <time>2021-08-21T06:50:09Z</time>
      </trkpt>
      <trkpt lat="42.8049320" lon="-5.4637180">
        <ele>1255.0</ele>
        <time>2021-08-21T06:50:10Z</time>
      </trkpt>
      <trkpt lat="42.8049530" lon="-5.4637260">
        <ele>1255.0</ele>
        <time>2021-08-21T06:50:11Z</time>
      </trkpt>
      <trkpt lat="42.8049760" lon="-5.4637340">
        <ele>1255.0</ele>
        <time>2021-08-21T06:50:12Z</time>
      </trkpt>
      <trkpt lat="42.8050080" lon="-5.4637440">
        <ele>1255.0</ele>
        <time>2021-08-21T06:50:13Z</time>
      </trkpt>
      <trkpt lat="42.8050190" lon="-5.4637480">
        <ele>1255.0</ele>
        <time>2021-08-21T06:50:14Z</time>
      </trkpt>
      <trkpt lat="42.8050400" lon="-5.4637550">
        <ele>1255.0</ele>
        <time>2021-08-21T06:50:15Z</time>
      </trkpt>
      <trkpt lat="42.8050720" lon="-5.4637670">
        <ele>1255.0</ele>
        <time>2021-08-21T06:50:16Z</time>
      </trkpt>
      <trkpt lat="42.8050820" lon="-5.4637720">
        <ele>1256.0</ele>
        <time>2021-08-21T06:50:17Z</time>
      </trkpt>
      <trkpt lat="42.8051140" lon="-5.4637820">
        <ele>1256.0</ele>
        <time>2021-08-21T06:50:18Z</time>
      </trkpt>
      <trkpt lat="42.8051250" lon="-5.4637850">
        <ele>1256.0</ele>
        <time>2021-08-21T06:50:19Z</time>
      </trkpt>
      <trkpt lat="42.8051450" lon="-5.4637930">
        <ele>1256.0</ele>
        <time>2021-08-21T06:50:20Z</time>
      </trkpt>
      <trkpt lat="42.8051760" lon="-5.4638040">
        <ele>1256.0</ele>
        <time>2021-08-21T06:50:21Z</time>
      </trkpt>
      <trkpt lat="42.8051860" lon="-5.4638080">
        <ele>1256.0</ele>
        <time>2021-08-21T06:50:22Z</time>
      </trkpt>
      <trkpt lat="42.8052050" lon="-5.4638180">
        <ele>1257.0</ele>
        <time>2021-08-21T06:50:23Z</time>
      </trkpt>
      <trkpt lat="42.8052240" lon="-5.4638260">
        <ele>1257.0</ele>
        <time>2021-08-21T06:50:24Z</time>
      </trkpt>
      <trkpt lat="42.8052450" lon="-5.4638330">
        <ele>1257.0</ele>
        <time>2021-08-21T06:50:25Z</time>
      </trkpt>
      <trkpt lat="42.8052770" lon="-5.4638460">
        <ele>1257.0</ele>
        <time>2021-08-21T06:50:26Z</time>
      </trkpt>
      <trkpt lat="42.8052870" lon="-5.4638510">
        <ele>1258.0</ele>
        <time>2021-08-21T06:50:27Z</time>
      </trkpt>
      <trkpt lat="42.8053060" lon="-5.4638600">
        <ele>1258.0</ele>
        <time>2021-08-21T06:50:28Z</time>
      </trkpt>
      <trkpt lat="42.8053250" lon="-5.4638660">
        <ele>1258.0</ele>
        <time>2021-08-21T06:50:29Z</time>
      </trkpt>
      <trkpt lat="42.8053440" lon="-5.4638750">
        <ele>1258.0</ele>
        <time>2021-08-21T06:50:30Z</time>
      </trkpt>
      <trkpt lat="42.8053640" lon="-5.4638830">
        <ele>1258.0</ele>
        <time>2021-08-21T06:50:31Z</time>
      </trkpt>
      <trkpt lat="42.8053820" lon="-5.4638910">
        <ele>1258.0</ele>
        <time>2021-08-21T06:50:32Z</time>
      </trkpt>
      <trkpt lat="42.8054050" lon="-5.4638950">
        <ele>1258.0</ele>
        <time>2021-08-21T06:50:33Z</time>
      </trkpt>
      <trkpt lat="42.8054050" lon="-5.4638950">
        <ele>1258.0</ele>
        <time>2021-08-21T06:50:34Z</time>
      </trkpt>
      <trkpt lat="42.8054560" lon="-5.4639040">
        <ele>1258.0</ele>
        <time>2021-08-21T06:50:35Z</time>
      </trkpt>
      <trkpt lat="42.8054650" lon="-5.4639080">
        <ele>1259.0</ele>
        <time>2021-08-21T06:50:36Z</time>
      </trkpt>
      <trkpt lat="42.8054840" lon="-5.4639160">
        <ele>1259.0</ele>
        <time>2021-08-21T06:50:37Z</time>
      </trkpt>
      <trkpt lat="42.8055050" lon="-5.4639230">
        <ele>1259.0</ele>
        <time>2021-08-21T06:50:38Z</time>
      </trkpt>
      <trkpt lat="42.8055260" lon="-5.4639310">
        <ele>1259.0</ele>
        <time>2021-08-21T06:50:39Z</time>
      </trkpt>
      <trkpt lat="42.8055480" lon="-5.4639380">
        <ele>1260.0</ele>
        <time>2021-08-21T06:50:40Z</time>
      </trkpt>
      <trkpt lat="42.8055670" lon="-5.4639450">
        <ele>1260.0</ele>
        <time>2021-08-21T06:50:41Z</time>
      </trkpt>
      <trkpt lat="42.8055840" lon="-5.4639530">
        <ele>1260.0</ele>
        <time>2021-08-21T06:50:42Z</time>
      </trkpt>
      <trkpt lat="42.8056040" lon="-5.4639600">
        <ele>1260.0</ele>
        <time>2021-08-21T06:50:43Z</time>
      </trkpt>
      <trkpt lat="42.8056220" lon="-5.4639690">
        <ele>1260.0</ele>
        <time>2021-08-21T06:50:44Z</time>
      </trkpt>
      <trkpt lat="42.8056430" lon="-5.4639760">
        <ele>1261.0</ele>
        <time>2021-08-21T06:50:45Z</time>
      </trkpt>
      <trkpt lat="42.8056630" lon="-5.4639830">
        <ele>1261.0</ele>
        <time>2021-08-21T06:50:46Z</time>
      </trkpt>
      <trkpt lat="42.8056840" lon="-5.4639880">
        <ele>1261.0</ele>
        <time>2021-08-21T06:50:47Z</time>
      </trkpt>
      <trkpt lat="42.8057160" lon="-5.4639970">
        <ele>1261.0</ele>
        <time>2021-08-21T06:50:48Z</time>
      </trkpt>
      <trkpt lat="42.8057260" lon="-5.4640010">
        <ele>1261.0</ele>
        <time>2021-08-21T06:50:49Z</time>
      </trkpt>
      <trkpt lat="42.8057450" lon="-5.4640080">
        <ele>1261.0</ele>
        <time>2021-08-21T06:50:50Z</time>
      </trkpt>
      <trkpt lat="42.8057640" lon="-5.4640140">
        <ele>1261.0</ele>
        <time>2021-08-21T06:50:51Z</time>
      </trkpt>
      <trkpt lat="42.8057820" lon="-5.4640210">
        <ele>1262.0</ele>
        <time>2021-08-21T06:50:52Z</time>
      </trkpt>
      <trkpt lat="42.8058020" lon="-5.4640260">
        <ele>1262.0</ele>
        <time>2021-08-21T06:50:53Z</time>
      </trkpt>
      <trkpt lat="42.8058310" lon="-5.4640360">
        <ele>1262.0</ele>
        <time>2021-08-21T06:50:54Z</time>
      </trkpt>
      <trkpt lat="42.8058400" lon="-5.4640400">
        <ele>1262.0</ele>
        <time>2021-08-21T06:50:55Z</time>
      </trkpt>
      <trkpt lat="42.8058580" lon="-5.4640490">
        <ele>1262.0</ele>
        <time>2021-08-21T06:50:56Z</time>
      </trkpt>
      <trkpt lat="42.8058770" lon="-5.4640560">
        <ele>1262.0</ele>
        <time>2021-08-21T06:50:57Z</time>
      </trkpt>
      <trkpt lat="42.8058960" lon="-5.4640630">
        <ele>1262.0</ele>
        <time>2021-08-21T06:50:58Z</time>
      </trkpt>
      <trkpt lat="42.8059140" lon="-5.4640700">
        <ele>1263.0</ele>
        <time>2021-08-21T06:50:59Z</time>
      </trkpt>
      <trkpt lat="42.8059310" lon="-5.4640790">
        <ele>1263.0</ele>
        <time>2021-08-21T06:51:00Z</time>
      </trkpt>
      <trkpt lat="42.8059480" lon="-5.4640920">
        <ele>1263.0</ele>
        <time>2021-08-21T06:51:01Z</time>
      </trkpt>
      <trkpt lat="42.8059670" lon="-5.4641040">
        <ele>1264.0</ele>
        <time>2021-08-21T06:51:02Z</time>
      </trkpt>
      <trkpt lat="42.8059870" lon="-5.4641120">
        <ele>1264.0</ele>
        <time>2021-08-21T06:51:03Z</time>
      </trkpt>
      <trkpt lat="42.8060060" lon="-5.4641180">
        <ele>1264.0</ele>
        <time>2021-08-21T06:51:04Z</time>
      </trkpt>
      <trkpt lat="42.8060260" lon="-5.4641240">
        <ele>1264.0</ele>
        <time>2021-08-21T06:51:05Z</time>
      </trkpt>
      <trkpt lat="42.8060460" lon="-5.4641300">
        <ele>1264.0</ele>
        <time>2021-08-21T06:51:06Z</time>
      </trkpt>
      <trkpt lat="42.8060760" lon="-5.4641380">
        <ele>1264.0</ele>
        <time>2021-08-21T06:51:07Z</time>
      </trkpt>
      <trkpt lat="42.8060860" lon="-5.4641410">
        <ele>1265.0</ele>
        <time>2021-08-21T06:51:08Z</time>
      </trkpt>
      <trkpt lat="42.8061060" lon="-5.4641480">
        <ele>1265.0</ele>
        <time>2021-08-21T06:51:09Z</time>
      </trkpt>
      <trkpt lat="42.8061410" lon="-5.4641610">
        <ele>1265.0</ele>
        <time>2021-08-21T06:51:11Z</time>
      </trkpt>
      <trkpt lat="42.8061590" lon="-5.4641660">
        <ele>1266.0</ele>
        <time>2021-08-21T06:51:12Z</time>
      </trkpt>
      <trkpt lat="42.8061780" lon="-5.4641680">
        <ele>1266.0</ele>
        <time>2021-08-21T06:51:13Z</time>
      </trkpt>
      <trkpt lat="42.8061780" lon="-5.4641680">
        <ele>1266.0</ele>
        <time>2021-08-21T06:51:14Z</time>
      </trkpt>
      <trkpt lat="42.8062230" lon="-5.4641800">
        <ele>1266.0</ele>
        <time>2021-08-21T06:51:15Z</time>
      </trkpt>
      <trkpt lat="42.8062310" lon="-5.4641830">
        <ele>1266.0</ele>
        <time>2021-08-21T06:51:16Z</time>
      </trkpt>
      <trkpt lat="42.8062490" lon="-5.4641900">
        <ele>1266.0</ele>
        <time>2021-08-21T06:51:17Z</time>
      </trkpt>
      <trkpt lat="42.8062690" lon="-5.4641950">
        <ele>1267.0</ele>
        <time>2021-08-21T06:51:18Z</time>
      </trkpt>
      <trkpt lat="42.8062880" lon="-5.4641990">
        <ele>1267.0</ele>
        <time>2021-08-21T06:51:19Z</time>
      </trkpt>
      <trkpt lat="42.8063070" lon="-5.4642010">
        <ele>1267.0</ele>
        <time>2021-08-21T06:51:20Z</time>
      </trkpt>
      <trkpt lat="42.8063260" lon="-5.4642060">
        <ele>1267.0</ele>
        <time>2021-08-21T06:51:21Z</time>
      </trkpt>
      <trkpt lat="42.8063480" lon="-5.4642110">
        <ele>1267.0</ele>
        <time>2021-08-21T06:51:22Z</time>
      </trkpt>
      <trkpt lat="42.8063680" lon="-5.4642170">
        <ele>1267.0</ele>
        <time>2021-08-21T06:51:23Z</time>
      </trkpt>
      <trkpt lat="42.8063880" lon="-5.4642220">
        <ele>1268.0</ele>
        <time>2021-08-21T06:51:24Z</time>
      </trkpt>
      <trkpt lat="42.8064070" lon="-5.4642270">
        <ele>1268.0</ele>
        <time>2021-08-21T06:51:25Z</time>
      </trkpt>
      <trkpt lat="42.8064290" lon="-5.4642320">
        <ele>1268.0</ele>
        <time>2021-08-21T06:51:26Z</time>
      </trkpt>
      <trkpt lat="42.8064500" lon="-5.4642360">
        <ele>1268.0</ele>
        <time>2021-08-21T06:51:27Z</time>
      </trkpt>
      <trkpt lat="42.8064710" lon="-5.4642410">
        <ele>1268.0</ele>
        <time>2021-08-21T06:51:28Z</time>
      </trkpt>
      <trkpt lat="42.8064930" lon="-5.4642470">
        <ele>1268.0</ele>
        <time>2021-08-21T06:51:29Z</time>
      </trkpt>
      <trkpt lat="42.8065130" lon="-5.4642510">
        <ele>1268.0</ele>
        <time>2021-08-21T06:51:30Z</time>
      </trkpt>
      <trkpt lat="42.8065330" lon="-5.4642560">
        <ele>1269.0</ele>
        <time>2021-08-21T06:51:31Z</time>
      </trkpt>
      <trkpt lat="42.8065530" lon="-5.4642610">
        <ele>1269.0</ele>
        <time>2021-08-21T06:51:32Z</time>
      </trkpt>
      <trkpt lat="42.8065710" lon="-5.4642670">
        <ele>1269.0</ele>
        <time>2021-08-21T06:51:33Z</time>
      </trkpt>
      <trkpt lat="42.8065890" lon="-5.4642730">
        <ele>1269.0</ele>
        <time>2021-08-21T06:51:34Z</time>
      </trkpt>
      <trkpt lat="42.8066090" lon="-5.4642790">
        <ele>1269.0</ele>
        <time>2021-08-21T06:51:35Z</time>
      </trkpt>
      <trkpt lat="42.8066270" lon="-5.4642880">
        <ele>1270.0</ele>
        <time>2021-08-21T06:51:36Z</time>
      </trkpt>
      <trkpt lat="42.8066470" lon="-5.4642940">
        <ele>1270.0</ele>
        <time>2021-08-21T06:51:37Z</time>
      </trkpt>
      <trkpt lat="42.8066780" lon="-5.4642990">
        <ele>1270.0</ele>
        <time>2021-08-21T06:51:38Z</time>
      </trkpt>
      <trkpt lat="42.8066880" lon="-5.4643010">
        <ele>1270.0</ele>
        <time>2021-08-21T06:51:39Z</time>
      </trkpt>
      <trkpt lat="42.8067080" lon="-5.4643060">
        <ele>1270.0</ele>
        <time>2021-08-21T06:51:40Z</time>
      </trkpt>
      <trkpt lat="42.8067280" lon="-5.4643120">
        <ele>1270.0</ele>
        <time>2021-08-21T06:51:41Z</time>
      </trkpt>
      <trkpt lat="42.8067470" lon="-5.4643200">
        <ele>1271.0</ele>
        <time>2021-08-21T06:51:42Z</time>
      </trkpt>
      <trkpt lat="42.8067670" lon="-5.4643270">
        <ele>1271.0</ele>
        <time>2021-08-21T06:51:43Z</time>
      </trkpt>
      <trkpt lat="42.8067860" lon="-5.4643330">
        <ele>1271.0</ele>
        <time>2021-08-21T06:51:44Z</time>
      </trkpt>
      <trkpt lat="42.8068070" lon="-5.4643390">
        <ele>1271.0</ele>
        <time>2021-08-21T06:51:45Z</time>
      </trkpt>
      <trkpt lat="42.8068250" lon="-5.4643470">
        <ele>1272.0</ele>
        <time>2021-08-21T06:51:46Z</time>
      </trkpt>
      <trkpt lat="42.8068430" lon="-5.4643540">
        <ele>1272.0</ele>
        <time>2021-08-21T06:51:47Z</time>
      </trkpt>
      <trkpt lat="42.8068630" lon="-5.4643610">
        <ele>1272.0</ele>
        <time>2021-08-21T06:51:48Z</time>
      </trkpt>
      <trkpt lat="42.8068830" lon="-5.4643690">
        <ele>1272.0</ele>
        <time>2021-08-21T06:51:49Z</time>
      </trkpt>
      <trkpt lat="42.8069020" lon="-5.4643750">
        <ele>1272.0</ele>
        <time>2021-08-21T06:51:50Z</time>
      </trkpt>
      <trkpt lat="42.8069210" lon="-5.4643820">
        <ele>1273.0</ele>
        <time>2021-08-21T06:51:51Z</time>
      </trkpt>
      <trkpt lat="42.8069440" lon="-5.4643850">
        <ele>1273.0</ele>
        <time>2021-08-21T06:51:52Z</time>
      </trkpt>
      <trkpt lat="42.8069650" lon="-5.4643920">
        <ele>1273.0</ele>
        <time>2021-08-21T06:51:53Z</time>
      </trkpt>
      <trkpt lat="42.8069870" lon="-5.4643980">
        <ele>1273.0</ele>
        <time>2021-08-21T06:51:54Z</time>
      </trkpt>
      <trkpt lat="42.8070070" lon="-5.4644040">
        <ele>1273.0</ele>
        <time>2021-08-21T06:51:55Z</time>
      </trkpt>
      <trkpt lat="42.8070270" lon="-5.4644100">
        <ele>1273.0</ele>
        <time>2021-08-21T06:51:56Z</time>
      </trkpt>
      <trkpt lat="42.8070500" lon="-5.4644160">
        <ele>1274.0</ele>
        <time>2021-08-21T06:51:57Z</time>
      </trkpt>
      <trkpt lat="42.8070700" lon="-5.4644200">
        <ele>1274.0</ele>
        <time>2021-08-21T06:51:58Z</time>
      </trkpt>
      <trkpt lat="42.8070900" lon="-5.4644210">
        <ele>1274.0</ele>
        <time>2021-08-21T06:51:59Z</time>
      </trkpt>
      <trkpt lat="42.8071120" lon="-5.4644230">
        <ele>1274.0</ele>
        <time>2021-08-21T06:52:00Z</time>
      </trkpt>
      <trkpt lat="42.8071300" lon="-5.4644290">
        <ele>1274.0</ele>
        <time>2021-08-21T06:52:01Z</time>
      </trkpt>
      <trkpt lat="42.8071500" lon="-5.4644340">
        <ele>1275.0</ele>
        <time>2021-08-21T06:52:02Z</time>
      </trkpt>
      <trkpt lat="42.8071700" lon="-5.4644400">
        <ele>1275.0</ele>
        <time>2021-08-21T06:52:03Z</time>
      </trkpt>
      <trkpt lat="42.8071920" lon="-5.4644460">
        <ele>1275.0</ele>
        <time>2021-08-21T06:52:04Z</time>
      </trkpt>
      <trkpt lat="42.8072130" lon="-5.4644520">
        <ele>1275.0</ele>
        <time>2021-08-21T06:52:05Z</time>
      </trkpt>
      <trkpt lat="42.8072320" lon="-5.4644570">
        <ele>1275.0</ele>
        <time>2021-08-21T06:52:06Z</time>
      </trkpt>
      <trkpt lat="42.8072520" lon="-5.4644640">
        <ele>1275.0</ele>
        <time>2021-08-21T06:52:07Z</time>
      </trkpt>
      <trkpt lat="42.8072710" lon="-5.4644720">
        <ele>1276.0</ele>
        <time>2021-08-21T06:52:08Z</time>
      </trkpt>
      <trkpt lat="42.8072900" lon="-5.4644790">
        <ele>1276.0</ele>
        <time>2021-08-21T06:52:09Z</time>
      </trkpt>
      <trkpt lat="42.8073090" lon="-5.4644870">
        <ele>1276.0</ele>
        <time>2021-08-21T06:52:10Z</time>
      </trkpt>
      <trkpt lat="42.8073270" lon="-5.4644930">
        <ele>1276.0</ele>
        <time>2021-08-21T06:52:11Z</time>
      </trkpt>
      <trkpt lat="42.8073460" lon="-5.4644970">
        <ele>1276.0</ele>
        <time>2021-08-21T06:52:12Z</time>
      </trkpt>
      <trkpt lat="42.8073630" lon="-5.4645060">
        <ele>1276.0</ele>
        <time>2021-08-21T06:52:13Z</time>
      </trkpt>
      <trkpt lat="42.8073830" lon="-5.4645140">
        <ele>1277.0</ele>
        <time>2021-08-21T06:52:14Z</time>
      </trkpt>
      <trkpt lat="42.8074020" lon="-5.4645200">
        <ele>1277.0</ele>
        <time>2021-08-21T06:52:15Z</time>
      </trkpt>
      <trkpt lat="42.8074210" lon="-5.4645240">
        <ele>1277.0</ele>
        <time>2021-08-21T06:52:16Z</time>
      </trkpt>
      <trkpt lat="42.8074400" lon="-5.4645290">
        <ele>1277.0</ele>
        <time>2021-08-21T06:52:17Z</time>
      </trkpt>
      <trkpt lat="42.8074400" lon="-5.4645290">
        <ele>1278.0</ele>
        <time>2021-08-21T06:52:18Z</time>
      </trkpt>
      <trkpt lat="42.8074780" lon="-5.4645400">
        <ele>1278.0</ele>
        <time>2021-08-21T06:52:19Z</time>
      </trkpt>
      <trkpt lat="42.8074990" lon="-5.4645450">
        <ele>1278.0</ele>
        <time>2021-08-21T06:52:20Z</time>
      </trkpt>
      <trkpt lat="42.8075190" lon="-5.4645500">
        <ele>1278.0</ele>
        <time>2021-08-21T06:52:21Z</time>
      </trkpt>
      <trkpt lat="42.8075390" lon="-5.4645560">
        <ele>1279.0</ele>
        <time>2021-08-21T06:52:22Z</time>
      </trkpt>
      <trkpt lat="42.8075570" lon="-5.4645620">
        <ele>1279.0</ele>
        <time>2021-08-21T06:52:23Z</time>
      </trkpt>
      <trkpt lat="42.8075740" lon="-5.4645690">
        <ele>1279.0</ele>
        <time>2021-08-21T06:52:24Z</time>
      </trkpt>
      <trkpt lat="42.8075740" lon="-5.4645690">
        <ele>1279.0</ele>
        <time>2021-08-21T06:52:25Z</time>
      </trkpt>
      <trkpt lat="42.8076080" lon="-5.4645830">
        <ele>1279.0</ele>
        <time>2021-08-21T06:52:26Z</time>
      </trkpt>
      <trkpt lat="42.8076080" lon="-5.4645830">
        <ele>1280.0</ele>
        <time>2021-08-21T06:52:27Z</time>
      </trkpt>
      <trkpt lat="42.8076400" lon="-5.4645980">
        <ele>1280.0</ele>
        <time>2021-08-21T06:52:28Z</time>
      </trkpt>
      <trkpt lat="42.8076580" lon="-5.4646060">
        <ele>1280.0</ele>
        <time>2021-08-21T06:52:29Z</time>
      </trkpt>
      <trkpt lat="42.8076780" lon="-5.4646120">
        <ele>1280.0</ele>
        <time>2021-08-21T06:52:30Z</time>
      </trkpt>
      <trkpt lat="42.8077000" lon="-5.4646180">
        <ele>1280.0</ele>
        <time>2021-08-21T06:52:31Z</time>
      </trkpt>
      <trkpt lat="42.8077210" lon="-5.4646240">
        <ele>1280.0</ele>
        <time>2021-08-21T06:52:32Z</time>
      </trkpt>
      <trkpt lat="42.8077410" lon="-5.4646310">
        <ele>1281.0</ele>
        <time>2021-08-21T06:52:33Z</time>
      </trkpt>
      <trkpt lat="42.8077590" lon="-5.4646400">
        <ele>1281.0</ele>
        <time>2021-08-21T06:52:34Z</time>
      </trkpt>
      <trkpt lat="42.8077770" lon="-5.4646480">
        <ele>1281.0</ele>
        <time>2021-08-21T06:52:35Z</time>
      </trkpt>
      <trkpt lat="42.8077950" lon="-5.4646560">
        <ele>1281.0</ele>
        <time>2021-08-21T06:52:36Z</time>
      </trkpt>
      <trkpt lat="42.8078140" lon="-5.4646640">
        <ele>1281.0</ele>
        <time>2021-08-21T06:52:37Z</time>
      </trkpt>
      <trkpt lat="42.8078330" lon="-5.4646720">
        <ele>1281.0</ele>
        <time>2021-08-21T06:52:38Z</time>
      </trkpt>
      <trkpt lat="42.8078500" lon="-5.4646800">
        <ele>1282.0</ele>
        <time>2021-08-21T06:52:39Z</time>
      </trkpt>
      <trkpt lat="42.8078690" lon="-5.4646900">
        <ele>1282.0</ele>
        <time>2021-08-21T06:52:40Z</time>
      </trkpt>
      <trkpt lat="42.8079050" lon="-5.4647090">
        <ele>1282.0</ele>
        <time>2021-08-21T06:52:42Z</time>
      </trkpt>
      <trkpt lat="42.8079250" lon="-5.4647180">
        <ele>1282.0</ele>
        <time>2021-08-21T06:52:43Z</time>
      </trkpt>
      <trkpt lat="42.8079420" lon="-5.4647290">
        <ele>1283.0</ele>
        <time>2021-08-21T06:52:44Z</time>
      </trkpt>
      <trkpt lat="42.8079610" lon="-5.4647380">
        <ele>1283.0</ele>
        <time>2021-08-21T06:52:45Z</time>
      </trkpt>
      <trkpt lat="42.8079780" lon="-5.4647470">
        <ele>1283.0</ele>
        <time>2021-08-21T06:52:46Z</time>
      </trkpt>
      <trkpt lat="42.8079780" lon="-5.4647470">
        <ele>1283.0</ele>
        <time>2021-08-21T06:52:47Z</time>
      </trkpt>
      <trkpt lat="42.8080110" lon="-5.4647670">
        <ele>1284.0</ele>
        <time>2021-08-21T06:52:48Z</time>
      </trkpt>
      <trkpt lat="42.8080300" lon="-5.4647770">
        <ele>1284.0</ele>
        <time>2021-08-21T06:52:49Z</time>
      </trkpt>
      <trkpt lat="42.8080490" lon="-5.4647870">
        <ele>1284.0</ele>
        <time>2021-08-21T06:52:50Z</time>
      </trkpt>
      <trkpt lat="42.8080690" lon="-5.4647970">
        <ele>1284.0</ele>
        <time>2021-08-21T06:52:51Z</time>
      </trkpt>
      <trkpt lat="42.8080880" lon="-5.4648090">
        <ele>1284.0</ele>
        <time>2021-08-21T06:52:52Z</time>
      </trkpt>
      <trkpt lat="42.8081090" lon="-5.4648180">
        <ele>1284.0</ele>
        <time>2021-08-21T06:52:53Z</time>
      </trkpt>
      <trkpt lat="42.8081310" lon="-5.4648260">
        <ele>1284.0</ele>
        <time>2021-08-21T06:52:54Z</time>
      </trkpt>
      <trkpt lat="42.8081540" lon="-5.4648360">
        <ele>1285.0</ele>
        <time>2021-08-21T06:52:55Z</time>
      </trkpt>
      <trkpt lat="42.8081760" lon="-5.4648400">
        <ele>1285.0</ele>
        <time>2021-08-21T06:52:56Z</time>
      </trkpt>
      <trkpt lat="42.8081980" lon="-5.4648440">
        <ele>1285.0</ele>
        <time>2021-08-21T06:52:57Z</time>
      </trkpt>
      <trkpt lat="42.8082190" lon="-5.4648490">
        <ele>1285.0</ele>
        <time>2021-08-21T06:52:58Z</time>
      </trkpt>
      <trkpt lat="42.8082420" lon="-5.4648540">
        <ele>1285.0</ele>
        <time>2021-08-21T06:52:59Z</time>
      </trkpt>
      <trkpt lat="42.8082690" lon="-5.4648610">
        <ele>1286.0</ele>
        <time>2021-08-21T06:53:00Z</time>
      </trkpt>
      <trkpt lat="42.8082940" lon="-5.4648690">
        <ele>1286.0</ele>
        <time>2021-08-21T06:53:01Z</time>
      </trkpt>
      <trkpt lat="42.8083180" lon="-5.4648790">
        <ele>1286.0</ele>
        <time>2021-08-21T06:53:02Z</time>
      </trkpt>
      <trkpt lat="42.8083430" lon="-5.4648880">
        <ele>1286.0</ele>
        <time>2021-08-21T06:53:03Z</time>
      </trkpt>
      <trkpt lat="42.8083670" lon="-5.4648980">
        <ele>1286.0</ele>
        <time>2021-08-21T06:53:04Z</time>
      </trkpt>
      <trkpt lat="42.8083890" lon="-5.4649090">
        <ele>1286.0</ele>
        <time>2021-08-21T06:53:05Z</time>
      </trkpt>
      <trkpt lat="42.8084110" lon="-5.4649210">
        <ele>1286.0</ele>
        <time>2021-08-21T06:53:06Z</time>
      </trkpt>
      <trkpt lat="42.8084350" lon="-5.4649320">
        <ele>1286.0</ele>
        <time>2021-08-21T06:53:07Z</time>
      </trkpt>
      <trkpt lat="42.8084590" lon="-5.4649430">
        <ele>1286.0</ele>
        <time>2021-08-21T06:53:08Z</time>
      </trkpt>
      <trkpt lat="42.8084830" lon="-5.4649520">
        <ele>1286.0</ele>
        <time>2021-08-21T06:53:09Z</time>
      </trkpt>
      <trkpt lat="42.8085090" lon="-5.4649570">
        <ele>1286.0</ele>
        <time>2021-08-21T06:53:10Z</time>
      </trkpt>
      <trkpt lat="42.8085360" lon="-5.4649620">
        <ele>1286.0</ele>
        <time>2021-08-21T06:53:11Z</time>
      </trkpt>
      <trkpt lat="42.8085640" lon="-5.4649670">
        <ele>1287.0</ele>
        <time>2021-08-21T06:53:12Z</time>
      </trkpt>
      <trkpt lat="42.8085890" lon="-5.4649740">
        <ele>1287.0</ele>
        <time>2021-08-21T06:53:13Z</time>
      </trkpt>
      <trkpt lat="42.8086300" lon="-5.4649840">
        <ele>1287.0</ele>
        <time>2021-08-21T06:53:14Z</time>
      </trkpt>
      <trkpt lat="42.8086430" lon="-5.4649890">
        <ele>1287.0</ele>
        <time>2021-08-21T06:53:15Z</time>
      </trkpt>
      <trkpt lat="42.8086650" lon="-5.4649940">
        <ele>1287.0</ele>
        <time>2021-08-21T06:53:16Z</time>
      </trkpt>
      <trkpt lat="42.8086910" lon="-5.4649970">
        <ele>1287.0</ele>
        <time>2021-08-21T06:53:17Z</time>
      </trkpt>
      <trkpt lat="42.8087170" lon="-5.4650020">
        <ele>1287.0</ele>
        <time>2021-08-21T06:53:18Z</time>
      </trkpt>
      <trkpt lat="42.8087400" lon="-5.4650110">
        <ele>1287.0</ele>
        <time>2021-08-21T06:53:19Z</time>
      </trkpt>
      <trkpt lat="42.8087690" lon="-5.4650320">
        <ele>1287.0</ele>
        <time>2021-08-21T06:53:20Z</time>
      </trkpt>
      <trkpt lat="42.8087800" lon="-5.4650390">
        <ele>1287.0</ele>
        <time>2021-08-21T06:53:21Z</time>
      </trkpt>
      <trkpt lat="42.8088190" lon="-5.4650510">
        <ele>1287.0</ele>
        <time>2021-08-21T06:53:22Z</time>
      </trkpt>
      <trkpt lat="42.8088320" lon="-5.4650550">
        <ele>1287.0</ele>
        <time>2021-08-21T06:53:23Z</time>
      </trkpt>
      <trkpt lat="42.8088610" lon="-5.4650600">
        <ele>1287.0</ele>
        <time>2021-08-21T06:53:24Z</time>
      </trkpt>
      <trkpt lat="42.8088840" lon="-5.4650640">
        <ele>1287.0</ele>
        <time>2021-08-21T06:53:25Z</time>
      </trkpt>
      <trkpt lat="42.8089060" lon="-5.4650660">
        <ele>1287.0</ele>
        <time>2021-08-21T06:53:26Z</time>
      </trkpt>
      <trkpt lat="42.8089320" lon="-5.4650670">
        <ele>1288.0</ele>
        <time>2021-08-21T06:53:27Z</time>
      </trkpt>
      <trkpt lat="42.8089520" lon="-5.4650710">
        <ele>1288.0</ele>
        <time>2021-08-21T06:53:28Z</time>
      </trkpt>
      <trkpt lat="42.8089760" lon="-5.4650750">
        <ele>1288.0</ele>
        <time>2021-08-21T06:53:29Z</time>
      </trkpt>
      <trkpt lat="42.8090100" lon="-5.4650820">
        <ele>1288.0</ele>
        <time>2021-08-21T06:53:30Z</time>
      </trkpt>
      <trkpt lat="42.8090210" lon="-5.4650830">
        <ele>1288.0</ele>
        <time>2021-08-21T06:53:31Z</time>
      </trkpt>
      <trkpt lat="42.8090450" lon="-5.4650890">
        <ele>1288.0</ele>
        <time>2021-08-21T06:53:32Z</time>
      </trkpt>
      <trkpt lat="42.8090700" lon="-5.4650970">
        <ele>1288.0</ele>
        <time>2021-08-21T06:53:33Z</time>
      </trkpt>
      <trkpt lat="42.8090930" lon="-5.4650990">
        <ele>1289.0</ele>
        <time>2021-08-21T06:53:34Z</time>
      </trkpt>
      <trkpt lat="42.8091180" lon="-5.4650970">
        <ele>1289.0</ele>
        <time>2021-08-21T06:53:35Z</time>
      </trkpt>
      <trkpt lat="42.8091430" lon="-5.4650940">
        <ele>1289.0</ele>
        <time>2021-08-21T06:53:36Z</time>
      </trkpt>
      <trkpt lat="42.8091640" lon="-5.4650960">
        <ele>1289.0</ele>
        <time>2021-08-21T06:53:37Z</time>
      </trkpt>
      <trkpt lat="42.8091880" lon="-5.4650990">
        <ele>1289.0</ele>
        <time>2021-08-21T06:53:38Z</time>
      </trkpt>
      <trkpt lat="42.8092230" lon="-5.4651060">
        <ele>1289.0</ele>
        <time>2021-08-21T06:53:39Z</time>
      </trkpt>
      <trkpt lat="42.8092340" lon="-5.4651100">
        <ele>1290.0</ele>
        <time>2021-08-21T06:53:40Z</time>
      </trkpt>
      <trkpt lat="42.8092550" lon="-5.4651140">
        <ele>1290.0</ele>
        <time>2021-08-21T06:53:41Z</time>
      </trkpt>
      <trkpt lat="42.8092790" lon="-5.4651190">
        <ele>1290.0</ele>
        <time>2021-08-21T06:53:42Z</time>
      </trkpt>
      <trkpt lat="42.8093050" lon="-5.4651200">
        <ele>1290.0</ele>
        <time>2021-08-21T06:53:43Z</time>
      </trkpt>
      <trkpt lat="42.8093270" lon="-5.4651190">
        <ele>1290.0</ele>
        <time>2021-08-21T06:53:44Z</time>
      </trkpt>
      <trkpt lat="42.8093470" lon="-5.4651210">
        <ele>1290.0</ele>
        <time>2021-08-21T06:53:45Z</time>
      </trkpt>
      <trkpt lat="42.8093650" lon="-5.4651210">
        <ele>1291.0</ele>
        <time>2021-08-21T06:53:46Z</time>
      </trkpt>
      <trkpt lat="42.8093880" lon="-5.4651220">
        <ele>1291.0</ele>
        <time>2021-08-21T06:53:47Z</time>
      </trkpt>
      <trkpt lat="42.8094080" lon="-5.4651220">
        <ele>1291.0</ele>
        <time>2021-08-21T06:53:48Z</time>
      </trkpt>
      <trkpt lat="42.8094330" lon="-5.4651210">
        <ele>1291.0</ele>
        <time>2021-08-21T06:53:49Z</time>
      </trkpt>
      <trkpt lat="42.8094550" lon="-5.4651180">
        <ele>1291.0</ele>
        <time>2021-08-21T06:53:50Z</time>
      </trkpt>
      <trkpt lat="42.8094790" lon="-5.4651190">
        <ele>1291.0</ele>
        <time>2021-08-21T06:53:51Z</time>
      </trkpt>
      <trkpt lat="42.8095030" lon="-5.4651190">
        <ele>1292.0</ele>
        <time>2021-08-21T06:53:52Z</time>
      </trkpt>
      <trkpt lat="42.8095260" lon="-5.4651170">
        <ele>1292.0</ele>
        <time>2021-08-21T06:53:53Z</time>
      </trkpt>
      <trkpt lat="42.8095480" lon="-5.4651180">
        <ele>1292.0</ele>
        <time>2021-08-21T06:53:54Z</time>
      </trkpt>
      <trkpt lat="42.8095670" lon="-5.4651180">
        <ele>1292.0</ele>
        <time>2021-08-21T06:53:55Z</time>
      </trkpt>
      <trkpt lat="42.8095920" lon="-5.4651180">
        <ele>1292.0</ele>
        <time>2021-08-21T06:53:56Z</time>
      </trkpt>
      <trkpt lat="42.8096170" lon="-5.4651140">
        <ele>1292.0</ele>
        <time>2021-08-21T06:53:57Z</time>
      </trkpt>
      <trkpt lat="42.8096400" lon="-5.4651130">
        <ele>1292.0</ele>
        <time>2021-08-21T06:53:58Z</time>
      </trkpt>
      <trkpt lat="42.8096640" lon="-5.4651120">
        <ele>1292.0</ele>
        <time>2021-08-21T06:53:59Z</time>
      </trkpt>
      <trkpt lat="42.8096960" lon="-5.4651100">
        <ele>1292.0</ele>
        <time>2021-08-21T06:54:00Z</time>
      </trkpt>
      <trkpt lat="42.8097080" lon="-5.4651090">
        <ele>1292.0</ele>
        <time>2021-08-21T06:54:01Z</time>
      </trkpt>
      <trkpt lat="42.8097420" lon="-5.4651060">
        <ele>1292.0</ele>
        <time>2021-08-21T06:54:02Z</time>
      </trkpt>
      <trkpt lat="42.8097530" lon="-5.4651040">
        <ele>1292.0</ele>
        <time>2021-08-21T06:54:03Z</time>
      </trkpt>
      <trkpt lat="42.8097770" lon="-5.4651020">
        <ele>1292.0</ele>
        <time>2021-08-21T06:54:04Z</time>
      </trkpt>
      <trkpt lat="42.8098010" lon="-5.4651020">
        <ele>1292.0</ele>
        <time>2021-08-21T06:54:05Z</time>
      </trkpt>
      <trkpt lat="42.8098240" lon="-5.4651040">
        <ele>1292.0</ele>
        <time>2021-08-21T06:54:06Z</time>
      </trkpt>
      <trkpt lat="42.8098620" lon="-5.4651020">
        <ele>1292.0</ele>
        <time>2021-08-21T06:54:07Z</time>
      </trkpt>
      <trkpt lat="42.8098730" lon="-5.4651010">
        <ele>1292.0</ele>
        <time>2021-08-21T06:54:08Z</time>
      </trkpt>
      <trkpt lat="42.8098960" lon="-5.4650990">
        <ele>1292.0</ele>
        <time>2021-08-21T06:54:09Z</time>
      </trkpt>
      <trkpt lat="42.8099210" lon="-5.4650970">
        <ele>1292.0</ele>
        <time>2021-08-21T06:54:10Z</time>
      </trkpt>
      <trkpt lat="42.8099450" lon="-5.4650910">
        <ele>1292.0</ele>
        <time>2021-08-21T06:54:11Z</time>
      </trkpt>
      <trkpt lat="42.8099680" lon="-5.4650850">
        <ele>1292.0</ele>
        <time>2021-08-21T06:54:12Z</time>
      </trkpt>
      <trkpt lat="42.8100060" lon="-5.4650750">
        <ele>1292.0</ele>
        <time>2021-08-21T06:54:13Z</time>
      </trkpt>
      <trkpt lat="42.8100170" lon="-5.4650720">
        <ele>1292.0</ele>
        <time>2021-08-21T06:54:14Z</time>
      </trkpt>
      <trkpt lat="42.8100400" lon="-5.4650720">
        <ele>1292.0</ele>
        <time>2021-08-21T06:54:15Z</time>
      </trkpt>
      <trkpt lat="42.8100640" lon="-5.4650710">
        <ele>1292.0</ele>
        <time>2021-08-21T06:54:16Z</time>
      </trkpt>
      <trkpt lat="42.8100880" lon="-5.4650720">
        <ele>1292.0</ele>
        <time>2021-08-21T06:54:17Z</time>
      </trkpt>
      <trkpt lat="42.8101130" lon="-5.4650750">
        <ele>1293.0</ele>
        <time>2021-08-21T06:54:18Z</time>
      </trkpt>
      <trkpt lat="42.8101340" lon="-5.4650770">
        <ele>1293.0</ele>
        <time>2021-08-21T06:54:19Z</time>
      </trkpt>
      <trkpt lat="42.8101550" lon="-5.4650760">
        <ele>1293.0</ele>
        <time>2021-08-21T06:54:20Z</time>
      </trkpt>
      <trkpt lat="42.8101740" lon="-5.4650740">
        <ele>1293.0</ele>
        <time>2021-08-21T06:54:21Z</time>
      </trkpt>
      <trkpt lat="42.8101960" lon="-5.4650700">
        <ele>1293.0</ele>
        <time>2021-08-21T06:54:22Z</time>
      </trkpt>
      <trkpt lat="42.8102150" lon="-5.4650690">
        <ele>1293.0</ele>
        <time>2021-08-21T06:54:23Z</time>
      </trkpt>
      <trkpt lat="42.8102490" lon="-5.4650670">
        <ele>1293.0</ele>
        <time>2021-08-21T06:54:24Z</time>
      </trkpt>
      <trkpt lat="42.8102600" lon="-5.4650660">
        <ele>1293.0</ele>
        <time>2021-08-21T06:54:25Z</time>
      </trkpt>
      <trkpt lat="42.8102800" lon="-5.4650680">
        <ele>1293.0</ele>
        <time>2021-08-21T06:54:26Z</time>
      </trkpt>
      <trkpt lat="42.8103130" lon="-5.4650680">
        <ele>1293.0</ele>
        <time>2021-08-21T06:54:27Z</time>
      </trkpt>
      <trkpt lat="42.8103240" lon="-5.4650670">
        <ele>1293.0</ele>
        <time>2021-08-21T06:54:28Z</time>
      </trkpt>
      <trkpt lat="42.8103450" lon="-5.4650650">
        <ele>1293.0</ele>
        <time>2021-08-21T06:54:29Z</time>
      </trkpt>
      <trkpt lat="42.8103680" lon="-5.4650670">
        <ele>1294.0</ele>
        <time>2021-08-21T06:54:30Z</time>
      </trkpt>
      <trkpt lat="42.8103920" lon="-5.4650660">
        <ele>1294.0</ele>
        <time>2021-08-21T06:54:31Z</time>
      </trkpt>
      <trkpt lat="42.8104270" lon="-5.4650620">
        <ele>1294.0</ele>
        <time>2021-08-21T06:54:32Z</time>
      </trkpt>
      <trkpt lat="42.8104370" lon="-5.4650620">
        <ele>1294.0</ele>
        <time>2021-08-21T06:54:33Z</time>
      </trkpt>
      <trkpt lat="42.8104630" lon="-5.4650560">
        <ele>1294.0</ele>
        <time>2021-08-21T06:54:34Z</time>
      </trkpt>
      <trkpt lat="42.8104850" lon="-5.4650540">
        <ele>1294.0</ele>
        <time>2021-08-21T06:54:35Z</time>
      </trkpt>
      <trkpt lat="42.8105270" lon="-5.4650490">
        <ele>1294.0</ele>
        <time>2021-08-21T06:54:36Z</time>
      </trkpt>
      <trkpt lat="42.8105400" lon="-5.4650460">
        <ele>1294.0</ele>
        <time>2021-08-21T06:54:37Z</time>
      </trkpt>
      <trkpt lat="42.8105800" lon="-5.4650380">
        <ele>1294.0</ele>
        <time>2021-08-21T06:54:38Z</time>
      </trkpt>
      <trkpt lat="42.8105930" lon="-5.4650320">
        <ele>1294.0</ele>
        <time>2021-08-21T06:54:39Z</time>
      </trkpt>
      <trkpt lat="42.8106170" lon="-5.4650150">
        <ele>1294.0</ele>
        <time>2021-08-21T06:54:40Z</time>
      </trkpt>
      <trkpt lat="42.8106410" lon="-5.4649950">
        <ele>1294.0</ele>
        <time>2021-08-21T06:54:41Z</time>
      </trkpt>
      <trkpt lat="42.8106610" lon="-5.4649730">
        <ele>1294.0</ele>
        <time>2021-08-21T06:54:42Z</time>
      </trkpt>
      <trkpt lat="42.8106800" lon="-5.4649520">
        <ele>1294.0</ele>
        <time>2021-08-21T06:54:43Z</time>
      </trkpt>
      <trkpt lat="42.8107000" lon="-5.4649290">
        <ele>1294.0</ele>
        <time>2021-08-21T06:54:44Z</time>
      </trkpt>
      <trkpt lat="42.8107190" lon="-5.4649040">
        <ele>1294.0</ele>
        <time>2021-08-21T06:54:45Z</time>
      </trkpt>
      <trkpt lat="42.8107350" lon="-5.4648740">
        <ele>1294.0</ele>
        <time>2021-08-21T06:54:46Z</time>
      </trkpt>
      <trkpt lat="42.8107570" lon="-5.4648300">
        <ele>1294.0</ele>
        <time>2021-08-21T06:54:47Z</time>
      </trkpt>
      <trkpt lat="42.8107630" lon="-5.4648150">
        <ele>1294.0</ele>
        <time>2021-08-21T06:54:48Z</time>
      </trkpt>
      <trkpt lat="42.8107830" lon="-5.4647680">
        <ele>1294.0</ele>
        <time>2021-08-21T06:54:49Z</time>
      </trkpt>
      <trkpt lat="42.8107890" lon="-5.4647520">
        <ele>1294.0</ele>
        <time>2021-08-21T06:54:50Z</time>
      </trkpt>
      <trkpt lat="42.8108020" lon="-5.4647160">
        <ele>1294.0</ele>
        <time>2021-08-21T06:54:51Z</time>
      </trkpt>
      <trkpt lat="42.8108140" lon="-5.4646810">
        <ele>1294.0</ele>
        <time>2021-08-21T06:54:52Z</time>
      </trkpt>
      <trkpt lat="42.8108280" lon="-5.4646460">
        <ele>1294.0</ele>
        <time>2021-08-21T06:54:53Z</time>
      </trkpt>
      <trkpt lat="42.8108430" lon="-5.4646090">
        <ele>1293.0</ele>
        <time>2021-08-21T06:54:54Z</time>
      </trkpt>
      <trkpt lat="42.8108560" lon="-5.4645710">
        <ele>1293.0</ele>
        <time>2021-08-21T06:54:55Z</time>
      </trkpt>
      <trkpt lat="42.8108680" lon="-5.4645300">
        <ele>1293.0</ele>
        <time>2021-08-21T06:54:56Z</time>
      </trkpt>
      <trkpt lat="42.8108790" lon="-5.4644880">
        <ele>1293.0</ele>
        <time>2021-08-21T06:54:57Z</time>
      </trkpt>
      <trkpt lat="42.8108890" lon="-5.4644470">
        <ele>1293.0</ele>
        <time>2021-08-21T06:54:58Z</time>
      </trkpt>
      <trkpt lat="42.8109000" lon="-5.4644070">
        <ele>1293.0</ele>
        <time>2021-08-21T06:54:59Z</time>
      </trkpt>
      <trkpt lat="42.8109110" lon="-5.4643650">
        <ele>1293.0</ele>
        <time>2021-08-21T06:55:00Z</time>
      </trkpt>
      <trkpt lat="42.8109220" lon="-5.4643250">
        <ele>1293.0</ele>
        <time>2021-08-21T06:55:01Z</time>
      </trkpt>
      <trkpt lat="42.8109350" lon="-5.4642860">
        <ele>1293.0</ele>
        <time>2021-08-21T06:55:02Z</time>
      </trkpt>
      <trkpt lat="42.8109490" lon="-5.4642490">
        <ele>1293.0</ele>
        <time>2021-08-21T06:55:03Z</time>
      </trkpt>
      <trkpt lat="42.8109630" lon="-5.4642100">
        <ele>1293.0</ele>
        <time>2021-08-21T06:55:04Z</time>
      </trkpt>
      <trkpt lat="42.8109830" lon="-5.4641540">
        <ele>1293.0</ele>
        <time>2021-08-21T06:55:05Z</time>
      </trkpt>
      <trkpt lat="42.8109900" lon="-5.4641350">
        <ele>1293.0</ele>
        <time>2021-08-21T06:55:06Z</time>
      </trkpt>
      <trkpt lat="42.8110040" lon="-5.4640960">
        <ele>1293.0</ele>
        <time>2021-08-21T06:55:07Z</time>
      </trkpt>
      <trkpt lat="42.8110150" lon="-5.4640590">
        <ele>1293.0</ele>
        <time>2021-08-21T06:55:08Z</time>
      </trkpt>
      <trkpt lat="42.8110280" lon="-5.4640230">
        <ele>1293.0</ele>
        <time>2021-08-21T06:55:09Z</time>
      </trkpt>
      <trkpt lat="42.8110400" lon="-5.4639870">
        <ele>1292.0</ele>
        <time>2021-08-21T06:55:10Z</time>
      </trkpt>
      <trkpt lat="42.8110520" lon="-5.4639520">
        <ele>1292.0</ele>
        <time>2021-08-21T06:55:11Z</time>
      </trkpt>
      <trkpt lat="42.8110620" lon="-5.4639150">
        <ele>1292.0</ele>
        <time>2021-08-21T06:55:12Z</time>
      </trkpt>
      <trkpt lat="42.8110740" lon="-5.4638820">
        <ele>1292.0</ele>
        <time>2021-08-21T06:55:13Z</time>
      </trkpt>
      <trkpt lat="42.8110940" lon="-5.4638310">
        <ele>1292.0</ele>
        <time>2021-08-21T06:55:14Z</time>
      </trkpt>
      <trkpt lat="42.8111000" lon="-5.4638140">
        <ele>1292.0</ele>
        <time>2021-08-21T06:55:15Z</time>
      </trkpt>
      <trkpt lat="42.8111110" lon="-5.4637790">
        <ele>1291.0</ele>
        <time>2021-08-21T06:55:16Z</time>
      </trkpt>
      <trkpt lat="42.8111220" lon="-5.4637460">
        <ele>1291.0</ele>
        <time>2021-08-21T06:55:17Z</time>
      </trkpt>
      <trkpt lat="42.8111410" lon="-5.4636980">
        <ele>1291.0</ele>
        <time>2021-08-21T06:55:18Z</time>
      </trkpt>
      <trkpt lat="42.8111460" lon="-5.4636800">
        <ele>1291.0</ele>
        <time>2021-08-21T06:55:19Z</time>
      </trkpt>
      <trkpt lat="42.8111580" lon="-5.4636460">
        <ele>1291.0</ele>
        <time>2021-08-21T06:55:20Z</time>
      </trkpt>
      <trkpt lat="42.8111680" lon="-5.4636130">
        <ele>1291.0</ele>
        <time>2021-08-21T06:55:21Z</time>
      </trkpt>
      <trkpt lat="42.8111780" lon="-5.4635790">
        <ele>1290.0</ele>
        <time>2021-08-21T06:55:22Z</time>
      </trkpt>
      <trkpt lat="42.8111930" lon="-5.4635270">
        <ele>1290.0</ele>
        <time>2021-08-21T06:55:23Z</time>
      </trkpt>
      <trkpt lat="42.8111970" lon="-5.4635100">
        <ele>1290.0</ele>
        <time>2021-08-21T06:55:24Z</time>
      </trkpt>
      <trkpt lat="42.8112140" lon="-5.4634600">
        <ele>1290.0</ele>
        <time>2021-08-21T06:55:25Z</time>
      </trkpt>
      <trkpt lat="42.8112200" lon="-5.4634440">
        <ele>1290.0</ele>
        <time>2021-08-21T06:55:26Z</time>
      </trkpt>
      <trkpt lat="42.8112350" lon="-5.4634100">
        <ele>1290.0</ele>
        <time>2021-08-21T06:55:27Z</time>
      </trkpt>
      <trkpt lat="42.8112490" lon="-5.4633750">
        <ele>1290.0</ele>
        <time>2021-08-21T06:55:28Z</time>
      </trkpt>
      <trkpt lat="42.8112610" lon="-5.4633430">
        <ele>1290.0</ele>
        <time>2021-08-21T06:55:29Z</time>
      </trkpt>
      <trkpt lat="42.8112800" lon="-5.4632930">
        <ele>1290.0</ele>
        <time>2021-08-21T06:55:30Z</time>
      </trkpt>
      <trkpt lat="42.8112860" lon="-5.4632770">
        <ele>1290.0</ele>
        <time>2021-08-21T06:55:31Z</time>
      </trkpt>
      <trkpt lat="42.8112980" lon="-5.4632450">
        <ele>1290.0</ele>
        <time>2021-08-21T06:55:32Z</time>
      </trkpt>
      <trkpt lat="42.8113170" lon="-5.4631980">
        <ele>1290.0</ele>
        <time>2021-08-21T06:55:33Z</time>
      </trkpt>
      <trkpt lat="42.8113240" lon="-5.4631810">
        <ele>1290.0</ele>
        <time>2021-08-21T06:55:34Z</time>
      </trkpt>
      <trkpt lat="42.8113370" lon="-5.4631500">
        <ele>1289.0</ele>
        <time>2021-08-21T06:55:35Z</time>
      </trkpt>
      <trkpt lat="42.8113470" lon="-5.4631190">
        <ele>1289.0</ele>
        <time>2021-08-21T06:55:36Z</time>
      </trkpt>
      <trkpt lat="42.8113640" lon="-5.4630720">
        <ele>1289.0</ele>
        <time>2021-08-21T06:55:37Z</time>
      </trkpt>
      <trkpt lat="42.8113680" lon="-5.4630570">
        <ele>1289.0</ele>
        <time>2021-08-21T06:55:38Z</time>
      </trkpt>
      <trkpt lat="42.8113810" lon="-5.4630140">
        <ele>1289.0</ele>
        <time>2021-08-21T06:55:39Z</time>
      </trkpt>
      <trkpt lat="42.8113850" lon="-5.4629990">
        <ele>1289.0</ele>
        <time>2021-08-21T06:55:40Z</time>
      </trkpt>
      <trkpt lat="42.8113980" lon="-5.4629530">
        <ele>1289.0</ele>
        <time>2021-08-21T06:55:41Z</time>
      </trkpt>
      <trkpt lat="42.8114030" lon="-5.4629370">
        <ele>1288.0</ele>
        <time>2021-08-21T06:55:42Z</time>
      </trkpt>
      <trkpt lat="42.8114180" lon="-5.4628900">
        <ele>1288.0</ele>
        <time>2021-08-21T06:55:43Z</time>
      </trkpt>
      <trkpt lat="42.8114230" lon="-5.4628750">
        <ele>1288.0</ele>
        <time>2021-08-21T06:55:44Z</time>
      </trkpt>
      <trkpt lat="42.8114340" lon="-5.4628430">
        <ele>1288.0</ele>
        <time>2021-08-21T06:55:45Z</time>
      </trkpt>
      <trkpt lat="42.8114510" lon="-5.4627960">
        <ele>1288.0</ele>
        <time>2021-08-21T06:55:46Z</time>
      </trkpt>
      <trkpt lat="42.8114560" lon="-5.4627810">
        <ele>1288.0</ele>
        <time>2021-08-21T06:55:47Z</time>
      </trkpt>
      <trkpt lat="42.8114720" lon="-5.4627380">
        <ele>1288.0</ele>
        <time>2021-08-21T06:55:48Z</time>
      </trkpt>
      <trkpt lat="42.8114760" lon="-5.4627230">
        <ele>1288.0</ele>
        <time>2021-08-21T06:55:49Z</time>
      </trkpt>
      <trkpt lat="42.8114850" lon="-5.4626920">
        <ele>1288.0</ele>
        <time>2021-08-21T06:55:50Z</time>
      </trkpt>
      <trkpt lat="42.8114930" lon="-5.4626620">
        <ele>1288.0</ele>
        <time>2021-08-21T06:55:51Z</time>
      </trkpt>
      <trkpt lat="42.8115080" lon="-5.4626150">
        <ele>1288.0</ele>
        <time>2021-08-21T06:55:52Z</time>
      </trkpt>
      <trkpt lat="42.8115120" lon="-5.4625980">
        <ele>1287.0</ele>
        <time>2021-08-21T06:55:53Z</time>
      </trkpt>
      <trkpt lat="42.8115230" lon="-5.4625670">
        <ele>1287.0</ele>
        <time>2021-08-21T06:55:54Z</time>
      </trkpt>
      <trkpt lat="42.8115340" lon="-5.4625360">
        <ele>1287.0</ele>
        <time>2021-08-21T06:55:55Z</time>
      </trkpt>
      <trkpt lat="42.8115420" lon="-5.4625050">
        <ele>1287.0</ele>
        <time>2021-08-21T06:55:56Z</time>
      </trkpt>
      <trkpt lat="42.8115490" lon="-5.4624730">
        <ele>1287.0</ele>
        <time>2021-08-21T06:55:57Z</time>
      </trkpt>
      <trkpt lat="42.8115570" lon="-5.4624430">
        <ele>1287.0</ele>
        <time>2021-08-21T06:55:58Z</time>
      </trkpt>
      <trkpt lat="42.8115660" lon="-5.4624120">
        <ele>1287.0</ele>
        <time>2021-08-21T06:55:59Z</time>
      </trkpt>
      <trkpt lat="42.8115780" lon="-5.4623670">
        <ele>1287.0</ele>
        <time>2021-08-21T06:56:00Z</time>
      </trkpt>
      <trkpt lat="42.8115820" lon="-5.4623520">
        <ele>1287.0</ele>
        <time>2021-08-21T06:56:01Z</time>
      </trkpt>
      <trkpt lat="42.8115900" lon="-5.4623210">
        <ele>1287.0</ele>
        <time>2021-08-21T06:56:02Z</time>
      </trkpt>
      <trkpt lat="42.8115960" lon="-5.4622910">
        <ele>1287.0</ele>
        <time>2021-08-21T06:56:03Z</time>
      </trkpt>
      <trkpt lat="42.8116020" lon="-5.4622600">
        <ele>1287.0</ele>
        <time>2021-08-21T06:56:04Z</time>
      </trkpt>
      <trkpt lat="42.8116100" lon="-5.4622280">
        <ele>1287.0</ele>
        <time>2021-08-21T06:56:05Z</time>
      </trkpt>
      <trkpt lat="42.8116150" lon="-5.4621970">
        <ele>1287.0</ele>
        <time>2021-08-21T06:56:06Z</time>
      </trkpt>
      <trkpt lat="42.8116220" lon="-5.4621670">
        <ele>1287.0</ele>
        <time>2021-08-21T06:56:07Z</time>
      </trkpt>
      <trkpt lat="42.8116280" lon="-5.4621370">
        <ele>1287.0</ele>
        <time>2021-08-21T06:56:08Z</time>
      </trkpt>
      <trkpt lat="42.8116350" lon="-5.4621080">
        <ele>1287.0</ele>
        <time>2021-08-21T06:56:09Z</time>
      </trkpt>
      <trkpt lat="42.8116420" lon="-5.4620770">
        <ele>1287.0</ele>
        <time>2021-08-21T06:56:10Z</time>
      </trkpt>
      <trkpt lat="42.8116500" lon="-5.4620310">
        <ele>1287.0</ele>
        <time>2021-08-21T06:56:11Z</time>
      </trkpt>
      <trkpt lat="42.8116530" lon="-5.4620160">
        <ele>1287.0</ele>
        <time>2021-08-21T06:56:12Z</time>
      </trkpt>
      <trkpt lat="42.8116590" lon="-5.4619850">
        <ele>1287.0</ele>
        <time>2021-08-21T06:56:13Z</time>
      </trkpt>
      <trkpt lat="42.8116660" lon="-5.4619540">
        <ele>1287.0</ele>
        <time>2021-08-21T06:56:14Z</time>
      </trkpt>
      <trkpt lat="42.8116720" lon="-5.4619240">
        <ele>1287.0</ele>
        <time>2021-08-21T06:56:15Z</time>
      </trkpt>
      <trkpt lat="42.8116760" lon="-5.4618950">
        <ele>1287.0</ele>
        <time>2021-08-21T06:56:16Z</time>
      </trkpt>
      <trkpt lat="42.8116810" lon="-5.4618670">
        <ele>1287.0</ele>
        <time>2021-08-21T06:56:17Z</time>
      </trkpt>
      <trkpt lat="42.8116860" lon="-5.4618370">
        <ele>1287.0</ele>
        <time>2021-08-21T06:56:18Z</time>
      </trkpt>
      <trkpt lat="42.8116920" lon="-5.4618090">
        <ele>1287.0</ele>
        <time>2021-08-21T06:56:19Z</time>
      </trkpt>
      <trkpt lat="42.8116960" lon="-5.4617820">
        <ele>1287.0</ele>
        <time>2021-08-21T06:56:20Z</time>
      </trkpt>
      <trkpt lat="42.8117000" lon="-5.4617540">
        <ele>1287.0</ele>
        <time>2021-08-21T06:56:21Z</time>
      </trkpt>
      <trkpt lat="42.8117050" lon="-5.4617250">
        <ele>1287.0</ele>
        <time>2021-08-21T06:56:22Z</time>
      </trkpt>
      <trkpt lat="42.8117100" lon="-5.4616970">
        <ele>1287.0</ele>
        <time>2021-08-21T06:56:23Z</time>
      </trkpt>
      <trkpt lat="42.8117160" lon="-5.4616700">
        <ele>1288.0</ele>
        <time>2021-08-21T06:56:24Z</time>
      </trkpt>
      <trkpt lat="42.8117210" lon="-5.4616430">
        <ele>1288.0</ele>
        <time>2021-08-21T06:56:25Z</time>
      </trkpt>
      <trkpt lat="42.8117260" lon="-5.4616150">
        <ele>1288.0</ele>
        <time>2021-08-21T06:56:26Z</time>
      </trkpt>
      <trkpt lat="42.8117310" lon="-5.4615880">
        <ele>1288.0</ele>
        <time>2021-08-21T06:56:27Z</time>
      </trkpt>
      <trkpt lat="42.8117370" lon="-5.4615600">
        <ele>1288.0</ele>
        <time>2021-08-21T06:56:28Z</time>
      </trkpt>
      <trkpt lat="42.8117430" lon="-5.4615330">
        <ele>1288.0</ele>
        <time>2021-08-21T06:56:29Z</time>
      </trkpt>
      <trkpt lat="42.8117490" lon="-5.4615070">
        <ele>1288.0</ele>
        <time>2021-08-21T06:56:30Z</time>
      </trkpt>
      <trkpt lat="42.8117560" lon="-5.4614820">
        <ele>1288.0</ele>
        <time>2021-08-21T06:56:31Z</time>
      </trkpt>
      <trkpt lat="42.8117630" lon="-5.4614560">
        <ele>1288.0</ele>
        <time>2021-08-21T06:56:32Z</time>
      </trkpt>
      <trkpt lat="42.8117690" lon="-5.4614310">
        <ele>1288.0</ele>
        <time>2021-08-21T06:56:33Z</time>
      </trkpt>
      <trkpt lat="42.8117770" lon="-5.4614060">
        <ele>1288.0</ele>
        <time>2021-08-21T06:56:34Z</time>
      </trkpt>
      <trkpt lat="42.8117830" lon="-5.4613800">
        <ele>1288.0</ele>
        <time>2021-08-21T06:56:35Z</time>
      </trkpt>
      <trkpt lat="42.8117860" lon="-5.4613540">
        <ele>1288.0</ele>
        <time>2021-08-21T06:56:36Z</time>
      </trkpt>
      <trkpt lat="42.8117910" lon="-5.4613280">
        <ele>1289.0</ele>
        <time>2021-08-21T06:56:37Z</time>
      </trkpt>
      <trkpt lat="42.8117950" lon="-5.4613000">
        <ele>1289.0</ele>
        <time>2021-08-21T06:56:38Z</time>
      </trkpt>
      <trkpt lat="42.8117950" lon="-5.4613000">
        <ele>1289.0</ele>
        <time>2021-08-21T06:56:39Z</time>
      </trkpt>
      <trkpt lat="42.8118030" lon="-5.4612480">
        <ele>1289.0</ele>
        <time>2021-08-21T06:56:40Z</time>
      </trkpt>
      <trkpt lat="42.8118090" lon="-5.4612230">
        <ele>1289.0</ele>
        <time>2021-08-21T06:56:41Z</time>
      </trkpt>
      <trkpt lat="42.8118140" lon="-5.4611960">
        <ele>1289.0</ele>
        <time>2021-08-21T06:56:42Z</time>
      </trkpt>
      <trkpt lat="42.8118180" lon="-5.4611700">
        <ele>1289.0</ele>
        <time>2021-08-21T06:56:43Z</time>
      </trkpt>
      <trkpt lat="42.8118230" lon="-5.4611450">
        <ele>1289.0</ele>
        <time>2021-08-21T06:56:44Z</time>
      </trkpt>
      <trkpt lat="42.8118280" lon="-5.4611180">
        <ele>1289.0</ele>
        <time>2021-08-21T06:56:45Z</time>
      </trkpt>
      <trkpt lat="42.8118340" lon="-5.4610930">
        <ele>1289.0</ele>
        <time>2021-08-21T06:56:46Z</time>
      </trkpt>
      <trkpt lat="42.8118420" lon="-5.4610670">
        <ele>1289.0</ele>
        <time>2021-08-21T06:56:47Z</time>
      </trkpt>
      <trkpt lat="42.8118510" lon="-5.4610440">
        <ele>1289.0</ele>
        <time>2021-08-21T06:56:48Z</time>
      </trkpt>
      <trkpt lat="42.8118590" lon="-5.4610190">
        <ele>1289.0</ele>
        <time>2021-08-21T06:56:49Z</time>
      </trkpt>
      <trkpt lat="42.8118650" lon="-5.4609930">
        <ele>1289.0</ele>
        <time>2021-08-21T06:56:50Z</time>
      </trkpt>
      <trkpt lat="42.8118670" lon="-5.4609670">
        <ele>1290.0</ele>
        <time>2021-08-21T06:56:51Z</time>
      </trkpt>
      <trkpt lat="42.8118720" lon="-5.4609390">
        <ele>1290.0</ele>
        <time>2021-08-21T06:56:52Z</time>
      </trkpt>
      <trkpt lat="42.8118760" lon="-5.4609010">
        <ele>1290.0</ele>
        <time>2021-08-21T06:56:53Z</time>
      </trkpt>
      <trkpt lat="42.8118770" lon="-5.4608870">
        <ele>1290.0</ele>
        <time>2021-08-21T06:56:54Z</time>
      </trkpt>
      <trkpt lat="42.8118790" lon="-5.4608610">
        <ele>1290.0</ele>
        <time>2021-08-21T06:56:55Z</time>
      </trkpt>
      <trkpt lat="42.8118830" lon="-5.4608350">
        <ele>1290.0</ele>
        <time>2021-08-21T06:56:56Z</time>
      </trkpt>
      <trkpt lat="42.8118850" lon="-5.4608090">
        <ele>1290.0</ele>
        <time>2021-08-21T06:56:57Z</time>
      </trkpt>
      <trkpt lat="42.8118880" lon="-5.4607830">
        <ele>1291.0</ele>
        <time>2021-08-21T06:56:58Z</time>
      </trkpt>
      <trkpt lat="42.8118910" lon="-5.4607570">
        <ele>1291.0</ele>
        <time>2021-08-21T06:56:59Z</time>
      </trkpt>
      <trkpt lat="42.8118940" lon="-5.4607100">
        <ele>1291.0</ele>
        <time>2021-08-21T06:57:01Z</time>
      </trkpt>
      <trkpt lat="42.8118940" lon="-5.4607100">
        <ele>1291.0</ele>
        <time>2021-08-21T06:57:02Z</time>
      </trkpt>
      <trkpt lat="42.8118960" lon="-5.4606630">
        <ele>1291.0</ele>
        <time>2021-08-21T06:57:03Z</time>
      </trkpt>
      <trkpt lat="42.8118960" lon="-5.4606630">
        <ele>1291.0</ele>
        <time>2021-08-21T06:57:04Z</time>
      </trkpt>
      <trkpt lat="42.8118970" lon="-5.4606010">
        <ele>1291.0</ele>
        <time>2021-08-21T06:57:05Z</time>
      </trkpt>
      <trkpt lat="42.8118960" lon="-5.4605880">
        <ele>1292.0</ele>
        <time>2021-08-21T06:57:06Z</time>
      </trkpt>
      <trkpt lat="42.8118960" lon="-5.4605630">
        <ele>1292.0</ele>
        <time>2021-08-21T06:57:07Z</time>
      </trkpt>
      <trkpt lat="42.8118970" lon="-5.4605370">
        <ele>1292.0</ele>
        <time>2021-08-21T06:57:08Z</time>
      </trkpt>
      <trkpt lat="42.8118970" lon="-5.4605370">
        <ele>1292.0</ele>
        <time>2021-08-21T06:57:09Z</time>
      </trkpt>
      <trkpt lat="42.8119010" lon="-5.4604880">
        <ele>1292.0</ele>
        <time>2021-08-21T06:57:10Z</time>
      </trkpt>
      <trkpt lat="42.8119030" lon="-5.4604620">
        <ele>1292.0</ele>
        <time>2021-08-21T06:57:11Z</time>
      </trkpt>
      <trkpt lat="42.8119060" lon="-5.4604340">
        <ele>1292.0</ele>
        <time>2021-08-21T06:57:12Z</time>
      </trkpt>
      <trkpt lat="42.8119110" lon="-5.4604080">
        <ele>1292.0</ele>
        <time>2021-08-21T06:57:13Z</time>
      </trkpt>
      <trkpt lat="42.8119160" lon="-5.4603810">
        <ele>1292.0</ele>
        <time>2021-08-21T06:57:14Z</time>
      </trkpt>
      <trkpt lat="42.8119230" lon="-5.4603530">
        <ele>1292.0</ele>
        <time>2021-08-21T06:57:15Z</time>
      </trkpt>
      <trkpt lat="42.8119310" lon="-5.4603260">
        <ele>1292.0</ele>
        <time>2021-08-21T06:57:16Z</time>
      </trkpt>
      <trkpt lat="42.8119400" lon="-5.4602980">
        <ele>1293.0</ele>
        <time>2021-08-21T06:57:17Z</time>
      </trkpt>
      <trkpt lat="42.8119470" lon="-5.4602690">
        <ele>1293.0</ele>
        <time>2021-08-21T06:57:18Z</time>
      </trkpt>
      <trkpt lat="42.8119570" lon="-5.4602430">
        <ele>1293.0</ele>
        <time>2021-08-21T06:57:19Z</time>
      </trkpt>
      <trkpt lat="42.8119660" lon="-5.4602160">
        <ele>1293.0</ele>
        <time>2021-08-21T06:57:20Z</time>
      </trkpt>
      <trkpt lat="42.8119770" lon="-5.4601910">
        <ele>1293.0</ele>
        <time>2021-08-21T06:57:21Z</time>
      </trkpt>
      <trkpt lat="42.8119890" lon="-5.4601660">
        <ele>1293.0</ele>
        <time>2021-08-21T06:57:22Z</time>
      </trkpt>
      <trkpt lat="42.8120050" lon="-5.4601340">
        <ele>1294.0</ele>
        <time>2021-08-21T06:57:24Z</time>
      </trkpt>
      <trkpt lat="42.8120050" lon="-5.4601340">
        <ele>1294.0</ele>
        <time>2021-08-21T06:57:25Z</time>
      </trkpt>
      <trkpt lat="42.8120050" lon="-5.4601340">
        <ele>1294.0</ele>
        <time>2021-08-21T06:57:26Z</time>
      </trkpt>
      <trkpt lat="42.8120200" lon="-5.4601110">
        <ele>1294.0</ele>
        <time>2021-08-21T06:57:28Z</time>
      </trkpt>
      <trkpt lat="42.8120200" lon="-5.4601110">
        <ele>1294.0</ele>
        <time>2021-08-21T06:57:29Z</time>
      </trkpt>
      <trkpt lat="42.8120370" lon="-5.4600910">
        <ele>1295.0</ele>
        <time>2021-08-21T06:57:30Z</time>
      </trkpt>
      <trkpt lat="42.8120370" lon="-5.4600910">
        <ele>1295.0</ele>
        <time>2021-08-21T06:57:31Z</time>
      </trkpt>
      <trkpt lat="42.8120610" lon="-5.4600670">
        <ele>1295.0</ele>
        <time>2021-08-21T06:57:32Z</time>
      </trkpt>
      <trkpt lat="42.8120760" lon="-5.4600520">
        <ele>1295.0</ele>
        <time>2021-08-21T06:57:33Z</time>
      </trkpt>
      <trkpt lat="42.8120950" lon="-5.4600370">
        <ele>1295.0</ele>
        <time>2021-08-21T06:57:34Z</time>
      </trkpt>
      <trkpt lat="42.8121180" lon="-5.4600190">
        <ele>1295.0</ele>
        <time>2021-08-21T06:57:35Z</time>
      </trkpt>
      <trkpt lat="42.8121390" lon="-5.4600020">
        <ele>1296.0</ele>
        <time>2021-08-21T06:57:36Z</time>
      </trkpt>
      <trkpt lat="42.8121590" lon="-5.4599860">
        <ele>1296.0</ele>
        <time>2021-08-21T06:57:37Z</time>
      </trkpt>
      <trkpt lat="42.8121800" lon="-5.4599700">
        <ele>1296.0</ele>
        <time>2021-08-21T06:57:38Z</time>
      </trkpt>
      <trkpt lat="42.8122050" lon="-5.4599560">
        <ele>1296.0</ele>
        <time>2021-08-21T06:57:39Z</time>
      </trkpt>
      <trkpt lat="42.8122290" lon="-5.4599430">
        <ele>1296.0</ele>
        <time>2021-08-21T06:57:40Z</time>
      </trkpt>
      <trkpt lat="42.8122610" lon="-5.4599220">
        <ele>1296.0</ele>
        <time>2021-08-21T06:57:41Z</time>
      </trkpt>
      <trkpt lat="42.8122720" lon="-5.4599130">
        <ele>1297.0</ele>
        <time>2021-08-21T06:57:42Z</time>
      </trkpt>
      <trkpt lat="42.8122950" lon="-5.4598990">
        <ele>1297.0</ele>
        <time>2021-08-21T06:57:43Z</time>
      </trkpt>
      <trkpt lat="42.8123190" lon="-5.4598850">
        <ele>1297.0</ele>
        <time>2021-08-21T06:57:44Z</time>
      </trkpt>
      <trkpt lat="42.8123410" lon="-5.4598690">
        <ele>1297.0</ele>
        <time>2021-08-21T06:57:45Z</time>
      </trkpt>
      <trkpt lat="42.8123650" lon="-5.4598560">
        <ele>1297.0</ele>
        <time>2021-08-21T06:57:46Z</time>
      </trkpt>
      <trkpt lat="42.8123890" lon="-5.4598420">
        <ele>1296.0</ele>
        <time>2021-08-21T06:57:47Z</time>
      </trkpt>
      <trkpt lat="42.8124130" lon="-5.4598250">
        <ele>1296.0</ele>
        <time>2021-08-21T06:57:48Z</time>
      </trkpt>
      <trkpt lat="42.8124380" lon="-5.4598060">
        <ele>1296.0</ele>
        <time>2021-08-21T06:57:49Z</time>
      </trkpt>
      <trkpt lat="42.8124630" lon="-5.4597900">
        <ele>1296.0</ele>
        <time>2021-08-21T06:57:50Z</time>
      </trkpt>
      <trkpt lat="42.8124890" lon="-5.4597730">
        <ele>1296.0</ele>
        <time>2021-08-21T06:57:51Z</time>
      </trkpt>
      <trkpt lat="42.8125140" lon="-5.4597570">
        <ele>1296.0</ele>
        <time>2021-08-21T06:57:52Z</time>
      </trkpt>
      <trkpt lat="42.8125370" lon="-5.4597400">
        <ele>1296.0</ele>
        <time>2021-08-21T06:57:53Z</time>
      </trkpt>
      <trkpt lat="42.8125610" lon="-5.4597250">
        <ele>1296.0</ele>
        <time>2021-08-21T06:57:54Z</time>
      </trkpt>
      <trkpt lat="42.8125860" lon="-5.4597080">
        <ele>1296.0</ele>
        <time>2021-08-21T06:57:55Z</time>
      </trkpt>
      <trkpt lat="42.8126100" lon="-5.4596900">
        <ele>1296.0</ele>
        <time>2021-08-21T06:57:56Z</time>
      </trkpt>
      <trkpt lat="42.8126340" lon="-5.4596740">
        <ele>1296.0</ele>
        <time>2021-08-21T06:57:57Z</time>
      </trkpt>
      <trkpt lat="42.8126580" lon="-5.4596550">
        <ele>1296.0</ele>
        <time>2021-08-21T06:57:58Z</time>
      </trkpt>
      <trkpt lat="42.8126820" lon="-5.4596350">
        <ele>1296.0</ele>
        <time>2021-08-21T06:57:59Z</time>
      </trkpt>
      <trkpt lat="42.8127070" lon="-5.4596150">
        <ele>1296.0</ele>
        <time>2021-08-21T06:58:00Z</time>
      </trkpt>
      <trkpt lat="42.8127310" lon="-5.4595950">
        <ele>1296.0</ele>
        <time>2021-08-21T06:58:01Z</time>
      </trkpt>
      <trkpt lat="42.8127540" lon="-5.4595720">
        <ele>1296.0</ele>
        <time>2021-08-21T06:58:02Z</time>
      </trkpt>
      <trkpt lat="42.8127750" lon="-5.4595510">
        <ele>1297.0</ele>
        <time>2021-08-21T06:58:03Z</time>
      </trkpt>
      <trkpt lat="42.8127990" lon="-5.4595320">
        <ele>1297.0</ele>
        <time>2021-08-21T06:58:04Z</time>
      </trkpt>
      <trkpt lat="42.8128340" lon="-5.4595030">
        <ele>1297.0</ele>
        <time>2021-08-21T06:58:05Z</time>
      </trkpt>
      <trkpt lat="42.8128450" lon="-5.4594930">
        <ele>1297.0</ele>
        <time>2021-08-21T06:58:06Z</time>
      </trkpt>
      <trkpt lat="42.8128680" lon="-5.4594740">
        <ele>1297.0</ele>
        <time>2021-08-21T06:58:07Z</time>
      </trkpt>
      <trkpt lat="42.8128900" lon="-5.4594560">
        <ele>1297.0</ele>
        <time>2021-08-21T06:58:08Z</time>
      </trkpt>
      <trkpt lat="42.8129140" lon="-5.4594370">
        <ele>1297.0</ele>
        <time>2021-08-21T06:58:09Z</time>
      </trkpt>
      <trkpt lat="42.8129360" lon="-5.4594190">
        <ele>1297.0</ele>
        <time>2021-08-21T06:58:10Z</time>
      </trkpt>
      <trkpt lat="42.8129590" lon="-5.4594020">
        <ele>1296.0</ele>
        <time>2021-08-21T06:58:11Z</time>
      </trkpt>
      <trkpt lat="42.8129840" lon="-5.4593850">
        <ele>1296.0</ele>
        <time>2021-08-21T06:58:12Z</time>
      </trkpt>
      <trkpt lat="42.8130060" lon="-5.4593690">
        <ele>1296.0</ele>
        <time>2021-08-21T06:58:13Z</time>
      </trkpt>
      <trkpt lat="42.8130320" lon="-5.4593480">
        <ele>1296.0</ele>
        <time>2021-08-21T06:58:14Z</time>
      </trkpt>
      <trkpt lat="42.8130580" lon="-5.4593300">
        <ele>1296.0</ele>
        <time>2021-08-21T06:58:15Z</time>
      </trkpt>
      <trkpt lat="42.8130830" lon="-5.4593100">
        <ele>1296.0</ele>
        <time>2021-08-21T06:58:16Z</time>
      </trkpt>
      <trkpt lat="42.8131190" lon="-5.4592820">
        <ele>1296.0</ele>
        <time>2021-08-21T06:58:17Z</time>
      </trkpt>
      <trkpt lat="42.8131310" lon="-5.4592730">
        <ele>1296.0</ele>
        <time>2021-08-21T06:58:18Z</time>
      </trkpt>
      <trkpt lat="42.8131680" lon="-5.4592500">
        <ele>1296.0</ele>
        <time>2021-08-21T06:58:19Z</time>
      </trkpt>
      <trkpt lat="42.8131800" lon="-5.4592430">
        <ele>1296.0</ele>
        <time>2021-08-21T06:58:20Z</time>
      </trkpt>
      <trkpt lat="42.8132040" lon="-5.4592270">
        <ele>1296.0</ele>
        <time>2021-08-21T06:58:21Z</time>
      </trkpt>
      <trkpt lat="42.8132290" lon="-5.4592090">
        <ele>1296.0</ele>
        <time>2021-08-21T06:58:22Z</time>
      </trkpt>
      <trkpt lat="42.8132510" lon="-5.4591910">
        <ele>1296.0</ele>
        <time>2021-08-21T06:58:23Z</time>
      </trkpt>
      <trkpt lat="42.8132870" lon="-5.4591640">
        <ele>1296.0</ele>
        <time>2021-08-21T06:58:24Z</time>
      </trkpt>
      <trkpt lat="42.8132980" lon="-5.4591550">
        <ele>1295.0</ele>
        <time>2021-08-21T06:58:25Z</time>
      </trkpt>
      <trkpt lat="42.8133200" lon="-5.4591370">
        <ele>1295.0</ele>
        <time>2021-08-21T06:58:26Z</time>
      </trkpt>
      <trkpt lat="42.8133450" lon="-5.4591190">
        <ele>1295.0</ele>
        <time>2021-08-21T06:58:27Z</time>
      </trkpt>
      <trkpt lat="42.8133670" lon="-5.4591000">
        <ele>1295.0</ele>
        <time>2021-08-21T06:58:28Z</time>
      </trkpt>
      <trkpt lat="42.8133910" lon="-5.4590780">
        <ele>1295.0</ele>
        <time>2021-08-21T06:58:29Z</time>
      </trkpt>
      <trkpt lat="42.8134140" lon="-5.4590590">
        <ele>1295.0</ele>
        <time>2021-08-21T06:58:30Z</time>
      </trkpt>
      <trkpt lat="42.8134360" lon="-5.4590380">
        <ele>1295.0</ele>
        <time>2021-08-21T06:58:31Z</time>
      </trkpt>
      <trkpt lat="42.8134590" lon="-5.4590170">
        <ele>1295.0</ele>
        <time>2021-08-21T06:58:32Z</time>
      </trkpt>
      <trkpt lat="42.8134810" lon="-5.4589930">
        <ele>1295.0</ele>
        <time>2021-08-21T06:58:33Z</time>
      </trkpt>
      <trkpt lat="42.8135020" lon="-5.4589700">
        <ele>1295.0</ele>
        <time>2021-08-21T06:58:34Z</time>
      </trkpt>
      <trkpt lat="42.8135240" lon="-5.4589470">
        <ele>1295.0</ele>
        <time>2021-08-21T06:58:35Z</time>
      </trkpt>
      <trkpt lat="42.8135460" lon="-5.4589240">
        <ele>1295.0</ele>
        <time>2021-08-21T06:58:36Z</time>
      </trkpt>
      <trkpt lat="42.8135640" lon="-5.4588990">
        <ele>1295.0</ele>
        <time>2021-08-21T06:58:37Z</time>
      </trkpt>
      <trkpt lat="42.8135830" lon="-5.4588750">
        <ele>1295.0</ele>
        <time>2021-08-21T06:58:38Z</time>
      </trkpt>
      <trkpt lat="42.8136010" lon="-5.4588480">
        <ele>1295.0</ele>
        <time>2021-08-21T06:58:39Z</time>
      </trkpt>
      <trkpt lat="42.8136200" lon="-5.4588220">
        <ele>1295.0</ele>
        <time>2021-08-21T06:58:40Z</time>
      </trkpt>
      <trkpt lat="42.8136370" lon="-5.4587970">
        <ele>1295.0</ele>
        <time>2021-08-21T06:58:41Z</time>
      </trkpt>
      <trkpt lat="42.8136530" lon="-5.4587720">
        <ele>1295.0</ele>
        <time>2021-08-21T06:58:42Z</time>
      </trkpt>
      <trkpt lat="42.8136700" lon="-5.4587470">
        <ele>1295.0</ele>
        <time>2021-08-21T06:58:43Z</time>
      </trkpt>
      <trkpt lat="42.8136880" lon="-5.4587190">
        <ele>1294.0</ele>
        <time>2021-08-21T06:58:44Z</time>
      </trkpt>
      <trkpt lat="42.8137030" lon="-5.4586940">
        <ele>1294.0</ele>
        <time>2021-08-21T06:58:45Z</time>
      </trkpt>
      <trkpt lat="42.8137170" lon="-5.4586650">
        <ele>1294.0</ele>
        <time>2021-08-21T06:58:46Z</time>
      </trkpt>
      <trkpt lat="42.8137300" lon="-5.4586360">
        <ele>1294.0</ele>
        <time>2021-08-21T06:58:47Z</time>
      </trkpt>
      <trkpt lat="42.8137420" lon="-5.4586060">
        <ele>1294.0</ele>
        <time>2021-08-21T06:58:48Z</time>
      </trkpt>
      <trkpt lat="42.8137630" lon="-5.4585660">
        <ele>1294.0</ele>
        <time>2021-08-21T06:58:49Z</time>
      </trkpt>
      <trkpt lat="42.8137700" lon="-5.4585530">
        <ele>1294.0</ele>
        <time>2021-08-21T06:58:50Z</time>
      </trkpt>
      <trkpt lat="42.8137850" lon="-5.4585260">
        <ele>1294.0</ele>
        <time>2021-08-21T06:58:51Z</time>
      </trkpt>
      <trkpt lat="42.8137980" lon="-5.4585000">
        <ele>1294.0</ele>
        <time>2021-08-21T06:58:52Z</time>
      </trkpt>
      <trkpt lat="42.8138110" lon="-5.4584730">
        <ele>1294.0</ele>
        <time>2021-08-21T06:58:53Z</time>
      </trkpt>
      <trkpt lat="42.8138240" lon="-5.4584460">
        <ele>1294.0</ele>
        <time>2021-08-21T06:58:54Z</time>
      </trkpt>
      <trkpt lat="42.8138370" lon="-5.4584200">
        <ele>1294.0</ele>
        <time>2021-08-21T06:58:55Z</time>
      </trkpt>
      <trkpt lat="42.8138580" lon="-5.4583830">
        <ele>1294.0</ele>
        <time>2021-08-21T06:58:56Z</time>
      </trkpt>
      <trkpt lat="42.8138650" lon="-5.4583720">
        <ele>1294.0</ele>
        <time>2021-08-21T06:58:57Z</time>
      </trkpt>
      <trkpt lat="42.8138650" lon="-5.4583720">
        <ele>1294.0</ele>
        <time>2021-08-21T06:58:58Z</time>
      </trkpt>
      <trkpt lat="42.8138850" lon="-5.4583390">
        <ele>1294.0</ele>
        <time>2021-08-21T06:58:59Z</time>
      </trkpt>
      <trkpt lat="42.8138850" lon="-5.4583390">
        <ele>1294.0</ele>
        <time>2021-08-21T06:59:00Z</time>
      </trkpt>
      <trkpt lat="42.8138950" lon="-5.4583090">
        <ele>1294.0</ele>
        <time>2021-08-21T06:59:01Z</time>
      </trkpt>
      <trkpt lat="42.8139070" lon="-5.4582810">
        <ele>1294.0</ele>
        <time>2021-08-21T06:59:03Z</time>
      </trkpt>
      <trkpt lat="42.8139070" lon="-5.4582810">
        <ele>1294.0</ele>
        <time>2021-08-21T06:59:04Z</time>
      </trkpt>
      <trkpt lat="42.8139200" lon="-5.4582520">
        <ele>1294.0</ele>
        <time>2021-08-21T06:59:05Z</time>
      </trkpt>
      <trkpt lat="42.8139200" lon="-5.4582520">
        <ele>1294.0</ele>
        <time>2021-08-21T06:59:06Z</time>
      </trkpt>
      <trkpt lat="42.8139350" lon="-5.4582200">
        <ele>1294.0</ele>
        <time>2021-08-21T06:59:07Z</time>
      </trkpt>
      <trkpt lat="42.8139350" lon="-5.4582200">
        <ele>1294.0</ele>
        <time>2021-08-21T06:59:08Z</time>
      </trkpt>
      <trkpt lat="42.8139530" lon="-5.4581950">
        <ele>1294.0</ele>
        <time>2021-08-21T06:59:09Z</time>
      </trkpt>
      <trkpt lat="42.8139530" lon="-5.4581950">
        <ele>1294.0</ele>
        <time>2021-08-21T06:59:10Z</time>
      </trkpt>
      <trkpt lat="42.8139670" lon="-5.4581690">
        <ele>1294.0</ele>
        <time>2021-08-21T06:59:11Z</time>
      </trkpt>
      <trkpt lat="42.8139670" lon="-5.4581690">
        <ele>1294.0</ele>
        <time>2021-08-21T06:59:12Z</time>
      </trkpt>
      <trkpt lat="42.8139810" lon="-5.4581410">
        <ele>1294.0</ele>
        <time>2021-08-21T06:59:13Z</time>
      </trkpt>
      <trkpt lat="42.8139810" lon="-5.4581410">
        <ele>1294.0</ele>
        <time>2021-08-21T06:59:14Z</time>
      </trkpt>
      <trkpt lat="42.8140010" lon="-5.4581170">
        <ele>1294.0</ele>
        <time>2021-08-21T06:59:15Z</time>
      </trkpt>
      <trkpt lat="42.8140010" lon="-5.4581170">
        <ele>1294.0</ele>
        <time>2021-08-21T06:59:16Z</time>
      </trkpt>
      <trkpt lat="42.8140170" lon="-5.4580880">
        <ele>1294.0</ele>
        <time>2021-08-21T06:59:17Z</time>
      </trkpt>
      <trkpt lat="42.8140170" lon="-5.4580880">
        <ele>1294.0</ele>
        <time>2021-08-21T06:59:18Z</time>
      </trkpt>
      <trkpt lat="42.8140310" lon="-5.4580640">
        <ele>1294.0</ele>
        <time>2021-08-21T06:59:19Z</time>
      </trkpt>
      <trkpt lat="42.8140310" lon="-5.4580640">
        <ele>1294.0</ele>
        <time>2021-08-21T06:59:20Z</time>
      </trkpt>
      <trkpt lat="42.8140500" lon="-5.4580410">
        <ele>1294.0</ele>
        <time>2021-08-21T06:59:21Z</time>
      </trkpt>
      <trkpt lat="42.8140500" lon="-5.4580410">
        <ele>1294.0</ele>
        <time>2021-08-21T06:59:22Z</time>
      </trkpt>
      <trkpt lat="42.8140670" lon="-5.4580170">
        <ele>1294.0</ele>
        <time>2021-08-21T06:59:23Z</time>
      </trkpt>
      <trkpt lat="42.8140670" lon="-5.4580170">
        <ele>1295.0</ele>
        <time>2021-08-21T06:59:24Z</time>
      </trkpt>
      <trkpt lat="42.8140830" lon="-5.4579900">
        <ele>1295.0</ele>
        <time>2021-08-21T06:59:25Z</time>
      </trkpt>
      <trkpt lat="42.8140830" lon="-5.4579900">
        <ele>1295.0</ele>
        <time>2021-08-21T06:59:26Z</time>
      </trkpt>
      <trkpt lat="42.8140990" lon="-5.4579590">
        <ele>1295.0</ele>
        <time>2021-08-21T06:59:27Z</time>
      </trkpt>
      <trkpt lat="42.8140990" lon="-5.4579590">
        <ele>1295.0</ele>
        <time>2021-08-21T06:59:28Z</time>
      </trkpt>
      <trkpt lat="42.8141150" lon="-5.4579320">
        <ele>1295.0</ele>
        <time>2021-08-21T06:59:29Z</time>
      </trkpt>
      <trkpt lat="42.8141150" lon="-5.4579320">
        <ele>1295.0</ele>
        <time>2021-08-21T06:59:30Z</time>
      </trkpt>
      <trkpt lat="42.8141340" lon="-5.4579010">
        <ele>1295.0</ele>
        <time>2021-08-21T06:59:31Z</time>
      </trkpt>
      <trkpt lat="42.8141340" lon="-5.4579010">
        <ele>1296.0</ele>
        <time>2021-08-21T06:59:32Z</time>
      </trkpt>
      <trkpt lat="42.8141650" lon="-5.4578550">
        <ele>1296.0</ele>
        <time>2021-08-21T06:59:33Z</time>
      </trkpt>
      <trkpt lat="42.8141710" lon="-5.4578430">
        <ele>1296.0</ele>
        <time>2021-08-21T06:59:34Z</time>
      </trkpt>
      <trkpt lat="42.8141850" lon="-5.4578200">
        <ele>1296.0</ele>
        <time>2021-08-21T06:59:35Z</time>
      </trkpt>
      <trkpt lat="42.8142020" lon="-5.4577960">
        <ele>1296.0</ele>
        <time>2021-08-21T06:59:36Z</time>
      </trkpt>
      <trkpt lat="42.8142170" lon="-5.4577710">
        <ele>1296.0</ele>
        <time>2021-08-21T06:59:37Z</time>
      </trkpt>
      <trkpt lat="42.8142340" lon="-5.4577450">
        <ele>1296.0</ele>
        <time>2021-08-21T06:59:38Z</time>
      </trkpt>
      <trkpt lat="42.8142490" lon="-5.4577210">
        <ele>1296.0</ele>
        <time>2021-08-21T06:59:39Z</time>
      </trkpt>
      <trkpt lat="42.8142730" lon="-5.4576830">
        <ele>1296.0</ele>
        <time>2021-08-21T06:59:40Z</time>
      </trkpt>
      <trkpt lat="42.8142810" lon="-5.4576700">
        <ele>1297.0</ele>
        <time>2021-08-21T06:59:41Z</time>
      </trkpt>
      <trkpt lat="42.8143040" lon="-5.4576330">
        <ele>1297.0</ele>
        <time>2021-08-21T06:59:42Z</time>
      </trkpt>
      <trkpt lat="42.8143120" lon="-5.4576200">
        <ele>1297.0</ele>
        <time>2021-08-21T06:59:43Z</time>
      </trkpt>
      <trkpt lat="42.8143270" lon="-5.4575980">
        <ele>1297.0</ele>
        <time>2021-08-21T06:59:44Z</time>
      </trkpt>
      <trkpt lat="42.8143420" lon="-5.4575740">
        <ele>1297.0</ele>
        <time>2021-08-21T06:59:45Z</time>
      </trkpt>
      <trkpt lat="42.8143580" lon="-5.4575500">
        <ele>1297.0</ele>
        <time>2021-08-21T06:59:46Z</time>
      </trkpt>
      <trkpt lat="42.8143740" lon="-5.4575270">
        <ele>1297.0</ele>
        <time>2021-08-21T06:59:47Z</time>
      </trkpt>
      <trkpt lat="42.8143900" lon="-5.4575030">
        <ele>1297.0</ele>
        <time>2021-08-21T06:59:48Z</time>
      </trkpt>
      <trkpt lat="42.8144040" lon="-5.4574790">
        <ele>1297.0</ele>
        <time>2021-08-21T06:59:49Z</time>
      </trkpt>
      <trkpt lat="42.8144180" lon="-5.4574540">
        <ele>1297.0</ele>
        <time>2021-08-21T06:59:50Z</time>
      </trkpt>
      <trkpt lat="42.8144330" lon="-5.4574310">
        <ele>1297.0</ele>
        <time>2021-08-21T06:59:51Z</time>
      </trkpt>
      <trkpt lat="42.8144480" lon="-5.4574070">
        <ele>1298.0</ele>
        <time>2021-08-21T06:59:52Z</time>
      </trkpt>
      <trkpt lat="42.8144630" lon="-5.4573860">
        <ele>1298.0</ele>
        <time>2021-08-21T06:59:53Z</time>
      </trkpt>
      <trkpt lat="42.8144850" lon="-5.4573500">
        <ele>1298.0</ele>
        <time>2021-08-21T06:59:54Z</time>
      </trkpt>
      <trkpt lat="42.8144920" lon="-5.4573380">
        <ele>1298.0</ele>
        <time>2021-08-21T06:59:55Z</time>
      </trkpt>
      <trkpt lat="42.8145140" lon="-5.4572980">
        <ele>1298.0</ele>
        <time>2021-08-21T06:59:56Z</time>
      </trkpt>
      <trkpt lat="42.8145210" lon="-5.4572840">
        <ele>1298.0</ele>
        <time>2021-08-21T06:59:57Z</time>
      </trkpt>
      <trkpt lat="42.8145320" lon="-5.4572550">
        <ele>1298.0</ele>
        <time>2021-08-21T06:59:58Z</time>
      </trkpt>
      <trkpt lat="42.8145320" lon="-5.4572550">
        <ele>1298.0</ele>
        <time>2021-08-21T06:59:59Z</time>
      </trkpt>
      <trkpt lat="42.8145630" lon="-5.4571980">
        <ele>1298.0</ele>
        <time>2021-08-21T07:00:00Z</time>
      </trkpt>
      <trkpt lat="42.8145770" lon="-5.4571680">
        <ele>1298.0</ele>
        <time>2021-08-21T07:00:01Z</time>
      </trkpt>
      <trkpt lat="42.8145900" lon="-5.4571390">
        <ele>1298.0</ele>
        <time>2021-08-21T07:00:02Z</time>
      </trkpt>
      <trkpt lat="42.8146030" lon="-5.4571080">
        <ele>1298.0</ele>
        <time>2021-08-21T07:00:03Z</time>
      </trkpt>
      <trkpt lat="42.8146150" lon="-5.4570770">
        <ele>1298.0</ele>
        <time>2021-08-21T07:00:04Z</time>
      </trkpt>
      <trkpt lat="42.8146330" lon="-5.4570310">
        <ele>1298.0</ele>
        <time>2021-08-21T07:00:05Z</time>
      </trkpt>
      <trkpt lat="42.8146390" lon="-5.4570150">
        <ele>1298.0</ele>
        <time>2021-08-21T07:00:06Z</time>
      </trkpt>
      <trkpt lat="42.8146480" lon="-5.4569830">
        <ele>1299.0</ele>
        <time>2021-08-21T07:00:07Z</time>
      </trkpt>
      <trkpt lat="42.8146600" lon="-5.4569490">
        <ele>1299.0</ele>
        <time>2021-08-21T07:00:08Z</time>
      </trkpt>
      <trkpt lat="42.8146700" lon="-5.4569160">
        <ele>1299.0</ele>
        <time>2021-08-21T07:00:09Z</time>
      </trkpt>
      <trkpt lat="42.8146790" lon="-5.4568820">
        <ele>1299.0</ele>
        <time>2021-08-21T07:00:10Z</time>
      </trkpt>
      <trkpt lat="42.8146860" lon="-5.4568500">
        <ele>1299.0</ele>
        <time>2021-08-21T07:00:11Z</time>
      </trkpt>
      <trkpt lat="42.8146950" lon="-5.4568190">
        <ele>1299.0</ele>
        <time>2021-08-21T07:00:12Z</time>
      </trkpt>
      <trkpt lat="42.8147010" lon="-5.4567870">
        <ele>1299.0</ele>
        <time>2021-08-21T07:00:13Z</time>
      </trkpt>
      <trkpt lat="42.8147090" lon="-5.4567400">
        <ele>1299.0</ele>
        <time>2021-08-21T07:00:14Z</time>
      </trkpt>
      <trkpt lat="42.8147110" lon="-5.4567240">
        <ele>1299.0</ele>
        <time>2021-08-21T07:00:15Z</time>
      </trkpt>
      <trkpt lat="42.8147190" lon="-5.4566940">
        <ele>1299.0</ele>
        <time>2021-08-21T07:00:16Z</time>
      </trkpt>
      <trkpt lat="42.8147280" lon="-5.4566620">
        <ele>1299.0</ele>
        <time>2021-08-21T07:00:17Z</time>
      </trkpt>
      <trkpt lat="42.8147360" lon="-5.4566310">
        <ele>1299.0</ele>
        <time>2021-08-21T07:00:18Z</time>
      </trkpt>
      <trkpt lat="42.8147470" lon="-5.4566000">
        <ele>1299.0</ele>
        <time>2021-08-21T07:00:19Z</time>
      </trkpt>
      <trkpt lat="42.8147570" lon="-5.4565700">
        <ele>1299.0</ele>
        <time>2021-08-21T07:00:20Z</time>
      </trkpt>
      <trkpt lat="42.8147640" lon="-5.4565390">
        <ele>1299.0</ele>
        <time>2021-08-21T07:00:21Z</time>
      </trkpt>
      <trkpt lat="42.8147700" lon="-5.4565060">
        <ele>1299.0</ele>
        <time>2021-08-21T07:00:22Z</time>
      </trkpt>
      <trkpt lat="42.8147750" lon="-5.4564730">
        <ele>1299.0</ele>
        <time>2021-08-21T07:00:23Z</time>
      </trkpt>
      <trkpt lat="42.8147810" lon="-5.4564410">
        <ele>1299.0</ele>
        <time>2021-08-21T07:00:24Z</time>
      </trkpt>
      <trkpt lat="42.8147900" lon="-5.4564090">
        <ele>1299.0</ele>
        <time>2021-08-21T07:00:25Z</time>
      </trkpt>
      <trkpt lat="42.8147960" lon="-5.4563760">
        <ele>1299.0</ele>
        <time>2021-08-21T07:00:26Z</time>
      </trkpt>
      <trkpt lat="42.8148010" lon="-5.4563450">
        <ele>1300.0</ele>
        <time>2021-08-21T07:00:27Z</time>
      </trkpt>
      <trkpt lat="42.8148050" lon="-5.4563130">
        <ele>1300.0</ele>
        <time>2021-08-21T07:00:28Z</time>
      </trkpt>
      <trkpt lat="42.8148100" lon="-5.4562800">
        <ele>1300.0</ele>
        <time>2021-08-21T07:00:29Z</time>
      </trkpt>
      <trkpt lat="42.8148170" lon="-5.4562490">
        <ele>1300.0</ele>
        <time>2021-08-21T07:00:30Z</time>
      </trkpt>
      <trkpt lat="42.8148210" lon="-5.4562160">
        <ele>1300.0</ele>
        <time>2021-08-21T07:00:31Z</time>
      </trkpt>
      <trkpt lat="42.8148260" lon="-5.4561830">
        <ele>1300.0</ele>
        <time>2021-08-21T07:00:32Z</time>
      </trkpt>
      <trkpt lat="42.8148290" lon="-5.4561510">
        <ele>1300.0</ele>
        <time>2021-08-21T07:00:33Z</time>
      </trkpt>
      <trkpt lat="42.8148340" lon="-5.4561210">
        <ele>1300.0</ele>
        <time>2021-08-21T07:00:34Z</time>
      </trkpt>
      <trkpt lat="42.8148390" lon="-5.4560880">
        <ele>1300.0</ele>
        <time>2021-08-21T07:00:35Z</time>
      </trkpt>
      <trkpt lat="42.8148430" lon="-5.4560570">
        <ele>1300.0</ele>
        <time>2021-08-21T07:00:36Z</time>
      </trkpt>
      <trkpt lat="42.8148460" lon="-5.4560260">
        <ele>1300.0</ele>
        <time>2021-08-21T07:00:37Z</time>
      </trkpt>
      <trkpt lat="42.8148490" lon="-5.4559960">
        <ele>1300.0</ele>
        <time>2021-08-21T07:00:38Z</time>
      </trkpt>
      <trkpt lat="42.8148570" lon="-5.4559470">
        <ele>1300.0</ele>
        <time>2021-08-21T07:00:39Z</time>
      </trkpt>
      <trkpt lat="42.8148600" lon="-5.4559300">
        <ele>1300.0</ele>
        <time>2021-08-21T07:00:40Z</time>
      </trkpt>
      <trkpt lat="42.8148650" lon="-5.4558990">
        <ele>1300.0</ele>
        <time>2021-08-21T07:00:41Z</time>
      </trkpt>
      <trkpt lat="42.8148720" lon="-5.4558660">
        <ele>1300.0</ele>
        <time>2021-08-21T07:00:42Z</time>
      </trkpt>
      <trkpt lat="42.8148780" lon="-5.4558330">
        <ele>1300.0</ele>
        <time>2021-08-21T07:00:43Z</time>
      </trkpt>
      <trkpt lat="42.8148840" lon="-5.4558010">
        <ele>1301.0</ele>
        <time>2021-08-21T07:00:44Z</time>
      </trkpt>
      <trkpt lat="42.8148920" lon="-5.4557690">
        <ele>1301.0</ele>
        <time>2021-08-21T07:00:45Z</time>
      </trkpt>
      <trkpt lat="42.8149000" lon="-5.4557380">
        <ele>1301.0</ele>
        <time>2021-08-21T07:00:46Z</time>
      </trkpt>
      <trkpt lat="42.8149070" lon="-5.4557090">
        <ele>1301.0</ele>
        <time>2021-08-21T07:00:47Z</time>
      </trkpt>
      <trkpt lat="42.8149170" lon="-5.4556790">
        <ele>1301.0</ele>
        <time>2021-08-21T07:00:48Z</time>
      </trkpt>
      <trkpt lat="42.8149260" lon="-5.4556510">
        <ele>1301.0</ele>
        <time>2021-08-21T07:00:49Z</time>
      </trkpt>
      <trkpt lat="42.8149380" lon="-5.4556220">
        <ele>1301.0</ele>
        <time>2021-08-21T07:00:50Z</time>
      </trkpt>
      <trkpt lat="42.8149500" lon="-5.4555910">
        <ele>1301.0</ele>
        <time>2021-08-21T07:00:51Z</time>
      </trkpt>
      <trkpt lat="42.8149620" lon="-5.4555590">
        <ele>1301.0</ele>
        <time>2021-08-21T07:00:52Z</time>
      </trkpt>
      <trkpt lat="42.8149730" lon="-5.4555330">
        <ele>1301.0</ele>
        <time>2021-08-21T07:00:53Z</time>
      </trkpt>
      <trkpt lat="42.8149850" lon="-5.4555050">
        <ele>1301.0</ele>
        <time>2021-08-21T07:00:54Z</time>
      </trkpt>
      <trkpt lat="42.8149990" lon="-5.4554780">
        <ele>1301.0</ele>
        <time>2021-08-21T07:00:55Z</time>
      </trkpt>
      <trkpt lat="42.8150120" lon="-5.4554500">
        <ele>1301.0</ele>
        <time>2021-08-21T07:00:56Z</time>
      </trkpt>
      <trkpt lat="42.8150120" lon="-5.4554500">
        <ele>1301.0</ele>
        <time>2021-08-21T07:00:57Z</time>
      </trkpt>
      <trkpt lat="42.8150390" lon="-5.4553990">
        <ele>1301.0</ele>
        <time>2021-08-21T07:00:58Z</time>
      </trkpt>
      <trkpt lat="42.8150550" lon="-5.4553780">
        <ele>1302.0</ele>
        <time>2021-08-21T07:00:59Z</time>
      </trkpt>
      <trkpt lat="42.8150730" lon="-5.4553540">
        <ele>1302.0</ele>
        <time>2021-08-21T07:01:00Z</time>
      </trkpt>
      <trkpt lat="42.8150910" lon="-5.4553270">
        <ele>1302.0</ele>
        <time>2021-08-21T07:01:01Z</time>
      </trkpt>
      <trkpt lat="42.8151060" lon="-5.4553040">
        <ele>1302.0</ele>
        <time>2021-08-21T07:01:02Z</time>
      </trkpt>
      <trkpt lat="42.8151240" lon="-5.4552800">
        <ele>1302.0</ele>
        <time>2021-08-21T07:01:03Z</time>
      </trkpt>
      <trkpt lat="42.8151460" lon="-5.4552580">
        <ele>1302.0</ele>
        <time>2021-08-21T07:01:04Z</time>
      </trkpt>
      <trkpt lat="42.8151660" lon="-5.4552370">
        <ele>1302.0</ele>
        <time>2021-08-21T07:01:05Z</time>
      </trkpt>
      <trkpt lat="42.8151830" lon="-5.4552140">
        <ele>1302.0</ele>
        <time>2021-08-21T07:01:06Z</time>
      </trkpt>
      <trkpt lat="42.8152010" lon="-5.4551940">
        <ele>1302.0</ele>
        <time>2021-08-21T07:01:07Z</time>
      </trkpt>
      <trkpt lat="42.8152210" lon="-5.4551740">
        <ele>1302.0</ele>
        <time>2021-08-21T07:01:08Z</time>
      </trkpt>
      <trkpt lat="42.8152420" lon="-5.4551510">
        <ele>1302.0</ele>
        <time>2021-08-21T07:01:09Z</time>
      </trkpt>
      <trkpt lat="42.8152630" lon="-5.4551270">
        <ele>1302.0</ele>
        <time>2021-08-21T07:01:10Z</time>
      </trkpt>
      <trkpt lat="42.8152850" lon="-5.4551050">
        <ele>1302.0</ele>
        <time>2021-08-21T07:01:11Z</time>
      </trkpt>
      <trkpt lat="42.8153060" lon="-5.4550820">
        <ele>1302.0</ele>
        <time>2021-08-21T07:01:12Z</time>
      </trkpt>
      <trkpt lat="42.8153270" lon="-5.4550570">
        <ele>1303.0</ele>
        <time>2021-08-21T07:01:13Z</time>
      </trkpt>
      <trkpt lat="42.8153490" lon="-5.4550350">
        <ele>1303.0</ele>
        <time>2021-08-21T07:01:14Z</time>
      </trkpt>
      <trkpt lat="42.8153710" lon="-5.4550110">
        <ele>1303.0</ele>
        <time>2021-08-21T07:01:15Z</time>
      </trkpt>
      <trkpt lat="42.8153950" lon="-5.4549900">
        <ele>1303.0</ele>
        <time>2021-08-21T07:01:16Z</time>
      </trkpt>
      <trkpt lat="42.8154190" lon="-5.4549670">
        <ele>1303.0</ele>
        <time>2021-08-21T07:01:17Z</time>
      </trkpt>
      <trkpt lat="42.8154430" lon="-5.4549460">
        <ele>1303.0</ele>
        <time>2021-08-21T07:01:18Z</time>
      </trkpt>
      <trkpt lat="42.8154670" lon="-5.4549250">
        <ele>1303.0</ele>
        <time>2021-08-21T07:01:19Z</time>
      </trkpt>
      <trkpt lat="42.8154930" lon="-5.4549060">
        <ele>1303.0</ele>
        <time>2021-08-21T07:01:20Z</time>
      </trkpt>
      <trkpt lat="42.8155170" lon="-5.4548870">
        <ele>1303.0</ele>
        <time>2021-08-21T07:01:21Z</time>
      </trkpt>
      <trkpt lat="42.8155400" lon="-5.4548660">
        <ele>1303.0</ele>
        <time>2021-08-21T07:01:22Z</time>
      </trkpt>
      <trkpt lat="42.8155770" lon="-5.4548370">
        <ele>1303.0</ele>
        <time>2021-08-21T07:01:23Z</time>
      </trkpt>
      <trkpt lat="42.8155890" lon="-5.4548280">
        <ele>1303.0</ele>
        <time>2021-08-21T07:01:24Z</time>
      </trkpt>
      <trkpt lat="42.8156130" lon="-5.4548050">
        <ele>1303.0</ele>
        <time>2021-08-21T07:01:25Z</time>
      </trkpt>
      <trkpt lat="42.8156360" lon="-5.4547820">
        <ele>1303.0</ele>
        <time>2021-08-21T07:01:26Z</time>
      </trkpt>
      <trkpt lat="42.8156620" lon="-5.4547630">
        <ele>1303.0</ele>
        <time>2021-08-21T07:01:27Z</time>
      </trkpt>
      <trkpt lat="42.8156860" lon="-5.4547440">
        <ele>1303.0</ele>
        <time>2021-08-21T07:01:28Z</time>
      </trkpt>
      <trkpt lat="42.8157120" lon="-5.4547230">
        <ele>1303.0</ele>
        <time>2021-08-21T07:01:29Z</time>
      </trkpt>
      <trkpt lat="42.8157370" lon="-5.4547020">
        <ele>1303.0</ele>
        <time>2021-08-21T07:01:30Z</time>
      </trkpt>
      <trkpt lat="42.8157620" lon="-5.4546810">
        <ele>1303.0</ele>
        <time>2021-08-21T07:01:31Z</time>
      </trkpt>
      <trkpt lat="42.8157870" lon="-5.4546570">
        <ele>1303.0</ele>
        <time>2021-08-21T07:01:32Z</time>
      </trkpt>
      <trkpt lat="42.8158080" lon="-5.4546330">
        <ele>1303.0</ele>
        <time>2021-08-21T07:01:33Z</time>
      </trkpt>
      <trkpt lat="42.8158320" lon="-5.4546070">
        <ele>1303.0</ele>
        <time>2021-08-21T07:01:34Z</time>
      </trkpt>
      <trkpt lat="42.8158560" lon="-5.4545850">
        <ele>1303.0</ele>
        <time>2021-08-21T07:01:35Z</time>
      </trkpt>
      <trkpt lat="42.8158820" lon="-5.4545650">
        <ele>1303.0</ele>
        <time>2021-08-21T07:01:36Z</time>
      </trkpt>
      <trkpt lat="42.8159080" lon="-5.4545470">
        <ele>1303.0</ele>
        <time>2021-08-21T07:01:37Z</time>
      </trkpt>
      <trkpt lat="42.8159310" lon="-5.4545290">
        <ele>1303.0</ele>
        <time>2021-08-21T07:01:38Z</time>
      </trkpt>
      <trkpt lat="42.8159550" lon="-5.4545130">
        <ele>1303.0</ele>
        <time>2021-08-21T07:01:39Z</time>
      </trkpt>
      <trkpt lat="42.8159770" lon="-5.4544930">
        <ele>1303.0</ele>
        <time>2021-08-21T07:01:40Z</time>
      </trkpt>
      <trkpt lat="42.8160010" lon="-5.4544730">
        <ele>1303.0</ele>
        <time>2021-08-21T07:01:41Z</time>
      </trkpt>
      <trkpt lat="42.8160230" lon="-5.4544530">
        <ele>1303.0</ele>
        <time>2021-08-21T07:01:42Z</time>
      </trkpt>
      <trkpt lat="42.8160470" lon="-5.4544370">
        <ele>1303.0</ele>
        <time>2021-08-21T07:01:43Z</time>
      </trkpt>
      <trkpt lat="42.8160700" lon="-5.4544180">
        <ele>1303.0</ele>
        <time>2021-08-21T07:01:44Z</time>
      </trkpt>
      <trkpt lat="42.8160930" lon="-5.4544030">
        <ele>1303.0</ele>
        <time>2021-08-21T07:01:45Z</time>
      </trkpt>
      <trkpt lat="42.8161190" lon="-5.4543860">
        <ele>1303.0</ele>
        <time>2021-08-21T07:01:46Z</time>
      </trkpt>
      <trkpt lat="42.8161460" lon="-5.4543680">
        <ele>1303.0</ele>
        <time>2021-08-21T07:01:47Z</time>
      </trkpt>
      <trkpt lat="42.8161680" lon="-5.4543500">
        <ele>1303.0</ele>
        <time>2021-08-21T07:01:48Z</time>
      </trkpt>
      <trkpt lat="42.8161920" lon="-5.4543310">
        <ele>1303.0</ele>
        <time>2021-08-21T07:01:49Z</time>
      </trkpt>
      <trkpt lat="42.8162210" lon="-5.4543140">
        <ele>1303.0</ele>
        <time>2021-08-21T07:01:50Z</time>
      </trkpt>
      <trkpt lat="42.8162470" lon="-5.4542910">
        <ele>1303.0</ele>
        <time>2021-08-21T07:01:51Z</time>
      </trkpt>
      <trkpt lat="42.8162670" lon="-5.4542720">
        <ele>1303.0</ele>
        <time>2021-08-21T07:01:52Z</time>
      </trkpt>
      <trkpt lat="42.8162980" lon="-5.4542400">
        <ele>1303.0</ele>
        <time>2021-08-21T07:01:53Z</time>
      </trkpt>
      <trkpt lat="42.8163070" lon="-5.4542310">
        <ele>1302.0</ele>
        <time>2021-08-21T07:01:54Z</time>
      </trkpt>
      <trkpt lat="42.8163310" lon="-5.4542150">
        <ele>1302.0</ele>
        <time>2021-08-21T07:01:55Z</time>
      </trkpt>
      <trkpt lat="42.8163610" lon="-5.4541830">
        <ele>1302.0</ele>
        <time>2021-08-21T07:01:56Z</time>
      </trkpt>
      <trkpt lat="42.8163700" lon="-5.4541720">
        <ele>1302.0</ele>
        <time>2021-08-21T07:01:57Z</time>
      </trkpt>
      <trkpt lat="42.8163930" lon="-5.4541470">
        <ele>1302.0</ele>
        <time>2021-08-21T07:01:58Z</time>
      </trkpt>
      <trkpt lat="42.8164150" lon="-5.4541200">
        <ele>1302.0</ele>
        <time>2021-08-21T07:01:59Z</time>
      </trkpt>
      <trkpt lat="42.8164360" lon="-5.4540980">
        <ele>1302.0</ele>
        <time>2021-08-21T07:02:00Z</time>
      </trkpt>
      <trkpt lat="42.8164600" lon="-5.4540770">
        <ele>1302.0</ele>
        <time>2021-08-21T07:02:01Z</time>
      </trkpt>
      <trkpt lat="42.8164860" lon="-5.4540520">
        <ele>1302.0</ele>
        <time>2021-08-21T07:02:02Z</time>
      </trkpt>
      <trkpt lat="42.8165080" lon="-5.4540250">
        <ele>1302.0</ele>
        <time>2021-08-21T07:02:03Z</time>
      </trkpt>
      <trkpt lat="42.8165280" lon="-5.4539960">
        <ele>1302.0</ele>
        <time>2021-08-21T07:02:04Z</time>
      </trkpt>
      <trkpt lat="42.8165420" lon="-5.4539670">
        <ele>1302.0</ele>
        <time>2021-08-21T07:02:05Z</time>
      </trkpt>
      <trkpt lat="42.8165580" lon="-5.4539360">
        <ele>1302.0</ele>
        <time>2021-08-21T07:02:06Z</time>
      </trkpt>
      <trkpt lat="42.8165730" lon="-5.4539020">
        <ele>1302.0</ele>
        <time>2021-08-21T07:02:07Z</time>
      </trkpt>
      <trkpt lat="42.8165830" lon="-5.4538670">
        <ele>1302.0</ele>
        <time>2021-08-21T07:02:08Z</time>
      </trkpt>
      <trkpt lat="42.8165950" lon="-5.4538320">
        <ele>1302.0</ele>
        <time>2021-08-21T07:02:09Z</time>
      </trkpt>
      <trkpt lat="42.8166080" lon="-5.4537960">
        <ele>1302.0</ele>
        <time>2021-08-21T07:02:10Z</time>
      </trkpt>
      <trkpt lat="42.8166190" lon="-5.4537590">
        <ele>1301.0</ele>
        <time>2021-08-21T07:02:11Z</time>
      </trkpt>
      <trkpt lat="42.8166300" lon="-5.4537200">
        <ele>1301.0</ele>
        <time>2021-08-21T07:02:12Z</time>
      </trkpt>
      <trkpt lat="42.8166380" lon="-5.4536830">
        <ele>1301.0</ele>
        <time>2021-08-21T07:02:13Z</time>
      </trkpt>
      <trkpt lat="42.8166470" lon="-5.4536470">
        <ele>1301.0</ele>
        <time>2021-08-21T07:02:14Z</time>
      </trkpt>
      <trkpt lat="42.8166540" lon="-5.4536090">
        <ele>1301.0</ele>
        <time>2021-08-21T07:02:15Z</time>
      </trkpt>
      <trkpt lat="42.8166600" lon="-5.4535720">
        <ele>1300.0</ele>
        <time>2021-08-21T07:02:16Z</time>
      </trkpt>
      <trkpt lat="42.8166670" lon="-5.4535350">
        <ele>1300.0</ele>
        <time>2021-08-21T07:02:17Z</time>
      </trkpt>
      <trkpt lat="42.8166720" lon="-5.4534970">
        <ele>1300.0</ele>
        <time>2021-08-21T07:02:18Z</time>
      </trkpt>
      <trkpt lat="42.8166770" lon="-5.4534610">
        <ele>1300.0</ele>
        <time>2021-08-21T07:02:19Z</time>
      </trkpt>
      <trkpt lat="42.8166830" lon="-5.4534250">
        <ele>1299.0</ele>
        <time>2021-08-21T07:02:20Z</time>
      </trkpt>
      <trkpt lat="42.8166880" lon="-5.4533890">
        <ele>1299.0</ele>
        <time>2021-08-21T07:02:21Z</time>
      </trkpt>
      <trkpt lat="42.8166910" lon="-5.4533510">
        <ele>1299.0</ele>
        <time>2021-08-21T07:02:22Z</time>
      </trkpt>
      <trkpt lat="42.8166940" lon="-5.4533110">
        <ele>1299.0</ele>
        <time>2021-08-21T07:02:23Z</time>
      </trkpt>
      <trkpt lat="42.8167050" lon="-5.4532570">
        <ele>1299.0</ele>
        <time>2021-08-21T07:02:24Z</time>
      </trkpt>
      <trkpt lat="42.8167080" lon="-5.4532390">
        <ele>1298.0</ele>
        <time>2021-08-21T07:02:25Z</time>
      </trkpt>
      <trkpt lat="42.8167130" lon="-5.4532020">
        <ele>1298.0</ele>
        <time>2021-08-21T07:02:26Z</time>
      </trkpt>
      <trkpt lat="42.8167230" lon="-5.4531460">
        <ele>1298.0</ele>
        <time>2021-08-21T07:02:27Z</time>
      </trkpt>
      <trkpt lat="42.8167260" lon="-5.4531270">
        <ele>1297.0</ele>
        <time>2021-08-21T07:02:28Z</time>
      </trkpt>
      <trkpt lat="42.8167320" lon="-5.4530910">
        <ele>1297.0</ele>
        <time>2021-08-21T07:02:29Z</time>
      </trkpt>
      <trkpt lat="42.8167400" lon="-5.4530550">
        <ele>1297.0</ele>
        <time>2021-08-21T07:02:30Z</time>
      </trkpt>
      <trkpt lat="42.8167530" lon="-5.4530040">
        <ele>1297.0</ele>
        <time>2021-08-21T07:02:31Z</time>
      </trkpt>
      <trkpt lat="42.8167560" lon="-5.4529870">
        <ele>1297.0</ele>
        <time>2021-08-21T07:02:32Z</time>
      </trkpt>
      <trkpt lat="42.8167620" lon="-5.4529520">
        <ele>1296.0</ele>
        <time>2021-08-21T07:02:33Z</time>
      </trkpt>
      <trkpt lat="42.8167680" lon="-5.4529160">
        <ele>1296.0</ele>
        <time>2021-08-21T07:02:34Z</time>
      </trkpt>
      <trkpt lat="42.8167780" lon="-5.4528640">
        <ele>1296.0</ele>
        <time>2021-08-21T07:02:35Z</time>
      </trkpt>
      <trkpt lat="42.8167810" lon="-5.4528470">
        <ele>1296.0</ele>
        <time>2021-08-21T07:02:36Z</time>
      </trkpt>
      <trkpt lat="42.8167910" lon="-5.4528120">
        <ele>1296.0</ele>
        <time>2021-08-21T07:02:37Z</time>
      </trkpt>
      <trkpt lat="42.8168010" lon="-5.4527770">
        <ele>1296.0</ele>
        <time>2021-08-21T07:02:38Z</time>
      </trkpt>
      <trkpt lat="42.8168100" lon="-5.4527440">
        <ele>1296.0</ele>
        <time>2021-08-21T07:02:39Z</time>
      </trkpt>
      <trkpt lat="42.8168210" lon="-5.4527080">
        <ele>1295.0</ele>
        <time>2021-08-21T07:02:40Z</time>
      </trkpt>
      <trkpt lat="42.8168330" lon="-5.4526720">
        <ele>1295.0</ele>
        <time>2021-08-21T07:02:41Z</time>
      </trkpt>
      <trkpt lat="42.8168420" lon="-5.4526340">
        <ele>1295.0</ele>
        <time>2021-08-21T07:02:42Z</time>
      </trkpt>
      <trkpt lat="42.8168520" lon="-5.4525830">
        <ele>1295.0</ele>
        <time>2021-08-21T07:02:43Z</time>
      </trkpt>
      <trkpt lat="42.8168560" lon="-5.4525660">
        <ele>1295.0</ele>
        <time>2021-08-21T07:02:44Z</time>
      </trkpt>
      <trkpt lat="42.8168620" lon="-5.4525310">
        <ele>1295.0</ele>
        <time>2021-08-21T07:02:45Z</time>
      </trkpt>
      <trkpt lat="42.8168680" lon="-5.4524960">
        <ele>1295.0</ele>
        <time>2021-08-21T07:02:46Z</time>
      </trkpt>
      <trkpt lat="42.8168700" lon="-5.4524610">
        <ele>1294.0</ele>
        <time>2021-08-21T07:02:47Z</time>
      </trkpt>
      <trkpt lat="42.8168730" lon="-5.4524240">
        <ele>1294.0</ele>
        <time>2021-08-21T07:02:48Z</time>
      </trkpt>
      <trkpt lat="42.8168760" lon="-5.4523870">
        <ele>1294.0</ele>
        <time>2021-08-21T07:02:49Z</time>
      </trkpt>
      <trkpt lat="42.8168770" lon="-5.4523500">
        <ele>1294.0</ele>
        <time>2021-08-21T07:02:50Z</time>
      </trkpt>
      <trkpt lat="42.8168750" lon="-5.4523140">
        <ele>1294.0</ele>
        <time>2021-08-21T07:02:51Z</time>
      </trkpt>
      <trkpt lat="42.8168740" lon="-5.4522760">
        <ele>1293.0</ele>
        <time>2021-08-21T07:02:52Z</time>
      </trkpt>
      <trkpt lat="42.8168700" lon="-5.4522390">
        <ele>1293.0</ele>
        <time>2021-08-21T07:02:53Z</time>
      </trkpt>
      <trkpt lat="42.8168640" lon="-5.4522020">
        <ele>1293.0</ele>
        <time>2021-08-21T07:02:54Z</time>
      </trkpt>
      <trkpt lat="42.8168580" lon="-5.4521650">
        <ele>1293.0</ele>
        <time>2021-08-21T07:02:55Z</time>
      </trkpt>
      <trkpt lat="42.8168470" lon="-5.4521300">
        <ele>1293.0</ele>
        <time>2021-08-21T07:02:56Z</time>
      </trkpt>
      <trkpt lat="42.8168350" lon="-5.4520980">
        <ele>1293.0</ele>
        <time>2021-08-21T07:02:57Z</time>
      </trkpt>
      <trkpt lat="42.8168220" lon="-5.4520660">
        <ele>1292.0</ele>
        <time>2021-08-21T07:02:58Z</time>
      </trkpt>
      <trkpt lat="42.8168090" lon="-5.4520320">
        <ele>1292.0</ele>
        <time>2021-08-21T07:02:59Z</time>
      </trkpt>
      <trkpt lat="42.8167960" lon="-5.4519970">
        <ele>1292.0</ele>
        <time>2021-08-21T07:03:00Z</time>
      </trkpt>
      <trkpt lat="42.8167830" lon="-5.4519640">
        <ele>1292.0</ele>
        <time>2021-08-21T07:03:01Z</time>
      </trkpt>
      <trkpt lat="42.8167670" lon="-5.4519340">
        <ele>1292.0</ele>
        <time>2021-08-21T07:03:02Z</time>
      </trkpt>
      <trkpt lat="42.8167520" lon="-5.4519030">
        <ele>1292.0</ele>
        <time>2021-08-21T07:03:03Z</time>
      </trkpt>
      <trkpt lat="42.8167350" lon="-5.4518730">
        <ele>1292.0</ele>
        <time>2021-08-21T07:03:04Z</time>
      </trkpt>
      <trkpt lat="42.8167180" lon="-5.4518430">
        <ele>1291.0</ele>
        <time>2021-08-21T07:03:05Z</time>
      </trkpt>
      <trkpt lat="42.8167000" lon="-5.4518140">
        <ele>1291.0</ele>
        <time>2021-08-21T07:03:06Z</time>
      </trkpt>
      <trkpt lat="42.8166840" lon="-5.4517820">
        <ele>1291.0</ele>
        <time>2021-08-21T07:03:07Z</time>
      </trkpt>
      <trkpt lat="42.8166680" lon="-5.4517500">
        <ele>1291.0</ele>
        <time>2021-08-21T07:03:08Z</time>
      </trkpt>
      <trkpt lat="42.8166540" lon="-5.4517210">
        <ele>1291.0</ele>
        <time>2021-08-21T07:03:09Z</time>
      </trkpt>
      <trkpt lat="42.8166400" lon="-5.4516930">
        <ele>1291.0</ele>
        <time>2021-08-21T07:03:10Z</time>
      </trkpt>
      <trkpt lat="42.8166230" lon="-5.4516630">
        <ele>1291.0</ele>
        <time>2021-08-21T07:03:11Z</time>
      </trkpt>
      <trkpt lat="42.8166080" lon="-5.4516340">
        <ele>1291.0</ele>
        <time>2021-08-21T07:03:12Z</time>
      </trkpt>
      <trkpt lat="42.8165940" lon="-5.4516050">
        <ele>1291.0</ele>
        <time>2021-08-21T07:03:13Z</time>
      </trkpt>
      <trkpt lat="42.8165810" lon="-5.4515750">
        <ele>1290.0</ele>
        <time>2021-08-21T07:03:14Z</time>
      </trkpt>
      <trkpt lat="42.8165560" lon="-5.4515300">
        <ele>1290.0</ele>
        <time>2021-08-21T07:03:15Z</time>
      </trkpt>
      <trkpt lat="42.8165470" lon="-5.4515170">
        <ele>1290.0</ele>
        <time>2021-08-21T07:03:16Z</time>
      </trkpt>
      <trkpt lat="42.8165330" lon="-5.4514880">
        <ele>1290.0</ele>
        <time>2021-08-21T07:03:17Z</time>
      </trkpt>
      <trkpt lat="42.8165160" lon="-5.4514600">
        <ele>1290.0</ele>
        <time>2021-08-21T07:03:18Z</time>
      </trkpt>
      <trkpt lat="42.8165000" lon="-5.4514340">
        <ele>1290.0</ele>
        <time>2021-08-21T07:03:19Z</time>
      </trkpt>
      <trkpt lat="42.8164820" lon="-5.4514080">
        <ele>1290.0</ele>
        <time>2021-08-21T07:03:20Z</time>
      </trkpt>
      <trkpt lat="42.8164640" lon="-5.4513800">
        <ele>1290.0</ele>
        <time>2021-08-21T07:03:21Z</time>
      </trkpt>
      <trkpt lat="42.8164480" lon="-5.4513540">
        <ele>1290.0</ele>
        <time>2021-08-21T07:03:22Z</time>
      </trkpt>
      <trkpt lat="42.8164480" lon="-5.4513540">
        <ele>1289.0</ele>
        <time>2021-08-21T07:03:23Z</time>
      </trkpt>
      <trkpt lat="42.8164060" lon="-5.4512810">
        <ele>1289.0</ele>
        <time>2021-08-21T07:03:24Z</time>
      </trkpt>
      <trkpt lat="42.8163970" lon="-5.4512670">
        <ele>1289.0</ele>
        <time>2021-08-21T07:03:25Z</time>
      </trkpt>
      <trkpt lat="42.8163820" lon="-5.4512360">
        <ele>1289.0</ele>
        <time>2021-08-21T07:03:26Z</time>
      </trkpt>
      <trkpt lat="42.8163660" lon="-5.4512100">
        <ele>1289.0</ele>
        <time>2021-08-21T07:03:27Z</time>
      </trkpt>
      <trkpt lat="42.8163430" lon="-5.4511710">
        <ele>1289.0</ele>
        <time>2021-08-21T07:03:28Z</time>
      </trkpt>
      <trkpt lat="42.8163350" lon="-5.4511580">
        <ele>1289.0</ele>
        <time>2021-08-21T07:03:29Z</time>
      </trkpt>
      <trkpt lat="42.8163210" lon="-5.4511300">
        <ele>1289.0</ele>
        <time>2021-08-21T07:03:30Z</time>
      </trkpt>
      <trkpt lat="42.8163040" lon="-5.4511040">
        <ele>1289.0</ele>
        <time>2021-08-21T07:03:31Z</time>
      </trkpt>
      <trkpt lat="42.8162840" lon="-5.4510780">
        <ele>1288.0</ele>
        <time>2021-08-21T07:03:32Z</time>
      </trkpt>
      <trkpt lat="42.8162650" lon="-5.4510520">
        <ele>1288.0</ele>
        <time>2021-08-21T07:03:33Z</time>
      </trkpt>
      <trkpt lat="42.8162480" lon="-5.4510280">
        <ele>1288.0</ele>
        <time>2021-08-21T07:03:34Z</time>
      </trkpt>
      <trkpt lat="42.8162310" lon="-5.4510020">
        <ele>1288.0</ele>
        <time>2021-08-21T07:03:35Z</time>
      </trkpt>
      <trkpt lat="42.8162080" lon="-5.4509610">
        <ele>1288.0</ele>
        <time>2021-08-21T07:03:36Z</time>
      </trkpt>
      <trkpt lat="42.8161990" lon="-5.4509480">
        <ele>1288.0</ele>
        <time>2021-08-21T07:03:37Z</time>
      </trkpt>
      <trkpt lat="42.8161740" lon="-5.4509050">
        <ele>1288.0</ele>
        <time>2021-08-21T07:03:38Z</time>
      </trkpt>
      <trkpt lat="42.8161660" lon="-5.4508910">
        <ele>1288.0</ele>
        <time>2021-08-21T07:03:39Z</time>
      </trkpt>
      <trkpt lat="42.8161490" lon="-5.4508640">
        <ele>1288.0</ele>
        <time>2021-08-21T07:03:40Z</time>
      </trkpt>
      <trkpt lat="42.8161290" lon="-5.4508370">
        <ele>1288.0</ele>
        <time>2021-08-21T07:03:41Z</time>
      </trkpt>
      <trkpt lat="42.8161120" lon="-5.4508110">
        <ele>1288.0</ele>
        <time>2021-08-21T07:03:42Z</time>
      </trkpt>
      <trkpt lat="42.8160970" lon="-5.4507860">
        <ele>1288.0</ele>
        <time>2021-08-21T07:03:43Z</time>
      </trkpt>
      <trkpt lat="42.8160820" lon="-5.4507610">
        <ele>1287.0</ele>
        <time>2021-08-21T07:03:44Z</time>
      </trkpt>
      <trkpt lat="42.8160650" lon="-5.4507350">
        <ele>1287.0</ele>
        <time>2021-08-21T07:03:45Z</time>
      </trkpt>
      <trkpt lat="42.8160480" lon="-5.4507100">
        <ele>1287.0</ele>
        <time>2021-08-21T07:03:46Z</time>
      </trkpt>
      <trkpt lat="42.8160320" lon="-5.4506840">
        <ele>1287.0</ele>
        <time>2021-08-21T07:03:47Z</time>
      </trkpt>
      <trkpt lat="42.8160180" lon="-5.4506570">
        <ele>1287.0</ele>
        <time>2021-08-21T07:03:48Z</time>
      </trkpt>
      <trkpt lat="42.8160030" lon="-5.4506330">
        <ele>1287.0</ele>
        <time>2021-08-21T07:03:49Z</time>
      </trkpt>
      <trkpt lat="42.8159890" lon="-5.4506070">
        <ele>1286.0</ele>
        <time>2021-08-21T07:03:50Z</time>
      </trkpt>
      <trkpt lat="42.8159720" lon="-5.4505840">
        <ele>1286.0</ele>
        <time>2021-08-21T07:03:51Z</time>
      </trkpt>
      <trkpt lat="42.8159560" lon="-5.4505610">
        <ele>1286.0</ele>
        <time>2021-08-21T07:03:52Z</time>
      </trkpt>
      <trkpt lat="42.8159400" lon="-5.4505380">
        <ele>1286.0</ele>
        <time>2021-08-21T07:03:53Z</time>
      </trkpt>
      <trkpt lat="42.8159240" lon="-5.4505130">
        <ele>1286.0</ele>
        <time>2021-08-21T07:03:54Z</time>
      </trkpt>
      <trkpt lat="42.8159070" lon="-5.4504880">
        <ele>1286.0</ele>
        <time>2021-08-21T07:03:55Z</time>
      </trkpt>
      <trkpt lat="42.8158920" lon="-5.4504640">
        <ele>1286.0</ele>
        <time>2021-08-21T07:03:56Z</time>
      </trkpt>
      <trkpt lat="42.8158750" lon="-5.4504420">
        <ele>1286.0</ele>
        <time>2021-08-21T07:03:57Z</time>
      </trkpt>
      <trkpt lat="42.8158570" lon="-5.4504170">
        <ele>1286.0</ele>
        <time>2021-08-21T07:03:58Z</time>
      </trkpt>
      <trkpt lat="42.8158390" lon="-5.4503940">
        <ele>1286.0</ele>
        <time>2021-08-21T07:03:59Z</time>
      </trkpt>
      <trkpt lat="42.8158210" lon="-5.4503710">
        <ele>1286.0</ele>
        <time>2021-08-21T07:04:00Z</time>
      </trkpt>
      <trkpt lat="42.8158050" lon="-5.4503500">
        <ele>1285.0</ele>
        <time>2021-08-21T07:04:01Z</time>
      </trkpt>
      <trkpt lat="42.8157800" lon="-5.4503150">
        <ele>1285.0</ele>
        <time>2021-08-21T07:04:02Z</time>
      </trkpt>
      <trkpt lat="42.8157710" lon="-5.4503040">
        <ele>1285.0</ele>
        <time>2021-08-21T07:04:03Z</time>
      </trkpt>
      <trkpt lat="42.8157540" lon="-5.4502840">
        <ele>1285.0</ele>
        <time>2021-08-21T07:04:04Z</time>
      </trkpt>
      <trkpt lat="42.8157370" lon="-5.4502640">
        <ele>1285.0</ele>
        <time>2021-08-21T07:04:05Z</time>
      </trkpt>
      <trkpt lat="42.8157210" lon="-5.4502420">
        <ele>1285.0</ele>
        <time>2021-08-21T07:04:06Z</time>
      </trkpt>
      <trkpt lat="42.8157040" lon="-5.4502200">
        <ele>1285.0</ele>
        <time>2021-08-21T07:04:07Z</time>
      </trkpt>
      <trkpt lat="42.8156880" lon="-5.4501990">
        <ele>1286.0</ele>
        <time>2021-08-21T07:04:08Z</time>
      </trkpt>
      <trkpt lat="42.8156720" lon="-5.4501780">
        <ele>1286.0</ele>
        <time>2021-08-21T07:04:09Z</time>
      </trkpt>
      <trkpt lat="42.8156570" lon="-5.4501570">
        <ele>1286.0</ele>
        <time>2021-08-21T07:04:10Z</time>
      </trkpt>
      <trkpt lat="42.8156410" lon="-5.4501380">
        <ele>1286.0</ele>
        <time>2021-08-21T07:04:11Z</time>
      </trkpt>
      <trkpt lat="42.8156240" lon="-5.4501200">
        <ele>1286.0</ele>
        <time>2021-08-21T07:04:12Z</time>
      </trkpt>
      <trkpt lat="42.8156090" lon="-5.4501020">
        <ele>1286.0</ele>
        <time>2021-08-21T07:04:13Z</time>
      </trkpt>
      <trkpt lat="42.8155950" lon="-5.4500850">
        <ele>1286.0</ele>
        <time>2021-08-21T07:04:14Z</time>
      </trkpt>
      <trkpt lat="42.8155780" lon="-5.4500650">
        <ele>1285.0</ele>
        <time>2021-08-21T07:04:15Z</time>
      </trkpt>
      <trkpt lat="42.8155630" lon="-5.4500430">
        <ele>1285.0</ele>
        <time>2021-08-21T07:04:16Z</time>
      </trkpt>
      <trkpt lat="42.8155500" lon="-5.4500190">
        <ele>1285.0</ele>
        <time>2021-08-21T07:04:17Z</time>
      </trkpt>
      <trkpt lat="42.8155330" lon="-5.4499950">
        <ele>1285.0</ele>
        <time>2021-08-21T07:04:18Z</time>
      </trkpt>
      <trkpt lat="42.8155160" lon="-5.4499730">
        <ele>1285.0</ele>
        <time>2021-08-21T07:04:19Z</time>
      </trkpt>
      <trkpt lat="42.8154980" lon="-5.4499530">
        <ele>1285.0</ele>
        <time>2021-08-21T07:04:20Z</time>
      </trkpt>
      <trkpt lat="42.8154810" lon="-5.4499320">
        <ele>1286.0</ele>
        <time>2021-08-21T07:04:21Z</time>
      </trkpt>
      <trkpt lat="42.8154640" lon="-5.4499120">
        <ele>1286.0</ele>
        <time>2021-08-21T07:04:22Z</time>
      </trkpt>
      <trkpt lat="42.8154480" lon="-5.4498920">
        <ele>1286.0</ele>
        <time>2021-08-21T07:04:23Z</time>
      </trkpt>
      <trkpt lat="42.8154320" lon="-5.4498700">
        <ele>1286.0</ele>
        <time>2021-08-21T07:04:24Z</time>
      </trkpt>
      <trkpt lat="42.8154150" lon="-5.4498460">
        <ele>1286.0</ele>
        <time>2021-08-21T07:04:25Z</time>
      </trkpt>
      <trkpt lat="42.8153990" lon="-5.4498220">
        <ele>1286.0</ele>
        <time>2021-08-21T07:04:26Z</time>
      </trkpt>
      <trkpt lat="42.8153810" lon="-5.4498000">
        <ele>1286.0</ele>
        <time>2021-08-21T07:04:27Z</time>
      </trkpt>
      <trkpt lat="42.8153650" lon="-5.4497780">
        <ele>1286.0</ele>
        <time>2021-08-21T07:04:28Z</time>
      </trkpt>
      <trkpt lat="42.8153520" lon="-5.4497550">
        <ele>1286.0</ele>
        <time>2021-08-21T07:04:29Z</time>
      </trkpt>
      <trkpt lat="42.8153350" lon="-5.4497310">
        <ele>1286.0</ele>
        <time>2021-08-21T07:04:30Z</time>
      </trkpt>
      <trkpt lat="42.8153190" lon="-5.4497050">
        <ele>1286.0</ele>
        <time>2021-08-21T07:04:31Z</time>
      </trkpt>
      <trkpt lat="42.8153040" lon="-5.4496800">
        <ele>1286.0</ele>
        <time>2021-08-21T07:04:32Z</time>
      </trkpt>
      <trkpt lat="42.8152820" lon="-5.4496390">
        <ele>1286.0</ele>
        <time>2021-08-21T07:04:33Z</time>
      </trkpt>
      <trkpt lat="42.8152740" lon="-5.4496260">
        <ele>1286.0</ele>
        <time>2021-08-21T07:04:34Z</time>
      </trkpt>
      <trkpt lat="42.8152580" lon="-5.4496010">
        <ele>1286.0</ele>
        <time>2021-08-21T07:04:35Z</time>
      </trkpt>
      <trkpt lat="42.8152420" lon="-5.4495730">
        <ele>1286.0</ele>
        <time>2021-08-21T07:04:36Z</time>
      </trkpt>
      <trkpt lat="42.8152270" lon="-5.4495480">
        <ele>1286.0</ele>
        <time>2021-08-21T07:04:37Z</time>
      </trkpt>
      <trkpt lat="42.8152040" lon="-5.4495110">
        <ele>1286.0</ele>
        <time>2021-08-21T07:04:38Z</time>
      </trkpt>
      <trkpt lat="42.8151970" lon="-5.4494980">
        <ele>1285.0</ele>
        <time>2021-08-21T07:04:39Z</time>
      </trkpt>
      <trkpt lat="42.8151820" lon="-5.4494720">
        <ele>1286.0</ele>
        <time>2021-08-21T07:04:40Z</time>
      </trkpt>
      <trkpt lat="42.8151600" lon="-5.4494280">
        <ele>1286.0</ele>
        <time>2021-08-21T07:04:41Z</time>
      </trkpt>
      <trkpt lat="42.8151530" lon="-5.4494150">
        <ele>1286.0</ele>
        <time>2021-08-21T07:04:42Z</time>
      </trkpt>
      <trkpt lat="42.8151400" lon="-5.4493860">
        <ele>1286.0</ele>
        <time>2021-08-21T07:04:43Z</time>
      </trkpt>
      <trkpt lat="42.8151270" lon="-5.4493560">
        <ele>1286.0</ele>
        <time>2021-08-21T07:04:44Z</time>
      </trkpt>
      <trkpt lat="42.8151130" lon="-5.4493260">
        <ele>1286.0</ele>
        <time>2021-08-21T07:04:45Z</time>
      </trkpt>
      <trkpt lat="42.8150990" lon="-5.4492960">
        <ele>1286.0</ele>
        <time>2021-08-21T07:04:46Z</time>
      </trkpt>
      <trkpt lat="42.8150850" lon="-5.4492650">
        <ele>1286.0</ele>
        <time>2021-08-21T07:04:47Z</time>
      </trkpt>
      <trkpt lat="42.8150720" lon="-5.4492330">
        <ele>1286.0</ele>
        <time>2021-08-21T07:04:48Z</time>
      </trkpt>
      <trkpt lat="42.8150600" lon="-5.4492030">
        <ele>1286.0</ele>
        <time>2021-08-21T07:04:49Z</time>
      </trkpt>
      <trkpt lat="42.8150450" lon="-5.4491580">
        <ele>1286.0</ele>
        <time>2021-08-21T07:04:50Z</time>
      </trkpt>
      <trkpt lat="42.8150400" lon="-5.4491440">
        <ele>1286.0</ele>
        <time>2021-08-21T07:04:51Z</time>
      </trkpt>
      <trkpt lat="42.8150290" lon="-5.4491140">
        <ele>1286.0</ele>
        <time>2021-08-21T07:04:52Z</time>
      </trkpt>
      <trkpt lat="42.8150140" lon="-5.4490660">
        <ele>1286.0</ele>
        <time>2021-08-21T07:04:53Z</time>
      </trkpt>
      <trkpt lat="42.8150080" lon="-5.4490490">
        <ele>1286.0</ele>
        <time>2021-08-21T07:04:54Z</time>
      </trkpt>
      <trkpt lat="42.8149980" lon="-5.4490160">
        <ele>1286.0</ele>
        <time>2021-08-21T07:04:55Z</time>
      </trkpt>
      <trkpt lat="42.8149890" lon="-5.4489840">
        <ele>1286.0</ele>
        <time>2021-08-21T07:04:56Z</time>
      </trkpt>
      <trkpt lat="42.8149790" lon="-5.4489490">
        <ele>1286.0</ele>
        <time>2021-08-21T07:04:57Z</time>
      </trkpt>
      <trkpt lat="42.8149730" lon="-5.4489160">
        <ele>1286.0</ele>
        <time>2021-08-21T07:04:58Z</time>
      </trkpt>
      <trkpt lat="42.8149660" lon="-5.4488800">
        <ele>1286.0</ele>
        <time>2021-08-21T07:04:59Z</time>
      </trkpt>
      <trkpt lat="42.8149570" lon="-5.4488440">
        <ele>1286.0</ele>
        <time>2021-08-21T07:05:00Z</time>
      </trkpt>
      <trkpt lat="42.8149480" lon="-5.4488110">
        <ele>1286.0</ele>
        <time>2021-08-21T07:05:01Z</time>
      </trkpt>
      <trkpt lat="42.8149390" lon="-5.4487760">
        <ele>1286.0</ele>
        <time>2021-08-21T07:05:02Z</time>
      </trkpt>
      <trkpt lat="42.8149340" lon="-5.4487440">
        <ele>1286.0</ele>
        <time>2021-08-21T07:05:03Z</time>
      </trkpt>
      <trkpt lat="42.8149260" lon="-5.4487120">
        <ele>1286.0</ele>
        <time>2021-08-21T07:05:04Z</time>
      </trkpt>
      <trkpt lat="42.8149170" lon="-5.4486800">
        <ele>1286.0</ele>
        <time>2021-08-21T07:05:05Z</time>
      </trkpt>
      <trkpt lat="42.8149080" lon="-5.4486460">
        <ele>1286.0</ele>
        <time>2021-08-21T07:05:06Z</time>
      </trkpt>
      <trkpt lat="42.8148990" lon="-5.4486110">
        <ele>1286.0</ele>
        <time>2021-08-21T07:05:07Z</time>
      </trkpt>
      <trkpt lat="42.8148890" lon="-5.4485770">
        <ele>1286.0</ele>
        <time>2021-08-21T07:05:08Z</time>
      </trkpt>
      <trkpt lat="42.8148800" lon="-5.4485430">
        <ele>1286.0</ele>
        <time>2021-08-21T07:05:09Z</time>
      </trkpt>
      <trkpt lat="42.8148760" lon="-5.4485090">
        <ele>1286.0</ele>
        <time>2021-08-21T07:05:10Z</time>
      </trkpt>
      <trkpt lat="42.8148750" lon="-5.4484730">
        <ele>1286.0</ele>
        <time>2021-08-21T07:05:11Z</time>
      </trkpt>
      <trkpt lat="42.8148780" lon="-5.4484370">
        <ele>1286.0</ele>
        <time>2021-08-21T07:05:12Z</time>
      </trkpt>
      <trkpt lat="42.8148830" lon="-5.4484030">
        <ele>1286.0</ele>
        <time>2021-08-21T07:05:13Z</time>
      </trkpt>
      <trkpt lat="42.8148920" lon="-5.4483760">
        <ele>1286.0</ele>
        <time>2021-08-21T07:05:14Z</time>
      </trkpt>
      <trkpt lat="42.8149070" lon="-5.4483600">
        <ele>1285.0</ele>
        <time>2021-08-21T07:05:15Z</time>
      </trkpt>
      <trkpt lat="42.8149300" lon="-5.4483450">
        <ele>1285.0</ele>
        <time>2021-08-21T07:05:16Z</time>
      </trkpt>
      <trkpt lat="42.8149500" lon="-5.4483300">
        <ele>1286.0</ele>
        <time>2021-08-21T07:05:17Z</time>
      </trkpt>
      <trkpt lat="42.8149760" lon="-5.4483190">
        <ele>1286.0</ele>
        <time>2021-08-21T07:05:18Z</time>
      </trkpt>
      <trkpt lat="42.8150050" lon="-5.4483230">
        <ele>1286.0</ele>
        <time>2021-08-21T07:05:19Z</time>
      </trkpt>
      <trkpt lat="42.8150340" lon="-5.4483360">
        <ele>1285.0</ele>
        <time>2021-08-21T07:05:20Z</time>
      </trkpt>
      <trkpt lat="42.8150610" lon="-5.4483520">
        <ele>1285.0</ele>
        <time>2021-08-21T07:05:21Z</time>
      </trkpt>
      <trkpt lat="42.8150840" lon="-5.4483690">
        <ele>1285.0</ele>
        <time>2021-08-21T07:05:22Z</time>
      </trkpt>
      <trkpt lat="42.8151100" lon="-5.4483880">
        <ele>1285.0</ele>
        <time>2021-08-21T07:05:23Z</time>
      </trkpt>
      <trkpt lat="42.8151360" lon="-5.4484080">
        <ele>1285.0</ele>
        <time>2021-08-21T07:05:24Z</time>
      </trkpt>
      <trkpt lat="42.8151610" lon="-5.4484270">
        <ele>1285.0</ele>
        <time>2021-08-21T07:05:25Z</time>
      </trkpt>
      <trkpt lat="42.8151880" lon="-5.4484470">
        <ele>1285.0</ele>
        <time>2021-08-21T07:05:26Z</time>
      </trkpt>
      <trkpt lat="42.8152130" lon="-5.4484660">
        <ele>1285.0</ele>
        <time>2021-08-21T07:05:27Z</time>
      </trkpt>
      <trkpt lat="42.8152370" lon="-5.4484860">
        <ele>1285.0</ele>
        <time>2021-08-21T07:05:28Z</time>
      </trkpt>
      <trkpt lat="42.8152630" lon="-5.4485060">
        <ele>1285.0</ele>
        <time>2021-08-21T07:05:29Z</time>
      </trkpt>
      <trkpt lat="42.8152880" lon="-5.4485270">
        <ele>1285.0</ele>
        <time>2021-08-21T07:05:30Z</time>
      </trkpt>
      <trkpt lat="42.8153100" lon="-5.4485480">
        <ele>1285.0</ele>
        <time>2021-08-21T07:05:31Z</time>
      </trkpt>
      <trkpt lat="42.8153490" lon="-5.4485770">
        <ele>1285.0</ele>
        <time>2021-08-21T07:05:32Z</time>
      </trkpt>
      <trkpt lat="42.8153620" lon="-5.4485870">
        <ele>1284.0</ele>
        <time>2021-08-21T07:05:33Z</time>
      </trkpt>
      <trkpt lat="42.8153850" lon="-5.4486090">
        <ele>1284.0</ele>
        <time>2021-08-21T07:05:34Z</time>
      </trkpt>
      <trkpt lat="42.8154090" lon="-5.4486310">
        <ele>1284.0</ele>
        <time>2021-08-21T07:05:35Z</time>
      </trkpt>
      <trkpt lat="42.8154410" lon="-5.4486640">
        <ele>1284.0</ele>
        <time>2021-08-21T07:05:36Z</time>
      </trkpt>
      <trkpt lat="42.8154520" lon="-5.4486750">
        <ele>1284.0</ele>
        <time>2021-08-21T07:05:37Z</time>
      </trkpt>
      <trkpt lat="42.8154820" lon="-5.4487090">
        <ele>1284.0</ele>
        <time>2021-08-21T07:05:38Z</time>
      </trkpt>
      <trkpt lat="42.8154930" lon="-5.4487210">
        <ele>1284.0</ele>
        <time>2021-08-21T07:05:39Z</time>
      </trkpt>
      <trkpt lat="42.8155140" lon="-5.4487470">
        <ele>1284.0</ele>
        <time>2021-08-21T07:05:40Z</time>
      </trkpt>
      <trkpt lat="42.8155340" lon="-5.4487720">
        <ele>1284.0</ele>
        <time>2021-08-21T07:05:41Z</time>
      </trkpt>
      <trkpt lat="42.8155540" lon="-5.4487990">
        <ele>1284.0</ele>
        <time>2021-08-21T07:05:42Z</time>
      </trkpt>
      <trkpt lat="42.8155730" lon="-5.4488250">
        <ele>1283.0</ele>
        <time>2021-08-21T07:05:43Z</time>
      </trkpt>
      <trkpt lat="42.8155920" lon="-5.4488540">
        <ele>1283.0</ele>
        <time>2021-08-21T07:05:44Z</time>
      </trkpt>
      <trkpt lat="42.8156090" lon="-5.4488830">
        <ele>1283.0</ele>
        <time>2021-08-21T07:05:45Z</time>
      </trkpt>
      <trkpt lat="42.8156340" lon="-5.4489300">
        <ele>1283.0</ele>
        <time>2021-08-21T07:05:46Z</time>
      </trkpt>
      <trkpt lat="42.8156440" lon="-5.4489460">
        <ele>1283.0</ele>
        <time>2021-08-21T07:05:47Z</time>
      </trkpt>
      <trkpt lat="42.8156630" lon="-5.4489760">
        <ele>1283.0</ele>
        <time>2021-08-21T07:05:48Z</time>
      </trkpt>
      <trkpt lat="42.8156810" lon="-5.4490040">
        <ele>1283.0</ele>
        <time>2021-08-21T07:05:49Z</time>
      </trkpt>
      <trkpt lat="42.8156990" lon="-5.4490320">
        <ele>1282.0</ele>
        <time>2021-08-21T07:05:50Z</time>
      </trkpt>
      <trkpt lat="42.8157270" lon="-5.4490760">
        <ele>1282.0</ele>
        <time>2021-08-21T07:05:51Z</time>
      </trkpt>
      <trkpt lat="42.8157360" lon="-5.4490910">
        <ele>1282.0</ele>
        <time>2021-08-21T07:05:52Z</time>
      </trkpt>
      <trkpt lat="42.8157520" lon="-5.4491210">
        <ele>1282.0</ele>
        <time>2021-08-21T07:05:53Z</time>
      </trkpt>
      <trkpt lat="42.8157690" lon="-5.4491510">
        <ele>1282.0</ele>
        <time>2021-08-21T07:05:54Z</time>
      </trkpt>
      <trkpt lat="42.8157850" lon="-5.4491840">
        <ele>1282.0</ele>
        <time>2021-08-21T07:05:55Z</time>
      </trkpt>
      <trkpt lat="42.8157980" lon="-5.4492200">
        <ele>1282.0</ele>
        <time>2021-08-21T07:05:56Z</time>
      </trkpt>
      <trkpt lat="42.8158110" lon="-5.4492550">
        <ele>1282.0</ele>
        <time>2021-08-21T07:05:57Z</time>
      </trkpt>
      <trkpt lat="42.8158240" lon="-5.4492890">
        <ele>1281.0</ele>
        <time>2021-08-21T07:05:58Z</time>
      </trkpt>
      <trkpt lat="42.8158370" lon="-5.4493240">
        <ele>1281.0</ele>
        <time>2021-08-21T07:05:59Z</time>
      </trkpt>
      <trkpt lat="42.8158530" lon="-5.4493600">
        <ele>1281.0</ele>
        <time>2021-08-21T07:06:00Z</time>
      </trkpt>
      <trkpt lat="42.8158700" lon="-5.4493940">
        <ele>1281.0</ele>
        <time>2021-08-21T07:06:01Z</time>
      </trkpt>
      <trkpt lat="42.8158890" lon="-5.4494240">
        <ele>1281.0</ele>
        <time>2021-08-21T07:06:02Z</time>
      </trkpt>
      <trkpt lat="42.8159090" lon="-5.4494560">
        <ele>1281.0</ele>
        <time>2021-08-21T07:06:03Z</time>
      </trkpt>
      <trkpt lat="42.8159390" lon="-5.4495040">
        <ele>1281.0</ele>
        <time>2021-08-21T07:06:04Z</time>
      </trkpt>
      <trkpt lat="42.8159480" lon="-5.4495200">
        <ele>1280.0</ele>
        <time>2021-08-21T07:06:05Z</time>
      </trkpt>
      <trkpt lat="42.8159670" lon="-5.4495520">
        <ele>1280.0</ele>
        <time>2021-08-21T07:06:06Z</time>
      </trkpt>
      <trkpt lat="42.8159880" lon="-5.4495810">
        <ele>1280.0</ele>
        <time>2021-08-21T07:06:07Z</time>
      </trkpt>
      <trkpt lat="42.8160060" lon="-5.4496090">
        <ele>1280.0</ele>
        <time>2021-08-21T07:06:08Z</time>
      </trkpt>
      <trkpt lat="42.8160280" lon="-5.4496500">
        <ele>1280.0</ele>
        <time>2021-08-21T07:06:09Z</time>
      </trkpt>
      <trkpt lat="42.8160350" lon="-5.4496640">
        <ele>1279.0</ele>
        <time>2021-08-21T07:06:10Z</time>
      </trkpt>
      <trkpt lat="42.8160480" lon="-5.4496920">
        <ele>1279.0</ele>
        <time>2021-08-21T07:06:11Z</time>
      </trkpt>
      <trkpt lat="42.8160740" lon="-5.4497250">
        <ele>1279.0</ele>
        <time>2021-08-21T07:06:12Z</time>
      </trkpt>
      <trkpt lat="42.8160820" lon="-5.4497350">
        <ele>1279.0</ele>
        <time>2021-08-21T07:06:13Z</time>
      </trkpt>
      <trkpt lat="42.8160980" lon="-5.4497520">
        <ele>1279.0</ele>
        <time>2021-08-21T07:06:14Z</time>
      </trkpt>
      <trkpt lat="42.8161140" lon="-5.4497670">
        <ele>1279.0</ele>
        <time>2021-08-21T07:06:15Z</time>
      </trkpt>
      <trkpt lat="42.8161140" lon="-5.4497670">
        <ele>1279.0</ele>
        <time>2021-08-21T07:06:16Z</time>
      </trkpt>
      <trkpt lat="42.8161450" lon="-5.4497960">
        <ele>1279.0</ele>
        <time>2021-08-21T07:06:17Z</time>
      </trkpt>
      <trkpt lat="42.8161450" lon="-5.4497960">
        <ele>1279.0</ele>
        <time>2021-08-21T07:06:18Z</time>
      </trkpt>
      <trkpt lat="42.8161800" lon="-5.4498130">
        <ele>1279.0</ele>
        <time>2021-08-21T07:06:19Z</time>
      </trkpt>
      <trkpt lat="42.8161800" lon="-5.4498130">
        <ele>1278.0</ele>
        <time>2021-08-21T07:06:20Z</time>
      </trkpt>
      <trkpt lat="42.8162160" lon="-5.4498200">
        <ele>1278.0</ele>
        <time>2021-08-21T07:06:21Z</time>
      </trkpt>
      <trkpt lat="42.8162510" lon="-5.4498270">
        <ele>1278.0</ele>
        <time>2021-08-21T07:06:22Z</time>
      </trkpt>
      <trkpt lat="42.8162920" lon="-5.4498310">
        <ele>1278.0</ele>
        <time>2021-08-21T07:06:23Z</time>
      </trkpt>
      <trkpt lat="42.8163060" lon="-5.4498320">
        <ele>1278.0</ele>
        <time>2021-08-21T07:06:24Z</time>
      </trkpt>
      <trkpt lat="42.8163470" lon="-5.4498300">
        <ele>1278.0</ele>
        <time>2021-08-21T07:06:25Z</time>
      </trkpt>
      <trkpt lat="42.8163610" lon="-5.4498270">
        <ele>1278.0</ele>
        <time>2021-08-21T07:06:26Z</time>
      </trkpt>
      <trkpt lat="42.8163870" lon="-5.4498220">
        <ele>1278.0</ele>
        <time>2021-08-21T07:06:27Z</time>
      </trkpt>
      <trkpt lat="42.8164130" lon="-5.4498130">
        <ele>1278.0</ele>
        <time>2021-08-21T07:06:28Z</time>
      </trkpt>
      <trkpt lat="42.8164400" lon="-5.4498060">
        <ele>1278.0</ele>
        <time>2021-08-21T07:06:29Z</time>
      </trkpt>
      <trkpt lat="42.8164640" lon="-5.4498020">
        <ele>1278.0</ele>
        <time>2021-08-21T07:06:30Z</time>
      </trkpt>
      <trkpt lat="42.8164910" lon="-5.4497990">
        <ele>1278.0</ele>
        <time>2021-08-21T07:06:31Z</time>
      </trkpt>
      <trkpt lat="42.8165140" lon="-5.4497910">
        <ele>1278.0</ele>
        <time>2021-08-21T07:06:32Z</time>
      </trkpt>
      <trkpt lat="42.8165460" lon="-5.4497760">
        <ele>1278.0</ele>
        <time>2021-08-21T07:06:33Z</time>
      </trkpt>
      <trkpt lat="42.8165570" lon="-5.4497720">
        <ele>1277.0</ele>
        <time>2021-08-21T07:06:34Z</time>
      </trkpt>
      <trkpt lat="42.8165850" lon="-5.4497580">
        <ele>1277.0</ele>
        <time>2021-08-21T07:06:35Z</time>
      </trkpt>
      <trkpt lat="42.8166170" lon="-5.4497410">
        <ele>1277.0</ele>
        <time>2021-08-21T07:06:36Z</time>
      </trkpt>
      <trkpt lat="42.8166440" lon="-5.4497300">
        <ele>1277.0</ele>
        <time>2021-08-21T07:06:37Z</time>
      </trkpt>
      <trkpt lat="42.8166730" lon="-5.4497190">
        <ele>1277.0</ele>
        <time>2021-08-21T07:06:38Z</time>
      </trkpt>
      <trkpt lat="42.8167020" lon="-5.4497080">
        <ele>1277.0</ele>
        <time>2021-08-21T07:06:39Z</time>
      </trkpt>
      <trkpt lat="42.8167310" lon="-5.4497000">
        <ele>1277.0</ele>
        <time>2021-08-21T07:06:40Z</time>
      </trkpt>
      <trkpt lat="42.8167630" lon="-5.4496940">
        <ele>1277.0</ele>
        <time>2021-08-21T07:06:41Z</time>
      </trkpt>
      <trkpt lat="42.8167930" lon="-5.4496910">
        <ele>1276.0</ele>
        <time>2021-08-21T07:06:42Z</time>
      </trkpt>
      <trkpt lat="42.8168390" lon="-5.4496910">
        <ele>1276.0</ele>
        <time>2021-08-21T07:06:43Z</time>
      </trkpt>
      <trkpt lat="42.8168530" lon="-5.4496920">
        <ele>1276.0</ele>
        <time>2021-08-21T07:06:44Z</time>
      </trkpt>
      <trkpt lat="42.8168820" lon="-5.4496960">
        <ele>1276.0</ele>
        <time>2021-08-21T07:06:45Z</time>
      </trkpt>
      <trkpt lat="42.8168820" lon="-5.4496960">
        <ele>1275.0</ele>
        <time>2021-08-21T07:06:46Z</time>
      </trkpt>
      <trkpt lat="42.8169420" lon="-5.4497100">
        <ele>1275.0</ele>
        <time>2021-08-21T07:06:47Z</time>
      </trkpt>
      <trkpt lat="42.8169680" lon="-5.4497220">
        <ele>1274.0</ele>
        <time>2021-08-21T07:06:48Z</time>
      </trkpt>
      <trkpt lat="42.8170080" lon="-5.4497490">
        <ele>1274.0</ele>
        <time>2021-08-21T07:06:49Z</time>
      </trkpt>
      <trkpt lat="42.8170200" lon="-5.4497590">
        <ele>1273.0</ele>
        <time>2021-08-21T07:06:50Z</time>
      </trkpt>
      <trkpt lat="42.8170420" lon="-5.4497850">
        <ele>1273.0</ele>
        <time>2021-08-21T07:06:51Z</time>
      </trkpt>
      <trkpt lat="42.8170740" lon="-5.4498270">
        <ele>1273.0</ele>
        <time>2021-08-21T07:06:52Z</time>
      </trkpt>
      <trkpt lat="42.8170840" lon="-5.4498420">
        <ele>1272.0</ele>
        <time>2021-08-21T07:06:53Z</time>
      </trkpt>
      <trkpt lat="42.8171120" lon="-5.4498860">
        <ele>1272.0</ele>
        <time>2021-08-21T07:06:54Z</time>
      </trkpt>
      <trkpt lat="42.8171210" lon="-5.4499010">
        <ele>1272.0</ele>
        <time>2021-08-21T07:06:55Z</time>
      </trkpt>
      <trkpt lat="42.8171380" lon="-5.4499280">
        <ele>1271.0</ele>
        <time>2021-08-21T07:06:56Z</time>
      </trkpt>
      <trkpt lat="42.8171600" lon="-5.4499740">
        <ele>1271.0</ele>
        <time>2021-08-21T07:06:57Z</time>
      </trkpt>
      <trkpt lat="42.8171670" lon="-5.4499900">
        <ele>1271.0</ele>
        <time>2021-08-21T07:06:58Z</time>
      </trkpt>
      <trkpt lat="42.8171780" lon="-5.4500250">
        <ele>1271.0</ele>
        <time>2021-08-21T07:06:59Z</time>
      </trkpt>
      <trkpt lat="42.8171870" lon="-5.4500580">
        <ele>1270.0</ele>
        <time>2021-08-21T07:07:00Z</time>
      </trkpt>
      <trkpt lat="42.8171940" lon="-5.4500940">
        <ele>1270.0</ele>
        <time>2021-08-21T07:07:01Z</time>
      </trkpt>
      <trkpt lat="42.8172070" lon="-5.4501670">
        <ele>1270.0</ele>
        <time>2021-08-21T07:07:02Z</time>
      </trkpt>
      <trkpt lat="42.8172120" lon="-5.4502040">
        <ele>1270.0</ele>
        <time>2021-08-21T07:07:04Z</time>
      </trkpt>
      <trkpt lat="42.8172180" lon="-5.4502400">
        <ele>1269.0</ele>
        <time>2021-08-21T07:07:05Z</time>
      </trkpt>
      <trkpt lat="42.8172250" lon="-5.4502780">
        <ele>1269.0</ele>
        <time>2021-08-21T07:07:06Z</time>
      </trkpt>
      <trkpt lat="42.8172310" lon="-5.4503180">
        <ele>1268.0</ele>
        <time>2021-08-21T07:07:07Z</time>
      </trkpt>
      <trkpt lat="42.8172370" lon="-5.4503530">
        <ele>1268.0</ele>
        <time>2021-08-21T07:07:08Z</time>
      </trkpt>
      <trkpt lat="42.8172450" lon="-5.4503890">
        <ele>1268.0</ele>
        <time>2021-08-21T07:07:09Z</time>
      </trkpt>
      <trkpt lat="42.8172550" lon="-5.4504240">
        <ele>1268.0</ele>
        <time>2021-08-21T07:07:10Z</time>
      </trkpt>
      <trkpt lat="42.8172650" lon="-5.4504580">
        <ele>1268.0</ele>
        <time>2021-08-21T07:07:11Z</time>
      </trkpt>
      <trkpt lat="42.8172750" lon="-5.4504910">
        <ele>1267.0</ele>
        <time>2021-08-21T07:07:12Z</time>
      </trkpt>
      <trkpt lat="42.8172850" lon="-5.4505250">
        <ele>1267.0</ele>
        <time>2021-08-21T07:07:13Z</time>
      </trkpt>
      <trkpt lat="42.8173010" lon="-5.4505560">
        <ele>1267.0</ele>
        <time>2021-08-21T07:07:14Z</time>
      </trkpt>
      <trkpt lat="42.8173160" lon="-5.4505870">
        <ele>1267.0</ele>
        <time>2021-08-21T07:07:15Z</time>
      </trkpt>
      <trkpt lat="42.8173350" lon="-5.4506150">
        <ele>1267.0</ele>
        <time>2021-08-21T07:07:16Z</time>
      </trkpt>
      <trkpt lat="42.8173570" lon="-5.4506360">
        <ele>1266.0</ele>
        <time>2021-08-21T07:07:17Z</time>
      </trkpt>
      <trkpt lat="42.8173780" lon="-5.4506560">
        <ele>1266.0</ele>
        <time>2021-08-21T07:07:18Z</time>
      </trkpt>
      <trkpt lat="42.8174040" lon="-5.4506710">
        <ele>1266.0</ele>
        <time>2021-08-21T07:07:19Z</time>
      </trkpt>
      <trkpt lat="42.8174290" lon="-5.4506840">
        <ele>1266.0</ele>
        <time>2021-08-21T07:07:20Z</time>
      </trkpt>
      <trkpt lat="42.8174690" lon="-5.4506980">
        <ele>1266.0</ele>
        <time>2021-08-21T07:07:21Z</time>
      </trkpt>
      <trkpt lat="42.8174810" lon="-5.4507040">
        <ele>1266.0</ele>
        <time>2021-08-21T07:07:22Z</time>
      </trkpt>
      <trkpt lat="42.8175190" lon="-5.4507160">
        <ele>1266.0</ele>
        <time>2021-08-21T07:07:23Z</time>
      </trkpt>
      <trkpt lat="42.8175300" lon="-5.4507210">
        <ele>1266.0</ele>
        <time>2021-08-21T07:07:24Z</time>
      </trkpt>
      <trkpt lat="42.8175550" lon="-5.4507300">
        <ele>1266.0</ele>
        <time>2021-08-21T07:07:25Z</time>
      </trkpt>
      <trkpt lat="42.8175950" lon="-5.4507350">
        <ele>1266.0</ele>
        <time>2021-08-21T07:07:26Z</time>
      </trkpt>
      <trkpt lat="42.8176080" lon="-5.4507350">
        <ele>1265.0</ele>
        <time>2021-08-21T07:07:27Z</time>
      </trkpt>
      <trkpt lat="42.8176350" lon="-5.4507360">
        <ele>1265.0</ele>
        <time>2021-08-21T07:07:28Z</time>
      </trkpt>
      <trkpt lat="42.8176790" lon="-5.4507300">
        <ele>1265.0</ele>
        <time>2021-08-21T07:07:29Z</time>
      </trkpt>
      <trkpt lat="42.8176920" lon="-5.4507280">
        <ele>1265.0</ele>
        <time>2021-08-21T07:07:30Z</time>
      </trkpt>
      <trkpt lat="42.8177350" lon="-5.4507190">
        <ele>1265.0</ele>
        <time>2021-08-21T07:07:31Z</time>
      </trkpt>
      <trkpt lat="42.8177480" lon="-5.4507160">
        <ele>1265.0</ele>
        <time>2021-08-21T07:07:32Z</time>
      </trkpt>
      <trkpt lat="42.8177740" lon="-5.4507080">
        <ele>1265.0</ele>
        <time>2021-08-21T07:07:33Z</time>
      </trkpt>
      <trkpt lat="42.8178000" lon="-5.4507010">
        <ele>1265.0</ele>
        <time>2021-08-21T07:07:34Z</time>
      </trkpt>
      <trkpt lat="42.8178410" lon="-5.4506920">
        <ele>1265.0</ele>
        <time>2021-08-21T07:07:35Z</time>
      </trkpt>
      <trkpt lat="42.8178550" lon="-5.4506890">
        <ele>1265.0</ele>
        <time>2021-08-21T07:07:36Z</time>
      </trkpt>
      <trkpt lat="42.8178830" lon="-5.4506830">
        <ele>1265.0</ele>
        <time>2021-08-21T07:07:37Z</time>
      </trkpt>
      <trkpt lat="42.8179110" lon="-5.4506740">
        <ele>1264.0</ele>
        <time>2021-08-21T07:07:38Z</time>
      </trkpt>
      <trkpt lat="42.8179370" lon="-5.4506640">
        <ele>1264.0</ele>
        <time>2021-08-21T07:07:39Z</time>
      </trkpt>
      <trkpt lat="42.8179630" lon="-5.4506500">
        <ele>1264.0</ele>
        <time>2021-08-21T07:07:40Z</time>
      </trkpt>
      <trkpt lat="42.8179890" lon="-5.4506340">
        <ele>1264.0</ele>
        <time>2021-08-21T07:07:41Z</time>
      </trkpt>
      <trkpt lat="42.8180250" lon="-5.4506140">
        <ele>1264.0</ele>
        <time>2021-08-21T07:07:42Z</time>
      </trkpt>
      <trkpt lat="42.8180380" lon="-5.4506070">
        <ele>1264.0</ele>
        <time>2021-08-21T07:07:43Z</time>
      </trkpt>
      <trkpt lat="42.8180770" lon="-5.4505840">
        <ele>1264.0</ele>
        <time>2021-08-21T07:07:44Z</time>
      </trkpt>
      <trkpt lat="42.8180890" lon="-5.4505750">
        <ele>1264.0</ele>
        <time>2021-08-21T07:07:45Z</time>
      </trkpt>
      <trkpt lat="42.8181170" lon="-5.4505590">
        <ele>1264.0</ele>
        <time>2021-08-21T07:07:46Z</time>
      </trkpt>
      <trkpt lat="42.8181420" lon="-5.4505420">
        <ele>1264.0</ele>
        <time>2021-08-21T07:07:47Z</time>
      </trkpt>
      <trkpt lat="42.8181660" lon="-5.4505260">
        <ele>1264.0</ele>
        <time>2021-08-21T07:07:48Z</time>
      </trkpt>
      <trkpt lat="42.8182010" lon="-5.4505020">
        <ele>1264.0</ele>
        <time>2021-08-21T07:07:49Z</time>
      </trkpt>
      <trkpt lat="42.8182130" lon="-5.4504940">
        <ele>1264.0</ele>
        <time>2021-08-21T07:07:50Z</time>
      </trkpt>
      <trkpt lat="42.8182490" lon="-5.4504690">
        <ele>1264.0</ele>
        <time>2021-08-21T07:07:51Z</time>
      </trkpt>
      <trkpt lat="42.8182620" lon="-5.4504590">
        <ele>1263.0</ele>
        <time>2021-08-21T07:07:52Z</time>
      </trkpt>
      <trkpt lat="42.8182880" lon="-5.4504410">
        <ele>1263.0</ele>
        <time>2021-08-21T07:07:53Z</time>
      </trkpt>
      <trkpt lat="42.8183140" lon="-5.4504300">
        <ele>1263.0</ele>
        <time>2021-08-21T07:07:54Z</time>
      </trkpt>
      <trkpt lat="42.8183410" lon="-5.4504210">
        <ele>1263.0</ele>
        <time>2021-08-21T07:07:55Z</time>
      </trkpt>
      <trkpt lat="42.8183690" lon="-5.4504150">
        <ele>1263.0</ele>
        <time>2021-08-21T07:07:56Z</time>
      </trkpt>
      <trkpt lat="42.8183930" lon="-5.4504130">
        <ele>1263.0</ele>
        <time>2021-08-21T07:07:57Z</time>
      </trkpt>
      <trkpt lat="42.8184330" lon="-5.4504160">
        <ele>1263.0</ele>
        <time>2021-08-21T07:07:58Z</time>
      </trkpt>
      <trkpt lat="42.8184470" lon="-5.4504150">
        <ele>1262.0</ele>
        <time>2021-08-21T07:07:59Z</time>
      </trkpt>
      <trkpt lat="42.8184740" lon="-5.4504120">
        <ele>1261.0</ele>
        <time>2021-08-21T07:08:00Z</time>
      </trkpt>
      <trkpt lat="42.8185030" lon="-5.4504160">
        <ele>1261.0</ele>
        <time>2021-08-21T07:08:01Z</time>
      </trkpt>
      <trkpt lat="42.8185310" lon="-5.4504250">
        <ele>1260.0</ele>
        <time>2021-08-21T07:08:02Z</time>
      </trkpt>
      <trkpt lat="42.8185690" lon="-5.4504380">
        <ele>1260.0</ele>
        <time>2021-08-21T07:08:03Z</time>
      </trkpt>
      <trkpt lat="42.8185810" lon="-5.4504430">
        <ele>1260.0</ele>
        <time>2021-08-21T07:08:04Z</time>
      </trkpt>
      <trkpt lat="42.8186050" lon="-5.4504570">
        <ele>1259.0</ele>
        <time>2021-08-21T07:08:05Z</time>
      </trkpt>
      <trkpt lat="42.8186280" lon="-5.4504750">
        <ele>1259.0</ele>
        <time>2021-08-21T07:08:06Z</time>
      </trkpt>
      <trkpt lat="42.8186500" lon="-5.4504940">
        <ele>1259.0</ele>
        <time>2021-08-21T07:08:07Z</time>
      </trkpt>
      <trkpt lat="42.8186710" lon="-5.4505130">
        <ele>1259.0</ele>
        <time>2021-08-21T07:08:08Z</time>
      </trkpt>
      <trkpt lat="42.8186940" lon="-5.4505320">
        <ele>1259.0</ele>
        <time>2021-08-21T07:08:09Z</time>
      </trkpt>
      <trkpt lat="42.8187260" lon="-5.4505690">
        <ele>1259.0</ele>
        <time>2021-08-21T07:08:10Z</time>
      </trkpt>
      <trkpt lat="42.8187360" lon="-5.4505830">
        <ele>1258.0</ele>
        <time>2021-08-21T07:08:11Z</time>
      </trkpt>
      <trkpt lat="42.8187570" lon="-5.4506100">
        <ele>1258.0</ele>
        <time>2021-08-21T07:08:12Z</time>
      </trkpt>
      <trkpt lat="42.8187760" lon="-5.4506370">
        <ele>1258.0</ele>
        <time>2021-08-21T07:08:13Z</time>
      </trkpt>
      <trkpt lat="42.8187960" lon="-5.4506630">
        <ele>1257.0</ele>
        <time>2021-08-21T07:08:14Z</time>
      </trkpt>
      <trkpt lat="42.8188130" lon="-5.4506930">
        <ele>1257.0</ele>
        <time>2021-08-21T07:08:15Z</time>
      </trkpt>
      <trkpt lat="42.8188290" lon="-5.4507250">
        <ele>1257.0</ele>
        <time>2021-08-21T07:08:16Z</time>
      </trkpt>
      <trkpt lat="42.8188460" lon="-5.4507530">
        <ele>1257.0</ele>
        <time>2021-08-21T07:08:17Z</time>
      </trkpt>
      <trkpt lat="42.8188640" lon="-5.4507800">
        <ele>1257.0</ele>
        <time>2021-08-21T07:08:18Z</time>
      </trkpt>
      <trkpt lat="42.8188930" lon="-5.4508190">
        <ele>1257.0</ele>
        <time>2021-08-21T07:08:19Z</time>
      </trkpt>
      <trkpt lat="42.8189000" lon="-5.4508350">
        <ele>1256.0</ele>
        <time>2021-08-21T07:08:20Z</time>
      </trkpt>
      <trkpt lat="42.8189160" lon="-5.4508670">
        <ele>1256.0</ele>
        <time>2021-08-21T07:08:21Z</time>
      </trkpt>
      <trkpt lat="42.8189360" lon="-5.4509140">
        <ele>1256.0</ele>
        <time>2021-08-21T07:08:22Z</time>
      </trkpt>
      <trkpt lat="42.8189410" lon="-5.4509320">
        <ele>1256.0</ele>
        <time>2021-08-21T07:08:23Z</time>
      </trkpt>
      <trkpt lat="42.8189580" lon="-5.4509830">
        <ele>1256.0</ele>
        <time>2021-08-21T07:08:24Z</time>
      </trkpt>
      <trkpt lat="42.8189640" lon="-5.4509990">
        <ele>1256.0</ele>
        <time>2021-08-21T07:08:25Z</time>
      </trkpt>
      <trkpt lat="42.8189870" lon="-5.4510460">
        <ele>1256.0</ele>
        <time>2021-08-21T07:08:26Z</time>
      </trkpt>
      <trkpt lat="42.8189940" lon="-5.4510610">
        <ele>1255.0</ele>
        <time>2021-08-21T07:08:27Z</time>
      </trkpt>
      <trkpt lat="42.8190110" lon="-5.4510900">
        <ele>1255.0</ele>
        <time>2021-08-21T07:08:28Z</time>
      </trkpt>
      <trkpt lat="42.8190300" lon="-5.4511340">
        <ele>1255.0</ele>
        <time>2021-08-21T07:08:29Z</time>
      </trkpt>
      <trkpt lat="42.8190370" lon="-5.4511500">
        <ele>1255.0</ele>
        <time>2021-08-21T07:08:30Z</time>
      </trkpt>
      <trkpt lat="42.8190530" lon="-5.4511810">
        <ele>1255.0</ele>
        <time>2021-08-21T07:08:31Z</time>
      </trkpt>
      <trkpt lat="42.8190770" lon="-5.4512230">
        <ele>1255.0</ele>
        <time>2021-08-21T07:08:32Z</time>
      </trkpt>
      <trkpt lat="42.8190850" lon="-5.4512390">
        <ele>1254.0</ele>
        <time>2021-08-21T07:08:33Z</time>
      </trkpt>
      <trkpt lat="42.8190990" lon="-5.4512700">
        <ele>1254.0</ele>
        <time>2021-08-21T07:08:34Z</time>
      </trkpt>
      <trkpt lat="42.8191220" lon="-5.4513170">
        <ele>1254.0</ele>
        <time>2021-08-21T07:08:35Z</time>
      </trkpt>
      <trkpt lat="42.8191290" lon="-5.4513330">
        <ele>1254.0</ele>
        <time>2021-08-21T07:08:36Z</time>
      </trkpt>
      <trkpt lat="42.8191500" lon="-5.4513800">
        <ele>1254.0</ele>
        <time>2021-08-21T07:08:37Z</time>
      </trkpt>
      <trkpt lat="42.8191580" lon="-5.4513960">
        <ele>1253.0</ele>
        <time>2021-08-21T07:08:38Z</time>
      </trkpt>
      <trkpt lat="42.8191780" lon="-5.4514230">
        <ele>1253.0</ele>
        <time>2021-08-21T07:08:39Z</time>
      </trkpt>
      <trkpt lat="42.8191970" lon="-5.4514520">
        <ele>1253.0</ele>
        <time>2021-08-21T07:08:40Z</time>
      </trkpt>
      <trkpt lat="42.8192140" lon="-5.4514820">
        <ele>1253.0</ele>
        <time>2021-08-21T07:08:41Z</time>
      </trkpt>
      <trkpt lat="42.8192450" lon="-5.4515220">
        <ele>1253.0</ele>
        <time>2021-08-21T07:08:42Z</time>
      </trkpt>
      <trkpt lat="42.8192530" lon="-5.4515360">
        <ele>1253.0</ele>
        <time>2021-08-21T07:08:43Z</time>
      </trkpt>
      <trkpt lat="42.8192750" lon="-5.4515790">
        <ele>1253.0</ele>
        <time>2021-08-21T07:08:44Z</time>
      </trkpt>
      <trkpt lat="42.8192820" lon="-5.4515950">
        <ele>1252.0</ele>
        <time>2021-08-21T07:08:45Z</time>
      </trkpt>
      <trkpt lat="42.8192990" lon="-5.4516230">
        <ele>1252.0</ele>
        <time>2021-08-21T07:08:46Z</time>
      </trkpt>
      <trkpt lat="42.8193300" lon="-5.4516620">
        <ele>1252.0</ele>
        <time>2021-08-21T07:08:47Z</time>
      </trkpt>
      <trkpt lat="42.8193390" lon="-5.4516750">
        <ele>1252.0</ele>
        <time>2021-08-21T07:08:48Z</time>
      </trkpt>
      <trkpt lat="42.8193600" lon="-5.4517010">
        <ele>1252.0</ele>
        <time>2021-08-21T07:08:49Z</time>
      </trkpt>
      <trkpt lat="42.8193800" lon="-5.4517280">
        <ele>1252.0</ele>
        <time>2021-08-21T07:08:50Z</time>
      </trkpt>
      <trkpt lat="42.8193980" lon="-5.4517540">
        <ele>1252.0</ele>
        <time>2021-08-21T07:08:51Z</time>
      </trkpt>
      <trkpt lat="42.8194180" lon="-5.4517790">
        <ele>1251.0</ele>
        <time>2021-08-21T07:08:52Z</time>
      </trkpt>
      <trkpt lat="42.8194400" lon="-5.4517960">
        <ele>1251.0</ele>
        <time>2021-08-21T07:08:53Z</time>
      </trkpt>
      <trkpt lat="42.8194650" lon="-5.4518150">
        <ele>1251.0</ele>
        <time>2021-08-21T07:08:54Z</time>
      </trkpt>
      <trkpt lat="42.8194860" lon="-5.4518350">
        <ele>1251.0</ele>
        <time>2021-08-21T07:08:55Z</time>
      </trkpt>
      <trkpt lat="42.8195100" lon="-5.4518510">
        <ele>1250.0</ele>
        <time>2021-08-21T07:08:56Z</time>
      </trkpt>
      <trkpt lat="42.8195320" lon="-5.4518690">
        <ele>1250.0</ele>
        <time>2021-08-21T07:08:57Z</time>
      </trkpt>
      <trkpt lat="42.8195540" lon="-5.4518880">
        <ele>1250.0</ele>
        <time>2021-08-21T07:08:58Z</time>
      </trkpt>
      <trkpt lat="42.8195790" lon="-5.4519030">
        <ele>1250.0</ele>
        <time>2021-08-21T07:08:59Z</time>
      </trkpt>
      <trkpt lat="42.8195980" lon="-5.4519270">
        <ele>1250.0</ele>
        <time>2021-08-21T07:09:00Z</time>
      </trkpt>
      <trkpt lat="42.8196210" lon="-5.4519440">
        <ele>1250.0</ele>
        <time>2021-08-21T07:09:01Z</time>
      </trkpt>
      <trkpt lat="42.8196450" lon="-5.4519590">
        <ele>1250.0</ele>
        <time>2021-08-21T07:09:02Z</time>
      </trkpt>
      <trkpt lat="42.8196680" lon="-5.4519710">
        <ele>1250.0</ele>
        <time>2021-08-21T07:09:03Z</time>
      </trkpt>
      <trkpt lat="42.8196680" lon="-5.4519710">
        <ele>1250.0</ele>
        <time>2021-08-21T07:09:04Z</time>
      </trkpt>
      <trkpt lat="42.8197310" lon="-5.4519900">
        <ele>1250.0</ele>
        <time>2021-08-21T07:09:05Z</time>
      </trkpt>
      <trkpt lat="42.8197450" lon="-5.4519930">
        <ele>1250.0</ele>
        <time>2021-08-21T07:09:06Z</time>
      </trkpt>
      <trkpt lat="42.8197700" lon="-5.4520000">
        <ele>1250.0</ele>
        <time>2021-08-21T07:09:07Z</time>
      </trkpt>
      <trkpt lat="42.8197970" lon="-5.4520050">
        <ele>1250.0</ele>
        <time>2021-08-21T07:09:08Z</time>
      </trkpt>
      <trkpt lat="42.8198240" lon="-5.4520110">
        <ele>1250.0</ele>
        <time>2021-08-21T07:09:09Z</time>
      </trkpt>
      <trkpt lat="42.8198480" lon="-5.4520210">
        <ele>1250.0</ele>
        <time>2021-08-21T07:09:10Z</time>
      </trkpt>
      <trkpt lat="42.8198780" lon="-5.4520280">
        <ele>1250.0</ele>
        <time>2021-08-21T07:09:11Z</time>
      </trkpt>
      <trkpt lat="42.8199300" lon="-5.4520380">
        <ele>1250.0</ele>
        <time>2021-08-21T07:09:12Z</time>
      </trkpt>
      <trkpt lat="42.8199300" lon="-5.4520380">
        <ele>1250.0</ele>
        <time>2021-08-21T07:09:13Z</time>
      </trkpt>
      <trkpt lat="42.8199710" lon="-5.4520460">
        <ele>1250.0</ele>
        <time>2021-08-21T07:09:14Z</time>
      </trkpt>
      <trkpt lat="42.8199830" lon="-5.4520500">
        <ele>1250.0</ele>
        <time>2021-08-21T07:09:15Z</time>
      </trkpt>
      <trkpt lat="42.8200060" lon="-5.4520550">
        <ele>1250.0</ele>
        <time>2021-08-21T07:09:16Z</time>
      </trkpt>
      <trkpt lat="42.8200320" lon="-5.4520590">
        <ele>1250.0</ele>
        <time>2021-08-21T07:09:17Z</time>
      </trkpt>
      <trkpt lat="42.8200600" lon="-5.4520640">
        <ele>1250.0</ele>
        <time>2021-08-21T07:09:18Z</time>
      </trkpt>
      <trkpt lat="42.8200840" lon="-5.4520710">
        <ele>1250.0</ele>
        <time>2021-08-21T07:09:19Z</time>
      </trkpt>
      <trkpt lat="42.8201100" lon="-5.4520780">
        <ele>1250.0</ele>
        <time>2021-08-21T07:09:20Z</time>
      </trkpt>
      <trkpt lat="42.8201360" lon="-5.4520820">
        <ele>1250.0</ele>
        <time>2021-08-21T07:09:21Z</time>
      </trkpt>
      <trkpt lat="42.8201610" lon="-5.4520870">
        <ele>1250.0</ele>
        <time>2021-08-21T07:09:22Z</time>
      </trkpt>
      <trkpt lat="42.8201900" lon="-5.4520910">
        <ele>1249.0</ele>
        <time>2021-08-21T07:09:23Z</time>
      </trkpt>
      <trkpt lat="42.8202170" lon="-5.4520970">
        <ele>1249.0</ele>
        <time>2021-08-21T07:09:24Z</time>
      </trkpt>
      <trkpt lat="42.8202440" lon="-5.4521020">
        <ele>1249.0</ele>
        <time>2021-08-21T07:09:25Z</time>
      </trkpt>
      <trkpt lat="42.8202670" lon="-5.4521080">
        <ele>1249.0</ele>
        <time>2021-08-21T07:09:26Z</time>
      </trkpt>
      <trkpt lat="42.8202950" lon="-5.4521110">
        <ele>1249.0</ele>
        <time>2021-08-21T07:09:27Z</time>
      </trkpt>
      <trkpt lat="42.8203200" lon="-5.4521120">
        <ele>1249.0</ele>
        <time>2021-08-21T07:09:28Z</time>
      </trkpt>
      <trkpt lat="42.8203430" lon="-5.4521180">
        <ele>1249.0</ele>
        <time>2021-08-21T07:09:29Z</time>
      </trkpt>
      <trkpt lat="42.8203700" lon="-5.4521190">
        <ele>1249.0</ele>
        <time>2021-08-21T07:09:30Z</time>
      </trkpt>
      <trkpt lat="42.8203970" lon="-5.4521200">
        <ele>1249.0</ele>
        <time>2021-08-21T07:09:31Z</time>
      </trkpt>
      <trkpt lat="42.8204260" lon="-5.4521190">
        <ele>1249.0</ele>
        <time>2021-08-21T07:09:32Z</time>
      </trkpt>
      <trkpt lat="42.8204540" lon="-5.4521190">
        <ele>1249.0</ele>
        <time>2021-08-21T07:09:33Z</time>
      </trkpt>
      <trkpt lat="42.8204830" lon="-5.4521160">
        <ele>1248.0</ele>
        <time>2021-08-21T07:09:34Z</time>
      </trkpt>
      <trkpt lat="42.8205080" lon="-5.4521110">
        <ele>1248.0</ele>
        <time>2021-08-21T07:09:35Z</time>
      </trkpt>
      <trkpt lat="42.8205350" lon="-5.4521090">
        <ele>1248.0</ele>
        <time>2021-08-21T07:09:36Z</time>
      </trkpt>
      <trkpt lat="42.8205750" lon="-5.4521130">
        <ele>1248.0</ele>
        <time>2021-08-21T07:09:37Z</time>
      </trkpt>
      <trkpt lat="42.8205880" lon="-5.4521150">
        <ele>1248.0</ele>
        <time>2021-08-21T07:09:38Z</time>
      </trkpt>
      <trkpt lat="42.8206150" lon="-5.4521170">
        <ele>1248.0</ele>
        <time>2021-08-21T07:09:39Z</time>
      </trkpt>
      <trkpt lat="42.8206410" lon="-5.4521180">
        <ele>1248.0</ele>
        <time>2021-08-21T07:09:40Z</time>
      </trkpt>
      <trkpt lat="42.8206810" lon="-5.4521190">
        <ele>1248.0</ele>
        <time>2021-08-21T07:09:41Z</time>
      </trkpt>
      <trkpt lat="42.8206930" lon="-5.4521200">
        <ele>1248.0</ele>
        <time>2021-08-21T07:09:42Z</time>
      </trkpt>
      <trkpt lat="42.8207210" lon="-5.4521200">
        <ele>1248.0</ele>
        <time>2021-08-21T07:09:43Z</time>
      </trkpt>
      <trkpt lat="42.8207470" lon="-5.4521180">
        <ele>1248.0</ele>
        <time>2021-08-21T07:09:44Z</time>
      </trkpt>
      <trkpt lat="42.8207740" lon="-5.4521160">
        <ele>1248.0</ele>
        <time>2021-08-21T07:09:45Z</time>
      </trkpt>
      <trkpt lat="42.8207990" lon="-5.4521130">
        <ele>1248.0</ele>
        <time>2021-08-21T07:09:46Z</time>
      </trkpt>
      <trkpt lat="42.8208230" lon="-5.4521100">
        <ele>1248.0</ele>
        <time>2021-08-21T07:09:47Z</time>
      </trkpt>
      <trkpt lat="42.8208630" lon="-5.4521060">
        <ele>1248.0</ele>
        <time>2021-08-21T07:09:48Z</time>
      </trkpt>
      <trkpt lat="42.8208770" lon="-5.4521040">
        <ele>1248.0</ele>
        <time>2021-08-21T07:09:49Z</time>
      </trkpt>
      <trkpt lat="42.8209160" lon="-5.4520980">
        <ele>1248.0</ele>
        <time>2021-08-21T07:09:50Z</time>
      </trkpt>
      <trkpt lat="42.8209270" lon="-5.4520970">
        <ele>1248.0</ele>
        <time>2021-08-21T07:09:51Z</time>
      </trkpt>
      <trkpt lat="42.8209520" lon="-5.4520960">
        <ele>1248.0</ele>
        <time>2021-08-21T07:09:52Z</time>
      </trkpt>
      <trkpt lat="42.8209780" lon="-5.4520940">
        <ele>1248.0</ele>
        <time>2021-08-21T07:09:53Z</time>
      </trkpt>
      <trkpt lat="42.8209780" lon="-5.4520940">
        <ele>1248.0</ele>
        <time>2021-08-21T07:09:54Z</time>
      </trkpt>
      <trkpt lat="42.8210420" lon="-5.4520830">
        <ele>1248.0</ele>
        <time>2021-08-21T07:09:55Z</time>
      </trkpt>
      <trkpt lat="42.8210540" lon="-5.4520800">
        <ele>1248.0</ele>
        <time>2021-08-21T07:09:56Z</time>
      </trkpt>
      <trkpt lat="42.8210790" lon="-5.4520750">
        <ele>1248.0</ele>
        <time>2021-08-21T07:09:57Z</time>
      </trkpt>
      <trkpt lat="42.8211030" lon="-5.4520720">
        <ele>1248.0</ele>
        <time>2021-08-21T07:09:58Z</time>
      </trkpt>
      <trkpt lat="42.8211300" lon="-5.4520670">
        <ele>1248.0</ele>
        <time>2021-08-21T07:09:59Z</time>
      </trkpt>
      <trkpt lat="42.8211680" lon="-5.4520670">
        <ele>1248.0</ele>
        <time>2021-08-21T07:10:00Z</time>
      </trkpt>
      <trkpt lat="42.8211810" lon="-5.4520670">
        <ele>1247.0</ele>
        <time>2021-08-21T07:10:01Z</time>
      </trkpt>
      <trkpt lat="42.8212040" lon="-5.4520680">
        <ele>1247.0</ele>
        <time>2021-08-21T07:10:02Z</time>
      </trkpt>
      <trkpt lat="42.8212300" lon="-5.4520640">
        <ele>1247.0</ele>
        <time>2021-08-21T07:10:03Z</time>
      </trkpt>
      <trkpt lat="42.8212530" lon="-5.4520620">
        <ele>1247.0</ele>
        <time>2021-08-21T07:10:04Z</time>
      </trkpt>
      <trkpt lat="42.8212720" lon="-5.4520640">
        <ele>1247.0</ele>
        <time>2021-08-21T07:10:05Z</time>
      </trkpt>
      <trkpt lat="42.8212910" lon="-5.4520620">
        <ele>1247.0</ele>
        <time>2021-08-21T07:10:06Z</time>
      </trkpt>
      <trkpt lat="42.8213270" lon="-5.4520570">
        <ele>1247.0</ele>
        <time>2021-08-21T07:10:08Z</time>
      </trkpt>
      <trkpt lat="42.8213460" lon="-5.4520550">
        <ele>1247.0</ele>
        <time>2021-08-21T07:10:09Z</time>
      </trkpt>
      <trkpt lat="42.8213670" lon="-5.4520560">
        <ele>1247.0</ele>
        <time>2021-08-21T07:10:10Z</time>
      </trkpt>
      <trkpt lat="42.8213880" lon="-5.4520570">
        <ele>1247.0</ele>
        <time>2021-08-21T07:10:11Z</time>
      </trkpt>
      <trkpt lat="42.8214130" lon="-5.4520540">
        <ele>1247.0</ele>
        <time>2021-08-21T07:10:12Z</time>
      </trkpt>
      <trkpt lat="42.8214370" lon="-5.4520540">
        <ele>1246.0</ele>
        <time>2021-08-21T07:10:13Z</time>
      </trkpt>
      <trkpt lat="42.8214610" lon="-5.4520520">
        <ele>1246.0</ele>
        <time>2021-08-21T07:10:14Z</time>
      </trkpt>
      <trkpt lat="42.8214830" lon="-5.4520500">
        <ele>1246.0</ele>
        <time>2021-08-21T07:10:15Z</time>
      </trkpt>
      <trkpt lat="42.8215060" lon="-5.4520490">
        <ele>1246.0</ele>
        <time>2021-08-21T07:10:16Z</time>
      </trkpt>
      <trkpt lat="42.8215270" lon="-5.4520470">
        <ele>1246.0</ele>
        <time>2021-08-21T07:10:17Z</time>
      </trkpt>
      <trkpt lat="42.8215470" lon="-5.4520450">
        <ele>1246.0</ele>
        <time>2021-08-21T07:10:18Z</time>
      </trkpt>
      <trkpt lat="42.8215700" lon="-5.4520460">
        <ele>1246.0</ele>
        <time>2021-08-21T07:10:19Z</time>
      </trkpt>
      <trkpt lat="42.8215940" lon="-5.4520430">
        <ele>1246.0</ele>
        <time>2021-08-21T07:10:20Z</time>
      </trkpt>
      <trkpt lat="42.8216190" lon="-5.4520410">
        <ele>1246.0</ele>
        <time>2021-08-21T07:10:21Z</time>
      </trkpt>
      <trkpt lat="42.8216570" lon="-5.4520350">
        <ele>1246.0</ele>
        <time>2021-08-21T07:10:22Z</time>
      </trkpt>
      <trkpt lat="42.8216690" lon="-5.4520330">
        <ele>1246.0</ele>
        <time>2021-08-21T07:10:23Z</time>
      </trkpt>
      <trkpt lat="42.8217040" lon="-5.4520320">
        <ele>1246.0</ele>
        <time>2021-08-21T07:10:24Z</time>
      </trkpt>
      <trkpt lat="42.8217160" lon="-5.4520330">
        <ele>1246.0</ele>
        <time>2021-08-21T07:10:25Z</time>
      </trkpt>
      <trkpt lat="42.8217350" lon="-5.4520310">
        <ele>1246.0</ele>
        <time>2021-08-21T07:10:26Z</time>
      </trkpt>
      <trkpt lat="42.8217350" lon="-5.4520310">
        <ele>1246.0</ele>
        <time>2021-08-21T07:10:27Z</time>
      </trkpt>
      <trkpt lat="42.8217660" lon="-5.4520310">
        <ele>1246.0</ele>
        <time>2021-08-21T07:10:28Z</time>
      </trkpt>
      <trkpt lat="42.8217990" lon="-5.4520380">
        <ele>1247.0</ele>
        <time>2021-08-21T07:10:30Z</time>
      </trkpt>
      <trkpt lat="42.8218230" lon="-5.4520380">
        <ele>1246.0</ele>
        <time>2021-08-21T07:10:31Z</time>
      </trkpt>
      <trkpt lat="42.8218450" lon="-5.4520330">
        <ele>1247.0</ele>
        <time>2021-08-21T07:10:32Z</time>
      </trkpt>
      <trkpt lat="42.8218650" lon="-5.4520330">
        <ele>1247.0</ele>
        <time>2021-08-21T07:10:33Z</time>
      </trkpt>
      <trkpt lat="42.8218870" lon="-5.4520340">
        <ele>1247.0</ele>
        <time>2021-08-21T07:10:34Z</time>
      </trkpt>
      <trkpt lat="42.8219080" lon="-5.4520360">
        <ele>1247.0</ele>
        <time>2021-08-21T07:10:35Z</time>
      </trkpt>
      <trkpt lat="42.8219350" lon="-5.4520320">
        <ele>1247.0</ele>
        <time>2021-08-21T07:10:36Z</time>
      </trkpt>
      <trkpt lat="42.8219600" lon="-5.4520310">
        <ele>1247.0</ele>
        <time>2021-08-21T07:10:37Z</time>
      </trkpt>
      <trkpt lat="42.8219820" lon="-5.4520330">
        <ele>1247.0</ele>
        <time>2021-08-21T07:10:38Z</time>
      </trkpt>
      <trkpt lat="42.8220030" lon="-5.4520370">
        <ele>1247.0</ele>
        <time>2021-08-21T07:10:39Z</time>
      </trkpt>
      <trkpt lat="42.8220210" lon="-5.4520420">
        <ele>1248.0</ele>
        <time>2021-08-21T07:10:40Z</time>
      </trkpt>
      <trkpt lat="42.8220210" lon="-5.4520420">
        <ele>1248.0</ele>
        <time>2021-08-21T07:10:41Z</time>
      </trkpt>
      <trkpt lat="42.8220540" lon="-5.4520530">
        <ele>1248.0</ele>
        <time>2021-08-21T07:10:42Z</time>
      </trkpt>
      <trkpt lat="42.8220710" lon="-5.4520600">
        <ele>1248.0</ele>
        <time>2021-08-21T07:10:43Z</time>
      </trkpt>
      <trkpt lat="42.8220930" lon="-5.4520600">
        <ele>1248.0</ele>
        <time>2021-08-21T07:10:44Z</time>
      </trkpt>
      <trkpt lat="42.8221310" lon="-5.4520600">
        <ele>1248.0</ele>
        <time>2021-08-21T07:10:45Z</time>
      </trkpt>
      <trkpt lat="42.8221440" lon="-5.4520590">
        <ele>1249.0</ele>
        <time>2021-08-21T07:10:46Z</time>
      </trkpt>
      <trkpt lat="42.8221650" lon="-5.4520660">
        <ele>1249.0</ele>
        <time>2021-08-21T07:10:47Z</time>
      </trkpt>
      <trkpt lat="42.8221860" lon="-5.4520740">
        <ele>1249.0</ele>
        <time>2021-08-21T07:10:48Z</time>
      </trkpt>
      <trkpt lat="42.8222070" lon="-5.4520850">
        <ele>1249.0</ele>
        <time>2021-08-21T07:10:49Z</time>
      </trkpt>
      <trkpt lat="42.8222270" lon="-5.4520950">
        <ele>1249.0</ele>
        <time>2021-08-21T07:10:50Z</time>
      </trkpt>
      <trkpt lat="42.8222580" lon="-5.4521070">
        <ele>1249.0</ele>
        <time>2021-08-21T07:10:51Z</time>
      </trkpt>
      <trkpt lat="42.8222680" lon="-5.4521110">
        <ele>1249.0</ele>
        <time>2021-08-21T07:10:52Z</time>
      </trkpt>
      <trkpt lat="42.8222890" lon="-5.4521240">
        <ele>1249.0</ele>
        <time>2021-08-21T07:10:53Z</time>
      </trkpt>
      <trkpt lat="42.8223100" lon="-5.4521360">
        <ele>1249.0</ele>
        <time>2021-08-21T07:10:54Z</time>
      </trkpt>
      <trkpt lat="42.8223310" lon="-5.4521490">
        <ele>1249.0</ele>
        <time>2021-08-21T07:10:55Z</time>
      </trkpt>
      <trkpt lat="42.8223500" lon="-5.4521620">
        <ele>1250.0</ele>
        <time>2021-08-21T07:10:56Z</time>
      </trkpt>
      <trkpt lat="42.8223680" lon="-5.4521750">
        <ele>1250.0</ele>
        <time>2021-08-21T07:10:57Z</time>
      </trkpt>
      <trkpt lat="42.8223890" lon="-5.4521880">
        <ele>1250.0</ele>
        <time>2021-08-21T07:10:58Z</time>
      </trkpt>
      <trkpt lat="42.8224120" lon="-5.4521980">
        <ele>1250.0</ele>
        <time>2021-08-21T07:10:59Z</time>
      </trkpt>
      <trkpt lat="42.8224250" lon="-5.4522180">
        <ele>1250.0</ele>
        <time>2021-08-21T07:11:00Z</time>
      </trkpt>
      <trkpt lat="42.8224430" lon="-5.4522320">
        <ele>1250.0</ele>
        <time>2021-08-21T07:11:01Z</time>
      </trkpt>
      <trkpt lat="42.8224600" lon="-5.4522470">
        <ele>1250.0</ele>
        <time>2021-08-21T07:11:02Z</time>
      </trkpt>
      <trkpt lat="42.8224760" lon="-5.4522630">
        <ele>1250.0</ele>
        <time>2021-08-21T07:11:03Z</time>
      </trkpt>
      <trkpt lat="42.8225020" lon="-5.4522890">
        <ele>1250.0</ele>
        <time>2021-08-21T07:11:04Z</time>
      </trkpt>
      <trkpt lat="42.8225110" lon="-5.4523000">
        <ele>1250.0</ele>
        <time>2021-08-21T07:11:05Z</time>
      </trkpt>
      <trkpt lat="42.8225290" lon="-5.4523160">
        <ele>1250.0</ele>
        <time>2021-08-21T07:11:06Z</time>
      </trkpt>
      <trkpt lat="42.8225480" lon="-5.4523300">
        <ele>1250.0</ele>
        <time>2021-08-21T07:11:07Z</time>
      </trkpt>
      <trkpt lat="42.8225670" lon="-5.4523440">
        <ele>1250.0</ele>
        <time>2021-08-21T07:11:08Z</time>
      </trkpt>
      <trkpt lat="42.8225850" lon="-5.4523610">
        <ele>1250.0</ele>
        <time>2021-08-21T07:11:09Z</time>
      </trkpt>
      <trkpt lat="42.8226060" lon="-5.4523780">
        <ele>1251.0</ele>
        <time>2021-08-21T07:11:10Z</time>
      </trkpt>
      <trkpt lat="42.8226230" lon="-5.4523950">
        <ele>1251.0</ele>
        <time>2021-08-21T07:11:11Z</time>
      </trkpt>
      <trkpt lat="42.8226440" lon="-5.4524040">
        <ele>1251.0</ele>
        <time>2021-08-21T07:11:12Z</time>
      </trkpt>
      <trkpt lat="42.8226700" lon="-5.4524090">
        <ele>1251.0</ele>
        <time>2021-08-21T07:11:13Z</time>
      </trkpt>
      <trkpt lat="42.8226920" lon="-5.4524190">
        <ele>1251.0</ele>
        <time>2021-08-21T07:11:14Z</time>
      </trkpt>
      <trkpt lat="42.8227070" lon="-5.4524370">
        <ele>1251.0</ele>
        <time>2021-08-21T07:11:15Z</time>
      </trkpt>
      <trkpt lat="42.8227230" lon="-5.4524540">
        <ele>1251.0</ele>
        <time>2021-08-21T07:11:16Z</time>
      </trkpt>
      <trkpt lat="42.8227380" lon="-5.4524700">
        <ele>1251.0</ele>
        <time>2021-08-21T07:11:17Z</time>
      </trkpt>
      <trkpt lat="42.8227590" lon="-5.4524860">
        <ele>1251.0</ele>
        <time>2021-08-21T07:11:18Z</time>
      </trkpt>
      <trkpt lat="42.8227840" lon="-5.4524970">
        <ele>1251.0</ele>
        <time>2021-08-21T07:11:19Z</time>
      </trkpt>
      <trkpt lat="42.8228080" lon="-5.4525070">
        <ele>1251.0</ele>
        <time>2021-08-21T07:11:20Z</time>
      </trkpt>
      <trkpt lat="42.8228260" lon="-5.4525220">
        <ele>1251.0</ele>
        <time>2021-08-21T07:11:21Z</time>
      </trkpt>
      <trkpt lat="42.8228440" lon="-5.4525370">
        <ele>1251.0</ele>
        <time>2021-08-21T07:11:22Z</time>
      </trkpt>
      <trkpt lat="42.8228690" lon="-5.4525460">
        <ele>1251.0</ele>
        <time>2021-08-21T07:11:23Z</time>
      </trkpt>
      <trkpt lat="42.8228960" lon="-5.4525540">
        <ele>1251.0</ele>
        <time>2021-08-21T07:11:24Z</time>
      </trkpt>
      <trkpt lat="42.8229170" lon="-5.4525670">
        <ele>1251.0</ele>
        <time>2021-08-21T07:11:25Z</time>
      </trkpt>
      <trkpt lat="42.8229360" lon="-5.4525820">
        <ele>1251.0</ele>
        <time>2021-08-21T07:11:26Z</time>
      </trkpt>
      <trkpt lat="42.8229550" lon="-5.4525960">
        <ele>1251.0</ele>
        <time>2021-08-21T07:11:27Z</time>
      </trkpt>
      <trkpt lat="42.8229750" lon="-5.4526120">
        <ele>1251.0</ele>
        <time>2021-08-21T07:11:28Z</time>
      </trkpt>
      <trkpt lat="42.8229950" lon="-5.4526240">
        <ele>1252.0</ele>
        <time>2021-08-21T07:11:29Z</time>
      </trkpt>
      <trkpt lat="42.8230160" lon="-5.4526370">
        <ele>1252.0</ele>
        <time>2021-08-21T07:11:30Z</time>
      </trkpt>
      <trkpt lat="42.8230380" lon="-5.4526500">
        <ele>1252.0</ele>
        <time>2021-08-21T07:11:31Z</time>
      </trkpt>
      <trkpt lat="42.8230590" lon="-5.4526630">
        <ele>1252.0</ele>
        <time>2021-08-21T07:11:32Z</time>
      </trkpt>
      <trkpt lat="42.8230780" lon="-5.4526770">
        <ele>1252.0</ele>
        <time>2021-08-21T07:11:33Z</time>
      </trkpt>
      <trkpt lat="42.8231000" lon="-5.4526870">
        <ele>1252.0</ele>
        <time>2021-08-21T07:11:34Z</time>
      </trkpt>
      <trkpt lat="42.8231230" lon="-5.4526960">
        <ele>1252.0</ele>
        <time>2021-08-21T07:11:35Z</time>
      </trkpt>
      <trkpt lat="42.8231440" lon="-5.4527080">
        <ele>1252.0</ele>
        <time>2021-08-21T07:11:36Z</time>
      </trkpt>
      <trkpt lat="42.8231620" lon="-5.4527220">
        <ele>1252.0</ele>
        <time>2021-08-21T07:11:37Z</time>
      </trkpt>
      <trkpt lat="42.8231810" lon="-5.4527380">
        <ele>1252.0</ele>
        <time>2021-08-21T07:11:38Z</time>
      </trkpt>
      <trkpt lat="42.8232010" lon="-5.4527550">
        <ele>1253.0</ele>
        <time>2021-08-21T07:11:39Z</time>
      </trkpt>
      <trkpt lat="42.8232240" lon="-5.4527720">
        <ele>1253.0</ele>
        <time>2021-08-21T07:11:40Z</time>
      </trkpt>
      <trkpt lat="42.8232470" lon="-5.4527870">
        <ele>1253.0</ele>
        <time>2021-08-21T07:11:41Z</time>
      </trkpt>
      <trkpt lat="42.8232790" lon="-5.4528070">
        <ele>1253.0</ele>
        <time>2021-08-21T07:11:42Z</time>
      </trkpt>
      <trkpt lat="42.8232890" lon="-5.4528140">
        <ele>1253.0</ele>
        <time>2021-08-21T07:11:43Z</time>
      </trkpt>
      <trkpt lat="42.8233120" lon="-5.4528290">
        <ele>1253.0</ele>
        <time>2021-08-21T07:11:44Z</time>
      </trkpt>
      <trkpt lat="42.8233340" lon="-5.4528430">
        <ele>1253.0</ele>
        <time>2021-08-21T07:11:45Z</time>
      </trkpt>
      <trkpt lat="42.8233550" lon="-5.4528590">
        <ele>1253.0</ele>
        <time>2021-08-21T07:11:46Z</time>
      </trkpt>
      <trkpt lat="42.8233770" lon="-5.4528740">
        <ele>1253.0</ele>
        <time>2021-08-21T07:11:47Z</time>
      </trkpt>
      <trkpt lat="42.8234000" lon="-5.4528880">
        <ele>1253.0</ele>
        <time>2021-08-21T07:11:48Z</time>
      </trkpt>
      <trkpt lat="42.8234230" lon="-5.4529010">
        <ele>1253.0</ele>
        <time>2021-08-21T07:11:49Z</time>
      </trkpt>
      <trkpt lat="42.8234460" lon="-5.4529160">
        <ele>1253.0</ele>
        <time>2021-08-21T07:11:50Z</time>
      </trkpt>
      <trkpt lat="42.8234670" lon="-5.4529310">
        <ele>1253.0</ele>
        <time>2021-08-21T07:11:51Z</time>
      </trkpt>
      <trkpt lat="42.8234860" lon="-5.4529480">
        <ele>1253.0</ele>
        <time>2021-08-21T07:11:52Z</time>
      </trkpt>
      <trkpt lat="42.8235070" lon="-5.4529610">
        <ele>1253.0</ele>
        <time>2021-08-21T07:11:53Z</time>
      </trkpt>
      <trkpt lat="42.8235300" lon="-5.4529720">
        <ele>1253.0</ele>
        <time>2021-08-21T07:11:54Z</time>
      </trkpt>
      <trkpt lat="42.8235560" lon="-5.4529840">
        <ele>1253.0</ele>
        <time>2021-08-21T07:11:55Z</time>
      </trkpt>
      <trkpt lat="42.8235750" lon="-5.4530010">
        <ele>1253.0</ele>
        <time>2021-08-21T07:11:56Z</time>
      </trkpt>
      <trkpt lat="42.8235950" lon="-5.4530180">
        <ele>1253.0</ele>
        <time>2021-08-21T07:11:57Z</time>
      </trkpt>
      <trkpt lat="42.8236230" lon="-5.4530420">
        <ele>1253.0</ele>
        <time>2021-08-21T07:11:58Z</time>
      </trkpt>
      <trkpt lat="42.8236330" lon="-5.4530490">
        <ele>1254.0</ele>
        <time>2021-08-21T07:11:59Z</time>
      </trkpt>
      <trkpt lat="42.8236540" lon="-5.4530590">
        <ele>1254.0</ele>
        <time>2021-08-21T07:12:00Z</time>
      </trkpt>
      <trkpt lat="42.8236770" lon="-5.4530700">
        <ele>1254.0</ele>
        <time>2021-08-21T07:12:01Z</time>
      </trkpt>
      <trkpt lat="42.8237030" lon="-5.4530750">
        <ele>1254.0</ele>
        <time>2021-08-21T07:12:02Z</time>
      </trkpt>
      <trkpt lat="42.8237260" lon="-5.4530870">
        <ele>1254.0</ele>
        <time>2021-08-21T07:12:03Z</time>
      </trkpt>
      <trkpt lat="42.8237500" lon="-5.4530960">
        <ele>1254.0</ele>
        <time>2021-08-21T07:12:04Z</time>
      </trkpt>
      <trkpt lat="42.8237730" lon="-5.4531060">
        <ele>1254.0</ele>
        <time>2021-08-21T07:12:05Z</time>
      </trkpt>
      <trkpt lat="42.8237930" lon="-5.4531200">
        <ele>1254.0</ele>
        <time>2021-08-21T07:12:06Z</time>
      </trkpt>
      <trkpt lat="42.8238240" lon="-5.4531380">
        <ele>1254.0</ele>
        <time>2021-08-21T07:12:07Z</time>
      </trkpt>
      <trkpt lat="42.8238330" lon="-5.4531450">
        <ele>1255.0</ele>
        <time>2021-08-21T07:12:08Z</time>
      </trkpt>
      <trkpt lat="42.8238580" lon="-5.4531530">
        <ele>1255.0</ele>
        <time>2021-08-21T07:12:09Z</time>
      </trkpt>
      <trkpt lat="42.8238780" lon="-5.4531680">
        <ele>1255.0</ele>
        <time>2021-08-21T07:12:10Z</time>
      </trkpt>
      <trkpt lat="42.8238970" lon="-5.4531840">
        <ele>1255.0</ele>
        <time>2021-08-21T07:12:11Z</time>
      </trkpt>
      <trkpt lat="42.8239190" lon="-5.4531940">
        <ele>1255.0</ele>
        <time>2021-08-21T07:12:12Z</time>
      </trkpt>
      <trkpt lat="42.8239360" lon="-5.4532030">
        <ele>1255.0</ele>
        <time>2021-08-21T07:12:13Z</time>
      </trkpt>
      <trkpt lat="42.8239560" lon="-5.4532150">
        <ele>1256.0</ele>
        <time>2021-08-21T07:12:14Z</time>
      </trkpt>
      <trkpt lat="42.8239750" lon="-5.4532260">
        <ele>1256.0</ele>
        <time>2021-08-21T07:12:15Z</time>
      </trkpt>
      <trkpt lat="42.8240010" lon="-5.4532300">
        <ele>1256.0</ele>
        <time>2021-08-21T07:12:16Z</time>
      </trkpt>
      <trkpt lat="42.8240270" lon="-5.4532320">
        <ele>1256.0</ele>
        <time>2021-08-21T07:12:17Z</time>
      </trkpt>
      <trkpt lat="42.8240470" lon="-5.4532440">
        <ele>1257.0</ele>
        <time>2021-08-21T07:12:18Z</time>
      </trkpt>
      <trkpt lat="42.8240760" lon="-5.4532510">
        <ele>1257.0</ele>
        <time>2021-08-21T07:12:19Z</time>
      </trkpt>
      <trkpt lat="42.8240960" lon="-5.4532620">
        <ele>1257.0</ele>
        <time>2021-08-21T07:12:20Z</time>
      </trkpt>
      <trkpt lat="42.8241230" lon="-5.4532690">
        <ele>1257.0</ele>
        <time>2021-08-21T07:12:21Z</time>
      </trkpt>
      <trkpt lat="42.8241610" lon="-5.4532750">
        <ele>1257.0</ele>
        <time>2021-08-21T07:12:22Z</time>
      </trkpt>
      <trkpt lat="42.8241730" lon="-5.4532780">
        <ele>1257.0</ele>
        <time>2021-08-21T07:12:23Z</time>
      </trkpt>
      <trkpt lat="42.8241970" lon="-5.4532820">
        <ele>1257.0</ele>
        <time>2021-08-21T07:12:24Z</time>
      </trkpt>
      <trkpt lat="42.8242190" lon="-5.4532840">
        <ele>1257.0</ele>
        <time>2021-08-21T07:12:25Z</time>
      </trkpt>
      <trkpt lat="42.8242430" lon="-5.4532850">
        <ele>1257.0</ele>
        <time>2021-08-21T07:12:26Z</time>
      </trkpt>
      <trkpt lat="42.8242670" lon="-5.4532860">
        <ele>1258.0</ele>
        <time>2021-08-21T07:12:27Z</time>
      </trkpt>
      <trkpt lat="42.8242890" lon="-5.4532890">
        <ele>1258.0</ele>
        <time>2021-08-21T07:12:28Z</time>
      </trkpt>
      <trkpt lat="42.8243120" lon="-5.4532920">
        <ele>1258.0</ele>
        <time>2021-08-21T07:12:29Z</time>
      </trkpt>
      <trkpt lat="42.8243360" lon="-5.4532930">
        <ele>1258.0</ele>
        <time>2021-08-21T07:12:30Z</time>
      </trkpt>
      <trkpt lat="42.8243590" lon="-5.4532930">
        <ele>1258.0</ele>
        <time>2021-08-21T07:12:31Z</time>
      </trkpt>
      <trkpt lat="42.8243810" lon="-5.4532900">
        <ele>1258.0</ele>
        <time>2021-08-21T07:12:32Z</time>
      </trkpt>
      <trkpt lat="42.8244100" lon="-5.4532810">
        <ele>1258.0</ele>
        <time>2021-08-21T07:12:33Z</time>
      </trkpt>
      <trkpt lat="42.8244390" lon="-5.4532740">
        <ele>1258.0</ele>
        <time>2021-08-21T07:12:34Z</time>
      </trkpt>
      <trkpt lat="42.8244640" lon="-5.4532660">
        <ele>1258.0</ele>
        <time>2021-08-21T07:12:35Z</time>
      </trkpt>
      <trkpt lat="42.8245030" lon="-5.4532490">
        <ele>1258.0</ele>
        <time>2021-08-21T07:12:36Z</time>
      </trkpt>
      <trkpt lat="42.8245190" lon="-5.4532420">
        <ele>1258.0</ele>
        <time>2021-08-21T07:12:37Z</time>
      </trkpt>
      <trkpt lat="42.8245490" lon="-5.4532280">
        <ele>1258.0</ele>
        <time>2021-08-21T07:12:38Z</time>
      </trkpt>
      <trkpt lat="42.8245740" lon="-5.4532130">
        <ele>1258.0</ele>
        <time>2021-08-21T07:12:39Z</time>
      </trkpt>
      <trkpt lat="42.8245990" lon="-5.4531980">
        <ele>1258.0</ele>
        <time>2021-08-21T07:12:40Z</time>
      </trkpt>
      <trkpt lat="42.8246220" lon="-5.4531850">
        <ele>1258.0</ele>
        <time>2021-08-21T07:12:41Z</time>
      </trkpt>
      <trkpt lat="42.8246470" lon="-5.4531720">
        <ele>1258.0</ele>
        <time>2021-08-21T07:12:42Z</time>
      </trkpt>
      <trkpt lat="42.8246730" lon="-5.4531550">
        <ele>1259.0</ele>
        <time>2021-08-21T07:12:43Z</time>
      </trkpt>
      <trkpt lat="42.8246960" lon="-5.4531370">
        <ele>1259.0</ele>
        <time>2021-08-21T07:12:44Z</time>
      </trkpt>
      <trkpt lat="42.8247190" lon="-5.4531190">
        <ele>1259.0</ele>
        <time>2021-08-21T07:12:45Z</time>
      </trkpt>
      <trkpt lat="42.8247410" lon="-5.4530990">
        <ele>1259.0</ele>
        <time>2021-08-21T07:12:46Z</time>
      </trkpt>
      <trkpt lat="42.8247630" lon="-5.4530790">
        <ele>1259.0</ele>
        <time>2021-08-21T07:12:47Z</time>
      </trkpt>
      <trkpt lat="42.8247870" lon="-5.4530620">
        <ele>1259.0</ele>
        <time>2021-08-21T07:12:48Z</time>
      </trkpt>
      <trkpt lat="42.8248120" lon="-5.4530460">
        <ele>1259.0</ele>
        <time>2021-08-21T07:12:49Z</time>
      </trkpt>
      <trkpt lat="42.8248330" lon="-5.4530280">
        <ele>1259.0</ele>
        <time>2021-08-21T07:12:50Z</time>
      </trkpt>
      <trkpt lat="42.8248520" lon="-5.4530090">
        <ele>1259.0</ele>
        <time>2021-08-21T07:12:51Z</time>
      </trkpt>
      <trkpt lat="42.8248830" lon="-5.4529810">
        <ele>1259.0</ele>
        <time>2021-08-21T07:12:52Z</time>
      </trkpt>
      <trkpt lat="42.8248940" lon="-5.4529710">
        <ele>1259.0</ele>
        <time>2021-08-21T07:12:53Z</time>
      </trkpt>
      <trkpt lat="42.8249180" lon="-5.4529510">
        <ele>1259.0</ele>
        <time>2021-08-21T07:12:54Z</time>
      </trkpt>
      <trkpt lat="42.8249400" lon="-5.4529290">
        <ele>1259.0</ele>
        <time>2021-08-21T07:12:55Z</time>
      </trkpt>
      <trkpt lat="42.8249720" lon="-5.4528970">
        <ele>1259.0</ele>
        <time>2021-08-21T07:12:56Z</time>
      </trkpt>
      <trkpt lat="42.8249820" lon="-5.4528870">
        <ele>1259.0</ele>
        <time>2021-08-21T07:12:57Z</time>
      </trkpt>
      <trkpt lat="42.8250020" lon="-5.4528670">
        <ele>1259.0</ele>
        <time>2021-08-21T07:12:58Z</time>
      </trkpt>
      <trkpt lat="42.8250470" lon="-5.4528280">
        <ele>1259.0</ele>
        <time>2021-08-21T07:13:00Z</time>
      </trkpt>
      <trkpt lat="42.8250680" lon="-5.4528050">
        <ele>1259.0</ele>
        <time>2021-08-21T07:13:01Z</time>
      </trkpt>
      <trkpt lat="42.8250910" lon="-5.4527830">
        <ele>1259.0</ele>
        <time>2021-08-21T07:13:02Z</time>
      </trkpt>
      <trkpt lat="42.8251140" lon="-5.4527620">
        <ele>1260.0</ele>
        <time>2021-08-21T07:13:03Z</time>
      </trkpt>
      <trkpt lat="42.8251350" lon="-5.4527420">
        <ele>1260.0</ele>
        <time>2021-08-21T07:13:04Z</time>
      </trkpt>
      <trkpt lat="42.8251570" lon="-5.4527230">
        <ele>1260.0</ele>
        <time>2021-08-21T07:13:05Z</time>
      </trkpt>
      <trkpt lat="42.8251790" lon="-5.4527060">
        <ele>1260.0</ele>
        <time>2021-08-21T07:13:06Z</time>
      </trkpt>
      <trkpt lat="42.8252010" lon="-5.4526900">
        <ele>1260.0</ele>
        <time>2021-08-21T07:13:07Z</time>
      </trkpt>
      <trkpt lat="42.8252240" lon="-5.4526720">
        <ele>1260.0</ele>
        <time>2021-08-21T07:13:08Z</time>
      </trkpt>
      <trkpt lat="42.8252500" lon="-5.4526540">
        <ele>1261.0</ele>
        <time>2021-08-21T07:13:09Z</time>
      </trkpt>
      <trkpt lat="42.8252720" lon="-5.4526380">
        <ele>1261.0</ele>
        <time>2021-08-21T07:13:10Z</time>
      </trkpt>
      <trkpt lat="42.8253030" lon="-5.4526110">
        <ele>1261.0</ele>
        <time>2021-08-21T07:13:11Z</time>
      </trkpt>
      <trkpt lat="42.8253140" lon="-5.4526000">
        <ele>1261.0</ele>
        <time>2021-08-21T07:13:12Z</time>
      </trkpt>
      <trkpt lat="42.8253320" lon="-5.4525800">
        <ele>1261.0</ele>
        <time>2021-08-21T07:13:13Z</time>
      </trkpt>
      <trkpt lat="42.8253480" lon="-5.4525610">
        <ele>1261.0</ele>
        <time>2021-08-21T07:13:14Z</time>
      </trkpt>
      <trkpt lat="42.8253670" lon="-5.4525430">
        <ele>1261.0</ele>
        <time>2021-08-21T07:13:15Z</time>
      </trkpt>
      <trkpt lat="42.8253890" lon="-5.4525270">
        <ele>1261.0</ele>
        <time>2021-08-21T07:13:16Z</time>
      </trkpt>
      <trkpt lat="42.8254210" lon="-5.4525030">
        <ele>1261.0</ele>
        <time>2021-08-21T07:13:17Z</time>
      </trkpt>
      <trkpt lat="42.8254320" lon="-5.4524950">
        <ele>1262.0</ele>
        <time>2021-08-21T07:13:18Z</time>
      </trkpt>
      <trkpt lat="42.8254550" lon="-5.4524790">
        <ele>1262.0</ele>
        <time>2021-08-21T07:13:19Z</time>
      </trkpt>
      <trkpt lat="42.8254810" lon="-5.4524620">
        <ele>1262.0</ele>
        <time>2021-08-21T07:13:20Z</time>
      </trkpt>
      <trkpt lat="42.8255200" lon="-5.4524330">
        <ele>1262.0</ele>
        <time>2021-08-21T07:13:21Z</time>
      </trkpt>
      <trkpt lat="42.8255320" lon="-5.4524240">
        <ele>1262.0</ele>
        <time>2021-08-21T07:13:22Z</time>
      </trkpt>
      <trkpt lat="42.8255540" lon="-5.4524030">
        <ele>1263.0</ele>
        <time>2021-08-21T07:13:23Z</time>
      </trkpt>
      <trkpt lat="42.8255780" lon="-5.4523870">
        <ele>1263.0</ele>
        <time>2021-08-21T07:13:24Z</time>
      </trkpt>
      <trkpt lat="42.8256000" lon="-5.4523710">
        <ele>1263.0</ele>
        <time>2021-08-21T07:13:25Z</time>
      </trkpt>
      <trkpt lat="42.8256200" lon="-5.4523520">
        <ele>1263.0</ele>
        <time>2021-08-21T07:13:26Z</time>
      </trkpt>
      <trkpt lat="42.8256380" lon="-5.4523350">
        <ele>1263.0</ele>
        <time>2021-08-21T07:13:27Z</time>
      </trkpt>
      <trkpt lat="42.8256690" lon="-5.4523090">
        <ele>1263.0</ele>
        <time>2021-08-21T07:13:28Z</time>
      </trkpt>
      <trkpt lat="42.8256770" lon="-5.4522990">
        <ele>1263.0</ele>
        <time>2021-08-21T07:13:29Z</time>
      </trkpt>
      <trkpt lat="42.8256940" lon="-5.4522790">
        <ele>1263.0</ele>
        <time>2021-08-21T07:13:30Z</time>
      </trkpt>
      <trkpt lat="42.8257130" lon="-5.4522600">
        <ele>1263.0</ele>
        <time>2021-08-21T07:13:31Z</time>
      </trkpt>
      <trkpt lat="42.8257130" lon="-5.4522600">
        <ele>1264.0</ele>
        <time>2021-08-21T07:13:32Z</time>
      </trkpt>
      <trkpt lat="42.8257500" lon="-5.4522210">
        <ele>1264.0</ele>
        <time>2021-08-21T07:13:33Z</time>
      </trkpt>
      <trkpt lat="42.8257700" lon="-5.4522030">
        <ele>1264.0</ele>
        <time>2021-08-21T07:13:34Z</time>
      </trkpt>
      <trkpt lat="42.8257930" lon="-5.4521850">
        <ele>1264.0</ele>
        <time>2021-08-21T07:13:35Z</time>
      </trkpt>
      <trkpt lat="42.8258140" lon="-5.4521720">
        <ele>1264.0</ele>
        <time>2021-08-21T07:13:36Z</time>
      </trkpt>
      <trkpt lat="42.8258380" lon="-5.4521580">
        <ele>1265.0</ele>
        <time>2021-08-21T07:13:37Z</time>
      </trkpt>
      <trkpt lat="42.8258710" lon="-5.4521250">
        <ele>1265.0</ele>
        <time>2021-08-21T07:13:38Z</time>
      </trkpt>
      <trkpt lat="42.8258820" lon="-5.4521130">
        <ele>1265.0</ele>
        <time>2021-08-21T07:13:39Z</time>
      </trkpt>
      <trkpt lat="42.8259060" lon="-5.4520940">
        <ele>1265.0</ele>
        <time>2021-08-21T07:13:40Z</time>
      </trkpt>
      <trkpt lat="42.8259280" lon="-5.4520770">
        <ele>1265.0</ele>
        <time>2021-08-21T07:13:41Z</time>
      </trkpt>
      <trkpt lat="42.8259600" lon="-5.4520600">
        <ele>1265.0</ele>
        <time>2021-08-21T07:13:42Z</time>
      </trkpt>
      <trkpt lat="42.8259710" lon="-5.4520520">
        <ele>1265.0</ele>
        <time>2021-08-21T07:13:43Z</time>
      </trkpt>
      <trkpt lat="42.8259920" lon="-5.4520390">
        <ele>1265.0</ele>
        <time>2021-08-21T07:13:44Z</time>
      </trkpt>
      <trkpt lat="42.8260150" lon="-5.4520290">
        <ele>1265.0</ele>
        <time>2021-08-21T07:13:45Z</time>
      </trkpt>
      <trkpt lat="42.8260370" lon="-5.4520200">
        <ele>1265.0</ele>
        <time>2021-08-21T07:13:46Z</time>
      </trkpt>
      <trkpt lat="42.8260600" lon="-5.4520110">
        <ele>1265.0</ele>
        <time>2021-08-21T07:13:47Z</time>
      </trkpt>
      <trkpt lat="42.8260830" lon="-5.4519990">
        <ele>1265.0</ele>
        <time>2021-08-21T07:13:48Z</time>
      </trkpt>
      <trkpt lat="42.8261110" lon="-5.4519870">
        <ele>1265.0</ele>
        <time>2021-08-21T07:13:49Z</time>
      </trkpt>
      <trkpt lat="42.8261370" lon="-5.4519770">
        <ele>1265.0</ele>
        <time>2021-08-21T07:13:50Z</time>
      </trkpt>
      <trkpt lat="42.8261750" lon="-5.4519610">
        <ele>1265.0</ele>
        <time>2021-08-21T07:13:51Z</time>
      </trkpt>
      <trkpt lat="42.8261890" lon="-5.4519550">
        <ele>1265.0</ele>
        <time>2021-08-21T07:13:52Z</time>
      </trkpt>
      <trkpt lat="42.8262170" lon="-5.4519460">
        <ele>1265.0</ele>
        <time>2021-08-21T07:13:53Z</time>
      </trkpt>
      <trkpt lat="42.8262440" lon="-5.4519440">
        <ele>1265.0</ele>
        <time>2021-08-21T07:13:54Z</time>
      </trkpt>
      <trkpt lat="42.8262850" lon="-5.4519410">
        <ele>1265.0</ele>
        <time>2021-08-21T07:13:55Z</time>
      </trkpt>
      <trkpt lat="42.8262970" lon="-5.4519400">
        <ele>1265.0</ele>
        <time>2021-08-21T07:13:56Z</time>
      </trkpt>
      <trkpt lat="42.8263210" lon="-5.4519420">
        <ele>1265.0</ele>
        <time>2021-08-21T07:13:57Z</time>
      </trkpt>
      <trkpt lat="42.8263580" lon="-5.4519510">
        <ele>1265.0</ele>
        <time>2021-08-21T07:13:58Z</time>
      </trkpt>
      <trkpt lat="42.8263700" lon="-5.4519560">
        <ele>1265.0</ele>
        <time>2021-08-21T07:13:59Z</time>
      </trkpt>
      <trkpt lat="42.8263930" lon="-5.4519650">
        <ele>1265.0</ele>
        <time>2021-08-21T07:14:00Z</time>
      </trkpt>
      <trkpt lat="42.8264150" lon="-5.4519780">
        <ele>1264.0</ele>
        <time>2021-08-21T07:14:01Z</time>
      </trkpt>
      <trkpt lat="42.8264540" lon="-5.4520000">
        <ele>1264.0</ele>
        <time>2021-08-21T07:14:02Z</time>
      </trkpt>
      <trkpt lat="42.8264660" lon="-5.4520070">
        <ele>1264.0</ele>
        <time>2021-08-21T07:14:03Z</time>
      </trkpt>
      <trkpt lat="42.8264940" lon="-5.4520210">
        <ele>1264.0</ele>
        <time>2021-08-21T07:14:04Z</time>
      </trkpt>
      <trkpt lat="42.8265210" lon="-5.4520360">
        <ele>1264.0</ele>
        <time>2021-08-21T07:14:05Z</time>
      </trkpt>
      <trkpt lat="42.8265460" lon="-5.4520500">
        <ele>1264.0</ele>
        <time>2021-08-21T07:14:06Z</time>
      </trkpt>
      <trkpt lat="42.8265710" lon="-5.4520650">
        <ele>1264.0</ele>
        <time>2021-08-21T07:14:07Z</time>
      </trkpt>
      <trkpt lat="42.8265940" lon="-5.4520820">
        <ele>1264.0</ele>
        <time>2021-08-21T07:14:08Z</time>
      </trkpt>
      <trkpt lat="42.8266180" lon="-5.4520990">
        <ele>1264.0</ele>
        <time>2021-08-21T07:14:09Z</time>
      </trkpt>
      <trkpt lat="42.8266450" lon="-5.4521120">
        <ele>1263.0</ele>
        <time>2021-08-21T07:14:10Z</time>
      </trkpt>
      <trkpt lat="42.8266730" lon="-5.4521270">
        <ele>1263.0</ele>
        <time>2021-08-21T07:14:11Z</time>
      </trkpt>
      <trkpt lat="42.8267010" lon="-5.4521400">
        <ele>1262.0</ele>
        <time>2021-08-21T07:14:12Z</time>
      </trkpt>
      <trkpt lat="42.8267290" lon="-5.4521530">
        <ele>1262.0</ele>
        <time>2021-08-21T07:14:13Z</time>
      </trkpt>
      <trkpt lat="42.8267570" lon="-5.4521680">
        <ele>1262.0</ele>
        <time>2021-08-21T07:14:14Z</time>
      </trkpt>
      <trkpt lat="42.8267840" lon="-5.4521830">
        <ele>1261.0</ele>
        <time>2021-08-21T07:14:15Z</time>
      </trkpt>
      <trkpt lat="42.8268110" lon="-5.4522040">
        <ele>1261.0</ele>
        <time>2021-08-21T07:14:16Z</time>
      </trkpt>
      <trkpt lat="42.8268360" lon="-5.4522220">
        <ele>1260.0</ele>
        <time>2021-08-21T07:14:17Z</time>
      </trkpt>
      <trkpt lat="42.8268740" lon="-5.4522490">
        <ele>1260.0</ele>
        <time>2021-08-21T07:14:18Z</time>
      </trkpt>
      <trkpt lat="42.8268860" lon="-5.4522580">
        <ele>1259.0</ele>
        <time>2021-08-21T07:14:19Z</time>
      </trkpt>
      <trkpt lat="42.8269240" lon="-5.4522820">
        <ele>1259.0</ele>
        <time>2021-08-21T07:14:20Z</time>
      </trkpt>
      <trkpt lat="42.8269370" lon="-5.4522910">
        <ele>1258.0</ele>
        <time>2021-08-21T07:14:21Z</time>
      </trkpt>
      <trkpt lat="42.8269640" lon="-5.4523070">
        <ele>1258.0</ele>
        <time>2021-08-21T07:14:22Z</time>
      </trkpt>
      <trkpt lat="42.8269900" lon="-5.4523250">
        <ele>1258.0</ele>
        <time>2021-08-21T07:14:23Z</time>
      </trkpt>
      <trkpt lat="42.8270100" lon="-5.4523480">
        <ele>1258.0</ele>
        <time>2021-08-21T07:14:24Z</time>
      </trkpt>
      <trkpt lat="42.8270320" lon="-5.4523690">
        <ele>1258.0</ele>
        <time>2021-08-21T07:14:25Z</time>
      </trkpt>
      <trkpt lat="42.8270530" lon="-5.4523930">
        <ele>1258.0</ele>
        <time>2021-08-21T07:14:26Z</time>
      </trkpt>
      <trkpt lat="42.8270890" lon="-5.4524240">
        <ele>1258.0</ele>
        <time>2021-08-21T07:14:27Z</time>
      </trkpt>
      <trkpt lat="42.8271020" lon="-5.4524340">
        <ele>1258.0</ele>
        <time>2021-08-21T07:14:28Z</time>
      </trkpt>
      <trkpt lat="42.8271280" lon="-5.4524480">
        <ele>1257.0</ele>
        <time>2021-08-21T07:14:29Z</time>
      </trkpt>
      <trkpt lat="42.8271550" lon="-5.4524590">
        <ele>1257.0</ele>
        <time>2021-08-21T07:14:30Z</time>
      </trkpt>
      <trkpt lat="42.8271800" lon="-5.4524720">
        <ele>1257.0</ele>
        <time>2021-08-21T07:14:31Z</time>
      </trkpt>
      <trkpt lat="42.8272060" lon="-5.4524800">
        <ele>1257.0</ele>
        <time>2021-08-21T07:14:32Z</time>
      </trkpt>
      <trkpt lat="42.8272340" lon="-5.4524870">
        <ele>1257.0</ele>
        <time>2021-08-21T07:14:33Z</time>
      </trkpt>
      <trkpt lat="42.8272590" lon="-5.4524890">
        <ele>1257.0</ele>
        <time>2021-08-21T07:14:34Z</time>
      </trkpt>
      <trkpt lat="42.8272870" lon="-5.4524840">
        <ele>1257.0</ele>
        <time>2021-08-21T07:14:35Z</time>
      </trkpt>
      <trkpt lat="42.8273300" lon="-5.4524630">
        <ele>1257.0</ele>
        <time>2021-08-21T07:14:36Z</time>
      </trkpt>
      <trkpt lat="42.8273440" lon="-5.4524550">
        <ele>1257.0</ele>
        <time>2021-08-21T07:14:37Z</time>
      </trkpt>
      <trkpt lat="42.8273710" lon="-5.4524360">
        <ele>1257.0</ele>
        <time>2021-08-21T07:14:38Z</time>
      </trkpt>
      <trkpt lat="42.8273970" lon="-5.4524170">
        <ele>1257.0</ele>
        <time>2021-08-21T07:14:39Z</time>
      </trkpt>
      <trkpt lat="42.8274220" lon="-5.4523960">
        <ele>1257.0</ele>
        <time>2021-08-21T07:14:40Z</time>
      </trkpt>
      <trkpt lat="42.8274480" lon="-5.4523740">
        <ele>1257.0</ele>
        <time>2021-08-21T07:14:41Z</time>
      </trkpt>
      <trkpt lat="42.8274700" lon="-5.4523520">
        <ele>1256.0</ele>
        <time>2021-08-21T07:14:42Z</time>
      </trkpt>
      <trkpt lat="42.8274960" lon="-5.4523270">
        <ele>1256.0</ele>
        <time>2021-08-21T07:14:43Z</time>
      </trkpt>
      <trkpt lat="42.8275190" lon="-5.4523020">
        <ele>1256.0</ele>
        <time>2021-08-21T07:14:44Z</time>
      </trkpt>
      <trkpt lat="42.8275480" lon="-5.4522630">
        <ele>1256.0</ele>
        <time>2021-08-21T07:14:45Z</time>
      </trkpt>
      <trkpt lat="42.8275570" lon="-5.4522490">
        <ele>1256.0</ele>
        <time>2021-08-21T07:14:46Z</time>
      </trkpt>
      <trkpt lat="42.8275760" lon="-5.4522200">
        <ele>1256.0</ele>
        <time>2021-08-21T07:14:47Z</time>
      </trkpt>
      <trkpt lat="42.8275980" lon="-5.4521900">
        <ele>1256.0</ele>
        <time>2021-08-21T07:14:48Z</time>
      </trkpt>
      <trkpt lat="42.8276180" lon="-5.4521600">
        <ele>1256.0</ele>
        <time>2021-08-21T07:14:49Z</time>
      </trkpt>
      <trkpt lat="42.8276350" lon="-5.4521300">
        <ele>1256.0</ele>
        <time>2021-08-21T07:14:50Z</time>
      </trkpt>
      <trkpt lat="42.8276520" lon="-5.4520990">
        <ele>1255.0</ele>
        <time>2021-08-21T07:14:51Z</time>
      </trkpt>
      <trkpt lat="42.8276700" lon="-5.4520690">
        <ele>1255.0</ele>
        <time>2021-08-21T07:14:52Z</time>
      </trkpt>
      <trkpt lat="42.8276870" lon="-5.4520420">
        <ele>1255.0</ele>
        <time>2021-08-21T07:14:53Z</time>
      </trkpt>
      <trkpt lat="42.8277050" lon="-5.4520160">
        <ele>1255.0</ele>
        <time>2021-08-21T07:14:54Z</time>
      </trkpt>
      <trkpt lat="42.8277330" lon="-5.4519800">
        <ele>1255.0</ele>
        <time>2021-08-21T07:14:55Z</time>
      </trkpt>
      <trkpt lat="42.8277410" lon="-5.4519680">
        <ele>1255.0</ele>
        <time>2021-08-21T07:14:56Z</time>
      </trkpt>
      <trkpt lat="42.8277570" lon="-5.4519470">
        <ele>1255.0</ele>
        <time>2021-08-21T07:14:57Z</time>
      </trkpt>
      <trkpt lat="42.8277870" lon="-5.4519170">
        <ele>1255.0</ele>
        <time>2021-08-21T07:14:58Z</time>
      </trkpt>
      <trkpt lat="42.8277960" lon="-5.4519060">
        <ele>1255.0</ele>
        <time>2021-08-21T07:14:59Z</time>
      </trkpt>
      <trkpt lat="42.8278180" lon="-5.4518870">
        <ele>1255.0</ele>
        <time>2021-08-21T07:15:00Z</time>
      </trkpt>
      <trkpt lat="42.8278540" lon="-5.4518620">
        <ele>1255.0</ele>
        <time>2021-08-21T07:15:01Z</time>
      </trkpt>
      <trkpt lat="42.8278670" lon="-5.4518530">
        <ele>1255.0</ele>
        <time>2021-08-21T07:15:02Z</time>
      </trkpt>
      <trkpt lat="42.8278950" lon="-5.4518390">
        <ele>1255.0</ele>
        <time>2021-08-21T07:15:03Z</time>
      </trkpt>
      <trkpt lat="42.8278950" lon="-5.4518390">
        <ele>1255.0</ele>
        <time>2021-08-21T07:15:04Z</time>
      </trkpt>
      <trkpt lat="42.8279580" lon="-5.4518180">
        <ele>1255.0</ele>
        <time>2021-08-21T07:15:05Z</time>
      </trkpt>
      <trkpt lat="42.8279700" lon="-5.4518140">
        <ele>1255.0</ele>
        <time>2021-08-21T07:15:06Z</time>
      </trkpt>
      <trkpt lat="42.8279950" lon="-5.4518060">
        <ele>1254.0</ele>
        <time>2021-08-21T07:15:07Z</time>
      </trkpt>
      <trkpt lat="42.8280220" lon="-5.4518000">
        <ele>1254.0</ele>
        <time>2021-08-21T07:15:08Z</time>
      </trkpt>
      <trkpt lat="42.8280450" lon="-5.4517900">
        <ele>1254.0</ele>
        <time>2021-08-21T07:15:09Z</time>
      </trkpt>
      <trkpt lat="42.8280670" lon="-5.4517870">
        <ele>1254.0</ele>
        <time>2021-08-21T07:15:10Z</time>
      </trkpt>
      <trkpt lat="42.8280890" lon="-5.4517860">
        <ele>1254.0</ele>
        <time>2021-08-21T07:15:11Z</time>
      </trkpt>
      <trkpt lat="42.8280890" lon="-5.4517860">
        <ele>1254.0</ele>
        <time>2021-08-21T07:15:12Z</time>
      </trkpt>
      <trkpt lat="42.8281450" lon="-5.4517680">
        <ele>1254.0</ele>
        <time>2021-08-21T07:15:13Z</time>
      </trkpt>
      <trkpt lat="42.8281570" lon="-5.4517650">
        <ele>1254.0</ele>
        <time>2021-08-21T07:15:14Z</time>
      </trkpt>
      <trkpt lat="42.8281760" lon="-5.4517590">
        <ele>1254.0</ele>
        <time>2021-08-21T07:15:15Z</time>
      </trkpt>
      <trkpt lat="42.8281960" lon="-5.4517630">
        <ele>1254.0</ele>
        <time>2021-08-21T07:15:16Z</time>
      </trkpt>
      <trkpt lat="42.8282140" lon="-5.4517620">
        <ele>1254.0</ele>
        <time>2021-08-21T07:15:17Z</time>
      </trkpt>
      <trkpt lat="42.8282360" lon="-5.4517610">
        <ele>1254.0</ele>
        <time>2021-08-21T07:15:18Z</time>
      </trkpt>
      <trkpt lat="42.8282750" lon="-5.4517560">
        <ele>1254.0</ele>
        <time>2021-08-21T07:15:19Z</time>
      </trkpt>
      <trkpt lat="42.8282880" lon="-5.4517530">
        <ele>1254.0</ele>
        <time>2021-08-21T07:15:20Z</time>
      </trkpt>
      <trkpt lat="42.8283140" lon="-5.4517430">
        <ele>1254.0</ele>
        <time>2021-08-21T07:15:21Z</time>
      </trkpt>
      <trkpt lat="42.8283350" lon="-5.4517340">
        <ele>1255.0</ele>
        <time>2021-08-21T07:15:22Z</time>
      </trkpt>
      <trkpt lat="42.8283580" lon="-5.4517240">
        <ele>1255.0</ele>
        <time>2021-08-21T07:15:23Z</time>
      </trkpt>
      <trkpt lat="42.8283940" lon="-5.4517070">
        <ele>1255.0</ele>
        <time>2021-08-21T07:15:24Z</time>
      </trkpt>
      <trkpt lat="42.8284070" lon="-5.4517000">
        <ele>1255.0</ele>
        <time>2021-08-21T07:15:25Z</time>
      </trkpt>
      <trkpt lat="42.8284330" lon="-5.4516880">
        <ele>1255.0</ele>
        <time>2021-08-21T07:15:26Z</time>
      </trkpt>
      <trkpt lat="42.8284590" lon="-5.4516740">
        <ele>1255.0</ele>
        <time>2021-08-21T07:15:27Z</time>
      </trkpt>
      <trkpt lat="42.8284860" lon="-5.4516560">
        <ele>1255.0</ele>
        <time>2021-08-21T07:15:28Z</time>
      </trkpt>
      <trkpt lat="42.8285090" lon="-5.4516380">
        <ele>1255.0</ele>
        <time>2021-08-21T07:15:29Z</time>
      </trkpt>
      <trkpt lat="42.8285480" lon="-5.4516110">
        <ele>1255.0</ele>
        <time>2021-08-21T07:15:30Z</time>
      </trkpt>
      <trkpt lat="42.8285610" lon="-5.4516030">
        <ele>1255.0</ele>
        <time>2021-08-21T07:15:31Z</time>
      </trkpt>
      <trkpt lat="42.8285870" lon="-5.4515890">
        <ele>1255.0</ele>
        <time>2021-08-21T07:15:32Z</time>
      </trkpt>
      <trkpt lat="42.8286150" lon="-5.4515780">
        <ele>1256.0</ele>
        <time>2021-08-21T07:15:33Z</time>
      </trkpt>
      <trkpt lat="42.8286420" lon="-5.4515610">
        <ele>1256.0</ele>
        <time>2021-08-21T07:15:34Z</time>
      </trkpt>
      <trkpt lat="42.8286670" lon="-5.4515390">
        <ele>1256.0</ele>
        <time>2021-08-21T07:15:35Z</time>
      </trkpt>
      <trkpt lat="42.8286850" lon="-5.4515110">
        <ele>1255.0</ele>
        <time>2021-08-21T07:15:36Z</time>
      </trkpt>
      <trkpt lat="42.8287160" lon="-5.4514840">
        <ele>1255.0</ele>
        <time>2021-08-21T07:15:37Z</time>
      </trkpt>
      <trkpt lat="42.8287280" lon="-5.4514750">
        <ele>1255.0</ele>
        <time>2021-08-21T07:15:38Z</time>
      </trkpt>
      <trkpt lat="42.8287470" lon="-5.4514560">
        <ele>1255.0</ele>
        <time>2021-08-21T07:15:39Z</time>
      </trkpt>
      <trkpt lat="42.8287670" lon="-5.4514380">
        <ele>1255.0</ele>
        <time>2021-08-21T07:15:40Z</time>
      </trkpt>
      <trkpt lat="42.8287880" lon="-5.4514210">
        <ele>1255.0</ele>
        <time>2021-08-21T07:15:41Z</time>
      </trkpt>
      <trkpt lat="42.8288120" lon="-5.4514030">
        <ele>1255.0</ele>
        <time>2021-08-21T07:15:42Z</time>
      </trkpt>
      <trkpt lat="42.8288320" lon="-5.4513830">
        <ele>1255.0</ele>
        <time>2021-08-21T07:15:43Z</time>
      </trkpt>
      <trkpt lat="42.8288500" lon="-5.4513640">
        <ele>1255.0</ele>
        <time>2021-08-21T07:15:44Z</time>
      </trkpt>
      <trkpt lat="42.8288790" lon="-5.4513330">
        <ele>1255.0</ele>
        <time>2021-08-21T07:15:45Z</time>
      </trkpt>
      <trkpt lat="42.8288870" lon="-5.4513220">
        <ele>1255.0</ele>
        <time>2021-08-21T07:15:46Z</time>
      </trkpt>
      <trkpt lat="42.8289150" lon="-5.4512870">
        <ele>1255.0</ele>
        <time>2021-08-21T07:15:47Z</time>
      </trkpt>
      <trkpt lat="42.8289240" lon="-5.4512760">
        <ele>1255.0</ele>
        <time>2021-08-21T07:15:48Z</time>
      </trkpt>
      <trkpt lat="42.8289510" lon="-5.4512410">
        <ele>1255.0</ele>
        <time>2021-08-21T07:15:49Z</time>
      </trkpt>
      <trkpt lat="42.8289590" lon="-5.4512290">
        <ele>1255.0</ele>
        <time>2021-08-21T07:15:50Z</time>
      </trkpt>
      <trkpt lat="42.8289780" lon="-5.4512100">
        <ele>1255.0</ele>
        <time>2021-08-21T07:15:51Z</time>
      </trkpt>
      <trkpt lat="42.8289980" lon="-5.4511860">
        <ele>1255.0</ele>
        <time>2021-08-21T07:15:52Z</time>
      </trkpt>
      <trkpt lat="42.8290170" lon="-5.4511650">
        <ele>1255.0</ele>
        <time>2021-08-21T07:15:53Z</time>
      </trkpt>
      <trkpt lat="42.8290370" lon="-5.4511430">
        <ele>1255.0</ele>
        <time>2021-08-21T07:15:54Z</time>
      </trkpt>
      <trkpt lat="42.8290570" lon="-5.4511220">
        <ele>1255.0</ele>
        <time>2021-08-21T07:15:55Z</time>
      </trkpt>
      <trkpt lat="42.8290780" lon="-5.4511010">
        <ele>1255.0</ele>
        <time>2021-08-21T07:15:56Z</time>
      </trkpt>
      <trkpt lat="42.8290980" lon="-5.4510840">
        <ele>1255.0</ele>
        <time>2021-08-21T07:15:57Z</time>
      </trkpt>
      <trkpt lat="42.8291280" lon="-5.4510570">
        <ele>1255.0</ele>
        <time>2021-08-21T07:15:58Z</time>
      </trkpt>
      <trkpt lat="42.8291380" lon="-5.4510470">
        <ele>1256.0</ele>
        <time>2021-08-21T07:15:59Z</time>
      </trkpt>
      <trkpt lat="42.8291580" lon="-5.4510280">
        <ele>1256.0</ele>
        <time>2021-08-21T07:16:00Z</time>
      </trkpt>
      <trkpt lat="42.8291760" lon="-5.4510100">
        <ele>1256.0</ele>
        <time>2021-08-21T07:16:01Z</time>
      </trkpt>
      <trkpt lat="42.8291980" lon="-5.4509920">
        <ele>1256.0</ele>
        <time>2021-08-21T07:16:02Z</time>
      </trkpt>
      <trkpt lat="42.8292190" lon="-5.4509760">
        <ele>1256.0</ele>
        <time>2021-08-21T07:16:03Z</time>
      </trkpt>
      <trkpt lat="42.8292410" lon="-5.4509620">
        <ele>1256.0</ele>
        <time>2021-08-21T07:16:04Z</time>
      </trkpt>
      <trkpt lat="42.8292630" lon="-5.4509480">
        <ele>1256.0</ele>
        <time>2021-08-21T07:16:05Z</time>
      </trkpt>
      <trkpt lat="42.8292850" lon="-5.4509340">
        <ele>1256.0</ele>
        <time>2021-08-21T07:16:06Z</time>
      </trkpt>
      <trkpt lat="42.8293050" lon="-5.4509200">
        <ele>1256.0</ele>
        <time>2021-08-21T07:16:07Z</time>
      </trkpt>
      <trkpt lat="42.8293260" lon="-5.4509070">
        <ele>1256.0</ele>
        <time>2021-08-21T07:16:08Z</time>
      </trkpt>
      <trkpt lat="42.8293470" lon="-5.4508940">
        <ele>1257.0</ele>
        <time>2021-08-21T07:16:09Z</time>
      </trkpt>
      <trkpt lat="42.8293660" lon="-5.4508800">
        <ele>1257.0</ele>
        <time>2021-08-21T07:16:10Z</time>
      </trkpt>
      <trkpt lat="42.8293940" lon="-5.4508610">
        <ele>1257.0</ele>
        <time>2021-08-21T07:16:11Z</time>
      </trkpt>
      <trkpt lat="42.8294040" lon="-5.4508550">
        <ele>1257.0</ele>
        <time>2021-08-21T07:16:12Z</time>
      </trkpt>
      <trkpt lat="42.8294250" lon="-5.4508450">
        <ele>1257.0</ele>
        <time>2021-08-21T07:16:13Z</time>
      </trkpt>
      <trkpt lat="42.8294470" lon="-5.4508350">
        <ele>1257.0</ele>
        <time>2021-08-21T07:16:14Z</time>
      </trkpt>
      <trkpt lat="42.8294680" lon="-5.4508240">
        <ele>1257.0</ele>
        <time>2021-08-21T07:16:15Z</time>
      </trkpt>
      <trkpt lat="42.8294880" lon="-5.4508150">
        <ele>1257.0</ele>
        <time>2021-08-21T07:16:16Z</time>
      </trkpt>
      <trkpt lat="42.8295100" lon="-5.4508070">
        <ele>1257.0</ele>
        <time>2021-08-21T07:16:17Z</time>
      </trkpt>
      <trkpt lat="42.8295350" lon="-5.4508010">
        <ele>1257.0</ele>
        <time>2021-08-21T07:16:18Z</time>
      </trkpt>
      <trkpt lat="42.8295550" lon="-5.4507930">
        <ele>1257.0</ele>
        <time>2021-08-21T07:16:19Z</time>
      </trkpt>
      <trkpt lat="42.8295750" lon="-5.4507820">
        <ele>1257.0</ele>
        <time>2021-08-21T07:16:20Z</time>
      </trkpt>
      <trkpt lat="42.8295960" lon="-5.4507720">
        <ele>1257.0</ele>
        <time>2021-08-21T07:16:21Z</time>
      </trkpt>
      <trkpt lat="42.8296180" lon="-5.4507630">
        <ele>1257.0</ele>
        <time>2021-08-21T07:16:22Z</time>
      </trkpt>
      <trkpt lat="42.8296380" lon="-5.4507560">
        <ele>1257.0</ele>
        <time>2021-08-21T07:16:23Z</time>
      </trkpt>
      <trkpt lat="42.8296610" lon="-5.4507510">
        <ele>1257.0</ele>
        <time>2021-08-21T07:16:24Z</time>
      </trkpt>
      <trkpt lat="42.8296840" lon="-5.4507430">
        <ele>1257.0</ele>
        <time>2021-08-21T07:16:25Z</time>
      </trkpt>
      <trkpt lat="42.8297090" lon="-5.4507360">
        <ele>1257.0</ele>
        <time>2021-08-21T07:16:26Z</time>
      </trkpt>
      <trkpt lat="42.8297450" lon="-5.4507280">
        <ele>1257.0</ele>
        <time>2021-08-21T07:16:27Z</time>
      </trkpt>
      <trkpt lat="42.8297570" lon="-5.4507250">
        <ele>1257.0</ele>
        <time>2021-08-21T07:16:28Z</time>
      </trkpt>
      <trkpt lat="42.8297800" lon="-5.4507190">
        <ele>1257.0</ele>
        <time>2021-08-21T07:16:29Z</time>
      </trkpt>
      <trkpt lat="42.8298010" lon="-5.4507140">
        <ele>1257.0</ele>
        <time>2021-08-21T07:16:30Z</time>
      </trkpt>
      <trkpt lat="42.8298220" lon="-5.4507080">
        <ele>1257.0</ele>
        <time>2021-08-21T07:16:31Z</time>
      </trkpt>
      <trkpt lat="42.8298430" lon="-5.4507030">
        <ele>1257.0</ele>
        <time>2021-08-21T07:16:32Z</time>
      </trkpt>
      <trkpt lat="42.8298680" lon="-5.4507020">
        <ele>1257.0</ele>
        <time>2021-08-21T07:16:33Z</time>
      </trkpt>
      <trkpt lat="42.8298930" lon="-5.4507020">
        <ele>1257.0</ele>
        <time>2021-08-21T07:16:34Z</time>
      </trkpt>
      <trkpt lat="42.8299290" lon="-5.4506990">
        <ele>1257.0</ele>
        <time>2021-08-21T07:16:35Z</time>
      </trkpt>
      <trkpt lat="42.8299400" lon="-5.4506980">
        <ele>1257.0</ele>
        <time>2021-08-21T07:16:36Z</time>
      </trkpt>
      <trkpt lat="42.8299620" lon="-5.4506950">
        <ele>1257.0</ele>
        <time>2021-08-21T07:16:37Z</time>
      </trkpt>
      <trkpt lat="42.8299820" lon="-5.4506920">
        <ele>1257.0</ele>
        <time>2021-08-21T07:16:38Z</time>
      </trkpt>
      <trkpt lat="42.8300050" lon="-5.4506900">
        <ele>1257.0</ele>
        <time>2021-08-21T07:16:39Z</time>
      </trkpt>
      <trkpt lat="42.8300280" lon="-5.4506890">
        <ele>1258.0</ele>
        <time>2021-08-21T07:16:40Z</time>
      </trkpt>
      <trkpt lat="42.8300530" lon="-5.4506920">
        <ele>1258.0</ele>
        <time>2021-08-21T07:16:41Z</time>
      </trkpt>
      <trkpt lat="42.8300750" lon="-5.4506960">
        <ele>1257.0</ele>
        <time>2021-08-21T07:16:42Z</time>
      </trkpt>
      <trkpt lat="42.8300980" lon="-5.4506960">
        <ele>1258.0</ele>
        <time>2021-08-21T07:16:43Z</time>
      </trkpt>
      <trkpt lat="42.8301210" lon="-5.4506940">
        <ele>1258.0</ele>
        <time>2021-08-21T07:16:44Z</time>
      </trkpt>
      <trkpt lat="42.8301440" lon="-5.4506910">
        <ele>1258.0</ele>
        <time>2021-08-21T07:16:45Z</time>
      </trkpt>
      <trkpt lat="42.8301680" lon="-5.4506880">
        <ele>1258.0</ele>
        <time>2021-08-21T07:16:46Z</time>
      </trkpt>
      <trkpt lat="42.8301910" lon="-5.4506860">
        <ele>1258.0</ele>
        <time>2021-08-21T07:16:47Z</time>
      </trkpt>
      <trkpt lat="42.8302140" lon="-5.4506850">
        <ele>1258.0</ele>
        <time>2021-08-21T07:16:48Z</time>
      </trkpt>
      <trkpt lat="42.8302400" lon="-5.4506820">
        <ele>1258.0</ele>
        <time>2021-08-21T07:16:49Z</time>
      </trkpt>
      <trkpt lat="42.8302630" lon="-5.4506810">
        <ele>1258.0</ele>
        <time>2021-08-21T07:16:50Z</time>
      </trkpt>
      <trkpt lat="42.8302910" lon="-5.4506820">
        <ele>1258.0</ele>
        <time>2021-08-21T07:16:51Z</time>
      </trkpt>
      <trkpt lat="42.8303180" lon="-5.4506870">
        <ele>1258.0</ele>
        <time>2021-08-21T07:16:52Z</time>
      </trkpt>
      <trkpt lat="42.8303410" lon="-5.4506920">
        <ele>1258.0</ele>
        <time>2021-08-21T07:16:53Z</time>
      </trkpt>
      <trkpt lat="42.8303630" lon="-5.4506950">
        <ele>1258.0</ele>
        <time>2021-08-21T07:16:54Z</time>
      </trkpt>
      <trkpt lat="42.8303850" lon="-5.4506960">
        <ele>1258.0</ele>
        <time>2021-08-21T07:16:55Z</time>
      </trkpt>
      <trkpt lat="42.8304080" lon="-5.4506940">
        <ele>1258.0</ele>
        <time>2021-08-21T07:16:56Z</time>
      </trkpt>
      <trkpt lat="42.8304290" lon="-5.4506860">
        <ele>1258.0</ele>
        <time>2021-08-21T07:16:57Z</time>
      </trkpt>
      <trkpt lat="42.8304710" lon="-5.4506750">
        <ele>1258.0</ele>
        <time>2021-08-21T07:16:58Z</time>
      </trkpt>
      <trkpt lat="42.8304840" lon="-5.4506720">
        <ele>1258.0</ele>
        <time>2021-08-21T07:16:59Z</time>
      </trkpt>
      <trkpt lat="42.8305070" lon="-5.4506670">
        <ele>1258.0</ele>
        <time>2021-08-21T07:17:00Z</time>
      </trkpt>
      <trkpt lat="42.8305350" lon="-5.4506620">
        <ele>1258.0</ele>
        <time>2021-08-21T07:17:01Z</time>
      </trkpt>
      <trkpt lat="42.8305600" lon="-5.4506530">
        <ele>1258.0</ele>
        <time>2021-08-21T07:17:02Z</time>
      </trkpt>
      <trkpt lat="42.8305870" lon="-5.4506380">
        <ele>1258.0</ele>
        <time>2021-08-21T07:17:03Z</time>
      </trkpt>
      <trkpt lat="42.8306150" lon="-5.4506230">
        <ele>1258.0</ele>
        <time>2021-08-21T07:17:04Z</time>
      </trkpt>
      <trkpt lat="42.8306390" lon="-5.4506050">
        <ele>1258.0</ele>
        <time>2021-08-21T07:17:05Z</time>
      </trkpt>
      <trkpt lat="42.8306620" lon="-5.4505830">
        <ele>1258.0</ele>
        <time>2021-08-21T07:17:06Z</time>
      </trkpt>
      <trkpt lat="42.8306850" lon="-5.4505630">
        <ele>1258.0</ele>
        <time>2021-08-21T07:17:07Z</time>
      </trkpt>
      <trkpt lat="42.8307090" lon="-5.4505400">
        <ele>1258.0</ele>
        <time>2021-08-21T07:17:08Z</time>
      </trkpt>
      <trkpt lat="42.8307300" lon="-5.4505190">
        <ele>1258.0</ele>
        <time>2021-08-21T07:17:09Z</time>
      </trkpt>
      <trkpt lat="42.8307540" lon="-5.4504980">
        <ele>1258.0</ele>
        <time>2021-08-21T07:17:10Z</time>
      </trkpt>
      <trkpt lat="42.8307740" lon="-5.4504740">
        <ele>1258.0</ele>
        <time>2021-08-21T07:17:11Z</time>
      </trkpt>
      <trkpt lat="42.8307920" lon="-5.4504500">
        <ele>1258.0</ele>
        <time>2021-08-21T07:17:12Z</time>
      </trkpt>
      <trkpt lat="42.8308100" lon="-5.4504290">
        <ele>1258.0</ele>
        <time>2021-08-21T07:17:13Z</time>
      </trkpt>
      <trkpt lat="42.8308290" lon="-5.4504090">
        <ele>1258.0</ele>
        <time>2021-08-21T07:17:14Z</time>
      </trkpt>
      <trkpt lat="42.8308490" lon="-5.4503890">
        <ele>1258.0</ele>
        <time>2021-08-21T07:17:15Z</time>
      </trkpt>
      <trkpt lat="42.8308660" lon="-5.4503620">
        <ele>1258.0</ele>
        <time>2021-08-21T07:17:16Z</time>
      </trkpt>
      <trkpt lat="42.8308800" lon="-5.4503360">
        <ele>1258.0</ele>
        <time>2021-08-21T07:17:17Z</time>
      </trkpt>
      <trkpt lat="42.8308910" lon="-5.4503060">
        <ele>1258.0</ele>
        <time>2021-08-21T07:17:18Z</time>
      </trkpt>
      <trkpt lat="42.8309030" lon="-5.4502770">
        <ele>1258.0</ele>
        <time>2021-08-21T07:17:19Z</time>
      </trkpt>
      <trkpt lat="42.8309230" lon="-5.4502320">
        <ele>1258.0</ele>
        <time>2021-08-21T07:17:20Z</time>
      </trkpt>
      <trkpt lat="42.8309300" lon="-5.4502160">
        <ele>1258.0</ele>
        <time>2021-08-21T07:17:21Z</time>
      </trkpt>
      <trkpt lat="42.8309440" lon="-5.4501880">
        <ele>1258.0</ele>
        <time>2021-08-21T07:17:22Z</time>
      </trkpt>
      <trkpt lat="42.8309610" lon="-5.4501590">
        <ele>1258.0</ele>
        <time>2021-08-21T07:17:23Z</time>
      </trkpt>
      <trkpt lat="42.8309780" lon="-5.4501320">
        <ele>1258.0</ele>
        <time>2021-08-21T07:17:24Z</time>
      </trkpt>
      <trkpt lat="42.8309950" lon="-5.4501030">
        <ele>1258.0</ele>
        <time>2021-08-21T07:17:25Z</time>
      </trkpt>
      <trkpt lat="42.8310110" lon="-5.4500770">
        <ele>1258.0</ele>
        <time>2021-08-21T07:17:26Z</time>
      </trkpt>
      <trkpt lat="42.8310290" lon="-5.4500530">
        <ele>1258.0</ele>
        <time>2021-08-21T07:17:27Z</time>
      </trkpt>
      <trkpt lat="42.8310470" lon="-5.4500270">
        <ele>1258.0</ele>
        <time>2021-08-21T07:17:28Z</time>
      </trkpt>
      <trkpt lat="42.8310690" lon="-5.4499990">
        <ele>1258.0</ele>
        <time>2021-08-21T07:17:29Z</time>
      </trkpt>
      <trkpt lat="42.8310880" lon="-5.4499760">
        <ele>1258.0</ele>
        <time>2021-08-21T07:17:30Z</time>
      </trkpt>
      <trkpt lat="42.8311080" lon="-5.4499510">
        <ele>1258.0</ele>
        <time>2021-08-21T07:17:31Z</time>
      </trkpt>
      <trkpt lat="42.8311280" lon="-5.4499260">
        <ele>1258.0</ele>
        <time>2021-08-21T07:17:32Z</time>
      </trkpt>
      <trkpt lat="42.8311620" lon="-5.4498920">
        <ele>1258.0</ele>
        <time>2021-08-21T07:17:33Z</time>
      </trkpt>
      <trkpt lat="42.8311740" lon="-5.4498820">
        <ele>1258.0</ele>
        <time>2021-08-21T07:17:34Z</time>
      </trkpt>
      <trkpt lat="42.8311970" lon="-5.4498650">
        <ele>1258.0</ele>
        <time>2021-08-21T07:17:35Z</time>
      </trkpt>
      <trkpt lat="42.8312210" lon="-5.4498480">
        <ele>1258.0</ele>
        <time>2021-08-21T07:17:36Z</time>
      </trkpt>
      <trkpt lat="42.8312420" lon="-5.4498350">
        <ele>1258.0</ele>
        <time>2021-08-21T07:17:37Z</time>
      </trkpt>
      <trkpt lat="42.8312630" lon="-5.4498270">
        <ele>1258.0</ele>
        <time>2021-08-21T07:17:38Z</time>
      </trkpt>
      <trkpt lat="42.8312880" lon="-5.4498190">
        <ele>1257.0</ele>
        <time>2021-08-21T07:17:39Z</time>
      </trkpt>
      <trkpt lat="42.8313090" lon="-5.4498130">
        <ele>1257.0</ele>
        <time>2021-08-21T07:17:40Z</time>
      </trkpt>
      <trkpt lat="42.8313330" lon="-5.4498060">
        <ele>1257.0</ele>
        <time>2021-08-21T07:17:41Z</time>
      </trkpt>
      <trkpt lat="42.8313570" lon="-5.4498000">
        <ele>1257.0</ele>
        <time>2021-08-21T07:17:42Z</time>
      </trkpt>
      <trkpt lat="42.8313880" lon="-5.4497970">
        <ele>1257.0</ele>
        <time>2021-08-21T07:17:43Z</time>
      </trkpt>
      <trkpt lat="42.8313990" lon="-5.4497940">
        <ele>1256.0</ele>
        <time>2021-08-21T07:17:44Z</time>
      </trkpt>
      <trkpt lat="42.8314360" lon="-5.4497840">
        <ele>1256.0</ele>
        <time>2021-08-21T07:17:45Z</time>
      </trkpt>
      <trkpt lat="42.8314480" lon="-5.4497810">
        <ele>1256.0</ele>
        <time>2021-08-21T07:17:46Z</time>
      </trkpt>
      <trkpt lat="42.8314770" lon="-5.4497760">
        <ele>1256.0</ele>
        <time>2021-08-21T07:17:47Z</time>
      </trkpt>
      <trkpt lat="42.8315040" lon="-5.4497660">
        <ele>1256.0</ele>
        <time>2021-08-21T07:17:48Z</time>
      </trkpt>
      <trkpt lat="42.8315310" lon="-5.4497590">
        <ele>1256.0</ele>
        <time>2021-08-21T07:17:49Z</time>
      </trkpt>
      <trkpt lat="42.8315600" lon="-5.4497540">
        <ele>1256.0</ele>
        <time>2021-08-21T07:17:50Z</time>
      </trkpt>
      <trkpt lat="42.8315870" lon="-5.4497510">
        <ele>1256.0</ele>
        <time>2021-08-21T07:17:51Z</time>
      </trkpt>
      <trkpt lat="42.8316120" lon="-5.4497520">
        <ele>1256.0</ele>
        <time>2021-08-21T07:17:52Z</time>
      </trkpt>
      <trkpt lat="42.8316350" lon="-5.4497520">
        <ele>1256.0</ele>
        <time>2021-08-21T07:17:53Z</time>
      </trkpt>
      <trkpt lat="42.8316700" lon="-5.4497500">
        <ele>1256.0</ele>
        <time>2021-08-21T07:17:54Z</time>
      </trkpt>
      <trkpt lat="42.8316820" lon="-5.4497480">
        <ele>1256.0</ele>
        <time>2021-08-21T07:17:55Z</time>
      </trkpt>
      <trkpt lat="42.8317080" lon="-5.4497460">
        <ele>1255.0</ele>
        <time>2021-08-21T07:17:56Z</time>
      </trkpt>
      <trkpt lat="42.8317330" lon="-5.4497420">
        <ele>1255.0</ele>
        <time>2021-08-21T07:17:57Z</time>
      </trkpt>
      <trkpt lat="42.8317570" lon="-5.4497400">
        <ele>1255.0</ele>
        <time>2021-08-21T07:17:58Z</time>
      </trkpt>
      <trkpt lat="42.8317930" lon="-5.4497290">
        <ele>1255.0</ele>
        <time>2021-08-21T07:17:59Z</time>
      </trkpt>
      <trkpt lat="42.8318030" lon="-5.4497240">
        <ele>1255.0</ele>
        <time>2021-08-21T07:18:00Z</time>
      </trkpt>
      <trkpt lat="42.8318260" lon="-5.4497130">
        <ele>1255.0</ele>
        <time>2021-08-21T07:18:01Z</time>
      </trkpt>
      <trkpt lat="42.8318650" lon="-5.4496970">
        <ele>1255.0</ele>
        <time>2021-08-21T07:18:02Z</time>
      </trkpt>
      <trkpt lat="42.8318770" lon="-5.4496920">
        <ele>1255.0</ele>
        <time>2021-08-21T07:18:03Z</time>
      </trkpt>
      <trkpt lat="42.8319060" lon="-5.4496810">
        <ele>1255.0</ele>
        <time>2021-08-21T07:18:04Z</time>
      </trkpt>
      <trkpt lat="42.8319330" lon="-5.4496720">
        <ele>1255.0</ele>
        <time>2021-08-21T07:18:05Z</time>
      </trkpt>
      <trkpt lat="42.8319590" lon="-5.4496670">
        <ele>1255.0</ele>
        <time>2021-08-21T07:18:06Z</time>
      </trkpt>
      <trkpt lat="42.8319860" lon="-5.4496560">
        <ele>1255.0</ele>
        <time>2021-08-21T07:18:07Z</time>
      </trkpt>
      <trkpt lat="42.8320080" lon="-5.4496440">
        <ele>1255.0</ele>
        <time>2021-08-21T07:18:08Z</time>
      </trkpt>
      <trkpt lat="42.8320320" lon="-5.4496310">
        <ele>1255.0</ele>
        <time>2021-08-21T07:18:09Z</time>
      </trkpt>
      <trkpt lat="42.8320570" lon="-5.4496140">
        <ele>1255.0</ele>
        <time>2021-08-21T07:18:10Z</time>
      </trkpt>
      <trkpt lat="42.8320820" lon="-5.4495940">
        <ele>1255.0</ele>
        <time>2021-08-21T07:18:11Z</time>
      </trkpt>
      <trkpt lat="42.8321100" lon="-5.4495710">
        <ele>1255.0</ele>
        <time>2021-08-21T07:18:12Z</time>
      </trkpt>
      <trkpt lat="42.8321340" lon="-5.4495480">
        <ele>1255.0</ele>
        <time>2021-08-21T07:18:13Z</time>
      </trkpt>
      <trkpt lat="42.8321570" lon="-5.4495250">
        <ele>1255.0</ele>
        <time>2021-08-21T07:18:14Z</time>
      </trkpt>
      <trkpt lat="42.8321920" lon="-5.4494920">
        <ele>1255.0</ele>
        <time>2021-08-21T07:18:15Z</time>
      </trkpt>
      <trkpt lat="42.8322030" lon="-5.4494800">
        <ele>1255.0</ele>
        <time>2021-08-21T07:18:16Z</time>
      </trkpt>
      <trkpt lat="42.8322260" lon="-5.4494560">
        <ele>1255.0</ele>
        <time>2021-08-21T07:18:17Z</time>
      </trkpt>
      <trkpt lat="42.8322510" lon="-5.4494350">
        <ele>1255.0</ele>
        <time>2021-08-21T07:18:18Z</time>
      </trkpt>
      <trkpt lat="42.8322720" lon="-5.4494170">
        <ele>1255.0</ele>
        <time>2021-08-21T07:18:19Z</time>
      </trkpt>
      <trkpt lat="42.8322940" lon="-5.4494000">
        <ele>1255.0</ele>
        <time>2021-08-21T07:18:20Z</time>
      </trkpt>
      <trkpt lat="42.8323310" lon="-5.4493780">
        <ele>1255.0</ele>
        <time>2021-08-21T07:18:21Z</time>
      </trkpt>
      <trkpt lat="42.8323440" lon="-5.4493720">
        <ele>1255.0</ele>
        <time>2021-08-21T07:18:22Z</time>
      </trkpt>
      <trkpt lat="42.8323680" lon="-5.4493600">
        <ele>1255.0</ele>
        <time>2021-08-21T07:18:23Z</time>
      </trkpt>
      <trkpt lat="42.8323910" lon="-5.4493520">
        <ele>1254.0</ele>
        <time>2021-08-21T07:18:24Z</time>
      </trkpt>
      <trkpt lat="42.8324150" lon="-5.4493470">
        <ele>1255.0</ele>
        <time>2021-08-21T07:18:25Z</time>
      </trkpt>
      <trkpt lat="42.8324430" lon="-5.4493420">
        <ele>1255.0</ele>
        <time>2021-08-21T07:18:26Z</time>
      </trkpt>
      <trkpt lat="42.8324680" lon="-5.4493400">
        <ele>1255.0</ele>
        <time>2021-08-21T07:18:27Z</time>
      </trkpt>
      <trkpt lat="42.8324920" lon="-5.4493410">
        <ele>1255.0</ele>
        <time>2021-08-21T07:18:28Z</time>
      </trkpt>
      <trkpt lat="42.8325150" lon="-5.4493420">
        <ele>1255.0</ele>
        <time>2021-08-21T07:18:29Z</time>
      </trkpt>
      <trkpt lat="42.8325370" lon="-5.4493430">
        <ele>1255.0</ele>
        <time>2021-08-21T07:18:30Z</time>
      </trkpt>
      <trkpt lat="42.8325580" lon="-5.4493470">
        <ele>1255.0</ele>
        <time>2021-08-21T07:18:31Z</time>
      </trkpt>
      <trkpt lat="42.8325910" lon="-5.4493580">
        <ele>1255.0</ele>
        <time>2021-08-21T07:18:32Z</time>
      </trkpt>
      <trkpt lat="42.8326030" lon="-5.4493630">
        <ele>1254.0</ele>
        <time>2021-08-21T07:18:33Z</time>
      </trkpt>
      <trkpt lat="42.8326390" lon="-5.4493840">
        <ele>1254.0</ele>
        <time>2021-08-21T07:18:34Z</time>
      </trkpt>
      <trkpt lat="42.8326500" lon="-5.4493910">
        <ele>1254.0</ele>
        <time>2021-08-21T07:18:35Z</time>
      </trkpt>
      <trkpt lat="42.8326750" lon="-5.4494010">
        <ele>1254.0</ele>
        <time>2021-08-21T07:18:36Z</time>
      </trkpt>
      <trkpt lat="42.8327000" lon="-5.4494130">
        <ele>1254.0</ele>
        <time>2021-08-21T07:18:37Z</time>
      </trkpt>
      <trkpt lat="42.8327270" lon="-5.4494270">
        <ele>1254.0</ele>
        <time>2021-08-21T07:18:38Z</time>
      </trkpt>
      <trkpt lat="42.8327510" lon="-5.4494460">
        <ele>1254.0</ele>
        <time>2021-08-21T07:18:39Z</time>
      </trkpt>
      <trkpt lat="42.8327880" lon="-5.4494680">
        <ele>1254.0</ele>
        <time>2021-08-21T07:18:40Z</time>
      </trkpt>
      <trkpt lat="42.8328020" lon="-5.4494730">
        <ele>1253.0</ele>
        <time>2021-08-21T07:18:41Z</time>
      </trkpt>
      <trkpt lat="42.8328340" lon="-5.4494760">
        <ele>1253.0</ele>
        <time>2021-08-21T07:18:42Z</time>
      </trkpt>
      <trkpt lat="42.8328640" lon="-5.4494810">
        <ele>1253.0</ele>
        <time>2021-08-21T07:18:43Z</time>
      </trkpt>
      <trkpt lat="42.8328890" lon="-5.4494930">
        <ele>1253.0</ele>
        <time>2021-08-21T07:18:44Z</time>
      </trkpt>
      <trkpt lat="42.8329130" lon="-5.4495040">
        <ele>1253.0</ele>
        <time>2021-08-21T07:18:45Z</time>
      </trkpt>
      <trkpt lat="42.8329410" lon="-5.4495130">
        <ele>1253.0</ele>
        <time>2021-08-21T07:18:46Z</time>
      </trkpt>
      <trkpt lat="42.8329700" lon="-5.4495240">
        <ele>1253.0</ele>
        <time>2021-08-21T07:18:47Z</time>
      </trkpt>
      <trkpt lat="42.8329930" lon="-5.4495370">
        <ele>1253.0</ele>
        <time>2021-08-21T07:18:48Z</time>
      </trkpt>
      <trkpt lat="42.8330170" lon="-5.4495480">
        <ele>1253.0</ele>
        <time>2021-08-21T07:18:49Z</time>
      </trkpt>
      <trkpt lat="42.8330400" lon="-5.4495620">
        <ele>1253.0</ele>
        <time>2021-08-21T07:18:50Z</time>
      </trkpt>
      <trkpt lat="42.8330630" lon="-5.4495730">
        <ele>1253.0</ele>
        <time>2021-08-21T07:18:51Z</time>
      </trkpt>
      <trkpt lat="42.8330920" lon="-5.4495820">
        <ele>1253.0</ele>
        <time>2021-08-21T07:18:52Z</time>
      </trkpt>
      <trkpt lat="42.8331180" lon="-5.4495970">
        <ele>1253.0</ele>
        <time>2021-08-21T07:18:53Z</time>
      </trkpt>
      <trkpt lat="42.8331470" lon="-5.4496080">
        <ele>1253.0</ele>
        <time>2021-08-21T07:18:54Z</time>
      </trkpt>
      <trkpt lat="42.8331730" lon="-5.4496220">
        <ele>1252.0</ele>
        <time>2021-08-21T07:18:55Z</time>
      </trkpt>
      <trkpt lat="42.8331950" lon="-5.4496330">
        <ele>1252.0</ele>
        <time>2021-08-21T07:18:56Z</time>
      </trkpt>
      <trkpt lat="42.8332210" lon="-5.4496440">
        <ele>1252.0</ele>
        <time>2021-08-21T07:18:57Z</time>
      </trkpt>
      <trkpt lat="42.8332440" lon="-5.4496600">
        <ele>1252.0</ele>
        <time>2021-08-21T07:18:58Z</time>
      </trkpt>
      <trkpt lat="42.8332670" lon="-5.4496750">
        <ele>1252.0</ele>
        <time>2021-08-21T07:18:59Z</time>
      </trkpt>
      <trkpt lat="42.8332980" lon="-5.4496830">
        <ele>1252.0</ele>
        <time>2021-08-21T07:19:00Z</time>
      </trkpt>
      <trkpt lat="42.8333360" lon="-5.4497060">
        <ele>1252.0</ele>
        <time>2021-08-21T07:19:01Z</time>
      </trkpt>
      <trkpt lat="42.8333480" lon="-5.4497140">
        <ele>1251.0</ele>
        <time>2021-08-21T07:19:02Z</time>
      </trkpt>
      <trkpt lat="42.8333670" lon="-5.4497340">
        <ele>1251.0</ele>
        <time>2021-08-21T07:19:03Z</time>
      </trkpt>
      <trkpt lat="42.8333920" lon="-5.4497480">
        <ele>1251.0</ele>
        <time>2021-08-21T07:19:04Z</time>
      </trkpt>
      <trkpt lat="42.8334180" lon="-5.4497610">
        <ele>1251.0</ele>
        <time>2021-08-21T07:19:05Z</time>
      </trkpt>
      <trkpt lat="42.8334520" lon="-5.4497820">
        <ele>1251.0</ele>
        <time>2021-08-21T07:19:06Z</time>
      </trkpt>
      <trkpt lat="42.8334620" lon="-5.4497930">
        <ele>1250.0</ele>
        <time>2021-08-21T07:19:07Z</time>
      </trkpt>
      <trkpt lat="42.8334830" lon="-5.4498140">
        <ele>1250.0</ele>
        <time>2021-08-21T07:19:08Z</time>
      </trkpt>
      <trkpt lat="42.8335050" lon="-5.4498330">
        <ele>1250.0</ele>
        <time>2021-08-21T07:19:09Z</time>
      </trkpt>
      <trkpt lat="42.8335280" lon="-5.4498470">
        <ele>1250.0</ele>
        <time>2021-08-21T07:19:10Z</time>
      </trkpt>
      <trkpt lat="42.8335520" lon="-5.4498590">
        <ele>1250.0</ele>
        <time>2021-08-21T07:19:11Z</time>
      </trkpt>
      <trkpt lat="42.8335900" lon="-5.4498720">
        <ele>1250.0</ele>
        <time>2021-08-21T07:19:12Z</time>
      </trkpt>
      <trkpt lat="42.8336050" lon="-5.4498750">
        <ele>1250.0</ele>
        <time>2021-08-21T07:19:13Z</time>
      </trkpt>
      <trkpt lat="42.8336340" lon="-5.4498780">
        <ele>1249.0</ele>
        <time>2021-08-21T07:19:14Z</time>
      </trkpt>
      <trkpt lat="42.8336610" lon="-5.4498810">
        <ele>1249.0</ele>
        <time>2021-08-21T07:19:15Z</time>
      </trkpt>
      <trkpt lat="42.8336810" lon="-5.4498890">
        <ele>1249.0</ele>
        <time>2021-08-21T07:19:16Z</time>
      </trkpt>
      <trkpt lat="42.8337040" lon="-5.4498970">
        <ele>1249.0</ele>
        <time>2021-08-21T07:19:17Z</time>
      </trkpt>
      <trkpt lat="42.8337430" lon="-5.4499130">
        <ele>1249.0</ele>
        <time>2021-08-21T07:19:18Z</time>
      </trkpt>
      <trkpt lat="42.8337570" lon="-5.4499190">
        <ele>1249.0</ele>
        <time>2021-08-21T07:19:19Z</time>
      </trkpt>
      <trkpt lat="42.8337950" lon="-5.4499340">
        <ele>1249.0</ele>
        <time>2021-08-21T07:19:20Z</time>
      </trkpt>
      <trkpt lat="42.8338080" lon="-5.4499390">
        <ele>1249.0</ele>
        <time>2021-08-21T07:19:21Z</time>
      </trkpt>
      <trkpt lat="42.8338370" lon="-5.4499440">
        <ele>1249.0</ele>
        <time>2021-08-21T07:19:22Z</time>
      </trkpt>
      <trkpt lat="42.8338730" lon="-5.4499550">
        <ele>1249.0</ele>
        <time>2021-08-21T07:19:23Z</time>
      </trkpt>
      <trkpt lat="42.8338850" lon="-5.4499590">
        <ele>1249.0</ele>
        <time>2021-08-21T07:19:24Z</time>
      </trkpt>
      <trkpt lat="42.8339060" lon="-5.4499640">
        <ele>1249.0</ele>
        <time>2021-08-21T07:19:25Z</time>
      </trkpt>
      <trkpt lat="42.8339280" lon="-5.4499700">
        <ele>1249.0</ele>
        <time>2021-08-21T07:19:26Z</time>
      </trkpt>
      <trkpt lat="42.8339520" lon="-5.4499770">
        <ele>1249.0</ele>
        <time>2021-08-21T07:19:27Z</time>
      </trkpt>
      <trkpt lat="42.8339780" lon="-5.4499800">
        <ele>1249.0</ele>
        <time>2021-08-21T07:19:28Z</time>
      </trkpt>
      <trkpt lat="42.8340230" lon="-5.4499690">
        <ele>1249.0</ele>
        <time>2021-08-21T07:19:29Z</time>
      </trkpt>
      <trkpt lat="42.8340390" lon="-5.4499640">
        <ele>1249.0</ele>
        <time>2021-08-21T07:19:30Z</time>
      </trkpt>
      <trkpt lat="42.8340770" lon="-5.4499560">
        <ele>1248.0</ele>
        <time>2021-08-21T07:19:31Z</time>
      </trkpt>
      <trkpt lat="42.8341080" lon="-5.4499460">
        <ele>1248.0</ele>
        <time>2021-08-21T07:19:32Z</time>
      </trkpt>
      <trkpt lat="42.8341370" lon="-5.4499350">
        <ele>1248.0</ele>
        <time>2021-08-21T07:19:33Z</time>
      </trkpt>
      <trkpt lat="42.8341660" lon="-5.4499270">
        <ele>1247.0</ele>
        <time>2021-08-21T07:19:34Z</time>
      </trkpt>
      <trkpt lat="42.8341980" lon="-5.4499150">
        <ele>1247.0</ele>
        <time>2021-08-21T07:19:35Z</time>
      </trkpt>
      <trkpt lat="42.8342290" lon="-5.4499030">
        <ele>1247.0</ele>
        <time>2021-08-21T07:19:36Z</time>
      </trkpt>
      <trkpt lat="42.8342580" lon="-5.4498880">
        <ele>1247.0</ele>
        <time>2021-08-21T07:19:37Z</time>
      </trkpt>
      <trkpt lat="42.8342580" lon="-5.4498880">
        <ele>1247.0</ele>
        <time>2021-08-21T07:19:38Z</time>
      </trkpt>
      <trkpt lat="42.8343170" lon="-5.4498470">
        <ele>1247.0</ele>
        <time>2021-08-21T07:19:39Z</time>
      </trkpt>
      <trkpt lat="42.8343450" lon="-5.4498300">
        <ele>1247.0</ele>
        <time>2021-08-21T07:19:40Z</time>
      </trkpt>
      <trkpt lat="42.8343750" lon="-5.4498150">
        <ele>1247.0</ele>
        <time>2021-08-21T07:19:41Z</time>
      </trkpt>
      <trkpt lat="42.8343990" lon="-5.4497980">
        <ele>1247.0</ele>
        <time>2021-08-21T07:19:42Z</time>
      </trkpt>
      <trkpt lat="42.8344240" lon="-5.4497830">
        <ele>1247.0</ele>
        <time>2021-08-21T07:19:43Z</time>
      </trkpt>
      <trkpt lat="42.8344490" lon="-5.4497650">
        <ele>1247.0</ele>
        <time>2021-08-21T07:19:44Z</time>
      </trkpt>
      <trkpt lat="42.8344850" lon="-5.4497320">
        <ele>1247.0</ele>
        <time>2021-08-21T07:19:45Z</time>
      </trkpt>
      <trkpt lat="42.8344960" lon="-5.4497210">
        <ele>1247.0</ele>
        <time>2021-08-21T07:19:46Z</time>
      </trkpt>
      <trkpt lat="42.8345190" lon="-5.4496980">
        <ele>1247.0</ele>
        <time>2021-08-21T07:19:47Z</time>
      </trkpt>
      <trkpt lat="42.8345430" lon="-5.4496710">
        <ele>1247.0</ele>
        <time>2021-08-21T07:19:48Z</time>
      </trkpt>
      <trkpt lat="42.8345670" lon="-5.4496470">
        <ele>1247.0</ele>
        <time>2021-08-21T07:19:49Z</time>
      </trkpt>
      <trkpt lat="42.8346050" lon="-5.4496130">
        <ele>1247.0</ele>
        <time>2021-08-21T07:19:50Z</time>
      </trkpt>
      <trkpt lat="42.8346190" lon="-5.4496020">
        <ele>1246.0</ele>
        <time>2021-08-21T07:19:51Z</time>
      </trkpt>
      <trkpt lat="42.8346460" lon="-5.4495840">
        <ele>1246.0</ele>
        <time>2021-08-21T07:19:52Z</time>
      </trkpt>
      <trkpt lat="42.8346730" lon="-5.4495680">
        <ele>1246.0</ele>
        <time>2021-08-21T07:19:53Z</time>
      </trkpt>
      <trkpt lat="42.8346980" lon="-5.4495490">
        <ele>1246.0</ele>
        <time>2021-08-21T07:19:54Z</time>
      </trkpt>
      <trkpt lat="42.8347180" lon="-5.4495270">
        <ele>1246.0</ele>
        <time>2021-08-21T07:19:55Z</time>
      </trkpt>
      <trkpt lat="42.8347380" lon="-5.4495040">
        <ele>1246.0</ele>
        <time>2021-08-21T07:19:56Z</time>
      </trkpt>
      <trkpt lat="42.8347570" lon="-5.4494800">
        <ele>1246.0</ele>
        <time>2021-08-21T07:19:57Z</time>
      </trkpt>
      <trkpt lat="42.8347770" lon="-5.4494550">
        <ele>1246.0</ele>
        <time>2021-08-21T07:19:58Z</time>
      </trkpt>
      <trkpt lat="42.8347980" lon="-5.4494330">
        <ele>1246.0</ele>
        <time>2021-08-21T07:19:59Z</time>
      </trkpt>
      <trkpt lat="42.8348220" lon="-5.4494120">
        <ele>1246.0</ele>
        <time>2021-08-21T07:20:00Z</time>
      </trkpt>
      <trkpt lat="42.8348430" lon="-5.4493920">
        <ele>1246.0</ele>
        <time>2021-08-21T07:20:01Z</time>
      </trkpt>
      <trkpt lat="42.8348630" lon="-5.4493700">
        <ele>1246.0</ele>
        <time>2021-08-21T07:20:02Z</time>
      </trkpt>
      <trkpt lat="42.8348850" lon="-5.4493310">
        <ele>1246.0</ele>
        <time>2021-08-21T07:20:03Z</time>
      </trkpt>
      <trkpt lat="42.8348920" lon="-5.4493160">
        <ele>1246.0</ele>
        <time>2021-08-21T07:20:04Z</time>
      </trkpt>
      <trkpt lat="42.8349120" lon="-5.4492920">
        <ele>1245.0</ele>
        <time>2021-08-21T07:20:05Z</time>
      </trkpt>
      <trkpt lat="42.8349340" lon="-5.4492690">
        <ele>1245.0</ele>
        <time>2021-08-21T07:20:06Z</time>
      </trkpt>
      <trkpt lat="42.8349640" lon="-5.4492370">
        <ele>1245.0</ele>
        <time>2021-08-21T07:20:07Z</time>
      </trkpt>
      <trkpt lat="42.8349740" lon="-5.4492270">
        <ele>1245.0</ele>
        <time>2021-08-21T07:20:08Z</time>
      </trkpt>
      <trkpt lat="42.8349980" lon="-5.4492080">
        <ele>1245.0</ele>
        <time>2021-08-21T07:20:09Z</time>
      </trkpt>
      <trkpt lat="42.8350280" lon="-5.4491800">
        <ele>1245.0</ele>
        <time>2021-08-21T07:20:10Z</time>
      </trkpt>
      <trkpt lat="42.8350380" lon="-5.4491690">
        <ele>1245.0</ele>
        <time>2021-08-21T07:20:11Z</time>
      </trkpt>
      <trkpt lat="42.8350580" lon="-5.4491490">
        <ele>1245.0</ele>
        <time>2021-08-21T07:20:12Z</time>
      </trkpt>
      <trkpt lat="42.8350860" lon="-5.4491180">
        <ele>1245.0</ele>
        <time>2021-08-21T07:20:13Z</time>
      </trkpt>
      <trkpt lat="42.8350960" lon="-5.4491060">
        <ele>1245.0</ele>
        <time>2021-08-21T07:20:14Z</time>
      </trkpt>
      <trkpt lat="42.8351270" lon="-5.4490730">
        <ele>1245.0</ele>
        <time>2021-08-21T07:20:15Z</time>
      </trkpt>
      <trkpt lat="42.8351360" lon="-5.4490620">
        <ele>1244.0</ele>
        <time>2021-08-21T07:20:16Z</time>
      </trkpt>
      <trkpt lat="42.8351520" lon="-5.4490380">
        <ele>1244.0</ele>
        <time>2021-08-21T07:20:17Z</time>
      </trkpt>
      <trkpt lat="42.8351710" lon="-5.4490150">
        <ele>1244.0</ele>
        <time>2021-08-21T07:20:18Z</time>
      </trkpt>
      <trkpt lat="42.8351900" lon="-5.4489910">
        <ele>1244.0</ele>
        <time>2021-08-21T07:20:19Z</time>
      </trkpt>
      <trkpt lat="42.8352080" lon="-5.4489670">
        <ele>1244.0</ele>
        <time>2021-08-21T07:20:20Z</time>
      </trkpt>
      <trkpt lat="42.8352250" lon="-5.4489430">
        <ele>1244.0</ele>
        <time>2021-08-21T07:20:21Z</time>
      </trkpt>
      <trkpt lat="42.8352380" lon="-5.4489180">
        <ele>1244.0</ele>
        <time>2021-08-21T07:20:22Z</time>
      </trkpt>
      <trkpt lat="42.8352590" lon="-5.4488990">
        <ele>1243.0</ele>
        <time>2021-08-21T07:20:23Z</time>
      </trkpt>
      <trkpt lat="42.8352770" lon="-5.4488810">
        <ele>1243.0</ele>
        <time>2021-08-21T07:20:24Z</time>
      </trkpt>
      <trkpt lat="42.8353010" lon="-5.4488620">
        <ele>1243.0</ele>
        <time>2021-08-21T07:20:25Z</time>
      </trkpt>
      <trkpt lat="42.8353220" lon="-5.4488410">
        <ele>1243.0</ele>
        <time>2021-08-21T07:20:26Z</time>
      </trkpt>
      <trkpt lat="42.8353600" lon="-5.4488120">
        <ele>1243.0</ele>
        <time>2021-08-21T07:20:27Z</time>
      </trkpt>
      <trkpt lat="42.8353720" lon="-5.4488030">
        <ele>1243.0</ele>
        <time>2021-08-21T07:20:28Z</time>
      </trkpt>
      <trkpt lat="42.8353950" lon="-5.4487840">
        <ele>1242.0</ele>
        <time>2021-08-21T07:20:29Z</time>
      </trkpt>
      <trkpt lat="42.8354190" lon="-5.4487650">
        <ele>1242.0</ele>
        <time>2021-08-21T07:20:30Z</time>
      </trkpt>
      <trkpt lat="42.8354430" lon="-5.4487430">
        <ele>1242.0</ele>
        <time>2021-08-21T07:20:31Z</time>
      </trkpt>
      <trkpt lat="42.8354690" lon="-5.4487250">
        <ele>1242.0</ele>
        <time>2021-08-21T07:20:32Z</time>
      </trkpt>
      <trkpt lat="42.8354960" lon="-5.4487080">
        <ele>1242.0</ele>
        <time>2021-08-21T07:20:33Z</time>
      </trkpt>
      <trkpt lat="42.8355360" lon="-5.4486820">
        <ele>1242.0</ele>
        <time>2021-08-21T07:20:34Z</time>
      </trkpt>
      <trkpt lat="42.8355500" lon="-5.4486730">
        <ele>1242.0</ele>
        <time>2021-08-21T07:20:35Z</time>
      </trkpt>
      <trkpt lat="42.8355770" lon="-5.4486560">
        <ele>1242.0</ele>
        <time>2021-08-21T07:20:36Z</time>
      </trkpt>
      <trkpt lat="42.8356050" lon="-5.4486420">
        <ele>1242.0</ele>
        <time>2021-08-21T07:20:37Z</time>
      </trkpt>
      <trkpt lat="42.8356300" lon="-5.4486290">
        <ele>1242.0</ele>
        <time>2021-08-21T07:20:38Z</time>
      </trkpt>
      <trkpt lat="42.8356550" lon="-5.4486150">
        <ele>1242.0</ele>
        <time>2021-08-21T07:20:39Z</time>
      </trkpt>
      <trkpt lat="42.8356780" lon="-5.4486040">
        <ele>1242.0</ele>
        <time>2021-08-21T07:20:40Z</time>
      </trkpt>
      <trkpt lat="42.8357020" lon="-5.4485940">
        <ele>1242.0</ele>
        <time>2021-08-21T07:20:41Z</time>
      </trkpt>
      <trkpt lat="42.8357230" lon="-5.4485810">
        <ele>1242.0</ele>
        <time>2021-08-21T07:20:42Z</time>
      </trkpt>
      <trkpt lat="42.8357460" lon="-5.4485700">
        <ele>1242.0</ele>
        <time>2021-08-21T07:20:43Z</time>
      </trkpt>
      <trkpt lat="42.8357780" lon="-5.4485540">
        <ele>1242.0</ele>
        <time>2021-08-21T07:20:44Z</time>
      </trkpt>
      <trkpt lat="42.8357880" lon="-5.4485490">
        <ele>1242.0</ele>
        <time>2021-08-21T07:20:45Z</time>
      </trkpt>
      <trkpt lat="42.8358070" lon="-5.4485370">
        <ele>1242.0</ele>
        <time>2021-08-21T07:20:46Z</time>
      </trkpt>
      <trkpt lat="42.8358280" lon="-5.4485280">
        <ele>1242.0</ele>
        <time>2021-08-21T07:20:47Z</time>
      </trkpt>
      <trkpt lat="42.8358490" lon="-5.4485180">
        <ele>1242.0</ele>
        <time>2021-08-21T07:20:48Z</time>
      </trkpt>
      <trkpt lat="42.8358720" lon="-5.4485050">
        <ele>1242.0</ele>
        <time>2021-08-21T07:20:49Z</time>
      </trkpt>
      <trkpt lat="42.8358940" lon="-5.4484900">
        <ele>1242.0</ele>
        <time>2021-08-21T07:20:50Z</time>
      </trkpt>
      <trkpt lat="42.8359140" lon="-5.4484760">
        <ele>1242.0</ele>
        <time>2021-08-21T07:20:51Z</time>
      </trkpt>
      <trkpt lat="42.8359350" lon="-5.4484670">
        <ele>1242.0</ele>
        <time>2021-08-21T07:20:52Z</time>
      </trkpt>
      <trkpt lat="42.8359350" lon="-5.4484670">
        <ele>1242.0</ele>
        <time>2021-08-21T07:20:53Z</time>
      </trkpt>
      <trkpt lat="42.8359660" lon="-5.4484690">
        <ele>1242.0</ele>
        <time>2021-08-21T07:20:54Z</time>
      </trkpt>
      <trkpt lat="42.8359850" lon="-5.4484680">
        <ele>1242.0</ele>
        <time>2021-08-21T07:20:55Z</time>
      </trkpt>
      <trkpt lat="42.8360050" lon="-5.4484660">
        <ele>1241.0</ele>
        <time>2021-08-21T07:20:56Z</time>
      </trkpt>
      <trkpt lat="42.8360250" lon="-5.4484630">
        <ele>1242.0</ele>
        <time>2021-08-21T07:20:57Z</time>
      </trkpt>
      <trkpt lat="42.8360460" lon="-5.4484620">
        <ele>1241.0</ele>
        <time>2021-08-21T07:20:58Z</time>
      </trkpt>
      <trkpt lat="42.8360660" lon="-5.4484640">
        <ele>1241.0</ele>
        <time>2021-08-21T07:20:59Z</time>
      </trkpt>
      <trkpt lat="42.8360890" lon="-5.4484640">
        <ele>1241.0</ele>
        <time>2021-08-21T07:21:00Z</time>
      </trkpt>
      <trkpt lat="42.8361150" lon="-5.4484600">
        <ele>1241.0</ele>
        <time>2021-08-21T07:21:01Z</time>
      </trkpt>
      <trkpt lat="42.8361380" lon="-5.4484590">
        <ele>1241.0</ele>
        <time>2021-08-21T07:21:02Z</time>
      </trkpt>
      <trkpt lat="42.8361650" lon="-5.4484600">
        <ele>1241.0</ele>
        <time>2021-08-21T07:21:03Z</time>
      </trkpt>
      <trkpt lat="42.8361880" lon="-5.4484640">
        <ele>1241.0</ele>
        <time>2021-08-21T07:21:04Z</time>
      </trkpt>
      <trkpt lat="42.8362110" lon="-5.4484610">
        <ele>1241.0</ele>
        <time>2021-08-21T07:21:05Z</time>
      </trkpt>
      <trkpt lat="42.8362310" lon="-5.4484590">
        <ele>1241.0</ele>
        <time>2021-08-21T07:21:06Z</time>
      </trkpt>
      <trkpt lat="42.8362550" lon="-5.4484520">
        <ele>1241.0</ele>
        <time>2021-08-21T07:21:07Z</time>
      </trkpt>
      <trkpt lat="42.8362550" lon="-5.4484520">
        <ele>1241.0</ele>
        <time>2021-08-21T07:21:08Z</time>
      </trkpt>
      <trkpt lat="42.8362900" lon="-5.4484550">
        <ele>1241.0</ele>
        <time>2021-08-21T07:21:09Z</time>
      </trkpt>
      <trkpt lat="42.8363130" lon="-5.4484540">
        <ele>1241.0</ele>
        <time>2021-08-21T07:21:10Z</time>
      </trkpt>
      <trkpt lat="42.8363360" lon="-5.4484530">
        <ele>1242.0</ele>
        <time>2021-08-21T07:21:11Z</time>
      </trkpt>
      <trkpt lat="42.8363570" lon="-5.4484540">
        <ele>1242.0</ele>
        <time>2021-08-21T07:21:12Z</time>
      </trkpt>
      <trkpt lat="42.8363570" lon="-5.4484540">
        <ele>1242.0</ele>
        <time>2021-08-21T07:21:13Z</time>
      </trkpt>
      <trkpt lat="42.8364100" lon="-5.4484460">
        <ele>1242.0</ele>
        <time>2021-08-21T07:21:14Z</time>
      </trkpt>
      <trkpt lat="42.8364210" lon="-5.4484440">
        <ele>1242.0</ele>
        <time>2021-08-21T07:21:15Z</time>
      </trkpt>
      <trkpt lat="42.8364460" lon="-5.4484370">
        <ele>1242.0</ele>
        <time>2021-08-21T07:21:16Z</time>
      </trkpt>
      <trkpt lat="42.8364810" lon="-5.4484260">
        <ele>1242.0</ele>
        <time>2021-08-21T07:21:17Z</time>
      </trkpt>
      <trkpt lat="42.8365110" lon="-5.4484160">
        <ele>1242.0</ele>
        <time>2021-08-21T07:21:18Z</time>
      </trkpt>
      <trkpt lat="42.8365400" lon="-5.4484100">
        <ele>1242.0</ele>
        <time>2021-08-21T07:21:19Z</time>
      </trkpt>
      <trkpt lat="42.8365630" lon="-5.4484050">
        <ele>1242.0</ele>
        <time>2021-08-21T07:21:20Z</time>
      </trkpt>
      <trkpt lat="42.8365890" lon="-5.4484060">
        <ele>1242.0</ele>
        <time>2021-08-21T07:21:21Z</time>
      </trkpt>
      <trkpt lat="42.8366140" lon="-5.4484010">
        <ele>1242.0</ele>
        <time>2021-08-21T07:21:22Z</time>
      </trkpt>
      <trkpt lat="42.8366420" lon="-5.4483910">
        <ele>1242.0</ele>
        <time>2021-08-21T07:21:23Z</time>
      </trkpt>
      <trkpt lat="42.8366740" lon="-5.4483740">
        <ele>1241.0</ele>
        <time>2021-08-21T07:21:24Z</time>
      </trkpt>
      <trkpt lat="42.8367050" lon="-5.4483610">
        <ele>1241.0</ele>
        <time>2021-08-21T07:21:25Z</time>
      </trkpt>
      <trkpt lat="42.8367350" lon="-5.4483440">
        <ele>1241.0</ele>
        <time>2021-08-21T07:21:26Z</time>
      </trkpt>
      <trkpt lat="42.8367630" lon="-5.4483260">
        <ele>1241.0</ele>
        <time>2021-08-21T07:21:27Z</time>
      </trkpt>
      <trkpt lat="42.8367880" lon="-5.4483040">
        <ele>1240.0</ele>
        <time>2021-08-21T07:21:28Z</time>
      </trkpt>
      <trkpt lat="42.8368120" lon="-5.4482770">
        <ele>1240.0</ele>
        <time>2021-08-21T07:21:29Z</time>
      </trkpt>
      <trkpt lat="42.8368410" lon="-5.4482410">
        <ele>1239.0</ele>
        <time>2021-08-21T07:21:30Z</time>
      </trkpt>
      <trkpt lat="42.8368670" lon="-5.4482040">
        <ele>1239.0</ele>
        <time>2021-08-21T07:21:31Z</time>
      </trkpt>
      <trkpt lat="42.8368860" lon="-5.4481690">
        <ele>1239.0</ele>
        <time>2021-08-21T07:21:32Z</time>
      </trkpt>
      <trkpt lat="42.8369090" lon="-5.4481320">
        <ele>1238.0</ele>
        <time>2021-08-21T07:21:33Z</time>
      </trkpt>
      <trkpt lat="42.8369390" lon="-5.4480790">
        <ele>1238.0</ele>
        <time>2021-08-21T07:21:34Z</time>
      </trkpt>
      <trkpt lat="42.8369500" lon="-5.4480610">
        <ele>1238.0</ele>
        <time>2021-08-21T07:21:35Z</time>
      </trkpt>
      <trkpt lat="42.8369690" lon="-5.4480230">
        <ele>1237.0</ele>
        <time>2021-08-21T07:21:36Z</time>
      </trkpt>
      <trkpt lat="42.8369880" lon="-5.4479860">
        <ele>1237.0</ele>
        <time>2021-08-21T07:21:37Z</time>
      </trkpt>
      <trkpt lat="42.8370080" lon="-5.4479500">
        <ele>1237.0</ele>
        <time>2021-08-21T07:21:38Z</time>
      </trkpt>
      <trkpt lat="42.8370280" lon="-5.4479160">
        <ele>1237.0</ele>
        <time>2021-08-21T07:21:39Z</time>
      </trkpt>
      <trkpt lat="42.8370480" lon="-5.4478840">
        <ele>1237.0</ele>
        <time>2021-08-21T07:21:40Z</time>
      </trkpt>
      <trkpt lat="42.8370680" lon="-5.4478490">
        <ele>1237.0</ele>
        <time>2021-08-21T07:21:41Z</time>
      </trkpt>
      <trkpt lat="42.8370880" lon="-5.4478190">
        <ele>1237.0</ele>
        <time>2021-08-21T07:21:42Z</time>
      </trkpt>
      <trkpt lat="42.8371060" lon="-5.4477840">
        <ele>1236.0</ele>
        <time>2021-08-21T07:21:43Z</time>
      </trkpt>
      <trkpt lat="42.8371240" lon="-5.4477520">
        <ele>1236.0</ele>
        <time>2021-08-21T07:21:44Z</time>
      </trkpt>
      <trkpt lat="42.8371400" lon="-5.4477200">
        <ele>1236.0</ele>
        <time>2021-08-21T07:21:45Z</time>
      </trkpt>
      <trkpt lat="42.8371570" lon="-5.4476890">
        <ele>1236.0</ele>
        <time>2021-08-21T07:21:46Z</time>
      </trkpt>
      <trkpt lat="42.8371730" lon="-5.4476600">
        <ele>1236.0</ele>
        <time>2021-08-21T07:21:47Z</time>
      </trkpt>
      <trkpt lat="42.8372000" lon="-5.4476130">
        <ele>1236.0</ele>
        <time>2021-08-21T07:21:48Z</time>
      </trkpt>
      <trkpt lat="42.8372080" lon="-5.4475960">
        <ele>1235.0</ele>
        <time>2021-08-21T07:21:49Z</time>
      </trkpt>
      <trkpt lat="42.8372230" lon="-5.4475630">
        <ele>1235.0</ele>
        <time>2021-08-21T07:21:50Z</time>
      </trkpt>
      <trkpt lat="42.8372230" lon="-5.4475630">
        <ele>1235.0</ele>
        <time>2021-08-21T07:21:51Z</time>
      </trkpt>
      <trkpt lat="42.8372550" lon="-5.4475020">
        <ele>1234.0</ele>
        <time>2021-08-21T07:21:52Z</time>
      </trkpt>
      <trkpt lat="42.8372680" lon="-5.4474670">
        <ele>1234.0</ele>
        <time>2021-08-21T07:21:53Z</time>
      </trkpt>
      <trkpt lat="42.8372830" lon="-5.4474360">
        <ele>1234.0</ele>
        <time>2021-08-21T07:21:54Z</time>
      </trkpt>
      <trkpt lat="42.8372980" lon="-5.4474040">
        <ele>1233.0</ele>
        <time>2021-08-21T07:21:55Z</time>
      </trkpt>
      <trkpt lat="42.8373130" lon="-5.4473730">
        <ele>1233.0</ele>
        <time>2021-08-21T07:21:56Z</time>
      </trkpt>
      <trkpt lat="42.8373280" lon="-5.4473440">
        <ele>1233.0</ele>
        <time>2021-08-21T07:21:57Z</time>
      </trkpt>
      <trkpt lat="42.8373450" lon="-5.4473160">
        <ele>1232.0</ele>
        <time>2021-08-21T07:21:58Z</time>
      </trkpt>
      <trkpt lat="42.8373630" lon="-5.4472910">
        <ele>1232.0</ele>
        <time>2021-08-21T07:21:59Z</time>
      </trkpt>
      <trkpt lat="42.8373820" lon="-5.4472650">
        <ele>1232.0</ele>
        <time>2021-08-21T07:22:00Z</time>
      </trkpt>
      <trkpt lat="42.8374020" lon="-5.4472380">
        <ele>1232.0</ele>
        <time>2021-08-21T07:22:01Z</time>
      </trkpt>
      <trkpt lat="42.8374250" lon="-5.4472130">
        <ele>1232.0</ele>
        <time>2021-08-21T07:22:02Z</time>
      </trkpt>
      <trkpt lat="42.8374490" lon="-5.4471880">
        <ele>1232.0</ele>
        <time>2021-08-21T07:22:03Z</time>
      </trkpt>
      <trkpt lat="42.8374710" lon="-5.4471680">
        <ele>1231.0</ele>
        <time>2021-08-21T07:22:04Z</time>
      </trkpt>
      <trkpt lat="42.8374940" lon="-5.4471450">
        <ele>1231.0</ele>
        <time>2021-08-21T07:22:05Z</time>
      </trkpt>
      <trkpt lat="42.8375170" lon="-5.4471250">
        <ele>1231.0</ele>
        <time>2021-08-21T07:22:06Z</time>
      </trkpt>
      <trkpt lat="42.8375390" lon="-5.4471060">
        <ele>1231.0</ele>
        <time>2021-08-21T07:22:07Z</time>
      </trkpt>
      <trkpt lat="42.8375630" lon="-5.4470890">
        <ele>1230.0</ele>
        <time>2021-08-21T07:22:08Z</time>
      </trkpt>
      <trkpt lat="42.8375830" lon="-5.4470640">
        <ele>1230.0</ele>
        <time>2021-08-21T07:22:09Z</time>
      </trkpt>
      <trkpt lat="42.8376030" lon="-5.4470420">
        <ele>1229.0</ele>
        <time>2021-08-21T07:22:10Z</time>
      </trkpt>
      <trkpt lat="42.8376400" lon="-5.4470140">
        <ele>1229.0</ele>
        <time>2021-08-21T07:22:11Z</time>
      </trkpt>
      <trkpt lat="42.8376510" lon="-5.4470040">
        <ele>1229.0</ele>
        <time>2021-08-21T07:22:12Z</time>
      </trkpt>
      <trkpt lat="42.8376740" lon="-5.4469820">
        <ele>1229.0</ele>
        <time>2021-08-21T07:22:13Z</time>
      </trkpt>
      <trkpt lat="42.8376980" lon="-5.4469630">
        <ele>1228.0</ele>
        <time>2021-08-21T07:22:14Z</time>
      </trkpt>
      <trkpt lat="42.8377230" lon="-5.4469450">
        <ele>1228.0</ele>
        <time>2021-08-21T07:22:15Z</time>
      </trkpt>
      <trkpt lat="42.8377460" lon="-5.4469260">
        <ele>1228.0</ele>
        <time>2021-08-21T07:22:16Z</time>
      </trkpt>
      <trkpt lat="42.8377690" lon="-5.4469060">
        <ele>1228.0</ele>
        <time>2021-08-21T07:22:17Z</time>
      </trkpt>
      <trkpt lat="42.8377920" lon="-5.4468880">
        <ele>1228.0</ele>
        <time>2021-08-21T07:22:18Z</time>
      </trkpt>
      <trkpt lat="42.8378120" lon="-5.4468700">
        <ele>1228.0</ele>
        <time>2021-08-21T07:22:19Z</time>
      </trkpt>
      <trkpt lat="42.8378300" lon="-5.4468590">
        <ele>1228.0</ele>
        <time>2021-08-21T07:22:20Z</time>
      </trkpt>
      <trkpt lat="42.8378510" lon="-5.4468450">
        <ele>1228.0</ele>
        <time>2021-08-21T07:22:21Z</time>
      </trkpt>
      <trkpt lat="42.8378720" lon="-5.4468270">
        <ele>1227.0</ele>
        <time>2021-08-21T07:22:22Z</time>
      </trkpt>
      <trkpt lat="42.8378930" lon="-5.4468070">
        <ele>1227.0</ele>
        <time>2021-08-21T07:22:23Z</time>
      </trkpt>
      <trkpt lat="42.8379160" lon="-5.4467890">
        <ele>1228.0</ele>
        <time>2021-08-21T07:22:24Z</time>
      </trkpt>
      <trkpt lat="42.8379390" lon="-5.4467680">
        <ele>1228.0</ele>
        <time>2021-08-21T07:22:25Z</time>
      </trkpt>
      <trkpt lat="42.8379590" lon="-5.4467470">
        <ele>1228.0</ele>
        <time>2021-08-21T07:22:26Z</time>
      </trkpt>
      <trkpt lat="42.8379800" lon="-5.4467250">
        <ele>1228.0</ele>
        <time>2021-08-21T07:22:27Z</time>
      </trkpt>
      <trkpt lat="42.8379990" lon="-5.4467060">
        <ele>1228.0</ele>
        <time>2021-08-21T07:22:28Z</time>
      </trkpt>
      <trkpt lat="42.8380200" lon="-5.4466890">
        <ele>1228.0</ele>
        <time>2021-08-21T07:22:29Z</time>
      </trkpt>
      <trkpt lat="42.8380570" lon="-5.4466610">
        <ele>1228.0</ele>
        <time>2021-08-21T07:22:30Z</time>
      </trkpt>
      <trkpt lat="42.8380700" lon="-5.4466520">
        <ele>1228.0</ele>
        <time>2021-08-21T07:22:31Z</time>
      </trkpt>
      <trkpt lat="42.8381000" lon="-5.4466350">
        <ele>1228.0</ele>
        <time>2021-08-21T07:22:32Z</time>
      </trkpt>
      <trkpt lat="42.8381230" lon="-5.4466130">
        <ele>1228.0</ele>
        <time>2021-08-21T07:22:33Z</time>
      </trkpt>
      <trkpt lat="42.8381460" lon="-5.4465930">
        <ele>1228.0</ele>
        <time>2021-08-21T07:22:34Z</time>
      </trkpt>
      <trkpt lat="42.8381730" lon="-5.4465760">
        <ele>1228.0</ele>
        <time>2021-08-21T07:22:35Z</time>
      </trkpt>
      <trkpt lat="42.8381970" lon="-5.4465580">
        <ele>1228.0</ele>
        <time>2021-08-21T07:22:36Z</time>
      </trkpt>
      <trkpt lat="42.8382230" lon="-5.4465450">
        <ele>1228.0</ele>
        <time>2021-08-21T07:22:37Z</time>
      </trkpt>
      <trkpt lat="42.8382470" lon="-5.4465320">
        <ele>1228.0</ele>
        <time>2021-08-21T07:22:38Z</time>
      </trkpt>
      <trkpt lat="42.8382730" lon="-5.4465150">
        <ele>1228.0</ele>
        <time>2021-08-21T07:22:39Z</time>
      </trkpt>
      <trkpt lat="42.8382950" lon="-5.4464960">
        <ele>1228.0</ele>
        <time>2021-08-21T07:22:40Z</time>
      </trkpt>
      <trkpt lat="42.8383170" lon="-5.4464810">
        <ele>1227.0</ele>
        <time>2021-08-21T07:22:41Z</time>
      </trkpt>
      <trkpt lat="42.8383400" lon="-5.4464710">
        <ele>1227.0</ele>
        <time>2021-08-21T07:22:42Z</time>
      </trkpt>
      <trkpt lat="42.8383770" lon="-5.4464520">
        <ele>1227.0</ele>
        <time>2021-08-21T07:22:43Z</time>
      </trkpt>
      <trkpt lat="42.8383880" lon="-5.4464460">
        <ele>1227.0</ele>
        <time>2021-08-21T07:22:44Z</time>
      </trkpt>
      <trkpt lat="42.8384200" lon="-5.4464220">
        <ele>1227.0</ele>
        <time>2021-08-21T07:22:45Z</time>
      </trkpt>
      <trkpt lat="42.8384300" lon="-5.4464130">
        <ele>1227.0</ele>
        <time>2021-08-21T07:22:46Z</time>
      </trkpt>
      <trkpt lat="42.8384630" lon="-5.4463870">
        <ele>1227.0</ele>
        <time>2021-08-21T07:22:47Z</time>
      </trkpt>
      <trkpt lat="42.8384750" lon="-5.4463780">
        <ele>1227.0</ele>
        <time>2021-08-21T07:22:48Z</time>
      </trkpt>
      <trkpt lat="42.8384970" lon="-5.4463580">
        <ele>1227.0</ele>
        <time>2021-08-21T07:22:49Z</time>
      </trkpt>
      <trkpt lat="42.8385310" lon="-5.4463340">
        <ele>1227.0</ele>
        <time>2021-08-21T07:22:50Z</time>
      </trkpt>
      <trkpt lat="42.8385430" lon="-5.4463260">
        <ele>1227.0</ele>
        <time>2021-08-21T07:22:51Z</time>
      </trkpt>
      <trkpt lat="42.8385650" lon="-5.4463110">
        <ele>1227.0</ele>
        <time>2021-08-21T07:22:52Z</time>
      </trkpt>
      <trkpt lat="42.8386030" lon="-5.4462900">
        <ele>1227.0</ele>
        <time>2021-08-21T07:22:53Z</time>
      </trkpt>
      <trkpt lat="42.8386150" lon="-5.4462820">
        <ele>1227.0</ele>
        <time>2021-08-21T07:22:54Z</time>
      </trkpt>
      <trkpt lat="42.8386390" lon="-5.4462690">
        <ele>1227.0</ele>
        <time>2021-08-21T07:22:55Z</time>
      </trkpt>
      <trkpt lat="42.8386620" lon="-5.4462520">
        <ele>1227.0</ele>
        <time>2021-08-21T07:22:56Z</time>
      </trkpt>
      <trkpt lat="42.8386820" lon="-5.4462350">
        <ele>1227.0</ele>
        <time>2021-08-21T07:22:57Z</time>
      </trkpt>
      <trkpt lat="42.8386970" lon="-5.4462200">
        <ele>1227.0</ele>
        <time>2021-08-21T07:22:58Z</time>
      </trkpt>
      <trkpt lat="42.8387170" lon="-5.4462050">
        <ele>1227.0</ele>
        <time>2021-08-21T07:22:59Z</time>
      </trkpt>
      <trkpt lat="42.8387370" lon="-5.4461930">
        <ele>1227.0</ele>
        <time>2021-08-21T07:23:00Z</time>
      </trkpt>
      <trkpt lat="42.8387570" lon="-5.4461790">
        <ele>1227.0</ele>
        <time>2021-08-21T07:23:01Z</time>
      </trkpt>
      <trkpt lat="42.8387690" lon="-5.4461600">
        <ele>1227.0</ele>
        <time>2021-08-21T07:23:02Z</time>
      </trkpt>
      <trkpt lat="42.8387690" lon="-5.4461600">
        <ele>1227.0</ele>
        <time>2021-08-21T07:23:03Z</time>
      </trkpt>
      <trkpt lat="42.8387690" lon="-5.4461600">
        <ele>1227.0</ele>
        <time>2021-08-21T07:23:05Z</time>
      </trkpt>
      <trkpt lat="42.8387690" lon="-5.4461600">
        <ele>1227.0</ele>
        <time>2021-08-21T07:23:06Z</time>
      </trkpt>
      <trkpt lat="42.8387690" lon="-5.4461600">
        <ele>1227.0</ele>
        <time>2021-08-21T07:23:07Z</time>
      </trkpt>
      <trkpt lat="42.8387690" lon="-5.4461600">
        <ele>1227.0</ele>
        <time>2021-08-21T07:23:09Z</time>
      </trkpt>
      <trkpt lat="42.8387690" lon="-5.4461600">
        <ele>1227.0</ele>
        <time>2021-08-21T07:23:10Z</time>
      </trkpt>
      <trkpt lat="42.8387690" lon="-5.4461600">
        <ele>1227.0</ele>
        <time>2021-08-21T07:23:12Z</time>
      </trkpt>
      <trkpt lat="42.8387690" lon="-5.4461600">
        <ele>1227.0</ele>
        <time>2021-08-21T07:23:14Z</time>
      </trkpt>
      <trkpt lat="42.8387620" lon="-5.4461370">
        <ele>1227.0</ele>
        <time>2021-08-21T07:23:15Z</time>
      </trkpt>
      <trkpt lat="42.8387620" lon="-5.4461370">
        <ele>1227.0</ele>
        <time>2021-08-21T07:23:17Z</time>
      </trkpt>
      <trkpt lat="42.8387620" lon="-5.4461370">
        <ele>1227.0</ele>
        <time>2021-08-21T07:23:19Z</time>
      </trkpt>
      <trkpt lat="42.8387620" lon="-5.4461370">
        <ele>1227.0</ele>
        <time>2021-08-21T07:23:20Z</time>
      </trkpt>
      <trkpt lat="42.8387620" lon="-5.4461370">
        <ele>1227.0</ele>
        <time>2021-08-21T07:23:22Z</time>
      </trkpt>
      <trkpt lat="42.8387620" lon="-5.4461370">
        <ele>1227.0</ele>
        <time>2021-08-21T07:23:24Z</time>
      </trkpt>
      <trkpt lat="42.8387620" lon="-5.4461370">
        <ele>1227.0</ele>
        <time>2021-08-21T07:23:25Z</time>
      </trkpt>
      <trkpt lat="42.8387620" lon="-5.4461370">
        <ele>1227.0</ele>
        <time>2021-08-21T07:23:26Z</time>
      </trkpt>
      <trkpt lat="42.8387620" lon="-5.4461370">
        <ele>1227.0</ele>
        <time>2021-08-21T07:23:27Z</time>
      </trkpt>
      <trkpt lat="42.8387620" lon="-5.4461370">
        <ele>1226.0</ele>
        <time>2021-08-21T07:23:28Z</time>
      </trkpt>
      <trkpt lat="42.8387420" lon="-5.4461280">
        <ele>1226.0</ele>
        <time>2021-08-21T07:23:29Z</time>
      </trkpt>
      <trkpt lat="42.8387420" lon="-5.4461280">
        <ele>1226.0</ele>
        <time>2021-08-21T07:23:30Z</time>
      </trkpt>
      <trkpt lat="42.8387530" lon="-5.4461260">
        <ele>1226.0</ele>
        <time>2021-08-21T07:23:32Z</time>
      </trkpt>
      <trkpt lat="42.8387630" lon="-5.4461240">
        <ele>1226.0</ele>
        <time>2021-08-21T07:23:33Z</time>
      </trkpt>
      <trkpt lat="42.8387740" lon="-5.4461220">
        <ele>1226.0</ele>
        <time>2021-08-21T07:23:35Z</time>
      </trkpt>
      <trkpt lat="42.8387840" lon="-5.4461200">
        <ele>1226.0</ele>
        <time>2021-08-21T07:23:36Z</time>
      </trkpt>
      <trkpt lat="42.8387950" lon="-5.4461180">
        <ele>1226.0</ele>
        <time>2021-08-21T07:23:37Z</time>
      </trkpt>
      <trkpt lat="42.8388190" lon="-5.4461070">
        <ele>1226.0</ele>
        <time>2021-08-21T07:23:38Z</time>
      </trkpt>
      <trkpt lat="42.8388420" lon="-5.4460990">
        <ele>1225.0</ele>
        <time>2021-08-21T07:23:39Z</time>
      </trkpt>
      <trkpt lat="42.8388690" lon="-5.4460860">
        <ele>1225.0</ele>
        <time>2021-08-21T07:23:40Z</time>
      </trkpt>
      <trkpt lat="42.8388950" lon="-5.4460710">
        <ele>1225.0</ele>
        <time>2021-08-21T07:23:41Z</time>
      </trkpt>
      <trkpt lat="42.8389250" lon="-5.4460540">
        <ele>1225.0</ele>
        <time>2021-08-21T07:23:42Z</time>
      </trkpt>
      <trkpt lat="42.8389540" lon="-5.4460370">
        <ele>1225.0</ele>
        <time>2021-08-21T07:23:43Z</time>
      </trkpt>
      <trkpt lat="42.8389950" lon="-5.4460070">
        <ele>1225.0</ele>
        <time>2021-08-21T07:23:44Z</time>
      </trkpt>
      <trkpt lat="42.8390080" lon="-5.4459980">
        <ele>1225.0</ele>
        <time>2021-08-21T07:23:45Z</time>
      </trkpt>
      <trkpt lat="42.8390340" lon="-5.4459810">
        <ele>1225.0</ele>
        <time>2021-08-21T07:23:46Z</time>
      </trkpt>
      <trkpt lat="42.8390600" lon="-5.4459560">
        <ele>1225.0</ele>
        <time>2021-08-21T07:23:47Z</time>
      </trkpt>
      <trkpt lat="42.8390840" lon="-5.4459290">
        <ele>1225.0</ele>
        <time>2021-08-21T07:23:48Z</time>
      </trkpt>
      <trkpt lat="42.8391050" lon="-5.4459070">
        <ele>1224.0</ele>
        <time>2021-08-21T07:23:49Z</time>
      </trkpt>
      <trkpt lat="42.8391470" lon="-5.4458730">
        <ele>1224.0</ele>
        <time>2021-08-21T07:23:50Z</time>
      </trkpt>
      <trkpt lat="42.8391630" lon="-5.4458590">
        <ele>1224.0</ele>
        <time>2021-08-21T07:23:51Z</time>
      </trkpt>
      <trkpt lat="42.8392110" lon="-5.4458180">
        <ele>1224.0</ele>
        <time>2021-08-21T07:23:52Z</time>
      </trkpt>
      <trkpt lat="42.8392240" lon="-5.4458040">
        <ele>1224.0</ele>
        <time>2021-08-21T07:23:53Z</time>
      </trkpt>
      <trkpt lat="42.8392460" lon="-5.4457810">
        <ele>1224.0</ele>
        <time>2021-08-21T07:23:54Z</time>
      </trkpt>
      <trkpt lat="42.8392670" lon="-5.4457570">
        <ele>1224.0</ele>
        <time>2021-08-21T07:23:55Z</time>
      </trkpt>
      <trkpt lat="42.8392930" lon="-5.4457150">
        <ele>1224.0</ele>
        <time>2021-08-21T07:23:56Z</time>
      </trkpt>
      <trkpt lat="42.8393000" lon="-5.4457010">
        <ele>1224.0</ele>
        <time>2021-08-21T07:23:57Z</time>
      </trkpt>
      <trkpt lat="42.8393170" lon="-5.4456740">
        <ele>1224.0</ele>
        <time>2021-08-21T07:23:58Z</time>
      </trkpt>
      <trkpt lat="42.8393300" lon="-5.4456460">
        <ele>1224.0</ele>
        <time>2021-08-21T07:23:59Z</time>
      </trkpt>
      <trkpt lat="42.8393480" lon="-5.4456170">
        <ele>1224.0</ele>
        <time>2021-08-21T07:24:00Z</time>
      </trkpt>
      <trkpt lat="42.8393610" lon="-5.4455860">
        <ele>1224.0</ele>
        <time>2021-08-21T07:24:01Z</time>
      </trkpt>
      <trkpt lat="42.8393720" lon="-5.4455560">
        <ele>1224.0</ele>
        <time>2021-08-21T07:24:02Z</time>
      </trkpt>
      <trkpt lat="42.8393880" lon="-5.4455090">
        <ele>1224.0</ele>
        <time>2021-08-21T07:24:03Z</time>
      </trkpt>
      <trkpt lat="42.8393940" lon="-5.4454930">
        <ele>1224.0</ele>
        <time>2021-08-21T07:24:04Z</time>
      </trkpt>
      <trkpt lat="42.8394040" lon="-5.4454620">
        <ele>1224.0</ele>
        <time>2021-08-21T07:24:05Z</time>
      </trkpt>
      <trkpt lat="42.8394150" lon="-5.4454320">
        <ele>1223.0</ele>
        <time>2021-08-21T07:24:06Z</time>
      </trkpt>
      <trkpt lat="42.8394250" lon="-5.4454030">
        <ele>1223.0</ele>
        <time>2021-08-21T07:24:07Z</time>
      </trkpt>
      <trkpt lat="42.8394300" lon="-5.4453720">
        <ele>1223.0</ele>
        <time>2021-08-21T07:24:08Z</time>
      </trkpt>
      <trkpt lat="42.8394350" lon="-5.4453400">
        <ele>1223.0</ele>
        <time>2021-08-21T07:24:09Z</time>
      </trkpt>
      <trkpt lat="42.8394420" lon="-5.4453090">
        <ele>1223.0</ele>
        <time>2021-08-21T07:24:10Z</time>
      </trkpt>
      <trkpt lat="42.8394580" lon="-5.4452620">
        <ele>1223.0</ele>
        <time>2021-08-21T07:24:11Z</time>
      </trkpt>
      <trkpt lat="42.8394640" lon="-5.4452480">
        <ele>1222.0</ele>
        <time>2021-08-21T07:24:12Z</time>
      </trkpt>
      <trkpt lat="42.8394770" lon="-5.4452200">
        <ele>1222.0</ele>
        <time>2021-08-21T07:24:13Z</time>
      </trkpt>
      <trkpt lat="42.8394860" lon="-5.4451950">
        <ele>1222.0</ele>
        <time>2021-08-21T07:24:14Z</time>
      </trkpt>
      <trkpt lat="42.8394950" lon="-5.4451680">
        <ele>1222.0</ele>
        <time>2021-08-21T07:24:15Z</time>
      </trkpt>
      <trkpt lat="42.8395050" lon="-5.4451410">
        <ele>1222.0</ele>
        <time>2021-08-21T07:24:16Z</time>
      </trkpt>
      <trkpt lat="42.8395200" lon="-5.4451150">
        <ele>1221.0</ele>
        <time>2021-08-21T07:24:17Z</time>
      </trkpt>
      <trkpt lat="42.8395340" lon="-5.4450940">
        <ele>1221.0</ele>
        <time>2021-08-21T07:24:18Z</time>
      </trkpt>
      <trkpt lat="42.8395540" lon="-5.4450810">
        <ele>1220.0</ele>
        <time>2021-08-21T07:24:19Z</time>
      </trkpt>
      <trkpt lat="42.8395730" lon="-5.4450690">
        <ele>1219.0</ele>
        <time>2021-08-21T07:24:20Z</time>
      </trkpt>
      <trkpt lat="42.8395960" lon="-5.4450540">
        <ele>1219.0</ele>
        <time>2021-08-21T07:24:21Z</time>
      </trkpt>
      <trkpt lat="42.8396160" lon="-5.4450350">
        <ele>1219.0</ele>
        <time>2021-08-21T07:24:22Z</time>
      </trkpt>
      <trkpt lat="42.8396350" lon="-5.4450150">
        <ele>1218.0</ele>
        <time>2021-08-21T07:24:23Z</time>
      </trkpt>
      <trkpt lat="42.8396540" lon="-5.4449970">
        <ele>1218.0</ele>
        <time>2021-08-21T07:24:24Z</time>
      </trkpt>
      <trkpt lat="42.8396760" lon="-5.4449810">
        <ele>1218.0</ele>
        <time>2021-08-21T07:24:25Z</time>
      </trkpt>
      <trkpt lat="42.8396980" lon="-5.4449690">
        <ele>1217.0</ele>
        <time>2021-08-21T07:24:26Z</time>
      </trkpt>
      <trkpt lat="42.8397210" lon="-5.4449540">
        <ele>1217.0</ele>
        <time>2021-08-21T07:24:27Z</time>
      </trkpt>
      <trkpt lat="42.8397410" lon="-5.4449400">
        <ele>1217.0</ele>
        <time>2021-08-21T07:24:28Z</time>
      </trkpt>
      <trkpt lat="42.8397650" lon="-5.4449230">
        <ele>1217.0</ele>
        <time>2021-08-21T07:24:29Z</time>
      </trkpt>
      <trkpt lat="42.8397900" lon="-5.4449090">
        <ele>1217.0</ele>
        <time>2021-08-21T07:24:30Z</time>
      </trkpt>
      <trkpt lat="42.8398170" lon="-5.4448950">
        <ele>1216.0</ele>
        <time>2021-08-21T07:24:31Z</time>
      </trkpt>
      <trkpt lat="42.8398580" lon="-5.4448790">
        <ele>1216.0</ele>
        <time>2021-08-21T07:24:32Z</time>
      </trkpt>
      <trkpt lat="42.8398710" lon="-5.4448740">
        <ele>1216.0</ele>
        <time>2021-08-21T07:24:33Z</time>
      </trkpt>
      <trkpt lat="42.8399120" lon="-5.4448540">
        <ele>1216.0</ele>
        <time>2021-08-21T07:24:34Z</time>
      </trkpt>
      <trkpt lat="42.8399260" lon="-5.4448450">
        <ele>1216.0</ele>
        <time>2021-08-21T07:24:35Z</time>
      </trkpt>
      <trkpt lat="42.8399550" lon="-5.4448270">
        <ele>1215.0</ele>
        <time>2021-08-21T07:24:36Z</time>
      </trkpt>
      <trkpt lat="42.8399790" lon="-5.4448080">
        <ele>1215.0</ele>
        <time>2021-08-21T07:24:37Z</time>
      </trkpt>
      <trkpt lat="42.8400130" lon="-5.4447650">
        <ele>1215.0</ele>
        <time>2021-08-21T07:24:38Z</time>
      </trkpt>
      <trkpt lat="42.8400230" lon="-5.4447490">
        <ele>1215.0</ele>
        <time>2021-08-21T07:24:39Z</time>
      </trkpt>
      <trkpt lat="42.8400420" lon="-5.4447180">
        <ele>1215.0</ele>
        <time>2021-08-21T07:24:40Z</time>
      </trkpt>
      <trkpt lat="42.8400700" lon="-5.4446710">
        <ele>1215.0</ele>
        <time>2021-08-21T07:24:41Z</time>
      </trkpt>
      <trkpt lat="42.8400780" lon="-5.4446570">
        <ele>1215.0</ele>
        <time>2021-08-21T07:24:42Z</time>
      </trkpt>
      <trkpt lat="42.8401000" lon="-5.4446370">
        <ele>1215.0</ele>
        <time>2021-08-21T07:24:43Z</time>
      </trkpt>
      <trkpt lat="42.8401230" lon="-5.4446200">
        <ele>1215.0</ele>
        <time>2021-08-21T07:24:44Z</time>
      </trkpt>
      <trkpt lat="42.8401500" lon="-5.4446000">
        <ele>1214.0</ele>
        <time>2021-08-21T07:24:45Z</time>
      </trkpt>
      <trkpt lat="42.8401770" lon="-5.4445800">
        <ele>1214.0</ele>
        <time>2021-08-21T07:24:46Z</time>
      </trkpt>
      <trkpt lat="42.8402020" lon="-5.4445530">
        <ele>1214.0</ele>
        <time>2021-08-21T07:24:47Z</time>
      </trkpt>
      <trkpt lat="42.8402230" lon="-5.4445230">
        <ele>1214.0</ele>
        <time>2021-08-21T07:24:48Z</time>
      </trkpt>
      <trkpt lat="42.8402460" lon="-5.4444930">
        <ele>1214.0</ele>
        <time>2021-08-21T07:24:49Z</time>
      </trkpt>
      <trkpt lat="42.8402630" lon="-5.4444610">
        <ele>1213.0</ele>
        <time>2021-08-21T07:24:50Z</time>
      </trkpt>
      <trkpt lat="42.8402830" lon="-5.4444310">
        <ele>1213.0</ele>
        <time>2021-08-21T07:24:51Z</time>
      </trkpt>
      <trkpt lat="42.8403040" lon="-5.4444020">
        <ele>1213.0</ele>
        <time>2021-08-21T07:24:52Z</time>
      </trkpt>
      <trkpt lat="42.8403230" lon="-5.4443690">
        <ele>1213.0</ele>
        <time>2021-08-21T07:24:53Z</time>
      </trkpt>
      <trkpt lat="42.8403400" lon="-5.4443340">
        <ele>1213.0</ele>
        <time>2021-08-21T07:24:54Z</time>
      </trkpt>
      <trkpt lat="42.8403580" lon="-5.4442970">
        <ele>1213.0</ele>
        <time>2021-08-21T07:24:55Z</time>
      </trkpt>
      <trkpt lat="42.8403860" lon="-5.4442460">
        <ele>1213.0</ele>
        <time>2021-08-21T07:24:56Z</time>
      </trkpt>
      <trkpt lat="42.8403940" lon="-5.4442290">
        <ele>1212.0</ele>
        <time>2021-08-21T07:24:57Z</time>
      </trkpt>
      <trkpt lat="42.8404110" lon="-5.4441940">
        <ele>1212.0</ele>
        <time>2021-08-21T07:24:58Z</time>
      </trkpt>
      <trkpt lat="42.8404290" lon="-5.4441570">
        <ele>1212.0</ele>
        <time>2021-08-21T07:24:59Z</time>
      </trkpt>
      <trkpt lat="42.8404540" lon="-5.4441050">
        <ele>1212.0</ele>
        <time>2021-08-21T07:25:00Z</time>
      </trkpt>
      <trkpt lat="42.8404620" lon="-5.4440880">
        <ele>1212.0</ele>
        <time>2021-08-21T07:25:01Z</time>
      </trkpt>
      <trkpt lat="42.8404790" lon="-5.4440560">
        <ele>1211.0</ele>
        <time>2021-08-21T07:25:02Z</time>
      </trkpt>
      <trkpt lat="42.8404950" lon="-5.4440230">
        <ele>1211.0</ele>
        <time>2021-08-21T07:25:03Z</time>
      </trkpt>
      <trkpt lat="42.8405150" lon="-5.4439920">
        <ele>1211.0</ele>
        <time>2021-08-21T07:25:04Z</time>
      </trkpt>
      <trkpt lat="42.8405360" lon="-5.4439630">
        <ele>1211.0</ele>
        <time>2021-08-21T07:25:05Z</time>
      </trkpt>
      <trkpt lat="42.8405560" lon="-5.4439320">
        <ele>1210.0</ele>
        <time>2021-08-21T07:25:06Z</time>
      </trkpt>
      <trkpt lat="42.8405750" lon="-5.4439000">
        <ele>1210.0</ele>
        <time>2021-08-21T07:25:07Z</time>
      </trkpt>
      <trkpt lat="42.8406010" lon="-5.4438500">
        <ele>1210.0</ele>
        <time>2021-08-21T07:25:08Z</time>
      </trkpt>
      <trkpt lat="42.8406090" lon="-5.4438340">
        <ele>1210.0</ele>
        <time>2021-08-21T07:25:09Z</time>
      </trkpt>
      <trkpt lat="42.8406250" lon="-5.4438040">
        <ele>1209.0</ele>
        <time>2021-08-21T07:25:10Z</time>
      </trkpt>
      <trkpt lat="42.8406410" lon="-5.4437740">
        <ele>1209.0</ele>
        <time>2021-08-21T07:25:11Z</time>
      </trkpt>
      <trkpt lat="42.8406600" lon="-5.4437430">
        <ele>1208.0</ele>
        <time>2021-08-21T07:25:12Z</time>
      </trkpt>
      <trkpt lat="42.8406760" lon="-5.4437110">
        <ele>1207.0</ele>
        <time>2021-08-21T07:25:13Z</time>
      </trkpt>
      <trkpt lat="42.8406910" lon="-5.4436790">
        <ele>1207.0</ele>
        <time>2021-08-21T07:25:14Z</time>
      </trkpt>
      <trkpt lat="42.8407110" lon="-5.4436300">
        <ele>1207.0</ele>
        <time>2021-08-21T07:25:15Z</time>
      </trkpt>
      <trkpt lat="42.8407170" lon="-5.4436130">
        <ele>1206.0</ele>
        <time>2021-08-21T07:25:16Z</time>
      </trkpt>
      <trkpt lat="42.8407280" lon="-5.4435780">
        <ele>1205.0</ele>
        <time>2021-08-21T07:25:17Z</time>
      </trkpt>
      <trkpt lat="42.8407390" lon="-5.4435460">
        <ele>1205.0</ele>
        <time>2021-08-21T07:25:18Z</time>
      </trkpt>
      <trkpt lat="42.8407520" lon="-5.4435130">
        <ele>1205.0</ele>
        <time>2021-08-21T07:25:19Z</time>
      </trkpt>
      <trkpt lat="42.8407630" lon="-5.4434800">
        <ele>1204.0</ele>
        <time>2021-08-21T07:25:20Z</time>
      </trkpt>
      <trkpt lat="42.8407760" lon="-5.4434470">
        <ele>1203.0</ele>
        <time>2021-08-21T07:25:21Z</time>
      </trkpt>
      <trkpt lat="42.8407870" lon="-5.4434130">
        <ele>1202.0</ele>
        <time>2021-08-21T07:25:22Z</time>
      </trkpt>
      <trkpt lat="42.8408020" lon="-5.4433590">
        <ele>1202.0</ele>
        <time>2021-08-21T07:25:23Z</time>
      </trkpt>
      <trkpt lat="42.8408070" lon="-5.4433400">
        <ele>1202.0</ele>
        <time>2021-08-21T07:25:24Z</time>
      </trkpt>
      <trkpt lat="42.8408170" lon="-5.4433050">
        <ele>1201.0</ele>
        <time>2021-08-21T07:25:25Z</time>
      </trkpt>
      <trkpt lat="42.8408280" lon="-5.4432710">
        <ele>1201.0</ele>
        <time>2021-08-21T07:25:26Z</time>
      </trkpt>
      <trkpt lat="42.8408440" lon="-5.4432200">
        <ele>1201.0</ele>
        <time>2021-08-21T07:25:27Z</time>
      </trkpt>
      <trkpt lat="42.8408490" lon="-5.4432020">
        <ele>1200.0</ele>
        <time>2021-08-21T07:25:28Z</time>
      </trkpt>
      <trkpt lat="42.8408580" lon="-5.4431660">
        <ele>1200.0</ele>
        <time>2021-08-21T07:25:29Z</time>
      </trkpt>
      <trkpt lat="42.8408670" lon="-5.4431280">
        <ele>1200.0</ele>
        <time>2021-08-21T07:25:30Z</time>
      </trkpt>
      <trkpt lat="42.8408740" lon="-5.4430900">
        <ele>1200.0</ele>
        <time>2021-08-21T07:25:31Z</time>
      </trkpt>
      <trkpt lat="42.8408840" lon="-5.4430520">
        <ele>1199.0</ele>
        <time>2021-08-21T07:25:32Z</time>
      </trkpt>
      <trkpt lat="42.8408930" lon="-5.4430140">
        <ele>1199.0</ele>
        <time>2021-08-21T07:25:33Z</time>
      </trkpt>
      <trkpt lat="42.8409000" lon="-5.4429740">
        <ele>1199.0</ele>
        <time>2021-08-21T07:25:34Z</time>
      </trkpt>
      <trkpt lat="42.8409060" lon="-5.4429360">
        <ele>1199.0</ele>
        <time>2021-08-21T07:25:35Z</time>
      </trkpt>
      <trkpt lat="42.8409110" lon="-5.4428980">
        <ele>1199.0</ele>
        <time>2021-08-21T07:25:36Z</time>
      </trkpt>
      <trkpt lat="42.8409150" lon="-5.4428600">
        <ele>1199.0</ele>
        <time>2021-08-21T07:25:37Z</time>
      </trkpt>
      <trkpt lat="42.8409170" lon="-5.4428210">
        <ele>1198.0</ele>
        <time>2021-08-21T07:25:38Z</time>
      </trkpt>
      <trkpt lat="42.8409200" lon="-5.4427820">
        <ele>1198.0</ele>
        <time>2021-08-21T07:25:39Z</time>
      </trkpt>
      <trkpt lat="42.8409230" lon="-5.4427410">
        <ele>1198.0</ele>
        <time>2021-08-21T07:25:40Z</time>
      </trkpt>
      <trkpt lat="42.8409310" lon="-5.4426840">
        <ele>1198.0</ele>
        <time>2021-08-21T07:25:41Z</time>
      </trkpt>
      <trkpt lat="42.8409340" lon="-5.4426650">
        <ele>1197.0</ele>
        <time>2021-08-21T07:25:42Z</time>
      </trkpt>
      <trkpt lat="42.8409390" lon="-5.4426250">
        <ele>1197.0</ele>
        <time>2021-08-21T07:25:43Z</time>
      </trkpt>
      <trkpt lat="42.8409450" lon="-5.4425880">
        <ele>1197.0</ele>
        <time>2021-08-21T07:25:44Z</time>
      </trkpt>
      <trkpt lat="42.8409500" lon="-5.4425490">
        <ele>1197.0</ele>
        <time>2021-08-21T07:25:45Z</time>
      </trkpt>
      <trkpt lat="42.8409540" lon="-5.4425110">
        <ele>1197.0</ele>
        <time>2021-08-21T07:25:46Z</time>
      </trkpt>
      <trkpt lat="42.8409600" lon="-5.4424710">
        <ele>1196.0</ele>
        <time>2021-08-21T07:25:47Z</time>
      </trkpt>
      <trkpt lat="42.8409660" lon="-5.4424340">
        <ele>1196.0</ele>
        <time>2021-08-21T07:25:48Z</time>
      </trkpt>
      <trkpt lat="42.8409770" lon="-5.4423970">
        <ele>1196.0</ele>
        <time>2021-08-21T07:25:49Z</time>
      </trkpt>
      <trkpt lat="42.8409850" lon="-5.4423580">
        <ele>1196.0</ele>
        <time>2021-08-21T07:25:50Z</time>
      </trkpt>
      <trkpt lat="42.8409940" lon="-5.4423230">
        <ele>1196.0</ele>
        <time>2021-08-21T07:25:51Z</time>
      </trkpt>
      <trkpt lat="42.8410040" lon="-5.4422860">
        <ele>1196.0</ele>
        <time>2021-08-21T07:25:52Z</time>
      </trkpt>
      <trkpt lat="42.8410120" lon="-5.4422520">
        <ele>1195.0</ele>
        <time>2021-08-21T07:25:53Z</time>
      </trkpt>
      <trkpt lat="42.8410270" lon="-5.4422000">
        <ele>1195.0</ele>
        <time>2021-08-21T07:25:54Z</time>
      </trkpt>
      <trkpt lat="42.8410310" lon="-5.4421820">
        <ele>1195.0</ele>
        <time>2021-08-21T07:25:55Z</time>
      </trkpt>
      <trkpt lat="42.8410410" lon="-5.4421480">
        <ele>1195.0</ele>
        <time>2021-08-21T07:25:56Z</time>
      </trkpt>
      <trkpt lat="42.8410500" lon="-5.4421130">
        <ele>1195.0</ele>
        <time>2021-08-21T07:25:57Z</time>
      </trkpt>
      <trkpt lat="42.8410640" lon="-5.4420790">
        <ele>1195.0</ele>
        <time>2021-08-21T07:25:58Z</time>
      </trkpt>
      <trkpt lat="42.8410800" lon="-5.4420260">
        <ele>1195.0</ele>
        <time>2021-08-21T07:25:59Z</time>
      </trkpt>
      <trkpt lat="42.8410850" lon="-5.4420090">
        <ele>1194.0</ele>
        <time>2021-08-21T07:26:00Z</time>
      </trkpt>
      <trkpt lat="42.8411040" lon="-5.4419560">
        <ele>1194.0</ele>
        <time>2021-08-21T07:26:01Z</time>
      </trkpt>
      <trkpt lat="42.8411090" lon="-5.4419380">
        <ele>1194.0</ele>
        <time>2021-08-21T07:26:02Z</time>
      </trkpt>
      <trkpt lat="42.8411220" lon="-5.4419030">
        <ele>1193.0</ele>
        <time>2021-08-21T07:26:03Z</time>
      </trkpt>
      <trkpt lat="42.8411340" lon="-5.4418660">
        <ele>1193.0</ele>
        <time>2021-08-21T07:26:04Z</time>
      </trkpt>
      <trkpt lat="42.8411470" lon="-5.4418310">
        <ele>1193.0</ele>
        <time>2021-08-21T07:26:05Z</time>
      </trkpt>
      <trkpt lat="42.8411590" lon="-5.4417950">
        <ele>1193.0</ele>
        <time>2021-08-21T07:26:06Z</time>
      </trkpt>
      <trkpt lat="42.8411680" lon="-5.4417590">
        <ele>1193.0</ele>
        <time>2021-08-21T07:26:07Z</time>
      </trkpt>
      <trkpt lat="42.8411790" lon="-5.4417240">
        <ele>1193.0</ele>
        <time>2021-08-21T07:26:08Z</time>
      </trkpt>
      <trkpt lat="42.8411910" lon="-5.4416890">
        <ele>1193.0</ele>
        <time>2021-08-21T07:26:09Z</time>
      </trkpt>
      <trkpt lat="42.8412010" lon="-5.4416530">
        <ele>1192.0</ele>
        <time>2021-08-21T07:26:10Z</time>
      </trkpt>
      <trkpt lat="42.8412090" lon="-5.4416170">
        <ele>1192.0</ele>
        <time>2021-08-21T07:26:11Z</time>
      </trkpt>
      <trkpt lat="42.8412210" lon="-5.4415800">
        <ele>1192.0</ele>
        <time>2021-08-21T07:26:12Z</time>
      </trkpt>
      <trkpt lat="42.8412290" lon="-5.4415450">
        <ele>1192.0</ele>
        <time>2021-08-21T07:26:13Z</time>
      </trkpt>
      <trkpt lat="42.8412400" lon="-5.4415110">
        <ele>1192.0</ele>
        <time>2021-08-21T07:26:14Z</time>
      </trkpt>
      <trkpt lat="42.8412540" lon="-5.4414790">
        <ele>1191.0</ele>
        <time>2021-08-21T07:26:15Z</time>
      </trkpt>
      <trkpt lat="42.8412690" lon="-5.4414450">
        <ele>1191.0</ele>
        <time>2021-08-21T07:26:16Z</time>
      </trkpt>
      <trkpt lat="42.8412690" lon="-5.4414450">
        <ele>1191.0</ele>
        <time>2021-08-21T07:26:17Z</time>
      </trkpt>
      <trkpt lat="42.8412910" lon="-5.4413770">
        <ele>1191.0</ele>
        <time>2021-08-21T07:26:18Z</time>
      </trkpt>
      <trkpt lat="42.8413060" lon="-5.4413270">
        <ele>1191.0</ele>
        <time>2021-08-21T07:26:19Z</time>
      </trkpt>
      <trkpt lat="42.8413110" lon="-5.4413090">
        <ele>1190.0</ele>
        <time>2021-08-21T07:26:20Z</time>
      </trkpt>
      <trkpt lat="42.8413190" lon="-5.4412740">
        <ele>1190.0</ele>
        <time>2021-08-21T07:26:21Z</time>
      </trkpt>
      <trkpt lat="42.8413280" lon="-5.4412410">
        <ele>1190.0</ele>
        <time>2021-08-21T07:26:22Z</time>
      </trkpt>
      <trkpt lat="42.8413370" lon="-5.4412060">
        <ele>1190.0</ele>
        <time>2021-08-21T07:26:23Z</time>
      </trkpt>
      <trkpt lat="42.8413470" lon="-5.4411690">
        <ele>1189.0</ele>
        <time>2021-08-21T07:26:24Z</time>
      </trkpt>
      <trkpt lat="42.8413540" lon="-5.4411300">
        <ele>1189.0</ele>
        <time>2021-08-21T07:26:25Z</time>
      </trkpt>
      <trkpt lat="42.8413610" lon="-5.4410930">
        <ele>1189.0</ele>
        <time>2021-08-21T07:26:26Z</time>
      </trkpt>
      <trkpt lat="42.8413660" lon="-5.4410360">
        <ele>1189.0</ele>
        <time>2021-08-21T07:26:27Z</time>
      </trkpt>
      <trkpt lat="42.8413670" lon="-5.4410160">
        <ele>1189.0</ele>
        <time>2021-08-21T07:26:28Z</time>
      </trkpt>
      <trkpt lat="42.8413700" lon="-5.4409790">
        <ele>1188.0</ele>
        <time>2021-08-21T07:26:29Z</time>
      </trkpt>
      <trkpt lat="42.8413720" lon="-5.4409410">
        <ele>1188.0</ele>
        <time>2021-08-21T07:26:30Z</time>
      </trkpt>
      <trkpt lat="42.8413730" lon="-5.4409030">
        <ele>1188.0</ele>
        <time>2021-08-21T07:26:31Z</time>
      </trkpt>
      <trkpt lat="42.8413760" lon="-5.4408660">
        <ele>1188.0</ele>
        <time>2021-08-21T07:26:32Z</time>
      </trkpt>
      <trkpt lat="42.8413810" lon="-5.4408290">
        <ele>1187.0</ele>
        <time>2021-08-21T07:26:33Z</time>
      </trkpt>
      <trkpt lat="42.8413850" lon="-5.4407900">
        <ele>1187.0</ele>
        <time>2021-08-21T07:26:34Z</time>
      </trkpt>
      <trkpt lat="42.8413850" lon="-5.4407520">
        <ele>1187.0</ele>
        <time>2021-08-21T07:26:35Z</time>
      </trkpt>
      <trkpt lat="42.8413830" lon="-5.4407130">
        <ele>1187.0</ele>
        <time>2021-08-21T07:26:36Z</time>
      </trkpt>
      <trkpt lat="42.8413810" lon="-5.4406730">
        <ele>1186.0</ele>
        <time>2021-08-21T07:26:37Z</time>
      </trkpt>
      <trkpt lat="42.8413770" lon="-5.4406310">
        <ele>1186.0</ele>
        <time>2021-08-21T07:26:38Z</time>
      </trkpt>
      <trkpt lat="42.8413750" lon="-5.4405900">
        <ele>1186.0</ele>
        <time>2021-08-21T07:26:39Z</time>
      </trkpt>
      <trkpt lat="42.8413710" lon="-5.4405530">
        <ele>1186.0</ele>
        <time>2021-08-21T07:26:40Z</time>
      </trkpt>
      <trkpt lat="42.8413690" lon="-5.4405150">
        <ele>1186.0</ele>
        <time>2021-08-21T07:26:41Z</time>
      </trkpt>
      <trkpt lat="42.8413690" lon="-5.4404760">
        <ele>1185.0</ele>
        <time>2021-08-21T07:26:42Z</time>
      </trkpt>
      <trkpt lat="42.8413680" lon="-5.4404380">
        <ele>1185.0</ele>
        <time>2021-08-21T07:26:43Z</time>
      </trkpt>
      <trkpt lat="42.8413680" lon="-5.4403990">
        <ele>1185.0</ele>
        <time>2021-08-21T07:26:44Z</time>
      </trkpt>
      <trkpt lat="42.8413710" lon="-5.4403600">
        <ele>1184.0</ele>
        <time>2021-08-21T07:26:45Z</time>
      </trkpt>
      <trkpt lat="42.8413740" lon="-5.4403200">
        <ele>1184.0</ele>
        <time>2021-08-21T07:26:46Z</time>
      </trkpt>
      <trkpt lat="42.8413760" lon="-5.4402780">
        <ele>1184.0</ele>
        <time>2021-08-21T07:26:47Z</time>
      </trkpt>
      <trkpt lat="42.8413790" lon="-5.4402390">
        <ele>1184.0</ele>
        <time>2021-08-21T07:26:48Z</time>
      </trkpt>
      <trkpt lat="42.8413850" lon="-5.4402020">
        <ele>1184.0</ele>
        <time>2021-08-21T07:26:49Z</time>
      </trkpt>
      <trkpt lat="42.8413900" lon="-5.4401640">
        <ele>1184.0</ele>
        <time>2021-08-21T07:26:50Z</time>
      </trkpt>
      <trkpt lat="42.8414040" lon="-5.4400920">
        <ele>1184.0</ele>
        <time>2021-08-21T07:26:51Z</time>
      </trkpt>
      <trkpt lat="42.8414110" lon="-5.4400580">
        <ele>1184.0</ele>
        <time>2021-08-21T07:26:53Z</time>
      </trkpt>
      <trkpt lat="42.8414180" lon="-5.4400230">
        <ele>1183.0</ele>
        <time>2021-08-21T07:26:54Z</time>
      </trkpt>
      <trkpt lat="42.8414260" lon="-5.4399900">
        <ele>1182.0</ele>
        <time>2021-08-21T07:26:55Z</time>
      </trkpt>
      <trkpt lat="42.8414360" lon="-5.4399580">
        <ele>1182.0</ele>
        <time>2021-08-21T07:26:56Z</time>
      </trkpt>
      <trkpt lat="42.8414460" lon="-5.4399240">
        <ele>1182.0</ele>
        <time>2021-08-21T07:26:57Z</time>
      </trkpt>
      <trkpt lat="42.8414570" lon="-5.4398900">
        <ele>1181.0</ele>
        <time>2021-08-21T07:26:58Z</time>
      </trkpt>
      <trkpt lat="42.8414690" lon="-5.4398550">
        <ele>1181.0</ele>
        <time>2021-08-21T07:26:59Z</time>
      </trkpt>
      <trkpt lat="42.8414790" lon="-5.4398210">
        <ele>1181.0</ele>
        <time>2021-08-21T07:27:00Z</time>
      </trkpt>
      <trkpt lat="42.8414870" lon="-5.4397840">
        <ele>1180.0</ele>
        <time>2021-08-21T07:27:01Z</time>
      </trkpt>
      <trkpt lat="42.8414950" lon="-5.4397490">
        <ele>1180.0</ele>
        <time>2021-08-21T07:27:02Z</time>
      </trkpt>
      <trkpt lat="42.8415040" lon="-5.4397150">
        <ele>1180.0</ele>
        <time>2021-08-21T07:27:03Z</time>
      </trkpt>
      <trkpt lat="42.8415120" lon="-5.4396800">
        <ele>1179.0</ele>
        <time>2021-08-21T07:27:04Z</time>
      </trkpt>
      <trkpt lat="42.8415210" lon="-5.4396440">
        <ele>1179.0</ele>
        <time>2021-08-21T07:27:05Z</time>
      </trkpt>
      <trkpt lat="42.8415330" lon="-5.4396080">
        <ele>1179.0</ele>
        <time>2021-08-21T07:27:06Z</time>
      </trkpt>
      <trkpt lat="42.8415440" lon="-5.4395720">
        <ele>1178.0</ele>
        <time>2021-08-21T07:27:07Z</time>
      </trkpt>
      <trkpt lat="42.8415560" lon="-5.4395350">
        <ele>1178.0</ele>
        <time>2021-08-21T07:27:08Z</time>
      </trkpt>
      <trkpt lat="42.8415690" lon="-5.4394990">
        <ele>1178.0</ele>
        <time>2021-08-21T07:27:09Z</time>
      </trkpt>
      <trkpt lat="42.8415830" lon="-5.4394650">
        <ele>1178.0</ele>
        <time>2021-08-21T07:27:10Z</time>
      </trkpt>
      <trkpt lat="42.8415960" lon="-5.4394330">
        <ele>1177.0</ele>
        <time>2021-08-21T07:27:11Z</time>
      </trkpt>
      <trkpt lat="42.8416100" lon="-5.4393990">
        <ele>1177.0</ele>
        <time>2021-08-21T07:27:12Z</time>
      </trkpt>
      <trkpt lat="42.8416220" lon="-5.4393650">
        <ele>1176.0</ele>
        <time>2021-08-21T07:27:13Z</time>
      </trkpt>
      <trkpt lat="42.8416370" lon="-5.4393340">
        <ele>1176.0</ele>
        <time>2021-08-21T07:27:14Z</time>
      </trkpt>
      <trkpt lat="42.8416510" lon="-5.4393020">
        <ele>1175.0</ele>
        <time>2021-08-21T07:27:15Z</time>
      </trkpt>
      <trkpt lat="42.8416640" lon="-5.4392690">
        <ele>1175.0</ele>
        <time>2021-08-21T07:27:16Z</time>
      </trkpt>
      <trkpt lat="42.8416850" lon="-5.4392220">
        <ele>1175.0</ele>
        <time>2021-08-21T07:27:17Z</time>
      </trkpt>
      <trkpt lat="42.8416920" lon="-5.4392060">
        <ele>1174.0</ele>
        <time>2021-08-21T07:27:18Z</time>
      </trkpt>
      <trkpt lat="42.8417080" lon="-5.4391780">
        <ele>1173.0</ele>
        <time>2021-08-21T07:27:19Z</time>
      </trkpt>
      <trkpt lat="42.8417240" lon="-5.4391480">
        <ele>1173.0</ele>
        <time>2021-08-21T07:27:20Z</time>
      </trkpt>
      <trkpt lat="42.8417390" lon="-5.4391190">
        <ele>1172.0</ele>
        <time>2021-08-21T07:27:21Z</time>
      </trkpt>
      <trkpt lat="42.8417540" lon="-5.4390910">
        <ele>1172.0</ele>
        <time>2021-08-21T07:27:22Z</time>
      </trkpt>
      <trkpt lat="42.8417690" lon="-5.4390640">
        <ele>1171.0</ele>
        <time>2021-08-21T07:27:23Z</time>
      </trkpt>
      <trkpt lat="42.8417850" lon="-5.4390380">
        <ele>1171.0</ele>
        <time>2021-08-21T07:27:24Z</time>
      </trkpt>
      <trkpt lat="42.8418020" lon="-5.4390110">
        <ele>1170.0</ele>
        <time>2021-08-21T07:27:25Z</time>
      </trkpt>
      <trkpt lat="42.8418160" lon="-5.4389820">
        <ele>1170.0</ele>
        <time>2021-08-21T07:27:26Z</time>
      </trkpt>
      <trkpt lat="42.8418310" lon="-5.4389540">
        <ele>1169.0</ele>
        <time>2021-08-21T07:27:27Z</time>
      </trkpt>
      <trkpt lat="42.8418440" lon="-5.4389270">
        <ele>1168.0</ele>
        <time>2021-08-21T07:27:28Z</time>
      </trkpt>
      <trkpt lat="42.8418610" lon="-5.4388820">
        <ele>1168.0</ele>
        <time>2021-08-21T07:27:29Z</time>
      </trkpt>
      <trkpt lat="42.8418670" lon="-5.4388660">
        <ele>1167.0</ele>
        <time>2021-08-21T07:27:30Z</time>
      </trkpt>
      <trkpt lat="42.8418790" lon="-5.4388350">
        <ele>1166.0</ele>
        <time>2021-08-21T07:27:31Z</time>
      </trkpt>
      <trkpt lat="42.8418910" lon="-5.4388040">
        <ele>1166.0</ele>
        <time>2021-08-21T07:27:32Z</time>
      </trkpt>
      <trkpt lat="42.8419040" lon="-5.4387730">
        <ele>1166.0</ele>
        <time>2021-08-21T07:27:33Z</time>
      </trkpt>
      <trkpt lat="42.8419170" lon="-5.4387400">
        <ele>1165.0</ele>
        <time>2021-08-21T07:27:34Z</time>
      </trkpt>
      <trkpt lat="42.8419290" lon="-5.4387090">
        <ele>1164.0</ele>
        <time>2021-08-21T07:27:35Z</time>
      </trkpt>
      <trkpt lat="42.8419390" lon="-5.4386760">
        <ele>1163.0</ele>
        <time>2021-08-21T07:27:36Z</time>
      </trkpt>
      <trkpt lat="42.8419520" lon="-5.4386450">
        <ele>1163.0</ele>
        <time>2021-08-21T07:27:37Z</time>
      </trkpt>
      <trkpt lat="42.8419680" lon="-5.4386160">
        <ele>1162.0</ele>
        <time>2021-08-21T07:27:38Z</time>
      </trkpt>
      <trkpt lat="42.8419840" lon="-5.4385870">
        <ele>1162.0</ele>
        <time>2021-08-21T07:27:39Z</time>
      </trkpt>
      <trkpt lat="42.8419990" lon="-5.4385570">
        <ele>1161.0</ele>
        <time>2021-08-21T07:27:40Z</time>
      </trkpt>
      <trkpt lat="42.8420140" lon="-5.4385260">
        <ele>1161.0</ele>
        <time>2021-08-21T07:27:41Z</time>
      </trkpt>
      <trkpt lat="42.8420300" lon="-5.4384940">
        <ele>1160.0</ele>
        <time>2021-08-21T07:27:42Z</time>
      </trkpt>
      <trkpt lat="42.8420460" lon="-5.4384660">
        <ele>1160.0</ele>
        <time>2021-08-21T07:27:43Z</time>
      </trkpt>
      <trkpt lat="42.8420640" lon="-5.4384380">
        <ele>1160.0</ele>
        <time>2021-08-21T07:27:44Z</time>
      </trkpt>
      <trkpt lat="42.8420900" lon="-5.4384040">
        <ele>1160.0</ele>
        <time>2021-08-21T07:27:45Z</time>
      </trkpt>
      <trkpt lat="42.8421000" lon="-5.4383930">
        <ele>1159.0</ele>
        <time>2021-08-21T07:27:46Z</time>
      </trkpt>
      <trkpt lat="42.8421210" lon="-5.4383720">
        <ele>1158.0</ele>
        <time>2021-08-21T07:27:47Z</time>
      </trkpt>
      <trkpt lat="42.8421580" lon="-5.4383420">
        <ele>1158.0</ele>
        <time>2021-08-21T07:27:48Z</time>
      </trkpt>
      <trkpt lat="42.8421700" lon="-5.4383320">
        <ele>1157.0</ele>
        <time>2021-08-21T07:27:49Z</time>
      </trkpt>
      <trkpt lat="42.8421960" lon="-5.4383110">
        <ele>1156.0</ele>
        <time>2021-08-21T07:27:50Z</time>
      </trkpt>
      <trkpt lat="42.8422340" lon="-5.4382800">
        <ele>1156.0</ele>
        <time>2021-08-21T07:27:51Z</time>
      </trkpt>
      <trkpt lat="42.8422460" lon="-5.4382700">
        <ele>1156.0</ele>
        <time>2021-08-21T07:27:52Z</time>
      </trkpt>
      <trkpt lat="42.8422710" lon="-5.4382470">
        <ele>1155.0</ele>
        <time>2021-08-21T07:27:53Z</time>
      </trkpt>
      <trkpt lat="42.8422970" lon="-5.4382240">
        <ele>1155.0</ele>
        <time>2021-08-21T07:27:54Z</time>
      </trkpt>
      <trkpt lat="42.8423220" lon="-5.4381980">
        <ele>1155.0</ele>
        <time>2021-08-21T07:27:55Z</time>
      </trkpt>
      <trkpt lat="42.8423450" lon="-5.4381720">
        <ele>1155.0</ele>
        <time>2021-08-21T07:27:56Z</time>
      </trkpt>
      <trkpt lat="42.8423680" lon="-5.4381490">
        <ele>1155.0</ele>
        <time>2021-08-21T07:27:57Z</time>
      </trkpt>
      <trkpt lat="42.8423900" lon="-5.4381290">
        <ele>1154.0</ele>
        <time>2021-08-21T07:27:58Z</time>
      </trkpt>
      <trkpt lat="42.8424100" lon="-5.4381120">
        <ele>1154.0</ele>
        <time>2021-08-21T07:27:59Z</time>
      </trkpt>
      <trkpt lat="42.8424410" lon="-5.4380840">
        <ele>1154.0</ele>
        <time>2021-08-21T07:28:00Z</time>
      </trkpt>
      <trkpt lat="42.8424520" lon="-5.4380720">
        <ele>1153.0</ele>
        <time>2021-08-21T07:28:01Z</time>
      </trkpt>
      <trkpt lat="42.8424710" lon="-5.4380460">
        <ele>1153.0</ele>
        <time>2021-08-21T07:28:02Z</time>
      </trkpt>
      <trkpt lat="42.8424870" lon="-5.4380190">
        <ele>1153.0</ele>
        <time>2021-08-21T07:28:03Z</time>
      </trkpt>
      <trkpt lat="42.8425060" lon="-5.4379910">
        <ele>1153.0</ele>
        <time>2021-08-21T07:28:04Z</time>
      </trkpt>
      <trkpt lat="42.8425240" lon="-5.4379620">
        <ele>1153.0</ele>
        <time>2021-08-21T07:28:05Z</time>
      </trkpt>
      <trkpt lat="42.8425420" lon="-5.4379310">
        <ele>1153.0</ele>
        <time>2021-08-21T07:28:06Z</time>
      </trkpt>
      <trkpt lat="42.8425560" lon="-5.4378990">
        <ele>1152.0</ele>
        <time>2021-08-21T07:28:07Z</time>
      </trkpt>
      <trkpt lat="42.8425700" lon="-5.4378700">
        <ele>1152.0</ele>
        <time>2021-08-21T07:28:08Z</time>
      </trkpt>
      <trkpt lat="42.8425830" lon="-5.4378410">
        <ele>1152.0</ele>
        <time>2021-08-21T07:28:09Z</time>
      </trkpt>
      <trkpt lat="42.8426030" lon="-5.4377940">
        <ele>1152.0</ele>
        <time>2021-08-21T07:28:10Z</time>
      </trkpt>
      <trkpt lat="42.8426100" lon="-5.4377780">
        <ele>1152.0</ele>
        <time>2021-08-21T07:28:11Z</time>
      </trkpt>
      <trkpt lat="42.8426250" lon="-5.4377460">
        <ele>1151.0</ele>
        <time>2021-08-21T07:28:12Z</time>
      </trkpt>
      <trkpt lat="42.8426420" lon="-5.4377150">
        <ele>1151.0</ele>
        <time>2021-08-21T07:28:13Z</time>
      </trkpt>
      <trkpt lat="42.8426600" lon="-5.4376890">
        <ele>1151.0</ele>
        <time>2021-08-21T07:28:14Z</time>
      </trkpt>
      <trkpt lat="42.8426760" lon="-5.4376610">
        <ele>1151.0</ele>
        <time>2021-08-21T07:28:15Z</time>
      </trkpt>
      <trkpt lat="42.8426920" lon="-5.4376330">
        <ele>1150.0</ele>
        <time>2021-08-21T07:28:16Z</time>
      </trkpt>
      <trkpt lat="42.8427150" lon="-5.4375910">
        <ele>1150.0</ele>
        <time>2021-08-21T07:28:17Z</time>
      </trkpt>
      <trkpt lat="42.8427220" lon="-5.4375750">
        <ele>1150.0</ele>
        <time>2021-08-21T07:28:18Z</time>
      </trkpt>
      <trkpt lat="42.8427390" lon="-5.4375470">
        <ele>1150.0</ele>
        <time>2021-08-21T07:28:19Z</time>
      </trkpt>
      <trkpt lat="42.8427550" lon="-5.4375180">
        <ele>1150.0</ele>
        <time>2021-08-21T07:28:20Z</time>
      </trkpt>
      <trkpt lat="42.8427720" lon="-5.4374930">
        <ele>1149.0</ele>
        <time>2021-08-21T07:28:21Z</time>
      </trkpt>
      <trkpt lat="42.8427950" lon="-5.4374680">
        <ele>1149.0</ele>
        <time>2021-08-21T07:28:22Z</time>
      </trkpt>
      <trkpt lat="42.8428180" lon="-5.4374470">
        <ele>1149.0</ele>
        <time>2021-08-21T07:28:23Z</time>
      </trkpt>
      <trkpt lat="42.8428380" lon="-5.4374240">
        <ele>1149.0</ele>
        <time>2021-08-21T07:28:24Z</time>
      </trkpt>
      <trkpt lat="42.8428560" lon="-5.4374030">
        <ele>1149.0</ele>
        <time>2021-08-21T07:28:25Z</time>
      </trkpt>
      <trkpt lat="42.8428760" lon="-5.4373850">
        <ele>1148.0</ele>
        <time>2021-08-21T07:28:26Z</time>
      </trkpt>
      <trkpt lat="42.8428990" lon="-5.4373680">
        <ele>1148.0</ele>
        <time>2021-08-21T07:28:27Z</time>
      </trkpt>
      <trkpt lat="42.8429220" lon="-5.4373560">
        <ele>1148.0</ele>
        <time>2021-08-21T07:28:28Z</time>
      </trkpt>
      <trkpt lat="42.8429610" lon="-5.4373400">
        <ele>1148.0</ele>
        <time>2021-08-21T07:28:29Z</time>
      </trkpt>
      <trkpt lat="42.8429730" lon="-5.4373350">
        <ele>1148.0</ele>
        <time>2021-08-21T07:28:30Z</time>
      </trkpt>
      <trkpt lat="42.8430010" lon="-5.4373290">
        <ele>1147.0</ele>
        <time>2021-08-21T07:28:31Z</time>
      </trkpt>
      <trkpt lat="42.8430260" lon="-5.4373240">
        <ele>1147.0</ele>
        <time>2021-08-21T07:28:32Z</time>
      </trkpt>
      <trkpt lat="42.8430710" lon="-5.4373230">
        <ele>1147.0</ele>
        <time>2021-08-21T07:28:33Z</time>
      </trkpt>
      <trkpt lat="42.8430850" lon="-5.4373250">
        <ele>1147.0</ele>
        <time>2021-08-21T07:28:34Z</time>
      </trkpt>
      <trkpt lat="42.8431120" lon="-5.4373290">
        <ele>1147.0</ele>
        <time>2021-08-21T07:28:35Z</time>
      </trkpt>
      <trkpt lat="42.8431430" lon="-5.4373330">
        <ele>1147.0</ele>
        <time>2021-08-21T07:28:36Z</time>
      </trkpt>
      <trkpt lat="42.8431710" lon="-5.4373380">
        <ele>1147.0</ele>
        <time>2021-08-21T07:28:37Z</time>
      </trkpt>
      <trkpt lat="42.8431990" lon="-5.4373440">
        <ele>1146.0</ele>
        <time>2021-08-21T07:28:38Z</time>
      </trkpt>
      <trkpt lat="42.8432270" lon="-5.4373500">
        <ele>1146.0</ele>
        <time>2021-08-21T07:28:39Z</time>
      </trkpt>
      <trkpt lat="42.8432550" lon="-5.4373580">
        <ele>1146.0</ele>
        <time>2021-08-21T07:28:40Z</time>
      </trkpt>
      <trkpt lat="42.8432830" lon="-5.4373660">
        <ele>1146.0</ele>
        <time>2021-08-21T07:28:41Z</time>
      </trkpt>
      <trkpt lat="42.8433110" lon="-5.4373790">
        <ele>1145.0</ele>
        <time>2021-08-21T07:28:42Z</time>
      </trkpt>
      <trkpt lat="42.8433510" lon="-5.4374070">
        <ele>1145.0</ele>
        <time>2021-08-21T07:28:43Z</time>
      </trkpt>
      <trkpt lat="42.8433630" lon="-5.4374180">
        <ele>1145.0</ele>
        <time>2021-08-21T07:28:44Z</time>
      </trkpt>
      <trkpt lat="42.8433850" lon="-5.4374390">
        <ele>1145.0</ele>
        <time>2021-08-21T07:28:45Z</time>
      </trkpt>
      <trkpt lat="42.8434100" lon="-5.4374620">
        <ele>1144.0</ele>
        <time>2021-08-21T07:28:46Z</time>
      </trkpt>
      <trkpt lat="42.8434320" lon="-5.4374870">
        <ele>1144.0</ele>
        <time>2021-08-21T07:28:47Z</time>
      </trkpt>
      <trkpt lat="42.8434510" lon="-5.4375160">
        <ele>1144.0</ele>
        <time>2021-08-21T07:28:48Z</time>
      </trkpt>
      <trkpt lat="42.8434670" lon="-5.4375480">
        <ele>1144.0</ele>
        <time>2021-08-21T07:28:49Z</time>
      </trkpt>
      <trkpt lat="42.8435090" lon="-5.4376220">
        <ele>1144.0</ele>
        <time>2021-08-21T07:28:51Z</time>
      </trkpt>
      <trkpt lat="42.8435160" lon="-5.4376380">
        <ele>1144.0</ele>
        <time>2021-08-21T07:28:52Z</time>
      </trkpt>
      <trkpt lat="42.8435290" lon="-5.4376720">
        <ele>1144.0</ele>
        <time>2021-08-21T07:28:53Z</time>
      </trkpt>
      <trkpt lat="42.8435410" lon="-5.4377060">
        <ele>1144.0</ele>
        <time>2021-08-21T07:28:54Z</time>
      </trkpt>
      <trkpt lat="42.8435510" lon="-5.4377410">
        <ele>1143.0</ele>
        <time>2021-08-21T07:28:55Z</time>
      </trkpt>
      <trkpt lat="42.8435590" lon="-5.4377760">
        <ele>1143.0</ele>
        <time>2021-08-21T07:28:56Z</time>
      </trkpt>
      <trkpt lat="42.8435700" lon="-5.4378090">
        <ele>1143.0</ele>
        <time>2021-08-21T07:28:57Z</time>
      </trkpt>
      <trkpt lat="42.8435810" lon="-5.4378410">
        <ele>1143.0</ele>
        <time>2021-08-21T07:28:58Z</time>
      </trkpt>
      <trkpt lat="42.8435950" lon="-5.4378730">
        <ele>1143.0</ele>
        <time>2021-08-21T07:28:59Z</time>
      </trkpt>
      <trkpt lat="42.8436130" lon="-5.4379000">
        <ele>1143.0</ele>
        <time>2021-08-21T07:29:00Z</time>
      </trkpt>
      <trkpt lat="42.8436350" lon="-5.4379160">
        <ele>1143.0</ele>
        <time>2021-08-21T07:29:01Z</time>
      </trkpt>
      <trkpt lat="42.8436580" lon="-5.4379250">
        <ele>1143.0</ele>
        <time>2021-08-21T07:29:02Z</time>
      </trkpt>
      <trkpt lat="42.8436840" lon="-5.4379240">
        <ele>1143.0</ele>
        <time>2021-08-21T07:29:03Z</time>
      </trkpt>
      <trkpt lat="42.8437120" lon="-5.4379110">
        <ele>1142.0</ele>
        <time>2021-08-21T07:29:04Z</time>
      </trkpt>
      <trkpt lat="42.8437370" lon="-5.4378860">
        <ele>1142.0</ele>
        <time>2021-08-21T07:29:05Z</time>
      </trkpt>
      <trkpt lat="42.8437570" lon="-5.4378560">
        <ele>1142.0</ele>
        <time>2021-08-21T07:29:06Z</time>
      </trkpt>
      <trkpt lat="42.8437830" lon="-5.4378100">
        <ele>1142.0</ele>
        <time>2021-08-21T07:29:07Z</time>
      </trkpt>
      <trkpt lat="42.8437900" lon="-5.4377950">
        <ele>1142.0</ele>
        <time>2021-08-21T07:29:08Z</time>
      </trkpt>
      <trkpt lat="42.8438070" lon="-5.4377600">
        <ele>1142.0</ele>
        <time>2021-08-21T07:29:09Z</time>
      </trkpt>
      <trkpt lat="42.8438210" lon="-5.4377260">
        <ele>1142.0</ele>
        <time>2021-08-21T07:29:10Z</time>
      </trkpt>
      <trkpt lat="42.8438350" lon="-5.4376900">
        <ele>1142.0</ele>
        <time>2021-08-21T07:29:11Z</time>
      </trkpt>
      <trkpt lat="42.8438450" lon="-5.4376540">
        <ele>1142.0</ele>
        <time>2021-08-21T07:29:12Z</time>
      </trkpt>
      <trkpt lat="42.8438530" lon="-5.4376180">
        <ele>1142.0</ele>
        <time>2021-08-21T07:29:13Z</time>
      </trkpt>
      <trkpt lat="42.8438620" lon="-5.4375820">
        <ele>1142.0</ele>
        <time>2021-08-21T07:29:14Z</time>
      </trkpt>
      <trkpt lat="42.8438720" lon="-5.4375460">
        <ele>1141.0</ele>
        <time>2021-08-21T07:29:15Z</time>
      </trkpt>
      <trkpt lat="42.8438820" lon="-5.4375090">
        <ele>1141.0</ele>
        <time>2021-08-21T07:29:16Z</time>
      </trkpt>
      <trkpt lat="42.8438950" lon="-5.4374740">
        <ele>1141.0</ele>
        <time>2021-08-21T07:29:17Z</time>
      </trkpt>
      <trkpt lat="42.8439090" lon="-5.4374200">
        <ele>1141.0</ele>
        <time>2021-08-21T07:29:18Z</time>
      </trkpt>
      <trkpt lat="42.8439140" lon="-5.4374020">
        <ele>1141.0</ele>
        <time>2021-08-21T07:29:19Z</time>
      </trkpt>
      <trkpt lat="42.8439280" lon="-5.4373470">
        <ele>1141.0</ele>
        <time>2021-08-21T07:29:20Z</time>
      </trkpt>
      <trkpt lat="42.8439330" lon="-5.4373270">
        <ele>1141.0</ele>
        <time>2021-08-21T07:29:21Z</time>
      </trkpt>
      <trkpt lat="42.8439420" lon="-5.4372890">
        <ele>1141.0</ele>
        <time>2021-08-21T07:29:22Z</time>
      </trkpt>
      <trkpt lat="42.8439560" lon="-5.4372500">
        <ele>1141.0</ele>
        <time>2021-08-21T07:29:23Z</time>
      </trkpt>
      <trkpt lat="42.8439680" lon="-5.4372150">
        <ele>1141.0</ele>
        <time>2021-08-21T07:29:24Z</time>
      </trkpt>
      <trkpt lat="42.8439780" lon="-5.4371800">
        <ele>1141.0</ele>
        <time>2021-08-21T07:29:25Z</time>
      </trkpt>
      <trkpt lat="42.8439990" lon="-5.4371280">
        <ele>1141.0</ele>
        <time>2021-08-21T07:29:26Z</time>
      </trkpt>
      <trkpt lat="42.8440060" lon="-5.4371100">
        <ele>1141.0</ele>
        <time>2021-08-21T07:29:27Z</time>
      </trkpt>
      <trkpt lat="42.8440260" lon="-5.4370620">
        <ele>1141.0</ele>
        <time>2021-08-21T07:29:28Z</time>
      </trkpt>
      <trkpt lat="42.8440320" lon="-5.4370450">
        <ele>1140.0</ele>
        <time>2021-08-21T07:29:29Z</time>
      </trkpt>
      <trkpt lat="42.8440490" lon="-5.4369900">
        <ele>1140.0</ele>
        <time>2021-08-21T07:29:30Z</time>
      </trkpt>
      <trkpt lat="42.8440570" lon="-5.4369720">
        <ele>1140.0</ele>
        <time>2021-08-21T07:29:31Z</time>
      </trkpt>
      <trkpt lat="42.8440730" lon="-5.4369400">
        <ele>1140.0</ele>
        <time>2021-08-21T07:29:32Z</time>
      </trkpt>
      <trkpt lat="42.8440890" lon="-5.4369070">
        <ele>1140.0</ele>
        <time>2021-08-21T07:29:33Z</time>
      </trkpt>
      <trkpt lat="42.8441020" lon="-5.4368730">
        <ele>1140.0</ele>
        <time>2021-08-21T07:29:34Z</time>
      </trkpt>
      <trkpt lat="42.8441180" lon="-5.4368240">
        <ele>1140.0</ele>
        <time>2021-08-21T07:29:35Z</time>
      </trkpt>
      <trkpt lat="42.8441220" lon="-5.4368080">
        <ele>1139.0</ele>
        <time>2021-08-21T07:29:36Z</time>
      </trkpt>
      <trkpt lat="42.8441300" lon="-5.4367740">
        <ele>1139.0</ele>
        <time>2021-08-21T07:29:37Z</time>
      </trkpt>
      <trkpt lat="42.8441360" lon="-5.4367390">
        <ele>1139.0</ele>
        <time>2021-08-21T07:29:38Z</time>
      </trkpt>
      <trkpt lat="42.8441410" lon="-5.4367010">
        <ele>1138.0</ele>
        <time>2021-08-21T07:29:39Z</time>
      </trkpt>
      <trkpt lat="42.8441450" lon="-5.4366620">
        <ele>1138.0</ele>
        <time>2021-08-21T07:29:40Z</time>
      </trkpt>
      <trkpt lat="42.8441510" lon="-5.4366230">
        <ele>1138.0</ele>
        <time>2021-08-21T07:29:41Z</time>
      </trkpt>
      <trkpt lat="42.8441570" lon="-5.4365850">
        <ele>1138.0</ele>
        <time>2021-08-21T07:29:42Z</time>
      </trkpt>
      <trkpt lat="42.8441630" lon="-5.4365450">
        <ele>1138.0</ele>
        <time>2021-08-21T07:29:43Z</time>
      </trkpt>
      <trkpt lat="42.8441700" lon="-5.4365080">
        <ele>1138.0</ele>
        <time>2021-08-21T07:29:44Z</time>
      </trkpt>
      <trkpt lat="42.8441820" lon="-5.4364580">
        <ele>1138.0</ele>
        <time>2021-08-21T07:29:45Z</time>
      </trkpt>
      <trkpt lat="42.8441860" lon="-5.4364410">
        <ele>1137.0</ele>
        <time>2021-08-21T07:29:46Z</time>
      </trkpt>
      <trkpt lat="42.8441970" lon="-5.4364090">
        <ele>1137.0</ele>
        <time>2021-08-21T07:29:47Z</time>
      </trkpt>
      <trkpt lat="42.8442090" lon="-5.4363740">
        <ele>1137.0</ele>
        <time>2021-08-21T07:29:48Z</time>
      </trkpt>
      <trkpt lat="42.8442220" lon="-5.4363440">
        <ele>1137.0</ele>
        <time>2021-08-21T07:29:49Z</time>
      </trkpt>
      <trkpt lat="42.8442350" lon="-5.4363130">
        <ele>1137.0</ele>
        <time>2021-08-21T07:29:50Z</time>
      </trkpt>
      <trkpt lat="42.8442470" lon="-5.4362790">
        <ele>1136.0</ele>
        <time>2021-08-21T07:29:51Z</time>
      </trkpt>
      <trkpt lat="42.8442610" lon="-5.4362500">
        <ele>1136.0</ele>
        <time>2021-08-21T07:29:52Z</time>
      </trkpt>
      <trkpt lat="42.8442730" lon="-5.4362190">
        <ele>1136.0</ele>
        <time>2021-08-21T07:29:53Z</time>
      </trkpt>
      <trkpt lat="42.8442890" lon="-5.4361900">
        <ele>1136.0</ele>
        <time>2021-08-21T07:29:54Z</time>
      </trkpt>
      <trkpt lat="42.8443040" lon="-5.4361590">
        <ele>1136.0</ele>
        <time>2021-08-21T07:29:55Z</time>
      </trkpt>
      <trkpt lat="42.8443160" lon="-5.4361230">
        <ele>1136.0</ele>
        <time>2021-08-21T07:29:56Z</time>
      </trkpt>
      <trkpt lat="42.8443290" lon="-5.4360870">
        <ele>1136.0</ele>
        <time>2021-08-21T07:29:57Z</time>
      </trkpt>
      <trkpt lat="42.8443440" lon="-5.4360530">
        <ele>1135.0</ele>
        <time>2021-08-21T07:29:58Z</time>
      </trkpt>
      <trkpt lat="42.8443600" lon="-5.4360200">
        <ele>1135.0</ele>
        <time>2021-08-21T07:29:59Z</time>
      </trkpt>
      <trkpt lat="42.8443740" lon="-5.4359860">
        <ele>1134.0</ele>
        <time>2021-08-21T07:30:00Z</time>
      </trkpt>
      <trkpt lat="42.8443850" lon="-5.4359540">
        <ele>1134.0</ele>
        <time>2021-08-21T07:30:01Z</time>
      </trkpt>
      <trkpt lat="42.8443970" lon="-5.4359180">
        <ele>1134.0</ele>
        <time>2021-08-21T07:30:02Z</time>
      </trkpt>
      <trkpt lat="42.8444080" lon="-5.4358840">
        <ele>1134.0</ele>
        <time>2021-08-21T07:30:03Z</time>
      </trkpt>
      <trkpt lat="42.8444220" lon="-5.4358510">
        <ele>1134.0</ele>
        <time>2021-08-21T07:30:04Z</time>
      </trkpt>
      <trkpt lat="42.8444360" lon="-5.4358200">
        <ele>1134.0</ele>
        <time>2021-08-21T07:30:05Z</time>
      </trkpt>
      <trkpt lat="42.8444510" lon="-5.4357890">
        <ele>1133.0</ele>
        <time>2021-08-21T07:30:06Z</time>
      </trkpt>
      <trkpt lat="42.8444690" lon="-5.4357600">
        <ele>1133.0</ele>
        <time>2021-08-21T07:30:07Z</time>
      </trkpt>
      <trkpt lat="42.8444880" lon="-5.4357330">
        <ele>1133.0</ele>
        <time>2021-08-21T07:30:08Z</time>
      </trkpt>
      <trkpt lat="42.8445060" lon="-5.4357070">
        <ele>1132.0</ele>
        <time>2021-08-21T07:30:09Z</time>
      </trkpt>
      <trkpt lat="42.8445270" lon="-5.4356830">
        <ele>1132.0</ele>
        <time>2021-08-21T07:30:10Z</time>
      </trkpt>
      <trkpt lat="42.8445470" lon="-5.4356560">
        <ele>1132.0</ele>
        <time>2021-08-21T07:30:11Z</time>
      </trkpt>
      <trkpt lat="42.8445800" lon="-5.4356230">
        <ele>1132.0</ele>
        <time>2021-08-21T07:30:12Z</time>
      </trkpt>
      <trkpt lat="42.8445910" lon="-5.4356130">
        <ele>1132.0</ele>
        <time>2021-08-21T07:30:13Z</time>
      </trkpt>
      <trkpt lat="42.8446270" lon="-5.4355860">
        <ele>1132.0</ele>
        <time>2021-08-21T07:30:14Z</time>
      </trkpt>
      <trkpt lat="42.8446380" lon="-5.4355770">
        <ele>1131.0</ele>
        <time>2021-08-21T07:30:15Z</time>
      </trkpt>
      <trkpt lat="42.8446610" lon="-5.4355620">
        <ele>1131.0</ele>
        <time>2021-08-21T07:30:16Z</time>
      </trkpt>
      <trkpt lat="42.8446840" lon="-5.4355490">
        <ele>1131.0</ele>
        <time>2021-08-21T07:30:17Z</time>
      </trkpt>
      <trkpt lat="42.8447100" lon="-5.4355360">
        <ele>1131.0</ele>
        <time>2021-08-21T07:30:18Z</time>
      </trkpt>
      <trkpt lat="42.8447340" lon="-5.4355220">
        <ele>1131.0</ele>
        <time>2021-08-21T07:30:19Z</time>
      </trkpt>
      <trkpt lat="42.8447610" lon="-5.4355090">
        <ele>1131.0</ele>
        <time>2021-08-21T07:30:20Z</time>
      </trkpt>
      <trkpt lat="42.8447860" lon="-5.4354950">
        <ele>1131.0</ele>
        <time>2021-08-21T07:30:21Z</time>
      </trkpt>
      <trkpt lat="42.8448130" lon="-5.4354780">
        <ele>1130.0</ele>
        <time>2021-08-21T07:30:22Z</time>
      </trkpt>
      <trkpt lat="42.8448470" lon="-5.4354510">
        <ele>1130.0</ele>
        <time>2021-08-21T07:30:23Z</time>
      </trkpt>
      <trkpt lat="42.8448590" lon="-5.4354410">
        <ele>1130.0</ele>
        <time>2021-08-21T07:30:24Z</time>
      </trkpt>
      <trkpt lat="42.8448830" lon="-5.4354170">
        <ele>1130.0</ele>
        <time>2021-08-21T07:30:25Z</time>
      </trkpt>
      <trkpt lat="42.8449060" lon="-5.4353940">
        <ele>1130.0</ele>
        <time>2021-08-21T07:30:26Z</time>
      </trkpt>
      <trkpt lat="42.8449290" lon="-5.4353680">
        <ele>1130.0</ele>
        <time>2021-08-21T07:30:27Z</time>
      </trkpt>
      <trkpt lat="42.8449520" lon="-5.4353370">
        <ele>1130.0</ele>
        <time>2021-08-21T07:30:28Z</time>
      </trkpt>
      <trkpt lat="42.8449730" lon="-5.4353070">
        <ele>1130.0</ele>
        <time>2021-08-21T07:30:29Z</time>
      </trkpt>
      <trkpt lat="42.8449940" lon="-5.4352820">
        <ele>1130.0</ele>
        <time>2021-08-21T07:30:30Z</time>
      </trkpt>
      <trkpt lat="42.8449940" lon="-5.4352820">
        <ele>1130.0</ele>
        <time>2021-08-21T07:30:31Z</time>
      </trkpt>
      <trkpt lat="42.8450290" lon="-5.4352180">
        <ele>1129.0</ele>
        <time>2021-08-21T07:30:32Z</time>
      </trkpt>
      <trkpt lat="42.8450450" lon="-5.4351840">
        <ele>1129.0</ele>
        <time>2021-08-21T07:30:33Z</time>
      </trkpt>
      <trkpt lat="42.8450640" lon="-5.4351510">
        <ele>1129.0</ele>
        <time>2021-08-21T07:30:34Z</time>
      </trkpt>
      <trkpt lat="42.8450830" lon="-5.4351200">
        <ele>1129.0</ele>
        <time>2021-08-21T07:30:35Z</time>
      </trkpt>
      <trkpt lat="42.8450990" lon="-5.4350900">
        <ele>1129.0</ele>
        <time>2021-08-21T07:30:36Z</time>
      </trkpt>
      <trkpt lat="42.8451170" lon="-5.4350590">
        <ele>1129.0</ele>
        <time>2021-08-21T07:30:37Z</time>
      </trkpt>
      <trkpt lat="42.8451330" lon="-5.4350320">
        <ele>1128.0</ele>
        <time>2021-08-21T07:30:38Z</time>
      </trkpt>
      <trkpt lat="42.8451530" lon="-5.4350060">
        <ele>1128.0</ele>
        <time>2021-08-21T07:30:39Z</time>
      </trkpt>
      <trkpt lat="42.8451750" lon="-5.4349800">
        <ele>1128.0</ele>
        <time>2021-08-21T07:30:40Z</time>
      </trkpt>
      <trkpt lat="42.8451940" lon="-5.4349560">
        <ele>1128.0</ele>
        <time>2021-08-21T07:30:41Z</time>
      </trkpt>
      <trkpt lat="42.8452150" lon="-5.4349310">
        <ele>1128.0</ele>
        <time>2021-08-21T07:30:42Z</time>
      </trkpt>
      <trkpt lat="42.8452390" lon="-5.4349090">
        <ele>1128.0</ele>
        <time>2021-08-21T07:30:43Z</time>
      </trkpt>
      <trkpt lat="42.8452730" lon="-5.4348800">
        <ele>1128.0</ele>
        <time>2021-08-21T07:30:44Z</time>
      </trkpt>
      <trkpt lat="42.8452830" lon="-5.4348700">
        <ele>1127.0</ele>
        <time>2021-08-21T07:30:45Z</time>
      </trkpt>
      <trkpt lat="42.8453060" lon="-5.4348510">
        <ele>1127.0</ele>
        <time>2021-08-21T07:30:46Z</time>
      </trkpt>
      <trkpt lat="42.8453300" lon="-5.4348290">
        <ele>1127.0</ele>
        <time>2021-08-21T07:30:47Z</time>
      </trkpt>
      <trkpt lat="42.8453540" lon="-5.4348090">
        <ele>1126.0</ele>
        <time>2021-08-21T07:30:48Z</time>
      </trkpt>
      <trkpt lat="42.8453780" lon="-5.4347890">
        <ele>1126.0</ele>
        <time>2021-08-21T07:30:49Z</time>
      </trkpt>
      <trkpt lat="42.8454020" lon="-5.4347720">
        <ele>1126.0</ele>
        <time>2021-08-21T07:30:50Z</time>
      </trkpt>
      <trkpt lat="42.8454260" lon="-5.4347560">
        <ele>1125.0</ele>
        <time>2021-08-21T07:30:51Z</time>
      </trkpt>
      <trkpt lat="42.8454480" lon="-5.4347430">
        <ele>1125.0</ele>
        <time>2021-08-21T07:30:52Z</time>
      </trkpt>
      <trkpt lat="42.8454750" lon="-5.4347310">
        <ele>1124.0</ele>
        <time>2021-08-21T07:30:53Z</time>
      </trkpt>
      <trkpt lat="42.8455000" lon="-5.4347150">
        <ele>1124.0</ele>
        <time>2021-08-21T07:30:54Z</time>
      </trkpt>
      <trkpt lat="42.8455250" lon="-5.4347010">
        <ele>1124.0</ele>
        <time>2021-08-21T07:30:55Z</time>
      </trkpt>
      <trkpt lat="42.8593650" lon="-5.4438330">
        <ele>1128.6</ele>
        <time>2022-06-11T06:32:39Z</time>
      </trkpt>
      <trkpt lat="42.8594370" lon="-5.4439080">
        <ele>1129.6</ele>
        <time>2022-06-11T06:32:44Z</time>
      </trkpt>
      <trkpt lat="42.8595090" lon="-5.4439840">
        <ele>1129.6</ele>
        <time>2022-06-11T06:32:46Z</time>
      </trkpt>
      <trkpt lat="42.8595960" lon="-5.4440300">
        <ele>1129.6</ele>
        <time>2022-06-11T06:32:47Z</time>
      </trkpt>
      <trkpt lat="42.8596060" lon="-5.4440480">
        <ele>1129.6</ele>
        <time>2022-06-11T06:32:48Z</time>
      </trkpt>
      <trkpt lat="42.8596150" lon="-5.4440840">
        <ele>1129.8</ele>
        <time>2022-06-11T06:32:50Z</time>
      </trkpt>
      <trkpt lat="42.8596350" lon="-5.4441280">
        <ele>1130.0</ele>
        <time>2022-06-11T06:32:52Z</time>
      </trkpt>
      <trkpt lat="42.8596520" lon="-5.4441760">
        <ele>1130.6</ele>
        <time>2022-06-11T06:32:54Z</time>
      </trkpt>
      <trkpt lat="42.8596640" lon="-5.4443080">
        <ele>1131.2</ele>
        <time>2022-06-11T06:32:59Z</time>
      </trkpt>
      <trkpt lat="42.8596610" lon="-5.4443890">
        <ele>1131.6</ele>
        <time>2022-06-11T06:33:02Z</time>
      </trkpt>
      <trkpt lat="42.8597070" lon="-5.4445830">
        <ele>1132.8</ele>
        <time>2022-06-11T06:33:09Z</time>
      </trkpt>
      <trkpt lat="42.8597340" lon="-5.4446330">
        <ele>1133.0</ele>
        <time>2022-06-11T06:33:11Z</time>
      </trkpt>
      <trkpt lat="42.8598030" lon="-5.4447450">
        <ele>1133.6</ele>
        <time>2022-06-11T06:33:16Z</time>
      </trkpt>
      <trkpt lat="42.8598200" lon="-5.4447560">
        <ele>1133.8</ele>
        <time>2022-06-11T06:33:17Z</time>
      </trkpt>
      <trkpt lat="42.8598400" lon="-5.4447700">
        <ele>1134.2</ele>
        <time>2022-06-11T06:33:18Z</time>
      </trkpt>
      <trkpt lat="42.8598670" lon="-5.4448010">
        <ele>1134.4</ele>
        <time>2022-06-11T06:33:20Z</time>
      </trkpt>
      <trkpt lat="42.8598790" lon="-5.4448180">
        <ele>1134.6</ele>
        <time>2022-06-11T06:33:21Z</time>
      </trkpt>
      <trkpt lat="42.8599080" lon="-5.4448490">
        <ele>1135.2</ele>
        <time>2022-06-11T06:33:23Z</time>
      </trkpt>
      <trkpt lat="42.8599210" lon="-5.4448670">
        <ele>1135.4</ele>
        <time>2022-06-11T06:33:24Z</time>
      </trkpt>
      <trkpt lat="42.8599560" lon="-5.4449190">
        <ele>1135.8</ele>
        <time>2022-06-11T06:33:26Z</time>
      </trkpt>
      <trkpt lat="42.8599700" lon="-5.4449320">
        <ele>1135.8</ele>
        <time>2022-06-11T06:33:27Z</time>
      </trkpt>
      <trkpt lat="42.8600250" lon="-5.4449360">
        <ele>1136.2</ele>
        <time>2022-06-11T06:33:30Z</time>
      </trkpt>
      <trkpt lat="42.8600430" lon="-5.4449380">
        <ele>1136.6</ele>
        <time>2022-06-11T06:33:31Z</time>
      </trkpt>
      <trkpt lat="42.8600900" lon="-5.4449450">
        <ele>1137.2</ele>
        <time>2022-06-11T06:33:34Z</time>
      </trkpt>
      <trkpt lat="42.8601050" lon="-5.4449470">
        <ele>1137.4</ele>
        <time>2022-06-11T06:33:35Z</time>
      </trkpt>
      <trkpt lat="42.8601960" lon="-5.4449880">
        <ele>1138.2</ele>
        <time>2022-06-11T06:33:41Z</time>
      </trkpt>
      <trkpt lat="42.8602100" lon="-5.4450000">
        <ele>1138.4</ele>
        <time>2022-06-11T06:33:42Z</time>
      </trkpt>
      <trkpt lat="42.8602240" lon="-5.4450110">
        <ele>1139.0</ele>
        <time>2022-06-11T06:33:43Z</time>
      </trkpt>
      <trkpt lat="42.8602560" lon="-5.4450360">
        <ele>1139.8</ele>
        <time>2022-06-11T06:33:45Z</time>
      </trkpt>
      <trkpt lat="42.8603100" lon="-5.4450890">
        <ele>1140.8</ele>
        <time>2022-06-11T06:33:49Z</time>
      </trkpt>
      <trkpt lat="42.8603250" lon="-5.4451030">
        <ele>1141.0</ele>
        <time>2022-06-11T06:33:50Z</time>
      </trkpt>
      <trkpt lat="42.8603660" lon="-5.4451640">
        <ele>1141.4</ele>
        <time>2022-06-11T06:33:55Z</time>
      </trkpt>
      <trkpt lat="42.8607600" lon="-5.4455190">
        <ele>1143.4</ele>
        <time>2022-06-11T06:34:32Z</time>
      </trkpt>
      <trkpt lat="42.8607720" lon="-5.4455270">
        <ele>1143.4</ele>
        <time>2022-06-11T06:34:33Z</time>
      </trkpt>
      <trkpt lat="42.8608540" lon="-5.4455210">
        <ele>1143.6</ele>
        <time>2022-06-11T06:34:39Z</time>
      </trkpt>
      <trkpt lat="42.8609070" lon="-5.4455390">
        <ele>1144.0</ele>
        <time>2022-06-11T06:34:43Z</time>
      </trkpt>
      <trkpt lat="42.8609250" lon="-5.4455470">
        <ele>1144.4</ele>
        <time>2022-06-11T06:34:44Z</time>
      </trkpt>
      <trkpt lat="42.8609450" lon="-5.4455540">
        <ele>1144.6</ele>
        <time>2022-06-11T06:34:45Z</time>
      </trkpt>
      <trkpt lat="42.8610190" lon="-5.4455960">
        <ele>1145.8</ele>
        <time>2022-06-11T06:34:49Z</time>
      </trkpt>
      <trkpt lat="42.8610750" lon="-5.4456190">
        <ele>1146.2</ele>
        <time>2022-06-11T06:34:52Z</time>
      </trkpt>
      <trkpt lat="42.8611330" lon="-5.4456450">
        <ele>1147.0</ele>
        <time>2022-06-11T06:34:55Z</time>
      </trkpt>
      <trkpt lat="42.8611620" lon="-5.4456520">
        <ele>1147.8</ele>
        <time>2022-06-11T06:34:57Z</time>
      </trkpt>
      <trkpt lat="42.8611690" lon="-5.4456560">
        <ele>1148.2</ele>
        <time>2022-06-11T06:34:58Z</time>
      </trkpt>
      <trkpt lat="42.8611800" lon="-5.4456620">
        <ele>1148.4</ele>
        <time>2022-06-11T06:34:59Z</time>
      </trkpt>
      <trkpt lat="42.8612010" lon="-5.4456770">
        <ele>1149.6</ele>
        <time>2022-06-11T06:35:01Z</time>
      </trkpt>
      <trkpt lat="42.8612320" lon="-5.4456600">
        <ele>1150.4</ele>
        <time>2022-06-11T06:35:04Z</time>
      </trkpt>
      <trkpt lat="42.8612550" lon="-5.4456450">
        <ele>1150.8</ele>
        <time>2022-06-11T06:35:06Z</time>
      </trkpt>
      <trkpt lat="42.8613550" lon="-5.4455680">
        <ele>1151.6</ele>
        <time>2022-06-11T06:35:13Z</time>
      </trkpt>
      <trkpt lat="42.8613860" lon="-5.4455110">
        <ele>1152.0</ele>
        <time>2022-06-11T06:35:16Z</time>
      </trkpt>
      <trkpt lat="42.8614180" lon="-5.4454720">
        <ele>1152.4</ele>
        <time>2022-06-11T06:35:19Z</time>
      </trkpt>
      <trkpt lat="42.8614360" lon="-5.4454450">
        <ele>1153.0</ele>
        <time>2022-06-11T06:35:21Z</time>
      </trkpt>
      <trkpt lat="42.8614460" lon="-5.4454320">
        <ele>1153.2</ele>
        <time>2022-06-11T06:35:22Z</time>
      </trkpt>
      <trkpt lat="42.8614660" lon="-5.4453990">
        <ele>1154.0</ele>
        <time>2022-06-11T06:35:26Z</time>
      </trkpt>
      <trkpt lat="42.8614770" lon="-5.4454010">
        <ele>1154.2</ele>
        <time>2022-06-11T06:35:27Z</time>
      </trkpt>
      <trkpt lat="42.8615140" lon="-5.4453850">
        <ele>1154.4</ele>
        <time>2022-06-11T06:35:29Z</time>
      </trkpt>
      <trkpt lat="42.8615650" lon="-5.4453190">
        <ele>1154.6</ele>
        <time>2022-06-11T06:35:32Z</time>
      </trkpt>
      <trkpt lat="42.8616690" lon="-5.4452250">
        <ele>1155.2</ele>
        <time>2022-06-11T06:35:37Z</time>
      </trkpt>
      <trkpt lat="42.8617130" lon="-5.4451980">
        <ele>1155.4</ele>
        <time>2022-06-11T06:35:39Z</time>
      </trkpt>
      <trkpt lat="42.8618020" lon="-5.4451470">
        <ele>1156.4</ele>
        <time>2022-06-11T06:35:45Z</time>
      </trkpt>
      <trkpt lat="42.8618990" lon="-5.4450710">
        <ele>1157.2</ele>
        <time>2022-06-11T06:35:52Z</time>
      </trkpt>
      <trkpt lat="42.8619220" lon="-5.4450630">
        <ele>1157.4</ele>
        <time>2022-06-11T06:35:53Z</time>
      </trkpt>
      <trkpt lat="42.8619990" lon="-5.4450370">
        <ele>1158.0</ele>
        <time>2022-06-11T06:35:59Z</time>
      </trkpt>
      <trkpt lat="42.8620240" lon="-5.4450280">
        <ele>1158.4</ele>
        <time>2022-06-11T06:36:01Z</time>
      </trkpt>
      <trkpt lat="42.8620390" lon="-5.4450220">
        <ele>1158.8</ele>
        <time>2022-06-11T06:36:02Z</time>
      </trkpt>
      <trkpt lat="42.8621170" lon="-5.4449970">
        <ele>1159.6</ele>
        <time>2022-06-11T06:36:07Z</time>
      </trkpt>
      <trkpt lat="42.8621840" lon="-5.4449650">
        <ele>1160.2</ele>
        <time>2022-06-11T06:36:11Z</time>
      </trkpt>
      <trkpt lat="42.8622500" lon="-5.4449360">
        <ele>1160.6</ele>
        <time>2022-06-11T06:36:14Z</time>
      </trkpt>
      <trkpt lat="42.8623640" lon="-5.4449410">
        <ele>1161.6</ele>
        <time>2022-06-11T06:36:20Z</time>
      </trkpt>
      <trkpt lat="42.8623790" lon="-5.4449430">
        <ele>1162.0</ele>
        <time>2022-06-11T06:36:21Z</time>
      </trkpt>
      <trkpt lat="42.8624290" lon="-5.4449410">
        <ele>1162.6</ele>
        <time>2022-06-11T06:36:25Z</time>
      </trkpt>
      <trkpt lat="42.8624400" lon="-5.4449370">
        <ele>1162.8</ele>
        <time>2022-06-11T06:36:26Z</time>
      </trkpt>
      <trkpt lat="42.8624670" lon="-5.4449320">
        <ele>1163.2</ele>
        <time>2022-06-11T06:36:28Z</time>
      </trkpt>
      <trkpt lat="42.8625090" lon="-5.4449530">
        <ele>1164.0</ele>
        <time>2022-06-11T06:36:32Z</time>
      </trkpt>
      <trkpt lat="42.8625340" lon="-5.4449630">
        <ele>1164.6</ele>
        <time>2022-06-11T06:36:34Z</time>
      </trkpt>
      <trkpt lat="42.8626060" lon="-5.4449900">
        <ele>1165.6</ele>
        <time>2022-06-11T06:36:40Z</time>
      </trkpt>
      <trkpt lat="42.8626330" lon="-5.4449950">
        <ele>1165.6</ele>
        <time>2022-06-11T06:36:42Z</time>
      </trkpt>
      <trkpt lat="42.8626720" lon="-5.4450040">
        <ele>1166.4</ele>
        <time>2022-06-11T06:36:45Z</time>
      </trkpt>
      <trkpt lat="42.8626960" lon="-5.4450030">
        <ele>1166.6</ele>
        <time>2022-06-11T06:36:47Z</time>
      </trkpt>
      <trkpt lat="42.8627090" lon="-5.4450030">
        <ele>1166.8</ele>
        <time>2022-06-11T06:36:48Z</time>
      </trkpt>
      <trkpt lat="42.8628060" lon="-5.4450180">
        <ele>1167.8</ele>
        <time>2022-06-11T06:36:55Z</time>
      </trkpt>
      <trkpt lat="42.8628640" lon="-5.4450330">
        <ele>1168.2</ele>
        <time>2022-06-11T06:36:59Z</time>
      </trkpt>
      <trkpt lat="42.8628870" lon="-5.4450370">
        <ele>1168.6</ele>
        <time>2022-06-11T06:37:01Z</time>
      </trkpt>
      <trkpt lat="42.8629260" lon="-5.4450590">
        <ele>1169.0</ele>
        <time>2022-06-11T06:37:05Z</time>
      </trkpt>
      <trkpt lat="42.8629380" lon="-5.4450720">
        <ele>1169.2</ele>
        <time>2022-06-11T06:37:06Z</time>
      </trkpt>
      <trkpt lat="42.8629510" lon="-5.4450850">
        <ele>1169.4</ele>
        <time>2022-06-11T06:37:07Z</time>
      </trkpt>
      <trkpt lat="42.8629620" lon="-5.4450960">
        <ele>1169.4</ele>
        <time>2022-06-11T06:37:08Z</time>
      </trkpt>
      <trkpt lat="42.8630310" lon="-5.4451420">
        <ele>1170.0</ele>
        <time>2022-06-11T06:37:12Z</time>
      </trkpt>
      <trkpt lat="42.8630700" lon="-5.4451830">
        <ele>1170.8</ele>
        <time>2022-06-11T06:37:15Z</time>
      </trkpt>
      <trkpt lat="42.8630910" lon="-5.4451990">
        <ele>1171.2</ele>
        <time>2022-06-11T06:37:17Z</time>
      </trkpt>
      <trkpt lat="42.8631260" lon="-5.4452260">
        <ele>1172.0</ele>
        <time>2022-06-11T06:37:20Z</time>
      </trkpt>
      <trkpt lat="42.8631380" lon="-5.4452310">
        <ele>1172.2</ele>
        <time>2022-06-11T06:37:21Z</time>
      </trkpt>
      <trkpt lat="42.8631500" lon="-5.4452390">
        <ele>1172.4</ele>
        <time>2022-06-11T06:37:22Z</time>
      </trkpt>
      <trkpt lat="42.8631850" lon="-5.4452630">
        <ele>1173.2</ele>
        <time>2022-06-11T06:37:25Z</time>
      </trkpt>
      <trkpt lat="42.8632020" lon="-5.4452720">
        <ele>1173.4</ele>
        <time>2022-06-11T06:37:26Z</time>
      </trkpt>
      <trkpt lat="42.8632130" lon="-5.4452750">
        <ele>1173.8</ele>
        <time>2022-06-11T06:37:27Z</time>
      </trkpt>
      <trkpt lat="42.8632520" lon="-5.4452840">
        <ele>1174.2</ele>
        <time>2022-06-11T06:37:31Z</time>
      </trkpt>
      <trkpt lat="42.8632710" lon="-5.4452920">
        <ele>1174.4</ele>
        <time>2022-06-11T06:37:33Z</time>
      </trkpt>
      <trkpt lat="42.8633080" lon="-5.4453320">
        <ele>1175.2</ele>
        <time>2022-06-11T06:37:38Z</time>
      </trkpt>
      <trkpt lat="42.8633220" lon="-5.4453560">
        <ele>1175.6</ele>
        <time>2022-06-11T06:37:40Z</time>
      </trkpt>
      <trkpt lat="42.8633550" lon="-5.4453810">
        <ele>1176.0</ele>
        <time>2022-06-11T06:37:43Z</time>
      </trkpt>
      <trkpt lat="42.8633620" lon="-5.4453840">
        <ele>1176.0</ele>
        <time>2022-06-11T06:37:44Z</time>
      </trkpt>
      <trkpt lat="42.8634080" lon="-5.4454090">
        <ele>1176.4</ele>
        <time>2022-06-11T06:37:48Z</time>
      </trkpt>
      <trkpt lat="42.8634180" lon="-5.4454120">
        <ele>1176.6</ele>
        <time>2022-06-11T06:37:49Z</time>
      </trkpt>
      <trkpt lat="42.8634530" lon="-5.4454250">
        <ele>1177.2</ele>
        <time>2022-06-11T06:37:53Z</time>
      </trkpt>
      <trkpt lat="42.8634770" lon="-5.4454440">
        <ele>1177.8</ele>
        <time>2022-06-11T06:37:56Z</time>
      </trkpt>
      <trkpt lat="42.8635120" lon="-5.4454650">
        <ele>1178.4</ele>
        <time>2022-06-11T06:38:00Z</time>
      </trkpt>
      <trkpt lat="42.8635280" lon="-5.4454810">
        <ele>1179.0</ele>
        <time>2022-06-11T06:38:02Z</time>
      </trkpt>
      <trkpt lat="42.8635300" lon="-5.4454880">
        <ele>1179.6</ele>
        <time>2022-06-11T06:38:07Z</time>
      </trkpt>
      <trkpt lat="42.8635460" lon="-5.4454720">
        <ele>1179.6</ele>
        <time>2022-06-11T06:38:12Z</time>
      </trkpt>
      <trkpt lat="42.8635520" lon="-5.4454770">
        <ele>1179.6</ele>
        <time>2022-06-11T06:38:13Z</time>
      </trkpt>
      <trkpt lat="42.8635760" lon="-5.4454840">
        <ele>1179.6</ele>
        <time>2022-06-11T06:38:15Z</time>
      </trkpt>
      <trkpt lat="42.8635970" lon="-5.4454980">
        <ele>1180.2</ele>
        <time>2022-06-11T06:38:19Z</time>
      </trkpt>
      <trkpt lat="42.8636060" lon="-5.4455020">
        <ele>1180.4</ele>
        <time>2022-06-11T06:38:20Z</time>
      </trkpt>
      <trkpt lat="42.8636350" lon="-5.4455310">
        <ele>1181.4</ele>
        <time>2022-06-11T06:38:23Z</time>
      </trkpt>
      <trkpt lat="42.8636760" lon="-5.4455540">
        <ele>1182.0</ele>
        <time>2022-06-11T06:38:26Z</time>
      </trkpt>
      <trkpt lat="42.8637170" lon="-5.4455880">
        <ele>1182.6</ele>
        <time>2022-06-11T06:38:30Z</time>
      </trkpt>
      <trkpt lat="42.8637480" lon="-5.4456010">
        <ele>1183.6</ele>
        <time>2022-06-11T06:38:34Z</time>
      </trkpt>
      <trkpt lat="42.8637930" lon="-5.4456390">
        <ele>1184.6</ele>
        <time>2022-06-11T06:38:39Z</time>
      </trkpt>
      <trkpt lat="42.8638090" lon="-5.4456460">
        <ele>1184.8</ele>
        <time>2022-06-11T06:38:41Z</time>
      </trkpt>
      <trkpt lat="42.8638710" lon="-5.4457000">
        <ele>1186.2</ele>
        <time>2022-06-11T06:38:47Z</time>
      </trkpt>
      <trkpt lat="42.8639050" lon="-5.4457160">
        <ele>1186.8</ele>
        <time>2022-06-11T06:38:50Z</time>
      </trkpt>
      <trkpt lat="42.8639320" lon="-5.4457290">
        <ele>1187.2</ele>
        <time>2022-06-11T06:38:52Z</time>
      </trkpt>
      <trkpt lat="42.8640330" lon="-5.4457990">
        <ele>1187.6</ele>
        <time>2022-06-11T06:39:00Z</time>
      </trkpt>
      <trkpt lat="42.8641590" lon="-5.4458590">
        <ele>1188.4</ele>
        <time>2022-06-11T06:39:09Z</time>
      </trkpt>
      <trkpt lat="42.8642630" lon="-5.4459180">
        <ele>1189.4</ele>
        <time>2022-06-11T06:39:17Z</time>
      </trkpt>
      <trkpt lat="42.8642800" lon="-5.4459320">
        <ele>1189.8</ele>
        <time>2022-06-11T06:39:18Z</time>
      </trkpt>
      <trkpt lat="42.8643260" lon="-5.4459640">
        <ele>1190.6</ele>
        <time>2022-06-11T06:39:21Z</time>
      </trkpt>
      <trkpt lat="42.8643540" lon="-5.4459800">
        <ele>1191.4</ele>
        <time>2022-06-11T06:39:23Z</time>
      </trkpt>
      <trkpt lat="42.8643740" lon="-5.4459900">
        <ele>1191.8</ele>
        <time>2022-06-11T06:39:25Z</time>
      </trkpt>
      <trkpt lat="42.8643890" lon="-5.4459960">
        <ele>1192.2</ele>
        <time>2022-06-11T06:39:29Z</time>
      </trkpt>
      <trkpt lat="42.8644090" lon="-5.4460070">
        <ele>1192.4</ele>
        <time>2022-06-11T06:39:46Z</time>
      </trkpt>
      <trkpt lat="42.8644090" lon="-5.4460070">
        <ele>1192.4</ele>
        <time>2022-06-11T06:39:51Z</time>
      </trkpt>
      <trkpt lat="42.8644100" lon="-5.4460110">
        <ele>1192.6</ele>
        <time>2022-06-11T06:39:54Z</time>
      </trkpt>
      <trkpt lat="42.8644290" lon="-5.4460330">
        <ele>1192.8</ele>
        <time>2022-06-11T06:39:55Z</time>
      </trkpt>
      <trkpt lat="42.8644500" lon="-5.4460570">
        <ele>1192.8</ele>
        <time>2022-06-11T06:39:56Z</time>
      </trkpt>
      <trkpt lat="42.8645570" lon="-5.4461690">
        <ele>1194.0</ele>
        <time>2022-06-11T06:40:01Z</time>
      </trkpt>
      <trkpt lat="42.8646020" lon="-5.4462030">
        <ele>1194.4</ele>
        <time>2022-06-11T06:40:03Z</time>
      </trkpt>
      <trkpt lat="42.8647300" lon="-5.4462630">
        <ele>1195.2</ele>
        <time>2022-06-11T06:40:09Z</time>
      </trkpt>
      <trkpt lat="42.8647740" lon="-5.4462760">
        <ele>1195.4</ele>
        <time>2022-06-11T06:40:11Z</time>
      </trkpt>
      <trkpt lat="42.8648730" lon="-5.4462860">
        <ele>1196.2</ele>
        <time>2022-06-11T06:40:16Z</time>
      </trkpt>
      <trkpt lat="42.8649470" lon="-5.4463000">
        <ele>1197.4</ele>
        <time>2022-06-11T06:40:21Z</time>
      </trkpt>
      <trkpt lat="42.8649790" lon="-5.4463170">
        <ele>1198.8</ele>
        <time>2022-06-11T06:40:24Z</time>
      </trkpt>
      <trkpt lat="42.8650370" lon="-5.4463450">
        <ele>1199.2</ele>
        <time>2022-06-11T06:40:28Z</time>
      </trkpt>
      <trkpt lat="42.8650930" lon="-5.4463760">
        <ele>1199.4</ele>
        <time>2022-06-11T06:40:31Z</time>
      </trkpt>
      <trkpt lat="42.8651760" lon="-5.4464430">
        <ele>1199.8</ele>
        <time>2022-06-11T06:40:35Z</time>
      </trkpt>
      <trkpt lat="42.8651950" lon="-5.4464610">
        <ele>1200.2</ele>
        <time>2022-06-11T06:40:36Z</time>
      </trkpt>
      <trkpt lat="42.8652450" lon="-5.4465010">
        <ele>1200.6</ele>
        <time>2022-06-11T06:40:39Z</time>
      </trkpt>
      <trkpt lat="42.8652990" lon="-5.4465310">
        <ele>1201.0</ele>
        <time>2022-06-11T06:40:42Z</time>
      </trkpt>
      <trkpt lat="42.8653690" lon="-5.4465580">
        <ele>1202.0</ele>
        <time>2022-06-11T06:40:46Z</time>
      </trkpt>
      <trkpt lat="42.8654680" lon="-5.4465540">
        <ele>1203.2</ele>
        <time>2022-06-11T06:40:52Z</time>
      </trkpt>
      <trkpt lat="42.8655100" lon="-5.4465430">
        <ele>1203.4</ele>
        <time>2022-06-11T06:40:54Z</time>
      </trkpt>
      <trkpt lat="42.8656620" lon="-5.4464420">
        <ele>1203.2</ele>
        <time>2022-06-11T06:41:01Z</time>
      </trkpt>
      <trkpt lat="42.8657580" lon="-5.4463200">
        <ele>1203.0</ele>
        <time>2022-06-11T06:41:07Z</time>
      </trkpt>
      <trkpt lat="42.8657660" lon="-5.4463010">
        <ele>1203.0</ele>
        <time>2022-06-11T06:41:08Z</time>
      </trkpt>
      <trkpt lat="42.8657690" lon="-5.4462650">
        <ele>1203.0</ele>
        <time>2022-06-11T06:41:10Z</time>
      </trkpt>
      <trkpt lat="42.8657780" lon="-5.4462500">
        <ele>1203.0</ele>
        <time>2022-06-11T06:41:11Z</time>
      </trkpt>
      <trkpt lat="42.8658110" lon="-5.4462330">
        <ele>1203.4</ele>
        <time>2022-06-11T06:41:14Z</time>
      </trkpt>
      <trkpt lat="42.8658270" lon="-5.4462360">
        <ele>1203.6</ele>
        <time>2022-06-11T06:41:16Z</time>
      </trkpt>
      <trkpt lat="42.8658600" lon="-5.4462280">
        <ele>1204.4</ele>
        <time>2022-06-11T06:41:19Z</time>
      </trkpt>
      <trkpt lat="42.8658690" lon="-5.4462190">
        <ele>1204.4</ele>
        <time>2022-06-11T06:41:20Z</time>
      </trkpt>
      <trkpt lat="42.8659250" lon="-5.4461820">
        <ele>1205.4</ele>
        <time>2022-06-11T06:41:24Z</time>
      </trkpt>
      <trkpt lat="42.8659350" lon="-5.4461700">
        <ele>1205.4</ele>
        <time>2022-06-11T06:41:25Z</time>
      </trkpt>
      <trkpt lat="42.8660030" lon="-5.4461190">
        <ele>1206.2</ele>
        <time>2022-06-11T06:41:32Z</time>
      </trkpt>
      <trkpt lat="42.8660210" lon="-5.4461150">
        <ele>1206.4</ele>
        <time>2022-06-11T06:41:33Z</time>
      </trkpt>
      <trkpt lat="42.8660370" lon="-5.4461120">
        <ele>1206.6</ele>
        <time>2022-06-11T06:41:34Z</time>
      </trkpt>
      <trkpt lat="42.8660810" lon="-5.4460950">
        <ele>1207.0</ele>
        <time>2022-06-11T06:41:38Z</time>
      </trkpt>
      <trkpt lat="42.8660900" lon="-5.4460950">
        <ele>1207.0</ele>
        <time>2022-06-11T06:41:39Z</time>
      </trkpt>
      <trkpt lat="42.8661100" lon="-5.4460840">
        <ele>1207.0</ele>
        <time>2022-06-11T06:41:41Z</time>
      </trkpt>
      <trkpt lat="42.8661380" lon="-5.4460690">
        <ele>1207.2</ele>
        <time>2022-06-11T06:41:43Z</time>
      </trkpt>
      <trkpt lat="42.8661580" lon="-5.4460520">
        <ele>1207.4</ele>
        <time>2022-06-11T06:41:45Z</time>
      </trkpt>
      <trkpt lat="42.8662430" lon="-5.4460540">
        <ele>1208.4</ele>
        <time>2022-06-11T06:41:52Z</time>
      </trkpt>
      <trkpt lat="42.8662560" lon="-5.4460530">
        <ele>1208.6</ele>
        <time>2022-06-11T06:41:53Z</time>
      </trkpt>
      <trkpt lat="42.8663070" lon="-5.4460580">
        <ele>1209.8</ele>
        <time>2022-06-11T06:41:57Z</time>
      </trkpt>
      <trkpt lat="42.8663200" lon="-5.4460580">
        <ele>1209.8</ele>
        <time>2022-06-11T06:41:58Z</time>
      </trkpt>
      <trkpt lat="42.8663850" lon="-5.4460140">
        <ele>1210.4</ele>
        <time>2022-06-11T06:42:02Z</time>
      </trkpt>
      <trkpt lat="42.8664190" lon="-5.4459860">
        <ele>1210.6</ele>
        <time>2022-06-11T06:42:05Z</time>
      </trkpt>
      <trkpt lat="42.8664550" lon="-5.4459880">
        <ele>1211.0</ele>
        <time>2022-06-11T06:42:07Z</time>
      </trkpt>
      <trkpt lat="42.8665240" lon="-5.4459670">
        <ele>1212.0</ele>
        <time>2022-06-11T06:42:11Z</time>
      </trkpt>
      <trkpt lat="42.8665990" lon="-5.4459380">
        <ele>1213.0</ele>
        <time>2022-06-11T06:42:16Z</time>
      </trkpt>
      <trkpt lat="42.8666120" lon="-5.4459310">
        <ele>1213.2</ele>
        <time>2022-06-11T06:42:17Z</time>
      </trkpt>
      <trkpt lat="42.8666230" lon="-5.4459290">
        <ele>1213.2</ele>
        <time>2022-06-11T06:42:18Z</time>
      </trkpt>
      <trkpt lat="42.8666790" lon="-5.4459450">
        <ele>1214.2</ele>
        <time>2022-06-11T06:42:22Z</time>
      </trkpt>
      <trkpt lat="42.8667640" lon="-5.4459540">
        <ele>1214.6</ele>
        <time>2022-06-11T06:42:27Z</time>
      </trkpt>
      <trkpt lat="42.8668510" lon="-5.4459270">
        <ele>1215.4</ele>
        <time>2022-06-11T06:42:34Z</time>
      </trkpt>
      <trkpt lat="42.8668890" lon="-5.4459240">
        <ele>1216.2</ele>
        <time>2022-06-11T06:42:37Z</time>
      </trkpt>
      <trkpt lat="42.8669120" lon="-5.4459200">
        <ele>1216.6</ele>
        <time>2022-06-11T06:42:39Z</time>
      </trkpt>
      <trkpt lat="42.8669490" lon="-5.4459100">
        <ele>1217.6</ele>
        <time>2022-06-11T06:42:42Z</time>
      </trkpt>
      <trkpt lat="42.8669560" lon="-5.4459080">
        <ele>1218.2</ele>
        <time>2022-06-11T06:42:43Z</time>
      </trkpt>
      <trkpt lat="42.8670170" lon="-5.4459080">
        <ele>1219.2</ele>
        <time>2022-06-11T06:42:48Z</time>
      </trkpt>
      <trkpt lat="42.8670380" lon="-5.4459160">
        <ele>1219.2</ele>
        <time>2022-06-11T06:42:50Z</time>
      </trkpt>
      <trkpt lat="42.8670510" lon="-5.4459190">
        <ele>1219.2</ele>
        <time>2022-06-11T06:42:51Z</time>
      </trkpt>
      <trkpt lat="42.8671420" lon="-5.4459250">
        <ele>1220.2</ele>
        <time>2022-06-11T06:42:57Z</time>
      </trkpt>
      <trkpt lat="42.8671870" lon="-5.4459290">
        <ele>1220.6</ele>
        <time>2022-06-11T06:43:00Z</time>
      </trkpt>
      <trkpt lat="42.8672590" lon="-5.4459840">
        <ele>1221.2</ele>
        <time>2022-06-11T06:43:05Z</time>
      </trkpt>
      <trkpt lat="42.8673210" lon="-5.4460190">
        <ele>1222.0</ele>
        <time>2022-06-11T06:43:09Z</time>
      </trkpt>
      <trkpt lat="42.8673340" lon="-5.4460280">
        <ele>1222.2</ele>
        <time>2022-06-11T06:43:10Z</time>
      </trkpt>
      <trkpt lat="42.8674580" lon="-5.4460420">
        <ele>1223.0</ele>
        <time>2022-06-11T06:43:18Z</time>
      </trkpt>
      <trkpt lat="42.8674750" lon="-5.4460430">
        <ele>1223.4</ele>
        <time>2022-06-11T06:43:19Z</time>
      </trkpt>
      <trkpt lat="42.8675880" lon="-5.4460210">
        <ele>1224.6</ele>
        <time>2022-06-11T06:43:26Z</time>
      </trkpt>
      <trkpt lat="42.8676740" lon="-5.4459910">
        <ele>1225.6</ele>
        <time>2022-06-11T06:43:32Z</time>
      </trkpt>
      <trkpt lat="42.8676850" lon="-5.4459870">
        <ele>1225.8</ele>
        <time>2022-06-11T06:43:33Z</time>
      </trkpt>
      <trkpt lat="42.8677220" lon="-5.4459780">
        <ele>1226.8</ele>
        <time>2022-06-11T06:43:36Z</time>
      </trkpt>
      <trkpt lat="42.8677890" lon="-5.4459760">
        <ele>1227.6</ele>
        <time>2022-06-11T06:43:41Z</time>
      </trkpt>
      <trkpt lat="42.8678170" lon="-5.4459800">
        <ele>1227.8</ele>
        <time>2022-06-11T06:43:43Z</time>
      </trkpt>
      <trkpt lat="42.8678700" lon="-5.4459710">
        <ele>1229.0</ele>
        <time>2022-06-11T06:43:47Z</time>
      </trkpt>
      <trkpt lat="42.8679050" lon="-5.4459560">
        <ele>1229.6</ele>
        <time>2022-06-11T06:43:50Z</time>
      </trkpt>
      <trkpt lat="42.8679250" lon="-5.4459420">
        <ele>1230.2</ele>
        <time>2022-06-11T06:43:52Z</time>
      </trkpt>
      <trkpt lat="42.8679780" lon="-5.4459040">
        <ele>1231.2</ele>
        <time>2022-06-11T06:43:57Z</time>
      </trkpt>
      <trkpt lat="42.8680300" lon="-5.4458580">
        <ele>1232.6</ele>
        <time>2022-06-11T06:44:02Z</time>
      </trkpt>
      <trkpt lat="42.8680400" lon="-5.4458540">
        <ele>1232.8</ele>
        <time>2022-06-11T06:44:03Z</time>
      </trkpt>
      <trkpt lat="42.8680640" lon="-5.4458410">
        <ele>1233.2</ele>
        <time>2022-06-11T06:44:05Z</time>
      </trkpt>
      <trkpt lat="42.8681020" lon="-5.4458300">
        <ele>1233.6</ele>
        <time>2022-06-11T06:44:08Z</time>
      </trkpt>
      <trkpt lat="42.8681640" lon="-5.4457870">
        <ele>1234.4</ele>
        <time>2022-06-11T06:44:13Z</time>
      </trkpt>
      <trkpt lat="42.8681890" lon="-5.4457630">
        <ele>1234.8</ele>
        <time>2022-06-11T06:44:15Z</time>
      </trkpt>
      <trkpt lat="42.8682570" lon="-5.4457330">
        <ele>1235.8</ele>
        <time>2022-06-11T06:44:20Z</time>
      </trkpt>
      <trkpt lat="42.8682890" lon="-5.4457060">
        <ele>1236.4</ele>
        <time>2022-06-11T06:44:23Z</time>
      </trkpt>
      <trkpt lat="42.8683200" lon="-5.4456830">
        <ele>1237.0</ele>
        <time>2022-06-11T06:44:26Z</time>
      </trkpt>
      <trkpt lat="42.8683540" lon="-5.4456370">
        <ele>1238.2</ele>
        <time>2022-06-11T06:44:30Z</time>
      </trkpt>
      <trkpt lat="42.8683750" lon="-5.4455560">
        <ele>1239.4</ele>
        <time>2022-06-11T06:44:35Z</time>
      </trkpt>
      <trkpt lat="42.8684080" lon="-5.4455110">
        <ele>1239.6</ele>
        <time>2022-06-11T06:44:38Z</time>
      </trkpt>
      <trkpt lat="42.8684650" lon="-5.4453850">
        <ele>1240.4</ele>
        <time>2022-06-11T06:44:45Z</time>
      </trkpt>
      <trkpt lat="42.8684880" lon="-5.4453390">
        <ele>1241.0</ele>
        <time>2022-06-11T06:44:49Z</time>
      </trkpt>
      <trkpt lat="42.8684960" lon="-5.4453410">
        <ele>1241.0</ele>
        <time>2022-06-11T06:44:50Z</time>
      </trkpt>
      <trkpt lat="42.8685180" lon="-5.4453510">
        <ele>1241.6</ele>
        <time>2022-06-11T06:44:52Z</time>
      </trkpt>
      <trkpt lat="42.8685700" lon="-5.4453750">
        <ele>1242.4</ele>
        <time>2022-06-11T06:44:57Z</time>
      </trkpt>
      <trkpt lat="42.8685960" lon="-5.4453670">
        <ele>1242.8</ele>
        <time>2022-06-11T06:44:59Z</time>
      </trkpt>
      <trkpt lat="42.8686170" lon="-5.4453440">
        <ele>1243.0</ele>
        <time>2022-06-11T06:45:01Z</time>
      </trkpt>
      <trkpt lat="42.8686300" lon="-5.4453180">
        <ele>1243.4</ele>
        <time>2022-06-11T06:45:03Z</time>
      </trkpt>
      <trkpt lat="42.8686440" lon="-5.4452930">
        <ele>1243.8</ele>
        <time>2022-06-11T06:45:05Z</time>
      </trkpt>
      <trkpt lat="42.8686720" lon="-5.4452520">
        <ele>1244.8</ele>
        <time>2022-06-11T06:45:09Z</time>
      </trkpt>
      <trkpt lat="42.8686800" lon="-5.4452450">
        <ele>1245.0</ele>
        <time>2022-06-11T06:45:10Z</time>
      </trkpt>
      <trkpt lat="42.8687130" lon="-5.4452170">
        <ele>1246.2</ele>
        <time>2022-06-11T06:45:14Z</time>
      </trkpt>
      <trkpt lat="42.8687210" lon="-5.4452050">
        <ele>1246.8</ele>
        <time>2022-06-11T06:45:15Z</time>
      </trkpt>
      <trkpt lat="42.8687280" lon="-5.4451560">
        <ele>1247.4</ele>
        <time>2022-06-11T06:45:18Z</time>
      </trkpt>
      <trkpt lat="42.8687310" lon="-5.4451440">
        <ele>1247.4</ele>
        <time>2022-06-11T06:45:19Z</time>
      </trkpt>
      <trkpt lat="42.8687370" lon="-5.4451330">
        <ele>1247.6</ele>
        <time>2022-06-11T06:45:20Z</time>
      </trkpt>
      <trkpt lat="42.8687580" lon="-5.4450900">
        <ele>1248.2</ele>
        <time>2022-06-11T06:45:24Z</time>
      </trkpt>
      <trkpt lat="42.8687570" lon="-5.4450770">
        <ele>1248.2</ele>
        <time>2022-06-11T06:45:25Z</time>
      </trkpt>
      <trkpt lat="42.8687480" lon="-5.4450600">
        <ele>1248.4</ele>
        <time>2022-06-11T06:45:26Z</time>
      </trkpt>
      <trkpt lat="42.8687110" lon="-5.4449960">
        <ele>1249.4</ele>
        <time>2022-06-11T06:45:31Z</time>
      </trkpt>
      <trkpt lat="42.8687000" lon="-5.4449720">
        <ele>1250.4</ele>
        <time>2022-06-11T06:45:34Z</time>
      </trkpt>
      <trkpt lat="42.8687030" lon="-5.4449550">
        <ele>1251.6</ele>
        <time>2022-06-11T06:45:37Z</time>
      </trkpt>
      <trkpt lat="42.8687110" lon="-5.4449540">
        <ele>1252.2</ele>
        <time>2022-06-11T06:45:41Z</time>
      </trkpt>
      <trkpt lat="42.8687380" lon="-5.4449640">
        <ele>1252.4</ele>
        <time>2022-06-11T06:45:44Z</time>
      </trkpt>
      <trkpt lat="42.8687770" lon="-5.4449620">
        <ele>1252.6</ele>
        <time>2022-06-11T06:45:47Z</time>
      </trkpt>
      <trkpt lat="42.8687890" lon="-5.4449620">
        <ele>1252.6</ele>
        <time>2022-06-11T06:45:48Z</time>
      </trkpt>
      <trkpt lat="42.8688310" lon="-5.4449390">
        <ele>1252.8</ele>
        <time>2022-06-11T06:45:51Z</time>
      </trkpt>
      <trkpt lat="42.8689040" lon="-5.4448940">
        <ele>1252.8</ele>
        <time>2022-06-11T06:45:57Z</time>
      </trkpt>
      <trkpt lat="42.8689270" lon="-5.4448710">
        <ele>1253.6</ele>
        <time>2022-06-11T06:46:01Z</time>
      </trkpt>
      <trkpt lat="42.8689270" lon="-5.4448430">
        <ele>1254.2</ele>
        <time>2022-06-11T06:46:04Z</time>
      </trkpt>
      <trkpt lat="42.8689330" lon="-5.4448430">
        <ele>1254.6</ele>
        <time>2022-06-11T06:46:07Z</time>
      </trkpt>
      <trkpt lat="42.8689610" lon="-5.4448370">
        <ele>1255.0</ele>
        <time>2022-06-11T06:46:11Z</time>
      </trkpt>
      <trkpt lat="42.8690290" lon="-5.4448250">
        <ele>1255.8</ele>
        <time>2022-06-11T06:46:18Z</time>
      </trkpt>
      <trkpt lat="42.8690490" lon="-5.4447960">
        <ele>1256.6</ele>
        <time>2022-06-11T06:46:22Z</time>
      </trkpt>
      <trkpt lat="42.8690550" lon="-5.4447820">
        <ele>1256.8</ele>
        <time>2022-06-11T06:46:23Z</time>
      </trkpt>
      <trkpt lat="42.8690660" lon="-5.4447620">
        <ele>1257.2</ele>
        <time>2022-06-11T06:46:24Z</time>
      </trkpt>
      <trkpt lat="42.8690770" lon="-5.4447340">
        <ele>1258.0</ele>
        <time>2022-06-11T06:46:26Z</time>
      </trkpt>
      <trkpt lat="42.8691110" lon="-5.4446810">
        <ele>1258.4</ele>
        <time>2022-06-11T06:46:31Z</time>
      </trkpt>
      <trkpt lat="42.8691240" lon="-5.4446710">
        <ele>1259.0</ele>
        <time>2022-06-11T06:46:33Z</time>
      </trkpt>
      <trkpt lat="42.8691330" lon="-5.4446430">
        <ele>1259.8</ele>
        <time>2022-06-11T06:46:36Z</time>
      </trkpt>
      <trkpt lat="42.8691350" lon="-5.4446360">
        <ele>1260.2</ele>
        <time>2022-06-11T06:46:38Z</time>
      </trkpt>
      <trkpt lat="42.8691510" lon="-5.4446010">
        <ele>1261.4</ele>
        <time>2022-06-11T06:46:42Z</time>
      </trkpt>
      <trkpt lat="42.8691500" lon="-5.4445970">
        <ele>1261.6</ele>
        <time>2022-06-11T06:46:43Z</time>
      </trkpt>
      <trkpt lat="42.8691560" lon="-5.4445720">
        <ele>1262.4</ele>
        <time>2022-06-11T06:46:46Z</time>
      </trkpt>
      <trkpt lat="42.8691740" lon="-5.4445410">
        <ele>1263.6</ele>
        <time>2022-06-11T06:46:51Z</time>
      </trkpt>
      <trkpt lat="42.8691770" lon="-5.4445320">
        <ele>1263.8</ele>
        <time>2022-06-11T06:46:52Z</time>
      </trkpt>
      <trkpt lat="42.8691930" lon="-5.4444790">
        <ele>1264.8</ele>
        <time>2022-06-11T06:46:57Z</time>
      </trkpt>
      <trkpt lat="42.8691890" lon="-5.4444510">
        <ele>1265.2</ele>
        <time>2022-06-11T06:46:59Z</time>
      </trkpt>
      <trkpt lat="42.8691690" lon="-5.4443840">
        <ele>1266.2</ele>
        <time>2022-06-11T06:47:04Z</time>
      </trkpt>
      <trkpt lat="42.8691460" lon="-5.4443570">
        <ele>1266.4</ele>
        <time>2022-06-11T06:47:06Z</time>
      </trkpt>
      <trkpt lat="42.8690720" lon="-5.4443010">
        <ele>1267.2</ele>
        <time>2022-06-11T06:47:12Z</time>
      </trkpt>
      <trkpt lat="42.8690620" lon="-5.4442970">
        <ele>1267.6</ele>
        <time>2022-06-11T06:47:13Z</time>
      </trkpt>
      <trkpt lat="42.8690050" lon="-5.4442680">
        <ele>1268.2</ele>
        <time>2022-06-11T06:47:18Z</time>
      </trkpt>
      <trkpt lat="42.8689970" lon="-5.4442640">
        <ele>1268.4</ele>
        <time>2022-06-11T06:47:19Z</time>
      </trkpt>
      <trkpt lat="42.8689750" lon="-5.4442490">
        <ele>1269.0</ele>
        <time>2022-06-11T06:47:22Z</time>
      </trkpt>
      <trkpt lat="42.8689480" lon="-5.4442380">
        <ele>1269.4</ele>
        <time>2022-06-11T06:47:24Z</time>
      </trkpt>
      <trkpt lat="42.8689400" lon="-5.4442330">
        <ele>1269.6</ele>
        <time>2022-06-11T06:47:25Z</time>
      </trkpt>
      <trkpt lat="42.8689290" lon="-5.4442230">
        <ele>1270.2</ele>
        <time>2022-06-11T06:47:28Z</time>
      </trkpt>
      <trkpt lat="42.8689290" lon="-5.4442220">
        <ele>1270.4</ele>
        <time>2022-06-11T06:47:29Z</time>
      </trkpt>
      <trkpt lat="42.8688860" lon="-5.4441990">
        <ele>1271.6</ele>
        <time>2022-06-11T06:47:34Z</time>
      </trkpt>
      <trkpt lat="42.8688470" lon="-5.4441850">
        <ele>1272.4</ele>
        <time>2022-06-11T06:47:38Z</time>
      </trkpt>
      <trkpt lat="42.8688350" lon="-5.4441800">
        <ele>1272.8</ele>
        <time>2022-06-11T06:47:39Z</time>
      </trkpt>
      <trkpt lat="42.8687810" lon="-5.4441500">
        <ele>1274.0</ele>
        <time>2022-06-11T06:47:45Z</time>
      </trkpt>
      <trkpt lat="42.8687560" lon="-5.4441250">
        <ele>1274.4</ele>
        <time>2022-06-11T06:47:48Z</time>
      </trkpt>
      <trkpt lat="42.8687470" lon="-5.4441170">
        <ele>1275.0</ele>
        <time>2022-06-11T06:47:50Z</time>
      </trkpt>
      <trkpt lat="42.8687540" lon="-5.4441200">
        <ele>1275.6</ele>
        <time>2022-06-11T06:47:52Z</time>
      </trkpt>
      <trkpt lat="42.8687500" lon="-5.4441000">
        <ele>1276.0</ele>
        <time>2022-06-11T06:47:56Z</time>
      </trkpt>
      <trkpt lat="42.8687350" lon="-5.4440710">
        <ele>1277.2</ele>
        <time>2022-06-11T06:48:00Z</time>
      </trkpt>
      <trkpt lat="42.8686950" lon="-5.4440520">
        <ele>1278.4</ele>
        <time>2022-06-11T06:48:05Z</time>
      </trkpt>
      <trkpt lat="42.8686780" lon="-5.4440340">
        <ele>1278.8</ele>
        <time>2022-06-11T06:48:07Z</time>
      </trkpt>
      <trkpt lat="42.8686580" lon="-5.4440170">
        <ele>1279.4</ele>
        <time>2022-06-11T06:48:10Z</time>
      </trkpt>
      <trkpt lat="42.8686360" lon="-5.4439970">
        <ele>1280.4</ele>
        <time>2022-06-11T06:48:14Z</time>
      </trkpt>
      <trkpt lat="42.8686230" lon="-5.4439830">
        <ele>1280.6</ele>
        <time>2022-06-11T06:48:16Z</time>
      </trkpt>
      <trkpt lat="42.8685930" lon="-5.4439600">
        <ele>1281.8</ele>
        <time>2022-06-11T06:48:21Z</time>
      </trkpt>
      <trkpt lat="42.8685700" lon="-5.4439350">
        <ele>1282.6</ele>
        <time>2022-06-11T06:48:25Z</time>
      </trkpt>
      <trkpt lat="42.8685650" lon="-5.4439290">
        <ele>1283.0</ele>
        <time>2022-06-11T06:48:26Z</time>
      </trkpt>
      <trkpt lat="42.8685510" lon="-5.4439050">
        <ele>1284.0</ele>
        <time>2022-06-11T06:48:30Z</time>
      </trkpt>
      <trkpt lat="42.8685370" lon="-5.4438790">
        <ele>1284.6</ele>
        <time>2022-06-11T06:48:33Z</time>
      </trkpt>
      <trkpt lat="42.8685180" lon="-5.4438730">
        <ele>1285.2</ele>
        <time>2022-06-11T06:48:36Z</time>
      </trkpt>
      <trkpt lat="42.8684920" lon="-5.4438500">
        <ele>1286.2</ele>
        <time>2022-06-11T06:48:42Z</time>
      </trkpt>
      <trkpt lat="42.8684620" lon="-5.4438010">
        <ele>1287.6</ele>
        <time>2022-06-11T06:48:48Z</time>
      </trkpt>
      <trkpt lat="42.8684520" lon="-5.4437880">
        <ele>1288.2</ele>
        <time>2022-06-11T06:48:50Z</time>
      </trkpt>
      <trkpt lat="42.8684460" lon="-5.4437810">
        <ele>1288.6</ele>
        <time>2022-06-11T06:48:52Z</time>
      </trkpt>
      <trkpt lat="42.8684300" lon="-5.4437530">
        <ele>1289.6</ele>
        <time>2022-06-11T06:48:57Z</time>
      </trkpt>
      <trkpt lat="42.8684280" lon="-5.4437470">
        <ele>1289.8</ele>
        <time>2022-06-11T06:48:58Z</time>
      </trkpt>
      <trkpt lat="42.8684100" lon="-5.4437250">
        <ele>1290.8</ele>
        <time>2022-06-11T06:49:02Z</time>
      </trkpt>
      <trkpt lat="42.8684100" lon="-5.4437190">
        <ele>1291.4</ele>
        <time>2022-06-11T06:49:05Z</time>
      </trkpt>
      <trkpt lat="42.8684090" lon="-5.4437010">
        <ele>1291.8</ele>
        <time>2022-06-11T06:49:07Z</time>
      </trkpt>
      <trkpt lat="42.8684200" lon="-5.4436700">
        <ele>1292.8</ele>
        <time>2022-06-11T06:49:11Z</time>
      </trkpt>
      <trkpt lat="42.8684280" lon="-5.4436560">
        <ele>1293.4</ele>
        <time>2022-06-11T06:49:14Z</time>
      </trkpt>
      <trkpt lat="42.8684350" lon="-5.4436430">
        <ele>1293.8</ele>
        <time>2022-06-11T06:49:16Z</time>
      </trkpt>
      <trkpt lat="42.8684500" lon="-5.4436210">
        <ele>1294.8</ele>
        <time>2022-06-11T06:49:20Z</time>
      </trkpt>
      <trkpt lat="42.8684530" lon="-5.4436110">
        <ele>1295.0</ele>
        <time>2022-06-11T06:49:21Z</time>
      </trkpt>
      <trkpt lat="42.8684550" lon="-5.4436020">
        <ele>1295.2</ele>
        <time>2022-06-11T06:49:22Z</time>
      </trkpt>
      <trkpt lat="42.8684670" lon="-5.4435830">
        <ele>1296.2</ele>
        <time>2022-06-11T06:49:26Z</time>
      </trkpt>
      <trkpt lat="42.8684830" lon="-5.4435450">
        <ele>1297.2</ele>
        <time>2022-06-11T06:49:32Z</time>
      </trkpt>
      <trkpt lat="42.8684860" lon="-5.4435190">
        <ele>1298.4</ele>
        <time>2022-06-11T06:49:36Z</time>
      </trkpt>
      <trkpt lat="42.8684890" lon="-5.4434930">
        <ele>1299.2</ele>
        <time>2022-06-11T06:49:40Z</time>
      </trkpt>
      <trkpt lat="42.8684880" lon="-5.4434860">
        <ele>1299.4</ele>
        <time>2022-06-11T06:49:41Z</time>
      </trkpt>
      <trkpt lat="42.8684800" lon="-5.4434540">
        <ele>1300.4</ele>
        <time>2022-06-11T06:49:45Z</time>
      </trkpt>
      <trkpt lat="42.8684720" lon="-5.4434350">
        <ele>1300.8</ele>
        <time>2022-06-11T06:49:48Z</time>
      </trkpt>
      <trkpt lat="42.8684690" lon="-5.4434270">
        <ele>1301.0</ele>
        <time>2022-06-11T06:49:49Z</time>
      </trkpt>
      <trkpt lat="42.8684690" lon="-5.4434070">
        <ele>1301.4</ele>
        <time>2022-06-11T06:49:51Z</time>
      </trkpt>
      <trkpt lat="42.8684660" lon="-5.4433810">
        <ele>1302.6</ele>
        <time>2022-06-11T06:49:55Z</time>
      </trkpt>
      <trkpt lat="42.8684710" lon="-5.4433320">
        <ele>1303.8</ele>
        <time>2022-06-11T06:50:00Z</time>
      </trkpt>
      <trkpt lat="42.8684690" lon="-5.4433210">
        <ele>1304.2</ele>
        <time>2022-06-11T06:50:02Z</time>
      </trkpt>
      <trkpt lat="42.8684620" lon="-5.4432980">
        <ele>1304.8</ele>
        <time>2022-06-11T06:50:05Z</time>
      </trkpt>
      <trkpt lat="42.8684480" lon="-5.4432660">
        <ele>1306.2</ele>
        <time>2022-06-11T06:50:10Z</time>
      </trkpt>
      <trkpt lat="42.8684330" lon="-5.4432470">
        <ele>1306.6</ele>
        <time>2022-06-11T06:50:12Z</time>
      </trkpt>
      <trkpt lat="42.8684210" lon="-5.4432080">
        <ele>1307.6</ele>
        <time>2022-06-11T06:50:16Z</time>
      </trkpt>
      <trkpt lat="42.8684160" lon="-5.4431660">
        <ele>1308.4</ele>
        <time>2022-06-11T06:50:20Z</time>
      </trkpt>
      <trkpt lat="42.8684160" lon="-5.4431480">
        <ele>1308.6</ele>
        <time>2022-06-11T06:50:22Z</time>
      </trkpt>
      <trkpt lat="42.8684080" lon="-5.4431030">
        <ele>1309.8</ele>
        <time>2022-06-11T06:50:26Z</time>
      </trkpt>
      <trkpt lat="42.8684010" lon="-5.4430840">
        <ele>1309.8</ele>
        <time>2022-06-11T06:50:28Z</time>
      </trkpt>
      <trkpt lat="42.8683950" lon="-5.4430510">
        <ele>1310.8</ele>
        <time>2022-06-11T06:50:31Z</time>
      </trkpt>
      <trkpt lat="42.8683940" lon="-5.4429990">
        <ele>1311.6</ele>
        <time>2022-06-11T06:50:36Z</time>
      </trkpt>
      <trkpt lat="42.8683960" lon="-5.4429890">
        <ele>1311.8</ele>
        <time>2022-06-11T06:50:37Z</time>
      </trkpt>
      <trkpt lat="42.8683940" lon="-5.4429320">
        <ele>1313.0</ele>
        <time>2022-06-11T06:50:41Z</time>
      </trkpt>
      <trkpt lat="42.8683920" lon="-5.4429030">
        <ele>1313.2</ele>
        <time>2022-06-11T06:50:44Z</time>
      </trkpt>
      <trkpt lat="42.8683980" lon="-5.4428530">
        <ele>1314.0</ele>
        <time>2022-06-11T06:50:48Z</time>
      </trkpt>
      <trkpt lat="42.8684070" lon="-5.4428380">
        <ele>1314.4</ele>
        <time>2022-06-11T06:50:50Z</time>
      </trkpt>
      <trkpt lat="42.8684360" lon="-5.4427980">
        <ele>1315.0</ele>
        <time>2022-06-11T06:50:54Z</time>
      </trkpt>
      <trkpt lat="42.8684530" lon="-5.4427800">
        <ele>1315.2</ele>
        <time>2022-06-11T06:50:57Z</time>
      </trkpt>
      <trkpt lat="42.8684660" lon="-5.4427670">
        <ele>1315.8</ele>
        <time>2022-06-11T06:50:59Z</time>
      </trkpt>
      <trkpt lat="42.8684700" lon="-5.4427580">
        <ele>1316.0</ele>
        <time>2022-06-11T06:51:00Z</time>
      </trkpt>
      <trkpt lat="42.8685030" lon="-5.4427100">
        <ele>1317.0</ele>
        <time>2022-06-11T06:51:06Z</time>
      </trkpt>
      <trkpt lat="42.8685080" lon="-5.4426960">
        <ele>1317.2</ele>
        <time>2022-06-11T06:51:07Z</time>
      </trkpt>
      <trkpt lat="42.8685350" lon="-5.4426440">
        <ele>1317.8</ele>
        <time>2022-06-11T06:51:13Z</time>
      </trkpt>
      <trkpt lat="42.8685400" lon="-5.4426360">
        <ele>1318.4</ele>
        <time>2022-06-11T06:51:14Z</time>
      </trkpt>
      <trkpt lat="42.8685670" lon="-5.4425670">
        <ele>1319.2</ele>
        <time>2022-06-11T06:51:20Z</time>
      </trkpt>
      <trkpt lat="42.8685720" lon="-5.4425450">
        <ele>1319.6</ele>
        <time>2022-06-11T06:51:22Z</time>
      </trkpt>
      <trkpt lat="42.8685770" lon="-5.4425330">
        <ele>1320.0</ele>
        <time>2022-06-11T06:51:23Z</time>
      </trkpt>
      <trkpt lat="42.8685890" lon="-5.4425130">
        <ele>1320.6</ele>
        <time>2022-06-11T06:51:25Z</time>
      </trkpt>
      <trkpt lat="42.8686190" lon="-5.4424870">
        <ele>1321.4</ele>
        <time>2022-06-11T06:51:30Z</time>
      </trkpt>
      <trkpt lat="42.8686320" lon="-5.4424660">
        <ele>1321.6</ele>
        <time>2022-06-11T06:51:32Z</time>
      </trkpt>
      <trkpt lat="42.8686520" lon="-5.4424080">
        <ele>1322.2</ele>
        <time>2022-06-11T06:51:38Z</time>
      </trkpt>
      <trkpt lat="42.8686600" lon="-5.4423830">
        <ele>1322.8</ele>
        <time>2022-06-11T06:51:40Z</time>
      </trkpt>
      <trkpt lat="42.8686780" lon="-5.4423240">
        <ele>1323.8</ele>
        <time>2022-06-11T06:51:45Z</time>
      </trkpt>
      <trkpt lat="42.8686800" lon="-5.4423090">
        <ele>1324.0</ele>
        <time>2022-06-11T06:51:46Z</time>
      </trkpt>
      <trkpt lat="42.8686820" lon="-5.4422940">
        <ele>1324.0</ele>
        <time>2022-06-11T06:51:47Z</time>
      </trkpt>
      <trkpt lat="42.8686840" lon="-5.4422800">
        <ele>1324.4</ele>
        <time>2022-06-11T06:51:48Z</time>
      </trkpt>
      <trkpt lat="42.8687030" lon="-5.4422420">
        <ele>1324.8</ele>
        <time>2022-06-11T06:51:51Z</time>
      </trkpt>
      <trkpt lat="42.8687160" lon="-5.4422200">
        <ele>1325.2</ele>
        <time>2022-06-11T06:51:54Z</time>
      </trkpt>
      <trkpt lat="42.8687240" lon="-5.4421920">
        <ele>1326.0</ele>
        <time>2022-06-11T06:51:56Z</time>
      </trkpt>
      <trkpt lat="42.8687430" lon="-5.4421360">
        <ele>1326.6</ele>
        <time>2022-06-11T06:52:01Z</time>
      </trkpt>
      <trkpt lat="42.8687520" lon="-5.4421090">
        <ele>1327.2</ele>
        <time>2022-06-11T06:52:03Z</time>
      </trkpt>
      <trkpt lat="42.8687760" lon="-5.4420480">
        <ele>1328.4</ele>
        <time>2022-06-11T06:52:09Z</time>
      </trkpt>
      <trkpt lat="42.8688130" lon="-5.4419980">
        <ele>1329.4</ele>
        <time>2022-06-11T06:52:15Z</time>
      </trkpt>
      <trkpt lat="42.8688300" lon="-5.4419840">
        <ele>1330.0</ele>
        <time>2022-06-11T06:52:18Z</time>
      </trkpt>
      <trkpt lat="42.8688460" lon="-5.4419690">
        <ele>1330.4</ele>
        <time>2022-06-11T06:52:20Z</time>
      </trkpt>
      <trkpt lat="42.8688870" lon="-5.4419280">
        <ele>1331.6</ele>
        <time>2022-06-11T06:52:26Z</time>
      </trkpt>
      <trkpt lat="42.8688970" lon="-5.4419080">
        <ele>1332.0</ele>
        <time>2022-06-11T06:52:29Z</time>
      </trkpt>
      <trkpt lat="42.8689060" lon="-5.4418960">
        <ele>1332.6</ele>
        <time>2022-06-11T06:52:31Z</time>
      </trkpt>
      <trkpt lat="42.8689110" lon="-5.4418880">
        <ele>1332.8</ele>
        <time>2022-06-11T06:52:32Z</time>
      </trkpt>
      <trkpt lat="42.8689230" lon="-5.4418550">
        <ele>1333.6</ele>
        <time>2022-06-11T06:52:36Z</time>
      </trkpt>
      <trkpt lat="42.8689350" lon="-5.4418330">
        <ele>1334.4</ele>
        <time>2022-06-11T06:52:39Z</time>
      </trkpt>
      <trkpt lat="42.8689420" lon="-5.4418130">
        <ele>1334.6</ele>
        <time>2022-06-11T06:52:41Z</time>
      </trkpt>
      <trkpt lat="42.8689630" lon="-5.4417790">
        <ele>1335.8</ele>
        <time>2022-06-11T06:52:46Z</time>
      </trkpt>
      <trkpt lat="42.8689740" lon="-5.4417610">
        <ele>1336.0</ele>
        <time>2022-06-11T06:52:48Z</time>
      </trkpt>
      <trkpt lat="42.8689860" lon="-5.4417450">
        <ele>1336.8</ele>
        <time>2022-06-11T06:52:51Z</time>
      </trkpt>
      <trkpt lat="42.8690250" lon="-5.4417060">
        <ele>1337.8</ele>
        <time>2022-06-11T06:52:56Z</time>
      </trkpt>
      <trkpt lat="42.8690290" lon="-5.4417010">
        <ele>1338.0</ele>
        <time>2022-06-11T06:52:57Z</time>
      </trkpt>
      <trkpt lat="42.8690510" lon="-5.4416760">
        <ele>1339.0</ele>
        <time>2022-06-11T06:53:01Z</time>
      </trkpt>
      <trkpt lat="42.8690830" lon="-5.4416000">
        <ele>1340.2</ele>
        <time>2022-06-11T06:53:08Z</time>
      </trkpt>
      <trkpt lat="42.8690880" lon="-5.4415900">
        <ele>1340.4</ele>
        <time>2022-06-11T06:53:09Z</time>
      </trkpt>
      <trkpt lat="42.8691050" lon="-5.4415420">
        <ele>1341.2</ele>
        <time>2022-06-11T06:53:14Z</time>
      </trkpt>
      <trkpt lat="42.8691090" lon="-5.4415170">
        <ele>1341.8</ele>
        <time>2022-06-11T06:53:16Z</time>
      </trkpt>
      <trkpt lat="42.8691210" lon="-5.4414770">
        <ele>1342.4</ele>
        <time>2022-06-11T06:53:20Z</time>
      </trkpt>
      <trkpt lat="42.8691410" lon="-5.4414220">
        <ele>1343.2</ele>
        <time>2022-06-11T06:53:25Z</time>
      </trkpt>
      <trkpt lat="42.8691440" lon="-5.4414110">
        <ele>1343.4</ele>
        <time>2022-06-11T06:53:26Z</time>
      </trkpt>
      <trkpt lat="42.8691530" lon="-5.4413690">
        <ele>1344.6</ele>
        <time>2022-06-11T06:53:30Z</time>
      </trkpt>
      <trkpt lat="42.8691620" lon="-5.4413320">
        <ele>1345.0</ele>
        <time>2022-06-11T06:53:33Z</time>
      </trkpt>
      <trkpt lat="42.8691740" lon="-5.4412920">
        <ele>1345.6</ele>
        <time>2022-06-11T06:53:37Z</time>
      </trkpt>
      <trkpt lat="42.8691990" lon="-5.4412280">
        <ele>1346.8</ele>
        <time>2022-06-11T06:53:42Z</time>
      </trkpt>
      <trkpt lat="42.8692220" lon="-5.4411760">
        <ele>1347.8</ele>
        <time>2022-06-11T06:53:47Z</time>
      </trkpt>
      <trkpt lat="42.8692230" lon="-5.4411670">
        <ele>1348.2</ele>
        <time>2022-06-11T06:53:48Z</time>
      </trkpt>
      <trkpt lat="42.8692300" lon="-5.4411500">
        <ele>1348.4</ele>
        <time>2022-06-11T06:53:50Z</time>
      </trkpt>
      <trkpt lat="42.8692530" lon="-5.4411110">
        <ele>1349.0</ele>
        <time>2022-06-11T06:53:54Z</time>
      </trkpt>
      <trkpt lat="42.8692740" lon="-5.4410520">
        <ele>1350.0</ele>
        <time>2022-06-11T06:54:00Z</time>
      </trkpt>
      <trkpt lat="42.8692760" lon="-5.4410410">
        <ele>1350.2</ele>
        <time>2022-06-11T06:54:01Z</time>
      </trkpt>
      <trkpt lat="42.8692880" lon="-5.4409960">
        <ele>1351.2</ele>
        <time>2022-06-11T06:54:06Z</time>
      </trkpt>
      <trkpt lat="42.8693080" lon="-5.4409530">
        <ele>1352.0</ele>
        <time>2022-06-11T06:54:11Z</time>
      </trkpt>
      <trkpt lat="42.8693130" lon="-5.4409430">
        <ele>1352.4</ele>
        <time>2022-06-11T06:54:12Z</time>
      </trkpt>
      <trkpt lat="42.8693400" lon="-5.4408950">
        <ele>1353.4</ele>
        <time>2022-06-11T06:54:18Z</time>
      </trkpt>
      <trkpt lat="42.8693530" lon="-5.4408710">
        <ele>1354.0</ele>
        <time>2022-06-11T06:54:21Z</time>
      </trkpt>
      <trkpt lat="42.8693630" lon="-5.4408580">
        <ele>1354.6</ele>
        <time>2022-06-11T06:54:23Z</time>
      </trkpt>
      <trkpt lat="42.8693870" lon="-5.4408290">
        <ele>1355.4</ele>
        <time>2022-06-11T06:54:28Z</time>
      </trkpt>
      <trkpt lat="42.8693920" lon="-5.4408230">
        <ele>1355.8</ele>
        <time>2022-06-11T06:54:29Z</time>
      </trkpt>
      <trkpt lat="42.8694120" lon="-5.4407960">
        <ele>1356.6</ele>
        <time>2022-06-11T06:54:35Z</time>
      </trkpt>
      <trkpt lat="42.8694210" lon="-5.4407810">
        <ele>1356.8</ele>
        <time>2022-06-11T06:54:37Z</time>
      </trkpt>
      <trkpt lat="42.8694490" lon="-5.4407430">
        <ele>1357.8</ele>
        <time>2022-06-11T06:54:42Z</time>
      </trkpt>
      <trkpt lat="42.8694520" lon="-5.4407370">
        <ele>1358.0</ele>
        <time>2022-06-11T06:54:43Z</time>
      </trkpt>
      <trkpt lat="42.8694710" lon="-5.4406840">
        <ele>1359.0</ele>
        <time>2022-06-11T06:54:48Z</time>
      </trkpt>
      <trkpt lat="42.8694750" lon="-5.4406670">
        <ele>1359.4</ele>
        <time>2022-06-11T06:54:50Z</time>
      </trkpt>
      <trkpt lat="42.8694840" lon="-5.4406380">
        <ele>1360.0</ele>
        <time>2022-06-11T06:54:53Z</time>
      </trkpt>
      <trkpt lat="42.8695120" lon="-5.4405830">
        <ele>1361.2</ele>
        <time>2022-06-11T06:54:59Z</time>
      </trkpt>
      <trkpt lat="42.8695410" lon="-5.4405440">
        <ele>1362.2</ele>
        <time>2022-06-11T06:55:05Z</time>
      </trkpt>
      <trkpt lat="42.8695450" lon="-5.4405390">
        <ele>1362.6</ele>
        <time>2022-06-11T06:55:06Z</time>
      </trkpt>
      <trkpt lat="42.8695650" lon="-5.4405140">
        <ele>1363.6</ele>
        <time>2022-06-11T06:55:10Z</time>
      </trkpt>
      <trkpt lat="42.8695750" lon="-5.4404720">
        <ele>1364.6</ele>
        <time>2022-06-11T06:55:15Z</time>
      </trkpt>
      <trkpt lat="42.8695770" lon="-5.4404630">
        <ele>1364.8</ele>
        <time>2022-06-11T06:55:16Z</time>
      </trkpt>
      <trkpt lat="42.8696000" lon="-5.4404190">
        <ele>1365.8</ele>
        <time>2022-06-11T06:55:21Z</time>
      </trkpt>
      <trkpt lat="42.8696160" lon="-5.4403950">
        <ele>1366.8</ele>
        <time>2022-06-11T06:55:24Z</time>
      </trkpt>
      <trkpt lat="42.8696200" lon="-5.4403890">
        <ele>1367.0</ele>
        <time>2022-06-11T06:55:25Z</time>
      </trkpt>
      <trkpt lat="42.8696420" lon="-5.4403570">
        <ele>1368.2</ele>
        <time>2022-06-11T06:55:30Z</time>
      </trkpt>
      <trkpt lat="42.8696560" lon="-5.4403410">
        <ele>1368.6</ele>
        <time>2022-06-11T06:55:33Z</time>
      </trkpt>
      <trkpt lat="42.8696640" lon="-5.4403310">
        <ele>1369.2</ele>
        <time>2022-06-11T06:55:35Z</time>
      </trkpt>
      <trkpt lat="42.8696890" lon="-5.4402750">
        <ele>1370.2</ele>
        <time>2022-06-11T06:55:41Z</time>
      </trkpt>
      <trkpt lat="42.8697070" lon="-5.4402280">
        <ele>1371.4</ele>
        <time>2022-06-11T06:55:47Z</time>
      </trkpt>
      <trkpt lat="42.8697090" lon="-5.4402200">
        <ele>1371.8</ele>
        <time>2022-06-11T06:55:48Z</time>
      </trkpt>
      <trkpt lat="42.8697250" lon="-5.4402050">
        <ele>1372.6</ele>
        <time>2022-06-11T06:55:51Z</time>
      </trkpt>
      <trkpt lat="42.8697400" lon="-5.4401890">
        <ele>1373.0</ele>
        <time>2022-06-11T06:55:54Z</time>
      </trkpt>
      <trkpt lat="42.8697540" lon="-5.4401710">
        <ele>1373.8</ele>
        <time>2022-06-11T06:55:57Z</time>
      </trkpt>
      <trkpt lat="42.8697890" lon="-5.4401300">
        <ele>1375.0</ele>
        <time>2022-06-11T06:56:03Z</time>
      </trkpt>
      <trkpt lat="42.8698030" lon="-5.4401080">
        <ele>1375.8</ele>
        <time>2022-06-11T06:56:06Z</time>
      </trkpt>
      <trkpt lat="42.8698050" lon="-5.4400890">
        <ele>1376.0</ele>
        <time>2022-06-11T06:56:08Z</time>
      </trkpt>
      <trkpt lat="42.8698100" lon="-5.4400460">
        <ele>1377.2</ele>
        <time>2022-06-11T06:56:13Z</time>
      </trkpt>
      <trkpt lat="42.8698110" lon="-5.4400360">
        <ele>1377.4</ele>
        <time>2022-06-11T06:56:14Z</time>
      </trkpt>
      <trkpt lat="42.8698250" lon="-5.4399780">
        <ele>1378.4</ele>
        <time>2022-06-11T06:56:20Z</time>
      </trkpt>
      <trkpt lat="42.8698270" lon="-5.4399450">
        <ele>1378.8</ele>
        <time>2022-06-11T06:56:23Z</time>
      </trkpt>
      <trkpt lat="42.8698440" lon="-5.4399040">
        <ele>1379.4</ele>
        <time>2022-06-11T06:56:27Z</time>
      </trkpt>
      <trkpt lat="42.8698570" lon="-5.4398770">
        <ele>1379.6</ele>
        <time>2022-06-11T06:56:29Z</time>
      </trkpt>
      <trkpt lat="42.8698620" lon="-5.4398570">
        <ele>1380.4</ele>
        <time>2022-06-11T06:56:31Z</time>
      </trkpt>
      <trkpt lat="42.8698630" lon="-5.4397980">
        <ele>1381.4</ele>
        <time>2022-06-11T06:56:37Z</time>
      </trkpt>
      <trkpt lat="42.8698690" lon="-5.4397900">
        <ele>1381.6</ele>
        <time>2022-06-11T06:56:38Z</time>
      </trkpt>
      <trkpt lat="42.8698650" lon="-5.4397660">
        <ele>1382.0</ele>
        <time>2022-06-11T06:56:40Z</time>
      </trkpt>
      <trkpt lat="42.8698700" lon="-5.4397320">
        <ele>1382.6</ele>
        <time>2022-06-11T06:56:43Z</time>
      </trkpt>
      <trkpt lat="42.8698760" lon="-5.4397170">
        <ele>1383.0</ele>
        <time>2022-06-11T06:56:45Z</time>
      </trkpt>
      <trkpt lat="42.8698980" lon="-5.4396970">
        <ele>1383.8</ele>
        <time>2022-06-11T06:56:49Z</time>
      </trkpt>
      <trkpt lat="42.8699180" lon="-5.4396740">
        <ele>1384.8</ele>
        <time>2022-06-11T06:56:53Z</time>
      </trkpt>
      <trkpt lat="42.8699310" lon="-5.4396520">
        <ele>1385.6</ele>
        <time>2022-06-11T06:56:57Z</time>
      </trkpt>
      <trkpt lat="42.8699370" lon="-5.4396320">
        <ele>1386.0</ele>
        <time>2022-06-11T06:56:59Z</time>
      </trkpt>
      <trkpt lat="42.8699510" lon="-5.4395970">
        <ele>1387.0</ele>
        <time>2022-06-11T06:57:04Z</time>
      </trkpt>
      <trkpt lat="42.8699690" lon="-5.4395450">
        <ele>1388.0</ele>
        <time>2022-06-11T06:57:10Z</time>
      </trkpt>
      <trkpt lat="42.8699690" lon="-5.4395400">
        <ele>1388.2</ele>
        <time>2022-06-11T06:57:11Z</time>
      </trkpt>
      <trkpt lat="42.8699840" lon="-5.4395230">
        <ele>1389.4</ele>
        <time>2022-06-11T06:57:15Z</time>
      </trkpt>
      <trkpt lat="42.8700010" lon="-5.4395070">
        <ele>1390.0</ele>
        <time>2022-06-11T06:57:18Z</time>
      </trkpt>
      <trkpt lat="42.8700110" lon="-5.4394890">
        <ele>1390.6</ele>
        <time>2022-06-11T06:57:20Z</time>
      </trkpt>
      <trkpt lat="42.8700310" lon="-5.4394400">
        <ele>1391.4</ele>
        <time>2022-06-11T06:57:25Z</time>
      </trkpt>
      <trkpt lat="42.8700400" lon="-5.4394220">
        <ele>1391.6</ele>
        <time>2022-06-11T06:57:27Z</time>
      </trkpt>
      <trkpt lat="42.8700490" lon="-5.4393820">
        <ele>1392.8</ele>
        <time>2022-06-11T06:57:31Z</time>
      </trkpt>
      <trkpt lat="42.8700490" lon="-5.4393740">
        <ele>1393.0</ele>
        <time>2022-06-11T06:57:32Z</time>
      </trkpt>
      <trkpt lat="42.8700670" lon="-5.4393250">
        <ele>1393.8</ele>
        <time>2022-06-11T06:57:37Z</time>
      </trkpt>
      <trkpt lat="42.8700770" lon="-5.4392820">
        <ele>1394.4</ele>
        <time>2022-06-11T06:57:41Z</time>
      </trkpt>
      <trkpt lat="42.8700790" lon="-5.4392500">
        <ele>1395.0</ele>
        <time>2022-06-11T06:57:44Z</time>
      </trkpt>
      <trkpt lat="42.8700830" lon="-5.4391950">
        <ele>1396.2</ele>
        <time>2022-06-11T06:57:49Z</time>
      </trkpt>
      <trkpt lat="42.8700860" lon="-5.4391850">
        <ele>1396.4</ele>
        <time>2022-06-11T06:57:50Z</time>
      </trkpt>
      <trkpt lat="42.8701020" lon="-5.4391440">
        <ele>1397.2</ele>
        <time>2022-06-11T06:57:54Z</time>
      </trkpt>
      <trkpt lat="42.8701190" lon="-5.4391280">
        <ele>1398.2</ele>
        <time>2022-06-11T06:57:58Z</time>
      </trkpt>
      <trkpt lat="42.8701190" lon="-5.4391180">
        <ele>1398.4</ele>
        <time>2022-06-11T06:57:59Z</time>
      </trkpt>
      <trkpt lat="42.8701310" lon="-5.4390580">
        <ele>1399.4</ele>
        <time>2022-06-11T06:58:04Z</time>
      </trkpt>
      <trkpt lat="42.8701360" lon="-5.4390500">
        <ele>1399.6</ele>
        <time>2022-06-11T06:58:05Z</time>
      </trkpt>
      <trkpt lat="42.8701550" lon="-5.4390060">
        <ele>1400.4</ele>
        <time>2022-06-11T06:58:10Z</time>
      </trkpt>
      <trkpt lat="42.8701650" lon="-5.4389750">
        <ele>1401.2</ele>
        <time>2022-06-11T06:58:13Z</time>
      </trkpt>
      <trkpt lat="42.8701760" lon="-5.4389510">
        <ele>1401.6</ele>
        <time>2022-06-11T06:58:16Z</time>
      </trkpt>
      <trkpt lat="42.8701940" lon="-5.4389070">
        <ele>1402.6</ele>
        <time>2022-06-11T06:58:20Z</time>
      </trkpt>
      <trkpt lat="42.8701990" lon="-5.4388810">
        <ele>1403.8</ele>
        <time>2022-06-11T06:58:23Z</time>
      </trkpt>
      <trkpt lat="42.8702150" lon="-5.4388090">
        <ele>1404.8</ele>
        <time>2022-06-11T06:58:29Z</time>
      </trkpt>
      <trkpt lat="42.8702200" lon="-5.4387770">
        <ele>1405.2</ele>
        <time>2022-06-11T06:58:32Z</time>
      </trkpt>
      <trkpt lat="42.8702260" lon="-5.4387110">
        <ele>1405.8</ele>
        <time>2022-06-11T06:58:37Z</time>
      </trkpt>
      <trkpt lat="42.8702260" lon="-5.4386970">
        <ele>1406.0</ele>
        <time>2022-06-11T06:58:39Z</time>
      </trkpt>
      <trkpt lat="42.8702330" lon="-5.4386520">
        <ele>1406.8</ele>
        <time>2022-06-11T06:58:43Z</time>
      </trkpt>
      <trkpt lat="42.8702360" lon="-5.4386290">
        <ele>1407.2</ele>
        <time>2022-06-11T06:58:45Z</time>
      </trkpt>
      <trkpt lat="42.8702390" lon="-5.4386040">
        <ele>1408.0</ele>
        <time>2022-06-11T06:58:47Z</time>
      </trkpt>
      <trkpt lat="42.8702530" lon="-5.4385680">
        <ele>1408.8</ele>
        <time>2022-06-11T06:58:51Z</time>
      </trkpt>
      <trkpt lat="42.8702580" lon="-5.4385560">
        <ele>1409.0</ele>
        <time>2022-06-11T06:58:52Z</time>
      </trkpt>
      <trkpt lat="42.8702830" lon="-5.4384860">
        <ele>1410.0</ele>
        <time>2022-06-11T06:58:58Z</time>
      </trkpt>
      <trkpt lat="42.8702950" lon="-5.4384540">
        <ele>1410.6</ele>
        <time>2022-06-11T06:59:01Z</time>
      </trkpt>
      <trkpt lat="42.8703030" lon="-5.4384330">
        <ele>1411.0</ele>
        <time>2022-06-11T06:59:03Z</time>
      </trkpt>
      <trkpt lat="42.8703310" lon="-5.4383860">
        <ele>1411.8</ele>
        <time>2022-06-11T06:59:08Z</time>
      </trkpt>
      <trkpt lat="42.8703380" lon="-5.4383640">
        <ele>1412.4</ele>
        <time>2022-06-11T06:59:10Z</time>
      </trkpt>
      <trkpt lat="42.8703450" lon="-5.4383460">
        <ele>1412.6</ele>
        <time>2022-06-11T06:59:12Z</time>
      </trkpt>
      <trkpt lat="42.8703460" lon="-5.4382860">
        <ele>1413.6</ele>
        <time>2022-06-11T06:59:16Z</time>
      </trkpt>
      <trkpt lat="42.8703560" lon="-5.4382410">
        <ele>1414.4</ele>
        <time>2022-06-11T06:59:20Z</time>
      </trkpt>
      <trkpt lat="42.8703580" lon="-5.4382290">
        <ele>1414.6</ele>
        <time>2022-06-11T06:59:21Z</time>
      </trkpt>
      <trkpt lat="42.8703660" lon="-5.4382150">
        <ele>1415.0</ele>
        <time>2022-06-11T06:59:23Z</time>
      </trkpt>
      <trkpt lat="42.8703840" lon="-5.4381820">
        <ele>1415.6</ele>
        <time>2022-06-11T06:59:26Z</time>
      </trkpt>
      <trkpt lat="42.8703870" lon="-5.4381740">
        <ele>1415.8</ele>
        <time>2022-06-11T06:59:27Z</time>
      </trkpt>
      <trkpt lat="42.8703990" lon="-5.4381400">
        <ele>1416.2</ele>
        <time>2022-06-11T06:59:30Z</time>
      </trkpt>
      <trkpt lat="42.8704070" lon="-5.4381090">
        <ele>1416.6</ele>
        <time>2022-06-11T06:59:32Z</time>
      </trkpt>
      <trkpt lat="42.8704080" lon="-5.4380910">
        <ele>1416.8</ele>
        <time>2022-06-11T06:59:34Z</time>
      </trkpt>
      <trkpt lat="42.8704100" lon="-5.4380810">
        <ele>1416.8</ele>
        <time>2022-06-11T06:59:35Z</time>
      </trkpt>
      <trkpt lat="42.8704170" lon="-5.4380570">
        <ele>1417.2</ele>
        <time>2022-06-11T06:59:37Z</time>
      </trkpt>
      <trkpt lat="42.8704310" lon="-5.4380130">
        <ele>1418.0</ele>
        <time>2022-06-11T06:59:41Z</time>
      </trkpt>
      <trkpt lat="42.8704410" lon="-5.4379700">
        <ele>1419.2</ele>
        <time>2022-06-11T06:59:45Z</time>
      </trkpt>
      <trkpt lat="42.8704550" lon="-5.4379250">
        <ele>1420.0</ele>
        <time>2022-06-11T06:59:49Z</time>
      </trkpt>
      <trkpt lat="42.8704640" lon="-5.4379020">
        <ele>1420.4</ele>
        <time>2022-06-11T06:59:51Z</time>
      </trkpt>
      <trkpt lat="42.8704810" lon="-5.4378780">
        <ele>1421.0</ele>
        <time>2022-06-11T06:59:54Z</time>
      </trkpt>
      <trkpt lat="42.8704960" lon="-5.4378600">
        <ele>1421.4</ele>
        <time>2022-06-11T06:59:56Z</time>
      </trkpt>
      <trkpt lat="42.8705010" lon="-5.4378480">
        <ele>1421.6</ele>
        <time>2022-06-11T06:59:57Z</time>
      </trkpt>
      <trkpt lat="42.8705200" lon="-5.4377980">
        <ele>1422.6</ele>
        <time>2022-06-11T07:00:02Z</time>
      </trkpt>
      <trkpt lat="42.8705310" lon="-5.4377820">
        <ele>1423.2</ele>
        <time>2022-06-11T07:00:04Z</time>
      </trkpt>
      <trkpt lat="42.8705400" lon="-5.4377470">
        <ele>1423.8</ele>
        <time>2022-06-11T07:00:07Z</time>
      </trkpt>
      <trkpt lat="42.8705530" lon="-5.4377090">
        <ele>1424.8</ele>
        <time>2022-06-11T07:00:11Z</time>
      </trkpt>
      <trkpt lat="42.8705580" lon="-5.4376980">
        <ele>1425.0</ele>
        <time>2022-06-11T07:00:12Z</time>
      </trkpt>
      <trkpt lat="42.8705850" lon="-5.4376440">
        <ele>1426.0</ele>
        <time>2022-06-11T07:00:19Z</time>
      </trkpt>
      <trkpt lat="42.8705890" lon="-5.4376360">
        <ele>1426.2</ele>
        <time>2022-06-11T07:00:20Z</time>
      </trkpt>
      <trkpt lat="42.8705980" lon="-5.4376000">
        <ele>1427.4</ele>
        <time>2022-06-11T07:00:24Z</time>
      </trkpt>
      <trkpt lat="42.8706040" lon="-5.4375820">
        <ele>1427.6</ele>
        <time>2022-06-11T07:00:26Z</time>
      </trkpt>
      <trkpt lat="42.8706190" lon="-5.4375490">
        <ele>1428.4</ele>
        <time>2022-06-11T07:00:30Z</time>
      </trkpt>
      <trkpt lat="42.8706300" lon="-5.4375210">
        <ele>1429.0</ele>
        <time>2022-06-11T07:00:33Z</time>
      </trkpt>
      <trkpt lat="42.8706410" lon="-5.4374940">
        <ele>1429.6</ele>
        <time>2022-06-11T07:00:36Z</time>
      </trkpt>
      <trkpt lat="42.8706610" lon="-5.4374700">
        <ele>1430.4</ele>
        <time>2022-06-11T07:00:40Z</time>
      </trkpt>
      <trkpt lat="42.8706660" lon="-5.4374620">
        <ele>1430.6</ele>
        <time>2022-06-11T07:00:41Z</time>
      </trkpt>
      <trkpt lat="42.8707110" lon="-5.4374090">
        <ele>1431.6</ele>
        <time>2022-06-11T07:00:48Z</time>
      </trkpt>
      <trkpt lat="42.8707020" lon="-5.4373930">
        <ele>1431.8</ele>
        <time>2022-06-11T07:00:49Z</time>
      </trkpt>
      <trkpt lat="42.8707180" lon="-5.4373680">
        <ele>1432.8</ele>
        <time>2022-06-11T07:00:52Z</time>
      </trkpt>
      <trkpt lat="42.8707330" lon="-5.4373220">
        <ele>1434.0</ele>
        <time>2022-06-11T07:00:57Z</time>
      </trkpt>
      <trkpt lat="42.8707520" lon="-5.4372740">
        <ele>1435.2</ele>
        <time>2022-06-11T07:01:03Z</time>
      </trkpt>
      <trkpt lat="42.8707530" lon="-5.4372630">
        <ele>1435.4</ele>
        <time>2022-06-11T07:01:04Z</time>
      </trkpt>
      <trkpt lat="42.8707700" lon="-5.4372060">
        <ele>1436.2</ele>
        <time>2022-06-11T07:01:09Z</time>
      </trkpt>
      <trkpt lat="42.8707870" lon="-5.4371600">
        <ele>1437.2</ele>
        <time>2022-06-11T07:01:13Z</time>
      </trkpt>
      <trkpt lat="42.8707890" lon="-5.4371520">
        <ele>1437.4</ele>
        <time>2022-06-11T07:01:14Z</time>
      </trkpt>
      <trkpt lat="42.8708050" lon="-5.4371290">
        <ele>1438.2</ele>
        <time>2022-06-11T07:01:19Z</time>
      </trkpt>
      <trkpt lat="42.8708090" lon="-5.4371250">
        <ele>1438.4</ele>
        <time>2022-06-11T07:01:21Z</time>
      </trkpt>
      <trkpt lat="42.8708290" lon="-5.4370820">
        <ele>1439.4</ele>
        <time>2022-06-11T07:01:27Z</time>
      </trkpt>
      <trkpt lat="42.8708310" lon="-5.4370720">
        <ele>1439.6</ele>
        <time>2022-06-11T07:01:28Z</time>
      </trkpt>
      <trkpt lat="42.8708410" lon="-5.4370300">
        <ele>1440.6</ele>
        <time>2022-06-11T07:01:32Z</time>
      </trkpt>
      <trkpt lat="42.8708520" lon="-5.4369880">
        <ele>1441.2</ele>
        <time>2022-06-11T07:01:35Z</time>
      </trkpt>
      <trkpt lat="42.8708730" lon="-5.4369430">
        <ele>1442.0</ele>
        <time>2022-06-11T07:01:40Z</time>
      </trkpt>
      <trkpt lat="42.8708820" lon="-5.4369290">
        <ele>1442.4</ele>
        <time>2022-06-11T07:01:42Z</time>
      </trkpt>
      <trkpt lat="42.8708930" lon="-5.4368880">
        <ele>1443.0</ele>
        <time>2022-06-11T07:01:45Z</time>
      </trkpt>
      <trkpt lat="42.8708970" lon="-5.4368620">
        <ele>1443.4</ele>
        <time>2022-06-11T07:01:47Z</time>
      </trkpt>
      <trkpt lat="42.8709060" lon="-5.4368240">
        <ele>1444.2</ele>
        <time>2022-06-11T07:01:50Z</time>
      </trkpt>
      <trkpt lat="42.8709220" lon="-5.4367720">
        <ele>1445.4</ele>
        <time>2022-06-11T07:01:55Z</time>
      </trkpt>
      <trkpt lat="42.8709310" lon="-5.4367570">
        <ele>1445.6</ele>
        <time>2022-06-11T07:01:57Z</time>
      </trkpt>
      <trkpt lat="42.8709430" lon="-5.4367340">
        <ele>1446.4</ele>
        <time>2022-06-11T07:02:00Z</time>
      </trkpt>
      <trkpt lat="42.8709570" lon="-5.4366800">
        <ele>1447.6</ele>
        <time>2022-06-11T07:02:06Z</time>
      </trkpt>
      <trkpt lat="42.8709570" lon="-5.4366780">
        <ele>1447.8</ele>
        <time>2022-06-11T07:02:07Z</time>
      </trkpt>
      <trkpt lat="42.8709630" lon="-5.4366090">
        <ele>1448.6</ele>
        <time>2022-06-11T07:02:17Z</time>
      </trkpt>
      <trkpt lat="42.8709830" lon="-5.4365090">
        <ele>1450.0</ele>
        <time>2022-06-11T07:02:24Z</time>
      </trkpt>
      <trkpt lat="42.8709930" lon="-5.4364890">
        <ele>1450.2</ele>
        <time>2022-06-11T07:02:26Z</time>
      </trkpt>
      <trkpt lat="42.8710040" lon="-5.4364420">
        <ele>1451.0</ele>
        <time>2022-06-11T07:02:30Z</time>
      </trkpt>
      <trkpt lat="42.8710160" lon="-5.4363950">
        <ele>1451.8</ele>
        <time>2022-06-11T07:02:35Z</time>
      </trkpt>
      <trkpt lat="42.8710190" lon="-5.4363860">
        <ele>1452.0</ele>
        <time>2022-06-11T07:02:36Z</time>
      </trkpt>
      <trkpt lat="42.8710350" lon="-5.4363460">
        <ele>1453.2</ele>
        <time>2022-06-11T07:02:41Z</time>
      </trkpt>
      <trkpt lat="42.8710450" lon="-5.4363320">
        <ele>1453.4</ele>
        <time>2022-06-11T07:02:43Z</time>
      </trkpt>
      <trkpt lat="42.8710560" lon="-5.4363070">
        <ele>1454.2</ele>
        <time>2022-06-11T07:02:45Z</time>
      </trkpt>
      <trkpt lat="42.8710620" lon="-5.4362880">
        <ele>1454.6</ele>
        <time>2022-06-11T07:02:47Z</time>
      </trkpt>
      <trkpt lat="42.8710670" lon="-5.4362510">
        <ele>1455.4</ele>
        <time>2022-06-11T07:02:50Z</time>
      </trkpt>
      <trkpt lat="42.8710670" lon="-5.4362380">
        <ele>1455.6</ele>
        <time>2022-06-11T07:02:51Z</time>
      </trkpt>
      <trkpt lat="42.8710850" lon="-5.4361940">
        <ele>1456.6</ele>
        <time>2022-06-11T07:02:55Z</time>
      </trkpt>
      <trkpt lat="42.8710980" lon="-5.4361330">
        <ele>1457.6</ele>
        <time>2022-06-11T07:03:00Z</time>
      </trkpt>
      <trkpt lat="42.8711030" lon="-5.4361120">
        <ele>1458.0</ele>
        <time>2022-06-11T07:03:02Z</time>
      </trkpt>
      <trkpt lat="42.8711090" lon="-5.4360770">
        <ele>1458.6</ele>
        <time>2022-06-11T07:03:06Z</time>
      </trkpt>
      <trkpt lat="42.8711140" lon="-5.4360430">
        <ele>1459.2</ele>
        <time>2022-06-11T07:03:09Z</time>
      </trkpt>
      <trkpt lat="42.8711270" lon="-5.4360060">
        <ele>1459.8</ele>
        <time>2022-06-11T07:03:13Z</time>
      </trkpt>
      <trkpt lat="42.8711290" lon="-5.4359960">
        <ele>1460.4</ele>
        <time>2022-06-11T07:03:17Z</time>
      </trkpt>
      <trkpt lat="42.8711390" lon="-5.4359440">
        <ele>1461.0</ele>
        <time>2022-06-11T07:03:22Z</time>
      </trkpt>
      <trkpt lat="42.8711420" lon="-5.4359360">
        <ele>1461.2</ele>
        <time>2022-06-11T07:03:23Z</time>
      </trkpt>
      <trkpt lat="42.8711630" lon="-5.4359180">
        <ele>1462.2</ele>
        <time>2022-06-11T07:03:28Z</time>
      </trkpt>
      <trkpt lat="42.8711730" lon="-5.4359080">
        <ele>1463.0</ele>
        <time>2022-06-11T07:03:30Z</time>
      </trkpt>
      <trkpt lat="42.8711770" lon="-5.4359070">
        <ele>1463.2</ele>
        <time>2022-06-11T07:03:31Z</time>
      </trkpt>
      <trkpt lat="42.8712030" lon="-5.4358920">
        <ele>1464.4</ele>
        <time>2022-06-11T07:03:37Z</time>
      </trkpt>
      <trkpt lat="42.8712260" lon="-5.4358830">
        <ele>1465.6</ele>
        <time>2022-06-11T07:03:42Z</time>
      </trkpt>
      <trkpt lat="42.8712490" lon="-5.4358910">
        <ele>1466.4</ele>
        <time>2022-06-11T07:03:46Z</time>
      </trkpt>
      <trkpt lat="42.8712560" lon="-5.4358950">
        <ele>1466.6</ele>
        <time>2022-06-11T07:03:47Z</time>
      </trkpt>
      <trkpt lat="42.8712770" lon="-5.4358890">
        <ele>1467.8</ele>
        <time>2022-06-11T07:03:52Z</time>
      </trkpt>
      <trkpt lat="42.8712990" lon="-5.4358890">
        <ele>1468.4</ele>
        <time>2022-06-11T07:03:55Z</time>
      </trkpt>
      <trkpt lat="42.8713130" lon="-5.4358880">
        <ele>1469.0</ele>
        <time>2022-06-11T07:03:58Z</time>
      </trkpt>
      <trkpt lat="42.8713330" lon="-5.4358900">
        <ele>1470.2</ele>
        <time>2022-06-11T07:04:02Z</time>
      </trkpt>
      <trkpt lat="42.8713500" lon="-5.4358970">
        <ele>1470.8</ele>
        <time>2022-06-11T07:04:05Z</time>
      </trkpt>
      <trkpt lat="42.8713670" lon="-5.4358950">
        <ele>1471.6</ele>
        <time>2022-06-11T07:04:09Z</time>
      </trkpt>
      <trkpt lat="42.8713790" lon="-5.4358930">
        <ele>1472.0</ele>
        <time>2022-06-11T07:04:12Z</time>
      </trkpt>
      <trkpt lat="42.8713850" lon="-5.4358910">
        <ele>1472.4</ele>
        <time>2022-06-11T07:04:13Z</time>
      </trkpt>
      <trkpt lat="42.8713960" lon="-5.4358920">
        <ele>1472.6</ele>
        <time>2022-06-11T07:04:15Z</time>
      </trkpt>
      <trkpt lat="42.8714170" lon="-5.4359010">
        <ele>1473.6</ele>
        <time>2022-06-11T07:04:19Z</time>
      </trkpt>
      <trkpt lat="42.8714320" lon="-5.4359000">
        <ele>1474.6</ele>
        <time>2022-06-11T07:04:23Z</time>
      </trkpt>
      <trkpt lat="42.8714360" lon="-5.4358990">
        <ele>1474.8</ele>
        <time>2022-06-11T07:04:24Z</time>
      </trkpt>
      <trkpt lat="42.8714540" lon="-5.4358920">
        <ele>1476.0</ele>
        <time>2022-06-11T07:04:28Z</time>
      </trkpt>
      <trkpt lat="42.8714790" lon="-5.4358890">
        <ele>1476.8</ele>
        <time>2022-06-11T07:04:33Z</time>
      </trkpt>
      <trkpt lat="42.8714840" lon="-5.4358880">
        <ele>1477.2</ele>
        <time>2022-06-11T07:04:34Z</time>
      </trkpt>
      <trkpt lat="42.8714990" lon="-5.4358940">
        <ele>1478.2</ele>
        <time>2022-06-11T07:04:38Z</time>
      </trkpt>
      <trkpt lat="42.8715030" lon="-5.4358920">
        <ele>1478.4</ele>
        <time>2022-06-11T07:04:39Z</time>
      </trkpt>
      <trkpt lat="42.8715240" lon="-5.4358680">
        <ele>1479.2</ele>
        <time>2022-06-11T07:04:44Z</time>
      </trkpt>
      <trkpt lat="42.8715400" lon="-5.4358640">
        <ele>1480.0</ele>
        <time>2022-06-11T07:04:47Z</time>
      </trkpt>
      <trkpt lat="42.8715430" lon="-5.4358640">
        <ele>1480.4</ele>
        <time>2022-06-11T07:04:48Z</time>
      </trkpt>
      <trkpt lat="42.8715630" lon="-5.4358780">
        <ele>1481.4</ele>
        <time>2022-06-11T07:04:53Z</time>
      </trkpt>
      <trkpt lat="42.8715680" lon="-5.4358780">
        <ele>1481.6</ele>
        <time>2022-06-11T07:04:54Z</time>
      </trkpt>
      <trkpt lat="42.8715970" lon="-5.4359000">
        <ele>1482.8</ele>
        <time>2022-06-11T07:05:00Z</time>
      </trkpt>
      <trkpt lat="42.8716080" lon="-5.4358980">
        <ele>1483.4</ele>
        <time>2022-06-11T07:05:02Z</time>
      </trkpt>
      <trkpt lat="42.8716230" lon="-5.4358780">
        <ele>1484.0</ele>
        <time>2022-06-11T07:05:06Z</time>
      </trkpt>
      <trkpt lat="42.8716350" lon="-5.4358790">
        <ele>1484.6</ele>
        <time>2022-06-11T07:05:08Z</time>
      </trkpt>
      <trkpt lat="42.8716410" lon="-5.4358780">
        <ele>1485.0</ele>
        <time>2022-06-11T07:05:10Z</time>
      </trkpt>
      <trkpt lat="42.8716580" lon="-5.4358810">
        <ele>1486.0</ele>
        <time>2022-06-11T07:05:14Z</time>
      </trkpt>
      <trkpt lat="42.8716650" lon="-5.4358830">
        <ele>1486.2</ele>
        <time>2022-06-11T07:05:15Z</time>
      </trkpt>
      <trkpt lat="42.8716890" lon="-5.4358810">
        <ele>1487.2</ele>
        <time>2022-06-11T07:05:19Z</time>
      </trkpt>
      <trkpt lat="42.8717020" lon="-5.4358730">
        <ele>1488.0</ele>
        <time>2022-06-11T07:05:22Z</time>
      </trkpt>
      <trkpt lat="42.8717100" lon="-5.4358740">
        <ele>1488.4</ele>
        <time>2022-06-11T07:05:24Z</time>
      </trkpt>
      <trkpt lat="42.8717360" lon="-5.4358670">
        <ele>1489.6</ele>
        <time>2022-06-11T07:05:29Z</time>
      </trkpt>
      <trkpt lat="42.8717400" lon="-5.4358710">
        <ele>1490.0</ele>
        <time>2022-06-11T07:05:30Z</time>
      </trkpt>
      <trkpt lat="42.8717540" lon="-5.4358860">
        <ele>1490.6</ele>
        <time>2022-06-11T07:05:33Z</time>
      </trkpt>
      <trkpt lat="42.8717690" lon="-5.4358930">
        <ele>1491.2</ele>
        <time>2022-06-11T07:05:36Z</time>
      </trkpt>
      <trkpt lat="42.8717750" lon="-5.4359030">
        <ele>1491.8</ele>
        <time>2022-06-11T07:05:38Z</time>
      </trkpt>
      <trkpt lat="42.8718040" lon="-5.4359330">
        <ele>1493.0</ele>
        <time>2022-06-11T07:05:44Z</time>
      </trkpt>
      <trkpt lat="42.8718230" lon="-5.4359200">
        <ele>1493.8</ele>
        <time>2022-06-11T07:05:47Z</time>
      </trkpt>
      <trkpt lat="42.8718260" lon="-5.4359170">
        <ele>1494.0</ele>
        <time>2022-06-11T07:05:48Z</time>
      </trkpt>
      <trkpt lat="42.8718420" lon="-5.4358890">
        <ele>1495.2</ele>
        <time>2022-06-11T07:05:53Z</time>
      </trkpt>
      <trkpt lat="42.8718530" lon="-5.4358800">
        <ele>1495.6</ele>
        <time>2022-06-11T07:05:55Z</time>
      </trkpt>
      <trkpt lat="42.8718620" lon="-5.4358810">
        <ele>1496.2</ele>
        <time>2022-06-11T07:05:58Z</time>
      </trkpt>
      <trkpt lat="42.8718700" lon="-5.4358950">
        <ele>1496.8</ele>
        <time>2022-06-11T07:06:00Z</time>
      </trkpt>
      <trkpt lat="42.8718810" lon="-5.4359110">
        <ele>1497.2</ele>
        <time>2022-06-11T07:06:02Z</time>
      </trkpt>
      <trkpt lat="42.8718850" lon="-5.4359160">
        <ele>1497.4</ele>
        <time>2022-06-11T07:06:03Z</time>
      </trkpt>
      <trkpt lat="42.8719060" lon="-5.4359360">
        <ele>1498.6</ele>
        <time>2022-06-11T07:06:07Z</time>
      </trkpt>
      <trkpt lat="42.8719220" lon="-5.4359540">
        <ele>1499.2</ele>
        <time>2022-06-11T07:06:10Z</time>
      </trkpt>
      <trkpt lat="42.8719310" lon="-5.4359620">
        <ele>1499.8</ele>
        <time>2022-06-11T07:06:12Z</time>
      </trkpt>
      <trkpt lat="42.8719490" lon="-5.4359460">
        <ele>1500.8</ele>
        <time>2022-06-11T07:06:16Z</time>
      </trkpt>
      <trkpt lat="42.8719770" lon="-5.4359130">
        <ele>1502.0</ele>
        <time>2022-06-11T07:06:21Z</time>
      </trkpt>
      <trkpt lat="42.8719890" lon="-5.4358700">
        <ele>1503.0</ele>
        <time>2022-06-11T07:06:25Z</time>
      </trkpt>
      <trkpt lat="42.8719910" lon="-5.4358650">
        <ele>1503.8</ele>
        <time>2022-06-11T07:06:30Z</time>
      </trkpt>
      <trkpt lat="42.8719970" lon="-5.4358670">
        <ele>1503.8</ele>
        <time>2022-06-11T07:06:31Z</time>
      </trkpt>
      <trkpt lat="42.8720140" lon="-5.4358770">
        <ele>1504.2</ele>
        <time>2022-06-11T07:06:34Z</time>
      </trkpt>
      <trkpt lat="42.8720280" lon="-5.4358890">
        <ele>1505.2</ele>
        <time>2022-06-11T07:06:37Z</time>
      </trkpt>
      <trkpt lat="42.8720340" lon="-5.4358950">
        <ele>1505.4</ele>
        <time>2022-06-11T07:06:38Z</time>
      </trkpt>
      <trkpt lat="42.8720600" lon="-5.4359150">
        <ele>1506.8</ele>
        <time>2022-06-11T07:06:43Z</time>
      </trkpt>
      <trkpt lat="42.8720690" lon="-5.4359110">
        <ele>1507.0</ele>
        <time>2022-06-11T07:06:44Z</time>
      </trkpt>
      <trkpt lat="42.8720850" lon="-5.4359050">
        <ele>1507.8</ele>
        <time>2022-06-11T07:06:47Z</time>
      </trkpt>
      <trkpt lat="42.8720920" lon="-5.4359020">
        <ele>1508.0</ele>
        <time>2022-06-11T07:06:48Z</time>
      </trkpt>
      <trkpt lat="42.8720990" lon="-5.4359160">
        <ele>1508.8</ele>
        <time>2022-06-11T07:06:52Z</time>
      </trkpt>
      <trkpt lat="42.8721190" lon="-5.4359420">
        <ele>1510.2</ele>
        <time>2022-06-11T07:06:56Z</time>
      </trkpt>
      <trkpt lat="42.8721270" lon="-5.4359520">
        <ele>1510.4</ele>
        <time>2022-06-11T07:06:58Z</time>
      </trkpt>
      <trkpt lat="42.8721430" lon="-5.4359640">
        <ele>1511.2</ele>
        <time>2022-06-11T07:07:01Z</time>
      </trkpt>
      <trkpt lat="42.8721590" lon="-5.4359710">
        <ele>1512.0</ele>
        <time>2022-06-11T07:07:05Z</time>
      </trkpt>
      <trkpt lat="42.8721740" lon="-5.4359630">
        <ele>1512.2</ele>
        <time>2022-06-11T07:07:07Z</time>
      </trkpt>
      <trkpt lat="42.8721850" lon="-5.4359520">
        <ele>1513.4</ele>
        <time>2022-06-11T07:07:10Z</time>
      </trkpt>
      <trkpt lat="42.8721890" lon="-5.4359490">
        <ele>1514.0</ele>
        <time>2022-06-11T07:07:12Z</time>
      </trkpt>
      <trkpt lat="42.8722040" lon="-5.4359290">
        <ele>1514.4</ele>
        <time>2022-06-11T07:07:16Z</time>
      </trkpt>
      <trkpt lat="42.8722130" lon="-5.4359150">
        <ele>1515.0</ele>
        <time>2022-06-11T07:07:19Z</time>
      </trkpt>
      <trkpt lat="42.8722210" lon="-5.4359090">
        <ele>1515.8</ele>
        <time>2022-06-11T07:07:21Z</time>
      </trkpt>
      <trkpt lat="42.8722320" lon="-5.4359250">
        <ele>1516.8</ele>
        <time>2022-06-11T07:07:25Z</time>
      </trkpt>
      <trkpt lat="42.8722370" lon="-5.4359330">
        <ele>1517.0</ele>
        <time>2022-06-11T07:07:26Z</time>
      </trkpt>
      <trkpt lat="42.8722580" lon="-5.4359620">
        <ele>1518.0</ele>
        <time>2022-06-11T07:07:31Z</time>
      </trkpt>
      <trkpt lat="42.8722700" lon="-5.4359540">
        <ele>1518.2</ele>
        <time>2022-06-11T07:07:33Z</time>
      </trkpt>
      <trkpt lat="42.8722820" lon="-5.4359320">
        <ele>1519.0</ele>
        <time>2022-06-11T07:07:36Z</time>
      </trkpt>
      <trkpt lat="42.8722990" lon="-5.4359150">
        <ele>1520.0</ele>
        <time>2022-06-11T07:07:39Z</time>
      </trkpt>
      <trkpt lat="42.8723020" lon="-5.4359160">
        <ele>1520.2</ele>
        <time>2022-06-11T07:07:40Z</time>
      </trkpt>
      <trkpt lat="42.8723160" lon="-5.4359350">
        <ele>1521.0</ele>
        <time>2022-06-11T07:07:45Z</time>
      </trkpt>
      <trkpt lat="42.8723230" lon="-5.4359370">
        <ele>1521.4</ele>
        <time>2022-06-11T07:07:47Z</time>
      </trkpt>
      <trkpt lat="42.8723350" lon="-5.4359430">
        <ele>1522.2</ele>
        <time>2022-06-11T07:07:53Z</time>
      </trkpt>
      <trkpt lat="42.8723530" lon="-5.4359400">
        <ele>1523.2</ele>
        <time>2022-06-11T07:07:57Z</time>
      </trkpt>
      <trkpt lat="42.8723790" lon="-5.4359480">
        <ele>1524.4</ele>
        <time>2022-06-11T07:08:02Z</time>
      </trkpt>
      <trkpt lat="42.8723910" lon="-5.4359520">
        <ele>1525.2</ele>
        <time>2022-06-11T07:08:05Z</time>
      </trkpt>
      <trkpt lat="42.8723930" lon="-5.4359540">
        <ele>1525.4</ele>
        <time>2022-06-11T07:08:06Z</time>
      </trkpt>
      <trkpt lat="42.8724230" lon="-5.4359650">
        <ele>1526.6</ele>
        <time>2022-06-11T07:08:12Z</time>
      </trkpt>
      <trkpt lat="42.8724300" lon="-5.4359570">
        <ele>1527.0</ele>
        <time>2022-06-11T07:08:14Z</time>
      </trkpt>
      <trkpt lat="42.8724410" lon="-5.4359610">
        <ele>1528.0</ele>
        <time>2022-06-11T07:08:18Z</time>
      </trkpt>
      <trkpt lat="42.8724630" lon="-5.4359700">
        <ele>1529.0</ele>
        <time>2022-06-11T07:08:23Z</time>
      </trkpt>
      <trkpt lat="42.8724690" lon="-5.4359780">
        <ele>1529.2</ele>
        <time>2022-06-11T07:08:24Z</time>
      </trkpt>
      <trkpt lat="42.8724750" lon="-5.4359840">
        <ele>1529.4</ele>
        <time>2022-06-11T07:08:25Z</time>
      </trkpt>
      <trkpt lat="42.8724830" lon="-5.4359930">
        <ele>1530.2</ele>
        <time>2022-06-11T07:08:27Z</time>
      </trkpt>
      <trkpt lat="42.8724860" lon="-5.4359930">
        <ele>1530.4</ele>
        <time>2022-06-11T07:08:28Z</time>
      </trkpt>
      <trkpt lat="42.8724910" lon="-5.4359920">
        <ele>1530.6</ele>
        <time>2022-06-11T07:08:29Z</time>
      </trkpt>
      <trkpt lat="42.8725050" lon="-5.4359960">
        <ele>1531.4</ele>
        <time>2022-06-11T07:08:33Z</time>
      </trkpt>
      <trkpt lat="42.8725300" lon="-5.4359700">
        <ele>1532.8</ele>
        <time>2022-06-11T07:08:38Z</time>
      </trkpt>
      <trkpt lat="42.8725440" lon="-5.4359740">
        <ele>1534.0</ele>
        <time>2022-06-11T07:08:44Z</time>
      </trkpt>
      <trkpt lat="42.8725480" lon="-5.4359790">
        <ele>1534.2</ele>
        <time>2022-06-11T07:08:45Z</time>
      </trkpt>
      <trkpt lat="42.8725520" lon="-5.4359870">
        <ele>1534.8</ele>
        <time>2022-06-11T07:08:52Z</time>
      </trkpt>
      <trkpt lat="42.8725520" lon="-5.4359870">
        <ele>1535.2</ele>
        <time>2022-06-11T07:08:53Z</time>
      </trkpt>
      <trkpt lat="42.8725520" lon="-5.4359870">
        <ele>1536.4</ele>
        <time>2022-06-11T07:08:58Z</time>
      </trkpt>
      <trkpt lat="42.8725580" lon="-5.4359830">
        <ele>1537.8</ele>
        <time>2022-06-11T07:09:04Z</time>
      </trkpt>
      <trkpt lat="42.8725930" lon="-5.4359520">
        <ele>1538.8</ele>
        <time>2022-06-11T07:09:08Z</time>
      </trkpt>
      <trkpt lat="42.8726130" lon="-5.4359410">
        <ele>1539.4</ele>
        <time>2022-06-11T07:09:10Z</time>
      </trkpt>
      <trkpt lat="42.8726360" lon="-5.4359330">
        <ele>1539.8</ele>
        <time>2022-06-11T07:09:12Z</time>
      </trkpt>
      <trkpt lat="42.8726580" lon="-5.4359260">
        <ele>1540.8</ele>
        <time>2022-06-11T07:09:16Z</time>
      </trkpt>
      <trkpt lat="42.8726600" lon="-5.4359250">
        <ele>1541.0</ele>
        <time>2022-06-11T07:09:17Z</time>
      </trkpt>
      <trkpt lat="42.8726810" lon="-5.4359250">
        <ele>1542.0</ele>
        <time>2022-06-11T07:09:22Z</time>
      </trkpt>
      <trkpt lat="42.8726840" lon="-5.4359190">
        <ele>1542.2</ele>
        <time>2022-06-11T07:09:24Z</time>
      </trkpt>
      <trkpt lat="42.8727040" lon="-5.4359000">
        <ele>1543.2</ele>
        <time>2022-06-11T07:09:28Z</time>
      </trkpt>
      <trkpt lat="42.8727230" lon="-5.4358860">
        <ele>1544.2</ele>
        <time>2022-06-11T07:09:32Z</time>
      </trkpt>
      <trkpt lat="42.8727260" lon="-5.4358790">
        <ele>1544.8</ele>
        <time>2022-06-11T07:09:34Z</time>
      </trkpt>
      <trkpt lat="42.8727280" lon="-5.4358860">
        <ele>1545.4</ele>
        <time>2022-06-11T07:09:38Z</time>
      </trkpt>
      <trkpt lat="42.8727430" lon="-5.4359170">
        <ele>1546.0</ele>
        <time>2022-06-11T07:09:42Z</time>
      </trkpt>
      <trkpt lat="42.8727520" lon="-5.4359250">
        <ele>1546.4</ele>
        <time>2022-06-11T07:09:44Z</time>
      </trkpt>
      <trkpt lat="42.8727770" lon="-5.4359360">
        <ele>1547.6</ele>
        <time>2022-06-11T07:09:49Z</time>
      </trkpt>
      <trkpt lat="42.8727770" lon="-5.4359360">
        <ele>1548.0</ele>
        <time>2022-06-11T07:09:50Z</time>
      </trkpt>
      <trkpt lat="42.8727790" lon="-5.4359250">
        <ele>1548.6</ele>
        <time>2022-06-11T07:09:57Z</time>
      </trkpt>
      <trkpt lat="42.8727830" lon="-5.4359270">
        <ele>1548.8</ele>
        <time>2022-06-11T07:09:58Z</time>
      </trkpt>
      <trkpt lat="42.8727890" lon="-5.4359330">
        <ele>1549.8</ele>
        <time>2022-06-11T07:10:10Z</time>
      </trkpt>
      <trkpt lat="42.8727850" lon="-5.4359290">
        <ele>1549.8</ele>
        <time>2022-06-11T07:10:19Z</time>
      </trkpt>
      <trkpt lat="42.8727730" lon="-5.4359220">
        <ele>1549.8</ele>
        <time>2022-06-11T07:10:34Z</time>
      </trkpt>
      <trkpt lat="42.8727710" lon="-5.4359200">
        <ele>1549.8</ele>
        <time>2022-06-11T07:10:35Z</time>
      </trkpt>
      <trkpt lat="42.8727690" lon="-5.4359180">
        <ele>1549.8</ele>
        <time>2022-06-11T07:10:37Z</time>
      </trkpt>
      <trkpt lat="42.8727660" lon="-5.4359130">
        <ele>1549.6</ele>
        <time>2022-06-11T07:10:44Z</time>
      </trkpt>
      <trkpt lat="42.8727650" lon="-5.4359130">
        <ele>1549.6</ele>
        <time>2022-06-11T07:10:46Z</time>
      </trkpt>
      <trkpt lat="42.8727640" lon="-5.4359130">
        <ele>1549.6</ele>
        <time>2022-06-11T07:10:48Z</time>
      </trkpt>
      <trkpt lat="42.8727640" lon="-5.4359130">
        <ele>1549.6</ele>
        <time>2022-06-11T07:10:50Z</time>
      </trkpt>
      <trkpt lat="42.8727640" lon="-5.4359130">
        <ele>1549.6</ele>
        <time>2022-06-11T07:10:54Z</time>
      </trkpt>
      <trkpt lat="42.8727640" lon="-5.4359140">
        <ele>1549.6</ele>
        <time>2022-06-11T07:10:56Z</time>
      </trkpt>
      <trkpt lat="42.8727650" lon="-5.4359380">
        <ele>1550.4</ele>
        <time>2022-06-11T07:11:05Z</time>
      </trkpt>
      <trkpt lat="42.8727660" lon="-5.4359400">
        <ele>1550.8</ele>
        <time>2022-06-11T07:11:08Z</time>
      </trkpt>
      <trkpt lat="42.8727680" lon="-5.4359410">
        <ele>1551.0</ele>
        <time>2022-06-11T07:11:09Z</time>
      </trkpt>
      <trkpt lat="42.8727810" lon="-5.4359450">
        <ele>1551.8</ele>
        <time>2022-06-11T07:11:15Z</time>
      </trkpt>
      <trkpt lat="42.8727890" lon="-5.4359460">
        <ele>1553.0</ele>
        <time>2022-06-11T07:11:20Z</time>
      </trkpt>
      <trkpt lat="42.8728030" lon="-5.4359490">
        <ele>1554.0</ele>
        <time>2022-06-11T07:11:25Z</time>
      </trkpt>
      <trkpt lat="42.8728280" lon="-5.4359520">
        <ele>1555.0</ele>
        <time>2022-06-11T07:11:31Z</time>
      </trkpt>
      <trkpt lat="42.8728560" lon="-5.4359790">
        <ele>1556.2</ele>
        <time>2022-06-11T07:11:35Z</time>
      </trkpt>
      <trkpt lat="42.8728780" lon="-5.4359800">
        <ele>1557.2</ele>
        <time>2022-06-11T07:11:39Z</time>
      </trkpt>
      <trkpt lat="42.8728930" lon="-5.4359800">
        <ele>1558.0</ele>
        <time>2022-06-11T07:11:41Z</time>
      </trkpt>
      <trkpt lat="42.8729000" lon="-5.4359830">
        <ele>1558.4</ele>
        <time>2022-06-11T07:11:43Z</time>
      </trkpt>
      <trkpt lat="42.8729010" lon="-5.4359920">
        <ele>1559.0</ele>
        <time>2022-06-11T07:11:47Z</time>
      </trkpt>
      <trkpt lat="42.8729050" lon="-5.4359970">
        <ele>1559.4</ele>
        <time>2022-06-11T07:11:49Z</time>
      </trkpt>
      <trkpt lat="42.8729190" lon="-5.4360070">
        <ele>1560.6</ele>
        <time>2022-06-11T07:11:53Z</time>
      </trkpt>
      <trkpt lat="42.8729340" lon="-5.4360150">
        <ele>1561.4</ele>
        <time>2022-06-11T07:11:56Z</time>
      </trkpt>
      <trkpt lat="42.8729430" lon="-5.4360150">
        <ele>1561.8</ele>
        <time>2022-06-11T07:11:57Z</time>
      </trkpt>
      <trkpt lat="42.8729590" lon="-5.4360000">
        <ele>1562.8</ele>
        <time>2022-06-11T07:12:01Z</time>
      </trkpt>
      <trkpt lat="42.8729580" lon="-5.4359890">
        <ele>1563.2</ele>
        <time>2022-06-11T07:12:02Z</time>
      </trkpt>
      <trkpt lat="42.8729520" lon="-5.4359520">
        <ele>1564.0</ele>
        <time>2022-06-11T07:12:06Z</time>
      </trkpt>
      <trkpt lat="42.8729540" lon="-5.4359440">
        <ele>1564.2</ele>
        <time>2022-06-11T07:12:07Z</time>
      </trkpt>
      <trkpt lat="42.8729660" lon="-5.4359400">
        <ele>1564.8</ele>
        <time>2022-06-11T07:12:10Z</time>
      </trkpt>
      <trkpt lat="42.8729650" lon="-5.4359440">
        <ele>1565.2</ele>
        <time>2022-06-11T07:12:12Z</time>
      </trkpt>
      <trkpt lat="42.8729650" lon="-5.4359600">
        <ele>1565.8</ele>
        <time>2022-06-11T07:12:16Z</time>
      </trkpt>
      <trkpt lat="42.8729680" lon="-5.4359720">
        <ele>1566.4</ele>
        <time>2022-06-11T07:12:19Z</time>
      </trkpt>
      <trkpt lat="42.8729620" lon="-5.4359790">
        <ele>1566.6</ele>
        <time>2022-06-11T07:12:23Z</time>
      </trkpt>
      <trkpt lat="42.8729580" lon="-5.4359870">
        <ele>1566.6</ele>
        <time>2022-06-11T07:12:30Z</time>
      </trkpt>
      <trkpt lat="42.8729600" lon="-5.4359870">
        <ele>1567.6</ele>
        <time>2022-06-11T07:12:38Z</time>
      </trkpt>
      <trkpt lat="42.8729690" lon="-5.4360000">
        <ele>1568.6</ele>
        <time>2022-06-11T07:12:49Z</time>
      </trkpt>
      <trkpt lat="42.8729720" lon="-5.4360000">
        <ele>1568.6</ele>
        <time>2022-06-11T07:12:50Z</time>
      </trkpt>
      <trkpt lat="42.8729810" lon="-5.4360000">
        <ele>1569.8</ele>
        <time>2022-06-11T07:12:57Z</time>
      </trkpt>
      <trkpt lat="42.8730090" lon="-5.4359990">
        <ele>1570.2</ele>
        <time>2022-06-11T07:13:07Z</time>
      </trkpt>
      <trkpt lat="42.8730110" lon="-5.4359980">
        <ele>1570.2</ele>
        <time>2022-06-11T07:13:12Z</time>
      </trkpt>
      <trkpt lat="42.8730110" lon="-5.4359980">
        <ele>1570.2</ele>
        <time>2022-06-11T07:13:14Z</time>
      </trkpt>
      <trkpt lat="42.8730110" lon="-5.4359910">
        <ele>1570.0</ele>
        <time>2022-06-11T07:13:24Z</time>
      </trkpt>
      <trkpt lat="42.8730110" lon="-5.4359890">
        <ele>1570.0</ele>
        <time>2022-06-11T07:13:25Z</time>
      </trkpt>
      <trkpt lat="42.8730110" lon="-5.4359860">
        <ele>1570.0</ele>
        <time>2022-06-11T07:13:26Z</time>
      </trkpt>
      <trkpt lat="42.8730110" lon="-5.4359850">
        <ele>1570.0</ele>
        <time>2022-06-11T07:13:27Z</time>
      </trkpt>
      <trkpt lat="42.8730100" lon="-5.4359820">
        <ele>1570.0</ele>
        <time>2022-06-11T07:13:28Z</time>
      </trkpt>
      <trkpt lat="42.8730090" lon="-5.4359810">
        <ele>1570.0</ele>
        <time>2022-06-11T07:13:30Z</time>
      </trkpt>
      <trkpt lat="42.8730090" lon="-5.4359790">
        <ele>1570.2</ele>
        <time>2022-06-11T07:13:31Z</time>
      </trkpt>
      <trkpt lat="42.8729990" lon="-5.4359630">
        <ele>1569.2</ele>
        <time>2022-06-11T07:13:47Z</time>
      </trkpt>
      <trkpt lat="42.8729900" lon="-5.4359630">
        <ele>1568.8</ele>
        <time>2022-06-11T07:13:51Z</time>
      </trkpt>
      <trkpt lat="42.8729880" lon="-5.4359660">
        <ele>1568.0</ele>
        <time>2022-06-11T07:14:01Z</time>
      </trkpt>
      <trkpt lat="42.8729880" lon="-5.4359690">
        <ele>1568.0</ele>
        <time>2022-06-11T07:14:07Z</time>
      </trkpt>
      <trkpt lat="42.8729880" lon="-5.4359700">
        <ele>1568.2</ele>
        <time>2022-06-11T07:14:13Z</time>
      </trkpt>
      <trkpt lat="42.8729890" lon="-5.4359710">
        <ele>1568.4</ele>
        <time>2022-06-11T07:14:17Z</time>
      </trkpt>
      <trkpt lat="42.8729890" lon="-5.4359720">
        <ele>1568.4</ele>
        <time>2022-06-11T07:14:22Z</time>
      </trkpt>
      <trkpt lat="42.8729890" lon="-5.4359720">
        <ele>1568.4</ele>
        <time>2022-06-11T07:14:24Z</time>
      </trkpt>
      <trkpt lat="42.8729890" lon="-5.4359720">
        <ele>1568.4</ele>
        <time>2022-06-11T07:14:31Z</time>
      </trkpt>
      <trkpt lat="42.8729850" lon="-5.4359820">
        <ele>1568.0</ele>
        <time>2022-06-11T07:14:58Z</time>
      </trkpt>
      <trkpt lat="42.8729850" lon="-5.4359820">
        <ele>1568.0</ele>
        <time>2022-06-11T07:15:02Z</time>
      </trkpt>
      <trkpt lat="42.8729860" lon="-5.4359810">
        <ele>1568.0</ele>
        <time>2022-06-11T07:15:20Z</time>
      </trkpt>
      <trkpt lat="42.8729840" lon="-5.4359800">
        <ele>1568.0</ele>
        <time>2022-06-11T07:15:35Z</time>
      </trkpt>
      <trkpt lat="42.8729830" lon="-5.4359790">
        <ele>1567.4</ele>
        <time>2022-06-11T07:15:39Z</time>
      </trkpt>
      <trkpt lat="42.8729820" lon="-5.4359780">
        <ele>1566.4</ele>
        <time>2022-06-11T07:15:45Z</time>
      </trkpt>
      <trkpt lat="42.8729820" lon="-5.4359780">
        <ele>1566.4</ele>
        <time>2022-06-11T07:15:46Z</time>
      </trkpt>
      <trkpt lat="42.8729820" lon="-5.4359770">
        <ele>1566.0</ele>
        <time>2022-06-11T07:15:50Z</time>
      </trkpt>
      <trkpt lat="42.8729810" lon="-5.4359770">
        <ele>1565.8</ele>
        <time>2022-06-11T07:16:02Z</time>
      </trkpt>
      <trkpt lat="42.8729810" lon="-5.4359760">
        <ele>1565.2</ele>
        <time>2022-06-11T07:16:07Z</time>
      </trkpt>
      <trkpt lat="42.8729810" lon="-5.4359760">
        <ele>1564.2</ele>
        <time>2022-06-11T07:16:12Z</time>
      </trkpt>
      <trkpt lat="42.8729810" lon="-5.4359760">
        <ele>1564.0</ele>
        <time>2022-06-11T07:16:13Z</time>
      </trkpt>
      <trkpt lat="42.8729790" lon="-5.4359760">
        <ele>1562.8</ele>
        <time>2022-06-11T07:16:25Z</time>
      </trkpt>
      <trkpt lat="42.8729780" lon="-5.4359770">
        <ele>1562.2</ele>
        <time>2022-06-11T07:16:35Z</time>
      </trkpt>
      <trkpt lat="42.8729760" lon="-5.4359770">
        <ele>1561.8</ele>
        <time>2022-06-11T07:16:47Z</time>
      </trkpt>
      <trkpt lat="42.8729740" lon="-5.4359770">
        <ele>1561.8</ele>
        <time>2022-06-11T07:17:04Z</time>
      </trkpt>
      <trkpt lat="42.8729720" lon="-5.4359770">
        <ele>1561.8</ele>
        <time>2022-06-11T07:17:11Z</time>
      </trkpt>
      <trkpt lat="42.8729720" lon="-5.4359770">
        <ele>1561.6</ele>
        <time>2022-06-11T07:17:15Z</time>
      </trkpt>
      <trkpt lat="42.8729710" lon="-5.4359770">
        <ele>1561.6</ele>
        <time>2022-06-11T07:17:16Z</time>
      </trkpt>
      <trkpt lat="42.8729620" lon="-5.4359720">
        <ele>1561.4</ele>
        <time>2022-06-11T07:18:06Z</time>
      </trkpt>
      <trkpt lat="42.8728760" lon="-5.4358270">
        <ele>1561.0</ele>
        <time>2022-06-11T07:18:29Z</time>
      </trkpt>
      <trkpt lat="42.8728420" lon="-5.4357730">
        <ele>1560.6</ele>
        <time>2022-06-11T07:18:31Z</time>
      </trkpt>
      <trkpt lat="42.8728100" lon="-5.4357230">
        <ele>1559.6</ele>
        <time>2022-06-11T07:18:33Z</time>
      </trkpt>
      <trkpt lat="42.8727870" lon="-5.4357030">
        <ele>1559.0</ele>
        <time>2022-06-11T07:18:36Z</time>
      </trkpt>
      <trkpt lat="42.8727870" lon="-5.4356960">
        <ele>1558.8</ele>
        <time>2022-06-11T07:18:44Z</time>
      </trkpt>
      <trkpt lat="42.8727870" lon="-5.4356960">
        <ele>1558.6</ele>
        <time>2022-06-11T07:18:52Z</time>
      </trkpt>
      <trkpt lat="42.8727920" lon="-5.4357000">
        <ele>1558.4</ele>
        <time>2022-06-11T07:19:01Z</time>
      </trkpt>
      <trkpt lat="42.8727940" lon="-5.4357010">
        <ele>1558.2</ele>
        <time>2022-06-11T07:19:06Z</time>
      </trkpt>
      <trkpt lat="42.8727950" lon="-5.4357030">
        <ele>1557.6</ele>
        <time>2022-06-11T07:19:14Z</time>
      </trkpt>
      <trkpt lat="42.8727950" lon="-5.4357060">
        <ele>1557.2</ele>
        <time>2022-06-11T07:19:17Z</time>
      </trkpt>
      <trkpt lat="42.8727940" lon="-5.4357100">
        <ele>1557.0</ele>
        <time>2022-06-11T07:19:18Z</time>
      </trkpt>
      <trkpt lat="42.8727940" lon="-5.4357160">
        <ele>1556.8</ele>
        <time>2022-06-11T07:19:19Z</time>
      </trkpt>
      <trkpt lat="42.8727940" lon="-5.4357250">
        <ele>1556.6</ele>
        <time>2022-06-11T07:19:21Z</time>
      </trkpt>
      <trkpt lat="42.8727930" lon="-5.4357410">
        <ele>1556.4</ele>
        <time>2022-06-11T07:19:23Z</time>
      </trkpt>
      <trkpt lat="42.8727800" lon="-5.4357110">
        <ele>1555.6</ele>
        <time>2022-06-11T07:19:30Z</time>
      </trkpt>
      <trkpt lat="42.8727810" lon="-5.4357090">
        <ele>1555.4</ele>
        <time>2022-06-11T07:19:32Z</time>
      </trkpt>
      <trkpt lat="42.8727810" lon="-5.4357090">
        <ele>1555.2</ele>
        <time>2022-06-11T07:19:41Z</time>
      </trkpt>
      <trkpt lat="42.8727860" lon="-5.4356600">
        <ele>1554.4</ele>
        <time>2022-06-11T07:19:56Z</time>
      </trkpt>
      <trkpt lat="42.8727810" lon="-5.4356480">
        <ele>1553.8</ele>
        <time>2022-06-11T07:20:09Z</time>
      </trkpt>
      <trkpt lat="42.8727710" lon="-5.4356370">
        <ele>1553.4</ele>
        <time>2022-06-11T07:20:19Z</time>
      </trkpt>
      <trkpt lat="42.8727570" lon="-5.4356210">
        <ele>1552.4</ele>
        <time>2022-06-11T07:20:30Z</time>
      </trkpt>
      <trkpt lat="42.8727550" lon="-5.4356180">
        <ele>1552.4</ele>
        <time>2022-06-11T07:20:32Z</time>
      </trkpt>
      <trkpt lat="42.8727470" lon="-5.4356000">
        <ele>1552.4</ele>
        <time>2022-06-11T07:20:36Z</time>
      </trkpt>
      <trkpt lat="42.8727370" lon="-5.4355650">
        <ele>1552.4</ele>
        <time>2022-06-11T07:20:41Z</time>
      </trkpt>
      <trkpt lat="42.8727300" lon="-5.4354910">
        <ele>1553.4</ele>
        <time>2022-06-11T07:20:51Z</time>
      </trkpt>
      <trkpt lat="42.8727320" lon="-5.4354770">
        <ele>1553.4</ele>
        <time>2022-06-11T07:20:52Z</time>
      </trkpt>
      <trkpt lat="42.8727520" lon="-5.4353910">
        <ele>1554.6</ele>
        <time>2022-06-11T07:21:00Z</time>
      </trkpt>
      <trkpt lat="42.8727690" lon="-5.4353160">
        <ele>1555.6</ele>
        <time>2022-06-11T07:21:07Z</time>
      </trkpt>
      <trkpt lat="42.8727680" lon="-5.4353100">
        <ele>1555.8</ele>
        <time>2022-06-11T07:21:08Z</time>
      </trkpt>
      <trkpt lat="42.8727590" lon="-5.4353020">
        <ele>1556.2</ele>
        <time>2022-06-11T07:21:14Z</time>
      </trkpt>
      <trkpt lat="42.8727600" lon="-5.4353040">
        <ele>1556.2</ele>
        <time>2022-06-11T07:21:15Z</time>
      </trkpt>
      <trkpt lat="42.8727570" lon="-5.4353040">
        <ele>1555.8</ele>
        <time>2022-06-11T07:21:26Z</time>
      </trkpt>
      <trkpt lat="42.8727570" lon="-5.4353040">
        <ele>1555.6</ele>
        <time>2022-06-11T07:21:30Z</time>
      </trkpt>
      <trkpt lat="42.8727510" lon="-5.4352520">
        <ele>1555.4</ele>
        <time>2022-06-11T07:21:46Z</time>
      </trkpt>
      <trkpt lat="42.8727490" lon="-5.4352450">
        <ele>1554.6</ele>
        <time>2022-06-11T07:21:51Z</time>
      </trkpt>
      <trkpt lat="42.8727410" lon="-5.4352350">
        <ele>1554.0</ele>
        <time>2022-06-11T07:21:55Z</time>
      </trkpt>
      <trkpt lat="42.8727390" lon="-5.4352340">
        <ele>1553.6</ele>
        <time>2022-06-11T07:21:58Z</time>
      </trkpt>
      <trkpt lat="42.8727390" lon="-5.4352330">
        <ele>1553.6</ele>
        <time>2022-06-11T07:21:59Z</time>
      </trkpt>
      <trkpt lat="42.8727180" lon="-5.4352230">
        <ele>1552.8</ele>
        <time>2022-06-11T07:22:09Z</time>
      </trkpt>
      <trkpt lat="42.8727110" lon="-5.4352160">
        <ele>1552.6</ele>
        <time>2022-06-11T07:22:11Z</time>
      </trkpt>
      <trkpt lat="42.8726890" lon="-5.4352010">
        <ele>1551.6</ele>
        <time>2022-06-11T07:22:22Z</time>
      </trkpt>
      <trkpt lat="42.8726860" lon="-5.4352000">
        <ele>1551.4</ele>
        <time>2022-06-11T07:22:24Z</time>
      </trkpt>
      <trkpt lat="42.8726560" lon="-5.4351520">
        <ele>1550.8</ele>
        <time>2022-06-11T07:22:48Z</time>
      </trkpt>
      <trkpt lat="42.8726600" lon="-5.4351440">
        <ele>1550.8</ele>
        <time>2022-06-11T07:22:52Z</time>
      </trkpt>
      <trkpt lat="42.8726700" lon="-5.4351420">
        <ele>1551.0</ele>
        <time>2022-06-11T07:23:07Z</time>
      </trkpt>
      <trkpt lat="42.8726710" lon="-5.4351430">
        <ele>1551.2</ele>
        <time>2022-06-11T07:23:14Z</time>
      </trkpt>
      <trkpt lat="42.8726720" lon="-5.4351470">
        <ele>1551.2</ele>
        <time>2022-06-11T07:23:16Z</time>
      </trkpt>
      <trkpt lat="42.8726710" lon="-5.4351510">
        <ele>1551.2</ele>
        <time>2022-06-11T07:23:18Z</time>
      </trkpt>
      <trkpt lat="42.8726670" lon="-5.4351580">
        <ele>1551.0</ele>
        <time>2022-06-11T07:23:28Z</time>
      </trkpt>
      <trkpt lat="42.8726610" lon="-5.4351600">
        <ele>1551.2</ele>
        <time>2022-06-11T07:23:37Z</time>
      </trkpt>
      <trkpt lat="42.8726610" lon="-5.4351600">
        <ele>1551.0</ele>
        <time>2022-06-11T07:23:46Z</time>
      </trkpt>
      <trkpt lat="42.8726900" lon="-5.4351560">
        <ele>1552.6</ele>
        <time>2022-06-11T07:24:03Z</time>
      </trkpt>
      <trkpt lat="42.8726950" lon="-5.4351550">
        <ele>1553.8</ele>
        <time>2022-06-11T07:24:08Z</time>
      </trkpt>
      <trkpt lat="42.8726980" lon="-5.4351530">
        <ele>1554.8</ele>
        <time>2022-06-11T07:24:12Z</time>
      </trkpt>
      <trkpt lat="42.8727040" lon="-5.4351440">
        <ele>1555.8</ele>
        <time>2022-06-11T07:24:18Z</time>
      </trkpt>
      <trkpt lat="42.8727090" lon="-5.4351420">
        <ele>1556.8</ele>
        <time>2022-06-11T07:24:21Z</time>
      </trkpt>
      <trkpt lat="42.8727170" lon="-5.4351400">
        <ele>1558.0</ele>
        <time>2022-06-11T07:24:25Z</time>
      </trkpt>
      <trkpt lat="42.8727240" lon="-5.4351390">
        <ele>1559.0</ele>
        <time>2022-06-11T07:24:29Z</time>
      </trkpt>
      <trkpt lat="42.8727330" lon="-5.4351380">
        <ele>1560.2</ele>
        <time>2022-06-11T07:24:35Z</time>
      </trkpt>
      <trkpt lat="42.8727810" lon="-5.4350390">
        <ele>1561.0</ele>
        <time>2022-06-11T07:24:44Z</time>
      </trkpt>
      <trkpt lat="42.8728070" lon="-5.4349810">
        <ele>1561.2</ele>
        <time>2022-06-11T07:24:47Z</time>
      </trkpt>
      <trkpt lat="42.8728300" lon="-5.4349330">
        <ele>1561.6</ele>
        <time>2022-06-11T07:24:51Z</time>
      </trkpt>
      <trkpt lat="42.8728190" lon="-5.4348620">
        <ele>1561.8</ele>
        <time>2022-06-11T07:24:58Z</time>
      </trkpt>
      <trkpt lat="42.8728240" lon="-5.4348320">
        <ele>1562.4</ele>
        <time>2022-06-11T07:25:05Z</time>
      </trkpt>
      <trkpt lat="42.8728270" lon="-5.4348180">
        <ele>1562.4</ele>
        <time>2022-06-11T07:25:06Z</time>
      </trkpt>
      <trkpt lat="42.8728240" lon="-5.4348110">
        <ele>1562.4</ele>
        <time>2022-06-11T07:25:08Z</time>
      </trkpt>
      <trkpt lat="42.8728330" lon="-5.4347940">
        <ele>1563.0</ele>
        <time>2022-06-11T07:25:13Z</time>
      </trkpt>
      <trkpt lat="42.8728450" lon="-5.4348010">
        <ele>1563.4</ele>
        <time>2022-06-11T07:25:16Z</time>
      </trkpt>
      <trkpt lat="42.8728650" lon="-5.4348040">
        <ele>1564.6</ele>
        <time>2022-06-11T07:25:20Z</time>
      </trkpt>
      <trkpt lat="42.8728660" lon="-5.4348060">
        <ele>1565.2</ele>
        <time>2022-06-11T07:25:22Z</time>
      </trkpt>
      <trkpt lat="42.8728810" lon="-5.4348000">
        <ele>1565.8</ele>
        <time>2022-06-11T07:25:26Z</time>
      </trkpt>
      <trkpt lat="42.8728980" lon="-5.4347960">
        <ele>1566.8</ele>
        <time>2022-06-11T07:25:30Z</time>
      </trkpt>
      <trkpt lat="42.8729140" lon="-5.4348120">
        <ele>1567.8</ele>
        <time>2022-06-11T07:25:35Z</time>
      </trkpt>
      <trkpt lat="42.8729180" lon="-5.4348150">
        <ele>1568.0</ele>
        <time>2022-06-11T07:25:36Z</time>
      </trkpt>
      <trkpt lat="42.8729420" lon="-5.4348010">
        <ele>1569.2</ele>
        <time>2022-06-11T07:25:41Z</time>
      </trkpt>
      <trkpt lat="42.8729540" lon="-5.4348010">
        <ele>1570.0</ele>
        <time>2022-06-11T07:25:44Z</time>
      </trkpt>
      <trkpt lat="42.8729610" lon="-5.4348010">
        <ele>1570.2</ele>
        <time>2022-06-11T07:25:45Z</time>
      </trkpt>
      <trkpt lat="42.8729680" lon="-5.4348030">
        <ele>1571.4</ele>
        <time>2022-06-11T07:25:51Z</time>
      </trkpt>
      <trkpt lat="42.8729810" lon="-5.4348130">
        <ele>1571.8</ele>
        <time>2022-06-11T07:25:54Z</time>
      </trkpt>
      <trkpt lat="42.8730000" lon="-5.4348160">
        <ele>1572.4</ele>
        <time>2022-06-11T07:25:57Z</time>
      </trkpt>
      <trkpt lat="42.8730090" lon="-5.4348190">
        <ele>1573.4</ele>
        <time>2022-06-11T07:26:00Z</time>
      </trkpt>
      <trkpt lat="42.8730160" lon="-5.4348200">
        <ele>1574.4</ele>
        <time>2022-06-11T07:26:04Z</time>
      </trkpt>
      <trkpt lat="42.8730190" lon="-5.4348190">
        <ele>1574.4</ele>
        <time>2022-06-11T07:26:05Z</time>
      </trkpt>
      <trkpt lat="42.8730240" lon="-5.4348160">
        <ele>1574.6</ele>
        <time>2022-06-11T07:26:06Z</time>
      </trkpt>
      <trkpt lat="42.8730370" lon="-5.4348020">
        <ele>1575.2</ele>
        <time>2022-06-11T07:26:08Z</time>
      </trkpt>
      <trkpt lat="42.8730380" lon="-5.4348000">
        <ele>1575.8</ele>
        <time>2022-06-11T07:26:10Z</time>
      </trkpt>
      <trkpt lat="42.8730380" lon="-5.4348000">
        <ele>1576.2</ele>
        <time>2022-06-11T07:26:12Z</time>
      </trkpt>
      <trkpt lat="42.8730380" lon="-5.4348000">
        <ele>1576.4</ele>
        <time>2022-06-11T07:26:13Z</time>
      </trkpt>
      <trkpt lat="42.8730380" lon="-5.4348000">
        <ele>1576.4</ele>
        <time>2022-06-11T07:26:14Z</time>
      </trkpt>
      <trkpt lat="42.8730380" lon="-5.4348000">
        <ele>1577.0</ele>
        <time>2022-06-11T07:26:19Z</time>
      </trkpt>
      <trkpt lat="42.8730390" lon="-5.4348060">
        <ele>1578.2</ele>
        <time>2022-06-11T07:26:25Z</time>
      </trkpt>
      <trkpt lat="42.8730440" lon="-5.4348160">
        <ele>1579.4</ele>
        <time>2022-06-11T07:26:29Z</time>
      </trkpt>
      <trkpt lat="42.8730550" lon="-5.4348200">
        <ele>1580.6</ele>
        <time>2022-06-11T07:26:33Z</time>
      </trkpt>
      <trkpt lat="42.8730890" lon="-5.4348640">
        <ele>1581.8</ele>
        <time>2022-06-11T07:26:41Z</time>
      </trkpt>
      <trkpt lat="42.8731300" lon="-5.4349200">
        <ele>1582.2</ele>
        <time>2022-06-11T07:26:48Z</time>
      </trkpt>
      <trkpt lat="42.8731430" lon="-5.4349290">
        <ele>1582.8</ele>
        <time>2022-06-11T07:26:51Z</time>
      </trkpt>
      <trkpt lat="42.8731520" lon="-5.4349450">
        <ele>1584.0</ele>
        <time>2022-06-11T07:26:54Z</time>
      </trkpt>
      <trkpt lat="42.8731520" lon="-5.4349600">
        <ele>1584.4</ele>
        <time>2022-06-11T07:26:57Z</time>
      </trkpt>
      <trkpt lat="42.8731580" lon="-5.4349670">
        <ele>1585.0</ele>
        <time>2022-06-11T07:26:59Z</time>
      </trkpt>
      <trkpt lat="42.8731600" lon="-5.4349620">
        <ele>1585.4</ele>
        <time>2022-06-11T07:27:00Z</time>
      </trkpt>
      <trkpt lat="42.8731700" lon="-5.4349460">
        <ele>1586.2</ele>
        <time>2022-06-11T07:27:02Z</time>
      </trkpt>
      <trkpt lat="42.8731750" lon="-5.4348970">
        <ele>1587.0</ele>
        <time>2022-06-11T07:27:07Z</time>
      </trkpt>
      <trkpt lat="42.8731840" lon="-5.4348870">
        <ele>1587.2</ele>
        <time>2022-06-11T07:27:09Z</time>
      </trkpt>
      <trkpt lat="42.8732150" lon="-5.4348570">
        <ele>1588.2</ele>
        <time>2022-06-11T07:27:14Z</time>
      </trkpt>
      <trkpt lat="42.8732240" lon="-5.4348190">
        <ele>1589.4</ele>
        <time>2022-06-11T07:27:18Z</time>
      </trkpt>
      <trkpt lat="42.8732400" lon="-5.4347980">
        <ele>1590.6</ele>
        <time>2022-06-11T07:27:22Z</time>
      </trkpt>
      <trkpt lat="42.8732450" lon="-5.4347840">
        <ele>1591.4</ele>
        <time>2022-06-11T07:27:26Z</time>
      </trkpt>
      <trkpt lat="42.8732480" lon="-5.4347830">
        <ele>1591.4</ele>
        <time>2022-06-11T07:27:27Z</time>
      </trkpt>
      <trkpt lat="42.8732560" lon="-5.4347810">
        <ele>1591.6</ele>
        <time>2022-06-11T07:27:29Z</time>
      </trkpt>
      <trkpt lat="42.8732600" lon="-5.4347550">
        <ele>1592.4</ele>
        <time>2022-06-11T07:27:36Z</time>
      </trkpt>
      <trkpt lat="42.8732560" lon="-5.4347520">
        <ele>1592.8</ele>
        <time>2022-06-11T07:27:38Z</time>
      </trkpt>
      <trkpt lat="42.8732490" lon="-5.4347540">
        <ele>1593.0</ele>
        <time>2022-06-11T07:27:43Z</time>
      </trkpt>
      <trkpt lat="42.8732440" lon="-5.4347550">
        <ele>1593.0</ele>
        <time>2022-06-11T07:28:05Z</time>
      </trkpt>
      <trkpt lat="42.8732440" lon="-5.4347550">
        <ele>1593.2</ele>
        <time>2022-06-11T07:28:06Z</time>
      </trkpt>
      <trkpt lat="42.8732430" lon="-5.4347570">
        <ele>1594.0</ele>
        <time>2022-06-11T07:28:15Z</time>
      </trkpt>
      <trkpt lat="42.8732440" lon="-5.4347600">
        <ele>1595.6</ele>
        <time>2022-06-11T07:28:19Z</time>
      </trkpt>
      <trkpt lat="42.8732450" lon="-5.4347610">
        <ele>1596.6</ele>
        <time>2022-06-11T07:28:22Z</time>
      </trkpt>
      <trkpt lat="42.8732690" lon="-5.4347660">
        <ele>1597.6</ele>
        <time>2022-06-11T07:28:28Z</time>
      </trkpt>
      <trkpt lat="42.8733010" lon="-5.4347710">
        <ele>1598.8</ele>
        <time>2022-06-11T07:28:35Z</time>
      </trkpt>
      <trkpt lat="42.8733280" lon="-5.4347910">
        <ele>1599.8</ele>
        <time>2022-06-11T07:28:51Z</time>
      </trkpt>
      <trkpt lat="42.8733540" lon="-5.4347890">
        <ele>1601.0</ele>
        <time>2022-06-11T07:29:02Z</time>
      </trkpt>
      <trkpt lat="42.8733560" lon="-5.4347890">
        <ele>1602.4</ele>
        <time>2022-06-11T07:29:07Z</time>
      </trkpt>
      <trkpt lat="42.8733670" lon="-5.4347890">
        <ele>1603.6</ele>
        <time>2022-06-11T07:29:11Z</time>
      </trkpt>
      <trkpt lat="42.8733700" lon="-5.4347940">
        <ele>1604.6</ele>
        <time>2022-06-11T07:29:19Z</time>
      </trkpt>
      <trkpt lat="42.8734030" lon="-5.4347940">
        <ele>1605.0</ele>
        <time>2022-06-11T07:29:27Z</time>
      </trkpt>
      <trkpt lat="42.8734400" lon="-5.4347790">
        <ele>1606.0</ele>
        <time>2022-06-11T07:29:30Z</time>
      </trkpt>
      <trkpt lat="42.8734670" lon="-5.4347750">
        <ele>1607.0</ele>
        <time>2022-06-11T07:29:33Z</time>
      </trkpt>
      <trkpt lat="42.8734810" lon="-5.4347690">
        <ele>1607.4</ele>
        <time>2022-06-11T07:29:35Z</time>
      </trkpt>
      <trkpt lat="42.8734910" lon="-5.4347690">
        <ele>1608.2</ele>
        <time>2022-06-11T07:29:40Z</time>
      </trkpt>
      <trkpt lat="42.8734950" lon="-5.4347670">
        <ele>1608.4</ele>
        <time>2022-06-11T07:29:42Z</time>
      </trkpt>
      <trkpt lat="42.8734940" lon="-5.4347690">
        <ele>1609.2</ele>
        <time>2022-06-11T07:29:49Z</time>
      </trkpt>
      <trkpt lat="42.8735010" lon="-5.4347670">
        <ele>1610.2</ele>
        <time>2022-06-11T07:29:53Z</time>
      </trkpt>
      <trkpt lat="42.8735010" lon="-5.4347700">
        <ele>1610.2</ele>
        <time>2022-06-11T07:29:54Z</time>
      </trkpt>
      <trkpt lat="42.8735180" lon="-5.4347860">
        <ele>1611.6</ele>
        <time>2022-06-11T07:30:00Z</time>
      </trkpt>
      <trkpt lat="42.8735200" lon="-5.4347910">
        <ele>1612.0</ele>
        <time>2022-06-11T07:30:01Z</time>
      </trkpt>
      <trkpt lat="42.8735140" lon="-5.4347960">
        <ele>1612.6</ele>
        <time>2022-06-11T07:30:04Z</time>
      </trkpt>
      <trkpt lat="42.8735060" lon="-5.4348090">
        <ele>1613.0</ele>
        <time>2022-06-11T07:30:07Z</time>
      </trkpt>
      <trkpt lat="42.8735210" lon="-5.4348220">
        <ele>1613.8</ele>
        <time>2022-06-11T07:30:11Z</time>
      </trkpt>
      <trkpt lat="42.8735510" lon="-5.4348270">
        <ele>1615.0</ele>
        <time>2022-06-11T07:30:16Z</time>
      </trkpt>
      <trkpt lat="42.8735600" lon="-5.4348120">
        <ele>1615.4</ele>
        <time>2022-06-11T07:30:18Z</time>
      </trkpt>
      <trkpt lat="42.8735690" lon="-5.4347770">
        <ele>1616.2</ele>
        <time>2022-06-11T07:30:21Z</time>
      </trkpt>
      <trkpt lat="42.8735760" lon="-5.4347600">
        <ele>1617.2</ele>
        <time>2022-06-11T07:30:25Z</time>
      </trkpt>
      <trkpt lat="42.8735820" lon="-5.4347530">
        <ele>1617.4</ele>
        <time>2022-06-11T07:30:26Z</time>
      </trkpt>
      <trkpt lat="42.8735960" lon="-5.4347440">
        <ele>1618.4</ele>
        <time>2022-06-11T07:30:29Z</time>
      </trkpt>
      <trkpt lat="42.8736010" lon="-5.4347310">
        <ele>1619.0</ele>
        <time>2022-06-11T07:30:31Z</time>
      </trkpt>
      <trkpt lat="42.8736090" lon="-5.4347180">
        <ele>1619.4</ele>
        <time>2022-06-11T07:30:33Z</time>
      </trkpt>
      <trkpt lat="42.8736170" lon="-5.4346960">
        <ele>1620.0</ele>
        <time>2022-06-11T07:30:36Z</time>
      </trkpt>
      <trkpt lat="42.8736210" lon="-5.4346810">
        <ele>1620.6</ele>
        <time>2022-06-11T07:30:38Z</time>
      </trkpt>
      <trkpt lat="42.8736410" lon="-5.4346750">
        <ele>1621.4</ele>
        <time>2022-06-11T07:30:40Z</time>
      </trkpt>
      <trkpt lat="42.8736520" lon="-5.4346750">
        <ele>1621.6</ele>
        <time>2022-06-11T07:30:41Z</time>
      </trkpt>
      <trkpt lat="42.8736470" lon="-5.4346640">
        <ele>1622.6</ele>
        <time>2022-06-11T07:30:45Z</time>
      </trkpt>
      <trkpt lat="42.8736460" lon="-5.4346670">
        <ele>1623.0</ele>
        <time>2022-06-11T07:30:48Z</time>
      </trkpt>
      <trkpt lat="42.8736650" lon="-5.4346060">
        <ele>1623.4</ele>
        <time>2022-06-11T07:30:54Z</time>
      </trkpt>
      <trkpt lat="42.8736620" lon="-5.4345820">
        <ele>1623.8</ele>
        <time>2022-06-11T07:30:57Z</time>
      </trkpt>
      <trkpt lat="42.8736650" lon="-5.4345480">
        <ele>1625.0</ele>
        <time>2022-06-11T07:31:01Z</time>
      </trkpt>
      <trkpt lat="42.8736600" lon="-5.4345110">
        <ele>1626.0</ele>
        <time>2022-06-11T07:31:05Z</time>
      </trkpt>
      <trkpt lat="42.8736630" lon="-5.4344730">
        <ele>1627.2</ele>
        <time>2022-06-11T07:31:09Z</time>
      </trkpt>
      <trkpt lat="42.8736640" lon="-5.4344560">
        <ele>1627.6</ele>
        <time>2022-06-11T07:31:11Z</time>
      </trkpt>
      <trkpt lat="42.8736690" lon="-5.4344300">
        <ele>1628.4</ele>
        <time>2022-06-11T07:31:14Z</time>
      </trkpt>
      <trkpt lat="42.8736730" lon="-5.4343980">
        <ele>1629.2</ele>
        <time>2022-06-11T07:31:18Z</time>
      </trkpt>
      <trkpt lat="42.8736730" lon="-5.4343920">
        <ele>1629.6</ele>
        <time>2022-06-11T07:31:19Z</time>
      </trkpt>
      <trkpt lat="42.8736920" lon="-5.4343480">
        <ele>1630.6</ele>
        <time>2022-06-11T07:31:24Z</time>
      </trkpt>
      <trkpt lat="42.8736870" lon="-5.4343430">
        <ele>1630.8</ele>
        <time>2022-06-11T07:31:25Z</time>
      </trkpt>
      <trkpt lat="42.8736760" lon="-5.4343260">
        <ele>1631.8</ele>
        <time>2022-06-11T07:31:31Z</time>
      </trkpt>
      <trkpt lat="42.8736800" lon="-5.4342680">
        <ele>1633.0</ele>
        <time>2022-06-11T07:31:38Z</time>
      </trkpt>
      <trkpt lat="42.8736840" lon="-5.4342560">
        <ele>1633.2</ele>
        <time>2022-06-11T07:31:39Z</time>
      </trkpt>
      <trkpt lat="42.8736590" lon="-5.4342280">
        <ele>1634.2</ele>
        <time>2022-06-11T07:31:43Z</time>
      </trkpt>
      <trkpt lat="42.8736430" lon="-5.4342200">
        <ele>1634.6</ele>
        <time>2022-06-11T07:31:45Z</time>
      </trkpt>
      <trkpt lat="42.8736300" lon="-5.4342020">
        <ele>1635.2</ele>
        <time>2022-06-11T07:31:47Z</time>
      </trkpt>
      <trkpt lat="42.8736280" lon="-5.4341830">
        <ele>1636.6</ele>
        <time>2022-06-11T07:31:51Z</time>
      </trkpt>
      <trkpt lat="42.8736270" lon="-5.4341730">
        <ele>1637.0</ele>
        <time>2022-06-11T07:31:53Z</time>
      </trkpt>
      <trkpt lat="42.8736090" lon="-5.4341490">
        <ele>1637.6</ele>
        <time>2022-06-11T07:31:57Z</time>
      </trkpt>
      <trkpt lat="42.8735960" lon="-5.4341430">
        <ele>1638.4</ele>
        <time>2022-06-11T07:31:59Z</time>
      </trkpt>
      <trkpt lat="42.8735920" lon="-5.4341400">
        <ele>1638.6</ele>
        <time>2022-06-11T07:32:00Z</time>
      </trkpt>
      <trkpt lat="42.8736070" lon="-5.4341050">
        <ele>1640.0</ele>
        <time>2022-06-11T07:32:05Z</time>
      </trkpt>
      <trkpt lat="42.8736260" lon="-5.4340850">
        <ele>1640.6</ele>
        <time>2022-06-11T07:32:08Z</time>
      </trkpt>
      <trkpt lat="42.8736390" lon="-5.4340540">
        <ele>1641.0</ele>
        <time>2022-06-11T07:32:12Z</time>
      </trkpt>
      <trkpt lat="42.8736490" lon="-5.4340160">
        <ele>1641.0</ele>
        <time>2022-06-11T07:32:16Z</time>
      </trkpt>
      <trkpt lat="42.8736680" lon="-5.4339120">
        <ele>1642.0</ele>
        <time>2022-06-11T07:32:25Z</time>
      </trkpt>
      <trkpt lat="42.8736780" lon="-5.4338650">
        <ele>1643.4</ele>
        <time>2022-06-11T07:32:29Z</time>
      </trkpt>
      <trkpt lat="42.8736840" lon="-5.4338530">
        <ele>1643.6</ele>
        <time>2022-06-11T07:32:30Z</time>
      </trkpt>
      <trkpt lat="42.8737120" lon="-5.4338110">
        <ele>1644.4</ele>
        <time>2022-06-11T07:32:34Z</time>
      </trkpt>
      <trkpt lat="42.8737200" lon="-5.4338000">
        <ele>1644.6</ele>
        <time>2022-06-11T07:32:35Z</time>
      </trkpt>
      <trkpt lat="42.8737660" lon="-5.4337150">
        <ele>1645.6</ele>
        <time>2022-06-11T07:32:42Z</time>
      </trkpt>
      <trkpt lat="42.8737890" lon="-5.4336920">
        <ele>1646.2</ele>
        <time>2022-06-11T07:32:45Z</time>
      </trkpt>
      <trkpt lat="42.8738250" lon="-5.4336360">
        <ele>1646.2</ele>
        <time>2022-06-11T07:32:54Z</time>
      </trkpt>
      <trkpt lat="42.8738340" lon="-5.4335970">
        <ele>1646.0</ele>
        <time>2022-06-11T07:33:00Z</time>
      </trkpt>
      <trkpt lat="42.8738440" lon="-5.4335710">
        <ele>1646.8</ele>
        <time>2022-06-11T07:33:03Z</time>
      </trkpt>
      <trkpt lat="42.8738650" lon="-5.4335220">
        <ele>1647.8</ele>
        <time>2022-06-11T07:33:09Z</time>
      </trkpt>
      <trkpt lat="42.8738760" lon="-5.4334840">
        <ele>1648.8</ele>
        <time>2022-06-11T07:33:15Z</time>
      </trkpt>
      <trkpt lat="42.8739020" lon="-5.4334620">
        <ele>1647.6</ele>
        <time>2022-06-11T07:33:24Z</time>
      </trkpt>
      <trkpt lat="42.8739430" lon="-5.4333620">
        <ele>1648.0</ele>
        <time>2022-06-11T07:33:33Z</time>
      </trkpt>
      <trkpt lat="42.8739660" lon="-5.4333030">
        <ele>1649.0</ele>
        <time>2022-06-11T07:33:38Z</time>
      </trkpt>
      <trkpt lat="42.8739990" lon="-5.4332550">
        <ele>1649.2</ele>
        <time>2022-06-11T07:33:42Z</time>
      </trkpt>
      <trkpt lat="42.8740150" lon="-5.4331560">
        <ele>1650.2</ele>
        <time>2022-06-11T07:33:48Z</time>
      </trkpt>
      <trkpt lat="42.8740240" lon="-5.4331340">
        <ele>1650.8</ele>
        <time>2022-06-11T07:33:50Z</time>
      </trkpt>
      <trkpt lat="42.8740310" lon="-5.4330950">
        <ele>1651.4</ele>
        <time>2022-06-11T07:33:53Z</time>
      </trkpt>
      <trkpt lat="42.8740610" lon="-5.4330680">
        <ele>1651.0</ele>
        <time>2022-06-11T07:33:58Z</time>
      </trkpt>
      <trkpt lat="42.8740780" lon="-5.4330430">
        <ele>1651.0</ele>
        <time>2022-06-11T07:34:00Z</time>
      </trkpt>
      <trkpt lat="42.8741110" lon="-5.4329640">
        <ele>1651.0</ele>
        <time>2022-06-11T07:34:06Z</time>
      </trkpt>
      <trkpt lat="42.8741190" lon="-5.4329590">
        <ele>1650.8</ele>
        <time>2022-06-11T07:34:07Z</time>
      </trkpt>
      <trkpt lat="42.8741350" lon="-5.4329550">
        <ele>1650.6</ele>
        <time>2022-06-11T07:34:09Z</time>
      </trkpt>
      <trkpt lat="42.8741560" lon="-5.4329520">
        <ele>1650.0</ele>
        <time>2022-06-11T07:34:11Z</time>
      </trkpt>
      <trkpt lat="42.8741660" lon="-5.4329430">
        <ele>1649.8</ele>
        <time>2022-06-11T07:34:12Z</time>
      </trkpt>
      <trkpt lat="42.8741900" lon="-5.4329050">
        <ele>1649.0</ele>
        <time>2022-06-11T07:34:15Z</time>
      </trkpt>
      <trkpt lat="42.8742140" lon="-5.4328750">
        <ele>1648.6</ele>
        <time>2022-06-11T07:34:18Z</time>
      </trkpt>
      <trkpt lat="42.8742610" lon="-5.4328210">
        <ele>1647.8</ele>
        <time>2022-06-11T07:34:22Z</time>
      </trkpt>
      <trkpt lat="42.8743350" lon="-5.4327270">
        <ele>1647.0</ele>
        <time>2022-06-11T07:34:27Z</time>
      </trkpt>
      <trkpt lat="42.8743700" lon="-5.4326890">
        <ele>1646.6</ele>
        <time>2022-06-11T07:34:29Z</time>
      </trkpt>
      <trkpt lat="42.8744700" lon="-5.4325790">
        <ele>1645.6</ele>
        <time>2022-06-11T07:34:35Z</time>
      </trkpt>
      <trkpt lat="42.8744890" lon="-5.4325650">
        <ele>1645.4</ele>
        <time>2022-06-11T07:34:36Z</time>
      </trkpt>
      <trkpt lat="42.8745730" lon="-5.4325490">
        <ele>1645.6</ele>
        <time>2022-06-11T07:34:41Z</time>
      </trkpt>
      <trkpt lat="42.8746330" lon="-5.4325220">
        <ele>1646.2</ele>
        <time>2022-06-11T07:34:47Z</time>
      </trkpt>
      <trkpt lat="42.8746520" lon="-5.4325050">
        <ele>1646.6</ele>
        <time>2022-06-11T07:34:49Z</time>
      </trkpt>
      <trkpt lat="42.8746620" lon="-5.4324970">
        <ele>1646.8</ele>
        <time>2022-06-11T07:34:50Z</time>
      </trkpt>
      <trkpt lat="42.8746800" lon="-5.4324870">
        <ele>1647.6</ele>
        <time>2022-06-11T07:34:53Z</time>
      </trkpt>
      <trkpt lat="42.8746870" lon="-5.4324820">
        <ele>1647.8</ele>
        <time>2022-06-11T07:34:54Z</time>
      </trkpt>
      <trkpt lat="42.8747280" lon="-5.4324340">
        <ele>1648.6</ele>
        <time>2022-06-11T07:35:00Z</time>
      </trkpt>
      <trkpt lat="42.8747390" lon="-5.4324230">
        <ele>1649.0</ele>
        <time>2022-06-11T07:35:02Z</time>
      </trkpt>
      <trkpt lat="42.8747600" lon="-5.4324150">
        <ele>1649.4</ele>
        <time>2022-06-11T07:35:04Z</time>
      </trkpt>
      <trkpt lat="42.8747940" lon="-5.4323850">
        <ele>1650.0</ele>
        <time>2022-06-11T07:35:08Z</time>
      </trkpt>
      <trkpt lat="42.8748030" lon="-5.4323780">
        <ele>1650.0</ele>
        <time>2022-06-11T07:35:09Z</time>
      </trkpt>
      <trkpt lat="42.8748560" lon="-5.4323250">
        <ele>1651.2</ele>
        <time>2022-06-11T07:35:16Z</time>
      </trkpt>
      <trkpt lat="42.8748650" lon="-5.4323110">
        <ele>1651.6</ele>
        <time>2022-06-11T07:35:18Z</time>
      </trkpt>
      <trkpt lat="42.8748680" lon="-5.4323150">
        <ele>1652.0</ele>
        <time>2022-06-11T07:35:22Z</time>
      </trkpt>
      <trkpt lat="42.8748630" lon="-5.4323250">
        <ele>1651.8</ele>
        <time>2022-06-11T07:35:25Z</time>
      </trkpt>
      <trkpt lat="42.8748590" lon="-5.4323440">
        <ele>1651.8</ele>
        <time>2022-06-11T07:35:29Z</time>
      </trkpt>
      <trkpt lat="42.8748290" lon="-5.4324780">
        <ele>1650.0</ele>
        <time>2022-06-11T07:35:36Z</time>
      </trkpt>
      <trkpt lat="42.8748190" lon="-5.4325350">
        <ele>1648.6</ele>
        <time>2022-06-11T07:35:39Z</time>
      </trkpt>
      <trkpt lat="42.8748060" lon="-5.4325940">
        <ele>1647.2</ele>
        <time>2022-06-11T07:35:42Z</time>
      </trkpt>
      <trkpt lat="42.8747970" lon="-5.4326280">
        <ele>1646.2</ele>
        <time>2022-06-11T07:35:44Z</time>
      </trkpt>
      <trkpt lat="42.8747930" lon="-5.4326420">
        <ele>1645.8</ele>
        <time>2022-06-11T07:35:45Z</time>
      </trkpt>
      <trkpt lat="42.8747870" lon="-5.4326610">
        <ele>1644.8</ele>
        <time>2022-06-11T07:35:47Z</time>
      </trkpt>
      <trkpt lat="42.8747840" lon="-5.4326640">
        <ele>1644.2</ele>
        <time>2022-06-11T07:35:50Z</time>
      </trkpt>
      <trkpt lat="42.8747770" lon="-5.4326730">
        <ele>1643.8</ele>
        <time>2022-06-11T07:36:00Z</time>
      </trkpt>
      <trkpt lat="42.8747660" lon="-5.4327390">
        <ele>1642.4</ele>
        <time>2022-06-11T07:36:05Z</time>
      </trkpt>
      <trkpt lat="42.8747600" lon="-5.4327590">
        <ele>1641.8</ele>
        <time>2022-06-11T07:36:06Z</time>
      </trkpt>
      <trkpt lat="42.8747370" lon="-5.4327920">
        <ele>1640.8</ele>
        <time>2022-06-11T07:36:08Z</time>
      </trkpt>
      <trkpt lat="42.8747130" lon="-5.4328240">
        <ele>1639.8</ele>
        <time>2022-06-11T07:36:10Z</time>
      </trkpt>
      <trkpt lat="42.8746870" lon="-5.4328630">
        <ele>1638.8</ele>
        <time>2022-06-11T07:36:13Z</time>
      </trkpt>
      <trkpt lat="42.8746710" lon="-5.4329070">
        <ele>1637.6</ele>
        <time>2022-06-11T07:36:16Z</time>
      </trkpt>
      <trkpt lat="42.8746620" lon="-5.4329560">
        <ele>1636.4</ele>
        <time>2022-06-11T07:36:19Z</time>
      </trkpt>
      <trkpt lat="42.8746590" lon="-5.4330010">
        <ele>1635.0</ele>
        <time>2022-06-11T07:36:22Z</time>
      </trkpt>
      <trkpt lat="42.8746570" lon="-5.4330160">
        <ele>1634.4</ele>
        <time>2022-06-11T07:36:23Z</time>
      </trkpt>
      <trkpt lat="42.8746580" lon="-5.4330540">
        <ele>1633.8</ele>
        <time>2022-06-11T07:36:25Z</time>
      </trkpt>
      <trkpt lat="42.8746570" lon="-5.4330750">
        <ele>1633.4</ele>
        <time>2022-06-11T07:36:26Z</time>
      </trkpt>
      <trkpt lat="42.8746550" lon="-5.4331100">
        <ele>1632.0</ele>
        <time>2022-06-11T07:36:28Z</time>
      </trkpt>
      <trkpt lat="42.8746580" lon="-5.4331420">
        <ele>1630.8</ele>
        <time>2022-06-11T07:36:30Z</time>
      </trkpt>
      <trkpt lat="42.8746550" lon="-5.4331750">
        <ele>1629.6</ele>
        <time>2022-06-11T07:36:32Z</time>
      </trkpt>
      <trkpt lat="42.8746520" lon="-5.4332100">
        <ele>1628.8</ele>
        <time>2022-06-11T07:36:34Z</time>
      </trkpt>
      <trkpt lat="42.8746510" lon="-5.4332310">
        <ele>1628.4</ele>
        <time>2022-06-11T07:36:35Z</time>
      </trkpt>
      <trkpt lat="42.8746520" lon="-5.4332650">
        <ele>1627.0</ele>
        <time>2022-06-11T07:36:37Z</time>
      </trkpt>
      <trkpt lat="42.8746540" lon="-5.4333180">
        <ele>1625.6</ele>
        <time>2022-06-11T07:36:40Z</time>
      </trkpt>
      <trkpt lat="42.8746560" lon="-5.4333570">
        <ele>1624.4</ele>
        <time>2022-06-11T07:36:42Z</time>
      </trkpt>
      <trkpt lat="42.8746570" lon="-5.4333950">
        <ele>1623.2</ele>
        <time>2022-06-11T07:36:44Z</time>
      </trkpt>
      <trkpt lat="42.8746610" lon="-5.4334250">
        <ele>1621.6</ele>
        <time>2022-06-11T07:36:46Z</time>
      </trkpt>
      <trkpt lat="42.8746630" lon="-5.4334700">
        <ele>1620.4</ele>
        <time>2022-06-11T07:36:49Z</time>
      </trkpt>
      <trkpt lat="42.8746640" lon="-5.4334840">
        <ele>1620.0</ele>
        <time>2022-06-11T07:36:50Z</time>
      </trkpt>
      <trkpt lat="42.8746720" lon="-5.4335070">
        <ele>1619.0</ele>
        <time>2022-06-11T07:36:52Z</time>
      </trkpt>
      <trkpt lat="42.8746840" lon="-5.4335410">
        <ele>1617.8</ele>
        <time>2022-06-11T07:36:55Z</time>
      </trkpt>
      <trkpt lat="42.8746810" lon="-5.4335500">
        <ele>1617.4</ele>
        <time>2022-06-11T07:36:56Z</time>
      </trkpt>
      <trkpt lat="42.8746720" lon="-5.4335570">
        <ele>1616.8</ele>
        <time>2022-06-11T07:36:57Z</time>
      </trkpt>
      <trkpt lat="42.8746620" lon="-5.4335630">
        <ele>1616.2</ele>
        <time>2022-06-11T07:36:58Z</time>
      </trkpt>
      <trkpt lat="42.8746550" lon="-5.4335730">
        <ele>1615.8</ele>
        <time>2022-06-11T07:36:59Z</time>
      </trkpt>
      <trkpt lat="42.8746630" lon="-5.4336410">
        <ele>1614.2</ele>
        <time>2022-06-11T07:37:04Z</time>
      </trkpt>
      <trkpt lat="42.8746550" lon="-5.4336790">
        <ele>1613.0</ele>
        <time>2022-06-11T07:37:07Z</time>
      </trkpt>
      <trkpt lat="42.8746540" lon="-5.4336870">
        <ele>1612.4</ele>
        <time>2022-06-11T07:37:08Z</time>
      </trkpt>
      <trkpt lat="42.8746510" lon="-5.4336930">
        <ele>1612.2</ele>
        <time>2022-06-11T07:37:09Z</time>
      </trkpt>
      <trkpt lat="42.8746530" lon="-5.4337020">
        <ele>1611.6</ele>
        <time>2022-06-11T07:37:10Z</time>
      </trkpt>
      <trkpt lat="42.8746560" lon="-5.4337290">
        <ele>1611.0</ele>
        <time>2022-06-11T07:37:12Z</time>
      </trkpt>
      <trkpt lat="42.8746580" lon="-5.4337400">
        <ele>1610.6</ele>
        <time>2022-06-11T07:37:13Z</time>
      </trkpt>
      <trkpt lat="42.8746620" lon="-5.4337680">
        <ele>1609.6</ele>
        <time>2022-06-11T07:37:15Z</time>
      </trkpt>
      <trkpt lat="42.8746590" lon="-5.4338120">
        <ele>1608.2</ele>
        <time>2022-06-11T07:37:18Z</time>
      </trkpt>
      <trkpt lat="42.8746630" lon="-5.4338310">
        <ele>1607.0</ele>
        <time>2022-06-11T07:37:20Z</time>
      </trkpt>
      <trkpt lat="42.8746600" lon="-5.4338450">
        <ele>1606.6</ele>
        <time>2022-06-11T07:37:21Z</time>
      </trkpt>
      <trkpt lat="42.8746600" lon="-5.4338770">
        <ele>1605.6</ele>
        <time>2022-06-11T07:37:23Z</time>
      </trkpt>
      <trkpt lat="42.8746590" lon="-5.4339070">
        <ele>1604.2</ele>
        <time>2022-06-11T07:37:25Z</time>
      </trkpt>
      <trkpt lat="42.8746530" lon="-5.4339450">
        <ele>1603.0</ele>
        <time>2022-06-11T07:37:28Z</time>
      </trkpt>
      <trkpt lat="42.8746490" lon="-5.4339690">
        <ele>1602.4</ele>
        <time>2022-06-11T07:37:30Z</time>
      </trkpt>
      <trkpt lat="42.8746520" lon="-5.4339970">
        <ele>1601.8</ele>
        <time>2022-06-11T07:37:32Z</time>
      </trkpt>
      <trkpt lat="42.8746510" lon="-5.4340250">
        <ele>1600.4</ele>
        <time>2022-06-11T07:37:34Z</time>
      </trkpt>
      <trkpt lat="42.8746500" lon="-5.4340740">
        <ele>1599.0</ele>
        <time>2022-06-11T07:37:37Z</time>
      </trkpt>
      <trkpt lat="42.8746520" lon="-5.4341030">
        <ele>1598.0</ele>
        <time>2022-06-11T07:37:39Z</time>
      </trkpt>
      <trkpt lat="42.8746510" lon="-5.4341170">
        <ele>1597.4</ele>
        <time>2022-06-11T07:37:40Z</time>
      </trkpt>
      <trkpt lat="42.8746440" lon="-5.4341440">
        <ele>1596.4</ele>
        <time>2022-06-11T07:37:42Z</time>
      </trkpt>
      <trkpt lat="42.8746610" lon="-5.4341600">
        <ele>1595.2</ele>
        <time>2022-06-11T07:37:46Z</time>
      </trkpt>
      <trkpt lat="42.8747180" lon="-5.4341510">
        <ele>1595.0</ele>
        <time>2022-06-11T07:38:03Z</time>
      </trkpt>
      <trkpt lat="42.8747180" lon="-5.4341550">
        <ele>1594.2</ele>
        <time>2022-06-11T07:38:10Z</time>
      </trkpt>
      <trkpt lat="42.8747330" lon="-5.4341550">
        <ele>1593.2</ele>
        <time>2022-06-11T07:38:18Z</time>
      </trkpt>
      <trkpt lat="42.8747630" lon="-5.4341500">
        <ele>1593.0</ele>
        <time>2022-06-11T07:38:23Z</time>
      </trkpt>
      <trkpt lat="42.8747770" lon="-5.4341470">
        <ele>1592.6</ele>
        <time>2022-06-11T07:38:26Z</time>
      </trkpt>
      <trkpt lat="42.8747780" lon="-5.4341450">
        <ele>1591.8</ele>
        <time>2022-06-11T07:38:31Z</time>
      </trkpt>
      <trkpt lat="42.8748100" lon="-5.4341370">
        <ele>1590.8</ele>
        <time>2022-06-11T07:38:39Z</time>
      </trkpt>
      <trkpt lat="42.8748320" lon="-5.4341230">
        <ele>1589.8</ele>
        <time>2022-06-11T07:38:45Z</time>
      </trkpt>
      <trkpt lat="42.8748520" lon="-5.4341110">
        <ele>1589.4</ele>
        <time>2022-06-11T07:38:49Z</time>
      </trkpt>
      <trkpt lat="42.8748700" lon="-5.4341080">
        <ele>1588.6</ele>
        <time>2022-06-11T07:38:53Z</time>
      </trkpt>
      <trkpt lat="42.8748770" lon="-5.4341070">
        <ele>1588.4</ele>
        <time>2022-06-11T07:38:55Z</time>
      </trkpt>
      <trkpt lat="42.8749120" lon="-5.4340860">
        <ele>1587.6</ele>
        <time>2022-06-11T07:39:01Z</time>
      </trkpt>
      <trkpt lat="42.8749270" lon="-5.4340780">
        <ele>1586.8</ele>
        <time>2022-06-11T07:39:05Z</time>
      </trkpt>
      <trkpt lat="42.8749420" lon="-5.4340700">
        <ele>1586.6</ele>
        <time>2022-06-11T07:39:09Z</time>
      </trkpt>
      <trkpt lat="42.8749980" lon="-5.4340240">
        <ele>1585.4</ele>
        <time>2022-06-11T07:39:15Z</time>
      </trkpt>
      <trkpt lat="42.8750100" lon="-5.4340150">
        <ele>1585.4</ele>
        <time>2022-06-11T07:39:16Z</time>
      </trkpt>
      <trkpt lat="42.8750570" lon="-5.4339820">
        <ele>1584.6</ele>
        <time>2022-06-11T07:39:23Z</time>
      </trkpt>
      <trkpt lat="42.8750590" lon="-5.4339760">
        <ele>1584.4</ele>
        <time>2022-06-11T07:39:25Z</time>
      </trkpt>
      <trkpt lat="42.8750600" lon="-5.4339570">
        <ele>1584.4</ele>
        <time>2022-06-11T07:39:29Z</time>
      </trkpt>
      <trkpt lat="42.8751040" lon="-5.4338960">
        <ele>1584.6</ele>
        <time>2022-06-11T07:39:38Z</time>
      </trkpt>
      <trkpt lat="42.8751600" lon="-5.4338450">
        <ele>1583.4</ele>
        <time>2022-06-11T07:39:50Z</time>
      </trkpt>
      <trkpt lat="42.8751520" lon="-5.4338500">
        <ele>1583.2</ele>
        <time>2022-06-11T07:39:57Z</time>
      </trkpt>
      <trkpt lat="42.8751710" lon="-5.4338900">
        <ele>1582.4</ele>
        <time>2022-06-11T07:40:04Z</time>
      </trkpt>
      <trkpt lat="42.8751910" lon="-5.4338840">
        <ele>1581.2</ele>
        <time>2022-06-11T07:40:08Z</time>
      </trkpt>
      <trkpt lat="42.8751910" lon="-5.4338840">
        <ele>1580.6</ele>
        <time>2022-06-11T07:40:12Z</time>
      </trkpt>
      <trkpt lat="42.8751910" lon="-5.4338840">
        <ele>1580.0</ele>
        <time>2022-06-11T07:40:14Z</time>
      </trkpt>
      <trkpt lat="42.8751910" lon="-5.4338860">
        <ele>1579.0</ele>
        <time>2022-06-11T07:40:20Z</time>
      </trkpt>
      <trkpt lat="42.8751980" lon="-5.4338900">
        <ele>1578.0</ele>
        <time>2022-06-11T07:40:26Z</time>
      </trkpt>
      <trkpt lat="42.8752390" lon="-5.4338900">
        <ele>1576.8</ele>
        <time>2022-06-11T07:40:35Z</time>
      </trkpt>
      <trkpt lat="42.8752610" lon="-5.4338980">
        <ele>1576.4</ele>
        <time>2022-06-11T07:40:38Z</time>
      </trkpt>
      <trkpt lat="42.8752930" lon="-5.4339100">
        <ele>1575.8</ele>
        <time>2022-06-11T07:40:41Z</time>
      </trkpt>
      <trkpt lat="42.8753250" lon="-5.4339060">
        <ele>1575.0</ele>
        <time>2022-06-11T07:40:45Z</time>
      </trkpt>
      <trkpt lat="42.8753240" lon="-5.4339010">
        <ele>1574.6</ele>
        <time>2022-06-11T07:40:47Z</time>
      </trkpt>
      <trkpt lat="42.8753300" lon="-5.4338960">
        <ele>1574.4</ele>
        <time>2022-06-11T07:40:50Z</time>
      </trkpt>
      <trkpt lat="42.8753330" lon="-5.4338820">
        <ele>1574.4</ele>
        <time>2022-06-11T07:40:52Z</time>
      </trkpt>
      <trkpt lat="42.8753640" lon="-5.4338810">
        <ele>1574.0</ele>
        <time>2022-06-11T07:40:58Z</time>
      </trkpt>
      <trkpt lat="42.8753760" lon="-5.4338660">
        <ele>1573.6</ele>
        <time>2022-06-11T07:41:01Z</time>
      </trkpt>
      <trkpt lat="42.8754140" lon="-5.4338320">
        <ele>1573.0</ele>
        <time>2022-06-11T07:41:05Z</time>
      </trkpt>
      <trkpt lat="42.8754640" lon="-5.4337770">
        <ele>1572.8</ele>
        <time>2022-06-11T07:41:13Z</time>
      </trkpt>
      <trkpt lat="42.8754650" lon="-5.4337780">
        <ele>1572.8</ele>
        <time>2022-06-11T07:41:14Z</time>
      </trkpt>
      <trkpt lat="42.8754740" lon="-5.4337790">
        <ele>1572.6</ele>
        <time>2022-06-11T07:41:16Z</time>
      </trkpt>
      <trkpt lat="42.8754960" lon="-5.4337800">
        <ele>1572.2</ele>
        <time>2022-06-11T07:41:21Z</time>
      </trkpt>
      <trkpt lat="42.8755060" lon="-5.4337700">
        <ele>1571.6</ele>
        <time>2022-06-11T07:41:23Z</time>
      </trkpt>
      <trkpt lat="42.8755460" lon="-5.4337430">
        <ele>1570.8</ele>
        <time>2022-06-11T07:41:27Z</time>
      </trkpt>
      <trkpt lat="42.8755710" lon="-5.4337420">
        <ele>1570.2</ele>
        <time>2022-06-11T07:41:30Z</time>
      </trkpt>
      <trkpt lat="42.8755790" lon="-5.4337520">
        <ele>1569.6</ele>
        <time>2022-06-11T07:41:33Z</time>
      </trkpt>
      <trkpt lat="42.8755770" lon="-5.4337780">
        <ele>1569.0</ele>
        <time>2022-06-11T07:41:35Z</time>
      </trkpt>
      <trkpt lat="42.8756010" lon="-5.4337930">
        <ele>1567.6</ele>
        <time>2022-06-11T07:41:38Z</time>
      </trkpt>
      <trkpt lat="42.8756220" lon="-5.4337980">
        <ele>1567.0</ele>
        <time>2022-06-11T07:41:40Z</time>
      </trkpt>
      <trkpt lat="42.8756380" lon="-5.4338120">
        <ele>1566.4</ele>
        <time>2022-06-11T07:41:42Z</time>
      </trkpt>
      <trkpt lat="42.8756410" lon="-5.4338420">
        <ele>1565.4</ele>
        <time>2022-06-11T07:41:45Z</time>
      </trkpt>
      <trkpt lat="42.8756850" lon="-5.4338520">
        <ele>1564.2</ele>
        <time>2022-06-11T07:41:49Z</time>
      </trkpt>
      <trkpt lat="42.8757040" lon="-5.4338430">
        <ele>1563.6</ele>
        <time>2022-06-11T07:41:50Z</time>
      </trkpt>
      <trkpt lat="42.8757290" lon="-5.4338380">
        <ele>1563.2</ele>
        <time>2022-06-11T07:41:51Z</time>
      </trkpt>
      <trkpt lat="42.8757750" lon="-5.4338360">
        <ele>1561.8</ele>
        <time>2022-06-11T07:41:53Z</time>
      </trkpt>
      <trkpt lat="42.8758350" lon="-5.4338370">
        <ele>1561.0</ele>
        <time>2022-06-11T07:41:55Z</time>
      </trkpt>
      <trkpt lat="42.8758580" lon="-5.4338450">
        <ele>1560.8</ele>
        <time>2022-06-11T07:41:56Z</time>
      </trkpt>
      <trkpt lat="42.8759320" lon="-5.4338680">
        <ele>1559.6</ele>
        <time>2022-06-11T07:41:59Z</time>
      </trkpt>
      <trkpt lat="42.8760010" lon="-5.4338850">
        <ele>1559.0</ele>
        <time>2022-06-11T07:42:02Z</time>
      </trkpt>
      <trkpt lat="42.8760270" lon="-5.4338900">
        <ele>1558.6</ele>
        <time>2022-06-11T07:42:03Z</time>
      </trkpt>
      <trkpt lat="42.8760500" lon="-5.4338940">
        <ele>1558.4</ele>
        <time>2022-06-11T07:42:04Z</time>
      </trkpt>
      <trkpt lat="42.8761800" lon="-5.4339550">
        <ele>1557.4</ele>
        <time>2022-06-11T07:42:10Z</time>
      </trkpt>
      <trkpt lat="42.8762910" lon="-5.4340580">
        <ele>1556.8</ele>
        <time>2022-06-11T07:42:16Z</time>
      </trkpt>
      <trkpt lat="42.8763550" lon="-5.4341790">
        <ele>1556.2</ele>
        <time>2022-06-11T07:42:21Z</time>
      </trkpt>
      <trkpt lat="42.8763660" lon="-5.4342070">
        <ele>1556.0</ele>
        <time>2022-06-11T07:42:22Z</time>
      </trkpt>
      <trkpt lat="42.8763770" lon="-5.4342340">
        <ele>1555.6</ele>
        <time>2022-06-11T07:42:23Z</time>
      </trkpt>
      <trkpt lat="42.8764090" lon="-5.4343180">
        <ele>1555.0</ele>
        <time>2022-06-11T07:42:26Z</time>
      </trkpt>
      <trkpt lat="42.8764660" lon="-5.4344470">
        <ele>1554.0</ele>
        <time>2022-06-11T07:42:31Z</time>
      </trkpt>
      <trkpt lat="42.8764940" lon="-5.4345340">
        <ele>1552.8</ele>
        <time>2022-06-11T07:42:34Z</time>
      </trkpt>
      <trkpt lat="42.8765150" lon="-5.4346580">
        <ele>1551.8</ele>
        <time>2022-06-11T07:42:39Z</time>
      </trkpt>
      <trkpt lat="42.8765140" lon="-5.4346820">
        <ele>1551.4</ele>
        <time>2022-06-11T07:42:40Z</time>
      </trkpt>
      <trkpt lat="42.8765120" lon="-5.4347560">
        <ele>1550.4</ele>
        <time>2022-06-11T07:42:43Z</time>
      </trkpt>
      <trkpt lat="42.8765070" lon="-5.4348170">
        <ele>1549.2</ele>
        <time>2022-06-11T07:42:46Z</time>
      </trkpt>
      <trkpt lat="42.8765050" lon="-5.4348380">
        <ele>1548.6</ele>
        <time>2022-06-11T07:42:47Z</time>
      </trkpt>
      <trkpt lat="42.8765060" lon="-5.4348610">
        <ele>1548.2</ele>
        <time>2022-06-11T07:42:48Z</time>
      </trkpt>
      <trkpt lat="42.8765010" lon="-5.4349100">
        <ele>1547.0</ele>
        <time>2022-06-11T07:42:50Z</time>
      </trkpt>
      <trkpt lat="42.8764960" lon="-5.4349630">
        <ele>1545.8</ele>
        <time>2022-06-11T07:42:52Z</time>
      </trkpt>
      <trkpt lat="42.8764960" lon="-5.4350140">
        <ele>1544.6</ele>
        <time>2022-06-11T07:42:54Z</time>
      </trkpt>
      <trkpt lat="42.8765010" lon="-5.4350640">
        <ele>1543.6</ele>
        <time>2022-06-11T07:42:56Z</time>
      </trkpt>
      <trkpt lat="42.8765000" lon="-5.4350910">
        <ele>1543.0</ele>
        <time>2022-06-11T07:42:57Z</time>
      </trkpt>
      <trkpt lat="42.8765070" lon="-5.4351520">
        <ele>1542.2</ele>
        <time>2022-06-11T07:42:59Z</time>
      </trkpt>
      <trkpt lat="42.8765120" lon="-5.4352780">
        <ele>1540.6</ele>
        <time>2022-06-11T07:43:03Z</time>
      </trkpt>
      <trkpt lat="42.8765300" lon="-5.4353780">
        <ele>1539.4</ele>
        <time>2022-06-11T07:43:06Z</time>
      </trkpt>
      <trkpt lat="42.8765480" lon="-5.4354920">
        <ele>1538.0</ele>
        <time>2022-06-11T07:43:10Z</time>
      </trkpt>
      <trkpt lat="42.8765580" lon="-5.4355850">
        <ele>1536.8</ele>
        <time>2022-06-11T07:43:13Z</time>
      </trkpt>
      <trkpt lat="42.8765690" lon="-5.4356520">
        <ele>1536.4</ele>
        <time>2022-06-11T07:43:15Z</time>
      </trkpt>
      <trkpt lat="42.8765710" lon="-5.4357080">
        <ele>1535.8</ele>
        <time>2022-06-11T07:43:17Z</time>
      </trkpt>
      <trkpt lat="42.8765820" lon="-5.4358210">
        <ele>1534.4</ele>
        <time>2022-06-11T07:43:21Z</time>
      </trkpt>
      <trkpt lat="42.8765830" lon="-5.4358530">
        <ele>1534.2</ele>
        <time>2022-06-11T07:43:22Z</time>
      </trkpt>
      <trkpt lat="42.8765890" lon="-5.4359440">
        <ele>1533.2</ele>
        <time>2022-06-11T07:43:25Z</time>
      </trkpt>
      <trkpt lat="42.8766060" lon="-5.4360800">
        <ele>1532.2</ele>
        <time>2022-06-11T07:43:30Z</time>
      </trkpt>
      <trkpt lat="42.8766180" lon="-5.4361380">
        <ele>1532.0</ele>
        <time>2022-06-11T07:43:32Z</time>
      </trkpt>
      <trkpt lat="42.8766540" lon="-5.4363700">
        <ele>1531.2</ele>
        <time>2022-06-11T07:43:41Z</time>
      </trkpt>
      <trkpt lat="42.8766260" lon="-5.4365730">
        <ele>1530.2</ele>
        <time>2022-06-11T07:43:48Z</time>
      </trkpt>
      <trkpt lat="42.8766250" lon="-5.4365980">
        <ele>1530.0</ele>
        <time>2022-06-11T07:43:49Z</time>
      </trkpt>
      <trkpt lat="42.8766150" lon="-5.4367600">
        <ele>1529.8</ele>
        <time>2022-06-11T07:43:55Z</time>
      </trkpt>
      <trkpt lat="42.8766260" lon="-5.4368530">
        <ele>1530.0</ele>
        <time>2022-06-11T07:44:00Z</time>
      </trkpt>
      <trkpt lat="42.8766270" lon="-5.4369660">
        <ele>1531.0</ele>
        <time>2022-06-11T07:44:06Z</time>
      </trkpt>
      <trkpt lat="42.8766290" lon="-5.4370260">
        <ele>1531.0</ele>
        <time>2022-06-11T07:44:09Z</time>
      </trkpt>
      <trkpt lat="42.8766340" lon="-5.4370950">
        <ele>1531.2</ele>
        <time>2022-06-11T07:44:13Z</time>
      </trkpt>
      <trkpt lat="42.8766440" lon="-5.4371820">
        <ele>1531.8</ele>
        <time>2022-06-11T07:44:19Z</time>
      </trkpt>
      <trkpt lat="42.8766230" lon="-5.4373250">
        <ele>1531.4</ele>
        <time>2022-06-11T07:44:26Z</time>
      </trkpt>
      <trkpt lat="42.8766470" lon="-5.4374610">
        <ele>1530.8</ele>
        <time>2022-06-11T07:44:32Z</time>
      </trkpt>
      <trkpt lat="42.8766590" lon="-5.4374980">
        <ele>1530.8</ele>
        <time>2022-06-11T07:44:34Z</time>
      </trkpt>
      <trkpt lat="42.8766640" lon="-5.4376600">
        <ele>1531.2</ele>
        <time>2022-06-11T07:44:43Z</time>
      </trkpt>
      <trkpt lat="42.8766500" lon="-5.4377730">
        <ele>1531.4</ele>
        <time>2022-06-11T07:44:51Z</time>
      </trkpt>
      <trkpt lat="42.8766430" lon="-5.4378820">
        <ele>1531.2</ele>
        <time>2022-06-11T07:44:56Z</time>
      </trkpt>
      <trkpt lat="42.8766410" lon="-5.4379740">
        <ele>1530.8</ele>
        <time>2022-06-11T07:44:59Z</time>
      </trkpt>
      <trkpt lat="42.8766440" lon="-5.4381300">
        <ele>1531.0</ele>
        <time>2022-06-11T07:45:05Z</time>
      </trkpt>
      <trkpt lat="42.8766180" lon="-5.4382560">
        <ele>1532.0</ele>
        <time>2022-06-11T07:45:11Z</time>
      </trkpt>
      <trkpt lat="42.8766170" lon="-5.4382770">
        <ele>1532.2</ele>
        <time>2022-06-11T07:45:12Z</time>
      </trkpt>
      <trkpt lat="42.8766070" lon="-5.4384000">
        <ele>1532.2</ele>
        <time>2022-06-11T07:45:18Z</time>
      </trkpt>
      <trkpt lat="42.8765890" lon="-5.4384820">
        <ele>1532.4</ele>
        <time>2022-06-11T07:45:21Z</time>
      </trkpt>
      <trkpt lat="42.8765880" lon="-5.4387010">
        <ele>1532.4</ele>
        <time>2022-06-11T07:45:28Z</time>
      </trkpt>
      <trkpt lat="42.8765920" lon="-5.4389650">
        <ele>1532.2</ele>
        <time>2022-06-11T07:45:36Z</time>
      </trkpt>
      <trkpt lat="42.8765920" lon="-5.4390010">
        <ele>1532.0</ele>
        <time>2022-06-11T07:45:37Z</time>
      </trkpt>
      <trkpt lat="42.8765990" lon="-5.4392430">
        <ele>1531.2</ele>
        <time>2022-06-11T07:45:44Z</time>
      </trkpt>
      <trkpt lat="42.8766090" lon="-5.4393090">
        <ele>1530.8</ele>
        <time>2022-06-11T07:45:46Z</time>
      </trkpt>
      <trkpt lat="42.8766120" lon="-5.4393680">
        <ele>1530.0</ele>
        <time>2022-06-11T07:45:48Z</time>
      </trkpt>
      <trkpt lat="42.8766110" lon="-5.4395180">
        <ele>1528.8</ele>
        <time>2022-06-11T07:45:52Z</time>
      </trkpt>
      <trkpt lat="42.8766050" lon="-5.4396480">
        <ele>1527.6</ele>
        <time>2022-06-11T07:45:56Z</time>
      </trkpt>
      <trkpt lat="42.8766060" lon="-5.4397420">
        <ele>1526.2</ele>
        <time>2022-06-11T07:45:59Z</time>
      </trkpt>
      <trkpt lat="42.8766280" lon="-5.4398700">
        <ele>1525.0</ele>
        <time>2022-06-11T07:46:03Z</time>
      </trkpt>
      <trkpt lat="42.8766260" lon="-5.4399030">
        <ele>1524.6</ele>
        <time>2022-06-11T07:46:04Z</time>
      </trkpt>
      <trkpt lat="42.8766270" lon="-5.4399670">
        <ele>1523.8</ele>
        <time>2022-06-11T07:46:06Z</time>
      </trkpt>
      <trkpt lat="42.8766150" lon="-5.4400650">
        <ele>1522.4</ele>
        <time>2022-06-11T07:46:09Z</time>
      </trkpt>
      <trkpt lat="42.8766060" lon="-5.4401360">
        <ele>1521.6</ele>
        <time>2022-06-11T07:46:11Z</time>
      </trkpt>
      <trkpt lat="42.8766020" lon="-5.4401700">
        <ele>1521.4</ele>
        <time>2022-06-11T07:46:12Z</time>
      </trkpt>
      <trkpt lat="42.8766150" lon="-5.4402720">
        <ele>1520.2</ele>
        <time>2022-06-11T07:46:15Z</time>
      </trkpt>
      <trkpt lat="42.8766280" lon="-5.4403730">
        <ele>1519.4</ele>
        <time>2022-06-11T07:46:18Z</time>
      </trkpt>
      <trkpt lat="42.8766350" lon="-5.4404070">
        <ele>1519.0</ele>
        <time>2022-06-11T07:46:19Z</time>
      </trkpt>
      <trkpt lat="42.8766530" lon="-5.4404770">
        <ele>1518.0</ele>
        <time>2022-06-11T07:46:21Z</time>
      </trkpt>
      <trkpt lat="42.8766860" lon="-5.4405780">
        <ele>1516.6</ele>
        <time>2022-06-11T07:46:24Z</time>
      </trkpt>
      <trkpt lat="42.8766970" lon="-5.4406220">
        <ele>1516.0</ele>
        <time>2022-06-11T07:46:26Z</time>
      </trkpt>
      <trkpt lat="42.8767060" lon="-5.4406470">
        <ele>1515.6</ele>
        <time>2022-06-11T07:46:27Z</time>
      </trkpt>
      <trkpt lat="42.8767350" lon="-5.4406900">
        <ele>1514.6</ele>
        <time>2022-06-11T07:46:29Z</time>
      </trkpt>
      <trkpt lat="42.8767760" lon="-5.4407260">
        <ele>1514.0</ele>
        <time>2022-06-11T07:46:31Z</time>
      </trkpt>
      <trkpt lat="42.8768250" lon="-5.4407510">
        <ele>1513.4</ele>
        <time>2022-06-11T07:46:33Z</time>
      </trkpt>
      <trkpt lat="42.8768860" lon="-5.4408290">
        <ele>1512.2</ele>
        <time>2022-06-11T07:46:36Z</time>
      </trkpt>
      <trkpt lat="42.8769790" lon="-5.4408970">
        <ele>1511.0</ele>
        <time>2022-06-11T07:46:40Z</time>
      </trkpt>
      <trkpt lat="42.8770050" lon="-5.4408960">
        <ele>1510.6</ele>
        <time>2022-06-11T07:46:41Z</time>
      </trkpt>
      <trkpt lat="42.8770620" lon="-5.4408790">
        <ele>1509.6</ele>
        <time>2022-06-11T07:46:43Z</time>
      </trkpt>
      <trkpt lat="42.8771520" lon="-5.4408420">
        <ele>1509.0</ele>
        <time>2022-06-11T07:46:48Z</time>
      </trkpt>
      <trkpt lat="42.8771950" lon="-5.4408170">
        <ele>1508.6</ele>
        <time>2022-06-11T07:46:51Z</time>
      </trkpt>
      <trkpt lat="42.8772420" lon="-5.4407650">
        <ele>1507.8</ele>
        <time>2022-06-11T07:46:56Z</time>
      </trkpt>
      <trkpt lat="42.8772680" lon="-5.4407380">
        <ele>1507.4</ele>
        <time>2022-06-11T07:46:58Z</time>
      </trkpt>
      <trkpt lat="42.8773350" lon="-5.4407120">
        <ele>1506.6</ele>
        <time>2022-06-11T07:47:03Z</time>
      </trkpt>
      <trkpt lat="42.8773500" lon="-5.4407050">
        <ele>1506.2</ele>
        <time>2022-06-11T07:47:04Z</time>
      </trkpt>
      <trkpt lat="42.8774180" lon="-5.4406580">
        <ele>1504.8</ele>
        <time>2022-06-11T07:47:08Z</time>
      </trkpt>
      <trkpt lat="42.8774290" lon="-5.4406340">
        <ele>1504.6</ele>
        <time>2022-06-11T07:47:09Z</time>
      </trkpt>
      <trkpt lat="42.8774360" lon="-5.4405830">
        <ele>1503.6</ele>
        <time>2022-06-11T07:47:11Z</time>
      </trkpt>
      <trkpt lat="42.8774700" lon="-5.4405200">
        <ele>1502.6</ele>
        <time>2022-06-11T07:47:14Z</time>
      </trkpt>
      <trkpt lat="42.8774960" lon="-5.4404970">
        <ele>1502.0</ele>
        <time>2022-06-11T07:47:16Z</time>
      </trkpt>
      <trkpt lat="42.8775210" lon="-5.4404710">
        <ele>1501.6</ele>
        <time>2022-06-11T07:47:19Z</time>
      </trkpt>
      <trkpt lat="42.8775460" lon="-5.4404460">
        <ele>1501.0</ele>
        <time>2022-06-11T07:47:22Z</time>
      </trkpt>
      <trkpt lat="42.8775600" lon="-5.4404360">
        <ele>1500.4</ele>
        <time>2022-06-11T07:47:23Z</time>
      </trkpt>
      <trkpt lat="42.8776110" lon="-5.4403760">
        <ele>1499.0</ele>
        <time>2022-06-11T07:47:27Z</time>
      </trkpt>
      <trkpt lat="42.8776230" lon="-5.4403720">
        <ele>1498.8</ele>
        <time>2022-06-11T07:47:28Z</time>
      </trkpt>
      <trkpt lat="42.8776570" lon="-5.4403670">
        <ele>1497.6</ele>
        <time>2022-06-11T07:47:30Z</time>
      </trkpt>
      <trkpt lat="42.8777210" lon="-5.4403530">
        <ele>1496.2</ele>
        <time>2022-06-11T07:47:34Z</time>
      </trkpt>
      <trkpt lat="42.8777590" lon="-5.4403430">
        <ele>1495.4</ele>
        <time>2022-06-11T07:47:36Z</time>
      </trkpt>
      <trkpt lat="42.8777830" lon="-5.4403380">
        <ele>1494.8</ele>
        <time>2022-06-11T07:47:37Z</time>
      </trkpt>
      <trkpt lat="42.8778280" lon="-5.4403280">
        <ele>1493.6</ele>
        <time>2022-06-11T07:47:39Z</time>
      </trkpt>
      <trkpt lat="42.8778830" lon="-5.4403140">
        <ele>1492.2</ele>
        <time>2022-06-11T07:47:42Z</time>
      </trkpt>
      <trkpt lat="42.8779170" lon="-5.4402990">
        <ele>1491.2</ele>
        <time>2022-06-11T07:47:44Z</time>
      </trkpt>
      <trkpt lat="42.8779510" lon="-5.4402710">
        <ele>1489.8</ele>
        <time>2022-06-11T07:47:46Z</time>
      </trkpt>
      <trkpt lat="42.8779820" lon="-5.4402490">
        <ele>1488.6</ele>
        <time>2022-06-11T07:47:48Z</time>
      </trkpt>
      <trkpt lat="42.8780180" lon="-5.4402290">
        <ele>1487.6</ele>
        <time>2022-06-11T07:47:50Z</time>
      </trkpt>
      <trkpt lat="42.8780560" lon="-5.4402130">
        <ele>1486.4</ele>
        <time>2022-06-11T07:47:52Z</time>
      </trkpt>
      <trkpt lat="42.8780950" lon="-5.4402090">
        <ele>1485.2</ele>
        <time>2022-06-11T07:47:54Z</time>
      </trkpt>
      <trkpt lat="42.8781340" lon="-5.4401980">
        <ele>1484.0</ele>
        <time>2022-06-11T07:47:56Z</time>
      </trkpt>
      <trkpt lat="42.8781750" lon="-5.4401840">
        <ele>1482.6</ele>
        <time>2022-06-11T07:47:58Z</time>
      </trkpt>
      <trkpt lat="42.8781950" lon="-5.4401750">
        <ele>1481.8</ele>
        <time>2022-06-11T07:47:59Z</time>
      </trkpt>
      <trkpt lat="42.8782130" lon="-5.4401670">
        <ele>1481.6</ele>
        <time>2022-06-11T07:48:00Z</time>
      </trkpt>
      <trkpt lat="42.8782820" lon="-5.4401230">
        <ele>1479.8</ele>
        <time>2022-06-11T07:48:04Z</time>
      </trkpt>
      <trkpt lat="42.8783140" lon="-5.4401060">
        <ele>1479.0</ele>
        <time>2022-06-11T07:48:06Z</time>
      </trkpt>
      <trkpt lat="42.8783320" lon="-5.4401070">
        <ele>1478.4</ele>
        <time>2022-06-11T07:48:07Z</time>
      </trkpt>
      <trkpt lat="42.8783760" lon="-5.4401050">
        <ele>1477.0</ele>
        <time>2022-06-11T07:48:10Z</time>
      </trkpt>
      <trkpt lat="42.8784170" lon="-5.4401070">
        <ele>1475.6</ele>
        <time>2022-06-11T07:48:13Z</time>
      </trkpt>
      <trkpt lat="42.8784530" lon="-5.4401160">
        <ele>1474.2</ele>
        <time>2022-06-11T07:48:16Z</time>
      </trkpt>
      <trkpt lat="42.8784640" lon="-5.4401210">
        <ele>1474.0</ele>
        <time>2022-06-11T07:48:17Z</time>
      </trkpt>
      <trkpt lat="42.8784850" lon="-5.4401400">
        <ele>1473.0</ele>
        <time>2022-06-11T07:48:19Z</time>
      </trkpt>
      <trkpt lat="42.8784980" lon="-5.4401400">
        <ele>1472.4</ele>
        <time>2022-06-11T07:48:20Z</time>
      </trkpt>
      <trkpt lat="42.8785110" lon="-5.4401350">
        <ele>1471.8</ele>
        <time>2022-06-11T07:48:21Z</time>
      </trkpt>
      <trkpt lat="42.8785410" lon="-5.4401210">
        <ele>1470.8</ele>
        <time>2022-06-11T07:48:23Z</time>
      </trkpt>
      <trkpt lat="42.8785530" lon="-5.4401200">
        <ele>1470.6</ele>
        <time>2022-06-11T07:48:24Z</time>
      </trkpt>
      <trkpt lat="42.8785600" lon="-5.4401250">
        <ele>1470.0</ele>
        <time>2022-06-11T07:48:25Z</time>
      </trkpt>
      <trkpt lat="42.8785710" lon="-5.4401420">
        <ele>1469.4</ele>
        <time>2022-06-11T07:48:27Z</time>
      </trkpt>
      <trkpt lat="42.8785960" lon="-5.4401630">
        <ele>1468.6</ele>
        <time>2022-06-11T07:48:29Z</time>
      </trkpt>
      <trkpt lat="42.8786100" lon="-5.4401800">
        <ele>1468.2</ele>
        <time>2022-06-11T07:48:30Z</time>
      </trkpt>
      <trkpt lat="42.8786650" lon="-5.4402280">
        <ele>1467.0</ele>
        <time>2022-06-11T07:48:34Z</time>
      </trkpt>
      <trkpt lat="42.8787110" lon="-5.4402930">
        <ele>1465.6</ele>
        <time>2022-06-11T07:48:37Z</time>
      </trkpt>
      <trkpt lat="42.8787520" lon="-5.4403620">
        <ele>1464.2</ele>
        <time>2022-06-11T07:48:40Z</time>
      </trkpt>
      <trkpt lat="42.8787950" lon="-5.4404400">
        <ele>1462.8</ele>
        <time>2022-06-11T07:48:43Z</time>
      </trkpt>
      <trkpt lat="42.8788240" lon="-5.4405020">
        <ele>1461.8</ele>
        <time>2022-06-11T07:48:45Z</time>
      </trkpt>
      <trkpt lat="42.8788480" lon="-5.4405780">
        <ele>1460.6</ele>
        <time>2022-06-11T07:48:47Z</time>
      </trkpt>
      <trkpt lat="42.8788820" lon="-5.4406900">
        <ele>1459.4</ele>
        <time>2022-06-11T07:48:50Z</time>
      </trkpt>
      <trkpt lat="42.8789180" lon="-5.4407980">
        <ele>1459.2</ele>
        <time>2022-06-11T07:48:53Z</time>
      </trkpt>
      <trkpt lat="42.8789900" lon="-5.4410320">
        <ele>1458.6</ele>
        <time>2022-06-11T07:49:00Z</time>
      </trkpt>
      <trkpt lat="42.8790230" lon="-5.4411370">
        <ele>1458.6</ele>
        <time>2022-06-11T07:49:03Z</time>
      </trkpt>
      <trkpt lat="42.8790930" lon="-5.4413810">
        <ele>1458.6</ele>
        <time>2022-06-11T07:49:10Z</time>
      </trkpt>
      <trkpt lat="42.8791000" lon="-5.4414190">
        <ele>1458.6</ele>
        <time>2022-06-11T07:49:11Z</time>
      </trkpt>
      <trkpt lat="42.8791550" lon="-5.4416750">
        <ele>1458.4</ele>
        <time>2022-06-11T07:49:18Z</time>
      </trkpt>
      <trkpt lat="42.8791610" lon="-5.4417120">
        <ele>1458.4</ele>
        <time>2022-06-11T07:49:19Z</time>
      </trkpt>
      <trkpt lat="42.8792180" lon="-5.4419640">
        <ele>1457.6</ele>
        <time>2022-06-11T07:49:26Z</time>
      </trkpt>
      <trkpt lat="42.8792240" lon="-5.4419980">
        <ele>1457.2</ele>
        <time>2022-06-11T07:49:27Z</time>
      </trkpt>
      <trkpt lat="42.8792320" lon="-5.4421850">
        <ele>1456.2</ele>
        <time>2022-06-11T07:49:32Z</time>
      </trkpt>
      <trkpt lat="42.8792330" lon="-5.4423560">
        <ele>1454.8</ele>
        <time>2022-06-11T07:49:37Z</time>
      </trkpt>
      <trkpt lat="42.8792360" lon="-5.4424320">
        <ele>1453.8</ele>
        <time>2022-06-11T07:49:39Z</time>
      </trkpt>
      <trkpt lat="42.8792330" lon="-5.4425550">
        <ele>1452.4</ele>
        <time>2022-06-11T07:49:42Z</time>
      </trkpt>
      <trkpt lat="42.8792380" lon="-5.4426290">
        <ele>1451.4</ele>
        <time>2022-06-11T07:49:44Z</time>
      </trkpt>
      <trkpt lat="42.8792530" lon="-5.4427450">
        <ele>1450.2</ele>
        <time>2022-06-11T07:49:47Z</time>
      </trkpt>
      <trkpt lat="42.8792730" lon="-5.4428620">
        <ele>1449.0</ele>
        <time>2022-06-11T07:49:50Z</time>
      </trkpt>
      <trkpt lat="42.8792920" lon="-5.4429820">
        <ele>1447.6</ele>
        <time>2022-06-11T07:49:53Z</time>
      </trkpt>
      <trkpt lat="42.8793020" lon="-5.4431100">
        <ele>1446.2</ele>
        <time>2022-06-11T07:49:56Z</time>
      </trkpt>
      <trkpt lat="42.8793050" lon="-5.4431500">
        <ele>1445.8</ele>
        <time>2022-06-11T07:49:57Z</time>
      </trkpt>
      <trkpt lat="42.8793330" lon="-5.4433550">
        <ele>1445.2</ele>
        <time>2022-06-11T07:50:02Z</time>
      </trkpt>
      <trkpt lat="42.8793500" lon="-5.4434630">
        <ele>1444.6</ele>
        <time>2022-06-11T07:50:05Z</time>
      </trkpt>
      <trkpt lat="42.8793530" lon="-5.4435510">
        <ele>1444.2</ele>
        <time>2022-06-11T07:50:08Z</time>
      </trkpt>
      <trkpt lat="42.8793640" lon="-5.4436410">
        <ele>1443.2</ele>
        <time>2022-06-11T07:50:11Z</time>
      </trkpt>
      <trkpt lat="42.8793850" lon="-5.4437150">
        <ele>1442.0</ele>
        <time>2022-06-11T07:50:15Z</time>
      </trkpt>
      <trkpt lat="42.8793880" lon="-5.4437190">
        <ele>1441.6</ele>
        <time>2022-06-11T07:50:16Z</time>
      </trkpt>
      <trkpt lat="42.8793920" lon="-5.4437220">
        <ele>1440.8</ele>
        <time>2022-06-11T07:50:18Z</time>
      </trkpt>
      <trkpt lat="42.8793930" lon="-5.4437220">
        <ele>1440.4</ele>
        <time>2022-06-11T07:50:25Z</time>
      </trkpt>
      <trkpt lat="42.8794000" lon="-5.4437270">
        <ele>1440.0</ele>
        <time>2022-06-11T07:50:34Z</time>
      </trkpt>
      <trkpt lat="42.8794160" lon="-5.4437850">
        <ele>1439.2</ele>
        <time>2022-06-11T07:50:36Z</time>
      </trkpt>
      <trkpt lat="42.8794370" lon="-5.4438730">
        <ele>1437.6</ele>
        <time>2022-06-11T07:50:39Z</time>
      </trkpt>
      <trkpt lat="42.8794520" lon="-5.4439320">
        <ele>1436.8</ele>
        <time>2022-06-11T07:50:41Z</time>
      </trkpt>
      <trkpt lat="42.8794620" lon="-5.4439660">
        <ele>1436.2</ele>
        <time>2022-06-11T07:50:42Z</time>
      </trkpt>
      <trkpt lat="42.8794940" lon="-5.4440260">
        <ele>1435.0</ele>
        <time>2022-06-11T07:50:44Z</time>
      </trkpt>
      <trkpt lat="42.8795400" lon="-5.4440620">
        <ele>1433.6</ele>
        <time>2022-06-11T07:50:46Z</time>
      </trkpt>
      <trkpt lat="42.8795870" lon="-5.4440600">
        <ele>1432.4</ele>
        <time>2022-06-11T07:50:48Z</time>
      </trkpt>
      <trkpt lat="42.8796330" lon="-5.4440300">
        <ele>1431.4</ele>
        <time>2022-06-11T07:50:50Z</time>
      </trkpt>
      <trkpt lat="42.8797180" lon="-5.4439700">
        <ele>1430.0</ele>
        <time>2022-06-11T07:50:54Z</time>
      </trkpt>
      <trkpt lat="42.8797770" lon="-5.4439700">
        <ele>1429.2</ele>
        <time>2022-06-11T07:50:57Z</time>
      </trkpt>
      <trkpt lat="42.8797930" lon="-5.4439860">
        <ele>1428.8</ele>
        <time>2022-06-11T07:50:58Z</time>
      </trkpt>
      <trkpt lat="42.8798130" lon="-5.4440330">
        <ele>1428.4</ele>
        <time>2022-06-11T07:51:00Z</time>
      </trkpt>
      <trkpt lat="42.8798260" lon="-5.4440800">
        <ele>1427.2</ele>
        <time>2022-06-11T07:51:02Z</time>
      </trkpt>
      <trkpt lat="42.8798440" lon="-5.4441640">
        <ele>1425.6</ele>
        <time>2022-06-11T07:51:05Z</time>
      </trkpt>
      <trkpt lat="42.8798600" lon="-5.4442190">
        <ele>1424.4</ele>
        <time>2022-06-11T07:51:07Z</time>
      </trkpt>
      <trkpt lat="42.8798670" lon="-5.4442450">
        <ele>1424.0</ele>
        <time>2022-06-11T07:51:08Z</time>
      </trkpt>
      <trkpt lat="42.8798820" lon="-5.4442940">
        <ele>1423.0</ele>
        <time>2022-06-11T07:51:10Z</time>
      </trkpt>
      <trkpt lat="42.8799040" lon="-5.4443680">
        <ele>1422.0</ele>
        <time>2022-06-11T07:51:13Z</time>
      </trkpt>
      <trkpt lat="42.8799380" lon="-5.4444360">
        <ele>1420.6</ele>
        <time>2022-06-11T07:51:16Z</time>
      </trkpt>
      <trkpt lat="42.8799710" lon="-5.4444810">
        <ele>1419.4</ele>
        <time>2022-06-11T07:51:18Z</time>
      </trkpt>
      <trkpt lat="42.8800120" lon="-5.4445240">
        <ele>1418.2</ele>
        <time>2022-06-11T07:51:20Z</time>
      </trkpt>
      <trkpt lat="42.8800570" lon="-5.4445520">
        <ele>1417.2</ele>
        <time>2022-06-11T07:51:22Z</time>
      </trkpt>
      <trkpt lat="42.8800820" lon="-5.4445640">
        <ele>1416.6</ele>
        <time>2022-06-11T07:51:23Z</time>
      </trkpt>
      <trkpt lat="42.8801070" lon="-5.4445740">
        <ele>1416.0</ele>
        <time>2022-06-11T07:51:24Z</time>
      </trkpt>
      <trkpt lat="42.8801580" lon="-5.4445990">
        <ele>1414.8</ele>
        <time>2022-06-11T07:51:26Z</time>
      </trkpt>
      <trkpt lat="42.8802070" lon="-5.4446200">
        <ele>1413.6</ele>
        <time>2022-06-11T07:51:28Z</time>
      </trkpt>
      <trkpt lat="42.8802530" lon="-5.4446610">
        <ele>1412.8</ele>
        <time>2022-06-11T07:51:30Z</time>
      </trkpt>
      <trkpt lat="42.8802730" lon="-5.4446880">
        <ele>1412.0</ele>
        <time>2022-06-11T07:51:31Z</time>
      </trkpt>
      <trkpt lat="42.8803340" lon="-5.4447650">
        <ele>1411.0</ele>
        <time>2022-06-11T07:51:34Z</time>
      </trkpt>
      <trkpt lat="42.8803730" lon="-5.4448260">
        <ele>1409.8</ele>
        <time>2022-06-11T07:51:36Z</time>
      </trkpt>
      <trkpt lat="42.8803950" lon="-5.4448530">
        <ele>1409.6</ele>
        <time>2022-06-11T07:51:37Z</time>
      </trkpt>
      <trkpt lat="42.8804760" lon="-5.4449020">
        <ele>1408.6</ele>
        <time>2022-06-11T07:51:40Z</time>
      </trkpt>
      <trkpt lat="42.8805640" lon="-5.4449270">
        <ele>1408.2</ele>
        <time>2022-06-11T07:51:43Z</time>
      </trkpt>
      <trkpt lat="42.8806770" lon="-5.4449470">
        <ele>1407.4</ele>
        <time>2022-06-11T07:51:47Z</time>
      </trkpt>
      <trkpt lat="42.8807700" lon="-5.4449540">
        <ele>1406.8</ele>
        <time>2022-06-11T07:51:50Z</time>
      </trkpt>
      <trkpt lat="42.8809200" lon="-5.4450430">
        <ele>1406.6</ele>
        <time>2022-06-11T07:51:56Z</time>
      </trkpt>
      <trkpt lat="42.8809330" lon="-5.4450560">
        <ele>1406.8</ele>
        <time>2022-06-11T07:51:57Z</time>
      </trkpt>
      <trkpt lat="42.8809710" lon="-5.4450860">
        <ele>1407.4</ele>
        <time>2022-06-11T07:51:59Z</time>
      </trkpt>
      <trkpt lat="42.8809850" lon="-5.4450970">
        <ele>1407.6</ele>
        <time>2022-06-11T07:52:00Z</time>
      </trkpt>
      <trkpt lat="42.8810000" lon="-5.4451090">
        <ele>1408.0</ele>
        <time>2022-06-11T07:52:02Z</time>
      </trkpt>
      <trkpt lat="42.8810480" lon="-5.4451360">
        <ele>1408.6</ele>
        <time>2022-06-11T07:52:08Z</time>
      </trkpt>
      <trkpt lat="42.8810720" lon="-5.4451410">
        <ele>1408.8</ele>
        <time>2022-06-11T07:52:10Z</time>
      </trkpt>
      <trkpt lat="42.8811750" lon="-5.4452080">
        <ele>1409.2</ele>
        <time>2022-06-11T07:52:18Z</time>
      </trkpt>
      <trkpt lat="42.8813170" lon="-5.4451940">
        <ele>1407.2</ele>
        <time>2022-06-11T07:52:23Z</time>
      </trkpt>
      <trkpt lat="42.8814450" lon="-5.4452020">
        <ele>1405.8</ele>
        <time>2022-06-11T07:52:28Z</time>
      </trkpt>
      <trkpt lat="42.8814980" lon="-5.4452240">
        <ele>1404.4</ele>
        <time>2022-06-11T07:52:31Z</time>
      </trkpt>
      <trkpt lat="42.8815630" lon="-5.4452500">
        <ele>1402.6</ele>
        <time>2022-06-11T07:52:34Z</time>
      </trkpt>
      <trkpt lat="42.8816050" lon="-5.4452740">
        <ele>1401.6</ele>
        <time>2022-06-11T07:52:36Z</time>
      </trkpt>
      <trkpt lat="42.8816820" lon="-5.4453220">
        <ele>1400.4</ele>
        <time>2022-06-11T07:52:39Z</time>
      </trkpt>
      <trkpt lat="42.8817540" lon="-5.4453500">
        <ele>1398.8</ele>
        <time>2022-06-11T07:52:42Z</time>
      </trkpt>
      <trkpt lat="42.8817980" lon="-5.4453640">
        <ele>1397.6</ele>
        <time>2022-06-11T07:52:44Z</time>
      </trkpt>
      <trkpt lat="42.8818520" lon="-5.4453850">
        <ele>1396.4</ele>
        <time>2022-06-11T07:52:46Z</time>
      </trkpt>
      <trkpt lat="42.8819070" lon="-5.4454030">
        <ele>1395.2</ele>
        <time>2022-06-11T07:52:48Z</time>
      </trkpt>
      <trkpt lat="42.8819530" lon="-5.4454200">
        <ele>1394.2</ele>
        <time>2022-06-11T07:52:50Z</time>
      </trkpt>
      <trkpt lat="42.8820730" lon="-5.4454380">
        <ele>1393.0</ele>
        <time>2022-06-11T07:52:54Z</time>
      </trkpt>
      <trkpt lat="42.8822360" lon="-5.4454430">
        <ele>1392.0</ele>
        <time>2022-06-11T07:53:01Z</time>
      </trkpt>
      <trkpt lat="42.8822740" lon="-5.4454510">
        <ele>1391.8</ele>
        <time>2022-06-11T07:53:03Z</time>
      </trkpt>
      <trkpt lat="42.8823840" lon="-5.4455360">
        <ele>1390.8</ele>
        <time>2022-06-11T07:53:08Z</time>
      </trkpt>
      <trkpt lat="42.8824520" lon="-5.4455630">
        <ele>1389.6</ele>
        <time>2022-06-11T07:53:11Z</time>
      </trkpt>
      <trkpt lat="42.8825180" lon="-5.4456130">
        <ele>1388.2</ele>
        <time>2022-06-11T07:53:14Z</time>
      </trkpt>
      <trkpt lat="42.8825670" lon="-5.4456910">
        <ele>1387.2</ele>
        <time>2022-06-11T07:53:17Z</time>
      </trkpt>
      <trkpt lat="42.8825750" lon="-5.4457090">
        <ele>1386.8</ele>
        <time>2022-06-11T07:53:18Z</time>
      </trkpt>
      <trkpt lat="42.8825980" lon="-5.4457390">
        <ele>1386.0</ele>
        <time>2022-06-11T07:53:20Z</time>
      </trkpt>
      <trkpt lat="42.8826170" lon="-5.4457540">
        <ele>1385.0</ele>
        <time>2022-06-11T07:53:22Z</time>
      </trkpt>
      <trkpt lat="42.8826160" lon="-5.4457550">
        <ele>1384.6</ele>
        <time>2022-06-11T07:53:23Z</time>
      </trkpt>
      <trkpt lat="42.8826120" lon="-5.4457530">
        <ele>1384.4</ele>
        <time>2022-06-11T07:53:25Z</time>
      </trkpt>
      <trkpt lat="42.8826110" lon="-5.4457540">
        <ele>1384.2</ele>
        <time>2022-06-11T07:53:27Z</time>
      </trkpt>
      <trkpt lat="42.8826310" lon="-5.4458060">
        <ele>1383.6</ele>
        <time>2022-06-11T07:53:34Z</time>
      </trkpt>
      <trkpt lat="42.8826350" lon="-5.4458140">
        <ele>1383.6</ele>
        <time>2022-06-11T07:53:35Z</time>
      </trkpt>
      <trkpt lat="42.8826990" lon="-5.4458690">
        <ele>1382.6</ele>
        <time>2022-06-11T07:53:39Z</time>
      </trkpt>
      <trkpt lat="42.8827130" lon="-5.4458860">
        <ele>1382.0</ele>
        <time>2022-06-11T07:53:40Z</time>
      </trkpt>
      <trkpt lat="42.8827290" lon="-5.4459050">
        <ele>1381.4</ele>
        <time>2022-06-11T07:53:41Z</time>
      </trkpt>
      <trkpt lat="42.8827790" lon="-5.4459600">
        <ele>1379.8</ele>
        <time>2022-06-11T07:53:44Z</time>
      </trkpt>
      <trkpt lat="42.8828200" lon="-5.4460250">
        <ele>1378.2</ele>
        <time>2022-06-11T07:53:47Z</time>
      </trkpt>
      <trkpt lat="42.8828700" lon="-5.4461020">
        <ele>1376.8</ele>
        <time>2022-06-11T07:53:50Z</time>
      </trkpt>
      <trkpt lat="42.8829390" lon="-5.4461880">
        <ele>1375.6</ele>
        <time>2022-06-11T07:53:53Z</time>
      </trkpt>
      <trkpt lat="42.8829870" lon="-5.4462350">
        <ele>1374.4</ele>
        <time>2022-06-11T07:53:55Z</time>
      </trkpt>
      <trkpt lat="42.8830160" lon="-5.4462610">
        <ele>1374.0</ele>
        <time>2022-06-11T07:53:56Z</time>
      </trkpt>
      <trkpt lat="42.8830860" lon="-5.4463240">
        <ele>1373.4</ele>
        <time>2022-06-11T07:53:59Z</time>
      </trkpt>
      <trkpt lat="42.8831110" lon="-5.4463500">
        <ele>1373.4</ele>
        <time>2022-06-11T07:54:00Z</time>
      </trkpt>
      <trkpt lat="42.8831350" lon="-5.4463760">
        <ele>1372.8</ele>
        <time>2022-06-11T07:54:01Z</time>
      </trkpt>
      <trkpt lat="42.8832060" lon="-5.4465080">
        <ele>1371.8</ele>
        <time>2022-06-11T07:54:06Z</time>
      </trkpt>
      <trkpt lat="42.8832690" lon="-5.4465440">
        <ele>1370.4</ele>
        <time>2022-06-11T07:54:09Z</time>
      </trkpt>
      <trkpt lat="42.8832930" lon="-5.4465500">
        <ele>1369.8</ele>
        <time>2022-06-11T07:54:10Z</time>
      </trkpt>
      <trkpt lat="42.8833370" lon="-5.4465890">
        <ele>1369.0</ele>
        <time>2022-06-11T07:54:12Z</time>
      </trkpt>
      <trkpt lat="42.8833690" lon="-5.4466520">
        <ele>1368.2</ele>
        <time>2022-06-11T07:54:14Z</time>
      </trkpt>
      <trkpt lat="42.8833810" lon="-5.4466910">
        <ele>1368.0</ele>
        <time>2022-06-11T07:54:15Z</time>
      </trkpt>
      <trkpt lat="42.8833970" lon="-5.4467490">
        <ele>1367.2</ele>
        <time>2022-06-11T07:54:17Z</time>
      </trkpt>
      <trkpt lat="42.8834260" lon="-5.4468200">
        <ele>1366.8</ele>
        <time>2022-06-11T07:54:19Z</time>
      </trkpt>
      <trkpt lat="42.8834440" lon="-5.4468480">
        <ele>1366.4</ele>
        <time>2022-06-11T07:54:20Z</time>
      </trkpt>
      <trkpt lat="42.8834580" lon="-5.4468670">
        <ele>1366.2</ele>
        <time>2022-06-11T07:54:21Z</time>
      </trkpt>
      <trkpt lat="42.8834780" lon="-5.4468920">
        <ele>1365.8</ele>
        <time>2022-06-11T07:54:22Z</time>
      </trkpt>
      <trkpt lat="42.8835670" lon="-5.4470820">
        <ele>1364.2</ele>
        <time>2022-06-11T07:54:28Z</time>
      </trkpt>
      <trkpt lat="42.8835770" lon="-5.4471180">
        <ele>1363.8</ele>
        <time>2022-06-11T07:54:29Z</time>
      </trkpt>
      <trkpt lat="42.8836230" lon="-5.4472950">
        <ele>1363.0</ele>
        <time>2022-06-11T07:54:34Z</time>
      </trkpt>
      <trkpt lat="42.8836320" lon="-5.4473320">
        <ele>1362.8</ele>
        <time>2022-06-11T07:54:35Z</time>
      </trkpt>
      <trkpt lat="42.8836880" lon="-5.4474160">
        <ele>1362.0</ele>
        <time>2022-06-11T07:54:38Z</time>
      </trkpt>
      <trkpt lat="42.8837140" lon="-5.4474400">
        <ele>1361.4</ele>
        <time>2022-06-11T07:54:39Z</time>
      </trkpt>
      <trkpt lat="42.8837390" lon="-5.4474630">
        <ele>1361.0</ele>
        <time>2022-06-11T07:54:40Z</time>
      </trkpt>
      <trkpt lat="42.8838510" lon="-5.4476070">
        <ele>1360.6</ele>
        <time>2022-06-11T07:54:46Z</time>
      </trkpt>
      <trkpt lat="42.8839000" lon="-5.4477830">
        <ele>1360.8</ele>
        <time>2022-06-11T07:54:51Z</time>
      </trkpt>
      <trkpt lat="42.8839720" lon="-5.4479840">
        <ele>1360.4</ele>
        <time>2022-06-11T07:54:58Z</time>
      </trkpt>
      <trkpt lat="42.8839880" lon="-5.4480650">
        <ele>1360.0</ele>
        <time>2022-06-11T07:55:01Z</time>
      </trkpt>
      <trkpt lat="42.8840190" lon="-5.4481950">
        <ele>1358.6</ele>
        <time>2022-06-11T07:55:06Z</time>
      </trkpt>
      <trkpt lat="42.8840550" lon="-5.4483080">
        <ele>1357.6</ele>
        <time>2022-06-11T07:55:10Z</time>
      </trkpt>
      <trkpt lat="42.8840680" lon="-5.4483920">
        <ele>1356.6</ele>
        <time>2022-06-11T07:55:13Z</time>
      </trkpt>
      <trkpt lat="42.8840740" lon="-5.4484790">
        <ele>1355.2</ele>
        <time>2022-06-11T07:55:16Z</time>
      </trkpt>
      <trkpt lat="42.8840810" lon="-5.4485370">
        <ele>1354.2</ele>
        <time>2022-06-11T07:55:18Z</time>
      </trkpt>
      <trkpt lat="42.8840850" lon="-5.4485990">
        <ele>1353.0</ele>
        <time>2022-06-11T07:55:20Z</time>
      </trkpt>
      <trkpt lat="42.8840990" lon="-5.4486910">
        <ele>1351.8</ele>
        <time>2022-06-11T07:55:23Z</time>
      </trkpt>
      <trkpt lat="42.8840810" lon="-5.4487880">
        <ele>1350.6</ele>
        <time>2022-06-11T07:55:27Z</time>
      </trkpt>
      <trkpt lat="42.8840490" lon="-5.4488490">
        <ele>1349.4</ele>
        <time>2022-06-11T07:55:30Z</time>
      </trkpt>
      <trkpt lat="42.8840230" lon="-5.4489020">
        <ele>1347.8</ele>
        <time>2022-06-11T07:55:32Z</time>
      </trkpt>
      <trkpt lat="42.8840160" lon="-5.4489680">
        <ele>1346.6</ele>
        <time>2022-06-11T07:55:34Z</time>
      </trkpt>
      <trkpt lat="42.8840230" lon="-5.4490330">
        <ele>1345.6</ele>
        <time>2022-06-11T07:55:36Z</time>
      </trkpt>
      <trkpt lat="42.8840380" lon="-5.4491090">
        <ele>1344.4</ele>
        <time>2022-06-11T07:55:38Z</time>
      </trkpt>
      <trkpt lat="42.8840420" lon="-5.4491790">
        <ele>1343.8</ele>
        <time>2022-06-11T07:55:40Z</time>
      </trkpt>
      <trkpt lat="42.8840340" lon="-5.4492150">
        <ele>1343.2</ele>
        <time>2022-06-11T07:55:41Z</time>
      </trkpt>
      <trkpt lat="42.8839820" lon="-5.4493380">
        <ele>1342.4</ele>
        <time>2022-06-11T07:55:45Z</time>
      </trkpt>
      <trkpt lat="42.8838620" lon="-5.4495210">
        <ele>1342.8</ele>
        <time>2022-06-11T07:55:53Z</time>
      </trkpt>
      <trkpt lat="42.8838550" lon="-5.4495630">
        <ele>1342.4</ele>
        <time>2022-06-11T07:55:55Z</time>
      </trkpt>
      <trkpt lat="42.8838570" lon="-5.4495860">
        <ele>1342.0</ele>
        <time>2022-06-11T07:55:56Z</time>
      </trkpt>
      <trkpt lat="42.8838690" lon="-5.4496540">
        <ele>1340.6</ele>
        <time>2022-06-11T07:55:59Z</time>
      </trkpt>
      <trkpt lat="42.8838770" lon="-5.4497120">
        <ele>1339.6</ele>
        <time>2022-06-11T07:56:01Z</time>
      </trkpt>
      <trkpt lat="42.8838830" lon="-5.4497620">
        <ele>1338.0</ele>
        <time>2022-06-11T07:56:03Z</time>
      </trkpt>
      <trkpt lat="42.8838870" lon="-5.4498480">
        <ele>1336.6</ele>
        <time>2022-06-11T07:56:06Z</time>
      </trkpt>
      <trkpt lat="42.8838890" lon="-5.4498730">
        <ele>1336.0</ele>
        <time>2022-06-11T07:56:07Z</time>
      </trkpt>
      <trkpt lat="42.8838870" lon="-5.4499030">
        <ele>1335.4</ele>
        <time>2022-06-11T07:56:08Z</time>
      </trkpt>
      <trkpt lat="42.8838730" lon="-5.4499590">
        <ele>1334.2</ele>
        <time>2022-06-11T07:56:10Z</time>
      </trkpt>
      <trkpt lat="42.8838500" lon="-5.4500200">
        <ele>1333.2</ele>
        <time>2022-06-11T07:56:12Z</time>
      </trkpt>
      <trkpt lat="42.8838410" lon="-5.4500510">
        <ele>1332.6</ele>
        <time>2022-06-11T07:56:13Z</time>
      </trkpt>
      <trkpt lat="42.8838400" lon="-5.4501220">
        <ele>1331.6</ele>
        <time>2022-06-11T07:56:15Z</time>
      </trkpt>
      <trkpt lat="42.8838590" lon="-5.4501810">
        <ele>1331.0</ele>
        <time>2022-06-11T07:56:17Z</time>
      </trkpt>
      <trkpt lat="42.8838750" lon="-5.4502130">
        <ele>1330.6</ele>
        <time>2022-06-11T07:56:18Z</time>
      </trkpt>
      <trkpt lat="42.8839430" lon="-5.4503050">
        <ele>1329.6</ele>
        <time>2022-06-11T07:56:21Z</time>
      </trkpt>
      <trkpt lat="42.8839780" lon="-5.4503290">
        <ele>1329.0</ele>
        <time>2022-06-11T07:56:23Z</time>
      </trkpt>
      <trkpt lat="42.8840320" lon="-5.4503840">
        <ele>1328.6</ele>
        <time>2022-06-11T07:56:26Z</time>
      </trkpt>
      <trkpt lat="42.8840650" lon="-5.4504440">
        <ele>1328.2</ele>
        <time>2022-06-11T07:56:28Z</time>
      </trkpt>
      <trkpt lat="42.8841010" lon="-5.4506290">
        <ele>1327.6</ele>
        <time>2022-06-11T07:56:32Z</time>
      </trkpt>
      <trkpt lat="42.8841390" lon="-5.4506880">
        <ele>1327.2</ele>
        <time>2022-06-11T07:56:34Z</time>
      </trkpt>
      <trkpt lat="42.8842410" lon="-5.4508430">
        <ele>1326.6</ele>
        <time>2022-06-11T07:56:40Z</time>
      </trkpt>
      <trkpt lat="42.8843350" lon="-5.4510520">
        <ele>1327.2</ele>
        <time>2022-06-11T07:56:47Z</time>
      </trkpt>
      <trkpt lat="42.8843790" lon="-5.4511310">
        <ele>1327.0</ele>
        <time>2022-06-11T07:56:50Z</time>
      </trkpt>
      <trkpt lat="42.8844110" lon="-5.4511850">
        <ele>1326.4</ele>
        <time>2022-06-11T07:56:52Z</time>
      </trkpt>
      <trkpt lat="42.8844410" lon="-5.4512750">
        <ele>1326.2</ele>
        <time>2022-06-11T07:56:55Z</time>
      </trkpt>
      <trkpt lat="42.8844570" lon="-5.4513550">
        <ele>1325.4</ele>
        <time>2022-06-11T07:56:58Z</time>
      </trkpt>
      <trkpt lat="42.8844710" lon="-5.4514410">
        <ele>1324.2</ele>
        <time>2022-06-11T07:57:01Z</time>
      </trkpt>
      <trkpt lat="42.8844750" lon="-5.4515170">
        <ele>1322.6</ele>
        <time>2022-06-11T07:57:04Z</time>
      </trkpt>
      <trkpt lat="42.8844800" lon="-5.4515640">
        <ele>1321.6</ele>
        <time>2022-06-11T07:57:06Z</time>
      </trkpt>
      <trkpt lat="42.8844980" lon="-5.4516170">
        <ele>1320.2</ele>
        <time>2022-06-11T07:57:08Z</time>
      </trkpt>
      <trkpt lat="42.8845010" lon="-5.4516370">
        <ele>1319.6</ele>
        <time>2022-06-11T07:57:09Z</time>
      </trkpt>
      <trkpt lat="42.8845010" lon="-5.4516630">
        <ele>1319.2</ele>
        <time>2022-06-11T07:57:10Z</time>
      </trkpt>
      <trkpt lat="42.8844990" lon="-5.4517460">
        <ele>1317.8</ele>
        <time>2022-06-11T07:57:13Z</time>
      </trkpt>
      <trkpt lat="42.8845030" lon="-5.4518080">
        <ele>1316.4</ele>
        <time>2022-06-11T07:57:15Z</time>
      </trkpt>
      <trkpt lat="42.8845080" lon="-5.4518380">
        <ele>1316.0</ele>
        <time>2022-06-11T07:57:16Z</time>
      </trkpt>
      <trkpt lat="42.8845170" lon="-5.4518770">
        <ele>1315.2</ele>
        <time>2022-06-11T07:57:17Z</time>
      </trkpt>
      <trkpt lat="42.8845400" lon="-5.4519530">
        <ele>1313.6</ele>
        <time>2022-06-11T07:57:19Z</time>
      </trkpt>
      <trkpt lat="42.8845650" lon="-5.4520710">
        <ele>1312.4</ele>
        <time>2022-06-11T07:57:22Z</time>
      </trkpt>
      <trkpt lat="42.8846170" lon="-5.4522870">
        <ele>1311.4</ele>
        <time>2022-06-11T07:57:28Z</time>
      </trkpt>
      <trkpt lat="42.8846370" lon="-5.4523200">
        <ele>1311.4</ele>
        <time>2022-06-11T07:57:29Z</time>
      </trkpt>
      <trkpt lat="42.8846970" lon="-5.4524030">
        <ele>1310.0</ele>
        <time>2022-06-11T07:57:32Z</time>
      </trkpt>
      <trkpt lat="42.8847080" lon="-5.4524430">
        <ele>1309.6</ele>
        <time>2022-06-11T07:57:33Z</time>
      </trkpt>
      <trkpt lat="42.8847110" lon="-5.4525280">
        <ele>1308.6</ele>
        <time>2022-06-11T07:57:35Z</time>
      </trkpt>
      <trkpt lat="42.8846990" lon="-5.4525610">
        <ele>1308.4</ele>
        <time>2022-06-11T07:57:36Z</time>
      </trkpt>
      <trkpt lat="42.8846820" lon="-5.4526800">
        <ele>1307.6</ele>
        <time>2022-06-11T07:57:39Z</time>
      </trkpt>
      <trkpt lat="42.8846800" lon="-5.4527220">
        <ele>1307.4</ele>
        <time>2022-06-11T07:57:40Z</time>
      </trkpt>
      <trkpt lat="42.8846930" lon="-5.4528750">
        <ele>1306.2</ele>
        <time>2022-06-11T07:57:44Z</time>
      </trkpt>
      <trkpt lat="42.8847100" lon="-5.4529330">
        <ele>1305.6</ele>
        <time>2022-06-11T07:57:46Z</time>
      </trkpt>
      <trkpt lat="42.8847310" lon="-5.4529580">
        <ele>1304.8</ele>
        <time>2022-06-11T07:57:47Z</time>
      </trkpt>
      <trkpt lat="42.8847780" lon="-5.4529930">
        <ele>1304.0</ele>
        <time>2022-06-11T07:57:49Z</time>
      </trkpt>
      <trkpt lat="42.8848020" lon="-5.4530000">
        <ele>1303.6</ele>
        <time>2022-06-11T07:57:50Z</time>
      </trkpt>
      <trkpt lat="42.8848980" lon="-5.4530130">
        <ele>1302.6</ele>
        <time>2022-06-11T07:57:53Z</time>
      </trkpt>
      <trkpt lat="42.8849460" lon="-5.4530100">
        <ele>1302.2</ele>
        <time>2022-06-11T07:57:55Z</time>
      </trkpt>
      <trkpt lat="42.8850870" lon="-5.4529980">
        <ele>1302.6</ele>
        <time>2022-06-11T07:58:02Z</time>
      </trkpt>
      <trkpt lat="42.8851680" lon="-5.4530210">
        <ele>1303.6</ele>
        <time>2022-06-11T07:58:07Z</time>
      </trkpt>
      <trkpt lat="42.8851830" lon="-5.4530320">
        <ele>1303.8</ele>
        <time>2022-06-11T07:58:08Z</time>
      </trkpt>
      <trkpt lat="42.8852390" lon="-5.4530630">
        <ele>1304.6</ele>
        <time>2022-06-11T07:58:11Z</time>
      </trkpt>
      <trkpt lat="42.8853430" lon="-5.4530800">
        <ele>1305.2</ele>
        <time>2022-06-11T07:58:16Z</time>
      </trkpt>
      <trkpt lat="42.8854870" lon="-5.4530580">
        <ele>1305.6</ele>
        <time>2022-06-11T07:58:24Z</time>
      </trkpt>
      <trkpt lat="42.8855280" lon="-5.4530630">
        <ele>1305.8</ele>
        <time>2022-06-11T07:58:27Z</time>
      </trkpt>
      <trkpt lat="42.8855700" lon="-5.4530520">
        <ele>1305.8</ele>
        <time>2022-06-11T07:58:30Z</time>
      </trkpt>
      <trkpt lat="42.8856100" lon="-5.4530430">
        <ele>1306.2</ele>
        <time>2022-06-11T07:58:36Z</time>
      </trkpt>
      <trkpt lat="42.8856090" lon="-5.4530380">
        <ele>1306.6</ele>
        <time>2022-06-11T07:58:43Z</time>
      </trkpt>
      <trkpt lat="42.8856080" lon="-5.4530570">
        <ele>1306.6</ele>
        <time>2022-06-11T07:58:50Z</time>
      </trkpt>
      <trkpt lat="42.8856080" lon="-5.4530600">
        <ele>1305.8</ele>
        <time>2022-06-11T07:59:04Z</time>
      </trkpt>
      <trkpt lat="42.8856080" lon="-5.4530600">
        <ele>1305.8</ele>
        <time>2022-06-11T07:59:05Z</time>
      </trkpt>
      <trkpt lat="42.8856210" lon="-5.4530750">
        <ele>1305.8</ele>
        <time>2022-06-11T07:59:32Z</time>
      </trkpt>
      <trkpt lat="42.8856210" lon="-5.4530750">
        <ele>1305.8</ele>
        <time>2022-06-11T07:59:33Z</time>
      </trkpt>
      <trkpt lat="42.8856310" lon="-5.4530540">
        <ele>1305.2</ele>
        <time>2022-06-11T07:59:48Z</time>
      </trkpt>
      <trkpt lat="42.8856320" lon="-5.4530530">
        <ele>1305.2</ele>
        <time>2022-06-11T07:59:50Z</time>
      </trkpt>
      <trkpt lat="42.8856330" lon="-5.4530510">
        <ele>1305.2</ele>
        <time>2022-06-11T07:59:51Z</time>
      </trkpt>
      <trkpt lat="42.8856340" lon="-5.4530500">
        <ele>1305.2</ele>
        <time>2022-06-11T07:59:52Z</time>
      </trkpt>
      <trkpt lat="42.8856340" lon="-5.4530490">
        <ele>1305.2</ele>
        <time>2022-06-11T07:59:53Z</time>
      </trkpt>
      <trkpt lat="42.8856350" lon="-5.4530160">
        <ele>1305.0</ele>
        <time>2022-06-11T08:00:07Z</time>
      </trkpt>
      <trkpt lat="42.8856300" lon="-5.4530110">
        <ele>1304.8</ele>
        <time>2022-06-11T08:00:16Z</time>
      </trkpt>
      <trkpt lat="42.8856280" lon="-5.4530110">
        <ele>1304.8</ele>
        <time>2022-06-11T08:00:17Z</time>
      </trkpt>
      <trkpt lat="42.8856170" lon="-5.4530120">
        <ele>1304.6</ele>
        <time>2022-06-11T08:00:25Z</time>
      </trkpt>
      <trkpt lat="42.8856430" lon="-5.4531200">
        <ele>1305.8</ele>
        <time>2022-06-11T08:00:36Z</time>
      </trkpt>
      <trkpt lat="42.8856740" lon="-5.4533280">
        <ele>1306.4</ele>
        <time>2022-06-11T08:00:41Z</time>
      </trkpt>
      <trkpt lat="42.8856820" lon="-5.4533700">
        <ele>1306.8</ele>
        <time>2022-06-11T08:00:42Z</time>
      </trkpt>
      <trkpt lat="42.8856910" lon="-5.4533980">
        <ele>1306.8</ele>
        <time>2022-06-11T08:00:43Z</time>
      </trkpt>
      <trkpt lat="42.8857250" lon="-5.4534800">
        <ele>1307.2</ele>
        <time>2022-06-11T08:00:46Z</time>
      </trkpt>
      <trkpt lat="42.8857530" lon="-5.4535190">
        <ele>1307.8</ele>
        <time>2022-06-11T08:00:48Z</time>
      </trkpt>
      <trkpt lat="42.8857680" lon="-5.4535350">
        <ele>1308.2</ele>
        <time>2022-06-11T08:00:49Z</time>
      </trkpt>
      <trkpt lat="42.8858080" lon="-5.4535780">
        <ele>1309.0</ele>
        <time>2022-06-11T08:00:52Z</time>
      </trkpt>
      <trkpt lat="42.8858240" lon="-5.4535960">
        <ele>1309.2</ele>
        <time>2022-06-11T08:00:53Z</time>
      </trkpt>
      <trkpt lat="42.8858490" lon="-5.4536970">
        <ele>1310.2</ele>
        <time>2022-06-11T08:00:59Z</time>
      </trkpt>
      <trkpt lat="42.8858720" lon="-5.4537770">
        <ele>1311.4</ele>
        <time>2022-06-11T08:01:05Z</time>
      </trkpt>
      <trkpt lat="42.8858820" lon="-5.4537910">
        <ele>1311.6</ele>
        <time>2022-06-11T08:01:06Z</time>
      </trkpt>
      <trkpt lat="42.8858920" lon="-5.4538000">
        <ele>1312.0</ele>
        <time>2022-06-11T08:01:07Z</time>
      </trkpt>
      <trkpt lat="42.8858990" lon="-5.4538000">
        <ele>1312.4</ele>
        <time>2022-06-11T08:01:08Z</time>
      </trkpt>
      <trkpt lat="42.8859050" lon="-5.4538030">
        <ele>1312.6</ele>
        <time>2022-06-11T08:01:09Z</time>
      </trkpt>
      <trkpt lat="42.8859150" lon="-5.4538070">
        <ele>1312.8</ele>
        <time>2022-06-11T08:01:10Z</time>
      </trkpt>
      <trkpt lat="42.8859370" lon="-5.4538260">
        <ele>1313.2</ele>
        <time>2022-06-11T08:01:12Z</time>
      </trkpt>
      <trkpt lat="42.8859580" lon="-5.4538330">
        <ele>1313.6</ele>
        <time>2022-06-11T08:01:14Z</time>
      </trkpt>
      <trkpt lat="42.8859690" lon="-5.4538380">
        <ele>1314.0</ele>
        <time>2022-06-11T08:01:16Z</time>
      </trkpt>
      <trkpt lat="42.8859820" lon="-5.4538690">
        <ele>1314.6</ele>
        <time>2022-06-11T08:01:19Z</time>
      </trkpt>
      <trkpt lat="42.8859940" lon="-5.4539250">
        <ele>1315.6</ele>
        <time>2022-06-11T08:01:23Z</time>
      </trkpt>
      <trkpt lat="42.8859930" lon="-5.4539360">
        <ele>1316.0</ele>
        <time>2022-06-11T08:01:24Z</time>
      </trkpt>
      <trkpt lat="42.8859940" lon="-5.4539950">
        <ele>1317.0</ele>
        <time>2022-06-11T08:01:29Z</time>
      </trkpt>
      <trkpt lat="42.8859940" lon="-5.4540140">
        <ele>1317.2</ele>
        <time>2022-06-11T08:01:30Z</time>
      </trkpt>
      <trkpt lat="42.8859960" lon="-5.4540320">
        <ele>1317.4</ele>
        <time>2022-06-11T08:01:31Z</time>
      </trkpt>
      <trkpt lat="42.8859620" lon="-5.4541700">
        <ele>1317.4</ele>
        <time>2022-06-11T08:01:36Z</time>
      </trkpt>
      <trkpt lat="42.8859550" lon="-5.4542500">
        <ele>1318.2</ele>
        <time>2022-06-11T08:01:40Z</time>
      </trkpt>
      <trkpt lat="42.8859590" lon="-5.4542860">
        <ele>1318.8</ele>
        <time>2022-06-11T08:01:42Z</time>
      </trkpt>
      <trkpt lat="42.8859620" lon="-5.4543130">
        <ele>1319.4</ele>
        <time>2022-06-11T08:01:44Z</time>
      </trkpt>
      <trkpt lat="42.8859770" lon="-5.4543520">
        <ele>1319.8</ele>
        <time>2022-06-11T08:01:47Z</time>
      </trkpt>
      <trkpt lat="42.8860040" lon="-5.4543770">
        <ele>1320.6</ele>
        <time>2022-06-11T08:01:50Z</time>
      </trkpt>
      <trkpt lat="42.8860180" lon="-5.4544150">
        <ele>1321.4</ele>
        <time>2022-06-11T08:01:54Z</time>
      </trkpt>
      <trkpt lat="42.8860260" lon="-5.4544280">
        <ele>1321.8</ele>
        <time>2022-06-11T08:01:55Z</time>
      </trkpt>
      <trkpt lat="42.8860370" lon="-5.4545180">
        <ele>1322.8</ele>
        <time>2022-06-11T08:02:01Z</time>
      </trkpt>
      <trkpt lat="42.8860360" lon="-5.4545800">
        <ele>1324.0</ele>
        <time>2022-06-11T08:02:05Z</time>
      </trkpt>
      <trkpt lat="42.8860380" lon="-5.4546210">
        <ele>1324.6</ele>
        <time>2022-06-11T08:02:08Z</time>
      </trkpt>
      <trkpt lat="42.8860420" lon="-5.4546770">
        <ele>1325.0</ele>
        <time>2022-06-11T08:02:12Z</time>
      </trkpt>
      <trkpt lat="42.8860500" lon="-5.4547290">
        <ele>1326.2</ele>
        <time>2022-06-11T08:02:16Z</time>
      </trkpt>
      <trkpt lat="42.8860610" lon="-5.4547910">
        <ele>1327.0</ele>
        <time>2022-06-11T08:02:20Z</time>
      </trkpt>
      <trkpt lat="42.8860690" lon="-5.4548250">
        <ele>1327.4</ele>
        <time>2022-06-11T08:02:22Z</time>
      </trkpt>
      <trkpt lat="42.8860920" lon="-5.4548880">
        <ele>1328.6</ele>
        <time>2022-06-11T08:02:27Z</time>
      </trkpt>
      <trkpt lat="42.8860950" lon="-5.4548990">
        <ele>1328.6</ele>
        <time>2022-06-11T08:02:28Z</time>
      </trkpt>
      <trkpt lat="42.8861130" lon="-5.4549720">
        <ele>1329.6</ele>
        <time>2022-06-11T08:02:33Z</time>
      </trkpt>
      <trkpt lat="42.8861290" lon="-5.4550210">
        <ele>1330.6</ele>
        <time>2022-06-11T08:02:37Z</time>
      </trkpt>
      <trkpt lat="42.8861340" lon="-5.4550300">
        <ele>1330.8</ele>
        <time>2022-06-11T08:02:38Z</time>
      </trkpt>
      <trkpt lat="42.8861960" lon="-5.4551800">
        <ele>1331.6</ele>
        <time>2022-06-11T08:02:44Z</time>
      </trkpt>
      <trkpt lat="42.8863210" lon="-5.4553570">
        <ele>1331.2</ele>
        <time>2022-06-11T08:02:51Z</time>
      </trkpt>
      <trkpt lat="42.8864780" lon="-5.4554880">
        <ele>1331.4</ele>
        <time>2022-06-11T08:02:58Z</time>
      </trkpt>
      <trkpt lat="42.8865260" lon="-5.4555630">
        <ele>1331.8</ele>
        <time>2022-06-11T08:03:01Z</time>
      </trkpt>
      <trkpt lat="42.8865620" lon="-5.4556370">
        <ele>1332.0</ele>
        <time>2022-06-11T08:03:04Z</time>
      </trkpt>
      <trkpt lat="42.8866270" lon="-5.4558870">
        <ele>1333.0</ele>
        <time>2022-06-11T08:03:12Z</time>
      </trkpt>
      <trkpt lat="42.8866310" lon="-5.4559130">
        <ele>1333.2</ele>
        <time>2022-06-11T08:03:13Z</time>
      </trkpt>
      <trkpt lat="42.8866330" lon="-5.4560790">
        <ele>1334.2</ele>
        <time>2022-06-11T08:03:18Z</time>
      </trkpt>
      <trkpt lat="42.8866330" lon="-5.4561480">
        <ele>1334.4</ele>
        <time>2022-06-11T08:03:20Z</time>
      </trkpt>
      <trkpt lat="42.8866320" lon="-5.4562460">
        <ele>1334.2</ele>
        <time>2022-06-11T08:03:23Z</time>
      </trkpt>
      <trkpt lat="42.8866570" lon="-5.4564070">
        <ele>1334.2</ele>
        <time>2022-06-11T08:03:28Z</time>
      </trkpt>
      <trkpt lat="42.8866940" lon="-5.4564960">
        <ele>1334.4</ele>
        <time>2022-06-11T08:03:32Z</time>
      </trkpt>
      <trkpt lat="42.8867010" lon="-5.4565110">
        <ele>1334.4</ele>
        <time>2022-06-11T08:03:33Z</time>
      </trkpt>
      <trkpt lat="42.8867550" lon="-5.4566480">
        <ele>1334.2</ele>
        <time>2022-06-11T08:03:40Z</time>
      </trkpt>
      <trkpt lat="42.8867890" lon="-5.4568560">
        <ele>1333.8</ele>
        <time>2022-06-11T08:03:46Z</time>
      </trkpt>
      <trkpt lat="42.8868000" lon="-5.4569650">
        <ele>1333.2</ele>
        <time>2022-06-11T08:03:49Z</time>
      </trkpt>
      <trkpt lat="42.8867970" lon="-5.4571160">
        <ele>1332.4</ele>
        <time>2022-06-11T08:03:53Z</time>
      </trkpt>
      <trkpt lat="42.8868150" lon="-5.4573220">
        <ele>1333.0</ele>
        <time>2022-06-11T08:03:59Z</time>
      </trkpt>
      <trkpt lat="42.8868740" lon="-5.4575570">
        <ele>1333.6</ele>
        <time>2022-06-11T08:04:06Z</time>
      </trkpt>
      <trkpt lat="42.8868910" lon="-5.4575960">
        <ele>1333.6</ele>
        <time>2022-06-11T08:04:07Z</time>
      </trkpt>
      <trkpt lat="42.8869660" lon="-5.4577760">
        <ele>1333.6</ele>
        <time>2022-06-11T08:04:13Z</time>
      </trkpt>
      <trkpt lat="42.8869740" lon="-5.4578080">
        <ele>1333.4</ele>
        <time>2022-06-11T08:04:14Z</time>
      </trkpt>
      <trkpt lat="42.8870280" lon="-5.4579120">
        <ele>1332.8</ele>
        <time>2022-06-11T08:04:18Z</time>
      </trkpt>
      <trkpt lat="42.8870420" lon="-5.4579370">
        <ele>1332.6</ele>
        <time>2022-06-11T08:04:19Z</time>
      </trkpt>
      <trkpt lat="42.8870980" lon="-5.4580110">
        <ele>1332.0</ele>
        <time>2022-06-11T08:04:22Z</time>
      </trkpt>
      <trkpt lat="42.8871490" lon="-5.4581110">
        <ele>1331.0</ele>
        <time>2022-06-11T08:04:25Z</time>
      </trkpt>
      <trkpt lat="42.8871660" lon="-5.4581410">
        <ele>1330.8</ele>
        <time>2022-06-11T08:04:26Z</time>
      </trkpt>
      <trkpt lat="42.8872270" lon="-5.4582220">
        <ele>1330.0</ele>
        <time>2022-06-11T08:04:29Z</time>
      </trkpt>
      <trkpt lat="42.8872970" lon="-5.4582780">
        <ele>1329.2</ele>
        <time>2022-06-11T08:04:32Z</time>
      </trkpt>
      <trkpt lat="42.8873360" lon="-5.4583240">
        <ele>1328.4</ele>
        <time>2022-06-11T08:04:34Z</time>
      </trkpt>
      <trkpt lat="42.8874110" lon="-5.4584270">
        <ele>1327.4</ele>
        <time>2022-06-11T08:04:38Z</time>
      </trkpt>
      <trkpt lat="42.8874280" lon="-5.4584510">
        <ele>1327.0</ele>
        <time>2022-06-11T08:04:39Z</time>
      </trkpt>
      <trkpt lat="42.8874510" lon="-5.4584870">
        <ele>1326.6</ele>
        <time>2022-06-11T08:04:40Z</time>
      </trkpt>
      <trkpt lat="42.8874710" lon="-5.4585190">
        <ele>1326.2</ele>
        <time>2022-06-11T08:04:41Z</time>
      </trkpt>
      <trkpt lat="42.8875210" lon="-5.4586020">
        <ele>1325.8</ele>
        <time>2022-06-11T08:04:44Z</time>
      </trkpt>
      <trkpt lat="42.8875740" lon="-5.4587390">
        <ele>1325.0</ele>
        <time>2022-06-11T08:04:48Z</time>
      </trkpt>
      <trkpt lat="42.8875840" lon="-5.4587770">
        <ele>1325.0</ele>
        <time>2022-06-11T08:04:49Z</time>
      </trkpt>
      <trkpt lat="42.8876460" lon="-5.4590010">
        <ele>1324.4</ele>
        <time>2022-06-11T08:04:56Z</time>
      </trkpt>
      <trkpt lat="42.8876860" lon="-5.4591260">
        <ele>1324.0</ele>
        <time>2022-06-11T08:05:00Z</time>
      </trkpt>
      <trkpt lat="42.8877170" lon="-5.4591870">
        <ele>1323.4</ele>
        <time>2022-06-11T08:05:02Z</time>
      </trkpt>
      <trkpt lat="42.8877530" lon="-5.4592420">
        <ele>1322.8</ele>
        <time>2022-06-11T08:05:04Z</time>
      </trkpt>
      <trkpt lat="42.8878490" lon="-5.4593530">
        <ele>1321.8</ele>
        <time>2022-06-11T08:05:09Z</time>
      </trkpt>
      <trkpt lat="42.8878910" lon="-5.4594240">
        <ele>1321.6</ele>
        <time>2022-06-11T08:05:12Z</time>
      </trkpt>
      <trkpt lat="42.8879230" lon="-5.4594680">
        <ele>1321.0</ele>
        <time>2022-06-11T08:05:14Z</time>
      </trkpt>
      <trkpt lat="42.8879760" lon="-5.4595010">
        <ele>1320.2</ele>
        <time>2022-06-11T08:05:16Z</time>
      </trkpt>
      <trkpt lat="42.8880270" lon="-5.4595190">
        <ele>1319.4</ele>
        <time>2022-06-11T08:05:18Z</time>
      </trkpt>
      <trkpt lat="42.8880480" lon="-5.4595280">
        <ele>1319.0</ele>
        <time>2022-06-11T08:05:19Z</time>
      </trkpt>
      <trkpt lat="42.8880770" lon="-5.4595430">
        <ele>1318.8</ele>
        <time>2022-06-11T08:05:20Z</time>
      </trkpt>
      <trkpt lat="42.8881400" lon="-5.4596000">
        <ele>1318.0</ele>
        <time>2022-06-11T08:05:23Z</time>
      </trkpt>
      <trkpt lat="42.8881600" lon="-5.4596230">
        <ele>1317.6</ele>
        <time>2022-06-11T08:05:24Z</time>
      </trkpt>
      <trkpt lat="42.8881980" lon="-5.4596660">
        <ele>1317.2</ele>
        <time>2022-06-11T08:05:26Z</time>
      </trkpt>
      <trkpt lat="42.8882780" lon="-5.4597200">
        <ele>1317.0</ele>
        <time>2022-06-11T08:05:30Z</time>
      </trkpt>
      <trkpt lat="42.8883320" lon="-5.4597360">
        <ele>1317.0</ele>
        <time>2022-06-11T08:05:32Z</time>
      </trkpt>
      <trkpt lat="42.8883560" lon="-5.4597440">
        <ele>1317.0</ele>
        <time>2022-06-11T08:05:33Z</time>
      </trkpt>
      <trkpt lat="42.8884930" lon="-5.4597450">
        <ele>1317.0</ele>
        <time>2022-06-11T08:05:38Z</time>
      </trkpt>
      <trkpt lat="42.8886580" lon="-5.4598100">
        <ele>1316.0</ele>
        <time>2022-06-11T08:05:45Z</time>
      </trkpt>
      <trkpt lat="42.8886750" lon="-5.4598410">
        <ele>1315.6</ele>
        <time>2022-06-11T08:05:46Z</time>
      </trkpt>
      <trkpt lat="42.8887630" lon="-5.4599570">
        <ele>1314.8</ele>
        <time>2022-06-11T08:05:50Z</time>
      </trkpt>
      <trkpt lat="42.8887860" lon="-5.4599800">
        <ele>1314.6</ele>
        <time>2022-06-11T08:05:51Z</time>
      </trkpt>
      <trkpt lat="42.8889040" lon="-5.4600650">
        <ele>1314.0</ele>
        <time>2022-06-11T08:05:56Z</time>
      </trkpt>
      <trkpt lat="42.8890900" lon="-5.4601110">
        <ele>1313.8</ele>
        <time>2022-06-11T08:06:03Z</time>
      </trkpt>
      <trkpt lat="42.8891760" lon="-5.4601460">
        <ele>1313.4</ele>
        <time>2022-06-11T08:06:06Z</time>
      </trkpt>
      <trkpt lat="42.8892770" lon="-5.4602600">
        <ele>1313.4</ele>
        <time>2022-06-11T08:06:11Z</time>
      </trkpt>
      <trkpt lat="42.8894810" lon="-5.4602790">
        <ele>1313.6</ele>
        <time>2022-06-11T08:06:19Z</time>
      </trkpt>
      <trkpt lat="42.8896380" lon="-5.4603200">
        <ele>1313.2</ele>
        <time>2022-06-11T08:06:25Z</time>
      </trkpt>
      <trkpt lat="42.8897760" lon="-5.4604870">
        <ele>1312.6</ele>
        <time>2022-06-11T08:06:32Z</time>
      </trkpt>
      <trkpt lat="42.8898200" lon="-5.4605400">
        <ele>1312.0</ele>
        <time>2022-06-11T08:06:34Z</time>
      </trkpt>
      <trkpt lat="42.8898760" lon="-5.4606070">
        <ele>1311.6</ele>
        <time>2022-06-11T08:06:37Z</time>
      </trkpt>
      <trkpt lat="42.8900160" lon="-5.4607610">
        <ele>1311.4</ele>
        <time>2022-06-11T08:06:44Z</time>
      </trkpt>
      <trkpt lat="42.8901200" lon="-5.4609290">
        <ele>1311.4</ele>
        <time>2022-06-11T08:06:50Z</time>
      </trkpt>
      <trkpt lat="42.8901950" lon="-5.4610560">
        <ele>1311.4</ele>
        <time>2022-06-11T08:06:55Z</time>
      </trkpt>
      <trkpt lat="42.8902240" lon="-5.4611130">
        <ele>1311.6</ele>
        <time>2022-06-11T08:06:57Z</time>
      </trkpt>
      <trkpt lat="42.8903200" lon="-5.4612200">
        <ele>1311.8</ele>
        <time>2022-06-11T08:07:03Z</time>
      </trkpt>
      <trkpt lat="42.8903870" lon="-5.4612970">
        <ele>1312.4</ele>
        <time>2022-06-11T08:07:08Z</time>
      </trkpt>
      <trkpt lat="42.8903990" lon="-5.4613060">
        <ele>1312.6</ele>
        <time>2022-06-11T08:07:09Z</time>
      </trkpt>
      <trkpt lat="42.8904110" lon="-5.4613170">
        <ele>1313.0</ele>
        <time>2022-06-11T08:07:10Z</time>
      </trkpt>
      <trkpt lat="42.8904230" lon="-5.4613270">
        <ele>1313.2</ele>
        <time>2022-06-11T08:07:11Z</time>
      </trkpt>
      <trkpt lat="42.8904580" lon="-5.4613800">
        <ele>1313.8</ele>
        <time>2022-06-11T08:07:15Z</time>
      </trkpt>
      <trkpt lat="42.8904950" lon="-5.4614020">
        <ele>1314.2</ele>
        <time>2022-06-11T08:07:17Z</time>
      </trkpt>
      <trkpt lat="42.8905280" lon="-5.4614260">
        <ele>1314.8</ele>
        <time>2022-06-11T08:07:20Z</time>
      </trkpt>
      <trkpt lat="42.8905360" lon="-5.4614360">
        <ele>1315.0</ele>
        <time>2022-06-11T08:07:21Z</time>
      </trkpt>
      <trkpt lat="42.8905470" lon="-5.4614530">
        <ele>1315.2</ele>
        <time>2022-06-11T08:07:22Z</time>
      </trkpt>
      <trkpt lat="42.8905630" lon="-5.4614670">
        <ele>1315.2</ele>
        <time>2022-06-11T08:07:23Z</time>
      </trkpt>
      <trkpt lat="42.8905700" lon="-5.4614860">
        <ele>1315.4</ele>
        <time>2022-06-11T08:07:24Z</time>
      </trkpt>
      <trkpt lat="42.8905980" lon="-5.4615170">
        <ele>1315.6</ele>
        <time>2022-06-11T08:07:26Z</time>
      </trkpt>
      <trkpt lat="42.8906850" lon="-5.4615910">
        <ele>1316.0</ele>
        <time>2022-06-11T08:07:32Z</time>
      </trkpt>
      <trkpt lat="42.8907890" lon="-5.4616720">
        <ele>1316.0</ele>
        <time>2022-06-11T08:07:37Z</time>
      </trkpt>
      <trkpt lat="42.8909150" lon="-5.4617630">
        <ele>1316.2</ele>
        <time>2022-06-11T08:07:43Z</time>
      </trkpt>
      <trkpt lat="42.8909560" lon="-5.4617870">
        <ele>1316.4</ele>
        <time>2022-06-11T08:07:45Z</time>
      </trkpt>
      <trkpt lat="42.8910580" lon="-5.4618500">
        <ele>1316.8</ele>
        <time>2022-06-11T08:07:50Z</time>
      </trkpt>
      <trkpt lat="42.8912090" lon="-5.4618830">
        <ele>1317.2</ele>
        <time>2022-06-11T08:07:57Z</time>
      </trkpt>
      <trkpt lat="42.8912880" lon="-5.4618810">
        <ele>1317.4</ele>
        <time>2022-06-11T08:08:01Z</time>
      </trkpt>
      <trkpt lat="42.8913790" lon="-5.4618720">
        <ele>1317.6</ele>
        <time>2022-06-11T08:08:05Z</time>
      </trkpt>
      <trkpt lat="42.8915240" lon="-5.4618470">
        <ele>1318.0</ele>
        <time>2022-06-11T08:08:11Z</time>
      </trkpt>
      <trkpt lat="42.8916470" lon="-5.4617960">
        <ele>1318.0</ele>
        <time>2022-06-11T08:08:17Z</time>
      </trkpt>
      <trkpt lat="42.8918450" lon="-5.4618190">
        <ele>1318.4</ele>
        <time>2022-06-11T08:08:25Z</time>
      </trkpt>
      <trkpt lat="42.8918690" lon="-5.4618200">
        <ele>1318.4</ele>
        <time>2022-06-11T08:08:26Z</time>
      </trkpt>
      <trkpt lat="42.8918830" lon="-5.4618180">
        <ele>1318.6</ele>
        <time>2022-06-11T08:08:27Z</time>
      </trkpt>
      <trkpt lat="42.8919480" lon="-5.4618240">
        <ele>1318.8</ele>
        <time>2022-06-11T08:08:30Z</time>
      </trkpt>
      <trkpt lat="42.8920690" lon="-5.4619180">
        <ele>1319.0</ele>
        <time>2022-06-11T08:08:36Z</time>
      </trkpt>
      <trkpt lat="42.8921890" lon="-5.4619890">
        <ele>1319.4</ele>
        <time>2022-06-11T08:08:43Z</time>
      </trkpt>
      <trkpt lat="42.8922890" lon="-5.4620360">
        <ele>1319.6</ele>
        <time>2022-06-11T08:08:47Z</time>
      </trkpt>
      <trkpt lat="42.8923150" lon="-5.4620410">
        <ele>1319.6</ele>
        <time>2022-06-11T08:08:48Z</time>
      </trkpt>
      <trkpt lat="42.8923320" lon="-5.4620610">
        <ele>1319.8</ele>
        <time>2022-06-11T08:08:49Z</time>
      </trkpt>
      <trkpt lat="42.8924560" lon="-5.4621150">
        <ele>1319.4</ele>
        <time>2022-06-11T08:08:54Z</time>
      </trkpt>
      <trkpt lat="42.8925340" lon="-5.4621440">
        <ele>1319.2</ele>
        <time>2022-06-11T08:08:57Z</time>
      </trkpt>
      <trkpt lat="42.8926480" lon="-5.4621810">
        <ele>1319.2</ele>
        <time>2022-06-11T08:09:03Z</time>
      </trkpt>
      <trkpt lat="42.8927960" lon="-5.4622190">
        <ele>1320.0</ele>
        <time>2022-06-11T08:09:10Z</time>
      </trkpt>
      <trkpt lat="42.8929040" lon="-5.4622350">
        <ele>1320.8</ele>
        <time>2022-06-11T08:09:15Z</time>
      </trkpt>
      <trkpt lat="42.8929180" lon="-5.4622490">
        <ele>1321.0</ele>
        <time>2022-06-11T08:09:16Z</time>
      </trkpt>
      <trkpt lat="42.8929950" lon="-5.4622780">
        <ele>1322.0</ele>
        <time>2022-06-11T08:09:20Z</time>
      </trkpt>
      <trkpt lat="42.8930520" lon="-5.4623310">
        <ele>1322.2</ele>
        <time>2022-06-11T08:09:24Z</time>
      </trkpt>
      <trkpt lat="42.8930690" lon="-5.4623530">
        <ele>1322.4</ele>
        <time>2022-06-11T08:09:25Z</time>
      </trkpt>
      <trkpt lat="42.8930880" lon="-5.4623720">
        <ele>1322.4</ele>
        <time>2022-06-11T08:09:26Z</time>
      </trkpt>
      <trkpt lat="42.8931500" lon="-5.4624020">
        <ele>1322.8</ele>
        <time>2022-06-11T08:09:30Z</time>
      </trkpt>
      <trkpt lat="42.8931710" lon="-5.4624220">
        <ele>1323.2</ele>
        <time>2022-06-11T08:09:32Z</time>
      </trkpt>
      <trkpt lat="42.8932550" lon="-5.4624560">
        <ele>1323.6</ele>
        <time>2022-06-11T08:09:38Z</time>
      </trkpt>
      <trkpt lat="42.8933130" lon="-5.4624890">
        <ele>1324.2</ele>
        <time>2022-06-11T08:09:42Z</time>
      </trkpt>
      <trkpt lat="42.8933950" lon="-5.4625560">
        <ele>1325.2</ele>
        <time>2022-06-11T08:09:48Z</time>
      </trkpt>
      <trkpt lat="42.8934180" lon="-5.4625780">
        <ele>1325.4</ele>
        <time>2022-06-11T08:09:50Z</time>
      </trkpt>
      <trkpt lat="42.8934870" lon="-5.4626050">
        <ele>1326.0</ele>
        <time>2022-06-11T08:09:56Z</time>
      </trkpt>
      <trkpt lat="42.8935110" lon="-5.4626140">
        <ele>1326.4</ele>
        <time>2022-06-11T08:09:58Z</time>
      </trkpt>
      <trkpt lat="42.8935590" lon="-5.4626290">
        <ele>1327.0</ele>
        <time>2022-06-11T08:10:02Z</time>
      </trkpt>
      <trkpt lat="42.8935830" lon="-5.4626490">
        <ele>1327.4</ele>
        <time>2022-06-11T08:10:05Z</time>
      </trkpt>
      <trkpt lat="42.8935900" lon="-5.4626580">
        <ele>1327.8</ele>
        <time>2022-06-11T08:10:06Z</time>
      </trkpt>
      <trkpt lat="42.8936130" lon="-5.4626850">
        <ele>1328.6</ele>
        <time>2022-06-11T08:10:09Z</time>
      </trkpt>
      <trkpt lat="42.8936170" lon="-5.4626920">
        <ele>1328.8</ele>
        <time>2022-06-11T08:10:10Z</time>
      </trkpt>
      <trkpt lat="42.8936250" lon="-5.4627020">
        <ele>1329.0</ele>
        <time>2022-06-11T08:10:11Z</time>
      </trkpt>
      <trkpt lat="42.8936440" lon="-5.4627290">
        <ele>1329.2</ele>
        <time>2022-06-11T08:10:13Z</time>
      </trkpt>
      <trkpt lat="42.8936640" lon="-5.4627520">
        <ele>1329.8</ele>
        <time>2022-06-11T08:10:15Z</time>
      </trkpt>
      <trkpt lat="42.8937090" lon="-5.4627980">
        <ele>1330.8</ele>
        <time>2022-06-11T08:10:20Z</time>
      </trkpt>
      <trkpt lat="42.8937170" lon="-5.4628040">
        <ele>1330.8</ele>
        <time>2022-06-11T08:10:21Z</time>
      </trkpt>
      <trkpt lat="42.8937310" lon="-5.4628170">
        <ele>1331.6</ele>
        <time>2022-06-11T08:10:23Z</time>
      </trkpt>
      <trkpt lat="42.8937390" lon="-5.4628250">
        <ele>1331.8</ele>
        <time>2022-06-11T08:10:24Z</time>
      </trkpt>
      <trkpt lat="42.8937670" lon="-5.4628580">
        <ele>1332.2</ele>
        <time>2022-06-11T08:10:27Z</time>
      </trkpt>
      <trkpt lat="42.8938570" lon="-5.4629250">
        <ele>1332.0</ele>
        <time>2022-06-11T08:10:32Z</time>
      </trkpt>
      <trkpt lat="42.8939620" lon="-5.4630120">
        <ele>1332.4</ele>
        <time>2022-06-11T08:10:38Z</time>
      </trkpt>
      <trkpt lat="42.8940180" lon="-5.4630900">
        <ele>1333.0</ele>
        <time>2022-06-11T08:10:42Z</time>
      </trkpt>
      <trkpt lat="42.8940750" lon="-5.4631610">
        <ele>1333.8</ele>
        <time>2022-06-11T08:10:46Z</time>
      </trkpt>
      <trkpt lat="42.8941030" lon="-5.4631890">
        <ele>1334.2</ele>
        <time>2022-06-11T08:10:48Z</time>
      </trkpt>
      <trkpt lat="42.8941830" lon="-5.4632660">
        <ele>1335.2</ele>
        <time>2022-06-11T08:10:54Z</time>
      </trkpt>
      <trkpt lat="42.8942490" lon="-5.4633030">
        <ele>1336.0</ele>
        <time>2022-06-11T08:10:58Z</time>
      </trkpt>
      <trkpt lat="42.8942610" lon="-5.4633130">
        <ele>1336.4</ele>
        <time>2022-06-11T08:10:59Z</time>
      </trkpt>
      <trkpt lat="42.8942760" lon="-5.4633230">
        <ele>1336.8</ele>
        <time>2022-06-11T08:11:01Z</time>
      </trkpt>
      <trkpt lat="42.8942990" lon="-5.4633430">
        <ele>1337.6</ele>
        <time>2022-06-11T08:11:04Z</time>
      </trkpt>
      <trkpt lat="42.8943190" lon="-5.4633870">
        <ele>1338.2</ele>
        <time>2022-06-11T08:11:07Z</time>
      </trkpt>
      <trkpt lat="42.8943340" lon="-5.4634000">
        <ele>1338.8</ele>
        <time>2022-06-11T08:11:09Z</time>
      </trkpt>
      <trkpt lat="42.8943390" lon="-5.4634080">
        <ele>1338.8</ele>
        <time>2022-06-11T08:11:10Z</time>
      </trkpt>
      <trkpt lat="42.8943670" lon="-5.4634310">
        <ele>1339.8</ele>
        <time>2022-06-11T08:11:13Z</time>
      </trkpt>
      <trkpt lat="42.8943910" lon="-5.4634540">
        <ele>1340.0</ele>
        <time>2022-06-11T08:11:15Z</time>
      </trkpt>
      <trkpt lat="42.8944580" lon="-5.4634810">
        <ele>1340.8</ele>
        <time>2022-06-11T08:11:21Z</time>
      </trkpt>
      <trkpt lat="42.8944700" lon="-5.4634840">
        <ele>1340.8</ele>
        <time>2022-06-11T08:11:22Z</time>
      </trkpt>
      <trkpt lat="42.8944780" lon="-5.4634920">
        <ele>1341.0</ele>
        <time>2022-06-11T08:11:23Z</time>
      </trkpt>
      <trkpt lat="42.8945560" lon="-5.4635660">
        <ele>1341.6</ele>
        <time>2022-06-11T08:11:29Z</time>
      </trkpt>
      <trkpt lat="42.8946240" lon="-5.4636360">
        <ele>1341.8</ele>
        <time>2022-06-11T08:11:33Z</time>
      </trkpt>
      <trkpt lat="42.8946440" lon="-5.4636460">
        <ele>1341.8</ele>
        <time>2022-06-11T08:11:34Z</time>
      </trkpt>
      <trkpt lat="42.8946610" lon="-5.4636720">
        <ele>1342.0</ele>
        <time>2022-06-11T08:11:35Z</time>
      </trkpt>
      <trkpt lat="42.8948510" lon="-5.4637610">
        <ele>1342.8</ele>
        <time>2022-06-11T08:11:43Z</time>
      </trkpt>
      <trkpt lat="42.8950040" lon="-5.4638510">
        <ele>1342.2</ele>
        <time>2022-06-11T08:11:49Z</time>
      </trkpt>
      <trkpt lat="42.8951900" lon="-5.4638230">
        <ele>1341.6</ele>
        <time>2022-06-11T08:11:56Z</time>
      </trkpt>
      <trkpt lat="42.8953070" lon="-5.4638050">
        <ele>1341.6</ele>
        <time>2022-06-11T08:12:01Z</time>
      </trkpt>
      <trkpt lat="42.8954080" lon="-5.4637930">
        <ele>1342.0</ele>
        <time>2022-06-11T08:12:07Z</time>
      </trkpt>
      <trkpt lat="42.8955140" lon="-5.4639210">
        <ele>1342.2</ele>
        <time>2022-06-11T08:12:13Z</time>
      </trkpt>
      <trkpt lat="42.8956060" lon="-5.4640050">
        <ele>1343.2</ele>
        <time>2022-06-11T08:12:19Z</time>
      </trkpt>
      <trkpt lat="42.8956170" lon="-5.4640170">
        <ele>1343.4</ele>
        <time>2022-06-11T08:12:20Z</time>
      </trkpt>
      <trkpt lat="42.8956250" lon="-5.4640250">
        <ele>1343.6</ele>
        <time>2022-06-11T08:12:21Z</time>
      </trkpt>
      <trkpt lat="42.8956480" lon="-5.4640530">
        <ele>1344.2</ele>
        <time>2022-06-11T08:12:23Z</time>
      </trkpt>
      <trkpt lat="42.8956820" lon="-5.4640870">
        <ele>1345.4</ele>
        <time>2022-06-11T08:12:27Z</time>
      </trkpt>
      <trkpt lat="42.8956880" lon="-5.4640960">
        <ele>1345.6</ele>
        <time>2022-06-11T08:12:28Z</time>
      </trkpt>
      <trkpt lat="42.8957230" lon="-5.4641330">
        <ele>1346.6</ele>
        <time>2022-06-11T08:12:32Z</time>
      </trkpt>
      <trkpt lat="42.8957810" lon="-5.4642300">
        <ele>1347.4</ele>
        <time>2022-06-11T08:12:39Z</time>
      </trkpt>
      <trkpt lat="42.8957860" lon="-5.4642430">
        <ele>1347.6</ele>
        <time>2022-06-11T08:12:40Z</time>
      </trkpt>
      <trkpt lat="42.8957920" lon="-5.4642500">
        <ele>1347.8</ele>
        <time>2022-06-11T08:12:41Z</time>
      </trkpt>
      <trkpt lat="42.8957970" lon="-5.4642740">
        <ele>1347.8</ele>
        <time>2022-06-11T08:12:43Z</time>
      </trkpt>
      <trkpt lat="42.8958030" lon="-5.4642860">
        <ele>1347.8</ele>
        <time>2022-06-11T08:12:44Z</time>
      </trkpt>
      <trkpt lat="42.8958710" lon="-5.4643350">
        <ele>1348.0</ele>
        <time>2022-06-11T08:12:48Z</time>
      </trkpt>
      <trkpt lat="42.8958880" lon="-5.4643580">
        <ele>1348.0</ele>
        <time>2022-06-11T08:12:49Z</time>
      </trkpt>
      <trkpt lat="42.8959910" lon="-5.4644510">
        <ele>1348.6</ele>
        <time>2022-06-11T08:12:55Z</time>
      </trkpt>
      <trkpt lat="42.8960250" lon="-5.4644830">
        <ele>1349.0</ele>
        <time>2022-06-11T08:12:57Z</time>
      </trkpt>
      <trkpt lat="42.8960560" lon="-5.4645330">
        <ele>1349.8</ele>
        <time>2022-06-11T08:13:00Z</time>
      </trkpt>
      <trkpt lat="42.8961080" lon="-5.4645360">
        <ele>1351.0</ele>
        <time>2022-06-11T08:13:04Z</time>
      </trkpt>
      <trkpt lat="42.8961500" lon="-5.4645370">
        <ele>1352.0</ele>
        <time>2022-06-11T08:13:08Z</time>
      </trkpt>
      <trkpt lat="42.8961980" lon="-5.4645880">
        <ele>1353.2</ele>
        <time>2022-06-11T08:13:13Z</time>
      </trkpt>
      <trkpt lat="42.8962370" lon="-5.4646350">
        <ele>1354.0</ele>
        <time>2022-06-11T08:13:17Z</time>
      </trkpt>
      <trkpt lat="42.8962490" lon="-5.4646410">
        <ele>1354.2</ele>
        <time>2022-06-11T08:13:18Z</time>
      </trkpt>
      <trkpt lat="42.8963230" lon="-5.4646950">
        <ele>1355.2</ele>
        <time>2022-06-11T08:13:26Z</time>
      </trkpt>
      <trkpt lat="42.8963350" lon="-5.4647060">
        <ele>1355.4</ele>
        <time>2022-06-11T08:13:27Z</time>
      </trkpt>
      <trkpt lat="42.8964110" lon="-5.4647450">
        <ele>1356.2</ele>
        <time>2022-06-11T08:13:33Z</time>
      </trkpt>
      <trkpt lat="42.8964460" lon="-5.4647860">
        <ele>1357.0</ele>
        <time>2022-06-11T08:13:36Z</time>
      </trkpt>
      <trkpt lat="42.8965290" lon="-5.4648370">
        <ele>1357.2</ele>
        <time>2022-06-11T08:13:40Z</time>
      </trkpt>
      <trkpt lat="42.8966270" lon="-5.4648830">
        <ele>1358.4</ele>
        <time>2022-06-11T08:13:46Z</time>
      </trkpt>
      <trkpt lat="42.8966370" lon="-5.4648860">
        <ele>1358.8</ele>
        <time>2022-06-11T08:13:47Z</time>
      </trkpt>
      <trkpt lat="42.8966710" lon="-5.4648990">
        <ele>1359.6</ele>
        <time>2022-06-11T08:13:50Z</time>
      </trkpt>
      <trkpt lat="42.8966990" lon="-5.4649110">
        <ele>1360.2</ele>
        <time>2022-06-11T08:13:53Z</time>
      </trkpt>
      <trkpt lat="42.8967350" lon="-5.4649330">
        <ele>1360.6</ele>
        <time>2022-06-11T08:13:56Z</time>
      </trkpt>
      <trkpt lat="42.8967500" lon="-5.4649460">
        <ele>1360.8</ele>
        <time>2022-06-11T08:13:57Z</time>
      </trkpt>
      <trkpt lat="42.8967630" lon="-5.4649530">
        <ele>1360.8</ele>
        <time>2022-06-11T08:13:58Z</time>
      </trkpt>
      <trkpt lat="42.8968240" lon="-5.4649970">
        <ele>1361.2</ele>
        <time>2022-06-11T08:14:03Z</time>
      </trkpt>
      <trkpt lat="42.8969540" lon="-5.4650350">
        <ele>1361.2</ele>
        <time>2022-06-11T08:14:10Z</time>
      </trkpt>
      <trkpt lat="42.8970180" lon="-5.4650610">
        <ele>1361.8</ele>
        <time>2022-06-11T08:14:14Z</time>
      </trkpt>
      <trkpt lat="42.8970560" lon="-5.4650980">
        <ele>1362.6</ele>
        <time>2022-06-11T08:14:17Z</time>
      </trkpt>
      <trkpt lat="42.8970720" lon="-5.4651050">
        <ele>1362.8</ele>
        <time>2022-06-11T08:14:18Z</time>
      </trkpt>
      <trkpt lat="42.8971810" lon="-5.4651780">
        <ele>1363.4</ele>
        <time>2022-06-11T08:14:23Z</time>
      </trkpt>
      <trkpt lat="42.8972170" lon="-5.4652210">
        <ele>1363.6</ele>
        <time>2022-06-11T08:14:25Z</time>
      </trkpt>
      <trkpt lat="42.8972670" lon="-5.4653030">
        <ele>1364.0</ele>
        <time>2022-06-11T08:14:29Z</time>
      </trkpt>
      <trkpt lat="42.8972770" lon="-5.4653300">
        <ele>1364.2</ele>
        <time>2022-06-11T08:14:30Z</time>
      </trkpt>
      <trkpt lat="42.8973070" lon="-5.4653750">
        <ele>1365.0</ele>
        <time>2022-06-11T08:14:33Z</time>
      </trkpt>
      <trkpt lat="42.8973240" lon="-5.4653820">
        <ele>1365.4</ele>
        <time>2022-06-11T08:14:35Z</time>
      </trkpt>
      <trkpt lat="42.8973270" lon="-5.4653980">
        <ele>1365.6</ele>
        <time>2022-06-11T08:14:36Z</time>
      </trkpt>
      <trkpt lat="42.8973560" lon="-5.4654430">
        <ele>1366.0</ele>
        <time>2022-06-11T08:14:38Z</time>
      </trkpt>
      <trkpt lat="42.8973750" lon="-5.4654600">
        <ele>1366.2</ele>
        <time>2022-06-11T08:14:39Z</time>
      </trkpt>
      <trkpt lat="42.8974470" lon="-5.4655610">
        <ele>1366.6</ele>
        <time>2022-06-11T08:14:44Z</time>
      </trkpt>
      <trkpt lat="42.8974820" lon="-5.4655910">
        <ele>1367.2</ele>
        <time>2022-06-11T08:14:47Z</time>
      </trkpt>
      <trkpt lat="42.8975060" lon="-5.4656010">
        <ele>1367.8</ele>
        <time>2022-06-11T08:14:49Z</time>
      </trkpt>
      <trkpt lat="42.8975350" lon="-5.4656220">
        <ele>1368.4</ele>
        <time>2022-06-11T08:14:51Z</time>
      </trkpt>
      <trkpt lat="42.8975830" lon="-5.4656340">
        <ele>1368.6</ele>
        <time>2022-06-11T08:14:55Z</time>
      </trkpt>
      <trkpt lat="42.8976210" lon="-5.4656510">
        <ele>1368.8</ele>
        <time>2022-06-11T08:14:58Z</time>
      </trkpt>
      <trkpt lat="42.8976510" lon="-5.4656720">
        <ele>1369.4</ele>
        <time>2022-06-11T08:15:01Z</time>
      </trkpt>
      <trkpt lat="42.8976920" lon="-5.4656830">
        <ele>1370.6</ele>
        <time>2022-06-11T08:15:05Z</time>
      </trkpt>
      <trkpt lat="42.8977310" lon="-5.4656910">
        <ele>1371.4</ele>
        <time>2022-06-11T08:15:09Z</time>
      </trkpt>
      <trkpt lat="42.8977360" lon="-5.4656910">
        <ele>1371.8</ele>
        <time>2022-06-11T08:15:10Z</time>
      </trkpt>
      <trkpt lat="42.8977690" lon="-5.4657170">
        <ele>1372.8</ele>
        <time>2022-06-11T08:15:14Z</time>
      </trkpt>
      <trkpt lat="42.8977930" lon="-5.4657330">
        <ele>1372.8</ele>
        <time>2022-06-11T08:15:16Z</time>
      </trkpt>
      <trkpt lat="42.8978250" lon="-5.4657540">
        <ele>1373.2</ele>
        <time>2022-06-11T08:15:19Z</time>
      </trkpt>
      <trkpt lat="42.8978270" lon="-5.4657690">
        <ele>1373.4</ele>
        <time>2022-06-11T08:15:20Z</time>
      </trkpt>
      <trkpt lat="42.8978230" lon="-5.4657960">
        <ele>1373.8</ele>
        <time>2022-06-11T08:15:22Z</time>
      </trkpt>
      <trkpt lat="42.8978360" lon="-5.4657980">
        <ele>1374.0</ele>
        <time>2022-06-11T08:15:23Z</time>
      </trkpt>
      <trkpt lat="42.8978890" lon="-5.4658060">
        <ele>1374.8</ele>
        <time>2022-06-11T08:15:27Z</time>
      </trkpt>
      <trkpt lat="42.8978970" lon="-5.4658080">
        <ele>1375.0</ele>
        <time>2022-06-11T08:15:28Z</time>
      </trkpt>
      <trkpt lat="42.8979160" lon="-5.4658160">
        <ele>1375.4</ele>
        <time>2022-06-11T08:15:30Z</time>
      </trkpt>
      <trkpt lat="42.8979660" lon="-5.4658370">
        <ele>1376.0</ele>
        <time>2022-06-11T08:15:33Z</time>
      </trkpt>
      <trkpt lat="42.8980300" lon="-5.4658890">
        <ele>1376.4</ele>
        <time>2022-06-11T08:15:36Z</time>
      </trkpt>
      <trkpt lat="42.8980710" lon="-5.4659150">
        <ele>1376.6</ele>
        <time>2022-06-11T08:15:38Z</time>
      </trkpt>
      <trkpt lat="42.8981330" lon="-5.4659610">
        <ele>1376.8</ele>
        <time>2022-06-11T08:15:41Z</time>
      </trkpt>
      <trkpt lat="42.8982140" lon="-5.4660450">
        <ele>1377.2</ele>
        <time>2022-06-11T08:15:46Z</time>
      </trkpt>
      <trkpt lat="42.8982250" lon="-5.4660690">
        <ele>1377.4</ele>
        <time>2022-06-11T08:15:47Z</time>
      </trkpt>
      <trkpt lat="42.8982660" lon="-5.4661640">
        <ele>1378.0</ele>
        <time>2022-06-11T08:15:52Z</time>
      </trkpt>
      <trkpt lat="42.8982700" lon="-5.4661750">
        <ele>1378.4</ele>
        <time>2022-06-11T08:15:53Z</time>
      </trkpt>
      <trkpt lat="42.8983160" lon="-5.4662560">
        <ele>1379.6</ele>
        <time>2022-06-11T08:15:58Z</time>
      </trkpt>
      <trkpt lat="42.8983370" lon="-5.4663010">
        <ele>1379.8</ele>
        <time>2022-06-11T08:16:00Z</time>
      </trkpt>
      <trkpt lat="42.8983830" lon="-5.4664270">
        <ele>1379.8</ele>
        <time>2022-06-11T08:16:05Z</time>
      </trkpt>
      <trkpt lat="42.8984120" lon="-5.4664650">
        <ele>1380.6</ele>
        <time>2022-06-11T08:16:08Z</time>
      </trkpt>
      <trkpt lat="42.8984470" lon="-5.4665120">
        <ele>1381.4</ele>
        <time>2022-06-11T08:16:12Z</time>
      </trkpt>
      <trkpt lat="42.8984520" lon="-5.4665190">
        <ele>1381.6</ele>
        <time>2022-06-11T08:16:13Z</time>
      </trkpt>
      <trkpt lat="42.8984970" lon="-5.4665510">
        <ele>1382.6</ele>
        <time>2022-06-11T08:16:17Z</time>
      </trkpt>
      <trkpt lat="42.8985150" lon="-5.4665770">
        <ele>1382.8</ele>
        <time>2022-06-11T08:16:19Z</time>
      </trkpt>
      <trkpt lat="42.8985220" lon="-5.4665810">
        <ele>1383.2</ele>
        <time>2022-06-11T08:16:20Z</time>
      </trkpt>
      <trkpt lat="42.8985570" lon="-5.4666150">
        <ele>1384.0</ele>
        <time>2022-06-11T08:16:24Z</time>
      </trkpt>
      <trkpt lat="42.8985710" lon="-5.4666400">
        <ele>1384.4</ele>
        <time>2022-06-11T08:16:27Z</time>
      </trkpt>
      <trkpt lat="42.8985860" lon="-5.4666520">
        <ele>1385.0</ele>
        <time>2022-06-11T08:16:29Z</time>
      </trkpt>
      <trkpt lat="42.8986080" lon="-5.4666740">
        <ele>1385.6</ele>
        <time>2022-06-11T08:16:32Z</time>
      </trkpt>
      <trkpt lat="42.8986320" lon="-5.4666940">
        <ele>1386.0</ele>
        <time>2022-06-11T08:16:35Z</time>
      </trkpt>
      <trkpt lat="42.8986410" lon="-5.4666980">
        <ele>1386.0</ele>
        <time>2022-06-11T08:16:36Z</time>
      </trkpt>
      <trkpt lat="42.8986470" lon="-5.4667040">
        <ele>1386.2</ele>
        <time>2022-06-11T08:16:37Z</time>
      </trkpt>
      <trkpt lat="42.8986790" lon="-5.4667660">
        <ele>1386.8</ele>
        <time>2022-06-11T08:16:42Z</time>
      </trkpt>
      <trkpt lat="42.8987470" lon="-5.4668240">
        <ele>1387.2</ele>
        <time>2022-06-11T08:16:48Z</time>
      </trkpt>
      <trkpt lat="42.8987680" lon="-5.4668320">
        <ele>1387.4</ele>
        <time>2022-06-11T08:16:50Z</time>
      </trkpt>
      <trkpt lat="42.8988190" lon="-5.4668720">
        <ele>1388.6</ele>
        <time>2022-06-11T08:16:55Z</time>
      </trkpt>
      <trkpt lat="42.8988270" lon="-5.4668800">
        <ele>1388.6</ele>
        <time>2022-06-11T08:16:56Z</time>
      </trkpt>
      <trkpt lat="42.8988530" lon="-5.4669150">
        <ele>1389.4</ele>
        <time>2022-06-11T08:16:59Z</time>
      </trkpt>
      <trkpt lat="42.8988660" lon="-5.4669410">
        <ele>1389.6</ele>
        <time>2022-06-11T08:17:01Z</time>
      </trkpt>
      <trkpt lat="42.8988860" lon="-5.4669830">
        <ele>1389.6</ele>
        <time>2022-06-11T08:17:04Z</time>
      </trkpt>
      <trkpt lat="42.8989650" lon="-5.4670530">
        <ele>1389.4</ele>
        <time>2022-06-11T08:17:11Z</time>
      </trkpt>
      <trkpt lat="42.8990700" lon="-5.4671200">
        <ele>1390.2</ele>
        <time>2022-06-11T08:17:20Z</time>
      </trkpt>
      <trkpt lat="42.8991140" lon="-5.4671850">
        <ele>1390.6</ele>
        <time>2022-06-11T08:17:23Z</time>
      </trkpt>
      <trkpt lat="42.8991990" lon="-5.4672430">
        <ele>1391.0</ele>
        <time>2022-06-11T08:17:27Z</time>
      </trkpt>
      <trkpt lat="42.8992970" lon="-5.4672940">
        <ele>1391.4</ele>
        <time>2022-06-11T08:17:32Z</time>
      </trkpt>
      <trkpt lat="42.8993400" lon="-5.4673050">
        <ele>1391.6</ele>
        <time>2022-06-11T08:17:34Z</time>
      </trkpt>
      <trkpt lat="42.8993820" lon="-5.4673220">
        <ele>1391.8</ele>
        <time>2022-06-11T08:17:36Z</time>
      </trkpt>
      <trkpt lat="42.8994730" lon="-5.4673360">
        <ele>1392.2</ele>
        <time>2022-06-11T08:17:40Z</time>
      </trkpt>
      <trkpt lat="42.8996150" lon="-5.4673580">
        <ele>1392.6</ele>
        <time>2022-06-11T08:17:46Z</time>
      </trkpt>
      <trkpt lat="42.8996570" lon="-5.4673670">
        <ele>1392.8</ele>
        <time>2022-06-11T08:17:48Z</time>
      </trkpt>
      <trkpt lat="42.8997230" lon="-5.4674290">
        <ele>1393.4</ele>
        <time>2022-06-11T08:17:53Z</time>
      </trkpt>
      <trkpt lat="42.8997350" lon="-5.4674390">
        <ele>1393.8</ele>
        <time>2022-06-11T08:17:54Z</time>
      </trkpt>
      <trkpt lat="42.8997540" lon="-5.4674550">
        <ele>1394.4</ele>
        <time>2022-06-11T08:17:56Z</time>
      </trkpt>
      <trkpt lat="42.8997780" lon="-5.4674670">
        <ele>1395.0</ele>
        <time>2022-06-11T08:17:58Z</time>
      </trkpt>
      <trkpt lat="42.8998050" lon="-5.4674760">
        <ele>1395.2</ele>
        <time>2022-06-11T08:18:00Z</time>
      </trkpt>
      <trkpt lat="42.8999030" lon="-5.4675200">
        <ele>1396.0</ele>
        <time>2022-06-11T08:18:07Z</time>
      </trkpt>
      <trkpt lat="42.8999240" lon="-5.4675240">
        <ele>1396.2</ele>
        <time>2022-06-11T08:18:08Z</time>
      </trkpt>
      <trkpt lat="42.8999770" lon="-5.4675430">
        <ele>1396.2</ele>
        <time>2022-06-11T08:18:11Z</time>
      </trkpt>
      <trkpt lat="42.9000550" lon="-5.4675630">
        <ele>1396.8</ele>
        <time>2022-06-11T08:18:15Z</time>
      </trkpt>
      <trkpt lat="42.9001230" lon="-5.4676030">
        <ele>1397.2</ele>
        <time>2022-06-11T08:18:19Z</time>
      </trkpt>
      <trkpt lat="42.9001790" lon="-5.4676150">
        <ele>1397.8</ele>
        <time>2022-06-11T08:18:22Z</time>
      </trkpt>
      <trkpt lat="42.9002380" lon="-5.4676170">
        <ele>1398.2</ele>
        <time>2022-06-11T08:18:26Z</time>
      </trkpt>
      <trkpt lat="42.9002530" lon="-5.4676140">
        <ele>1398.4</ele>
        <time>2022-06-11T08:18:27Z</time>
      </trkpt>
      <trkpt lat="42.9003050" lon="-5.4676240">
        <ele>1399.6</ele>
        <time>2022-06-11T08:18:32Z</time>
      </trkpt>
      <trkpt lat="42.9003160" lon="-5.4676300">
        <ele>1400.0</ele>
        <time>2022-06-11T08:18:33Z</time>
      </trkpt>
      <trkpt lat="42.9003490" lon="-5.4676480">
        <ele>1400.6</ele>
        <time>2022-06-11T08:18:35Z</time>
      </trkpt>
      <trkpt lat="42.9003630" lon="-5.4676670">
        <ele>1401.0</ele>
        <time>2022-06-11T08:18:37Z</time>
      </trkpt>
      <trkpt lat="42.9003760" lon="-5.4676810">
        <ele>1401.0</ele>
        <time>2022-06-11T08:18:39Z</time>
      </trkpt>
      <trkpt lat="42.9004220" lon="-5.4677030">
        <ele>1401.8</ele>
        <time>2022-06-11T08:18:43Z</time>
      </trkpt>
      <trkpt lat="42.9004660" lon="-5.4676970">
        <ele>1402.2</ele>
        <time>2022-06-11T08:18:46Z</time>
      </trkpt>
      <trkpt lat="42.9004930" lon="-5.4677030">
        <ele>1402.4</ele>
        <time>2022-06-11T08:18:48Z</time>
      </trkpt>
      <trkpt lat="42.9005440" lon="-5.4677320">
        <ele>1402.6</ele>
        <time>2022-06-11T08:18:51Z</time>
      </trkpt>
      <trkpt lat="42.9005760" lon="-5.4677640">
        <ele>1402.8</ele>
        <time>2022-06-11T08:18:53Z</time>
      </trkpt>
      <trkpt lat="42.9006700" lon="-5.4678380">
        <ele>1403.8</ele>
        <time>2022-06-11T08:18:58Z</time>
      </trkpt>
      <trkpt lat="42.9006980" lon="-5.4678490">
        <ele>1404.0</ele>
        <time>2022-06-11T08:18:59Z</time>
      </trkpt>
      <trkpt lat="42.9008130" lon="-5.4679250">
        <ele>1404.6</ele>
        <time>2022-06-11T08:19:04Z</time>
      </trkpt>
      <trkpt lat="42.9009170" lon="-5.4679920">
        <ele>1405.2</ele>
        <time>2022-06-11T08:19:09Z</time>
      </trkpt>
      <trkpt lat="42.9009730" lon="-5.4680240">
        <ele>1406.0</ele>
        <time>2022-06-11T08:19:12Z</time>
      </trkpt>
      <trkpt lat="42.9009940" lon="-5.4680370">
        <ele>1406.0</ele>
        <time>2022-06-11T08:19:13Z</time>
      </trkpt>
      <trkpt lat="42.9010350" lon="-5.4680620">
        <ele>1406.0</ele>
        <time>2022-06-11T08:19:15Z</time>
      </trkpt>
      <trkpt lat="42.9010500" lon="-5.4680670">
        <ele>1406.2</ele>
        <time>2022-06-11T08:19:16Z</time>
      </trkpt>
      <trkpt lat="42.9010650" lon="-5.4680720">
        <ele>1406.4</ele>
        <time>2022-06-11T08:19:17Z</time>
      </trkpt>
      <trkpt lat="42.9011430" lon="-5.4680800">
        <ele>1406.8</ele>
        <time>2022-06-11T08:19:22Z</time>
      </trkpt>
      <trkpt lat="42.9011600" lon="-5.4680870">
        <ele>1407.0</ele>
        <time>2022-06-11T08:19:23Z</time>
      </trkpt>
      <trkpt lat="42.9012440" lon="-5.4680540">
        <ele>1407.0</ele>
        <time>2022-06-11T08:19:28Z</time>
      </trkpt>
      <trkpt lat="42.9012660" lon="-5.4680670">
        <ele>1407.2</ele>
        <time>2022-06-11T08:19:30Z</time>
      </trkpt>
      <trkpt lat="42.9013280" lon="-5.4681420">
        <ele>1407.4</ele>
        <time>2022-06-11T08:19:34Z</time>
      </trkpt>
      <trkpt lat="42.9013550" lon="-5.4681860">
        <ele>1407.4</ele>
        <time>2022-06-11T08:19:36Z</time>
      </trkpt>
      <trkpt lat="42.9014820" lon="-5.4683060">
        <ele>1408.0</ele>
        <time>2022-06-11T08:19:43Z</time>
      </trkpt>
      <trkpt lat="42.9015640" lon="-5.4683380">
        <ele>1408.4</ele>
        <time>2022-06-11T08:19:47Z</time>
      </trkpt>
      <trkpt lat="42.9016050" lon="-5.4683390">
        <ele>1408.8</ele>
        <time>2022-06-11T08:19:49Z</time>
      </trkpt>
      <trkpt lat="42.9016630" lon="-5.4683680">
        <ele>1409.6</ele>
        <time>2022-06-11T08:19:52Z</time>
      </trkpt>
      <trkpt lat="42.9017230" lon="-5.4684180">
        <ele>1410.0</ele>
        <time>2022-06-11T08:19:55Z</time>
      </trkpt>
      <trkpt lat="42.9017790" lon="-5.4684460">
        <ele>1410.2</ele>
        <time>2022-06-11T08:19:58Z</time>
      </trkpt>
      <trkpt lat="42.9018520" lon="-5.4684750">
        <ele>1410.6</ele>
        <time>2022-06-11T08:20:02Z</time>
      </trkpt>
      <trkpt lat="42.9018710" lon="-5.4684850">
        <ele>1410.6</ele>
        <time>2022-06-11T08:20:03Z</time>
      </trkpt>
      <trkpt lat="42.9019850" lon="-5.4685440">
        <ele>1411.4</ele>
        <time>2022-06-11T08:20:09Z</time>
      </trkpt>
      <trkpt lat="42.9020000" lon="-5.4685590">
        <ele>1411.6</ele>
        <time>2022-06-11T08:20:10Z</time>
      </trkpt>
      <trkpt lat="42.9020360" lon="-5.4686010">
        <ele>1412.0</ele>
        <time>2022-06-11T08:20:13Z</time>
      </trkpt>
      <trkpt lat="42.9020800" lon="-5.4686340">
        <ele>1412.4</ele>
        <time>2022-06-11T08:20:16Z</time>
      </trkpt>
      <trkpt lat="42.9021120" lon="-5.4686470">
        <ele>1412.6</ele>
        <time>2022-06-11T08:20:18Z</time>
      </trkpt>
      <trkpt lat="42.9021560" lon="-5.4686910">
        <ele>1413.4</ele>
        <time>2022-06-11T08:20:21Z</time>
      </trkpt>
      <trkpt lat="42.9021800" lon="-5.4687030">
        <ele>1413.6</ele>
        <time>2022-06-11T08:20:23Z</time>
      </trkpt>
      <trkpt lat="42.9021910" lon="-5.4687050">
        <ele>1414.0</ele>
        <time>2022-06-11T08:20:24Z</time>
      </trkpt>
      <trkpt lat="42.9022350" lon="-5.4687210">
        <ele>1414.8</ele>
        <time>2022-06-11T08:20:27Z</time>
      </trkpt>
      <trkpt lat="42.9022510" lon="-5.4687390">
        <ele>1415.0</ele>
        <time>2022-06-11T08:20:29Z</time>
      </trkpt>
      <trkpt lat="42.9022560" lon="-5.4687480">
        <ele>1415.0</ele>
        <time>2022-06-11T08:20:30Z</time>
      </trkpt>
      <trkpt lat="42.9022620" lon="-5.4687600">
        <ele>1415.0</ele>
        <time>2022-06-11T08:20:31Z</time>
      </trkpt>
      <trkpt lat="42.9023120" lon="-5.4688130">
        <ele>1415.4</ele>
        <time>2022-06-11T08:20:36Z</time>
      </trkpt>
      <trkpt lat="42.9023710" lon="-5.4688250">
        <ele>1415.8</ele>
        <time>2022-06-11T08:20:40Z</time>
      </trkpt>
      <trkpt lat="42.9024590" lon="-5.4688350">
        <ele>1416.8</ele>
        <time>2022-06-11T08:20:46Z</time>
      </trkpt>
      <trkpt lat="42.9024820" lon="-5.4688370">
        <ele>1417.0</ele>
        <time>2022-06-11T08:20:48Z</time>
      </trkpt>
      <trkpt lat="42.9025230" lon="-5.4688490">
        <ele>1418.0</ele>
        <time>2022-06-11T08:20:51Z</time>
      </trkpt>
      <trkpt lat="42.9025420" lon="-5.4688500">
        <ele>1418.2</ele>
        <time>2022-06-11T08:20:52Z</time>
      </trkpt>
      <trkpt lat="42.9025760" lon="-5.4688480">
        <ele>1418.8</ele>
        <time>2022-06-11T08:20:55Z</time>
      </trkpt>
      <trkpt lat="42.9025830" lon="-5.4688480">
        <ele>1418.8</ele>
        <time>2022-06-11T08:20:56Z</time>
      </trkpt>
      <trkpt lat="42.9026010" lon="-5.4688410">
        <ele>1419.2</ele>
        <time>2022-06-11T08:20:58Z</time>
      </trkpt>
      <trkpt lat="42.9026620" lon="-5.4688050">
        <ele>1420.4</ele>
        <time>2022-06-11T08:21:04Z</time>
      </trkpt>
      <trkpt lat="42.9026820" lon="-5.4687980">
        <ele>1420.6</ele>
        <time>2022-06-11T08:21:06Z</time>
      </trkpt>
      <trkpt lat="42.9027120" lon="-5.4687970">
        <ele>1421.6</ele>
        <time>2022-06-11T08:21:09Z</time>
      </trkpt>
      <trkpt lat="42.9027840" lon="-5.4687970">
        <ele>1422.4</ele>
        <time>2022-06-11T08:21:14Z</time>
      </trkpt>
      <trkpt lat="42.9027940" lon="-5.4687940">
        <ele>1422.6</ele>
        <time>2022-06-11T08:21:15Z</time>
      </trkpt>
      <trkpt lat="42.9028690" lon="-5.4687470">
        <ele>1423.6</ele>
        <time>2022-06-11T08:21:22Z</time>
      </trkpt>
      <trkpt lat="42.9029080" lon="-5.4687330">
        <ele>1424.0</ele>
        <time>2022-06-11T08:21:24Z</time>
      </trkpt>
      <trkpt lat="42.9029880" lon="-5.4686970">
        <ele>1424.6</ele>
        <time>2022-06-11T08:21:29Z</time>
      </trkpt>
      <trkpt lat="42.9030210" lon="-5.4686670">
        <ele>1425.0</ele>
        <time>2022-06-11T08:21:32Z</time>
      </trkpt>
      <trkpt lat="42.9031530" lon="-5.4686230">
        <ele>1425.2</ele>
        <time>2022-06-11T08:21:39Z</time>
      </trkpt>
      <trkpt lat="42.9032310" lon="-5.4686260">
        <ele>1425.6</ele>
        <time>2022-06-11T08:21:44Z</time>
      </trkpt>
      <trkpt lat="42.9032630" lon="-5.4686260">
        <ele>1427.0</ele>
        <time>2022-06-11T08:21:47Z</time>
      </trkpt>
      <trkpt lat="42.9032980" lon="-5.4686290">
        <ele>1427.6</ele>
        <time>2022-06-11T08:21:52Z</time>
      </trkpt>
      <trkpt lat="42.9033110" lon="-5.4686460">
        <ele>1427.6</ele>
        <time>2022-06-11T08:21:54Z</time>
      </trkpt>
      <trkpt lat="42.9033820" lon="-5.4686900">
        <ele>1428.0</ele>
        <time>2022-06-11T08:22:01Z</time>
      </trkpt>
      <trkpt lat="42.9033970" lon="-5.4686980">
        <ele>1428.0</ele>
        <time>2022-06-11T08:22:02Z</time>
      </trkpt>
      <trkpt lat="42.9034780" lon="-5.4687540">
        <ele>1428.4</ele>
        <time>2022-06-11T08:22:08Z</time>
      </trkpt>
      <trkpt lat="42.9035060" lon="-5.4687700">
        <ele>1428.4</ele>
        <time>2022-06-11T08:22:10Z</time>
      </trkpt>
      <trkpt lat="42.9036190" lon="-5.4688400">
        <ele>1429.0</ele>
        <time>2022-06-11T08:22:17Z</time>
      </trkpt>
      <trkpt lat="42.9036350" lon="-5.4688550">
        <ele>1429.4</ele>
        <time>2022-06-11T08:22:18Z</time>
      </trkpt>
      <trkpt lat="42.9036910" lon="-5.4689250">
        <ele>1430.2</ele>
        <time>2022-06-11T08:22:22Z</time>
      </trkpt>
      <trkpt lat="42.9037250" lon="-5.4689450">
        <ele>1430.6</ele>
        <time>2022-06-11T08:22:24Z</time>
      </trkpt>
      <trkpt lat="42.9037380" lon="-5.4689580">
        <ele>1431.0</ele>
        <time>2022-06-11T08:22:25Z</time>
      </trkpt>
      <trkpt lat="42.9037690" lon="-5.4689960">
        <ele>1431.2</ele>
        <time>2022-06-11T08:22:27Z</time>
      </trkpt>
      <trkpt lat="42.9037950" lon="-5.4690350">
        <ele>1431.8</ele>
        <time>2022-06-11T08:22:29Z</time>
      </trkpt>
      <trkpt lat="42.9038360" lon="-5.4690590">
        <ele>1432.2</ele>
        <time>2022-06-11T08:22:32Z</time>
      </trkpt>
      <trkpt lat="42.9038450" lon="-5.4690740">
        <ele>1432.4</ele>
        <time>2022-06-11T08:22:33Z</time>
      </trkpt>
      <trkpt lat="42.9038720" lon="-5.4690990">
        <ele>1432.8</ele>
        <time>2022-06-11T08:22:35Z</time>
      </trkpt>
      <trkpt lat="42.9039000" lon="-5.4691340">
        <ele>1433.2</ele>
        <time>2022-06-11T08:22:37Z</time>
      </trkpt>
      <trkpt lat="42.9039680" lon="-5.4692250">
        <ele>1434.0</ele>
        <time>2022-06-11T08:22:42Z</time>
      </trkpt>
      <trkpt lat="42.9040180" lon="-5.4692760">
        <ele>1434.2</ele>
        <time>2022-06-11T08:22:45Z</time>
      </trkpt>
      <trkpt lat="42.9040310" lon="-5.4692920">
        <ele>1434.4</ele>
        <time>2022-06-11T08:22:46Z</time>
      </trkpt>
      <trkpt lat="42.9041130" lon="-5.4693320">
        <ele>1435.2</ele>
        <time>2022-06-11T08:22:51Z</time>
      </trkpt>
      <trkpt lat="42.9041650" lon="-5.4693750">
        <ele>1435.2</ele>
        <time>2022-06-11T08:22:55Z</time>
      </trkpt>
      <trkpt lat="42.9041980" lon="-5.4693770">
        <ele>1435.0</ele>
        <time>2022-06-11T08:22:57Z</time>
      </trkpt>
      <trkpt lat="42.9042310" lon="-5.4693940">
        <ele>1435.2</ele>
        <time>2022-06-11T08:22:59Z</time>
      </trkpt>
      <trkpt lat="42.9042940" lon="-5.4694210">
        <ele>1435.4</ele>
        <time>2022-06-11T08:23:02Z</time>
      </trkpt>
      <trkpt lat="42.9043190" lon="-5.4694230">
        <ele>1435.4</ele>
        <time>2022-06-11T08:23:03Z</time>
      </trkpt>
      <trkpt lat="42.9044130" lon="-5.4694310">
        <ele>1435.6</ele>
        <time>2022-06-11T08:23:07Z</time>
      </trkpt>
      <trkpt lat="42.9044560" lon="-5.4694070">
        <ele>1435.6</ele>
        <time>2022-06-11T08:23:09Z</time>
      </trkpt>
      <trkpt lat="42.9045270" lon="-5.4693080">
        <ele>1435.8</ele>
        <time>2022-06-11T08:23:14Z</time>
      </trkpt>
      <trkpt lat="42.9046440" lon="-5.4692110">
        <ele>1436.4</ele>
        <time>2022-06-11T08:23:20Z</time>
      </trkpt>
      <trkpt lat="42.9046560" lon="-5.4691840">
        <ele>1436.4</ele>
        <time>2022-06-11T08:23:21Z</time>
      </trkpt>
      <trkpt lat="42.9047460" lon="-5.4690050">
        <ele>1436.4</ele>
        <time>2022-06-11T08:23:28Z</time>
      </trkpt>
      <trkpt lat="42.9047610" lon="-5.4689890">
        <ele>1436.4</ele>
        <time>2022-06-11T08:23:29Z</time>
      </trkpt>
      <trkpt lat="42.9048450" lon="-5.4689230">
        <ele>1435.4</ele>
        <time>2022-06-11T08:23:34Z</time>
      </trkpt>
      <trkpt lat="42.9048470" lon="-5.4689140">
        <ele>1435.2</ele>
        <time>2022-06-11T08:23:35Z</time>
      </trkpt>
      <trkpt lat="42.9048510" lon="-5.4689100">
        <ele>1435.0</ele>
        <time>2022-06-11T08:23:38Z</time>
      </trkpt>
      <trkpt lat="42.9048590" lon="-5.4689110">
        <ele>1434.8</ele>
        <time>2022-06-11T08:23:40Z</time>
      </trkpt>
      <trkpt lat="42.9048510" lon="-5.4689160">
        <ele>1435.0</ele>
        <time>2022-06-11T08:23:46Z</time>
      </trkpt>
      <trkpt lat="42.9048790" lon="-5.4689280">
        <ele>1434.6</ele>
        <time>2022-06-11T08:23:53Z</time>
      </trkpt>
      <trkpt lat="42.9049750" lon="-5.4689910">
        <ele>1435.0</ele>
        <time>2022-06-11T08:23:59Z</time>
      </trkpt>
      <trkpt lat="42.9051200" lon="-5.4690450">
        <ele>1435.6</ele>
        <time>2022-06-11T08:24:06Z</time>
      </trkpt>
      <trkpt lat="42.9052030" lon="-5.4690590">
        <ele>1436.0</ele>
        <time>2022-06-11T08:24:10Z</time>
      </trkpt>
      <trkpt lat="42.9052380" lon="-5.4690610">
        <ele>1436.6</ele>
        <time>2022-06-11T08:24:12Z</time>
      </trkpt>
      <trkpt lat="42.9052900" lon="-5.4690580">
        <ele>1437.0</ele>
        <time>2022-06-11T08:24:15Z</time>
      </trkpt>
      <trkpt lat="42.9053420" lon="-5.4690650">
        <ele>1437.6</ele>
        <time>2022-06-11T08:24:18Z</time>
      </trkpt>
      <trkpt lat="42.9054030" lon="-5.4690660">
        <ele>1438.2</ele>
        <time>2022-06-11T08:24:22Z</time>
      </trkpt>
      <trkpt lat="42.9054460" lon="-5.4690660">
        <ele>1438.6</ele>
        <time>2022-06-11T08:24:24Z</time>
      </trkpt>
      <trkpt lat="42.9054660" lon="-5.4690750">
        <ele>1438.8</ele>
        <time>2022-06-11T08:24:25Z</time>
      </trkpt>
      <trkpt lat="42.9055440" lon="-5.4690920">
        <ele>1439.0</ele>
        <time>2022-06-11T08:24:30Z</time>
      </trkpt>
      <trkpt lat="42.9055820" lon="-5.4691090">
        <ele>1439.4</ele>
        <time>2022-06-11T08:24:33Z</time>
      </trkpt>
      <trkpt lat="42.9056300" lon="-5.4691220">
        <ele>1439.6</ele>
        <time>2022-06-11T08:24:37Z</time>
      </trkpt>
      <trkpt lat="42.9056620" lon="-5.4691240">
        <ele>1439.8</ele>
        <time>2022-06-11T08:24:39Z</time>
      </trkpt>
      <trkpt lat="42.9057490" lon="-5.4691480">
        <ele>1440.6</ele>
        <time>2022-06-11T08:24:45Z</time>
      </trkpt>
      <trkpt lat="42.9057610" lon="-5.4691580">
        <ele>1440.6</ele>
        <time>2022-06-11T08:24:46Z</time>
      </trkpt>
      <trkpt lat="42.9057880" lon="-5.4691940">
        <ele>1440.6</ele>
        <time>2022-06-11T08:24:49Z</time>
      </trkpt>
      <trkpt lat="42.9057990" lon="-5.4692060">
        <ele>1440.6</ele>
        <time>2022-06-11T08:24:51Z</time>
      </trkpt>
      <trkpt lat="42.9058000" lon="-5.4692020">
        <ele>1440.6</ele>
        <time>2022-06-11T08:24:52Z</time>
      </trkpt>
      <trkpt lat="42.9058200" lon="-5.4691940">
        <ele>1440.4</ele>
        <time>2022-06-11T08:24:57Z</time>
      </trkpt>
      <trkpt lat="42.9058250" lon="-5.4691940">
        <ele>1440.2</ele>
        <time>2022-06-11T08:24:58Z</time>
      </trkpt>
      <trkpt lat="42.9058750" lon="-5.4692480">
        <ele>1440.2</ele>
        <time>2022-06-11T08:25:03Z</time>
      </trkpt>
      <trkpt lat="42.9059300" lon="-5.4692700">
        <ele>1440.6</ele>
        <time>2022-06-11T08:25:06Z</time>
      </trkpt>
      <trkpt lat="42.9059570" lon="-5.4693100">
        <ele>1440.6</ele>
        <time>2022-06-11T08:25:08Z</time>
      </trkpt>
      <trkpt lat="42.9059700" lon="-5.4693330">
        <ele>1441.0</ele>
        <time>2022-06-11T08:25:09Z</time>
      </trkpt>
      <trkpt lat="42.9060350" lon="-5.4694550">
        <ele>1441.6</ele>
        <time>2022-06-11T08:25:15Z</time>
      </trkpt>
      <trkpt lat="42.9060500" lon="-5.4694770">
        <ele>1442.2</ele>
        <time>2022-06-11T08:25:17Z</time>
      </trkpt>
      <trkpt lat="42.9060700" lon="-5.4694980">
        <ele>1442.6</ele>
        <time>2022-06-11T08:25:19Z</time>
      </trkpt>
      <trkpt lat="42.9060780" lon="-5.4695060">
        <ele>1442.8</ele>
        <time>2022-06-11T08:25:20Z</time>
      </trkpt>
      <trkpt lat="42.9060790" lon="-5.4695220">
        <ele>1442.8</ele>
        <time>2022-06-11T08:25:21Z</time>
      </trkpt>
      <trkpt lat="42.9060840" lon="-5.4695300">
        <ele>1442.8</ele>
        <time>2022-06-11T08:25:22Z</time>
      </trkpt>
      <trkpt lat="42.9061070" lon="-5.4695370">
        <ele>1443.6</ele>
        <time>2022-06-11T08:25:24Z</time>
      </trkpt>
      <trkpt lat="42.9061500" lon="-5.4695750">
        <ele>1444.4</ele>
        <time>2022-06-11T08:25:28Z</time>
      </trkpt>
      <trkpt lat="42.9061730" lon="-5.4695870">
        <ele>1444.6</ele>
        <time>2022-06-11T08:25:30Z</time>
      </trkpt>
      <trkpt lat="42.9062650" lon="-5.4696010">
        <ele>1445.8</ele>
        <time>2022-06-11T08:25:36Z</time>
      </trkpt>
      <trkpt lat="42.9063080" lon="-5.4696120">
        <ele>1446.8</ele>
        <time>2022-06-11T08:25:40Z</time>
      </trkpt>
      <trkpt lat="42.9063200" lon="-5.4696130">
        <ele>1447.2</ele>
        <time>2022-06-11T08:25:41Z</time>
      </trkpt>
      <trkpt lat="42.9063450" lon="-5.4696080">
        <ele>1447.8</ele>
        <time>2022-06-11T08:25:45Z</time>
      </trkpt>
      <trkpt lat="42.9064040" lon="-5.4695700">
        <ele>1448.8</ele>
        <time>2022-06-11T08:25:50Z</time>
      </trkpt>
      <trkpt lat="42.9064170" lon="-5.4695680">
        <ele>1449.0</ele>
        <time>2022-06-11T08:25:51Z</time>
      </trkpt>
      <trkpt lat="42.9064950" lon="-5.4695890">
        <ele>1450.0</ele>
        <time>2022-06-11T08:25:58Z</time>
      </trkpt>
      <trkpt lat="42.9065200" lon="-5.4695960">
        <ele>1450.4</ele>
        <time>2022-06-11T08:26:01Z</time>
      </trkpt>
      <trkpt lat="42.9065810" lon="-5.4696210">
        <ele>1451.0</ele>
        <time>2022-06-11T08:26:06Z</time>
      </trkpt>
      <trkpt lat="42.9066360" lon="-5.4696540">
        <ele>1452.0</ele>
        <time>2022-06-11T08:26:12Z</time>
      </trkpt>
      <trkpt lat="42.9067180" lon="-5.4696950">
        <ele>1453.4</ele>
        <time>2022-06-11T08:26:20Z</time>
      </trkpt>
      <trkpt lat="42.9067320" lon="-5.4697060">
        <ele>1453.6</ele>
        <time>2022-06-11T08:26:22Z</time>
      </trkpt>
      <trkpt lat="42.9067840" lon="-5.4697570">
        <ele>1453.8</ele>
        <time>2022-06-11T08:26:27Z</time>
      </trkpt>
      <trkpt lat="42.9068250" lon="-5.4698390">
        <ele>1454.0</ele>
        <time>2022-06-11T08:26:32Z</time>
      </trkpt>
      <trkpt lat="42.9068580" lon="-5.4698790">
        <ele>1454.4</ele>
        <time>2022-06-11T08:26:35Z</time>
      </trkpt>
      <trkpt lat="42.9068790" lon="-5.4698980">
        <ele>1454.6</ele>
        <time>2022-06-11T08:26:37Z</time>
      </trkpt>
      <trkpt lat="42.9069040" lon="-5.4699450">
        <ele>1455.4</ele>
        <time>2022-06-11T08:26:41Z</time>
      </trkpt>
      <trkpt lat="42.9069110" lon="-5.4699580">
        <ele>1455.4</ele>
        <time>2022-06-11T08:26:42Z</time>
      </trkpt>
      <trkpt lat="42.9069530" lon="-5.4700490">
        <ele>1456.6</ele>
        <time>2022-06-11T08:26:48Z</time>
      </trkpt>
      <trkpt lat="42.9069790" lon="-5.4700840">
        <ele>1457.0</ele>
        <time>2022-06-11T08:26:51Z</time>
      </trkpt>
      <trkpt lat="42.9070100" lon="-5.4701410">
        <ele>1457.6</ele>
        <time>2022-06-11T08:26:55Z</time>
      </trkpt>
      <trkpt lat="42.9070160" lon="-5.4701830">
        <ele>1458.2</ele>
        <time>2022-06-11T08:26:58Z</time>
      </trkpt>
      <trkpt lat="42.9070660" lon="-5.4702660">
        <ele>1458.8</ele>
        <time>2022-06-11T08:27:04Z</time>
      </trkpt>
      <trkpt lat="42.9070750" lon="-5.4702810">
        <ele>1459.0</ele>
        <time>2022-06-11T08:27:05Z</time>
      </trkpt>
      <trkpt lat="42.9070960" lon="-5.4703040">
        <ele>1459.2</ele>
        <time>2022-06-11T08:27:07Z</time>
      </trkpt>
      <trkpt lat="42.9071120" lon="-5.4702850">
        <ele>1459.4</ele>
        <time>2022-06-11T08:27:09Z</time>
      </trkpt>
      <trkpt lat="42.9071390" lon="-5.4702700">
        <ele>1460.2</ele>
        <time>2022-06-11T08:27:14Z</time>
      </trkpt>
      <trkpt lat="42.9071510" lon="-5.4702740">
        <ele>1460.4</ele>
        <time>2022-06-11T08:27:15Z</time>
      </trkpt>
      <trkpt lat="42.9071940" lon="-5.4703040">
        <ele>1460.8</ele>
        <time>2022-06-11T08:27:19Z</time>
      </trkpt>
      <trkpt lat="42.9072150" lon="-5.4703360">
        <ele>1461.4</ele>
        <time>2022-06-11T08:27:22Z</time>
      </trkpt>
      <trkpt lat="42.9072430" lon="-5.4704100">
        <ele>1462.2</ele>
        <time>2022-06-11T08:27:26Z</time>
      </trkpt>
      <trkpt lat="42.9072780" lon="-5.4705220">
        <ele>1462.4</ele>
        <time>2022-06-11T08:27:30Z</time>
      </trkpt>
      <trkpt lat="42.9072900" lon="-5.4705470">
        <ele>1462.6</ele>
        <time>2022-06-11T08:27:31Z</time>
      </trkpt>
      <trkpt lat="42.9073070" lon="-5.4706000">
        <ele>1462.6</ele>
        <time>2022-06-11T08:27:33Z</time>
      </trkpt>
      <trkpt lat="42.9073390" lon="-5.4707290">
        <ele>1463.4</ele>
        <time>2022-06-11T08:27:38Z</time>
      </trkpt>
      <trkpt lat="42.9073450" lon="-5.4707550">
        <ele>1463.6</ele>
        <time>2022-06-11T08:27:39Z</time>
      </trkpt>
      <trkpt lat="42.9073650" lon="-5.4708080">
        <ele>1463.8</ele>
        <time>2022-06-11T08:27:41Z</time>
      </trkpt>
      <trkpt lat="42.9074080" lon="-5.4708880">
        <ele>1464.4</ele>
        <time>2022-06-11T08:27:45Z</time>
      </trkpt>
      <trkpt lat="42.9074360" lon="-5.4709210">
        <ele>1464.6</ele>
        <time>2022-06-11T08:27:47Z</time>
      </trkpt>
      <trkpt lat="42.9074640" lon="-5.4709510">
        <ele>1465.2</ele>
        <time>2022-06-11T08:27:49Z</time>
      </trkpt>
      <trkpt lat="42.9075020" lon="-5.4709840">
        <ele>1465.6</ele>
        <time>2022-06-11T08:27:52Z</time>
      </trkpt>
      <trkpt lat="42.9075170" lon="-5.4709950">
        <ele>1466.4</ele>
        <time>2022-06-11T08:27:54Z</time>
      </trkpt>
      <trkpt lat="42.9075230" lon="-5.4710000">
        <ele>1466.8</ele>
        <time>2022-06-11T08:27:55Z</time>
      </trkpt>
      <trkpt lat="42.9075490" lon="-5.4710270">
        <ele>1467.4</ele>
        <time>2022-06-11T08:27:58Z</time>
      </trkpt>
      <trkpt lat="42.9075820" lon="-5.4710980">
        <ele>1467.6</ele>
        <time>2022-06-11T08:28:01Z</time>
      </trkpt>
      <trkpt lat="42.9076510" lon="-5.4711890">
        <ele>1467.8</ele>
        <time>2022-06-11T08:28:06Z</time>
      </trkpt>
      <trkpt lat="42.9076650" lon="-5.4711990">
        <ele>1467.8</ele>
        <time>2022-06-11T08:28:07Z</time>
      </trkpt>
      <trkpt lat="42.9076840" lon="-5.4712090">
        <ele>1468.0</ele>
        <time>2022-06-11T08:28:08Z</time>
      </trkpt>
      <trkpt lat="42.9077570" lon="-5.4713360">
        <ele>1468.6</ele>
        <time>2022-06-11T08:28:14Z</time>
      </trkpt>
      <trkpt lat="42.9077870" lon="-5.4713750">
        <ele>1469.0</ele>
        <time>2022-06-11T08:28:16Z</time>
      </trkpt>
      <trkpt lat="42.9078670" lon="-5.4714420">
        <ele>1469.6</ele>
        <time>2022-06-11T08:28:21Z</time>
      </trkpt>
      <trkpt lat="42.9079020" lon="-5.4714580">
        <ele>1470.0</ele>
        <time>2022-06-11T08:28:23Z</time>
      </trkpt>
      <trkpt lat="42.9079870" lon="-5.4715180">
        <ele>1471.2</ele>
        <time>2022-06-11T08:28:29Z</time>
      </trkpt>
      <trkpt lat="42.9081410" lon="-5.4716190">
        <ele>1471.4</ele>
        <time>2022-06-11T08:28:37Z</time>
      </trkpt>
      <trkpt lat="42.9083050" lon="-5.4717560">
        <ele>1471.0</ele>
        <time>2022-06-11T08:28:45Z</time>
      </trkpt>
      <trkpt lat="42.9084310" lon="-5.4719460">
        <ele>1471.4</ele>
        <time>2022-06-11T08:28:53Z</time>
      </trkpt>
      <trkpt lat="42.9085870" lon="-5.4720110">
        <ele>1472.2</ele>
        <time>2022-06-11T08:29:00Z</time>
      </trkpt>
      <trkpt lat="42.9086080" lon="-5.4720170">
        <ele>1472.4</ele>
        <time>2022-06-11T08:29:01Z</time>
      </trkpt>
      <trkpt lat="42.9087330" lon="-5.4721200">
        <ele>1471.8</ele>
        <time>2022-06-11T08:29:07Z</time>
      </trkpt>
      <trkpt lat="42.9088340" lon="-5.4722280">
        <ele>1471.8</ele>
        <time>2022-06-11T08:29:13Z</time>
      </trkpt>
      <trkpt lat="42.9089080" lon="-5.4723360">
        <ele>1472.4</ele>
        <time>2022-06-11T08:29:18Z</time>
      </trkpt>
      <trkpt lat="42.9089230" lon="-5.4723530">
        <ele>1472.4</ele>
        <time>2022-06-11T08:29:19Z</time>
      </trkpt>
      <trkpt lat="42.9089720" lon="-5.4724200">
        <ele>1473.4</ele>
        <time>2022-06-11T08:29:24Z</time>
      </trkpt>
      <trkpt lat="42.9089800" lon="-5.4724320">
        <ele>1473.8</ele>
        <time>2022-06-11T08:29:25Z</time>
      </trkpt>
      <trkpt lat="42.9089950" lon="-5.4724500">
        <ele>1474.4</ele>
        <time>2022-06-11T08:29:27Z</time>
      </trkpt>
      <trkpt lat="42.9090340" lon="-5.4725170">
        <ele>1475.0</ele>
        <time>2022-06-11T08:29:33Z</time>
      </trkpt>
      <trkpt lat="42.9090810" lon="-5.4725520">
        <ele>1475.4</ele>
        <time>2022-06-11T08:29:38Z</time>
      </trkpt>
      <trkpt lat="42.9090970" lon="-5.4725780">
        <ele>1475.8</ele>
        <time>2022-06-11T08:29:40Z</time>
      </trkpt>
      <trkpt lat="42.9091290" lon="-5.4726230">
        <ele>1476.4</ele>
        <time>2022-06-11T08:29:45Z</time>
      </trkpt>
      <trkpt lat="42.9091500" lon="-5.4726480">
        <ele>1477.0</ele>
        <time>2022-06-11T08:29:48Z</time>
      </trkpt>
      <trkpt lat="42.9091560" lon="-5.4726620">
        <ele>1477.4</ele>
        <time>2022-06-11T08:29:49Z</time>
      </trkpt>
      <trkpt lat="42.9091610" lon="-5.4726750">
        <ele>1477.8</ele>
        <time>2022-06-11T08:29:50Z</time>
      </trkpt>
      <trkpt lat="42.9091650" lon="-5.4726850">
        <ele>1478.0</ele>
        <time>2022-06-11T08:29:51Z</time>
      </trkpt>
      <trkpt lat="42.9091690" lon="-5.4727200">
        <ele>1478.4</ele>
        <time>2022-06-11T08:29:54Z</time>
      </trkpt>
      <trkpt lat="42.9091710" lon="-5.4727310">
        <ele>1478.6</ele>
        <time>2022-06-11T08:29:55Z</time>
      </trkpt>
      <trkpt lat="42.9091740" lon="-5.4727430">
        <ele>1478.8</ele>
        <time>2022-06-11T08:29:56Z</time>
      </trkpt>
      <trkpt lat="42.9092000" lon="-5.4727810">
        <ele>1479.6</ele>
        <time>2022-06-11T08:29:59Z</time>
      </trkpt>
      <trkpt lat="42.9092340" lon="-5.4727990">
        <ele>1479.8</ele>
        <time>2022-06-11T08:30:02Z</time>
      </trkpt>
      <trkpt lat="42.9092490" lon="-5.4728280">
        <ele>1480.6</ele>
        <time>2022-06-11T08:30:06Z</time>
      </trkpt>
      <trkpt lat="42.9092770" lon="-5.4728670">
        <ele>1481.0</ele>
        <time>2022-06-11T08:30:10Z</time>
      </trkpt>
      <trkpt lat="42.9092960" lon="-5.4728970">
        <ele>1481.6</ele>
        <time>2022-06-11T08:30:13Z</time>
      </trkpt>
      <trkpt lat="42.9093180" lon="-5.4729350">
        <ele>1482.2</ele>
        <time>2022-06-11T08:30:17Z</time>
      </trkpt>
      <trkpt lat="42.9093260" lon="-5.4729750">
        <ele>1482.6</ele>
        <time>2022-06-11T08:30:20Z</time>
      </trkpt>
      <trkpt lat="42.9093340" lon="-5.4729890">
        <ele>1483.0</ele>
        <time>2022-06-11T08:30:21Z</time>
      </trkpt>
      <trkpt lat="42.9093510" lon="-5.4730180">
        <ele>1483.8</ele>
        <time>2022-06-11T08:30:24Z</time>
      </trkpt>
      <trkpt lat="42.9093560" lon="-5.4730280">
        <ele>1484.0</ele>
        <time>2022-06-11T08:30:25Z</time>
      </trkpt>
      <trkpt lat="42.9093760" lon="-5.4730950">
        <ele>1485.4</ele>
        <time>2022-06-11T08:30:31Z</time>
      </trkpt>
      <trkpt lat="42.9093710" lon="-5.4731100">
        <ele>1485.6</ele>
        <time>2022-06-11T08:30:32Z</time>
      </trkpt>
      <trkpt lat="42.9093720" lon="-5.4731250">
        <ele>1485.8</ele>
        <time>2022-06-11T08:30:33Z</time>
      </trkpt>
      <trkpt lat="42.9093790" lon="-5.4731380">
        <ele>1486.0</ele>
        <time>2022-06-11T08:30:34Z</time>
      </trkpt>
      <trkpt lat="42.9093920" lon="-5.4731640">
        <ele>1486.6</ele>
        <time>2022-06-11T08:30:37Z</time>
      </trkpt>
      <trkpt lat="42.9093910" lon="-5.4732280">
        <ele>1487.8</ele>
        <time>2022-06-11T08:30:42Z</time>
      </trkpt>
      <trkpt lat="42.9093890" lon="-5.4732630">
        <ele>1488.4</ele>
        <time>2022-06-11T08:30:45Z</time>
      </trkpt>
      <trkpt lat="42.9093970" lon="-5.4732900">
        <ele>1488.8</ele>
        <time>2022-06-11T08:30:47Z</time>
      </trkpt>
      <trkpt lat="42.9094080" lon="-5.4733550">
        <ele>1489.4</ele>
        <time>2022-06-11T08:30:52Z</time>
      </trkpt>
      <trkpt lat="42.9094120" lon="-5.4733790">
        <ele>1489.8</ele>
        <time>2022-06-11T08:30:54Z</time>
      </trkpt>
      <trkpt lat="42.9094290" lon="-5.4734330">
        <ele>1490.8</ele>
        <time>2022-06-11T08:30:58Z</time>
      </trkpt>
      <trkpt lat="42.9094290" lon="-5.4734620">
        <ele>1491.2</ele>
        <time>2022-06-11T08:31:00Z</time>
      </trkpt>
      <trkpt lat="42.9094370" lon="-5.4735050">
        <ele>1492.0</ele>
        <time>2022-06-11T08:31:04Z</time>
      </trkpt>
      <trkpt lat="42.9094380" lon="-5.4735450">
        <ele>1492.4</ele>
        <time>2022-06-11T08:31:07Z</time>
      </trkpt>
      <trkpt lat="42.9094390" lon="-5.4735940">
        <ele>1493.2</ele>
        <time>2022-06-11T08:31:11Z</time>
      </trkpt>
      <trkpt lat="42.9094470" lon="-5.4736720">
        <ele>1494.4</ele>
        <time>2022-06-11T08:31:17Z</time>
      </trkpt>
      <trkpt lat="42.9094600" lon="-5.4737010">
        <ele>1494.8</ele>
        <time>2022-06-11T08:31:20Z</time>
      </trkpt>
      <trkpt lat="42.9094790" lon="-5.4737210">
        <ele>1495.4</ele>
        <time>2022-06-11T08:31:22Z</time>
      </trkpt>
      <trkpt lat="42.9094960" lon="-5.4737290">
        <ele>1495.6</ele>
        <time>2022-06-11T08:31:24Z</time>
      </trkpt>
      <trkpt lat="42.9094990" lon="-5.4737380">
        <ele>1495.8</ele>
        <time>2022-06-11T08:31:25Z</time>
      </trkpt>
      <trkpt lat="42.9095080" lon="-5.4737500">
        <ele>1496.4</ele>
        <time>2022-06-11T08:31:27Z</time>
      </trkpt>
      <trkpt lat="42.9095540" lon="-5.4737840">
        <ele>1497.0</ele>
        <time>2022-06-11T08:31:32Z</time>
      </trkpt>
      <trkpt lat="42.9095640" lon="-5.4738000">
        <ele>1497.6</ele>
        <time>2022-06-11T08:31:34Z</time>
      </trkpt>
      <trkpt lat="42.9095730" lon="-5.4738250">
        <ele>1498.0</ele>
        <time>2022-06-11T08:31:36Z</time>
      </trkpt>
      <trkpt lat="42.9095960" lon="-5.4738740">
        <ele>1498.6</ele>
        <time>2022-06-11T08:31:41Z</time>
      </trkpt>
      <trkpt lat="42.9096140" lon="-5.4738940">
        <ele>1499.2</ele>
        <time>2022-06-11T08:31:43Z</time>
      </trkpt>
      <trkpt lat="42.9096420" lon="-5.4739310">
        <ele>1499.8</ele>
        <time>2022-06-11T08:31:46Z</time>
      </trkpt>
      <trkpt lat="42.9096550" lon="-5.4739490">
        <ele>1500.0</ele>
        <time>2022-06-11T08:31:48Z</time>
      </trkpt>
      <trkpt lat="42.9096780" lon="-5.4740050">
        <ele>1501.0</ele>
        <time>2022-06-11T08:31:53Z</time>
      </trkpt>
      <trkpt lat="42.9097060" lon="-5.4740430">
        <ele>1501.4</ele>
        <time>2022-06-11T08:31:56Z</time>
      </trkpt>
      <trkpt lat="42.9097660" lon="-5.4740950">
        <ele>1502.0</ele>
        <time>2022-06-11T08:32:01Z</time>
      </trkpt>
      <trkpt lat="42.9098110" lon="-5.4741580">
        <ele>1503.0</ele>
        <time>2022-06-11T08:32:07Z</time>
      </trkpt>
      <trkpt lat="42.9098180" lon="-5.4741680">
        <ele>1503.2</ele>
        <time>2022-06-11T08:32:08Z</time>
      </trkpt>
      <trkpt lat="42.9098710" lon="-5.4742360">
        <ele>1503.8</ele>
        <time>2022-06-11T08:32:13Z</time>
      </trkpt>
      <trkpt lat="42.9099050" lon="-5.4742990">
        <ele>1503.8</ele>
        <time>2022-06-11T08:32:16Z</time>
      </trkpt>
      <trkpt lat="42.9099360" lon="-5.4743390">
        <ele>1504.0</ele>
        <time>2022-06-11T08:32:18Z</time>
      </trkpt>
      <trkpt lat="42.9099950" lon="-5.4744440">
        <ele>1504.6</ele>
        <time>2022-06-11T08:32:23Z</time>
      </trkpt>
      <trkpt lat="42.9100120" lon="-5.4745080">
        <ele>1505.2</ele>
        <time>2022-06-11T08:32:26Z</time>
      </trkpt>
      <trkpt lat="42.9100600" lon="-5.4746180">
        <ele>1506.2</ele>
        <time>2022-06-11T08:32:31Z</time>
      </trkpt>
      <trkpt lat="42.9101360" lon="-5.4747230">
        <ele>1507.2</ele>
        <time>2022-06-11T08:32:37Z</time>
      </trkpt>
      <trkpt lat="42.9101630" lon="-5.4747560">
        <ele>1507.6</ele>
        <time>2022-06-11T08:32:39Z</time>
      </trkpt>
      <trkpt lat="42.9102400" lon="-5.4748790">
        <ele>1508.2</ele>
        <time>2022-06-11T08:32:45Z</time>
      </trkpt>
      <trkpt lat="42.9102530" lon="-5.4748980">
        <ele>1508.4</ele>
        <time>2022-06-11T08:32:46Z</time>
      </trkpt>
      <trkpt lat="42.9103070" lon="-5.4749810">
        <ele>1508.6</ele>
        <time>2022-06-11T08:32:50Z</time>
      </trkpt>
      <trkpt lat="42.9103680" lon="-5.4750460">
        <ele>1509.4</ele>
        <time>2022-06-11T08:32:54Z</time>
      </trkpt>
      <trkpt lat="42.9103870" lon="-5.4750690">
        <ele>1509.8</ele>
        <time>2022-06-11T08:32:56Z</time>
      </trkpt>
      <trkpt lat="42.9104030" lon="-5.4751140">
        <ele>1510.4</ele>
        <time>2022-06-11T08:33:00Z</time>
      </trkpt>
      <trkpt lat="42.9104160" lon="-5.4751430">
        <ele>1510.6</ele>
        <time>2022-06-11T08:33:02Z</time>
      </trkpt>
      <trkpt lat="42.9104450" lon="-5.4752110">
        <ele>1510.8</ele>
        <time>2022-06-11T08:33:06Z</time>
      </trkpt>
      <trkpt lat="42.9104690" lon="-5.4752440">
        <ele>1511.4</ele>
        <time>2022-06-11T08:33:09Z</time>
      </trkpt>
      <trkpt lat="42.9104730" lon="-5.4752560">
        <ele>1511.6</ele>
        <time>2022-06-11T08:33:10Z</time>
      </trkpt>
      <trkpt lat="42.9104770" lon="-5.4752660">
        <ele>1512.0</ele>
        <time>2022-06-11T08:33:11Z</time>
      </trkpt>
      <trkpt lat="42.9104960" lon="-5.4753120">
        <ele>1512.6</ele>
        <time>2022-06-11T08:33:15Z</time>
      </trkpt>
      <trkpt lat="42.9105470" lon="-5.4753840">
        <ele>1513.2</ele>
        <time>2022-06-11T08:33:20Z</time>
      </trkpt>
      <trkpt lat="42.9105860" lon="-5.4754270">
        <ele>1513.8</ele>
        <time>2022-06-11T08:33:24Z</time>
      </trkpt>
      <trkpt lat="42.9106190" lon="-5.4754490">
        <ele>1514.8</ele>
        <time>2022-06-11T08:33:28Z</time>
      </trkpt>
      <trkpt lat="42.9106280" lon="-5.4754530">
        <ele>1514.8</ele>
        <time>2022-06-11T08:33:29Z</time>
      </trkpt>
      <trkpt lat="42.9106820" lon="-5.4755110">
        <ele>1516.0</ele>
        <time>2022-06-11T08:33:36Z</time>
      </trkpt>
      <trkpt lat="42.9106980" lon="-5.4755330">
        <ele>1516.2</ele>
        <time>2022-06-11T08:33:38Z</time>
      </trkpt>
      <trkpt lat="42.9107490" lon="-5.4756040">
        <ele>1517.0</ele>
        <time>2022-06-11T08:33:43Z</time>
      </trkpt>
      <trkpt lat="42.9107900" lon="-5.4756540">
        <ele>1517.4</ele>
        <time>2022-06-11T08:33:47Z</time>
      </trkpt>
      <trkpt lat="42.9108420" lon="-5.4756990">
        <ele>1518.0</ele>
        <time>2022-06-11T08:33:52Z</time>
      </trkpt>
      <trkpt lat="42.9108630" lon="-5.4757090">
        <ele>1519.2</ele>
        <time>2022-06-11T08:33:54Z</time>
      </trkpt>
      <trkpt lat="42.9109130" lon="-5.4757260">
        <ele>1520.2</ele>
        <time>2022-06-11T08:33:58Z</time>
      </trkpt>
      <trkpt lat="42.9109600" lon="-5.4757560">
        <ele>1520.8</ele>
        <time>2022-06-11T08:34:02Z</time>
      </trkpt>
      <trkpt lat="42.9109970" lon="-5.4757710">
        <ele>1521.2</ele>
        <time>2022-06-11T08:34:05Z</time>
      </trkpt>
      <trkpt lat="42.9110520" lon="-5.4758090">
        <ele>1521.8</ele>
        <time>2022-06-11T08:34:10Z</time>
      </trkpt>
      <trkpt lat="42.9110720" lon="-5.4758300">
        <ele>1522.6</ele>
        <time>2022-06-11T08:34:13Z</time>
      </trkpt>
      <trkpt lat="42.9111220" lon="-5.4759010">
        <ele>1523.6</ele>
        <time>2022-06-11T08:34:19Z</time>
      </trkpt>
      <trkpt lat="42.9111800" lon="-5.4759750">
        <ele>1524.8</ele>
        <time>2022-06-11T08:34:24Z</time>
      </trkpt>
      <trkpt lat="42.9112080" lon="-5.4760220">
        <ele>1525.4</ele>
        <time>2022-06-11T08:34:27Z</time>
      </trkpt>
      <trkpt lat="42.9112600" lon="-5.4760710">
        <ele>1526.0</ele>
        <time>2022-06-11T08:34:31Z</time>
      </trkpt>
      <trkpt lat="42.9113360" lon="-5.4760930">
        <ele>1527.0</ele>
        <time>2022-06-11T08:34:36Z</time>
      </trkpt>
      <trkpt lat="42.9114310" lon="-5.4760890">
        <ele>1527.8</ele>
        <time>2022-06-11T08:34:43Z</time>
      </trkpt>
      <trkpt lat="42.9114520" lon="-5.4760880">
        <ele>1528.0</ele>
        <time>2022-06-11T08:34:45Z</time>
      </trkpt>
      <trkpt lat="42.9114660" lon="-5.4760870">
        <ele>1528.2</ele>
        <time>2022-06-11T08:34:46Z</time>
      </trkpt>
      <trkpt lat="42.9114820" lon="-5.4760930">
        <ele>1528.4</ele>
        <time>2022-06-11T08:34:47Z</time>
      </trkpt>
      <trkpt lat="42.9115350" lon="-5.4761230">
        <ele>1529.4</ele>
        <time>2022-06-11T08:34:51Z</time>
      </trkpt>
      <trkpt lat="42.9115620" lon="-5.4761340">
        <ele>1530.2</ele>
        <time>2022-06-11T08:34:53Z</time>
      </trkpt>
      <trkpt lat="42.9115920" lon="-5.4761460">
        <ele>1530.6</ele>
        <time>2022-06-11T08:34:55Z</time>
      </trkpt>
      <trkpt lat="42.9116500" lon="-5.4761730">
        <ele>1531.6</ele>
        <time>2022-06-11T08:35:00Z</time>
      </trkpt>
      <trkpt lat="42.9116630" lon="-5.4761770">
        <ele>1531.8</ele>
        <time>2022-06-11T08:35:01Z</time>
      </trkpt>
      <trkpt lat="42.9117590" lon="-5.4762060">
        <ele>1532.8</ele>
        <time>2022-06-11T08:35:08Z</time>
      </trkpt>
      <trkpt lat="42.9117710" lon="-5.4762090">
        <ele>1532.8</ele>
        <time>2022-06-11T08:35:09Z</time>
      </trkpt>
      <trkpt lat="42.9117930" lon="-5.4762170">
        <ele>1533.2</ele>
        <time>2022-06-11T08:35:11Z</time>
      </trkpt>
      <trkpt lat="42.9118400" lon="-5.4762530">
        <ele>1534.0</ele>
        <time>2022-06-11T08:35:15Z</time>
      </trkpt>
      <trkpt lat="42.9118520" lon="-5.4762650">
        <ele>1534.0</ele>
        <time>2022-06-11T08:35:16Z</time>
      </trkpt>
      <trkpt lat="42.9118650" lon="-5.4762700">
        <ele>1534.2</ele>
        <time>2022-06-11T08:35:17Z</time>
      </trkpt>
      <trkpt lat="42.9119160" lon="-5.4762840">
        <ele>1535.0</ele>
        <time>2022-06-11T08:35:21Z</time>
      </trkpt>
      <trkpt lat="42.9119290" lon="-5.4762890">
        <ele>1535.2</ele>
        <time>2022-06-11T08:35:22Z</time>
      </trkpt>
      <trkpt lat="42.9119770" lon="-5.4763030">
        <ele>1536.2</ele>
        <time>2022-06-11T08:35:25Z</time>
      </trkpt>
      <trkpt lat="42.9119880" lon="-5.4763500">
        <ele>1537.2</ele>
        <time>2022-06-11T08:35:28Z</time>
      </trkpt>
      <trkpt lat="42.9119860" lon="-5.4763710">
        <ele>1537.4</ele>
        <time>2022-06-11T08:35:29Z</time>
      </trkpt>
      <trkpt lat="42.9119910" lon="-5.4764280">
        <ele>1538.2</ele>
        <time>2022-06-11T08:35:32Z</time>
      </trkpt>
      <trkpt lat="42.9120040" lon="-5.4764990">
        <ele>1538.4</ele>
        <time>2022-06-11T08:35:36Z</time>
      </trkpt>
      <trkpt lat="42.9120300" lon="-5.4766210">
        <ele>1539.0</ele>
        <time>2022-06-11T08:35:43Z</time>
      </trkpt>
      <trkpt lat="42.9120290" lon="-5.4766140">
        <ele>1539.2</ele>
        <time>2022-06-11T08:35:45Z</time>
      </trkpt>
      <trkpt lat="42.9120300" lon="-5.4766110">
        <ele>1539.2</ele>
        <time>2022-06-11T08:35:49Z</time>
      </trkpt>
      <trkpt lat="42.9120460" lon="-5.4766460">
        <ele>1539.4</ele>
        <time>2022-06-11T08:35:52Z</time>
      </trkpt>
      <trkpt lat="42.9120750" lon="-5.4766890">
        <ele>1539.8</ele>
        <time>2022-06-11T08:35:55Z</time>
      </trkpt>
      <trkpt lat="42.9121900" lon="-5.4767400">
        <ele>1540.2</ele>
        <time>2022-06-11T08:36:03Z</time>
      </trkpt>
      <trkpt lat="42.9122420" lon="-5.4767700">
        <ele>1540.0</ele>
        <time>2022-06-11T08:36:07Z</time>
      </trkpt>
      <trkpt lat="42.9122470" lon="-5.4767790">
        <ele>1540.0</ele>
        <time>2022-06-11T08:36:08Z</time>
      </trkpt>
      <trkpt lat="42.9122480" lon="-5.4767920">
        <ele>1540.0</ele>
        <time>2022-06-11T08:36:09Z</time>
      </trkpt>
      <trkpt lat="42.9122620" lon="-5.4768490">
        <ele>1540.0</ele>
        <time>2022-06-11T08:36:13Z</time>
      </trkpt>
      <trkpt lat="42.9122810" lon="-5.4768860">
        <ele>1540.2</ele>
        <time>2022-06-11T08:36:16Z</time>
      </trkpt>
      <trkpt lat="42.9122880" lon="-5.4768980">
        <ele>1540.2</ele>
        <time>2022-06-11T08:36:17Z</time>
      </trkpt>
      <trkpt lat="42.9122940" lon="-5.4769080">
        <ele>1540.4</ele>
        <time>2022-06-11T08:36:18Z</time>
      </trkpt>
      <trkpt lat="42.9123010" lon="-5.4769180">
        <ele>1540.8</ele>
        <time>2022-06-11T08:36:19Z</time>
      </trkpt>
      <trkpt lat="42.9123060" lon="-5.4769290">
        <ele>1541.0</ele>
        <time>2022-06-11T08:36:20Z</time>
      </trkpt>
      <trkpt lat="42.9123160" lon="-5.4769520">
        <ele>1541.4</ele>
        <time>2022-06-11T08:36:22Z</time>
      </trkpt>
      <trkpt lat="42.9123280" lon="-5.4769650">
        <ele>1541.8</ele>
        <time>2022-06-11T08:36:24Z</time>
      </trkpt>
      <trkpt lat="42.9123190" lon="-5.4769360">
        <ele>1541.8</ele>
        <time>2022-06-11T08:36:26Z</time>
      </trkpt>
      <trkpt lat="42.9122650" lon="-5.4768150">
        <ele>1541.2</ele>
        <time>2022-06-11T08:36:30Z</time>
      </trkpt>
      <trkpt lat="42.9122400" lon="-5.4767600">
        <ele>1540.6</ele>
        <time>2022-06-11T08:36:32Z</time>
      </trkpt>
      <trkpt lat="42.9122140" lon="-5.4767440">
        <ele>1540.4</ele>
        <time>2022-06-11T08:36:33Z</time>
      </trkpt>
      <trkpt lat="42.9121880" lon="-5.4767280">
        <ele>1540.2</ele>
        <time>2022-06-11T08:36:34Z</time>
      </trkpt>
      <trkpt lat="42.9120340" lon="-5.4766140">
        <ele>1539.4</ele>
        <time>2022-06-11T08:36:40Z</time>
      </trkpt>
      <trkpt lat="42.9120200" lon="-5.4765800">
        <ele>1539.2</ele>
        <time>2022-06-11T08:36:41Z</time>
      </trkpt>
      <trkpt lat="42.9120050" lon="-5.4764180">
        <ele>1539.0</ele>
        <time>2022-06-11T08:36:45Z</time>
      </trkpt>
      <trkpt lat="42.9119380" lon="-5.4762690">
        <ele>1538.2</ele>
        <time>2022-06-11T08:36:50Z</time>
      </trkpt>
      <trkpt lat="42.9118600" lon="-5.4762260">
        <ele>1536.8</ele>
        <time>2022-06-11T08:36:53Z</time>
      </trkpt>
      <trkpt lat="42.9118300" lon="-5.4762090">
        <ele>1536.2</ele>
        <time>2022-06-11T08:36:54Z</time>
      </trkpt>
      <trkpt lat="42.9117990" lon="-5.4761950">
        <ele>1535.6</ele>
        <time>2022-06-11T08:36:55Z</time>
      </trkpt>
      <trkpt lat="42.9117060" lon="-5.4761610">
        <ele>1534.2</ele>
        <time>2022-06-11T08:36:58Z</time>
      </trkpt>
      <trkpt lat="42.9116140" lon="-5.4761270">
        <ele>1533.2</ele>
        <time>2022-06-11T08:37:01Z</time>
      </trkpt>
      <trkpt lat="42.9115120" lon="-5.4760860">
        <ele>1532.0</ele>
        <time>2022-06-11T08:37:05Z</time>
      </trkpt>
      <trkpt lat="42.9114570" lon="-5.4760710">
        <ele>1531.6</ele>
        <time>2022-06-11T08:37:07Z</time>
      </trkpt>
      <trkpt lat="42.9114040" lon="-5.4760660">
        <ele>1530.8</ele>
        <time>2022-06-11T08:37:09Z</time>
      </trkpt>
      <trkpt lat="42.9113450" lon="-5.4760670">
        <ele>1529.8</ele>
        <time>2022-06-11T08:37:11Z</time>
      </trkpt>
      <trkpt lat="42.9112640" lon="-5.4760410">
        <ele>1528.8</ele>
        <time>2022-06-11T08:37:14Z</time>
      </trkpt>
      <trkpt lat="42.9112390" lon="-5.4760200">
        <ele>1528.4</ele>
        <time>2022-06-11T08:37:15Z</time>
      </trkpt>
      <trkpt lat="42.9111590" lon="-5.4759100">
        <ele>1527.2</ele>
        <time>2022-06-11T08:37:19Z</time>
      </trkpt>
      <trkpt lat="42.9111180" lon="-5.4758580">
        <ele>1526.6</ele>
        <time>2022-06-11T08:37:21Z</time>
      </trkpt>
      <trkpt lat="42.9110770" lon="-5.4758090">
        <ele>1525.8</ele>
        <time>2022-06-11T08:37:23Z</time>
      </trkpt>
      <trkpt lat="42.9110330" lon="-5.4757670">
        <ele>1525.0</ele>
        <time>2022-06-11T08:37:25Z</time>
      </trkpt>
      <trkpt lat="42.9110070" lon="-5.4757480">
        <ele>1524.4</ele>
        <time>2022-06-11T08:37:26Z</time>
      </trkpt>
      <trkpt lat="42.9109570" lon="-5.4757140">
        <ele>1523.4</ele>
        <time>2022-06-11T08:37:28Z</time>
      </trkpt>
      <trkpt lat="42.9109300" lon="-5.4757050">
        <ele>1523.0</ele>
        <time>2022-06-11T08:37:29Z</time>
      </trkpt>
      <trkpt lat="42.9108570" lon="-5.4756690">
        <ele>1522.4</ele>
        <time>2022-06-11T08:37:32Z</time>
      </trkpt>
      <trkpt lat="42.9107660" lon="-5.4756010">
        <ele>1521.4</ele>
        <time>2022-06-11T08:37:36Z</time>
      </trkpt>
      <trkpt lat="42.9107500" lon="-5.4755660">
        <ele>1521.0</ele>
        <time>2022-06-11T08:37:37Z</time>
      </trkpt>
      <trkpt lat="42.9106870" lon="-5.4754870">
        <ele>1519.6</ele>
        <time>2022-06-11T08:37:40Z</time>
      </trkpt>
      <trkpt lat="42.9106390" lon="-5.4754470">
        <ele>1519.0</ele>
        <time>2022-06-11T08:37:42Z</time>
      </trkpt>
      <trkpt lat="42.9105890" lon="-5.4754090">
        <ele>1518.6</ele>
        <time>2022-06-11T08:37:44Z</time>
      </trkpt>
      <trkpt lat="42.9105200" lon="-5.4753300">
        <ele>1517.0</ele>
        <time>2022-06-11T08:37:47Z</time>
      </trkpt>
      <trkpt lat="42.9104710" lon="-5.4752340">
        <ele>1515.8</ele>
        <time>2022-06-11T08:37:50Z</time>
      </trkpt>
      <trkpt lat="42.9104230" lon="-5.4751400">
        <ele>1515.0</ele>
        <time>2022-06-11T08:37:53Z</time>
      </trkpt>
      <trkpt lat="42.9104070" lon="-5.4751090">
        <ele>1514.4</ele>
        <time>2022-06-11T08:37:54Z</time>
      </trkpt>
      <trkpt lat="42.9103500" lon="-5.4750200">
        <ele>1513.4</ele>
        <time>2022-06-11T08:37:57Z</time>
      </trkpt>
      <trkpt lat="42.9103320" lon="-5.4749900">
        <ele>1513.0</ele>
        <time>2022-06-11T08:37:58Z</time>
      </trkpt>
      <trkpt lat="42.9102770" lon="-5.4749030">
        <ele>1512.4</ele>
        <time>2022-06-11T08:38:01Z</time>
      </trkpt>
      <trkpt lat="42.9101680" lon="-5.4747430">
        <ele>1511.6</ele>
        <time>2022-06-11T08:38:07Z</time>
      </trkpt>
      <trkpt lat="42.9100710" lon="-5.4746150">
        <ele>1511.4</ele>
        <time>2022-06-11T08:38:12Z</time>
      </trkpt>
      <trkpt lat="42.9100330" lon="-5.4745650">
        <ele>1511.0</ele>
        <time>2022-06-11T08:38:14Z</time>
      </trkpt>
      <trkpt lat="42.9099940" lon="-5.4744770">
        <ele>1510.2</ele>
        <time>2022-06-11T08:38:17Z</time>
      </trkpt>
      <trkpt lat="42.9099500" lon="-5.4743800">
        <ele>1509.2</ele>
        <time>2022-06-11T08:38:20Z</time>
      </trkpt>
      <trkpt lat="42.9098730" lon="-5.4742610">
        <ele>1508.2</ele>
        <time>2022-06-11T08:38:24Z</time>
      </trkpt>
      <trkpt lat="42.9098080" lon="-5.4741840">
        <ele>1507.8</ele>
        <time>2022-06-11T08:38:27Z</time>
      </trkpt>
      <trkpt lat="42.9097220" lon="-5.4740970">
        <ele>1507.0</ele>
        <time>2022-06-11T08:38:31Z</time>
      </trkpt>
      <trkpt lat="42.9096600" lon="-5.4740350">
        <ele>1506.2</ele>
        <time>2022-06-11T08:38:34Z</time>
      </trkpt>
      <trkpt lat="42.9096450" lon="-5.4740090">
        <ele>1506.0</ele>
        <time>2022-06-11T08:38:35Z</time>
      </trkpt>
      <trkpt lat="42.9095840" lon="-5.4739050">
        <ele>1504.8</ele>
        <time>2022-06-11T08:38:39Z</time>
      </trkpt>
      <trkpt lat="42.9095600" lon="-5.4738540">
        <ele>1504.2</ele>
        <time>2022-06-11T08:38:41Z</time>
      </trkpt>
      <trkpt lat="42.9095390" lon="-5.4738040">
        <ele>1503.4</ele>
        <time>2022-06-11T08:38:43Z</time>
      </trkpt>
      <trkpt lat="42.9094930" lon="-5.4737340">
        <ele>1502.2</ele>
        <time>2022-06-11T08:38:46Z</time>
      </trkpt>
      <trkpt lat="42.9094670" lon="-5.4736930">
        <ele>1500.8</ele>
        <time>2022-06-11T08:38:48Z</time>
      </trkpt>
      <trkpt lat="42.9094570" lon="-5.4736660">
        <ele>1500.4</ele>
        <time>2022-06-11T08:38:49Z</time>
      </trkpt>
      <trkpt lat="42.9094430" lon="-5.4736150">
        <ele>1499.8</ele>
        <time>2022-06-11T08:38:51Z</time>
      </trkpt>
      <trkpt lat="42.9094310" lon="-5.4735600">
        <ele>1498.8</ele>
        <time>2022-06-11T08:38:53Z</time>
      </trkpt>
      <trkpt lat="42.9094230" lon="-5.4734680">
        <ele>1497.6</ele>
        <time>2022-06-11T08:38:56Z</time>
      </trkpt>
      <trkpt lat="42.9094130" lon="-5.4733710">
        <ele>1496.4</ele>
        <time>2022-06-11T08:38:59Z</time>
      </trkpt>
      <trkpt lat="42.9094000" lon="-5.4733060">
        <ele>1495.2</ele>
        <time>2022-06-11T08:39:01Z</time>
      </trkpt>
      <trkpt lat="42.9093880" lon="-5.4732440">
        <ele>1494.2</ele>
        <time>2022-06-11T08:39:03Z</time>
      </trkpt>
      <trkpt lat="42.9093670" lon="-5.4731350">
        <ele>1492.8</ele>
        <time>2022-06-11T08:39:07Z</time>
      </trkpt>
      <trkpt lat="42.9093620" lon="-5.4731100">
        <ele>1492.2</ele>
        <time>2022-06-11T08:39:08Z</time>
      </trkpt>
      <trkpt lat="42.9093560" lon="-5.4730840">
        <ele>1491.6</ele>
        <time>2022-06-11T08:39:09Z</time>
      </trkpt>
      <trkpt lat="42.9093260" lon="-5.4730110">
        <ele>1490.4</ele>
        <time>2022-06-11T08:39:12Z</time>
      </trkpt>
      <trkpt lat="42.9092970" lon="-5.4729360">
        <ele>1488.8</ele>
        <time>2022-06-11T08:39:15Z</time>
      </trkpt>
      <trkpt lat="42.9092840" lon="-5.4729100">
        <ele>1488.2</ele>
        <time>2022-06-11T08:39:16Z</time>
      </trkpt>
      <trkpt lat="42.9092590" lon="-5.4728610">
        <ele>1487.4</ele>
        <time>2022-06-11T08:39:18Z</time>
      </trkpt>
      <trkpt lat="42.9092020" lon="-5.4727890">
        <ele>1486.0</ele>
        <time>2022-06-11T08:39:21Z</time>
      </trkpt>
      <trkpt lat="42.9091870" lon="-5.4727620">
        <ele>1485.6</ele>
        <time>2022-06-11T08:39:22Z</time>
      </trkpt>
      <trkpt lat="42.9091590" lon="-5.4727040">
        <ele>1484.8</ele>
        <time>2022-06-11T08:39:24Z</time>
      </trkpt>
      <trkpt lat="42.9091150" lon="-5.4726330">
        <ele>1483.6</ele>
        <time>2022-06-11T08:39:27Z</time>
      </trkpt>
      <trkpt lat="42.9091010" lon="-5.4726120">
        <ele>1483.2</ele>
        <time>2022-06-11T08:39:28Z</time>
      </trkpt>
      <trkpt lat="42.9090690" lon="-5.4725660">
        <ele>1482.2</ele>
        <time>2022-06-11T08:39:30Z</time>
      </trkpt>
      <trkpt lat="42.9090140" lon="-5.4724920">
        <ele>1481.0</ele>
        <time>2022-06-11T08:39:33Z</time>
      </trkpt>
      <trkpt lat="42.9089790" lon="-5.4724450">
        <ele>1480.0</ele>
        <time>2022-06-11T08:39:35Z</time>
      </trkpt>
      <trkpt lat="42.9089620" lon="-5.4724270">
        <ele>1480.0</ele>
        <time>2022-06-11T08:39:36Z</time>
      </trkpt>
      <trkpt lat="42.9089000" lon="-5.4723460">
        <ele>1478.8</ele>
        <time>2022-06-11T08:39:40Z</time>
      </trkpt>
      <trkpt lat="42.9088870" lon="-5.4723230">
        <ele>1478.6</ele>
        <time>2022-06-11T08:39:41Z</time>
      </trkpt>
      <trkpt lat="42.9088320" lon="-5.4722230">
        <ele>1477.8</ele>
        <time>2022-06-11T08:39:45Z</time>
      </trkpt>
      <trkpt lat="42.9087980" lon="-5.4721760">
        <ele>1477.4</ele>
        <time>2022-06-11T08:39:47Z</time>
      </trkpt>
      <trkpt lat="42.9086480" lon="-5.4720130">
        <ele>1477.0</ele>
        <time>2022-06-11T08:39:54Z</time>
      </trkpt>
      <trkpt lat="42.9086330" lon="-5.4720000">
        <ele>1477.0</ele>
        <time>2022-06-11T08:39:55Z</time>
      </trkpt>
      <trkpt lat="42.9084800" lon="-5.4719390">
        <ele>1477.8</ele>
        <time>2022-06-11T08:40:02Z</time>
      </trkpt>
      <trkpt lat="42.9083740" lon="-5.4718570">
        <ele>1477.6</ele>
        <time>2022-06-11T08:40:07Z</time>
      </trkpt>
      <trkpt lat="42.9083590" lon="-5.4718290">
        <ele>1477.4</ele>
        <time>2022-06-11T08:40:08Z</time>
      </trkpt>
      <trkpt lat="42.9082520" lon="-5.4716590">
        <ele>1477.0</ele>
        <time>2022-06-11T08:40:15Z</time>
      </trkpt>
      <trkpt lat="42.9080900" lon="-5.4715500">
        <ele>1477.2</ele>
        <time>2022-06-11T08:40:23Z</time>
      </trkpt>
      <trkpt lat="42.9079360" lon="-5.4714580">
        <ele>1477.6</ele>
        <time>2022-06-11T08:40:30Z</time>
      </trkpt>
      <trkpt lat="42.9078670" lon="-5.4714160">
        <ele>1477.2</ele>
        <time>2022-06-11T08:40:33Z</time>
      </trkpt>
      <trkpt lat="42.9078450" lon="-5.4714070">
        <ele>1476.6</ele>
        <time>2022-06-11T08:40:34Z</time>
      </trkpt>
      <trkpt lat="42.9077950" lon="-5.4713760">
        <ele>1476.0</ele>
        <time>2022-06-11T08:40:36Z</time>
      </trkpt>
      <trkpt lat="42.9077360" lon="-5.4712960">
        <ele>1475.6</ele>
        <time>2022-06-11T08:40:39Z</time>
      </trkpt>
      <trkpt lat="42.9076980" lon="-5.4712360">
        <ele>1475.0</ele>
        <time>2022-06-11T08:40:41Z</time>
      </trkpt>
      <trkpt lat="42.9076480" lon="-5.4711510">
        <ele>1474.0</ele>
        <time>2022-06-11T08:40:44Z</time>
      </trkpt>
      <trkpt lat="42.9075420" lon="-5.4709530">
        <ele>1473.2</ele>
        <time>2022-06-11T08:40:51Z</time>
      </trkpt>
      <trkpt lat="42.9075250" lon="-5.4709420">
        <ele>1473.0</ele>
        <time>2022-06-11T08:40:52Z</time>
      </trkpt>
      <trkpt lat="42.9074450" lon="-5.4708600">
        <ele>1471.8</ele>
        <time>2022-06-11T08:40:56Z</time>
      </trkpt>
      <trkpt lat="42.9073780" lon="-5.4707450">
        <ele>1470.8</ele>
        <time>2022-06-11T08:41:00Z</time>
      </trkpt>
      <trkpt lat="42.9073610" lon="-5.4706770">
        <ele>1470.4</ele>
        <time>2022-06-11T08:41:02Z</time>
      </trkpt>
      <trkpt lat="42.9073310" lon="-5.4705710">
        <ele>1469.8</ele>
        <time>2022-06-11T08:41:05Z</time>
      </trkpt>
      <trkpt lat="42.9072750" lon="-5.4704440">
        <ele>1468.8</ele>
        <time>2022-06-11T08:41:09Z</time>
      </trkpt>
      <trkpt lat="42.9072490" lon="-5.4703800">
        <ele>1468.4</ele>
        <time>2022-06-11T08:41:11Z</time>
      </trkpt>
      <trkpt lat="42.9071850" lon="-5.4702480">
        <ele>1467.8</ele>
        <time>2022-06-11T08:41:16Z</time>
      </trkpt>
      <trkpt lat="42.9071800" lon="-5.4702180">
        <ele>1467.6</ele>
        <time>2022-06-11T08:41:17Z</time>
      </trkpt>
      <trkpt lat="42.9071700" lon="-5.4701890">
        <ele>1467.2</ele>
        <time>2022-06-11T08:41:18Z</time>
      </trkpt>
      <trkpt lat="42.9071270" lon="-5.4700970">
        <ele>1466.4</ele>
        <time>2022-06-11T08:41:21Z</time>
      </trkpt>
      <trkpt lat="42.9070670" lon="-5.4699810">
        <ele>1465.2</ele>
        <time>2022-06-11T08:41:25Z</time>
      </trkpt>
      <trkpt lat="42.9070280" lon="-5.4699390">
        <ele>1464.2</ele>
        <time>2022-06-11T08:41:27Z</time>
      </trkpt>
      <trkpt lat="42.9069590" lon="-5.4699020">
        <ele>1463.2</ele>
        <time>2022-06-11T08:41:30Z</time>
      </trkpt>
      <trkpt lat="42.9069350" lon="-5.4698930">
        <ele>1462.4</ele>
        <time>2022-06-11T08:41:31Z</time>
      </trkpt>
      <trkpt lat="42.9069120" lon="-5.4698830">
        <ele>1461.8</ele>
        <time>2022-06-11T08:41:32Z</time>
      </trkpt>
      <trkpt lat="42.9068460" lon="-5.4698540">
        <ele>1460.6</ele>
        <time>2022-06-11T08:41:35Z</time>
      </trkpt>
      <trkpt lat="42.9068130" lon="-5.4698290">
        <ele>1460.0</ele>
        <time>2022-06-11T08:41:37Z</time>
      </trkpt>
      <trkpt lat="42.9067480" lon="-5.4697610">
        <ele>1459.4</ele>
        <time>2022-06-11T08:41:40Z</time>
      </trkpt>
      <trkpt lat="42.9066860" lon="-5.4697010">
        <ele>1458.8</ele>
        <time>2022-06-11T08:41:43Z</time>
      </trkpt>
      <trkpt lat="42.9066360" lon="-5.4696730">
        <ele>1458.4</ele>
        <time>2022-06-11T08:41:45Z</time>
      </trkpt>
      <trkpt lat="42.9064930" lon="-5.4696110">
        <ele>1457.4</ele>
        <time>2022-06-11T08:41:50Z</time>
      </trkpt>
      <trkpt lat="42.9064630" lon="-5.4696040">
        <ele>1457.0</ele>
        <time>2022-06-11T08:41:51Z</time>
      </trkpt>
      <trkpt lat="42.9064070" lon="-5.4695840">
        <ele>1456.0</ele>
        <time>2022-06-11T08:41:53Z</time>
      </trkpt>
      <trkpt lat="42.9063300" lon="-5.4695470">
        <ele>1454.4</ele>
        <time>2022-06-11T08:41:56Z</time>
      </trkpt>
      <trkpt lat="42.9062580" lon="-5.4695380">
        <ele>1453.6</ele>
        <time>2022-06-11T08:41:59Z</time>
      </trkpt>
      <trkpt lat="42.9062370" lon="-5.4695470">
        <ele>1453.2</ele>
        <time>2022-06-11T08:42:00Z</time>
      </trkpt>
      <trkpt lat="42.9061630" lon="-5.4695500">
        <ele>1452.2</ele>
        <time>2022-06-11T08:42:03Z</time>
      </trkpt>
      <trkpt lat="42.9061380" lon="-5.4695330">
        <ele>1451.4</ele>
        <time>2022-06-11T08:42:04Z</time>
      </trkpt>
      <trkpt lat="42.9061150" lon="-5.4695190">
        <ele>1450.8</ele>
        <time>2022-06-11T08:42:05Z</time>
      </trkpt>
      <trkpt lat="42.9060910" lon="-5.4695040">
        <ele>1450.2</ele>
        <time>2022-06-11T08:42:06Z</time>
      </trkpt>
      <trkpt lat="42.9060730" lon="-5.4694790">
        <ele>1450.0</ele>
        <time>2022-06-11T08:42:07Z</time>
      </trkpt>
      <trkpt lat="42.9060530" lon="-5.4694520">
        <ele>1449.6</ele>
        <time>2022-06-11T08:42:08Z</time>
      </trkpt>
      <trkpt lat="42.9060340" lon="-5.4694230">
        <ele>1449.0</ele>
        <time>2022-06-11T08:42:09Z</time>
      </trkpt>
      <trkpt lat="42.9060130" lon="-5.4693880">
        <ele>1448.6</ele>
        <time>2022-06-11T08:42:10Z</time>
      </trkpt>
      <trkpt lat="42.9059650" lon="-5.4692810">
        <ele>1447.6</ele>
        <time>2022-06-11T08:42:13Z</time>
      </trkpt>
      <trkpt lat="42.9059270" lon="-5.4692340">
        <ele>1446.8</ele>
        <time>2022-06-11T08:42:15Z</time>
      </trkpt>
      <trkpt lat="42.9059040" lon="-5.4692260">
        <ele>1446.6</ele>
        <time>2022-06-11T08:42:16Z</time>
      </trkpt>
      <trkpt lat="42.9058830" lon="-5.4692270">
        <ele>1446.6</ele>
        <time>2022-06-11T08:42:17Z</time>
      </trkpt>
      <trkpt lat="42.9058170" lon="-5.4692000">
        <ele>1445.8</ele>
        <time>2022-06-11T08:42:21Z</time>
      </trkpt>
      <trkpt lat="42.9058050" lon="-5.4691950">
        <ele>1445.8</ele>
        <time>2022-06-11T08:42:26Z</time>
      </trkpt>
      <trkpt lat="42.9057390" lon="-5.4691510">
        <ele>1445.4</ele>
        <time>2022-06-11T08:42:30Z</time>
      </trkpt>
      <trkpt lat="42.9057150" lon="-5.4691390">
        <ele>1445.2</ele>
        <time>2022-06-11T08:42:31Z</time>
      </trkpt>
      <trkpt lat="42.9055840" lon="-5.4691090">
        <ele>1444.4</ele>
        <time>2022-06-11T08:42:36Z</time>
      </trkpt>
      <trkpt lat="42.9055610" lon="-5.4690930">
        <ele>1444.2</ele>
        <time>2022-06-11T08:42:37Z</time>
      </trkpt>
      <trkpt lat="42.9054160" lon="-5.4690670">
        <ele>1443.8</ele>
        <time>2022-06-11T08:42:42Z</time>
      </trkpt>
      <trkpt lat="42.9052960" lon="-5.4690600">
        <ele>1443.2</ele>
        <time>2022-06-11T08:42:47Z</time>
      </trkpt>
      <trkpt lat="42.9052510" lon="-5.4690600">
        <ele>1443.0</ele>
        <time>2022-06-11T08:42:49Z</time>
      </trkpt>
      <trkpt lat="42.9051520" lon="-5.4690390">
        <ele>1442.0</ele>
        <time>2022-06-11T08:42:53Z</time>
      </trkpt>
      <trkpt lat="42.9050530" lon="-5.4690070">
        <ele>1441.4</ele>
        <time>2022-06-11T08:42:57Z</time>
      </trkpt>
      <trkpt lat="42.9050310" lon="-5.4689990">
        <ele>1441.0</ele>
        <time>2022-06-11T08:42:58Z</time>
      </trkpt>
      <trkpt lat="42.9049130" lon="-5.4689580">
        <ele>1440.2</ele>
        <time>2022-06-11T08:43:04Z</time>
      </trkpt>
      <trkpt lat="42.9049050" lon="-5.4689490">
        <ele>1440.0</ele>
        <time>2022-06-11T08:43:05Z</time>
      </trkpt>
      <trkpt lat="42.9048840" lon="-5.4689180">
        <ele>1439.8</ele>
        <time>2022-06-11T08:43:09Z</time>
      </trkpt>
      <trkpt lat="42.9048460" lon="-5.4689160">
        <ele>1439.6</ele>
        <time>2022-06-11T08:43:15Z</time>
      </trkpt>
      <trkpt lat="42.9047930" lon="-5.4689780">
        <ele>1439.6</ele>
        <time>2022-06-11T08:43:19Z</time>
      </trkpt>
      <trkpt lat="42.9047260" lon="-5.4690830">
        <ele>1440.6</ele>
        <time>2022-06-11T08:43:24Z</time>
      </trkpt>
      <trkpt lat="42.9046750" lon="-5.4691530">
        <ele>1441.2</ele>
        <time>2022-06-11T08:43:27Z</time>
      </trkpt>
      <trkpt lat="42.9046350" lon="-5.4692210">
        <ele>1441.2</ele>
        <time>2022-06-11T08:43:30Z</time>
      </trkpt>
      <trkpt lat="42.9045400" lon="-5.4693530">
        <ele>1441.2</ele>
        <time>2022-06-11T08:43:37Z</time>
      </trkpt>
      <trkpt lat="42.9044150" lon="-5.4694190">
        <ele>1440.4</ele>
        <time>2022-06-11T08:43:42Z</time>
      </trkpt>
      <trkpt lat="42.9043600" lon="-5.4694140">
        <ele>1440.0</ele>
        <time>2022-06-11T08:43:44Z</time>
      </trkpt>
      <trkpt lat="42.9042620" lon="-5.4693950">
        <ele>1440.0</ele>
        <time>2022-06-11T08:43:48Z</time>
      </trkpt>
      <trkpt lat="42.9042430" lon="-5.4693850">
        <ele>1439.8</ele>
        <time>2022-06-11T08:43:49Z</time>
      </trkpt>
      <trkpt lat="42.9041470" lon="-5.4693470">
        <ele>1439.4</ele>
        <time>2022-06-11T08:43:54Z</time>
      </trkpt>
      <trkpt lat="42.9040890" lon="-5.4693190">
        <ele>1439.0</ele>
        <time>2022-06-11T08:43:57Z</time>
      </trkpt>
      <trkpt lat="42.9039910" lon="-5.4692500">
        <ele>1438.8</ele>
        <time>2022-06-11T08:44:01Z</time>
      </trkpt>
      <trkpt lat="42.9038520" lon="-5.4690930">
        <ele>1438.0</ele>
        <time>2022-06-11T08:44:07Z</time>
      </trkpt>
      <trkpt lat="42.9038270" lon="-5.4690750">
        <ele>1437.8</ele>
        <time>2022-06-11T08:44:08Z</time>
      </trkpt>
      <trkpt lat="42.9037280" lon="-5.4689990">
        <ele>1436.8</ele>
        <time>2022-06-11T08:44:12Z</time>
      </trkpt>
      <trkpt lat="42.9036610" lon="-5.4689500">
        <ele>1435.6</ele>
        <time>2022-06-11T08:44:16Z</time>
      </trkpt>
      <trkpt lat="42.9036150" lon="-5.4689140">
        <ele>1435.4</ele>
        <time>2022-06-11T08:44:20Z</time>
      </trkpt>
      <trkpt lat="42.9036100" lon="-5.4689110">
        <ele>1435.0</ele>
        <time>2022-06-11T08:44:22Z</time>
      </trkpt>
      <trkpt lat="42.9036060" lon="-5.4688870">
        <ele>1434.6</ele>
        <time>2022-06-11T08:44:28Z</time>
      </trkpt>
      <trkpt lat="42.9035950" lon="-5.4688750">
        <ele>1434.6</ele>
        <time>2022-06-11T08:44:29Z</time>
      </trkpt>
      <trkpt lat="42.9035040" lon="-5.4688020">
        <ele>1433.6</ele>
        <time>2022-06-11T08:44:33Z</time>
      </trkpt>
      <trkpt lat="42.9034520" lon="-5.4687770">
        <ele>1433.0</ele>
        <time>2022-06-11T08:44:35Z</time>
      </trkpt>
      <trkpt lat="42.9034060" lon="-5.4687320">
        <ele>1432.6</ele>
        <time>2022-06-11T08:44:37Z</time>
      </trkpt>
      <trkpt lat="42.9033810" lon="-5.4687090">
        <ele>1432.4</ele>
        <time>2022-06-11T08:44:38Z</time>
      </trkpt>
      <trkpt lat="42.9032750" lon="-5.4686350">
        <ele>1431.4</ele>
        <time>2022-06-11T08:44:43Z</time>
      </trkpt>
      <trkpt lat="42.9032120" lon="-5.4686170">
        <ele>1431.4</ele>
        <time>2022-06-11T08:44:46Z</time>
      </trkpt>
      <trkpt lat="42.9031590" lon="-5.4686090">
        <ele>1430.8</ele>
        <time>2022-06-11T08:44:48Z</time>
      </trkpt>
      <trkpt lat="42.9030140" lon="-5.4686290">
        <ele>1429.6</ele>
        <time>2022-06-11T08:44:53Z</time>
      </trkpt>
      <trkpt lat="42.9029890" lon="-5.4686420">
        <ele>1429.2</ele>
        <time>2022-06-11T08:44:54Z</time>
      </trkpt>
      <trkpt lat="42.9028810" lon="-5.4687180">
        <ele>1428.4</ele>
        <time>2022-06-11T08:44:58Z</time>
      </trkpt>
      <trkpt lat="42.9028000" lon="-5.4687660">
        <ele>1427.6</ele>
        <time>2022-06-11T08:45:01Z</time>
      </trkpt>
      <trkpt lat="42.9027690" lon="-5.4687810">
        <ele>1427.2</ele>
        <time>2022-06-11T08:45:02Z</time>
      </trkpt>
      <trkpt lat="42.9026590" lon="-5.4688010">
        <ele>1425.8</ele>
        <time>2022-06-11T08:45:06Z</time>
      </trkpt>
      <trkpt lat="42.9026060" lon="-5.4688150">
        <ele>1425.0</ele>
        <time>2022-06-11T08:45:08Z</time>
      </trkpt>
      <trkpt lat="42.9025810" lon="-5.4688240">
        <ele>1424.4</ele>
        <time>2022-06-11T08:45:09Z</time>
      </trkpt>
      <trkpt lat="42.9025270" lon="-5.4688330">
        <ele>1423.2</ele>
        <time>2022-06-11T08:45:11Z</time>
      </trkpt>
      <trkpt lat="42.9024790" lon="-5.4688280">
        <ele>1421.8</ele>
        <time>2022-06-11T08:45:13Z</time>
      </trkpt>
      <trkpt lat="42.9024370" lon="-5.4688210">
        <ele>1421.0</ele>
        <time>2022-06-11T08:45:15Z</time>
      </trkpt>
      <trkpt lat="42.9024110" lon="-5.4688150">
        <ele>1420.6</ele>
        <time>2022-06-11T08:45:16Z</time>
      </trkpt>
      <trkpt lat="42.9023320" lon="-5.4687870">
        <ele>1419.2</ele>
        <time>2022-06-11T08:45:19Z</time>
      </trkpt>
      <trkpt lat="42.9023070" lon="-5.4687680">
        <ele>1418.8</ele>
        <time>2022-06-11T08:45:20Z</time>
      </trkpt>
      <trkpt lat="42.9022580" lon="-5.4687250">
        <ele>1418.2</ele>
        <time>2022-06-11T08:45:22Z</time>
      </trkpt>
      <trkpt lat="42.9021900" lon="-5.4686430">
        <ele>1417.2</ele>
        <time>2022-06-11T08:45:25Z</time>
      </trkpt>
      <trkpt lat="42.9021630" lon="-5.4686180">
        <ele>1416.8</ele>
        <time>2022-06-11T08:45:26Z</time>
      </trkpt>
      <trkpt lat="42.9021370" lon="-5.4685940">
        <ele>1416.6</ele>
        <time>2022-06-11T08:45:27Z</time>
      </trkpt>
      <trkpt lat="42.9020490" lon="-5.4685340">
        <ele>1415.4</ele>
        <time>2022-06-11T08:45:30Z</time>
      </trkpt>
      <trkpt lat="42.9019910" lon="-5.4684900">
        <ele>1414.8</ele>
        <time>2022-06-11T08:45:32Z</time>
      </trkpt>
      <trkpt lat="42.9019640" lon="-5.4684690">
        <ele>1414.4</ele>
        <time>2022-06-11T08:45:33Z</time>
      </trkpt>
      <trkpt lat="42.9019390" lon="-5.4684520">
        <ele>1414.6</ele>
        <time>2022-06-11T08:45:34Z</time>
      </trkpt>
      <trkpt lat="42.9018320" lon="-5.4683930">
        <ele>1413.8</ele>
        <time>2022-06-11T08:45:38Z</time>
      </trkpt>
      <trkpt lat="42.9017500" lon="-5.4683550">
        <ele>1413.0</ele>
        <time>2022-06-11T08:45:41Z</time>
      </trkpt>
      <trkpt lat="42.9016220" lon="-5.4682830">
        <ele>1412.2</ele>
        <time>2022-06-11T08:45:46Z</time>
      </trkpt>
      <trkpt lat="42.9015450" lon="-5.4682540">
        <ele>1411.8</ele>
        <time>2022-06-11T08:45:49Z</time>
      </trkpt>
      <trkpt lat="42.9014170" lon="-5.4681700">
        <ele>1410.6</ele>
        <time>2022-06-11T08:45:54Z</time>
      </trkpt>
      <trkpt lat="42.9013120" lon="-5.4680470">
        <ele>1409.6</ele>
        <time>2022-06-11T08:45:59Z</time>
      </trkpt>
      <trkpt lat="42.9012730" lon="-5.4680280">
        <ele>1409.6</ele>
        <time>2022-06-11T08:46:01Z</time>
      </trkpt>
      <trkpt lat="42.9012490" lon="-5.4680280">
        <ele>1409.6</ele>
        <time>2022-06-11T08:46:02Z</time>
      </trkpt>
      <trkpt lat="42.9010990" lon="-5.4679930">
        <ele>1408.8</ele>
        <time>2022-06-11T08:46:09Z</time>
      </trkpt>
      <trkpt lat="42.9010780" lon="-5.4679850">
        <ele>1408.6</ele>
        <time>2022-06-11T08:46:10Z</time>
      </trkpt>
      <trkpt lat="42.9010500" lon="-5.4679760">
        <ele>1408.6</ele>
        <time>2022-06-11T08:46:12Z</time>
      </trkpt>
      <trkpt lat="42.9010250" lon="-5.4679620">
        <ele>1408.2</ele>
        <time>2022-06-11T08:46:14Z</time>
      </trkpt>
      <trkpt lat="42.9009920" lon="-5.4679430">
        <ele>1408.2</ele>
        <time>2022-06-11T08:46:15Z</time>
      </trkpt>
      <trkpt lat="42.9008830" lon="-5.4678770">
        <ele>1407.8</ele>
        <time>2022-06-11T08:46:18Z</time>
      </trkpt>
      <trkpt lat="42.9008500" lon="-5.4678570">
        <ele>1407.6</ele>
        <time>2022-06-11T08:46:19Z</time>
      </trkpt>
      <trkpt lat="42.9007120" lon="-5.4678070">
        <ele>1406.8</ele>
        <time>2022-06-11T08:46:24Z</time>
      </trkpt>
      <trkpt lat="42.9006870" lon="-5.4677830">
        <ele>1406.4</ele>
        <time>2022-06-11T08:46:25Z</time>
      </trkpt>
      <trkpt lat="42.9005380" lon="-5.4677050">
        <ele>1405.6</ele>
        <time>2022-06-11T08:46:30Z</time>
      </trkpt>
      <trkpt lat="42.9005080" lon="-5.4676990">
        <ele>1405.2</ele>
        <time>2022-06-11T08:46:31Z</time>
      </trkpt>
      <trkpt lat="42.9004000" lon="-5.4676640">
        <ele>1404.2</ele>
        <time>2022-06-11T08:46:35Z</time>
      </trkpt>
      <trkpt lat="42.9003720" lon="-5.4676420">
        <ele>1403.8</ele>
        <time>2022-06-11T08:46:36Z</time>
      </trkpt>
      <trkpt lat="42.9002940" lon="-5.4676270">
        <ele>1403.2</ele>
        <time>2022-06-11T08:46:39Z</time>
      </trkpt>
      <trkpt lat="42.9002690" lon="-5.4676400">
        <ele>1402.8</ele>
        <time>2022-06-11T08:46:40Z</time>
      </trkpt>
      <trkpt lat="42.9002190" lon="-5.4676520">
        <ele>1401.8</ele>
        <time>2022-06-11T08:46:42Z</time>
      </trkpt>
      <trkpt lat="42.9001900" lon="-5.4676410">
        <ele>1401.0</ele>
        <time>2022-06-11T08:46:43Z</time>
      </trkpt>
      <trkpt lat="42.9001590" lon="-5.4676310">
        <ele>1400.4</ele>
        <time>2022-06-11T08:46:44Z</time>
      </trkpt>
      <trkpt lat="42.9001340" lon="-5.4676190">
        <ele>1400.2</ele>
        <time>2022-06-11T08:46:45Z</time>
      </trkpt>
      <trkpt lat="42.9000830" lon="-5.4675960">
        <ele>1399.6</ele>
        <time>2022-06-11T08:46:47Z</time>
      </trkpt>
      <trkpt lat="42.9000570" lon="-5.4675870">
        <ele>1399.4</ele>
        <time>2022-06-11T08:46:48Z</time>
      </trkpt>
      <trkpt lat="42.9000050" lon="-5.4675720">
        <ele>1399.2</ele>
        <time>2022-06-11T08:46:50Z</time>
      </trkpt>
      <trkpt lat="42.8999520" lon="-5.4675620">
        <ele>1398.6</ele>
        <time>2022-06-11T08:46:52Z</time>
      </trkpt>
      <trkpt lat="42.8998940" lon="-5.4675460">
        <ele>1398.2</ele>
        <time>2022-06-11T08:46:54Z</time>
      </trkpt>
      <trkpt lat="42.8998680" lon="-5.4675340">
        <ele>1397.8</ele>
        <time>2022-06-11T08:46:55Z</time>
      </trkpt>
      <trkpt lat="42.8997890" lon="-5.4674960">
        <ele>1397.6</ele>
        <time>2022-06-11T08:46:58Z</time>
      </trkpt>
      <trkpt lat="42.8996910" lon="-5.4674670">
        <ele>1396.8</ele>
        <time>2022-06-11T08:47:02Z</time>
      </trkpt>
      <trkpt lat="42.8996020" lon="-5.4674590">
        <ele>1395.6</ele>
        <time>2022-06-11T08:47:05Z</time>
      </trkpt>
      <trkpt lat="42.8995740" lon="-5.4674520">
        <ele>1395.4</ele>
        <time>2022-06-11T08:47:06Z</time>
      </trkpt>
      <trkpt lat="42.8994600" lon="-5.4674380">
        <ele>1394.4</ele>
        <time>2022-06-11T08:47:10Z</time>
      </trkpt>
      <trkpt lat="42.8994030" lon="-5.4674270">
        <ele>1394.2</ele>
        <time>2022-06-11T08:47:12Z</time>
      </trkpt>
      <trkpt lat="42.8992060" lon="-5.4673510">
        <ele>1393.6</ele>
        <time>2022-06-11T08:47:20Z</time>
      </trkpt>
      <trkpt lat="42.8991830" lon="-5.4673350">
        <ele>1393.4</ele>
        <time>2022-06-11T08:47:21Z</time>
      </trkpt>
      <trkpt lat="42.8990540" lon="-5.4671890">
        <ele>1392.6</ele>
        <time>2022-06-11T08:47:27Z</time>
      </trkpt>
      <trkpt lat="42.8990340" lon="-5.4671640">
        <ele>1392.4</ele>
        <time>2022-06-11T08:47:28Z</time>
      </trkpt>
      <trkpt lat="42.8989000" lon="-5.4670310">
        <ele>1391.4</ele>
        <time>2022-06-11T08:47:34Z</time>
      </trkpt>
      <trkpt lat="42.8988320" lon="-5.4668970">
        <ele>1390.2</ele>
        <time>2022-06-11T08:47:38Z</time>
      </trkpt>
      <trkpt lat="42.8987740" lon="-5.4668380">
        <ele>1390.0</ele>
        <time>2022-06-11T08:47:41Z</time>
      </trkpt>
      <trkpt lat="42.8987090" lon="-5.4667800">
        <ele>1389.2</ele>
        <time>2022-06-11T08:47:44Z</time>
      </trkpt>
      <trkpt lat="42.8986670" lon="-5.4667280">
        <ele>1388.4</ele>
        <time>2022-06-11T08:47:46Z</time>
      </trkpt>
      <trkpt lat="42.8986300" lon="-5.4666740">
        <ele>1387.8</ele>
        <time>2022-06-11T08:47:48Z</time>
      </trkpt>
      <trkpt lat="42.8985500" lon="-5.4666040">
        <ele>1386.6</ele>
        <time>2022-06-11T08:47:52Z</time>
      </trkpt>
      <trkpt lat="42.8984990" lon="-5.4665390">
        <ele>1385.4</ele>
        <time>2022-06-11T08:47:55Z</time>
      </trkpt>
      <trkpt lat="42.8984650" lon="-5.4664910">
        <ele>1384.4</ele>
        <time>2022-06-11T08:47:57Z</time>
      </trkpt>
      <trkpt lat="42.8984140" lon="-5.4664030">
        <ele>1382.8</ele>
        <time>2022-06-11T08:48:00Z</time>
      </trkpt>
      <trkpt lat="42.8984030" lon="-5.4663690">
        <ele>1382.4</ele>
        <time>2022-06-11T08:48:01Z</time>
      </trkpt>
      <trkpt lat="42.8983730" lon="-5.4662980">
        <ele>1381.2</ele>
        <time>2022-06-11T08:48:03Z</time>
      </trkpt>
      <trkpt lat="42.8983270" lon="-5.4662000">
        <ele>1380.2</ele>
        <time>2022-06-11T08:48:06Z</time>
      </trkpt>
      <trkpt lat="42.8983140" lon="-5.4661730">
        <ele>1380.0</ele>
        <time>2022-06-11T08:48:07Z</time>
      </trkpt>
      <trkpt lat="42.8982670" lon="-5.4660960">
        <ele>1379.2</ele>
        <time>2022-06-11T08:48:10Z</time>
      </trkpt>
      <trkpt lat="42.8982530" lon="-5.4660640">
        <ele>1379.0</ele>
        <time>2022-06-11T08:48:11Z</time>
      </trkpt>
      <trkpt lat="42.8982010" lon="-5.4659610">
        <ele>1378.0</ele>
        <time>2022-06-11T08:48:14Z</time>
      </trkpt>
      <trkpt lat="42.8981780" lon="-5.4659330">
        <ele>1377.8</ele>
        <time>2022-06-11T08:48:15Z</time>
      </trkpt>
      <trkpt lat="42.8980790" lon="-5.4658440">
        <ele>1376.8</ele>
        <time>2022-06-11T08:48:19Z</time>
      </trkpt>
      <trkpt lat="42.8980250" lon="-5.4658080">
        <ele>1376.6</ele>
        <time>2022-06-11T08:48:21Z</time>
      </trkpt>
      <trkpt lat="42.8979110" lon="-5.4657560">
        <ele>1375.8</ele>
        <time>2022-06-11T08:48:26Z</time>
      </trkpt>
      <trkpt lat="42.8978740" lon="-5.4657440">
        <ele>1375.2</ele>
        <time>2022-06-11T08:48:28Z</time>
      </trkpt>
      <trkpt lat="42.8978070" lon="-5.4657180">
        <ele>1374.4</ele>
        <time>2022-06-11T08:48:31Z</time>
      </trkpt>
      <trkpt lat="42.8977460" lon="-5.4656770">
        <ele>1373.2</ele>
        <time>2022-06-11T08:48:34Z</time>
      </trkpt>
      <trkpt lat="42.8977290" lon="-5.4656630">
        <ele>1373.0</ele>
        <time>2022-06-11T08:48:35Z</time>
      </trkpt>
      <trkpt lat="42.8976930" lon="-5.4656510">
        <ele>1372.0</ele>
        <time>2022-06-11T08:48:37Z</time>
      </trkpt>
      <trkpt lat="42.8976350" lon="-5.4656230">
        <ele>1370.6</ele>
        <time>2022-06-11T08:48:40Z</time>
      </trkpt>
      <trkpt lat="42.8975850" lon="-5.4656040">
        <ele>1369.6</ele>
        <time>2022-06-11T08:48:42Z</time>
      </trkpt>
      <trkpt lat="42.8975260" lon="-5.4655720">
        <ele>1368.2</ele>
        <time>2022-06-11T08:48:44Z</time>
      </trkpt>
      <trkpt lat="42.8974510" lon="-5.4655210">
        <ele>1367.2</ele>
        <time>2022-06-11T08:48:47Z</time>
      </trkpt>
      <trkpt lat="42.8974300" lon="-5.4654980">
        <ele>1367.0</ele>
        <time>2022-06-11T08:48:48Z</time>
      </trkpt>
      <trkpt lat="42.8974130" lon="-5.4654690">
        <ele>1366.8</ele>
        <time>2022-06-11T08:48:49Z</time>
      </trkpt>
      <trkpt lat="42.8973760" lon="-5.4654140">
        <ele>1366.2</ele>
        <time>2022-06-11T08:48:51Z</time>
      </trkpt>
      <trkpt lat="42.8972980" lon="-5.4653170">
        <ele>1365.0</ele>
        <time>2022-06-11T08:48:55Z</time>
      </trkpt>
      <trkpt lat="42.8972180" lon="-5.4652120">
        <ele>1363.8</ele>
        <time>2022-06-11T08:48:59Z</time>
      </trkpt>
      <trkpt lat="42.8971280" lon="-5.4651170">
        <ele>1362.8</ele>
        <time>2022-06-11T08:49:03Z</time>
      </trkpt>
      <trkpt lat="42.8971040" lon="-5.4651000">
        <ele>1362.6</ele>
        <time>2022-06-11T08:49:04Z</time>
      </trkpt>
      <trkpt lat="42.8970220" lon="-5.4650620">
        <ele>1362.2</ele>
        <time>2022-06-11T08:49:08Z</time>
      </trkpt>
      <trkpt lat="42.8970010" lon="-5.4650660">
        <ele>1361.8</ele>
        <time>2022-06-11T08:49:09Z</time>
      </trkpt>
      <trkpt lat="42.8969780" lon="-5.4650670">
        <ele>1361.8</ele>
        <time>2022-06-11T08:49:10Z</time>
      </trkpt>
      <trkpt lat="42.8968800" lon="-5.4650550">
        <ele>1360.6</ele>
        <time>2022-06-11T08:49:14Z</time>
      </trkpt>
      <trkpt lat="42.8968590" lon="-5.4650470">
        <ele>1360.2</ele>
        <time>2022-06-11T08:49:15Z</time>
      </trkpt>
      <trkpt lat="42.8967100" lon="-5.4649540">
        <ele>1359.6</ele>
        <time>2022-06-11T08:49:21Z</time>
      </trkpt>
      <trkpt lat="42.8966120" lon="-5.4648910">
        <ele>1358.4</ele>
        <time>2022-06-11T08:49:25Z</time>
      </trkpt>
      <trkpt lat="42.8965510" lon="-5.4648750">
        <ele>1358.0</ele>
        <time>2022-06-11T08:49:27Z</time>
      </trkpt>
      <trkpt lat="42.8965260" lon="-5.4648600">
        <ele>1357.4</ele>
        <time>2022-06-11T08:49:28Z</time>
      </trkpt>
      <trkpt lat="42.8964510" lon="-5.4648020">
        <ele>1356.2</ele>
        <time>2022-06-11T08:49:31Z</time>
      </trkpt>
      <trkpt lat="42.8964300" lon="-5.4647860">
        <ele>1355.8</ele>
        <time>2022-06-11T08:49:32Z</time>
      </trkpt>
      <trkpt lat="42.8963830" lon="-5.4647510">
        <ele>1355.4</ele>
        <time>2022-06-11T08:49:34Z</time>
      </trkpt>
      <trkpt lat="42.8963590" lon="-5.4647280">
        <ele>1355.2</ele>
        <time>2022-06-11T08:49:35Z</time>
      </trkpt>
      <trkpt lat="42.8963120" lon="-5.4646830">
        <ele>1354.2</ele>
        <time>2022-06-11T08:49:37Z</time>
      </trkpt>
      <trkpt lat="42.8962330" lon="-5.4646280">
        <ele>1353.0</ele>
        <time>2022-06-11T08:49:40Z</time>
      </trkpt>
      <trkpt lat="42.8961840" lon="-5.4646000">
        <ele>1352.2</ele>
        <time>2022-06-11T08:49:42Z</time>
      </trkpt>
      <trkpt lat="42.8961600" lon="-5.4645850">
        <ele>1351.8</ele>
        <time>2022-06-11T08:49:43Z</time>
      </trkpt>
      <trkpt lat="42.8960680" lon="-5.4645640">
        <ele>1350.6</ele>
        <time>2022-06-11T08:49:47Z</time>
      </trkpt>
      <trkpt lat="42.8960430" lon="-5.4645510">
        <ele>1350.4</ele>
        <time>2022-06-11T08:49:48Z</time>
      </trkpt>
      <trkpt lat="42.8959910" lon="-5.4645120">
        <ele>1349.0</ele>
        <time>2022-06-11T08:49:50Z</time>
      </trkpt>
      <trkpt lat="42.8959450" lon="-5.4644850">
        <ele>1347.8</ele>
        <time>2022-06-11T08:49:52Z</time>
      </trkpt>
      <trkpt lat="42.8958790" lon="-5.4644160">
        <ele>1346.6</ele>
        <time>2022-06-11T08:49:55Z</time>
      </trkpt>
      <trkpt lat="42.8957850" lon="-5.4642580">
        <ele>1345.4</ele>
        <time>2022-06-11T08:50:00Z</time>
      </trkpt>
      <trkpt lat="42.8957670" lon="-5.4641880">
        <ele>1345.0</ele>
        <time>2022-06-11T08:50:02Z</time>
      </trkpt>
      <trkpt lat="42.8957030" lon="-5.4640850">
        <ele>1344.4</ele>
        <time>2022-06-11T08:50:06Z</time>
      </trkpt>
      <trkpt lat="42.8956630" lon="-5.4640320">
        <ele>1343.8</ele>
        <time>2022-06-11T08:50:08Z</time>
      </trkpt>
      <trkpt lat="42.8956230" lon="-5.4639910">
        <ele>1343.0</ele>
        <time>2022-06-11T08:50:10Z</time>
      </trkpt>
      <trkpt lat="42.8955410" lon="-5.4639310">
        <ele>1341.8</ele>
        <time>2022-06-11T08:50:13Z</time>
      </trkpt>
      <trkpt lat="42.8954890" lon="-5.4638820">
        <ele>1340.6</ele>
        <time>2022-06-11T08:50:15Z</time>
      </trkpt>
      <trkpt lat="42.8954690" lon="-5.4638540">
        <ele>1340.2</ele>
        <time>2022-06-11T08:50:16Z</time>
      </trkpt>
      <trkpt lat="42.8954050" lon="-5.4637590">
        <ele>1339.8</ele>
        <time>2022-06-11T08:50:20Z</time>
      </trkpt>
      <trkpt lat="42.8953870" lon="-5.4637560">
        <ele>1339.6</ele>
        <time>2022-06-11T08:50:21Z</time>
      </trkpt>
      <trkpt lat="42.8953680" lon="-5.4637620">
        <ele>1339.4</ele>
        <time>2022-06-11T08:50:22Z</time>
      </trkpt>
      <trkpt lat="42.8953310" lon="-5.4637750">
        <ele>1339.2</ele>
        <time>2022-06-11T08:50:24Z</time>
      </trkpt>
      <trkpt lat="42.8951850" lon="-5.4638230">
        <ele>1339.4</ele>
        <time>2022-06-11T08:50:30Z</time>
      </trkpt>
      <trkpt lat="42.8950230" lon="-5.4638410">
        <ele>1339.4</ele>
        <time>2022-06-11T08:50:36Z</time>
      </trkpt>
      <trkpt lat="42.8948850" lon="-5.4637640">
        <ele>1340.0</ele>
        <time>2022-06-11T08:50:41Z</time>
      </trkpt>
      <trkpt lat="42.8948410" lon="-5.4637320">
        <ele>1340.4</ele>
        <time>2022-06-11T08:50:43Z</time>
      </trkpt>
      <trkpt lat="42.8946810" lon="-5.4636550">
        <ele>1340.6</ele>
        <time>2022-06-11T08:50:49Z</time>
      </trkpt>
      <trkpt lat="42.8946510" lon="-5.4636380">
        <ele>1340.4</ele>
        <time>2022-06-11T08:50:50Z</time>
      </trkpt>
      <trkpt lat="42.8944840" lon="-5.4634840">
        <ele>1339.4</ele>
        <time>2022-06-11T08:50:57Z</time>
      </trkpt>
      <trkpt lat="42.8944290" lon="-5.4634490">
        <ele>1340.8</ele>
        <time>2022-06-11T08:50:59Z</time>
      </trkpt>
      <trkpt lat="42.8943380" lon="-5.4633700">
        <ele>1340.8</ele>
        <time>2022-06-11T08:51:03Z</time>
      </trkpt>
      <trkpt lat="42.8942600" lon="-5.4633160">
        <ele>1340.0</ele>
        <time>2022-06-11T08:51:06Z</time>
      </trkpt>
      <trkpt lat="42.8942290" lon="-5.4633090">
        <ele>1339.8</ele>
        <time>2022-06-11T08:51:07Z</time>
      </trkpt>
      <trkpt lat="42.8942020" lon="-5.4633000">
        <ele>1339.2</ele>
        <time>2022-06-11T08:51:08Z</time>
      </trkpt>
      <trkpt lat="42.8941770" lon="-5.4632900">
        <ele>1338.6</ele>
        <time>2022-06-11T08:51:09Z</time>
      </trkpt>
      <trkpt lat="42.8941530" lon="-5.4632760">
        <ele>1338.2</ele>
        <time>2022-06-11T08:51:10Z</time>
      </trkpt>
      <trkpt lat="42.8941050" lon="-5.4632410">
        <ele>1337.4</ele>
        <time>2022-06-11T08:51:12Z</time>
      </trkpt>
      <trkpt lat="42.8940580" lon="-5.4631970">
        <ele>1336.4</ele>
        <time>2022-06-11T08:51:14Z</time>
      </trkpt>
      <trkpt lat="42.8940330" lon="-5.4631660">
        <ele>1336.0</ele>
        <time>2022-06-11T08:51:15Z</time>
      </trkpt>
      <trkpt lat="42.8939650" lon="-5.4630780">
        <ele>1335.0</ele>
        <time>2022-06-11T08:51:18Z</time>
      </trkpt>
      <trkpt lat="42.8938290" lon="-5.4629030">
        <ele>1333.8</ele>
        <time>2022-06-11T08:51:24Z</time>
      </trkpt>
      <trkpt lat="42.8937770" lon="-5.4628560">
        <ele>1333.4</ele>
        <time>2022-06-11T08:51:26Z</time>
      </trkpt>
      <trkpt lat="42.8936840" lon="-5.4627480">
        <ele>1332.8</ele>
        <time>2022-06-11T08:51:31Z</time>
      </trkpt>
      <trkpt lat="42.8936650" lon="-5.4627340">
        <ele>1332.6</ele>
        <time>2022-06-11T08:51:32Z</time>
      </trkpt>
      <trkpt lat="42.8936290" lon="-5.4626950">
        <ele>1331.8</ele>
        <time>2022-06-11T08:51:34Z</time>
      </trkpt>
      <trkpt lat="42.8935760" lon="-5.4626520">
        <ele>1330.6</ele>
        <time>2022-06-11T08:51:37Z</time>
      </trkpt>
      <trkpt lat="42.8935530" lon="-5.4626460">
        <ele>1330.2</ele>
        <time>2022-06-11T08:51:38Z</time>
      </trkpt>
      <trkpt lat="42.8935040" lon="-5.4626200">
        <ele>1329.2</ele>
        <time>2022-06-11T08:51:40Z</time>
      </trkpt>
      <trkpt lat="42.8934270" lon="-5.4625590">
        <ele>1328.2</ele>
        <time>2022-06-11T08:51:43Z</time>
      </trkpt>
      <trkpt lat="42.8933540" lon="-5.4625120">
        <ele>1327.0</ele>
        <time>2022-06-11T08:51:46Z</time>
      </trkpt>
      <trkpt lat="42.8932750" lon="-5.4624580">
        <ele>1326.4</ele>
        <time>2022-06-11T08:51:49Z</time>
      </trkpt>
      <trkpt lat="42.8932240" lon="-5.4624200">
        <ele>1325.6</ele>
        <time>2022-06-11T08:51:51Z</time>
      </trkpt>
      <trkpt lat="42.8931640" lon="-5.4623940">
        <ele>1324.6</ele>
        <time>2022-06-11T08:51:53Z</time>
      </trkpt>
      <trkpt lat="42.8931040" lon="-5.4623570">
        <ele>1323.8</ele>
        <time>2022-06-11T08:51:55Z</time>
      </trkpt>
      <trkpt lat="42.8930530" lon="-5.4623220">
        <ele>1323.4</ele>
        <time>2022-06-11T08:51:57Z</time>
      </trkpt>
      <trkpt lat="42.8929800" lon="-5.4622640">
        <ele>1322.6</ele>
        <time>2022-06-11T08:52:00Z</time>
      </trkpt>
      <trkpt lat="42.8929220" lon="-5.4622460">
        <ele>1322.2</ele>
        <time>2022-06-11T08:52:02Z</time>
      </trkpt>
      <trkpt lat="42.8928940" lon="-5.4622470">
        <ele>1321.8</ele>
        <time>2022-06-11T08:52:03Z</time>
      </trkpt>
      <trkpt lat="42.8927880" lon="-5.4622650">
        <ele>1321.0</ele>
        <time>2022-06-11T08:52:07Z</time>
      </trkpt>
      <trkpt lat="42.8927600" lon="-5.4622580">
        <ele>1320.6</ele>
        <time>2022-06-11T08:52:08Z</time>
      </trkpt>
      <trkpt lat="42.8926750" lon="-5.4622380">
        <ele>1319.8</ele>
        <time>2022-06-11T08:52:11Z</time>
      </trkpt>
      <trkpt lat="42.8925630" lon="-5.4622430">
        <ele>1319.2</ele>
        <time>2022-06-11T08:52:15Z</time>
      </trkpt>
      <trkpt lat="42.8925380" lon="-5.4622450">
        <ele>1319.4</ele>
        <time>2022-06-11T08:52:16Z</time>
      </trkpt>
      <trkpt lat="42.8924870" lon="-5.4622360">
        <ele>1319.4</ele>
        <time>2022-06-11T08:52:18Z</time>
      </trkpt>
      <trkpt lat="42.8924220" lon="-5.4621890">
        <ele>1319.4</ele>
        <time>2022-06-11T08:52:21Z</time>
      </trkpt>
      <trkpt lat="42.8924060" lon="-5.4621720">
        <ele>1319.4</ele>
        <time>2022-06-11T08:52:22Z</time>
      </trkpt>
      <trkpt lat="42.8923760" lon="-5.4621400">
        <ele>1319.4</ele>
        <time>2022-06-11T08:52:24Z</time>
      </trkpt>
      <trkpt lat="42.8922900" lon="-5.4620880">
        <ele>1319.6</ele>
        <time>2022-06-11T08:52:28Z</time>
      </trkpt>
      <trkpt lat="42.8921870" lon="-5.4620280">
        <ele>1319.6</ele>
        <time>2022-06-11T08:52:32Z</time>
      </trkpt>
      <trkpt lat="42.8921140" lon="-5.4619910">
        <ele>1319.6</ele>
        <time>2022-06-11T08:52:35Z</time>
      </trkpt>
      <trkpt lat="42.8920590" lon="-5.4619470">
        <ele>1319.4</ele>
        <time>2022-06-11T08:52:38Z</time>
      </trkpt>
      <trkpt lat="42.8919870" lon="-5.4618890">
        <ele>1319.2</ele>
        <time>2022-06-11T08:52:41Z</time>
      </trkpt>
      <trkpt lat="42.8918630" lon="-5.4618600">
        <ele>1318.8</ele>
        <time>2022-06-11T08:52:45Z</time>
      </trkpt>
      <trkpt lat="42.8917780" lon="-5.4618500">
        <ele>1318.6</ele>
        <time>2022-06-11T08:52:48Z</time>
      </trkpt>
      <trkpt lat="42.8916130" lon="-5.4619090">
        <ele>1318.4</ele>
        <time>2022-06-11T08:52:54Z</time>
      </trkpt>
      <trkpt lat="42.8914560" lon="-5.4619220">
        <ele>1318.0</ele>
        <time>2022-06-11T08:53:00Z</time>
      </trkpt>
      <trkpt lat="42.8914360" lon="-5.4619260">
        <ele>1317.8</ele>
        <time>2022-06-11T08:53:01Z</time>
      </trkpt>
      <trkpt lat="42.8913580" lon="-5.4619300">
        <ele>1317.8</ele>
        <time>2022-06-11T08:53:04Z</time>
      </trkpt>
      <trkpt lat="42.8912750" lon="-5.4619300">
        <ele>1317.4</ele>
        <time>2022-06-11T08:53:07Z</time>
      </trkpt>
      <trkpt lat="42.8911970" lon="-5.4619300">
        <ele>1317.2</ele>
        <time>2022-06-11T08:53:10Z</time>
      </trkpt>
      <trkpt lat="42.8911190" lon="-5.4619240">
        <ele>1317.0</ele>
        <time>2022-06-11T08:53:13Z</time>
      </trkpt>
      <trkpt lat="42.8910970" lon="-5.4619180">
        <ele>1317.0</ele>
        <time>2022-06-11T08:53:14Z</time>
      </trkpt>
      <trkpt lat="42.8910520" lon="-5.4619010">
        <ele>1316.6</ele>
        <time>2022-06-11T08:53:16Z</time>
      </trkpt>
      <trkpt lat="42.8910000" lon="-5.4618660">
        <ele>1316.6</ele>
        <time>2022-06-11T08:53:18Z</time>
      </trkpt>
      <trkpt lat="42.8908800" lon="-5.4617860">
        <ele>1315.8</ele>
        <time>2022-06-11T08:53:22Z</time>
      </trkpt>
      <trkpt lat="42.8908150" lon="-5.4617400">
        <ele>1315.6</ele>
        <time>2022-06-11T08:53:24Z</time>
      </trkpt>
      <trkpt lat="42.8907240" lon="-5.4616690">
        <ele>1315.2</ele>
        <time>2022-06-11T08:53:28Z</time>
      </trkpt>
      <trkpt lat="42.8905780" lon="-5.4615440">
        <ele>1315.2</ele>
        <time>2022-06-11T08:53:34Z</time>
      </trkpt>
      <trkpt lat="42.8905540" lon="-5.4614900">
        <ele>1314.8</ele>
        <time>2022-06-11T08:53:36Z</time>
      </trkpt>
      <trkpt lat="42.8905180" lon="-5.4614260">
        <ele>1314.4</ele>
        <time>2022-06-11T08:53:38Z</time>
      </trkpt>
      <trkpt lat="42.8904490" lon="-5.4613110">
        <ele>1313.2</ele>
        <time>2022-06-11T08:53:42Z</time>
      </trkpt>
      <trkpt lat="42.8903800" lon="-5.4612200">
        <ele>1312.2</ele>
        <time>2022-06-11T08:53:45Z</time>
      </trkpt>
      <trkpt lat="42.8902940" lon="-5.4610920">
        <ele>1311.0</ele>
        <time>2022-06-11T08:53:50Z</time>
      </trkpt>
      <trkpt lat="42.8902380" lon="-5.4609870">
        <ele>1310.4</ele>
        <time>2022-06-11T08:53:53Z</time>
      </trkpt>
      <trkpt lat="42.8901140" lon="-5.4607540">
        <ele>1310.0</ele>
        <time>2022-06-11T08:53:59Z</time>
      </trkpt>
      <trkpt lat="42.8900950" lon="-5.4607260">
        <ele>1310.0</ele>
        <time>2022-06-11T08:54:00Z</time>
      </trkpt>
      <trkpt lat="42.8900770" lon="-5.4607080">
        <ele>1310.2</ele>
        <time>2022-06-11T08:54:01Z</time>
      </trkpt>
      <trkpt lat="42.8899690" lon="-5.4606000">
        <ele>1310.2</ele>
        <time>2022-06-11T08:54:05Z</time>
      </trkpt>
      <trkpt lat="42.8899340" lon="-5.4605690">
        <ele>1310.0</ele>
        <time>2022-06-11T08:54:07Z</time>
      </trkpt>
      <trkpt lat="42.8899170" lon="-5.4605480">
        <ele>1310.0</ele>
        <time>2022-06-11T08:54:08Z</time>
      </trkpt>
      <trkpt lat="42.8897710" lon="-5.4603820">
        <ele>1310.6</ele>
        <time>2022-06-11T08:54:16Z</time>
      </trkpt>
      <trkpt lat="42.8896510" lon="-5.4602820">
        <ele>1310.8</ele>
        <time>2022-06-11T08:54:22Z</time>
      </trkpt>
      <trkpt lat="42.8895700" lon="-5.4602650">
        <ele>1311.4</ele>
        <time>2022-06-11T08:54:25Z</time>
      </trkpt>
      <trkpt lat="42.8895440" lon="-5.4602580">
        <ele>1311.6</ele>
        <time>2022-06-11T08:54:26Z</time>
      </trkpt>
      <trkpt lat="42.8894510" lon="-5.4602410">
        <ele>1312.0</ele>
        <time>2022-06-11T08:54:29Z</time>
      </trkpt>
      <trkpt lat="42.8892540" lon="-5.4601970">
        <ele>1312.2</ele>
        <time>2022-06-11T08:54:36Z</time>
      </trkpt>
      <trkpt lat="42.8892310" lon="-5.4601850">
        <ele>1312.0</ele>
        <time>2022-06-11T08:54:37Z</time>
      </trkpt>
      <trkpt lat="42.8890500" lon="-5.4601130">
        <ele>1311.8</ele>
        <time>2022-06-11T08:54:44Z</time>
      </trkpt>
      <trkpt lat="42.8890020" lon="-5.4600960">
        <ele>1312.0</ele>
        <time>2022-06-11T08:54:46Z</time>
      </trkpt>
      <trkpt lat="42.8888960" lon="-5.4600310">
        <ele>1312.4</ele>
        <time>2022-06-11T08:54:50Z</time>
      </trkpt>
      <trkpt lat="42.8888010" lon="-5.4599700">
        <ele>1312.6</ele>
        <time>2022-06-11T08:54:54Z</time>
      </trkpt>
      <trkpt lat="42.8887480" lon="-5.4598960">
        <ele>1312.8</ele>
        <time>2022-06-11T08:54:57Z</time>
      </trkpt>
      <trkpt lat="42.8886750" lon="-5.4597990">
        <ele>1313.0</ele>
        <time>2022-06-11T08:55:01Z</time>
      </trkpt>
      <trkpt lat="42.8886330" lon="-5.4597750">
        <ele>1313.6</ele>
        <time>2022-06-11T08:55:03Z</time>
      </trkpt>
      <trkpt lat="42.8885700" lon="-5.4597480">
        <ele>1314.6</ele>
        <time>2022-06-11T08:55:06Z</time>
      </trkpt>
      <trkpt lat="42.8885480" lon="-5.4597410">
        <ele>1315.0</ele>
        <time>2022-06-11T08:55:07Z</time>
      </trkpt>
      <trkpt lat="42.8884990" lon="-5.4597370">
        <ele>1315.2</ele>
        <time>2022-06-11T08:55:09Z</time>
      </trkpt>
      <trkpt lat="42.8883820" lon="-5.4597210">
        <ele>1316.0</ele>
        <time>2022-06-11T08:55:13Z</time>
      </trkpt>
      <trkpt lat="42.8883220" lon="-5.4597040">
        <ele>1316.0</ele>
        <time>2022-06-11T08:55:15Z</time>
      </trkpt>
      <trkpt lat="42.8881570" lon="-5.4595900">
        <ele>1315.8</ele>
        <time>2022-06-11T08:55:22Z</time>
      </trkpt>
      <trkpt lat="42.8881160" lon="-5.4595530">
        <ele>1316.2</ele>
        <time>2022-06-11T08:55:24Z</time>
      </trkpt>
      <trkpt lat="42.8879820" lon="-5.4594500">
        <ele>1317.0</ele>
        <time>2022-06-11T08:55:29Z</time>
      </trkpt>
      <trkpt lat="42.8879220" lon="-5.4594030">
        <ele>1317.8</ele>
        <time>2022-06-11T08:55:32Z</time>
      </trkpt>
      <trkpt lat="42.8878990" lon="-5.4593830">
        <ele>1318.2</ele>
        <time>2022-06-11T08:55:33Z</time>
      </trkpt>
      <trkpt lat="42.8878340" lon="-5.4592980">
        <ele>1319.4</ele>
        <time>2022-06-11T08:55:37Z</time>
      </trkpt>
      <trkpt lat="42.8877740" lon="-5.4592430">
        <ele>1320.6</ele>
        <time>2022-06-11T08:55:40Z</time>
      </trkpt>
      <trkpt lat="42.8876830" lon="-5.4590960">
        <ele>1321.2</ele>
        <time>2022-06-11T08:55:45Z</time>
      </trkpt>
      <trkpt lat="42.8876460" lon="-5.4589770">
        <ele>1321.6</ele>
        <time>2022-06-11T08:55:49Z</time>
      </trkpt>
      <trkpt lat="42.8876020" lon="-5.4588630">
        <ele>1322.6</ele>
        <time>2022-06-11T08:55:53Z</time>
      </trkpt>
      <trkpt lat="42.8875910" lon="-5.4588230">
        <ele>1322.8</ele>
        <time>2022-06-11T08:55:54Z</time>
      </trkpt>
      <trkpt lat="42.8875370" lon="-5.4586210">
        <ele>1323.6</ele>
        <time>2022-06-11T08:56:00Z</time>
      </trkpt>
      <trkpt lat="42.8875070" lon="-5.4585480">
        <ele>1323.8</ele>
        <time>2022-06-11T08:56:03Z</time>
      </trkpt>
      <trkpt lat="42.8874350" lon="-5.4584160">
        <ele>1324.2</ele>
        <time>2022-06-11T08:56:08Z</time>
      </trkpt>
      <trkpt lat="42.8873830" lon="-5.4583450">
        <ele>1324.2</ele>
        <time>2022-06-11T08:56:11Z</time>
      </trkpt>
      <trkpt lat="42.8873380" lon="-5.4582690">
        <ele>1324.4</ele>
        <time>2022-06-11T08:56:15Z</time>
      </trkpt>
      <trkpt lat="42.8873230" lon="-5.4582570">
        <ele>1324.4</ele>
        <time>2022-06-11T08:56:16Z</time>
      </trkpt>
      <trkpt lat="42.8872540" lon="-5.4582140">
        <ele>1324.4</ele>
        <time>2022-06-11T08:56:20Z</time>
      </trkpt>
      <trkpt lat="42.8872250" lon="-5.4581950">
        <ele>1325.4</ele>
        <time>2022-06-11T08:56:22Z</time>
      </trkpt>
      <trkpt lat="42.8871750" lon="-5.4581430">
        <ele>1326.4</ele>
        <time>2022-06-11T08:56:25Z</time>
      </trkpt>
      <trkpt lat="42.8871370" lon="-5.4581000">
        <ele>1327.8</ele>
        <time>2022-06-11T08:56:27Z</time>
      </trkpt>
      <trkpt lat="42.8871270" lon="-5.4580740">
        <ele>1328.6</ele>
        <time>2022-06-11T08:56:28Z</time>
      </trkpt>
      <trkpt lat="42.8871200" lon="-5.4580540">
        <ele>1329.0</ele>
        <time>2022-06-11T08:56:29Z</time>
      </trkpt>
      <trkpt lat="42.8870780" lon="-5.4579970">
        <ele>1330.2</ele>
        <time>2022-06-11T08:56:32Z</time>
      </trkpt>
      <trkpt lat="42.8870560" lon="-5.4579520">
        <ele>1330.6</ele>
        <time>2022-06-11T08:56:34Z</time>
      </trkpt>
      <trkpt lat="42.8870300" lon="-5.4579160">
        <ele>1330.8</ele>
        <time>2022-06-11T08:56:37Z</time>
      </trkpt>
      <trkpt lat="42.8870190" lon="-5.4579060">
        <ele>1331.4</ele>
        <time>2022-06-11T08:56:38Z</time>
      </trkpt>
      <trkpt lat="42.8870100" lon="-5.4578960">
        <ele>1331.4</ele>
        <time>2022-06-11T08:56:39Z</time>
      </trkpt>
      <trkpt lat="42.8869140" lon="-5.4577260">
        <ele>1331.0</ele>
        <time>2022-06-11T08:56:47Z</time>
      </trkpt>
      <trkpt lat="42.8868520" lon="-5.4575580">
        <ele>1330.2</ele>
        <time>2022-06-11T08:56:52Z</time>
      </trkpt>
      <trkpt lat="42.8868420" lon="-5.4575260">
        <ele>1330.2</ele>
        <time>2022-06-11T08:56:53Z</time>
      </trkpt>
      <trkpt lat="42.8868190" lon="-5.4574240">
        <ele>1330.6</ele>
        <time>2022-06-11T08:56:57Z</time>
      </trkpt>
      <trkpt lat="42.8868200" lon="-5.4574070">
        <ele>1330.6</ele>
        <time>2022-06-11T08:56:58Z</time>
      </trkpt>
      <trkpt lat="42.8868210" lon="-5.4573690">
        <ele>1331.4</ele>
        <time>2022-06-11T08:57:02Z</time>
      </trkpt>
      <trkpt lat="42.8868230" lon="-5.4573660">
        <ele>1331.4</ele>
        <time>2022-06-11T08:57:03Z</time>
      </trkpt>
      <trkpt lat="42.8868270" lon="-5.4573650">
        <ele>1331.2</ele>
        <time>2022-06-11T08:57:10Z</time>
      </trkpt>
      <trkpt lat="42.8868010" lon="-5.4573230">
        <ele>1332.6</ele>
        <time>2022-06-11T08:58:21Z</time>
      </trkpt>
      <trkpt lat="42.8868010" lon="-5.4573160">
        <ele>1332.6</ele>
        <time>2022-06-11T08:58:22Z</time>
      </trkpt>
      <trkpt lat="42.8867860" lon="-5.4571990">
        <ele>1331.4</ele>
        <time>2022-06-11T08:58:25Z</time>
      </trkpt>
      <trkpt lat="42.8867880" lon="-5.4570700">
        <ele>1331.0</ele>
        <time>2022-06-11T08:58:28Z</time>
      </trkpt>
      <trkpt lat="42.8867790" lon="-5.4570390">
        <ele>1331.0</ele>
        <time>2022-06-11T08:58:29Z</time>
      </trkpt>
      <trkpt lat="42.8867400" lon="-5.4569500">
        <ele>1331.8</ele>
        <time>2022-06-11T08:58:32Z</time>
      </trkpt>
      <trkpt lat="42.8867050" lon="-5.4568140">
        <ele>1332.6</ele>
        <time>2022-06-11T08:58:37Z</time>
      </trkpt>
      <trkpt lat="42.8867070" lon="-5.4567380">
        <ele>1332.8</ele>
        <time>2022-06-11T08:58:39Z</time>
      </trkpt>
      <trkpt lat="42.8866870" lon="-5.4566040">
        <ele>1333.8</ele>
        <time>2022-06-11T08:58:43Z</time>
      </trkpt>
      <trkpt lat="42.8866720" lon="-5.4565510">
        <ele>1334.0</ele>
        <time>2022-06-11T08:58:45Z</time>
      </trkpt>
      <trkpt lat="42.8866360" lon="-5.4563290">
        <ele>1333.4</ele>
        <time>2022-06-11T08:58:52Z</time>
      </trkpt>
      <trkpt lat="42.8866300" lon="-5.4561310">
        <ele>1333.2</ele>
        <time>2022-06-11T08:58:57Z</time>
      </trkpt>
      <trkpt lat="42.8866170" lon="-5.4559240">
        <ele>1332.8</ele>
        <time>2022-06-11T08:59:02Z</time>
      </trkpt>
      <trkpt lat="42.8866010" lon="-5.4558470">
        <ele>1332.8</ele>
        <time>2022-06-11T08:59:04Z</time>
      </trkpt>
      <trkpt lat="42.8865890" lon="-5.4557980">
        <ele>1332.6</ele>
        <time>2022-06-11T08:59:05Z</time>
      </trkpt>
      <trkpt lat="42.8865620" lon="-5.4557190">
        <ele>1332.4</ele>
        <time>2022-06-11T08:59:07Z</time>
      </trkpt>
      <trkpt lat="42.8864910" lon="-5.4555710">
        <ele>1332.0</ele>
        <time>2022-06-11T08:59:11Z</time>
      </trkpt>
      <trkpt lat="42.8863350" lon="-5.4554100">
        <ele>1331.4</ele>
        <time>2022-06-11T08:59:17Z</time>
      </trkpt>
      <trkpt lat="42.8863140" lon="-5.4553810">
        <ele>1331.4</ele>
        <time>2022-06-11T08:59:18Z</time>
      </trkpt>
      <trkpt lat="42.8861980" lon="-5.4551910">
        <ele>1331.0</ele>
        <time>2022-06-11T08:59:24Z</time>
      </trkpt>
      <trkpt lat="42.8861680" lon="-5.4551210">
        <ele>1330.6</ele>
        <time>2022-06-11T08:59:26Z</time>
      </trkpt>
      <trkpt lat="42.8861470" lon="-5.4550600">
        <ele>1330.6</ele>
        <time>2022-06-11T08:59:28Z</time>
      </trkpt>
      <trkpt lat="42.8861290" lon="-5.4550080">
        <ele>1331.0</ele>
        <time>2022-06-11T08:59:31Z</time>
      </trkpt>
      <trkpt lat="42.8861000" lon="-5.4548770">
        <ele>1330.2</ele>
        <time>2022-06-11T08:59:38Z</time>
      </trkpt>
      <trkpt lat="42.8860940" lon="-5.4548540">
        <ele>1330.0</ele>
        <time>2022-06-11T08:59:39Z</time>
      </trkpt>
      <trkpt lat="42.8860770" lon="-5.4547680">
        <ele>1329.0</ele>
        <time>2022-06-11T08:59:42Z</time>
      </trkpt>
      <trkpt lat="42.8860640" lon="-5.4547010">
        <ele>1327.8</ele>
        <time>2022-06-11T08:59:44Z</time>
      </trkpt>
      <trkpt lat="42.8860440" lon="-5.4546350">
        <ele>1326.4</ele>
        <time>2022-06-11T08:59:47Z</time>
      </trkpt>
      <trkpt lat="42.8860340" lon="-5.4545390">
        <ele>1325.0</ele>
        <time>2022-06-11T08:59:50Z</time>
      </trkpt>
      <trkpt lat="42.8860210" lon="-5.4544410">
        <ele>1323.4</ele>
        <time>2022-06-11T08:59:53Z</time>
      </trkpt>
      <trkpt lat="42.8860080" lon="-5.4543890">
        <ele>1322.2</ele>
        <time>2022-06-11T08:59:55Z</time>
      </trkpt>
      <trkpt lat="42.8859810" lon="-5.4543190">
        <ele>1321.2</ele>
        <time>2022-06-11T08:59:58Z</time>
      </trkpt>
      <trkpt lat="42.8859580" lon="-5.4542530">
        <ele>1319.8</ele>
        <time>2022-06-11T09:00:01Z</time>
      </trkpt>
      <trkpt lat="42.8859550" lon="-5.4541820">
        <ele>1318.6</ele>
        <time>2022-06-11T09:00:04Z</time>
      </trkpt>
      <trkpt lat="42.8859720" lon="-5.4541100">
        <ele>1317.4</ele>
        <time>2022-06-11T09:00:06Z</time>
      </trkpt>
      <trkpt lat="42.8859920" lon="-5.4540130">
        <ele>1316.4</ele>
        <time>2022-06-11T09:00:09Z</time>
      </trkpt>
      <trkpt lat="42.8859910" lon="-5.4539540">
        <ele>1316.0</ele>
        <time>2022-06-11T09:00:11Z</time>
      </trkpt>
      <trkpt lat="42.8859790" lon="-5.4538570">
        <ele>1315.2</ele>
        <time>2022-06-11T09:00:15Z</time>
      </trkpt>
      <trkpt lat="42.8859570" lon="-5.4538000">
        <ele>1314.4</ele>
        <time>2022-06-11T09:00:18Z</time>
      </trkpt>
      <trkpt lat="42.8859430" lon="-5.4537870">
        <ele>1314.2</ele>
        <time>2022-06-11T09:00:19Z</time>
      </trkpt>
      <trkpt lat="42.8859090" lon="-5.4537710">
        <ele>1313.0</ele>
        <time>2022-06-11T09:00:21Z</time>
      </trkpt>
      <trkpt lat="42.8858810" lon="-5.4537310">
        <ele>1312.0</ele>
        <time>2022-06-11T09:00:23Z</time>
      </trkpt>
      <trkpt lat="42.8858670" lon="-5.4537060">
        <ele>1311.8</ele>
        <time>2022-06-11T09:00:24Z</time>
      </trkpt>
      <trkpt lat="42.8858590" lon="-5.4536750">
        <ele>1311.2</ele>
        <time>2022-06-11T09:00:25Z</time>
      </trkpt>
      <trkpt lat="42.8858580" lon="-5.4536460">
        <ele>1310.4</ele>
        <time>2022-06-11T09:00:26Z</time>
      </trkpt>
      <trkpt lat="42.8858350" lon="-5.4535700">
        <ele>1309.4</ele>
        <time>2022-06-11T09:00:28Z</time>
      </trkpt>
      <trkpt lat="42.8858190" lon="-5.4535430">
        <ele>1308.8</ele>
        <time>2022-06-11T09:00:29Z</time>
      </trkpt>
      <trkpt lat="42.8857860" lon="-5.4535050">
        <ele>1308.2</ele>
        <time>2022-06-11T09:00:31Z</time>
      </trkpt>
      <trkpt lat="42.8857140" lon="-5.4534030">
        <ele>1307.2</ele>
        <time>2022-06-11T09:00:35Z</time>
      </trkpt>
      <trkpt lat="42.8857070" lon="-5.4532070">
        <ele>1306.2</ele>
        <time>2022-06-11T09:00:40Z</time>
      </trkpt>
      <trkpt lat="42.8857070" lon="-5.4531730">
        <ele>1306.0</ele>
        <time>2022-06-11T09:00:41Z</time>
      </trkpt>
      <trkpt lat="42.8856880" lon="-5.4531230">
        <ele>1305.8</ele>
        <time>2022-06-11T09:00:45Z</time>
      </trkpt>
      <trkpt lat="42.8856750" lon="-5.4531010">
        <ele>1305.4</ele>
        <time>2022-06-11T09:00:48Z</time>
      </trkpt>
      <trkpt lat="42.8856750" lon="-5.4530930">
        <ele>1305.2</ele>
        <time>2022-06-11T09:00:51Z</time>
      </trkpt>
      <trkpt lat="42.8856740" lon="-5.4530930">
        <ele>1305.0</ele>
        <time>2022-06-11T09:00:52Z</time>
      </trkpt>
      <trkpt lat="42.8856560" lon="-5.4530440">
        <ele>1304.4</ele>
        <time>2022-06-11T09:00:58Z</time>
      </trkpt>
      <trkpt lat="42.8856490" lon="-5.4530250">
        <ele>1304.0</ele>
        <time>2022-06-11T09:01:02Z</time>
      </trkpt>
      <trkpt lat="42.8856470" lon="-5.4530260">
        <ele>1303.6</ele>
        <time>2022-06-11T09:01:04Z</time>
      </trkpt>
      <trkpt lat="42.8856400" lon="-5.4530370">
        <ele>1303.6</ele>
        <time>2022-06-11T09:01:11Z</time>
      </trkpt>
      <trkpt lat="42.8856400" lon="-5.4530370">
        <ele>1303.6</ele>
        <time>2022-06-11T09:01:13Z</time>
      </trkpt>
      <trkpt lat="42.8855970" lon="-5.4530480">
        <ele>1303.2</ele>
        <time>2022-06-11T09:01:27Z</time>
      </trkpt>
      <trkpt lat="42.8854710" lon="-5.4530690">
        <ele>1302.8</ele>
        <time>2022-06-11T09:01:33Z</time>
      </trkpt>
      <trkpt lat="42.8853080" lon="-5.4530940">
        <ele>1302.4</ele>
        <time>2022-06-11T09:01:39Z</time>
      </trkpt>
      <trkpt lat="42.8851860" lon="-5.4530390">
        <ele>1301.8</ele>
        <time>2022-06-11T09:01:44Z</time>
      </trkpt>
      <trkpt lat="42.8851550" lon="-5.4530250">
        <ele>1301.6</ele>
        <time>2022-06-11T09:01:45Z</time>
      </trkpt>
      <trkpt lat="42.8850740" lon="-5.4530130">
        <ele>1300.6</ele>
        <time>2022-06-11T09:01:48Z</time>
      </trkpt>
      <trkpt lat="42.8849850" lon="-5.4530310">
        <ele>1300.0</ele>
        <time>2022-06-11T09:01:51Z</time>
      </trkpt>
      <trkpt lat="42.8849520" lon="-5.4530310">
        <ele>1299.4</ele>
        <time>2022-06-11T09:01:52Z</time>
      </trkpt>
      <trkpt lat="42.8848510" lon="-5.4530220">
        <ele>1298.8</ele>
        <time>2022-06-11T09:01:56Z</time>
      </trkpt>
      <trkpt lat="42.8848360" lon="-5.4530180">
        <ele>1298.8</ele>
        <time>2022-06-11T09:01:57Z</time>
      </trkpt>
      <trkpt lat="42.8848050" lon="-5.4530070">
        <ele>1298.8</ele>
        <time>2022-06-11T09:01:59Z</time>
      </trkpt>
      <trkpt lat="42.8847850" lon="-5.4530060">
        <ele>1298.8</ele>
        <time>2022-06-11T09:02:00Z</time>
      </trkpt>
      <trkpt lat="42.8847500" lon="-5.4529970">
        <ele>1299.4</ele>
        <time>2022-06-11T09:02:03Z</time>
      </trkpt>
      <trkpt lat="42.8847230" lon="-5.4528900">
        <ele>1300.0</ele>
        <time>2022-06-11T09:02:09Z</time>
      </trkpt>
      <trkpt lat="42.8846990" lon="-5.4528010">
        <ele>1300.4</ele>
        <time>2022-06-11T09:02:14Z</time>
      </trkpt>
      <trkpt lat="42.8846970" lon="-5.4527840">
        <ele>1301.0</ele>
        <time>2022-06-11T09:02:15Z</time>
      </trkpt>
      <trkpt lat="42.8846950" lon="-5.4527460">
        <ele>1302.4</ele>
        <time>2022-06-11T09:02:17Z</time>
      </trkpt>
      <trkpt lat="42.8846990" lon="-5.4527330">
        <ele>1303.0</ele>
        <time>2022-06-11T09:02:18Z</time>
      </trkpt>
      <trkpt lat="42.8847000" lon="-5.4526940">
        <ele>1303.6</ele>
        <time>2022-06-11T09:02:20Z</time>
      </trkpt>
      <trkpt lat="42.8846970" lon="-5.4526790">
        <ele>1303.8</ele>
        <time>2022-06-11T09:02:21Z</time>
      </trkpt>
      <trkpt lat="42.8846940" lon="-5.4526760">
        <ele>1305.2</ele>
        <time>2022-06-11T09:02:24Z</time>
      </trkpt>
      <trkpt lat="42.8846890" lon="-5.4526720">
        <ele>1306.6</ele>
        <time>2022-06-11T09:02:26Z</time>
      </trkpt>
      <trkpt lat="42.8846850" lon="-5.4526600">
        <ele>1307.6</ele>
        <time>2022-06-11T09:02:33Z</time>
      </trkpt>
      <trkpt lat="42.8846880" lon="-5.4526590">
        <ele>1307.6</ele>
        <time>2022-06-11T09:02:35Z</time>
      </trkpt>
      <trkpt lat="42.8846880" lon="-5.4526590">
        <ele>1307.8</ele>
        <time>2022-06-11T09:02:41Z</time>
      </trkpt>
      <trkpt lat="42.8846880" lon="-5.4526590">
        <ele>1307.8</ele>
        <time>2022-06-11T09:02:43Z</time>
      </trkpt>
      <trkpt lat="42.8846880" lon="-5.4526590">
        <ele>1307.8</ele>
        <time>2022-06-11T09:02:44Z</time>
      </trkpt>
      <trkpt lat="42.8846880" lon="-5.4526590">
        <ele>1307.8</ele>
        <time>2022-06-11T09:02:45Z</time>
      </trkpt>
      <trkpt lat="42.8846880" lon="-5.4526590">
        <ele>1307.8</ele>
        <time>2022-06-11T09:02:46Z</time>
      </trkpt>
      <trkpt lat="42.8846880" lon="-5.4526590">
        <ele>1307.8</ele>
        <time>2022-06-11T09:02:47Z</time>
      </trkpt>
      <trkpt lat="42.8846930" lon="-5.4526300">
        <ele>1307.8</ele>
        <time>2022-06-11T09:02:50Z</time>
      </trkpt>
      <trkpt lat="42.8846980" lon="-5.4525790">
        <ele>1307.6</ele>
        <time>2022-06-11T09:02:52Z</time>
      </trkpt>
      <trkpt lat="42.8847000" lon="-5.4523960">
        <ele>1307.4</ele>
        <time>2022-06-11T09:02:57Z</time>
      </trkpt>
      <trkpt lat="42.8846480" lon="-5.4522710">
        <ele>1308.8</ele>
        <time>2022-06-11T09:03:01Z</time>
      </trkpt>
      <trkpt lat="42.8846380" lon="-5.4522490">
        <ele>1309.0</ele>
        <time>2022-06-11T09:03:02Z</time>
      </trkpt>
      <trkpt lat="42.8846100" lon="-5.4521740">
        <ele>1310.0</ele>
        <time>2022-06-11T09:03:05Z</time>
      </trkpt>
      <trkpt lat="42.8846090" lon="-5.4521080">
        <ele>1311.2</ele>
        <time>2022-06-11T09:03:07Z</time>
      </trkpt>
      <trkpt lat="42.8846070" lon="-5.4520710">
        <ele>1311.6</ele>
        <time>2022-06-11T09:03:08Z</time>
      </trkpt>
      <trkpt lat="42.8845890" lon="-5.4519540">
        <ele>1312.6</ele>
        <time>2022-06-11T09:03:12Z</time>
      </trkpt>
      <trkpt lat="42.8845760" lon="-5.4519080">
        <ele>1313.4</ele>
        <time>2022-06-11T09:03:15Z</time>
      </trkpt>
      <trkpt lat="42.8845340" lon="-5.4518250">
        <ele>1311.8</ele>
        <time>2022-06-11T09:03:21Z</time>
      </trkpt>
      <trkpt lat="42.8845150" lon="-5.4517680">
        <ele>1311.8</ele>
        <time>2022-06-11T09:03:26Z</time>
      </trkpt>
      <trkpt lat="42.8845150" lon="-5.4517420">
        <ele>1312.2</ele>
        <time>2022-06-11T09:03:28Z</time>
      </trkpt>
      <trkpt lat="42.8845100" lon="-5.4516790">
        <ele>1314.0</ele>
        <time>2022-06-11T09:03:33Z</time>
      </trkpt>
      <trkpt lat="42.8845100" lon="-5.4516520">
        <ele>1315.0</ele>
        <time>2022-06-11T09:03:35Z</time>
      </trkpt>
      <trkpt lat="42.8845090" lon="-5.4516400">
        <ele>1315.4</ele>
        <time>2022-06-11T09:03:36Z</time>
      </trkpt>
      <trkpt lat="42.8844970" lon="-5.4516210">
        <ele>1316.6</ele>
        <time>2022-06-11T09:03:40Z</time>
      </trkpt>
      <trkpt lat="42.8845000" lon="-5.4516190">
        <ele>1317.4</ele>
        <time>2022-06-11T09:03:42Z</time>
      </trkpt>
      <trkpt lat="42.8845010" lon="-5.4516090">
        <ele>1317.8</ele>
        <time>2022-06-11T09:03:44Z</time>
      </trkpt>
      <trkpt lat="42.8845020" lon="-5.4515830">
        <ele>1318.0</ele>
        <time>2022-06-11T09:03:47Z</time>
      </trkpt>
      <trkpt lat="42.8844950" lon="-5.4514810">
        <ele>1318.2</ele>
        <time>2022-06-11T09:03:53Z</time>
      </trkpt>
      <trkpt lat="42.8844870" lon="-5.4514390">
        <ele>1318.2</ele>
        <time>2022-06-11T09:03:56Z</time>
      </trkpt>
      <trkpt lat="42.8844830" lon="-5.4514020">
        <ele>1319.0</ele>
        <time>2022-06-11T09:03:59Z</time>
      </trkpt>
      <trkpt lat="42.8844820" lon="-5.4513900">
        <ele>1319.4</ele>
        <time>2022-06-11T09:04:00Z</time>
      </trkpt>
      <trkpt lat="42.8844720" lon="-5.4513660">
        <ele>1320.0</ele>
        <time>2022-06-11T09:04:02Z</time>
      </trkpt>
      <trkpt lat="42.8844490" lon="-5.4512380">
        <ele>1321.2</ele>
        <time>2022-06-11T09:04:10Z</time>
      </trkpt>
      <trkpt lat="42.8844410" lon="-5.4512020">
        <ele>1322.8</ele>
        <time>2022-06-11T09:04:12Z</time>
      </trkpt>
      <trkpt lat="42.8844290" lon="-5.4511490">
        <ele>1323.8</ele>
        <time>2022-06-11T09:04:14Z</time>
      </trkpt>
      <trkpt lat="42.8843990" lon="-5.4510670">
        <ele>1325.2</ele>
        <time>2022-06-11T09:04:17Z</time>
      </trkpt>
      <trkpt lat="42.8843770" lon="-5.4510140">
        <ele>1326.2</ele>
        <time>2022-06-11T09:04:19Z</time>
      </trkpt>
      <trkpt lat="42.8843430" lon="-5.4509280">
        <ele>1327.4</ele>
        <time>2022-06-11T09:04:22Z</time>
      </trkpt>
      <trkpt lat="42.8842900" lon="-5.4508200">
        <ele>1328.6</ele>
        <time>2022-06-11T09:04:26Z</time>
      </trkpt>
      <trkpt lat="42.8842750" lon="-5.4507920">
        <ele>1329.0</ele>
        <time>2022-06-11T09:04:27Z</time>
      </trkpt>
      <trkpt lat="42.8842630" lon="-5.4507610">
        <ele>1329.2</ele>
        <time>2022-06-11T09:04:28Z</time>
      </trkpt>
      <trkpt lat="42.8841760" lon="-5.4506220">
        <ele>1326.0</ele>
        <time>2022-06-11T09:04:33Z</time>
      </trkpt>
      <trkpt lat="42.8841640" lon="-5.4505870">
        <ele>1325.0</ele>
        <time>2022-06-11T09:04:34Z</time>
      </trkpt>
      <trkpt lat="42.8840740" lon="-5.4504290">
        <ele>1324.8</ele>
        <time>2022-06-11T09:04:40Z</time>
      </trkpt>
      <trkpt lat="42.8840660" lon="-5.4504090">
        <ele>1325.0</ele>
        <time>2022-06-11T09:04:41Z</time>
      </trkpt>
      <trkpt lat="42.8840160" lon="-5.4503600">
        <ele>1325.0</ele>
        <time>2022-06-11T09:04:44Z</time>
      </trkpt>
      <trkpt lat="42.8839940" lon="-5.4503420">
        <ele>1324.8</ele>
        <time>2022-06-11T09:04:45Z</time>
      </trkpt>
      <trkpt lat="42.8839760" lon="-5.4503240">
        <ele>1324.8</ele>
        <time>2022-06-11T09:04:46Z</time>
      </trkpt>
      <trkpt lat="42.8839570" lon="-5.4503050">
        <ele>1324.8</ele>
        <time>2022-06-11T09:04:47Z</time>
      </trkpt>
      <trkpt lat="42.8839210" lon="-5.4502550">
        <ele>1326.0</ele>
        <time>2022-06-11T09:04:50Z</time>
      </trkpt>
      <trkpt lat="42.8839130" lon="-5.4502370">
        <ele>1328.0</ele>
        <time>2022-06-11T09:04:51Z</time>
      </trkpt>
      <trkpt lat="42.8839000" lon="-5.4501980">
        <ele>1329.2</ele>
        <time>2022-06-11T09:04:53Z</time>
      </trkpt>
      <trkpt lat="42.8838890" lon="-5.4500990">
        <ele>1330.4</ele>
        <time>2022-06-11T09:04:58Z</time>
      </trkpt>
      <trkpt lat="42.8838880" lon="-5.4500620">
        <ele>1330.8</ele>
        <time>2022-06-11T09:05:00Z</time>
      </trkpt>
      <trkpt lat="42.8838940" lon="-5.4500010">
        <ele>1331.2</ele>
        <time>2022-06-11T09:05:03Z</time>
      </trkpt>
      <trkpt lat="42.8839100" lon="-5.4499440">
        <ele>1331.4</ele>
        <time>2022-06-11T09:05:06Z</time>
      </trkpt>
      <trkpt lat="42.8839160" lon="-5.4499240">
        <ele>1331.6</ele>
        <time>2022-06-11T09:05:07Z</time>
      </trkpt>
      <trkpt lat="42.8839190" lon="-5.4499060">
        <ele>1327.0</ele>
        <time>2022-06-11T09:05:08Z</time>
      </trkpt>
      <trkpt lat="42.8839310" lon="-5.4498710">
        <ele>1325.6</ele>
        <time>2022-06-11T09:05:10Z</time>
      </trkpt>
      <trkpt lat="42.8839320" lon="-5.4497990">
        <ele>1326.2</ele>
        <time>2022-06-11T09:05:15Z</time>
      </trkpt>
      <trkpt lat="42.8839190" lon="-5.4497280">
        <ele>1326.6</ele>
        <time>2022-06-11T09:05:22Z</time>
      </trkpt>
      <trkpt lat="42.8839200" lon="-5.4496950">
        <ele>1327.6</ele>
        <time>2022-06-11T09:05:25Z</time>
      </trkpt>
      <trkpt lat="42.8839220" lon="-5.4496800">
        <ele>1329.4</ele>
        <time>2022-06-11T09:05:27Z</time>
      </trkpt>
      <trkpt lat="42.8839190" lon="-5.4496590">
        <ele>1330.6</ele>
        <time>2022-06-11T09:05:30Z</time>
      </trkpt>
      <trkpt lat="42.8839100" lon="-5.4496350">
        <ele>1331.0</ele>
        <time>2022-06-11T09:05:32Z</time>
      </trkpt>
      <trkpt lat="42.8839070" lon="-5.4496200">
        <ele>1334.6</ele>
        <time>2022-06-11T09:05:33Z</time>
      </trkpt>
      <trkpt lat="42.8839030" lon="-5.4496060">
        <ele>1336.4</ele>
        <time>2022-06-11T09:05:34Z</time>
      </trkpt>
      <trkpt lat="42.8838900" lon="-5.4495840">
        <ele>1337.8</ele>
        <time>2022-06-11T09:05:36Z</time>
      </trkpt>
      <trkpt lat="42.8838910" lon="-5.4495630">
        <ele>1339.8</ele>
        <time>2022-06-11T09:05:38Z</time>
      </trkpt>
      <trkpt lat="42.8838880" lon="-5.4495480">
        <ele>1340.8</ele>
        <time>2022-06-11T09:05:40Z</time>
      </trkpt>
      <trkpt lat="42.8838870" lon="-5.4495400">
        <ele>1341.6</ele>
        <time>2022-06-11T09:05:41Z</time>
      </trkpt>
      <trkpt lat="42.8838850" lon="-5.4494820">
        <ele>1342.0</ele>
        <time>2022-06-11T09:05:45Z</time>
      </trkpt>
      <trkpt lat="42.8838970" lon="-5.4494410">
        <ele>1343.2</ele>
        <time>2022-06-11T09:05:48Z</time>
      </trkpt>
      <trkpt lat="42.8839790" lon="-5.4493510">
        <ele>1345.2</ele>
        <time>2022-06-11T09:05:53Z</time>
      </trkpt>
      <trkpt lat="42.8839970" lon="-5.4493190">
        <ele>1346.2</ele>
        <time>2022-06-11T09:05:54Z</time>
      </trkpt>
      <trkpt lat="42.8840620" lon="-5.4491670">
        <ele>1347.2</ele>
        <time>2022-06-11T09:05:59Z</time>
      </trkpt>
      <trkpt lat="42.8840650" lon="-5.4491350">
        <ele>1347.2</ele>
        <time>2022-06-11T09:06:00Z</time>
      </trkpt>
      <trkpt lat="42.8840740" lon="-5.4490510">
        <ele>1346.4</ele>
        <time>2022-06-11T09:06:04Z</time>
      </trkpt>
      <trkpt lat="42.8840680" lon="-5.4490310">
        <ele>1346.2</ele>
        <time>2022-06-11T09:06:05Z</time>
      </trkpt>
      <trkpt lat="42.8840630" lon="-5.4490160">
        <ele>1346.0</ele>
        <time>2022-06-11T09:06:06Z</time>
      </trkpt>
      <trkpt lat="42.8840550" lon="-5.4489590">
        <ele>1345.2</ele>
        <time>2022-06-11T09:06:11Z</time>
      </trkpt>
      <trkpt lat="42.8840510" lon="-5.4489370">
        <ele>1345.0</ele>
        <time>2022-06-11T09:06:13Z</time>
      </trkpt>
      <trkpt lat="42.8840520" lon="-5.4489120">
        <ele>1346.4</ele>
        <time>2022-06-11T09:06:15Z</time>
      </trkpt>
      <trkpt lat="42.8840480" lon="-5.4488870">
        <ele>1347.2</ele>
        <time>2022-06-11T09:06:17Z</time>
      </trkpt>
      <trkpt lat="42.8840520" lon="-5.4488690">
        <ele>1347.4</ele>
        <time>2022-06-11T09:06:19Z</time>
      </trkpt>
      <trkpt lat="42.8840550" lon="-5.4488590">
        <ele>1347.4</ele>
        <time>2022-06-11T09:06:20Z</time>
      </trkpt>
      <trkpt lat="42.8840680" lon="-5.4488260">
        <ele>1348.6</ele>
        <time>2022-06-11T09:06:24Z</time>
      </trkpt>
      <trkpt lat="42.8840770" lon="-5.4488060">
        <ele>1349.6</ele>
        <time>2022-06-11T09:06:26Z</time>
      </trkpt>
      <trkpt lat="42.8840970" lon="-5.4487800">
        <ele>1350.4</ele>
        <time>2022-06-11T09:06:29Z</time>
      </trkpt>
      <trkpt lat="42.8841050" lon="-5.4487750">
        <ele>1350.6</ele>
        <time>2022-06-11T09:06:30Z</time>
      </trkpt>
      <trkpt lat="42.8841130" lon="-5.4487630">
        <ele>1350.6</ele>
        <time>2022-06-11T09:06:31Z</time>
      </trkpt>
      <trkpt lat="42.8841330" lon="-5.4486960">
        <ele>1350.8</ele>
        <time>2022-06-11T09:06:36Z</time>
      </trkpt>
      <trkpt lat="42.8841290" lon="-5.4486160">
        <ele>1352.4</ele>
        <time>2022-06-11T09:06:42Z</time>
      </trkpt>
      <trkpt lat="42.8841280" lon="-5.4486010">
        <ele>1353.6</ele>
        <time>2022-06-11T09:06:43Z</time>
      </trkpt>
      <trkpt lat="42.8841250" lon="-5.4485530">
        <ele>1354.8</ele>
        <time>2022-06-11T09:06:46Z</time>
      </trkpt>
      <trkpt lat="42.8841080" lon="-5.4484270">
        <ele>1354.6</ele>
        <time>2022-06-11T09:06:53Z</time>
      </trkpt>
      <trkpt lat="42.8841070" lon="-5.4483550">
        <ele>1356.0</ele>
        <time>2022-06-11T09:06:59Z</time>
      </trkpt>
      <trkpt lat="42.8840990" lon="-5.4483260">
        <ele>1356.6</ele>
        <time>2022-06-11T09:07:01Z</time>
      </trkpt>
      <trkpt lat="42.8840930" lon="-5.4483130">
        <ele>1357.0</ele>
        <time>2022-06-11T09:07:02Z</time>
      </trkpt>
      <trkpt lat="42.8840600" lon="-5.4482670">
        <ele>1358.2</ele>
        <time>2022-06-11T09:07:05Z</time>
      </trkpt>
      <trkpt lat="42.8840330" lon="-5.4482080">
        <ele>1359.2</ele>
        <time>2022-06-11T09:07:09Z</time>
      </trkpt>
      <trkpt lat="42.8839870" lon="-5.4480550">
        <ele>1360.6</ele>
        <time>2022-06-11T09:07:18Z</time>
      </trkpt>
      <trkpt lat="42.8839530" lon="-5.4478840">
        <ele>1361.6</ele>
        <time>2022-06-11T09:07:25Z</time>
      </trkpt>
      <trkpt lat="42.8839430" lon="-5.4478590">
        <ele>1361.6</ele>
        <time>2022-06-11T09:07:26Z</time>
      </trkpt>
      <trkpt lat="42.8839000" lon="-5.4477520">
        <ele>1362.6</ele>
        <time>2022-06-11T09:07:30Z</time>
      </trkpt>
      <trkpt lat="42.8838920" lon="-5.4477220">
        <ele>1363.8</ele>
        <time>2022-06-11T09:07:31Z</time>
      </trkpt>
      <trkpt lat="42.8838780" lon="-5.4476660">
        <ele>1365.0</ele>
        <time>2022-06-11T09:07:33Z</time>
      </trkpt>
      <trkpt lat="42.8838380" lon="-5.4475750">
        <ele>1366.0</ele>
        <time>2022-06-11T09:07:36Z</time>
      </trkpt>
      <trkpt lat="42.8837730" lon="-5.4474870">
        <ele>1367.2</ele>
        <time>2022-06-11T09:07:40Z</time>
      </trkpt>
      <trkpt lat="42.8837130" lon="-5.4474330">
        <ele>1367.8</ele>
        <time>2022-06-11T09:07:43Z</time>
      </trkpt>
      <trkpt lat="42.8836920" lon="-5.4474180">
        <ele>1368.4</ele>
        <time>2022-06-11T09:07:44Z</time>
      </trkpt>
      <trkpt lat="42.8836470" lon="-5.4473620">
        <ele>1369.6</ele>
        <time>2022-06-11T09:07:47Z</time>
      </trkpt>
      <trkpt lat="42.8836300" lon="-5.4473210">
        <ele>1370.0</ele>
        <time>2022-06-11T09:07:49Z</time>
      </trkpt>
      <trkpt lat="42.8836260" lon="-5.4473020">
        <ele>1370.0</ele>
        <time>2022-06-11T09:07:50Z</time>
      </trkpt>
      <trkpt lat="42.8835960" lon="-5.4471780">
        <ele>1369.8</ele>
        <time>2022-06-11T09:07:57Z</time>
      </trkpt>
      <trkpt lat="42.8835710" lon="-5.4470820">
        <ele>1368.4</ele>
        <time>2022-06-11T09:08:02Z</time>
      </trkpt>
      <trkpt lat="42.8835420" lon="-5.4470090">
        <ele>1368.4</ele>
        <time>2022-06-11T09:08:06Z</time>
      </trkpt>
      <trkpt lat="42.8834600" lon="-5.4468740">
        <ele>1367.8</ele>
        <time>2022-06-11T09:08:14Z</time>
      </trkpt>
      <trkpt lat="42.8834190" lon="-5.4468140">
        <ele>1367.8</ele>
        <time>2022-06-11T09:08:18Z</time>
      </trkpt>
      <trkpt lat="42.8833760" lon="-5.4467240">
        <ele>1367.8</ele>
        <time>2022-06-11T09:08:24Z</time>
      </trkpt>
      <trkpt lat="42.8833200" lon="-5.4465740">
        <ele>1369.0</ele>
        <time>2022-06-11T09:08:33Z</time>
      </trkpt>
      <trkpt lat="42.8832910" lon="-5.4465280">
        <ele>1369.6</ele>
        <time>2022-06-11T09:08:37Z</time>
      </trkpt>
      <trkpt lat="42.8832570" lon="-5.4465040">
        <ele>1370.4</ele>
        <time>2022-06-11T09:08:40Z</time>
      </trkpt>
      <trkpt lat="42.8832450" lon="-5.4465040">
        <ele>1370.6</ele>
        <time>2022-06-11T09:08:41Z</time>
      </trkpt>
      <trkpt lat="42.8832240" lon="-5.4465060">
        <ele>1371.0</ele>
        <time>2022-06-11T09:08:43Z</time>
      </trkpt>
      <trkpt lat="42.8831970" lon="-5.4464990">
        <ele>1371.8</ele>
        <time>2022-06-11T09:08:46Z</time>
      </trkpt>
      <trkpt lat="42.8831880" lon="-5.4464940">
        <ele>1372.2</ele>
        <time>2022-06-11T09:08:47Z</time>
      </trkpt>
      <trkpt lat="42.8831510" lon="-5.4464260">
        <ele>1372.8</ele>
        <time>2022-06-11T09:08:54Z</time>
      </trkpt>
      <trkpt lat="42.8831490" lon="-5.4464090">
        <ele>1373.6</ele>
        <time>2022-06-11T09:08:55Z</time>
      </trkpt>
      <trkpt lat="42.8831460" lon="-5.4463950">
        <ele>1372.4</ele>
        <time>2022-06-11T09:08:56Z</time>
      </trkpt>
      <trkpt lat="42.8830920" lon="-5.4463300">
        <ele>1373.4</ele>
        <time>2022-06-11T09:09:02Z</time>
      </trkpt>
      <trkpt lat="42.8830550" lon="-5.4462780">
        <ele>1373.8</ele>
        <time>2022-06-11T09:09:05Z</time>
      </trkpt>
      <trkpt lat="42.8830470" lon="-5.4462650">
        <ele>1373.8</ele>
        <time>2022-06-11T09:09:06Z</time>
      </trkpt>
      <trkpt lat="42.8829910" lon="-5.4462080">
        <ele>1373.6</ele>
        <time>2022-06-11T09:09:12Z</time>
      </trkpt>
      <trkpt lat="42.8829570" lon="-5.4461770">
        <ele>1375.0</ele>
        <time>2022-06-11T09:09:15Z</time>
      </trkpt>
      <trkpt lat="42.8829370" lon="-5.4461600">
        <ele>1376.0</ele>
        <time>2022-06-11T09:09:17Z</time>
      </trkpt>
      <trkpt lat="42.8828780" lon="-5.4460710">
        <ele>1377.2</ele>
        <time>2022-06-11T09:09:25Z</time>
      </trkpt>
      <trkpt lat="42.8828410" lon="-5.4459970">
        <ele>1378.8</ele>
        <time>2022-06-11T09:09:31Z</time>
      </trkpt>
      <trkpt lat="42.8827970" lon="-5.4459490">
        <ele>1379.8</ele>
        <time>2022-06-11T09:09:36Z</time>
      </trkpt>
      <trkpt lat="42.8827550" lon="-5.4458740">
        <ele>1380.4</ele>
        <time>2022-06-11T09:09:43Z</time>
      </trkpt>
      <trkpt lat="42.8827400" lon="-5.4458600">
        <ele>1381.0</ele>
        <time>2022-06-11T09:09:45Z</time>
      </trkpt>
      <trkpt lat="42.8827140" lon="-5.4458210">
        <ele>1381.8</ele>
        <time>2022-06-11T09:09:50Z</time>
      </trkpt>
      <trkpt lat="42.8827020" lon="-5.4458100">
        <ele>1382.2</ele>
        <time>2022-06-11T09:09:51Z</time>
      </trkpt>
      <trkpt lat="42.8826590" lon="-5.4457540">
        <ele>1383.0</ele>
        <time>2022-06-11T09:09:57Z</time>
      </trkpt>
      <trkpt lat="42.8826330" lon="-5.4457270">
        <ele>1383.4</ele>
        <time>2022-06-11T09:10:00Z</time>
      </trkpt>
      <trkpt lat="42.8826210" lon="-5.4457100">
        <ele>1384.0</ele>
        <time>2022-06-11T09:10:03Z</time>
      </trkpt>
      <trkpt lat="42.8826130" lon="-5.4456990">
        <ele>1385.2</ele>
        <time>2022-06-11T09:10:04Z</time>
      </trkpt>
      <trkpt lat="42.8825920" lon="-5.4456720">
        <ele>1386.6</ele>
        <time>2022-06-11T09:10:07Z</time>
      </trkpt>
      <trkpt lat="42.8825850" lon="-5.4456640">
        <ele>1386.6</ele>
        <time>2022-06-11T09:10:08Z</time>
      </trkpt>
      <trkpt lat="42.8825560" lon="-5.4456100">
        <ele>1387.8</ele>
        <time>2022-06-11T09:10:14Z</time>
      </trkpt>
      <trkpt lat="42.8825500" lon="-5.4455980">
        <ele>1388.0</ele>
        <time>2022-06-11T09:10:15Z</time>
      </trkpt>
      <trkpt lat="42.8825200" lon="-5.4455770">
        <ele>1389.0</ele>
        <time>2022-06-11T09:10:18Z</time>
      </trkpt>
      <trkpt lat="42.8824960" lon="-5.4455620">
        <ele>1390.2</ele>
        <time>2022-06-11T09:10:20Z</time>
      </trkpt>
      <trkpt lat="42.8824630" lon="-5.4455390">
        <ele>1390.8</ele>
        <time>2022-06-11T09:10:23Z</time>
      </trkpt>
      <trkpt lat="42.8823930" lon="-5.4455100">
        <ele>1391.6</ele>
        <time>2022-06-11T09:10:30Z</time>
      </trkpt>
      <trkpt lat="42.8823820" lon="-5.4455070">
        <ele>1392.2</ele>
        <time>2022-06-11T09:10:31Z</time>
      </trkpt>
      <trkpt lat="42.8823690" lon="-5.4455040">
        <ele>1392.6</ele>
        <time>2022-06-11T09:10:32Z</time>
      </trkpt>
      <trkpt lat="42.8823580" lon="-5.4455000">
        <ele>1392.6</ele>
        <time>2022-06-11T09:10:33Z</time>
      </trkpt>
      <trkpt lat="42.8822860" lon="-5.4454520">
        <ele>1393.6</ele>
        <time>2022-06-11T09:10:41Z</time>
      </trkpt>
      <trkpt lat="42.8822740" lon="-5.4454470">
        <ele>1393.8</ele>
        <time>2022-06-11T09:10:42Z</time>
      </trkpt>
      <trkpt lat="42.8822230" lon="-5.4454660">
        <ele>1394.4</ele>
        <time>2022-06-11T09:10:46Z</time>
      </trkpt>
      <trkpt lat="42.8822100" lon="-5.4454680">
        <ele>1394.6</ele>
        <time>2022-06-11T09:10:47Z</time>
      </trkpt>
      <trkpt lat="42.8821930" lon="-5.4454730">
        <ele>1395.2</ele>
        <time>2022-06-11T09:10:48Z</time>
      </trkpt>
      <trkpt lat="42.8821240" lon="-5.4454750">
        <ele>1396.2</ele>
        <time>2022-06-11T09:10:52Z</time>
      </trkpt>
      <trkpt lat="42.8820920" lon="-5.4454720">
        <ele>1397.6</ele>
        <time>2022-06-11T09:10:54Z</time>
      </trkpt>
      <trkpt lat="42.8820380" lon="-5.4454600">
        <ele>1398.0</ele>
        <time>2022-06-11T09:10:57Z</time>
      </trkpt>
      <trkpt lat="42.8819600" lon="-5.4454560">
        <ele>1398.2</ele>
        <time>2022-06-11T09:11:03Z</time>
      </trkpt>
      <trkpt lat="42.8819390" lon="-5.4454450">
        <ele>1398.4</ele>
        <time>2022-06-11T09:11:05Z</time>
      </trkpt>
      <trkpt lat="42.8819130" lon="-5.4454410">
        <ele>1399.0</ele>
        <time>2022-06-11T09:11:07Z</time>
      </trkpt>
      <trkpt lat="42.8818390" lon="-5.4454230">
        <ele>1399.6</ele>
        <time>2022-06-11T09:11:13Z</time>
      </trkpt>
      <trkpt lat="42.8817730" lon="-5.4454090">
        <ele>1399.8</ele>
        <time>2022-06-11T09:11:18Z</time>
      </trkpt>
      <trkpt lat="42.8817520" lon="-5.4453890">
        <ele>1400.0</ele>
        <time>2022-06-11T09:11:20Z</time>
      </trkpt>
      <trkpt lat="42.8817410" lon="-5.4453800">
        <ele>1400.2</ele>
        <time>2022-06-11T09:11:21Z</time>
      </trkpt>
      <trkpt lat="42.8816900" lon="-5.4453370">
        <ele>1400.6</ele>
        <time>2022-06-11T09:11:28Z</time>
      </trkpt>
      <trkpt lat="42.8816810" lon="-5.4453290">
        <ele>1402.4</ele>
        <time>2022-06-11T09:11:29Z</time>
      </trkpt>
      <trkpt lat="42.8816730" lon="-5.4453230">
        <ele>1403.4</ele>
        <time>2022-06-11T09:11:30Z</time>
      </trkpt>
      <trkpt lat="42.8816480" lon="-5.4453010">
        <ele>1404.6</ele>
        <time>2022-06-11T09:11:33Z</time>
      </trkpt>
      <trkpt lat="42.8816260" lon="-5.4452720">
        <ele>1405.6</ele>
        <time>2022-06-11T09:11:37Z</time>
      </trkpt>
      <trkpt lat="42.8815830" lon="-5.4452410">
        <ele>1406.6</ele>
        <time>2022-06-11T09:11:41Z</time>
      </trkpt>
      <trkpt lat="42.8815730" lon="-5.4452390">
        <ele>1406.6</ele>
        <time>2022-06-11T09:11:42Z</time>
      </trkpt>
      <trkpt lat="42.8815300" lon="-5.4452160">
        <ele>1406.8</ele>
        <time>2022-06-11T09:11:47Z</time>
      </trkpt>
      <trkpt lat="42.8814760" lon="-5.4451970">
        <ele>1406.2</ele>
        <time>2022-06-11T09:11:53Z</time>
      </trkpt>
      <trkpt lat="42.8814700" lon="-5.4451930">
        <ele>1406.4</ele>
        <time>2022-06-11T09:11:54Z</time>
      </trkpt>
      <trkpt lat="42.8814550" lon="-5.4451830">
        <ele>1407.8</ele>
        <time>2022-06-11T09:11:57Z</time>
      </trkpt>
      <trkpt lat="42.8814180" lon="-5.4451700">
        <ele>1409.0</ele>
        <time>2022-06-11T09:12:01Z</time>
      </trkpt>
      <trkpt lat="42.8814050" lon="-5.4451640">
        <ele>1409.8</ele>
        <time>2022-06-11T09:12:03Z</time>
      </trkpt>
      <trkpt lat="42.8813940" lon="-5.4451550">
        <ele>1411.0</ele>
        <time>2022-06-11T09:12:05Z</time>
      </trkpt>
      <trkpt lat="42.8813200" lon="-5.4451310">
        <ele>1411.8</ele>
        <time>2022-06-11T09:12:10Z</time>
      </trkpt>
      <trkpt lat="42.8812390" lon="-5.4451710">
        <ele>1412.0</ele>
        <time>2022-06-11T09:12:18Z</time>
      </trkpt>
      <trkpt lat="42.8812310" lon="-5.4451700">
        <ele>1412.4</ele>
        <time>2022-06-11T09:12:19Z</time>
      </trkpt>
      <trkpt lat="42.8812120" lon="-5.4451650">
        <ele>1413.2</ele>
        <time>2022-06-11T09:12:21Z</time>
      </trkpt>
      <trkpt lat="42.8811780" lon="-5.4451670">
        <ele>1413.4</ele>
        <time>2022-06-11T09:12:25Z</time>
      </trkpt>
      <trkpt lat="42.8811460" lon="-5.4451650">
        <ele>1414.6</ele>
        <time>2022-06-11T09:12:29Z</time>
      </trkpt>
      <trkpt lat="42.8811080" lon="-5.4451500">
        <ele>1416.0</ele>
        <time>2022-06-11T09:12:32Z</time>
      </trkpt>
      <trkpt lat="42.8810960" lon="-5.4451430">
        <ele>1416.4</ele>
        <time>2022-06-11T09:12:33Z</time>
      </trkpt>
      <trkpt lat="42.8810870" lon="-5.4451410">
        <ele>1416.4</ele>
        <time>2022-06-11T09:12:34Z</time>
      </trkpt>
      <trkpt lat="42.8809620" lon="-5.4450670">
        <ele>1416.8</ele>
        <time>2022-06-11T09:12:42Z</time>
      </trkpt>
      <trkpt lat="42.8808350" lon="-5.4449450">
        <ele>1414.6</ele>
        <time>2022-06-11T09:12:48Z</time>
      </trkpt>
      <trkpt lat="42.8808110" lon="-5.4449290">
        <ele>1414.4</ele>
        <time>2022-06-11T09:12:49Z</time>
      </trkpt>
      <trkpt lat="42.8807610" lon="-5.4449100">
        <ele>1414.4</ele>
        <time>2022-06-11T09:12:51Z</time>
      </trkpt>
      <trkpt lat="42.8806330" lon="-5.4449010">
        <ele>1415.2</ele>
        <time>2022-06-11T09:12:56Z</time>
      </trkpt>
      <trkpt lat="42.8804880" lon="-5.4448610">
        <ele>1414.8</ele>
        <time>2022-06-11T09:13:04Z</time>
      </trkpt>
      <trkpt lat="42.8804360" lon="-5.4448370">
        <ele>1414.8</ele>
        <time>2022-06-11T09:13:08Z</time>
      </trkpt>
      <trkpt lat="42.8803990" lon="-5.4448080">
        <ele>1416.2</ele>
        <time>2022-06-11T09:13:12Z</time>
      </trkpt>
      <trkpt lat="42.8803840" lon="-5.4447840">
        <ele>1417.8</ele>
        <time>2022-06-11T09:13:14Z</time>
      </trkpt>
      <trkpt lat="42.8803740" lon="-5.4447620">
        <ele>1419.0</ele>
        <time>2022-06-11T09:13:16Z</time>
      </trkpt>
      <trkpt lat="42.8803440" lon="-5.4447080">
        <ele>1419.6</ele>
        <time>2022-06-11T09:13:20Z</time>
      </trkpt>
      <trkpt lat="42.8802520" lon="-5.4446140">
        <ele>1420.0</ele>
        <time>2022-06-11T09:13:28Z</time>
      </trkpt>
      <trkpt lat="42.8802410" lon="-5.4446050">
        <ele>1420.2</ele>
        <time>2022-06-11T09:13:29Z</time>
      </trkpt>
      <trkpt lat="42.8802080" lon="-5.4445760">
        <ele>1418.6</ele>
        <time>2022-06-11T09:13:33Z</time>
      </trkpt>
      <trkpt lat="42.8801960" lon="-5.4445650">
        <ele>1416.8</ele>
        <time>2022-06-11T09:13:35Z</time>
      </trkpt>
      <trkpt lat="42.8801190" lon="-5.4445390">
        <ele>1417.4</ele>
        <time>2022-06-11T09:13:43Z</time>
      </trkpt>
      <trkpt lat="42.8800760" lon="-5.4445270">
        <ele>1418.0</ele>
        <time>2022-06-11T09:13:48Z</time>
      </trkpt>
      <trkpt lat="42.8800480" lon="-5.4444990">
        <ele>1418.6</ele>
        <time>2022-06-11T09:13:51Z</time>
      </trkpt>
      <trkpt lat="42.8800420" lon="-5.4444910">
        <ele>1419.0</ele>
        <time>2022-06-11T09:13:52Z</time>
      </trkpt>
      <trkpt lat="42.8799990" lon="-5.4444640">
        <ele>1420.2</ele>
        <time>2022-06-11T09:13:57Z</time>
      </trkpt>
      <trkpt lat="42.8799750" lon="-5.4444410">
        <ele>1420.8</ele>
        <time>2022-06-11T09:14:00Z</time>
      </trkpt>
      <trkpt lat="42.8799680" lon="-5.4444240">
        <ele>1421.4</ele>
        <time>2022-06-11T09:14:02Z</time>
      </trkpt>
      <trkpt lat="42.8799570" lon="-5.4443880">
        <ele>1422.4</ele>
        <time>2022-06-11T09:14:06Z</time>
      </trkpt>
      <trkpt lat="42.8799380" lon="-5.4443520">
        <ele>1423.6</ele>
        <time>2022-06-11T09:14:11Z</time>
      </trkpt>
      <trkpt lat="42.8799240" lon="-5.4443200">
        <ele>1424.2</ele>
        <time>2022-06-11T09:14:14Z</time>
      </trkpt>
      <trkpt lat="42.8799180" lon="-5.4442980">
        <ele>1424.6</ele>
        <time>2022-06-11T09:14:16Z</time>
      </trkpt>
      <trkpt lat="42.8799070" lon="-5.4442450">
        <ele>1425.0</ele>
        <time>2022-06-11T09:14:20Z</time>
      </trkpt>
      <trkpt lat="42.8799040" lon="-5.4442370">
        <ele>1425.2</ele>
        <time>2022-06-11T09:14:21Z</time>
      </trkpt>
      <trkpt lat="42.8798900" lon="-5.4442040">
        <ele>1426.0</ele>
        <time>2022-06-11T09:14:24Z</time>
      </trkpt>
      <trkpt lat="42.8798790" lon="-5.4441330">
        <ele>1427.4</ele>
        <time>2022-06-11T09:14:30Z</time>
      </trkpt>
      <trkpt lat="42.8798660" lon="-5.4440900">
        <ele>1428.4</ele>
        <time>2022-06-11T09:14:33Z</time>
      </trkpt>
      <trkpt lat="42.8798640" lon="-5.4440380">
        <ele>1429.0</ele>
        <time>2022-06-11T09:14:37Z</time>
      </trkpt>
      <trkpt lat="42.8798650" lon="-5.4440170">
        <ele>1429.6</ele>
        <time>2022-06-11T09:14:39Z</time>
      </trkpt>
      <trkpt lat="42.8798370" lon="-5.4439520">
        <ele>1430.4</ele>
        <time>2022-06-11T09:14:44Z</time>
      </trkpt>
      <trkpt lat="42.8798260" lon="-5.4439400">
        <ele>1430.6</ele>
        <time>2022-06-11T09:14:46Z</time>
      </trkpt>
      <trkpt lat="42.8797770" lon="-5.4439450">
        <ele>1431.6</ele>
        <time>2022-06-11T09:14:50Z</time>
      </trkpt>
      <trkpt lat="42.8797690" lon="-5.4439470">
        <ele>1431.6</ele>
        <time>2022-06-11T09:14:51Z</time>
      </trkpt>
      <trkpt lat="42.8797260" lon="-5.4439540">
        <ele>1432.6</ele>
        <time>2022-06-11T09:14:55Z</time>
      </trkpt>
      <trkpt lat="42.8797150" lon="-5.4439590">
        <ele>1433.0</ele>
        <time>2022-06-11T09:14:56Z</time>
      </trkpt>
      <trkpt lat="42.8796920" lon="-5.4439820">
        <ele>1433.8</ele>
        <time>2022-06-11T09:14:59Z</time>
      </trkpt>
      <trkpt lat="42.8796840" lon="-5.4439890">
        <ele>1434.0</ele>
        <time>2022-06-11T09:15:00Z</time>
      </trkpt>
      <trkpt lat="42.8796520" lon="-5.4440220">
        <ele>1434.6</ele>
        <time>2022-06-11T09:15:03Z</time>
      </trkpt>
      <trkpt lat="42.8796250" lon="-5.4440380">
        <ele>1435.0</ele>
        <time>2022-06-11T09:15:05Z</time>
      </trkpt>
      <trkpt lat="42.8795740" lon="-5.4440550">
        <ele>1436.2</ele>
        <time>2022-06-11T09:15:11Z</time>
      </trkpt>
      <trkpt lat="42.8795470" lon="-5.4440390">
        <ele>1436.6</ele>
        <time>2022-06-11T09:15:13Z</time>
      </trkpt>
      <trkpt lat="42.8795190" lon="-5.4440040">
        <ele>1437.0</ele>
        <time>2022-06-11T09:15:17Z</time>
      </trkpt>
      <trkpt lat="42.8795100" lon="-5.4439810">
        <ele>1437.4</ele>
        <time>2022-06-11T09:15:19Z</time>
      </trkpt>
      <trkpt lat="42.8795020" lon="-5.4439660">
        <ele>1437.6</ele>
        <time>2022-06-11T09:15:20Z</time>
      </trkpt>
      <trkpt lat="42.8794800" lon="-5.4439220">
        <ele>1438.2</ele>
        <time>2022-06-11T09:15:24Z</time>
      </trkpt>
      <trkpt lat="42.8794790" lon="-5.4439090">
        <ele>1438.8</ele>
        <time>2022-06-11T09:15:25Z</time>
      </trkpt>
      <trkpt lat="42.8794680" lon="-5.4438600">
        <ele>1439.8</ele>
        <time>2022-06-11T09:15:29Z</time>
      </trkpt>
      <trkpt lat="42.8794650" lon="-5.4438390">
        <ele>1440.2</ele>
        <time>2022-06-11T09:15:31Z</time>
      </trkpt>
      <trkpt lat="42.8794530" lon="-5.4438140">
        <ele>1441.0</ele>
        <time>2022-06-11T09:15:34Z</time>
      </trkpt>
      <trkpt lat="42.8794550" lon="-5.4437960">
        <ele>1441.4</ele>
        <time>2022-06-11T09:15:36Z</time>
      </trkpt>
      <trkpt lat="42.8794490" lon="-5.4437770">
        <ele>1442.0</ele>
        <time>2022-06-11T09:15:38Z</time>
      </trkpt>
      <trkpt lat="42.8794390" lon="-5.4437580">
        <ele>1442.4</ele>
        <time>2022-06-11T09:15:40Z</time>
      </trkpt>
      <trkpt lat="42.8794330" lon="-5.4437450">
        <ele>1442.6</ele>
        <time>2022-06-11T09:15:42Z</time>
      </trkpt>
      <trkpt lat="42.8794350" lon="-5.4437430">
        <ele>1443.4</ele>
        <time>2022-06-11T09:15:44Z</time>
      </trkpt>
      <trkpt lat="42.8794390" lon="-5.4437330">
        <ele>1444.0</ele>
        <time>2022-06-11T09:15:49Z</time>
      </trkpt>
      <trkpt lat="42.8794330" lon="-5.4437020">
        <ele>1444.0</ele>
        <time>2022-06-11T09:15:52Z</time>
      </trkpt>
      <trkpt lat="42.8794300" lon="-5.4436740">
        <ele>1444.4</ele>
        <time>2022-06-11T09:15:55Z</time>
      </trkpt>
      <trkpt lat="42.8794290" lon="-5.4436640">
        <ele>1444.8</ele>
        <time>2022-06-11T09:15:56Z</time>
      </trkpt>
      <trkpt lat="42.8794210" lon="-5.4436200">
        <ele>1445.4</ele>
        <time>2022-06-11T09:15:59Z</time>
      </trkpt>
      <trkpt lat="42.8794170" lon="-5.4436050">
        <ele>1445.6</ele>
        <time>2022-06-11T09:16:00Z</time>
      </trkpt>
      <trkpt lat="42.8794120" lon="-5.4435800">
        <ele>1446.0</ele>
        <time>2022-06-11T09:16:02Z</time>
      </trkpt>
      <trkpt lat="42.8794090" lon="-5.4435440">
        <ele>1446.6</ele>
        <time>2022-06-11T09:16:05Z</time>
      </trkpt>
      <trkpt lat="42.8794020" lon="-5.4435310">
        <ele>1446.8</ele>
        <time>2022-06-11T09:16:06Z</time>
      </trkpt>
      <trkpt lat="42.8793950" lon="-5.4435210">
        <ele>1447.0</ele>
        <time>2022-06-11T09:16:07Z</time>
      </trkpt>
      <trkpt lat="42.8794010" lon="-5.4434650">
        <ele>1448.6</ele>
        <time>2022-06-11T09:16:12Z</time>
      </trkpt>
      <trkpt lat="42.8793870" lon="-5.4434020">
        <ele>1449.6</ele>
        <time>2022-06-11T09:16:16Z</time>
      </trkpt>
      <trkpt lat="42.8793700" lon="-5.4433350">
        <ele>1450.4</ele>
        <time>2022-06-11T09:16:21Z</time>
      </trkpt>
      <trkpt lat="42.8793700" lon="-5.4433180">
        <ele>1450.8</ele>
        <time>2022-06-11T09:16:22Z</time>
      </trkpt>
      <trkpt lat="42.8793650" lon="-5.4432510">
        <ele>1451.8</ele>
        <time>2022-06-11T09:16:26Z</time>
      </trkpt>
      <trkpt lat="42.8793510" lon="-5.4431320">
        <ele>1451.8</ele>
        <time>2022-06-11T09:16:32Z</time>
      </trkpt>
      <trkpt lat="42.8793270" lon="-5.4429810">
        <ele>1452.0</ele>
        <time>2022-06-11T09:16:39Z</time>
      </trkpt>
      <trkpt lat="42.8793200" lon="-5.4428810">
        <ele>1451.2</ele>
        <time>2022-06-11T09:16:44Z</time>
      </trkpt>
      <trkpt lat="42.8793130" lon="-5.4427790">
        <ele>1451.8</ele>
        <time>2022-06-11T09:16:51Z</time>
      </trkpt>
      <trkpt lat="42.8793120" lon="-5.4427330">
        <ele>1453.0</ele>
        <time>2022-06-11T09:16:54Z</time>
      </trkpt>
      <trkpt lat="42.8793070" lon="-5.4427190">
        <ele>1453.4</ele>
        <time>2022-06-11T09:16:55Z</time>
      </trkpt>
      <trkpt lat="42.8793060" lon="-5.4426640">
        <ele>1453.6</ele>
        <time>2022-06-11T09:16:58Z</time>
      </trkpt>
      <trkpt lat="42.8793160" lon="-5.4426180">
        <ele>1454.2</ele>
        <time>2022-06-11T09:17:02Z</time>
      </trkpt>
      <trkpt lat="42.8793120" lon="-5.4425930">
        <ele>1455.4</ele>
        <time>2022-06-11T09:17:04Z</time>
      </trkpt>
      <trkpt lat="42.8793030" lon="-5.4425550">
        <ele>1455.8</ele>
        <time>2022-06-11T09:17:06Z</time>
      </trkpt>
      <trkpt lat="42.8792920" lon="-5.4424370">
        <ele>1456.4</ele>
        <time>2022-06-11T09:17:14Z</time>
      </trkpt>
      <trkpt lat="42.8792950" lon="-5.4423900">
        <ele>1457.6</ele>
        <time>2022-06-11T09:17:17Z</time>
      </trkpt>
      <trkpt lat="42.8792850" lon="-5.4423160">
        <ele>1457.4</ele>
        <time>2022-06-11T09:17:21Z</time>
      </trkpt>
      <trkpt lat="42.8792730" lon="-5.4422300">
        <ele>1458.4</ele>
        <time>2022-06-11T09:17:27Z</time>
      </trkpt>
      <trkpt lat="42.8792750" lon="-5.4422200">
        <ele>1458.6</ele>
        <time>2022-06-11T09:17:28Z</time>
      </trkpt>
      <trkpt lat="42.8792790" lon="-5.4422080">
        <ele>1458.8</ele>
        <time>2022-06-11T09:17:29Z</time>
      </trkpt>
      <trkpt lat="42.8792800" lon="-5.4421800">
        <ele>1459.6</ele>
        <time>2022-06-11T09:17:31Z</time>
      </trkpt>
      <trkpt lat="42.8792800" lon="-5.4421620">
        <ele>1460.0</ele>
        <time>2022-06-11T09:17:32Z</time>
      </trkpt>
      <trkpt lat="42.8792730" lon="-5.4421030">
        <ele>1460.2</ele>
        <time>2022-06-11T09:17:35Z</time>
      </trkpt>
      <trkpt lat="42.8792500" lon="-5.4419540">
        <ele>1460.2</ele>
        <time>2022-06-11T09:17:44Z</time>
      </trkpt>
      <trkpt lat="42.8792430" lon="-5.4419030">
        <ele>1461.0</ele>
        <time>2022-06-11T09:17:47Z</time>
      </trkpt>
      <trkpt lat="42.8792100" lon="-5.4418020">
        <ele>1462.0</ele>
        <time>2022-06-11T09:17:53Z</time>
      </trkpt>
      <trkpt lat="42.8792060" lon="-5.4417860">
        <ele>1462.2</ele>
        <time>2022-06-11T09:17:54Z</time>
      </trkpt>
      <trkpt lat="42.8791860" lon="-5.4416990">
        <ele>1462.4</ele>
        <time>2022-06-11T09:17:59Z</time>
      </trkpt>
      <trkpt lat="42.8791650" lon="-5.4415790">
        <ele>1462.4</ele>
        <time>2022-06-11T09:18:04Z</time>
      </trkpt>
      <trkpt lat="42.8791260" lon="-5.4413890">
        <ele>1463.2</ele>
        <time>2022-06-11T09:18:10Z</time>
      </trkpt>
      <trkpt lat="42.8791160" lon="-5.4413220">
        <ele>1463.4</ele>
        <time>2022-06-11T09:18:12Z</time>
      </trkpt>
      <trkpt lat="42.8790620" lon="-5.4411540">
        <ele>1463.8</ele>
        <time>2022-06-11T09:18:18Z</time>
      </trkpt>
      <trkpt lat="42.8789940" lon="-5.4409260">
        <ele>1463.2</ele>
        <time>2022-06-11T09:18:25Z</time>
      </trkpt>
      <trkpt lat="42.8789540" lon="-5.4408080">
        <ele>1463.2</ele>
        <time>2022-06-11T09:18:29Z</time>
      </trkpt>
      <trkpt lat="42.8789200" lon="-5.4406810">
        <ele>1464.4</ele>
        <time>2022-06-11T09:18:35Z</time>
      </trkpt>
      <trkpt lat="42.8789160" lon="-5.4406650">
        <ele>1464.6</ele>
        <time>2022-06-11T09:18:36Z</time>
      </trkpt>
      <trkpt lat="42.8788780" lon="-5.4405090">
        <ele>1465.0</ele>
        <time>2022-06-11T09:18:45Z</time>
      </trkpt>
      <trkpt lat="42.8788640" lon="-5.4404500">
        <ele>1465.4</ele>
        <time>2022-06-11T09:18:48Z</time>
      </trkpt>
      <trkpt lat="42.8788330" lon="-5.4403910">
        <ele>1465.8</ele>
        <time>2022-06-11T09:18:52Z</time>
      </trkpt>
      <trkpt lat="42.8788290" lon="-5.4403770">
        <ele>1465.8</ele>
        <time>2022-06-11T09:18:53Z</time>
      </trkpt>
      <trkpt lat="42.8788200" lon="-5.4403590">
        <ele>1465.8</ele>
        <time>2022-06-11T09:18:55Z</time>
      </trkpt>
      <trkpt lat="42.8788000" lon="-5.4403230">
        <ele>1466.6</ele>
        <time>2022-06-11T09:18:59Z</time>
      </trkpt>
      <trkpt lat="42.8787840" lon="-5.4403000">
        <ele>1467.6</ele>
        <time>2022-06-11T09:19:02Z</time>
      </trkpt>
      <trkpt lat="42.8787770" lon="-5.4402940">
        <ele>1467.6</ele>
        <time>2022-06-11T09:19:03Z</time>
      </trkpt>
      <trkpt lat="42.8787650" lon="-5.4402510">
        <ele>1468.4</ele>
        <time>2022-06-11T09:19:08Z</time>
      </trkpt>
      <trkpt lat="42.8787300" lon="-5.4402200">
        <ele>1468.8</ele>
        <time>2022-06-11T09:19:13Z</time>
      </trkpt>
      <trkpt lat="42.8786980" lon="-5.4401900">
        <ele>1469.2</ele>
        <time>2022-06-11T09:19:17Z</time>
      </trkpt>
      <trkpt lat="42.8786830" lon="-5.4401770">
        <ele>1469.8</ele>
        <time>2022-06-11T09:19:19Z</time>
      </trkpt>
      <trkpt lat="42.8786430" lon="-5.4401520">
        <ele>1470.8</ele>
        <time>2022-06-11T09:19:24Z</time>
      </trkpt>
      <trkpt lat="42.8786330" lon="-5.4401450">
        <ele>1471.2</ele>
        <time>2022-06-11T09:19:26Z</time>
      </trkpt>
      <trkpt lat="42.8786210" lon="-5.4401430">
        <ele>1472.0</ele>
        <time>2022-06-11T09:19:30Z</time>
      </trkpt>
      <trkpt lat="42.8785900" lon="-5.4401310">
        <ele>1472.2</ele>
        <time>2022-06-11T09:19:33Z</time>
      </trkpt>
      <trkpt lat="42.8785520" lon="-5.4401000">
        <ele>1473.2</ele>
        <time>2022-06-11T09:19:37Z</time>
      </trkpt>
      <trkpt lat="42.8785110" lon="-5.4400860">
        <ele>1474.2</ele>
        <time>2022-06-11T09:19:41Z</time>
      </trkpt>
      <trkpt lat="42.8785060" lon="-5.4400860">
        <ele>1474.2</ele>
        <time>2022-06-11T09:19:42Z</time>
      </trkpt>
      <trkpt lat="42.8784970" lon="-5.4400790">
        <ele>1474.6</ele>
        <time>2022-06-11T09:19:44Z</time>
      </trkpt>
      <trkpt lat="42.8784810" lon="-5.4400730">
        <ele>1475.2</ele>
        <time>2022-06-11T09:19:47Z</time>
      </trkpt>
      <trkpt lat="42.8784760" lon="-5.4400790">
        <ele>1475.2</ele>
        <time>2022-06-11T09:19:48Z</time>
      </trkpt>
      <trkpt lat="42.8784610" lon="-5.4400890">
        <ele>1476.0</ele>
        <time>2022-06-11T09:19:52Z</time>
      </trkpt>
      <trkpt lat="42.8784510" lon="-5.4400890">
        <ele>1476.4</ele>
        <time>2022-06-11T09:19:54Z</time>
      </trkpt>
      <trkpt lat="42.8784420" lon="-5.4400940">
        <ele>1477.2</ele>
        <time>2022-06-11T09:19:57Z</time>
      </trkpt>
      <trkpt lat="42.8784380" lon="-5.4400930">
        <ele>1477.6</ele>
        <time>2022-06-11T09:19:58Z</time>
      </trkpt>
      <trkpt lat="42.8784290" lon="-5.4400890">
        <ele>1477.8</ele>
        <time>2022-06-11T09:19:59Z</time>
      </trkpt>
      <trkpt lat="42.8784030" lon="-5.4400860">
        <ele>1478.6</ele>
        <time>2022-06-11T09:20:04Z</time>
      </trkpt>
      <trkpt lat="42.8783680" lon="-5.4400890">
        <ele>1479.8</ele>
        <time>2022-06-11T09:20:09Z</time>
      </trkpt>
      <trkpt lat="42.8783250" lon="-5.4400850">
        <ele>1481.0</ele>
        <time>2022-06-11T09:20:15Z</time>
      </trkpt>
      <trkpt lat="42.8783080" lon="-5.4400860">
        <ele>1481.4</ele>
        <time>2022-06-11T09:20:17Z</time>
      </trkpt>
      <trkpt lat="42.8782750" lon="-5.4401070">
        <ele>1482.0</ele>
        <time>2022-06-11T09:20:22Z</time>
      </trkpt>
      <trkpt lat="42.8782520" lon="-5.4401150">
        <ele>1482.6</ele>
        <time>2022-06-11T09:20:24Z</time>
      </trkpt>
      <trkpt lat="42.8782250" lon="-5.4401210">
        <ele>1483.2</ele>
        <time>2022-06-11T09:20:27Z</time>
      </trkpt>
      <trkpt lat="42.8781880" lon="-5.4401320">
        <ele>1484.0</ele>
        <time>2022-06-11T09:20:32Z</time>
      </trkpt>
      <trkpt lat="42.8781740" lon="-5.4401280">
        <ele>1484.2</ele>
        <time>2022-06-11T09:20:33Z</time>
      </trkpt>
      <trkpt lat="42.8781410" lon="-5.4401430">
        <ele>1485.2</ele>
        <time>2022-06-11T09:20:37Z</time>
      </trkpt>
      <trkpt lat="42.8781340" lon="-5.4401480">
        <ele>1485.6</ele>
        <time>2022-06-11T09:20:38Z</time>
      </trkpt>
      <trkpt lat="42.8781140" lon="-5.4401600">
        <ele>1486.2</ele>
        <time>2022-06-11T09:20:41Z</time>
      </trkpt>
      <trkpt lat="42.8780910" lon="-5.4401750">
        <ele>1487.2</ele>
        <time>2022-06-11T09:20:45Z</time>
      </trkpt>
      <trkpt lat="42.8780840" lon="-5.4401800">
        <ele>1487.4</ele>
        <time>2022-06-11T09:20:46Z</time>
      </trkpt>
      <trkpt lat="42.8780260" lon="-5.4401730">
        <ele>1488.6</ele>
        <time>2022-06-11T09:20:52Z</time>
      </trkpt>
      <trkpt lat="42.8780180" lon="-5.4401760">
        <ele>1489.0</ele>
        <time>2022-06-11T09:20:53Z</time>
      </trkpt>
      <trkpt lat="42.8779850" lon="-5.4401940">
        <ele>1489.8</ele>
        <time>2022-06-11T09:20:59Z</time>
      </trkpt>
      <trkpt lat="42.8779830" lon="-5.4401950">
        <ele>1490.0</ele>
        <time>2022-06-11T09:21:00Z</time>
      </trkpt>
      <trkpt lat="42.8779750" lon="-5.4401980">
        <ele>1490.2</ele>
        <time>2022-06-11T09:21:01Z</time>
      </trkpt>
      <trkpt lat="42.8779560" lon="-5.4402060">
        <ele>1491.0</ele>
        <time>2022-06-11T09:21:04Z</time>
      </trkpt>
      <trkpt lat="42.8779140" lon="-5.4402200">
        <ele>1492.0</ele>
        <time>2022-06-11T09:21:10Z</time>
      </trkpt>
      <trkpt lat="42.8779070" lon="-5.4402320">
        <ele>1492.4</ele>
        <time>2022-06-11T09:21:12Z</time>
      </trkpt>
      <trkpt lat="42.8778860" lon="-5.4402410">
        <ele>1493.0</ele>
        <time>2022-06-11T09:21:16Z</time>
      </trkpt>
      <trkpt lat="42.8778580" lon="-5.4402660">
        <ele>1494.2</ele>
        <time>2022-06-11T09:21:21Z</time>
      </trkpt>
      <trkpt lat="42.8778270" lon="-5.4402740">
        <ele>1495.2</ele>
        <time>2022-06-11T09:21:25Z</time>
      </trkpt>
      <trkpt lat="42.8778040" lon="-5.4402910">
        <ele>1496.0</ele>
        <time>2022-06-11T09:21:29Z</time>
      </trkpt>
      <trkpt lat="42.8777920" lon="-5.4402980">
        <ele>1496.4</ele>
        <time>2022-06-11T09:21:31Z</time>
      </trkpt>
      <trkpt lat="42.8777470" lon="-5.4403090">
        <ele>1497.4</ele>
        <time>2022-06-11T09:21:37Z</time>
      </trkpt>
      <trkpt lat="42.8777400" lon="-5.4403080">
        <ele>1497.6</ele>
        <time>2022-06-11T09:21:38Z</time>
      </trkpt>
      <trkpt lat="42.8777120" lon="-5.4403180">
        <ele>1498.6</ele>
        <time>2022-06-11T09:21:42Z</time>
      </trkpt>
      <trkpt lat="42.8776990" lon="-5.4403290">
        <ele>1498.8</ele>
        <time>2022-06-11T09:21:45Z</time>
      </trkpt>
      <trkpt lat="42.8776820" lon="-5.4403280">
        <ele>1499.6</ele>
        <time>2022-06-11T09:21:48Z</time>
      </trkpt>
      <trkpt lat="42.8776650" lon="-5.4403240">
        <ele>1500.2</ele>
        <time>2022-06-11T09:21:50Z</time>
      </trkpt>
      <trkpt lat="42.8776520" lon="-5.4403360">
        <ele>1500.8</ele>
        <time>2022-06-11T09:21:53Z</time>
      </trkpt>
      <trkpt lat="42.8776330" lon="-5.4403310">
        <ele>1501.4</ele>
        <time>2022-06-11T09:21:56Z</time>
      </trkpt>
      <trkpt lat="42.8775930" lon="-5.4403410">
        <ele>1502.0</ele>
        <time>2022-06-11T09:22:00Z</time>
      </trkpt>
      <trkpt lat="42.8775760" lon="-5.4403670">
        <ele>1502.4</ele>
        <time>2022-06-11T09:22:03Z</time>
      </trkpt>
      <trkpt lat="42.8775680" lon="-5.4403780">
        <ele>1502.6</ele>
        <time>2022-06-11T09:22:04Z</time>
      </trkpt>
      <trkpt lat="42.8775510" lon="-5.4403980">
        <ele>1503.2</ele>
        <time>2022-06-11T09:22:07Z</time>
      </trkpt>
      <trkpt lat="42.8775130" lon="-5.4404240">
        <ele>1504.2</ele>
        <time>2022-06-11T09:22:12Z</time>
      </trkpt>
      <trkpt lat="42.8775020" lon="-5.4404450">
        <ele>1504.6</ele>
        <time>2022-06-11T09:22:14Z</time>
      </trkpt>
      <trkpt lat="42.8774760" lon="-5.4404680">
        <ele>1505.4</ele>
        <time>2022-06-11T09:22:18Z</time>
      </trkpt>
      <trkpt lat="42.8774590" lon="-5.4404770">
        <ele>1506.2</ele>
        <time>2022-06-11T09:22:20Z</time>
      </trkpt>
      <trkpt lat="42.8774410" lon="-5.4405000">
        <ele>1506.6</ele>
        <time>2022-06-11T09:22:22Z</time>
      </trkpt>
      <trkpt lat="42.8773980" lon="-5.4405560">
        <ele>1507.4</ele>
        <time>2022-06-11T09:22:28Z</time>
      </trkpt>
      <trkpt lat="42.8773810" lon="-5.4405670">
        <ele>1507.8</ele>
        <time>2022-06-11T09:22:30Z</time>
      </trkpt>
      <trkpt lat="42.8773430" lon="-5.4405920">
        <ele>1508.8</ele>
        <time>2022-06-11T09:22:36Z</time>
      </trkpt>
      <trkpt lat="42.8773350" lon="-5.4405970">
        <ele>1509.0</ele>
        <time>2022-06-11T09:22:37Z</time>
      </trkpt>
      <trkpt lat="42.8773170" lon="-5.4406090">
        <ele>1509.6</ele>
        <time>2022-06-11T09:22:39Z</time>
      </trkpt>
      <trkpt lat="42.8773040" lon="-5.4406230">
        <ele>1510.2</ele>
        <time>2022-06-11T09:22:41Z</time>
      </trkpt>
      <trkpt lat="42.8772690" lon="-5.4406650">
        <ele>1511.2</ele>
        <time>2022-06-11T09:22:46Z</time>
      </trkpt>
      <trkpt lat="42.8772560" lon="-5.4406970">
        <ele>1512.0</ele>
        <time>2022-06-11T09:22:49Z</time>
      </trkpt>
      <trkpt lat="42.8772420" lon="-5.4407240">
        <ele>1512.2</ele>
        <time>2022-06-11T09:22:51Z</time>
      </trkpt>
      <trkpt lat="42.8771940" lon="-5.4407790">
        <ele>1513.2</ele>
        <time>2022-06-11T09:22:57Z</time>
      </trkpt>
      <trkpt lat="42.8771870" lon="-5.4407870">
        <ele>1513.2</ele>
        <time>2022-06-11T09:22:58Z</time>
      </trkpt>
      <trkpt lat="42.8771510" lon="-5.4408030">
        <ele>1514.4</ele>
        <time>2022-06-11T09:23:02Z</time>
      </trkpt>
      <trkpt lat="42.8771150" lon="-5.4408230">
        <ele>1515.2</ele>
        <time>2022-06-11T09:23:05Z</time>
      </trkpt>
      <trkpt lat="42.8770880" lon="-5.4408270">
        <ele>1515.4</ele>
        <time>2022-06-11T09:23:07Z</time>
      </trkpt>
      <trkpt lat="42.8770340" lon="-5.4408340">
        <ele>1516.0</ele>
        <time>2022-06-11T09:23:12Z</time>
      </trkpt>
      <trkpt lat="42.8769580" lon="-5.4408490">
        <ele>1516.4</ele>
        <time>2022-06-11T09:23:18Z</time>
      </trkpt>
      <trkpt lat="42.8769310" lon="-5.4408520">
        <ele>1516.4</ele>
        <time>2022-06-11T09:23:20Z</time>
      </trkpt>
      <trkpt lat="42.8768980" lon="-5.4408220">
        <ele>1516.6</ele>
        <time>2022-06-11T09:23:25Z</time>
      </trkpt>
      <trkpt lat="42.8768860" lon="-5.4408020">
        <ele>1516.8</ele>
        <time>2022-06-11T09:23:27Z</time>
      </trkpt>
      <trkpt lat="42.8768780" lon="-5.4407930">
        <ele>1516.6</ele>
        <time>2022-06-11T09:23:30Z</time>
      </trkpt>
      <trkpt lat="42.8768780" lon="-5.4407920">
        <ele>1516.6</ele>
        <time>2022-06-11T09:23:32Z</time>
      </trkpt>
      <trkpt lat="42.8768790" lon="-5.4407920">
        <ele>1516.6</ele>
        <time>2022-06-11T09:23:34Z</time>
      </trkpt>
      <trkpt lat="42.8768810" lon="-5.4407870">
        <ele>1516.0</ele>
        <time>2022-06-11T09:23:41Z</time>
      </trkpt>
      <trkpt lat="42.8768810" lon="-5.4407870">
        <ele>1516.0</ele>
        <time>2022-06-11T09:23:47Z</time>
      </trkpt>
      <trkpt lat="42.8768810" lon="-5.4407870">
        <ele>1516.0</ele>
        <time>2022-06-11T09:23:49Z</time>
      </trkpt>
      <trkpt lat="42.8768810" lon="-5.4407870">
        <ele>1515.8</ele>
        <time>2022-06-11T09:23:52Z</time>
      </trkpt>
      <trkpt lat="42.8768810" lon="-5.4407870">
        <ele>1515.6</ele>
        <time>2022-06-11T09:23:55Z</time>
      </trkpt>
      <trkpt lat="42.8768810" lon="-5.4407880">
        <ele>1515.4</ele>
        <time>2022-06-11T09:23:58Z</time>
      </trkpt>
      <trkpt lat="42.8768810" lon="-5.4407900">
        <ele>1515.4</ele>
        <time>2022-06-11T09:24:04Z</time>
      </trkpt>
      <trkpt lat="42.8768810" lon="-5.4407900">
        <ele>1515.4</ele>
        <time>2022-06-11T09:24:06Z</time>
      </trkpt>
      <trkpt lat="42.8768790" lon="-5.4407990">
        <ele>1515.2</ele>
        <time>2022-06-11T09:24:16Z</time>
      </trkpt>
      <trkpt lat="42.8768800" lon="-5.4408150">
        <ele>1515.0</ele>
        <time>2022-06-11T09:24:28Z</time>
      </trkpt>
      <trkpt lat="42.8768580" lon="-5.4407730">
        <ele>1515.4</ele>
        <time>2022-06-11T09:24:41Z</time>
      </trkpt>
      <trkpt lat="42.8768480" lon="-5.4407580">
        <ele>1515.6</ele>
        <time>2022-06-11T09:24:42Z</time>
      </trkpt>
      <trkpt lat="42.8768390" lon="-5.4407460">
        <ele>1515.8</ele>
        <time>2022-06-11T09:24:43Z</time>
      </trkpt>
      <trkpt lat="42.8768210" lon="-5.4407140">
        <ele>1515.8</ele>
        <time>2022-06-11T09:24:45Z</time>
      </trkpt>
      <trkpt lat="42.8767960" lon="-5.4406870">
        <ele>1515.8</ele>
        <time>2022-06-11T09:24:47Z</time>
      </trkpt>
      <trkpt lat="42.8767630" lon="-5.4406540">
        <ele>1516.6</ele>
        <time>2022-06-11T09:24:51Z</time>
      </trkpt>
      <trkpt lat="42.8767250" lon="-5.4406270">
        <ele>1517.8</ele>
        <time>2022-06-11T09:24:54Z</time>
      </trkpt>
      <trkpt lat="42.8767180" lon="-5.4406090">
        <ele>1518.0</ele>
        <time>2022-06-11T09:24:55Z</time>
      </trkpt>
      <trkpt lat="42.8767160" lon="-5.4405770">
        <ele>1518.2</ele>
        <time>2022-06-11T09:24:57Z</time>
      </trkpt>
      <trkpt lat="42.8767010" lon="-5.4405170">
        <ele>1519.0</ele>
        <time>2022-06-11T09:25:00Z</time>
      </trkpt>
      <trkpt lat="42.8766880" lon="-5.4404900">
        <ele>1519.6</ele>
        <time>2022-06-11T09:25:02Z</time>
      </trkpt>
      <trkpt lat="42.8766840" lon="-5.4404730">
        <ele>1519.8</ele>
        <time>2022-06-11T09:25:03Z</time>
      </trkpt>
      <trkpt lat="42.8766810" lon="-5.4404470">
        <ele>1520.0</ele>
        <time>2022-06-11T09:25:05Z</time>
      </trkpt>
      <trkpt lat="42.8766740" lon="-5.4404060">
        <ele>1521.2</ele>
        <time>2022-06-11T09:25:08Z</time>
      </trkpt>
      <trkpt lat="42.8766690" lon="-5.4403770">
        <ele>1522.0</ele>
        <time>2022-06-11T09:25:10Z</time>
      </trkpt>
      <trkpt lat="42.8766620" lon="-5.4403600">
        <ele>1522.2</ele>
        <time>2022-06-11T09:25:11Z</time>
      </trkpt>
      <trkpt lat="42.8766560" lon="-5.4403470">
        <ele>1522.4</ele>
        <time>2022-06-11T09:25:12Z</time>
      </trkpt>
      <trkpt lat="42.8766450" lon="-5.4403010">
        <ele>1522.6</ele>
        <time>2022-06-11T09:25:15Z</time>
      </trkpt>
      <trkpt lat="42.8766530" lon="-5.4402810">
        <ele>1522.8</ele>
        <time>2022-06-11T09:25:17Z</time>
      </trkpt>
      <trkpt lat="42.8766550" lon="-5.4402550">
        <ele>1524.0</ele>
        <time>2022-06-11T09:25:19Z</time>
      </trkpt>
      <trkpt lat="42.8766520" lon="-5.4401880">
        <ele>1525.0</ele>
        <time>2022-06-11T09:25:23Z</time>
      </trkpt>
      <trkpt lat="42.8766570" lon="-5.4401030">
        <ele>1526.0</ele>
        <time>2022-06-11T09:25:29Z</time>
      </trkpt>
      <trkpt lat="42.8766540" lon="-5.4400850">
        <ele>1526.4</ele>
        <time>2022-06-11T09:25:30Z</time>
      </trkpt>
      <trkpt lat="42.8766530" lon="-5.4400060">
        <ele>1527.0</ele>
        <time>2022-06-11T09:25:35Z</time>
      </trkpt>
      <trkpt lat="42.8766560" lon="-5.4399980">
        <ele>1527.2</ele>
        <time>2022-06-11T09:25:36Z</time>
      </trkpt>
      <trkpt lat="42.8766680" lon="-5.4399640">
        <ele>1528.4</ele>
        <time>2022-06-11T09:25:39Z</time>
      </trkpt>
      <trkpt lat="42.8766660" lon="-5.4398710">
        <ele>1528.8</ele>
        <time>2022-06-11T09:25:44Z</time>
      </trkpt>
      <trkpt lat="42.8766740" lon="-5.4398020">
        <ele>1529.4</ele>
        <time>2022-06-11T09:25:49Z</time>
      </trkpt>
      <trkpt lat="42.8766770" lon="-5.4397930">
        <ele>1530.6</ele>
        <time>2022-06-11T09:25:50Z</time>
      </trkpt>
      <trkpt lat="42.8766750" lon="-5.4397680">
        <ele>1531.4</ele>
        <time>2022-06-11T09:25:52Z</time>
      </trkpt>
      <trkpt lat="42.8766510" lon="-5.4396850">
        <ele>1530.8</ele>
        <time>2022-06-11T09:25:58Z</time>
      </trkpt>
      <trkpt lat="42.8766400" lon="-5.4396730">
        <ele>1531.0</ele>
        <time>2022-06-11T09:25:59Z</time>
      </trkpt>
      <trkpt lat="42.8766310" lon="-5.4396520">
        <ele>1531.6</ele>
        <time>2022-06-11T09:26:01Z</time>
      </trkpt>
      <trkpt lat="42.8765860" lon="-5.4395870">
        <ele>1532.2</ele>
        <time>2022-06-11T09:26:06Z</time>
      </trkpt>
      <trkpt lat="42.8765410" lon="-5.4395380">
        <ele>1532.0</ele>
        <time>2022-06-11T09:26:10Z</time>
      </trkpt>
      <trkpt lat="42.8765110" lon="-5.4394870">
        <ele>1532.8</ele>
        <time>2022-06-11T09:26:14Z</time>
      </trkpt>
      <trkpt lat="42.8764980" lon="-5.4394740">
        <ele>1532.8</ele>
        <time>2022-06-11T09:26:15Z</time>
      </trkpt>
      <trkpt lat="42.8764320" lon="-5.4394230">
        <ele>1533.0</ele>
        <time>2022-06-11T09:26:20Z</time>
      </trkpt>
      <trkpt lat="42.8764260" lon="-5.4394040">
        <ele>1533.2</ele>
        <time>2022-06-11T09:26:21Z</time>
      </trkpt>
      <trkpt lat="42.8764090" lon="-5.4393230">
        <ele>1534.0</ele>
        <time>2022-06-11T09:26:26Z</time>
      </trkpt>
      <trkpt lat="42.8763920" lon="-5.4392350">
        <ele>1535.0</ele>
        <time>2022-06-11T09:26:32Z</time>
      </trkpt>
      <trkpt lat="42.8763870" lon="-5.4392150">
        <ele>1535.2</ele>
        <time>2022-06-11T09:26:33Z</time>
      </trkpt>
      <trkpt lat="42.8763720" lon="-5.4391250">
        <ele>1535.6</ele>
        <time>2022-06-11T09:26:40Z</time>
      </trkpt>
      <trkpt lat="42.8763760" lon="-5.4391020">
        <ele>1536.2</ele>
        <time>2022-06-11T09:26:42Z</time>
      </trkpt>
      <trkpt lat="42.8763930" lon="-5.4390330">
        <ele>1537.2</ele>
        <time>2022-06-11T09:26:50Z</time>
      </trkpt>
      <trkpt lat="42.8764010" lon="-5.4390410">
        <ele>1537.4</ele>
        <time>2022-06-11T09:26:51Z</time>
      </trkpt>
      <trkpt lat="42.8763910" lon="-5.4390460">
        <ele>1537.8</ele>
        <time>2022-06-11T09:26:54Z</time>
      </trkpt>
      <trkpt lat="42.8763930" lon="-5.4390490">
        <ele>1538.4</ele>
        <time>2022-06-11T09:26:55Z</time>
      </trkpt>
      <trkpt lat="42.8764060" lon="-5.4390400">
        <ele>1537.4</ele>
        <time>2022-06-11T09:26:58Z</time>
      </trkpt>
      <trkpt lat="42.8764090" lon="-5.4390310">
        <ele>1537.0</ele>
        <time>2022-06-11T09:26:59Z</time>
      </trkpt>
      <trkpt lat="42.8764140" lon="-5.4389570">
        <ele>1536.4</ele>
        <time>2022-06-11T09:27:04Z</time>
      </trkpt>
      <trkpt lat="42.8763990" lon="-5.4388420">
        <ele>1535.6</ele>
        <time>2022-06-11T09:27:08Z</time>
      </trkpt>
      <trkpt lat="42.8763910" lon="-5.4388110">
        <ele>1534.6</ele>
        <time>2022-06-11T09:27:09Z</time>
      </trkpt>
      <trkpt lat="42.8763670" lon="-5.4387320">
        <ele>1533.4</ele>
        <time>2022-06-11T09:27:12Z</time>
      </trkpt>
      <trkpt lat="42.8763460" lon="-5.4385990">
        <ele>1533.0</ele>
        <time>2022-06-11T09:27:16Z</time>
      </trkpt>
      <trkpt lat="42.8763260" lon="-5.4385230">
        <ele>1532.4</ele>
        <time>2022-06-11T09:27:19Z</time>
      </trkpt>
      <trkpt lat="42.8763300" lon="-5.4385070">
        <ele>1532.2</ele>
        <time>2022-06-11T09:27:20Z</time>
      </trkpt>
      <trkpt lat="42.8763230" lon="-5.4384460">
        <ele>1531.6</ele>
        <time>2022-06-11T09:27:23Z</time>
      </trkpt>
      <trkpt lat="42.8763160" lon="-5.4383890">
        <ele>1531.4</ele>
        <time>2022-06-11T09:27:26Z</time>
      </trkpt>
      <trkpt lat="42.8763180" lon="-5.4383650">
        <ele>1531.2</ele>
        <time>2022-06-11T09:27:27Z</time>
      </trkpt>
      <trkpt lat="42.8763080" lon="-5.4382480">
        <ele>1530.0</ele>
        <time>2022-06-11T09:27:31Z</time>
      </trkpt>
      <trkpt lat="42.8763030" lon="-5.4381900">
        <ele>1528.8</ele>
        <time>2022-06-11T09:27:33Z</time>
      </trkpt>
      <trkpt lat="42.8762980" lon="-5.4381000">
        <ele>1527.6</ele>
        <time>2022-06-11T09:27:36Z</time>
      </trkpt>
      <trkpt lat="42.8762920" lon="-5.4380760">
        <ele>1527.2</ele>
        <time>2022-06-11T09:27:37Z</time>
      </trkpt>
      <trkpt lat="42.8762810" lon="-5.4380530">
        <ele>1526.6</ele>
        <time>2022-06-11T09:27:38Z</time>
      </trkpt>
      <trkpt lat="42.8762700" lon="-5.4380390">
        <ele>1525.8</ele>
        <time>2022-06-11T09:27:39Z</time>
      </trkpt>
      <trkpt lat="42.8762580" lon="-5.4380210">
        <ele>1525.6</ele>
        <time>2022-06-11T09:27:40Z</time>
      </trkpt>
      <trkpt lat="42.8762190" lon="-5.4379390">
        <ele>1524.4</ele>
        <time>2022-06-11T09:27:44Z</time>
      </trkpt>
      <trkpt lat="42.8762090" lon="-5.4379170">
        <ele>1523.8</ele>
        <time>2022-06-11T09:27:45Z</time>
      </trkpt>
      <trkpt lat="42.8761950" lon="-5.4378680">
        <ele>1523.0</ele>
        <time>2022-06-11T09:27:47Z</time>
      </trkpt>
      <trkpt lat="42.8761810" lon="-5.4378140">
        <ele>1521.8</ele>
        <time>2022-06-11T09:27:49Z</time>
      </trkpt>
      <trkpt lat="42.8761520" lon="-5.4377620">
        <ele>1521.0</ele>
        <time>2022-06-11T09:27:53Z</time>
      </trkpt>
      <trkpt lat="42.8761300" lon="-5.4377120">
        <ele>1520.8</ele>
        <time>2022-06-11T09:27:55Z</time>
      </trkpt>
      <trkpt lat="42.8761050" lon="-5.4376560">
        <ele>1519.6</ele>
        <time>2022-06-11T09:27:57Z</time>
      </trkpt>
      <trkpt lat="42.8760920" lon="-5.4376240">
        <ele>1519.2</ele>
        <time>2022-06-11T09:27:58Z</time>
      </trkpt>
      <trkpt lat="42.8760760" lon="-5.4375560">
        <ele>1518.4</ele>
        <time>2022-06-11T09:28:00Z</time>
      </trkpt>
      <trkpt lat="42.8760290" lon="-5.4374860">
        <ele>1517.6</ele>
        <time>2022-06-11T09:28:03Z</time>
      </trkpt>
      <trkpt lat="42.8760010" lon="-5.4374610">
        <ele>1517.2</ele>
        <time>2022-06-11T09:28:04Z</time>
      </trkpt>
      <trkpt lat="42.8759330" lon="-5.4373930">
        <ele>1515.8</ele>
        <time>2022-06-11T09:28:07Z</time>
      </trkpt>
      <trkpt lat="42.8758580" lon="-5.4373390">
        <ele>1514.8</ele>
        <time>2022-06-11T09:28:10Z</time>
      </trkpt>
      <trkpt lat="42.8757780" lon="-5.4373210">
        <ele>1513.4</ele>
        <time>2022-06-11T09:28:13Z</time>
      </trkpt>
      <trkpt lat="42.8757080" lon="-5.4373080">
        <ele>1512.2</ele>
        <time>2022-06-11T09:28:16Z</time>
      </trkpt>
      <trkpt lat="42.8757010" lon="-5.4373060">
        <ele>1512.0</ele>
        <time>2022-06-11T09:28:17Z</time>
      </trkpt>
      <trkpt lat="42.8756930" lon="-5.4373080">
        <ele>1511.2</ele>
        <time>2022-06-11T09:28:20Z</time>
      </trkpt>
      <trkpt lat="42.8756900" lon="-5.4373080">
        <ele>1511.0</ele>
        <time>2022-06-11T09:28:21Z</time>
      </trkpt>
      <trkpt lat="42.8756830" lon="-5.4373070">
        <ele>1510.8</ele>
        <time>2022-06-11T09:28:22Z</time>
      </trkpt>
      <trkpt lat="42.8756710" lon="-5.4373080">
        <ele>1510.8</ele>
        <time>2022-06-11T09:28:23Z</time>
      </trkpt>
      <trkpt lat="42.8756530" lon="-5.4373060">
        <ele>1510.8</ele>
        <time>2022-06-11T09:28:24Z</time>
      </trkpt>
      <trkpt lat="42.8756000" lon="-5.4372870">
        <ele>1510.4</ele>
        <time>2022-06-11T09:28:26Z</time>
      </trkpt>
      <trkpt lat="42.8755770" lon="-5.4372740">
        <ele>1510.0</ele>
        <time>2022-06-11T09:28:27Z</time>
      </trkpt>
      <trkpt lat="42.8754980" lon="-5.4372410">
        <ele>1508.8</ele>
        <time>2022-06-11T09:28:30Z</time>
      </trkpt>
      <trkpt lat="42.8754440" lon="-5.4372100">
        <ele>1508.0</ele>
        <time>2022-06-11T09:28:32Z</time>
      </trkpt>
      <trkpt lat="42.8754240" lon="-5.4371980">
        <ele>1507.8</ele>
        <time>2022-06-11T09:28:33Z</time>
      </trkpt>
      <trkpt lat="42.8753660" lon="-5.4371560">
        <ele>1507.0</ele>
        <time>2022-06-11T09:28:36Z</time>
      </trkpt>
      <trkpt lat="42.8753080" lon="-5.4371430">
        <ele>1506.8</ele>
        <time>2022-06-11T09:28:38Z</time>
      </trkpt>
      <trkpt lat="42.8752860" lon="-5.4371480">
        <ele>1506.6</ele>
        <time>2022-06-11T09:28:39Z</time>
      </trkpt>
      <trkpt lat="42.8751870" lon="-5.4371530">
        <ele>1505.6</ele>
        <time>2022-06-11T09:28:43Z</time>
      </trkpt>
      <trkpt lat="42.8750870" lon="-5.4371700">
        <ele>1505.4</ele>
        <time>2022-06-11T09:28:47Z</time>
      </trkpt>
      <trkpt lat="42.8749940" lon="-5.4372480">
        <ele>1504.6</ele>
        <time>2022-06-11T09:28:51Z</time>
      </trkpt>
      <trkpt lat="42.8749480" lon="-5.4372710">
        <ele>1504.2</ele>
        <time>2022-06-11T09:28:53Z</time>
      </trkpt>
      <trkpt lat="42.8749240" lon="-5.4372700">
        <ele>1503.6</ele>
        <time>2022-06-11T09:28:54Z</time>
      </trkpt>
      <trkpt lat="42.8748420" lon="-5.4372940">
        <ele>1502.0</ele>
        <time>2022-06-11T09:28:57Z</time>
      </trkpt>
      <trkpt lat="42.8748140" lon="-5.4373140">
        <ele>1501.6</ele>
        <time>2022-06-11T09:28:58Z</time>
      </trkpt>
      <trkpt lat="42.8747870" lon="-5.4373390">
        <ele>1501.0</ele>
        <time>2022-06-11T09:28:59Z</time>
      </trkpt>
      <trkpt lat="42.8747240" lon="-5.4374240">
        <ele>1499.8</ele>
        <time>2022-06-11T09:29:02Z</time>
      </trkpt>
      <trkpt lat="42.8746860" lon="-5.4374670">
        <ele>1498.8</ele>
        <time>2022-06-11T09:29:04Z</time>
      </trkpt>
      <trkpt lat="42.8746600" lon="-5.4374980">
        <ele>1498.2</ele>
        <time>2022-06-11T09:29:05Z</time>
      </trkpt>
      <trkpt lat="42.8745850" lon="-5.4375670">
        <ele>1496.6</ele>
        <time>2022-06-11T09:29:08Z</time>
      </trkpt>
      <trkpt lat="42.8745400" lon="-5.4376240">
        <ele>1495.4</ele>
        <time>2022-06-11T09:29:10Z</time>
      </trkpt>
      <trkpt lat="42.8745230" lon="-5.4376430">
        <ele>1495.0</ele>
        <time>2022-06-11T09:29:11Z</time>
      </trkpt>
      <trkpt lat="42.8744680" lon="-5.4377230">
        <ele>1494.2</ele>
        <time>2022-06-11T09:29:14Z</time>
      </trkpt>
      <trkpt lat="42.8743970" lon="-5.4378650">
        <ele>1493.0</ele>
        <time>2022-06-11T09:29:18Z</time>
      </trkpt>
      <trkpt lat="42.8743610" lon="-5.4379300">
        <ele>1492.0</ele>
        <time>2022-06-11T09:29:20Z</time>
      </trkpt>
      <trkpt lat="42.8743220" lon="-5.4379970">
        <ele>1490.8</ele>
        <time>2022-06-11T09:29:22Z</time>
      </trkpt>
      <trkpt lat="42.8742680" lon="-5.4380940">
        <ele>1489.6</ele>
        <time>2022-06-11T09:29:25Z</time>
      </trkpt>
      <trkpt lat="42.8742560" lon="-5.4381280">
        <ele>1489.4</ele>
        <time>2022-06-11T09:29:26Z</time>
      </trkpt>
      <trkpt lat="42.8742470" lon="-5.4381600">
        <ele>1489.2</ele>
        <time>2022-06-11T09:29:27Z</time>
      </trkpt>
      <trkpt lat="42.8742420" lon="-5.4382080">
        <ele>1488.6</ele>
        <time>2022-06-11T09:29:29Z</time>
      </trkpt>
      <trkpt lat="42.8742560" lon="-5.4382590">
        <ele>1487.6</ele>
        <time>2022-06-11T09:29:31Z</time>
      </trkpt>
      <trkpt lat="42.8742550" lon="-5.4382780">
        <ele>1487.2</ele>
        <time>2022-06-11T09:29:32Z</time>
      </trkpt>
      <trkpt lat="42.8742260" lon="-5.4383550">
        <ele>1485.6</ele>
        <time>2022-06-11T09:29:35Z</time>
      </trkpt>
      <trkpt lat="42.8742060" lon="-5.4383750">
        <ele>1484.8</ele>
        <time>2022-06-11T09:29:36Z</time>
      </trkpt>
      <trkpt lat="42.8741870" lon="-5.4383980">
        <ele>1484.4</ele>
        <time>2022-06-11T09:29:37Z</time>
      </trkpt>
      <trkpt lat="42.8741680" lon="-5.4384510">
        <ele>1482.6</ele>
        <time>2022-06-11T09:29:39Z</time>
      </trkpt>
      <trkpt lat="42.8741540" lon="-5.4385050">
        <ele>1481.2</ele>
        <time>2022-06-11T09:29:41Z</time>
      </trkpt>
      <trkpt lat="42.8741380" lon="-5.4385300">
        <ele>1480.6</ele>
        <time>2022-06-11T09:29:42Z</time>
      </trkpt>
      <trkpt lat="42.8741210" lon="-5.4385550">
        <ele>1480.0</ele>
        <time>2022-06-11T09:29:43Z</time>
      </trkpt>
      <trkpt lat="42.8740770" lon="-5.4386200">
        <ele>1478.8</ele>
        <time>2022-06-11T09:29:46Z</time>
      </trkpt>
      <trkpt lat="42.8740620" lon="-5.4386720">
        <ele>1477.8</ele>
        <time>2022-06-11T09:29:48Z</time>
      </trkpt>
      <trkpt lat="42.8740430" lon="-5.4387350">
        <ele>1476.6</ele>
        <time>2022-06-11T09:29:51Z</time>
      </trkpt>
      <trkpt lat="42.8740310" lon="-5.4387970">
        <ele>1475.6</ele>
        <time>2022-06-11T09:29:54Z</time>
      </trkpt>
      <trkpt lat="42.8740160" lon="-5.4388310">
        <ele>1474.4</ele>
        <time>2022-06-11T09:29:56Z</time>
      </trkpt>
      <trkpt lat="42.8740060" lon="-5.4388550">
        <ele>1474.0</ele>
        <time>2022-06-11T09:29:57Z</time>
      </trkpt>
      <trkpt lat="42.8739900" lon="-5.4389320">
        <ele>1473.4</ele>
        <time>2022-06-11T09:30:00Z</time>
      </trkpt>
      <trkpt lat="42.8739490" lon="-5.4390130">
        <ele>1472.2</ele>
        <time>2022-06-11T09:30:03Z</time>
      </trkpt>
      <trkpt lat="42.8739260" lon="-5.4391110">
        <ele>1470.4</ele>
        <time>2022-06-11T09:30:06Z</time>
      </trkpt>
      <trkpt lat="42.8739020" lon="-5.4391940">
        <ele>1469.0</ele>
        <time>2022-06-11T09:30:09Z</time>
      </trkpt>
      <trkpt lat="42.8738820" lon="-5.4392510">
        <ele>1468.0</ele>
        <time>2022-06-11T09:30:11Z</time>
      </trkpt>
      <trkpt lat="42.8738630" lon="-5.4393070">
        <ele>1466.8</ele>
        <time>2022-06-11T09:30:13Z</time>
      </trkpt>
      <trkpt lat="42.8738380" lon="-5.4393440">
        <ele>1465.6</ele>
        <time>2022-06-11T09:30:15Z</time>
      </trkpt>
      <trkpt lat="42.8738300" lon="-5.4393650">
        <ele>1465.2</ele>
        <time>2022-06-11T09:30:16Z</time>
      </trkpt>
      <trkpt lat="42.8738140" lon="-5.4394190">
        <ele>1464.0</ele>
        <time>2022-06-11T09:30:18Z</time>
      </trkpt>
      <trkpt lat="42.8738020" lon="-5.4394460">
        <ele>1463.4</ele>
        <time>2022-06-11T09:30:19Z</time>
      </trkpt>
      <trkpt lat="42.8737880" lon="-5.4394700">
        <ele>1462.8</ele>
        <time>2022-06-11T09:30:20Z</time>
      </trkpt>
      <trkpt lat="42.8737760" lon="-5.4394980">
        <ele>1461.8</ele>
        <time>2022-06-11T09:30:21Z</time>
      </trkpt>
      <trkpt lat="42.8737500" lon="-5.4395470">
        <ele>1460.6</ele>
        <time>2022-06-11T09:30:23Z</time>
      </trkpt>
      <trkpt lat="42.8737400" lon="-5.4395710">
        <ele>1459.8</ele>
        <time>2022-06-11T09:30:24Z</time>
      </trkpt>
      <trkpt lat="42.8737350" lon="-5.4396020">
        <ele>1459.4</ele>
        <time>2022-06-11T09:30:25Z</time>
      </trkpt>
      <trkpt lat="42.8737270" lon="-5.4396720">
        <ele>1458.2</ele>
        <time>2022-06-11T09:30:27Z</time>
      </trkpt>
      <trkpt lat="42.8737160" lon="-5.4397250">
        <ele>1457.2</ele>
        <time>2022-06-11T09:30:29Z</time>
      </trkpt>
      <trkpt lat="42.8737070" lon="-5.4397540">
        <ele>1456.8</ele>
        <time>2022-06-11T09:30:30Z</time>
      </trkpt>
      <trkpt lat="42.8736970" lon="-5.4397810">
        <ele>1456.0</ele>
        <time>2022-06-11T09:30:31Z</time>
      </trkpt>
      <trkpt lat="42.8736800" lon="-5.4398390">
        <ele>1454.8</ele>
        <time>2022-06-11T09:30:33Z</time>
      </trkpt>
      <trkpt lat="42.8736720" lon="-5.4399010">
        <ele>1453.6</ele>
        <time>2022-06-11T09:30:35Z</time>
      </trkpt>
      <trkpt lat="42.8736470" lon="-5.4399840">
        <ele>1452.2</ele>
        <time>2022-06-11T09:30:38Z</time>
      </trkpt>
      <trkpt lat="42.8736290" lon="-5.4400430">
        <ele>1451.0</ele>
        <time>2022-06-11T09:30:40Z</time>
      </trkpt>
      <trkpt lat="42.8736140" lon="-5.4400960">
        <ele>1449.8</ele>
        <time>2022-06-11T09:30:42Z</time>
      </trkpt>
      <trkpt lat="42.8735960" lon="-5.4401800">
        <ele>1448.8</ele>
        <time>2022-06-11T09:30:45Z</time>
      </trkpt>
      <trkpt lat="42.8735790" lon="-5.4402460">
        <ele>1447.4</ele>
        <time>2022-06-11T09:30:47Z</time>
      </trkpt>
      <trkpt lat="42.8735630" lon="-5.4403020">
        <ele>1446.4</ele>
        <time>2022-06-11T09:30:49Z</time>
      </trkpt>
      <trkpt lat="42.8735420" lon="-5.4403880">
        <ele>1444.8</ele>
        <time>2022-06-11T09:30:52Z</time>
      </trkpt>
      <trkpt lat="42.8735130" lon="-5.4404490">
        <ele>1443.4</ele>
        <time>2022-06-11T09:30:55Z</time>
      </trkpt>
      <trkpt lat="42.8734980" lon="-5.4404730">
        <ele>1442.4</ele>
        <time>2022-06-11T09:30:57Z</time>
      </trkpt>
      <trkpt lat="42.8734910" lon="-5.4404860">
        <ele>1442.0</ele>
        <time>2022-06-11T09:30:58Z</time>
      </trkpt>
      <trkpt lat="42.8734540" lon="-5.4406030">
        <ele>1441.2</ele>
        <time>2022-06-11T09:31:03Z</time>
      </trkpt>
      <trkpt lat="42.8734440" lon="-5.4406290">
        <ele>1440.6</ele>
        <time>2022-06-11T09:31:04Z</time>
      </trkpt>
      <trkpt lat="42.8734320" lon="-5.4406830">
        <ele>1439.4</ele>
        <time>2022-06-11T09:31:06Z</time>
      </trkpt>
      <trkpt lat="42.8734190" lon="-5.4407640">
        <ele>1438.2</ele>
        <time>2022-06-11T09:31:09Z</time>
      </trkpt>
      <trkpt lat="42.8734050" lon="-5.4408090">
        <ele>1437.0</ele>
        <time>2022-06-11T09:31:11Z</time>
      </trkpt>
      <trkpt lat="42.8733970" lon="-5.4408810">
        <ele>1436.0</ele>
        <time>2022-06-11T09:31:14Z</time>
      </trkpt>
      <trkpt lat="42.8733850" lon="-5.4409080">
        <ele>1435.4</ele>
        <time>2022-06-11T09:31:15Z</time>
      </trkpt>
      <trkpt lat="42.8733740" lon="-5.4409260">
        <ele>1435.0</ele>
        <time>2022-06-11T09:31:16Z</time>
      </trkpt>
      <trkpt lat="42.8733610" lon="-5.4409790">
        <ele>1434.0</ele>
        <time>2022-06-11T09:31:19Z</time>
      </trkpt>
      <trkpt lat="42.8733520" lon="-5.4410360">
        <ele>1433.6</ele>
        <time>2022-06-11T09:31:22Z</time>
      </trkpt>
      <trkpt lat="42.8733310" lon="-5.4410890">
        <ele>1432.8</ele>
        <time>2022-06-11T09:31:24Z</time>
      </trkpt>
      <trkpt lat="42.8732860" lon="-5.4411640">
        <ele>1431.6</ele>
        <time>2022-06-11T09:31:27Z</time>
      </trkpt>
      <trkpt lat="42.8732790" lon="-5.4412540">
        <ele>1430.4</ele>
        <time>2022-06-11T09:31:30Z</time>
      </trkpt>
      <trkpt lat="42.8732760" lon="-5.4413150">
        <ele>1429.8</ele>
        <time>2022-06-11T09:31:33Z</time>
      </trkpt>
      <trkpt lat="42.8732780" lon="-5.4413450">
        <ele>1429.4</ele>
        <time>2022-06-11T09:31:35Z</time>
      </trkpt>
      <trkpt lat="42.8732820" lon="-5.4413580">
        <ele>1429.2</ele>
        <time>2022-06-11T09:31:36Z</time>
      </trkpt>
      <trkpt lat="42.8732840" lon="-5.4413890">
        <ele>1428.8</ele>
        <time>2022-06-11T09:31:38Z</time>
      </trkpt>
      <trkpt lat="42.8732830" lon="-5.4414070">
        <ele>1428.6</ele>
        <time>2022-06-11T09:31:39Z</time>
      </trkpt>
      <trkpt lat="42.8732870" lon="-5.4414450">
        <ele>1428.4</ele>
        <time>2022-06-11T09:31:41Z</time>
      </trkpt>
      <trkpt lat="42.8732800" lon="-5.4415270">
        <ele>1427.6</ele>
        <time>2022-06-11T09:31:46Z</time>
      </trkpt>
      <trkpt lat="42.8732780" lon="-5.4415490">
        <ele>1427.2</ele>
        <time>2022-06-11T09:31:49Z</time>
      </trkpt>
      <trkpt lat="42.8732760" lon="-5.4415470">
        <ele>1427.0</ele>
        <time>2022-06-11T09:31:51Z</time>
      </trkpt>
      <trkpt lat="42.8732830" lon="-5.4415040">
        <ele>1426.8</ele>
        <time>2022-06-11T09:31:57Z</time>
      </trkpt>
      <trkpt lat="42.8733000" lon="-5.4414450">
        <ele>1427.2</ele>
        <time>2022-06-11T09:32:03Z</time>
      </trkpt>
      <trkpt lat="42.8732950" lon="-5.4413800">
        <ele>1427.4</ele>
        <time>2022-06-11T09:32:10Z</time>
      </trkpt>
      <trkpt lat="42.8732950" lon="-5.4413450">
        <ele>1427.8</ele>
        <time>2022-06-11T09:32:16Z</time>
      </trkpt>
      <trkpt lat="42.8732820" lon="-5.4412860">
        <ele>1428.4</ele>
        <time>2022-06-11T09:32:21Z</time>
      </trkpt>
      <trkpt lat="42.8732830" lon="-5.4412490">
        <ele>1429.4</ele>
        <time>2022-06-11T09:32:23Z</time>
      </trkpt>
      <trkpt lat="42.8732850" lon="-5.4412320">
        <ele>1429.4</ele>
        <time>2022-06-11T09:32:24Z</time>
      </trkpt>
      <trkpt lat="42.8732910" lon="-5.4411930">
        <ele>1429.8</ele>
        <time>2022-06-11T09:32:27Z</time>
      </trkpt>
      <trkpt lat="42.8733020" lon="-5.4411640">
        <ele>1430.6</ele>
        <time>2022-06-11T09:32:30Z</time>
      </trkpt>
      <trkpt lat="42.8733340" lon="-5.4410900">
        <ele>1431.6</ele>
        <time>2022-06-11T09:32:35Z</time>
      </trkpt>
      <trkpt lat="42.8733450" lon="-5.4410700">
        <ele>1431.6</ele>
        <time>2022-06-11T09:32:37Z</time>
      </trkpt>
      <trkpt lat="42.8733470" lon="-5.4410620">
        <ele>1431.6</ele>
        <time>2022-06-11T09:32:39Z</time>
      </trkpt>
      <trkpt lat="42.8733440" lon="-5.4410600">
        <ele>1431.6</ele>
        <time>2022-06-11T09:32:40Z</time>
      </trkpt>
      <trkpt lat="42.8733420" lon="-5.4410610">
        <ele>1431.8</ele>
        <time>2022-06-11T09:32:43Z</time>
      </trkpt>
      <trkpt lat="42.8733230" lon="-5.4410780">
        <ele>1431.4</ele>
        <time>2022-06-11T09:32:47Z</time>
      </trkpt>
      <trkpt lat="42.8733120" lon="-5.4410930">
        <ele>1431.4</ele>
        <time>2022-06-11T09:32:48Z</time>
      </trkpt>
      <trkpt lat="42.8732800" lon="-5.4412390">
        <ele>1430.6</ele>
        <time>2022-06-11T09:32:54Z</time>
      </trkpt>
      <trkpt lat="42.8732790" lon="-5.4413160">
        <ele>1429.6</ele>
        <time>2022-06-11T09:32:58Z</time>
      </trkpt>
      <trkpt lat="42.8732780" lon="-5.4413310">
        <ele>1429.6</ele>
        <time>2022-06-11T09:32:59Z</time>
      </trkpt>
      <trkpt lat="42.8732840" lon="-5.4413550">
        <ele>1428.8</ele>
        <time>2022-06-11T09:33:02Z</time>
      </trkpt>
      <trkpt lat="42.8732850" lon="-5.4413840">
        <ele>1428.4</ele>
        <time>2022-06-11T09:33:04Z</time>
      </trkpt>
      <trkpt lat="42.8732880" lon="-5.4414540">
        <ele>1427.8</ele>
        <time>2022-06-11T09:33:08Z</time>
      </trkpt>
      <trkpt lat="42.8732840" lon="-5.4414900">
        <ele>1427.6</ele>
        <time>2022-06-11T09:33:10Z</time>
      </trkpt>
      <trkpt lat="42.8732770" lon="-5.4415390">
        <ele>1427.2</ele>
        <time>2022-06-11T09:33:13Z</time>
      </trkpt>
      <trkpt lat="42.8732860" lon="-5.4416000">
        <ele>1426.2</ele>
        <time>2022-06-11T09:33:19Z</time>
      </trkpt>
      <trkpt lat="42.8732910" lon="-5.4416100">
        <ele>1425.8</ele>
        <time>2022-06-11T09:33:20Z</time>
      </trkpt>
      <trkpt lat="42.8732860" lon="-5.4416590">
        <ele>1424.8</ele>
        <time>2022-06-11T09:33:23Z</time>
      </trkpt>
      <trkpt lat="42.8732560" lon="-5.4417430">
        <ele>1423.8</ele>
        <time>2022-06-11T09:33:27Z</time>
      </trkpt>
      <trkpt lat="42.8732470" lon="-5.4417690">
        <ele>1423.4</ele>
        <time>2022-06-11T09:33:28Z</time>
      </trkpt>
      <trkpt lat="42.8732060" lon="-5.4418620">
        <ele>1422.2</ele>
        <time>2022-06-11T09:33:32Z</time>
      </trkpt>
      <trkpt lat="42.8731900" lon="-5.4419000">
        <ele>1422.0</ele>
        <time>2022-06-11T09:33:34Z</time>
      </trkpt>
      <trkpt lat="42.8731620" lon="-5.4419760">
        <ele>1421.2</ele>
        <time>2022-06-11T09:33:38Z</time>
      </trkpt>
      <trkpt lat="42.8731360" lon="-5.4420510">
        <ele>1420.2</ele>
        <time>2022-06-11T09:33:42Z</time>
      </trkpt>
      <trkpt lat="42.8731280" lon="-5.4420780">
        <ele>1420.2</ele>
        <time>2022-06-11T09:33:43Z</time>
      </trkpt>
      <trkpt lat="42.8731060" lon="-5.4421410">
        <ele>1418.8</ele>
        <time>2022-06-11T09:33:46Z</time>
      </trkpt>
      <trkpt lat="42.8730870" lon="-5.4422170">
        <ele>1417.4</ele>
        <time>2022-06-11T09:33:51Z</time>
      </trkpt>
      <trkpt lat="42.8730820" lon="-5.4422440">
        <ele>1416.4</ele>
        <time>2022-06-11T09:33:53Z</time>
      </trkpt>
      <trkpt lat="42.8730810" lon="-5.4422650">
        <ele>1415.0</ele>
        <time>2022-06-11T09:33:56Z</time>
      </trkpt>
      <trkpt lat="42.8730770" lon="-5.4422970">
        <ele>1414.0</ele>
        <time>2022-06-11T09:33:59Z</time>
      </trkpt>
      <trkpt lat="42.8730750" lon="-5.4423150">
        <ele>1414.0</ele>
        <time>2022-06-11T09:34:00Z</time>
      </trkpt>
      <trkpt lat="42.8730760" lon="-5.4423570">
        <ele>1412.6</ele>
        <time>2022-06-11T09:34:03Z</time>
      </trkpt>
      <trkpt lat="42.8730910" lon="-5.4423820">
        <ele>1411.4</ele>
        <time>2022-06-11T09:34:05Z</time>
      </trkpt>
      <trkpt lat="42.8731040" lon="-5.4423830">
        <ele>1411.0</ele>
        <time>2022-06-11T09:34:06Z</time>
      </trkpt>
      <trkpt lat="42.8731260" lon="-5.4423900">
        <ele>1410.2</ele>
        <time>2022-06-11T09:34:08Z</time>
      </trkpt>
      <trkpt lat="42.8731510" lon="-5.4424280">
        <ele>1409.8</ele>
        <time>2022-06-11T09:34:12Z</time>
      </trkpt>
      <trkpt lat="42.8731520" lon="-5.4424370">
        <ele>1409.8</ele>
        <time>2022-06-11T09:34:13Z</time>
      </trkpt>
      <trkpt lat="42.8731540" lon="-5.4424670">
        <ele>1409.6</ele>
        <time>2022-06-11T09:34:15Z</time>
      </trkpt>
      <trkpt lat="42.8731550" lon="-5.4425190">
        <ele>1409.4</ele>
        <time>2022-06-11T09:34:17Z</time>
      </trkpt>
      <trkpt lat="42.8731630" lon="-5.4425380">
        <ele>1409.0</ele>
        <time>2022-06-11T09:34:18Z</time>
      </trkpt>
      <trkpt lat="42.8731760" lon="-5.4425710">
        <ele>1408.8</ele>
        <time>2022-06-11T09:34:20Z</time>
      </trkpt>
      <trkpt lat="42.8731990" lon="-5.4426100">
        <ele>1408.8</ele>
        <time>2022-06-11T09:34:23Z</time>
      </trkpt>
      <trkpt lat="42.8732320" lon="-5.4427430">
        <ele>1409.2</ele>
        <time>2022-06-11T09:34:30Z</time>
      </trkpt>
      <trkpt lat="42.8732600" lon="-5.4429050">
        <ele>1410.0</ele>
        <time>2022-06-11T09:34:39Z</time>
      </trkpt>
      <trkpt lat="42.8732560" lon="-5.4429470">
        <ele>1409.8</ele>
        <time>2022-06-11T09:34:41Z</time>
      </trkpt>
      <trkpt lat="42.8732600" lon="-5.4429920">
        <ele>1409.6</ele>
        <time>2022-06-11T09:34:43Z</time>
      </trkpt>
      <trkpt lat="42.8732640" lon="-5.4430400">
        <ele>1409.2</ele>
        <time>2022-06-11T09:34:46Z</time>
      </trkpt>
      <trkpt lat="42.8732730" lon="-5.4431390">
        <ele>1409.2</ele>
        <time>2022-06-11T09:34:50Z</time>
      </trkpt>
      <trkpt lat="42.8732750" lon="-5.4431620">
        <ele>1409.2</ele>
        <time>2022-06-11T09:34:51Z</time>
      </trkpt>
      <trkpt lat="42.8732800" lon="-5.4431990">
        <ele>1409.4</ele>
        <time>2022-06-11T09:34:53Z</time>
      </trkpt>
      <trkpt lat="42.8732790" lon="-5.4432210">
        <ele>1409.4</ele>
        <time>2022-06-11T09:34:56Z</time>
      </trkpt>
      <trkpt lat="42.8732700" lon="-5.4432320">
        <ele>1409.4</ele>
        <time>2022-06-11T09:34:58Z</time>
      </trkpt>
      <trkpt lat="42.8732000" lon="-5.4433570">
        <ele>1408.6</ele>
        <time>2022-06-11T09:35:04Z</time>
      </trkpt>
      <trkpt lat="42.8731920" lon="-5.4433800">
        <ele>1408.6</ele>
        <time>2022-06-11T09:35:05Z</time>
      </trkpt>
      <trkpt lat="42.8731730" lon="-5.4434190">
        <ele>1408.0</ele>
        <time>2022-06-11T09:35:07Z</time>
      </trkpt>
      <trkpt lat="42.8731370" lon="-5.4434460">
        <ele>1407.6</ele>
        <time>2022-06-11T09:35:09Z</time>
      </trkpt>
      <trkpt lat="42.8730420" lon="-5.4435530">
        <ele>1406.6</ele>
        <time>2022-06-11T09:35:15Z</time>
      </trkpt>
      <trkpt lat="42.8730240" lon="-5.4435770">
        <ele>1406.4</ele>
        <time>2022-06-11T09:35:16Z</time>
      </trkpt>
      <trkpt lat="42.8729820" lon="-5.4437030">
        <ele>1405.4</ele>
        <time>2022-06-11T09:35:20Z</time>
      </trkpt>
      <trkpt lat="42.8729420" lon="-5.4437970">
        <ele>1404.2</ele>
        <time>2022-06-11T09:35:23Z</time>
      </trkpt>
      <trkpt lat="42.8729220" lon="-5.4438880">
        <ele>1403.4</ele>
        <time>2022-06-11T09:35:26Z</time>
      </trkpt>
      <trkpt lat="42.8729150" lon="-5.4439160">
        <ele>1403.2</ele>
        <time>2022-06-11T09:35:27Z</time>
      </trkpt>
      <trkpt lat="42.8728930" lon="-5.4440400">
        <ele>1402.0</ele>
        <time>2022-06-11T09:35:31Z</time>
      </trkpt>
      <trkpt lat="42.8728830" lon="-5.4441020">
        <ele>1401.4</ele>
        <time>2022-06-11T09:35:33Z</time>
      </trkpt>
      <trkpt lat="42.8728770" lon="-5.4441270">
        <ele>1401.0</ele>
        <time>2022-06-11T09:35:34Z</time>
      </trkpt>
      <trkpt lat="42.8728600" lon="-5.4441950">
        <ele>1399.8</ele>
        <time>2022-06-11T09:35:37Z</time>
      </trkpt>
      <trkpt lat="42.8728560" lon="-5.4442380">
        <ele>1398.8</ele>
        <time>2022-06-11T09:35:39Z</time>
      </trkpt>
      <trkpt lat="42.8728550" lon="-5.4442590">
        <ele>1398.4</ele>
        <time>2022-06-11T09:35:40Z</time>
      </trkpt>
      <trkpt lat="42.8728500" lon="-5.4442780">
        <ele>1397.8</ele>
        <time>2022-06-11T09:35:41Z</time>
      </trkpt>
      <trkpt lat="42.8728410" lon="-5.4443120">
        <ele>1397.2</ele>
        <time>2022-06-11T09:35:43Z</time>
      </trkpt>
      <trkpt lat="42.8728270" lon="-5.4443460">
        <ele>1396.2</ele>
        <time>2022-06-11T09:35:45Z</time>
      </trkpt>
      <trkpt lat="42.8728150" lon="-5.4444110">
        <ele>1394.6</ele>
        <time>2022-06-11T09:35:48Z</time>
      </trkpt>
      <trkpt lat="42.8728090" lon="-5.4444510">
        <ele>1393.6</ele>
        <time>2022-06-11T09:35:50Z</time>
      </trkpt>
      <trkpt lat="42.8728080" lon="-5.4444690">
        <ele>1393.0</ele>
        <time>2022-06-11T09:35:51Z</time>
      </trkpt>
      <trkpt lat="42.8728100" lon="-5.4444860">
        <ele>1392.6</ele>
        <time>2022-06-11T09:35:52Z</time>
      </trkpt>
      <trkpt lat="42.8728130" lon="-5.4445190">
        <ele>1391.4</ele>
        <time>2022-06-11T09:35:54Z</time>
      </trkpt>
      <trkpt lat="42.8728090" lon="-5.4445560">
        <ele>1390.2</ele>
        <time>2022-06-11T09:35:56Z</time>
      </trkpt>
      <trkpt lat="42.8728050" lon="-5.4445980">
        <ele>1388.8</ele>
        <time>2022-06-11T09:35:59Z</time>
      </trkpt>
      <trkpt lat="42.8728110" lon="-5.4446360">
        <ele>1387.6</ele>
        <time>2022-06-11T09:36:01Z</time>
      </trkpt>
      <trkpt lat="42.8728180" lon="-5.4446590">
        <ele>1386.2</ele>
        <time>2022-06-11T09:36:03Z</time>
      </trkpt>
      <trkpt lat="42.8728180" lon="-5.4446690">
        <ele>1385.6</ele>
        <time>2022-06-11T09:36:04Z</time>
      </trkpt>
      <trkpt lat="42.8728140" lon="-5.4446820">
        <ele>1385.2</ele>
        <time>2022-06-11T09:36:05Z</time>
      </trkpt>
      <trkpt lat="42.8728070" lon="-5.4447130">
        <ele>1384.0</ele>
        <time>2022-06-11T09:36:08Z</time>
      </trkpt>
      <trkpt lat="42.8728080" lon="-5.4447370">
        <ele>1383.6</ele>
        <time>2022-06-11T09:36:09Z</time>
      </trkpt>
      <trkpt lat="42.8728020" lon="-5.4447600">
        <ele>1383.2</ele>
        <time>2022-06-11T09:36:10Z</time>
      </trkpt>
      <trkpt lat="42.8728000" lon="-5.4447780">
        <ele>1382.6</ele>
        <time>2022-06-11T09:36:11Z</time>
      </trkpt>
      <trkpt lat="42.8727920" lon="-5.4448160">
        <ele>1381.2</ele>
        <time>2022-06-11T09:36:13Z</time>
      </trkpt>
      <trkpt lat="42.8727920" lon="-5.4448740">
        <ele>1379.8</ele>
        <time>2022-06-11T09:36:16Z</time>
      </trkpt>
      <trkpt lat="42.8727990" lon="-5.4449260">
        <ele>1378.6</ele>
        <time>2022-06-11T09:36:19Z</time>
      </trkpt>
      <trkpt lat="42.8728030" lon="-5.4449350">
        <ele>1377.4</ele>
        <time>2022-06-11T09:36:20Z</time>
      </trkpt>
      <trkpt lat="42.8728140" lon="-5.4449580">
        <ele>1376.4</ele>
        <time>2022-06-11T09:36:22Z</time>
      </trkpt>
      <trkpt lat="42.8728190" lon="-5.4449680">
        <ele>1376.0</ele>
        <time>2022-06-11T09:36:23Z</time>
      </trkpt>
      <trkpt lat="42.8728190" lon="-5.4449800">
        <ele>1375.6</ele>
        <time>2022-06-11T09:36:24Z</time>
      </trkpt>
      <trkpt lat="42.8728230" lon="-5.4449900">
        <ele>1374.8</ele>
        <time>2022-06-11T09:36:26Z</time>
      </trkpt>
      <trkpt lat="42.8728240" lon="-5.4450020">
        <ele>1374.4</ele>
        <time>2022-06-11T09:36:27Z</time>
      </trkpt>
      <trkpt lat="42.8728230" lon="-5.4450290">
        <ele>1373.4</ele>
        <time>2022-06-11T09:36:29Z</time>
      </trkpt>
      <trkpt lat="42.8728260" lon="-5.4450560">
        <ele>1372.4</ele>
        <time>2022-06-11T09:36:31Z</time>
      </trkpt>
      <trkpt lat="42.8728250" lon="-5.4450530">
        <ele>1372.0</ele>
        <time>2022-06-11T09:36:32Z</time>
      </trkpt>
      <trkpt lat="42.8728210" lon="-5.4450710">
        <ele>1371.6</ele>
        <time>2022-06-11T09:36:33Z</time>
      </trkpt>
      <trkpt lat="42.8728280" lon="-5.4450910">
        <ele>1371.0</ele>
        <time>2022-06-11T09:36:34Z</time>
      </trkpt>
      <trkpt lat="42.8728370" lon="-5.4451290">
        <ele>1369.2</ele>
        <time>2022-06-11T09:36:37Z</time>
      </trkpt>
      <trkpt lat="42.8728210" lon="-5.4451630">
        <ele>1368.0</ele>
        <time>2022-06-11T09:36:39Z</time>
      </trkpt>
      <trkpt lat="42.8728090" lon="-5.4452270">
        <ele>1366.8</ele>
        <time>2022-06-11T09:36:42Z</time>
      </trkpt>
      <trkpt lat="42.8727820" lon="-5.4452500">
        <ele>1366.4</ele>
        <time>2022-06-11T09:36:44Z</time>
      </trkpt>
      <trkpt lat="42.8727600" lon="-5.4452490">
        <ele>1365.4</ele>
        <time>2022-06-11T09:36:45Z</time>
      </trkpt>
      <trkpt lat="42.8727420" lon="-5.4452550">
        <ele>1364.8</ele>
        <time>2022-06-11T09:36:46Z</time>
      </trkpt>
      <trkpt lat="42.8727250" lon="-5.4452680">
        <ele>1364.0</ele>
        <time>2022-06-11T09:36:47Z</time>
      </trkpt>
      <trkpt lat="42.8727120" lon="-5.4452850">
        <ele>1363.4</ele>
        <time>2022-06-11T09:36:48Z</time>
      </trkpt>
      <trkpt lat="42.8726920" lon="-5.4453200">
        <ele>1362.2</ele>
        <time>2022-06-11T09:36:50Z</time>
      </trkpt>
      <trkpt lat="42.8726690" lon="-5.4453410">
        <ele>1361.2</ele>
        <time>2022-06-11T09:36:52Z</time>
      </trkpt>
      <trkpt lat="42.8726310" lon="-5.4453580">
        <ele>1359.8</ele>
        <time>2022-06-11T09:36:55Z</time>
      </trkpt>
      <trkpt lat="42.8725760" lon="-5.4453970">
        <ele>1358.4</ele>
        <time>2022-06-11T09:36:58Z</time>
      </trkpt>
      <trkpt lat="42.8725420" lon="-5.4454000">
        <ele>1357.2</ele>
        <time>2022-06-11T09:37:00Z</time>
      </trkpt>
      <trkpt lat="42.8725280" lon="-5.4454010">
        <ele>1356.8</ele>
        <time>2022-06-11T09:37:01Z</time>
      </trkpt>
      <trkpt lat="42.8724970" lon="-5.4453900">
        <ele>1355.6</ele>
        <time>2022-06-11T09:37:03Z</time>
      </trkpt>
      <trkpt lat="42.8724780" lon="-5.4453900">
        <ele>1355.2</ele>
        <time>2022-06-11T09:37:04Z</time>
      </trkpt>
      <trkpt lat="42.8724610" lon="-5.4453910">
        <ele>1354.6</ele>
        <time>2022-06-11T09:37:05Z</time>
      </trkpt>
      <trkpt lat="42.8724120" lon="-5.4454010">
        <ele>1353.2</ele>
        <time>2022-06-11T09:37:08Z</time>
      </trkpt>
      <trkpt lat="42.8723770" lon="-5.4454140">
        <ele>1352.2</ele>
        <time>2022-06-11T09:37:10Z</time>
      </trkpt>
      <trkpt lat="42.8723530" lon="-5.4454380">
        <ele>1351.0</ele>
        <time>2022-06-11T09:37:12Z</time>
      </trkpt>
      <trkpt lat="42.8723250" lon="-5.4454700">
        <ele>1350.0</ele>
        <time>2022-06-11T09:37:15Z</time>
      </trkpt>
      <trkpt lat="42.8723130" lon="-5.4454690">
        <ele>1349.8</ele>
        <time>2022-06-11T09:37:16Z</time>
      </trkpt>
      <trkpt lat="42.8723010" lon="-5.4454700">
        <ele>1349.2</ele>
        <time>2022-06-11T09:37:17Z</time>
      </trkpt>
      <trkpt lat="42.8722880" lon="-5.4454680">
        <ele>1348.6</ele>
        <time>2022-06-11T09:37:18Z</time>
      </trkpt>
      <trkpt lat="42.8722440" lon="-5.4454250">
        <ele>1347.4</ele>
        <time>2022-06-11T09:37:21Z</time>
      </trkpt>
      <trkpt lat="42.8721980" lon="-5.4453580">
        <ele>1346.6</ele>
        <time>2022-06-11T09:37:24Z</time>
      </trkpt>
      <trkpt lat="42.8721630" lon="-5.4453190">
        <ele>1346.0</ele>
        <time>2022-06-11T09:37:26Z</time>
      </trkpt>
      <trkpt lat="42.8721270" lon="-5.4452760">
        <ele>1345.2</ele>
        <time>2022-06-11T09:37:29Z</time>
      </trkpt>
      <trkpt lat="42.8721160" lon="-5.4452670">
        <ele>1344.8</ele>
        <time>2022-06-11T09:37:30Z</time>
      </trkpt>
      <trkpt lat="42.8721050" lon="-5.4452550">
        <ele>1344.4</ele>
        <time>2022-06-11T09:37:31Z</time>
      </trkpt>
      <trkpt lat="42.8720850" lon="-5.4452260">
        <ele>1343.8</ele>
        <time>2022-06-11T09:37:33Z</time>
      </trkpt>
      <trkpt lat="42.8720370" lon="-5.4451790">
        <ele>1342.4</ele>
        <time>2022-06-11T09:37:36Z</time>
      </trkpt>
      <trkpt lat="42.8719990" lon="-5.4451730">
        <ele>1341.6</ele>
        <time>2022-06-11T09:37:38Z</time>
      </trkpt>
      <trkpt lat="42.8719890" lon="-5.4451730">
        <ele>1341.0</ele>
        <time>2022-06-11T09:37:39Z</time>
      </trkpt>
      <trkpt lat="42.8719800" lon="-5.4451790">
        <ele>1340.4</ele>
        <time>2022-06-11T09:37:41Z</time>
      </trkpt>
      <trkpt lat="42.8719810" lon="-5.4451930">
        <ele>1340.0</ele>
        <time>2022-06-11T09:37:43Z</time>
      </trkpt>
      <trkpt lat="42.8719760" lon="-5.4451980">
        <ele>1340.0</ele>
        <time>2022-06-11T09:37:45Z</time>
      </trkpt>
      <trkpt lat="42.8719850" lon="-5.4451980">
        <ele>1340.4</ele>
        <time>2022-06-11T09:37:49Z</time>
      </trkpt>
      <trkpt lat="42.8720000" lon="-5.4451740">
        <ele>1340.2</ele>
        <time>2022-06-11T09:37:58Z</time>
      </trkpt>
      <trkpt lat="42.8720000" lon="-5.4451750">
        <ele>1339.8</ele>
        <time>2022-06-11T09:38:00Z</time>
      </trkpt>
      <trkpt lat="42.8719820" lon="-5.4451740">
        <ele>1339.4</ele>
        <time>2022-06-11T09:38:02Z</time>
      </trkpt>
      <trkpt lat="42.8719450" lon="-5.4451710">
        <ele>1338.8</ele>
        <time>2022-06-11T09:38:04Z</time>
      </trkpt>
      <trkpt lat="42.8718710" lon="-5.4451560">
        <ele>1337.4</ele>
        <time>2022-06-11T09:38:08Z</time>
      </trkpt>
      <trkpt lat="42.8718540" lon="-5.4451430">
        <ele>1337.0</ele>
        <time>2022-06-11T09:38:09Z</time>
      </trkpt>
      <trkpt lat="42.8718280" lon="-5.4451130">
        <ele>1336.4</ele>
        <time>2022-06-11T09:38:11Z</time>
      </trkpt>
      <trkpt lat="42.8718110" lon="-5.4450500">
        <ele>1335.0</ele>
        <time>2022-06-11T09:38:15Z</time>
      </trkpt>
      <trkpt lat="42.8718040" lon="-5.4450380">
        <ele>1334.8</ele>
        <time>2022-06-11T09:38:16Z</time>
      </trkpt>
      <trkpt lat="42.8717730" lon="-5.4449970">
        <ele>1333.8</ele>
        <time>2022-06-11T09:38:19Z</time>
      </trkpt>
      <trkpt lat="42.8717580" lon="-5.4449850">
        <ele>1333.8</ele>
        <time>2022-06-11T09:38:20Z</time>
      </trkpt>
      <trkpt lat="42.8717120" lon="-5.4449870">
        <ele>1332.8</ele>
        <time>2022-06-11T09:38:23Z</time>
      </trkpt>
      <trkpt lat="42.8716790" lon="-5.4450050">
        <ele>1331.8</ele>
        <time>2022-06-11T09:38:26Z</time>
      </trkpt>
      <trkpt lat="42.8716560" lon="-5.4450140">
        <ele>1330.8</ele>
        <time>2022-06-11T09:38:28Z</time>
      </trkpt>
      <trkpt lat="42.8716350" lon="-5.4450150">
        <ele>1330.0</ele>
        <time>2022-06-11T09:38:30Z</time>
      </trkpt>
      <trkpt lat="42.8716320" lon="-5.4449900">
        <ele>1329.4</ele>
        <time>2022-06-11T09:38:32Z</time>
      </trkpt>
      <trkpt lat="42.8716270" lon="-5.4449700">
        <ele>1329.2</ele>
        <time>2022-06-11T09:38:33Z</time>
      </trkpt>
      <trkpt lat="42.8716160" lon="-5.4449370">
        <ele>1328.4</ele>
        <time>2022-06-11T09:38:35Z</time>
      </trkpt>
      <trkpt lat="42.8716100" lon="-5.4449120">
        <ele>1328.4</ele>
        <time>2022-06-11T09:38:36Z</time>
      </trkpt>
      <trkpt lat="42.8715970" lon="-5.4448900">
        <ele>1327.8</ele>
        <time>2022-06-11T09:38:37Z</time>
      </trkpt>
      <trkpt lat="42.8715740" lon="-5.4448710">
        <ele>1327.2</ele>
        <time>2022-06-11T09:38:39Z</time>
      </trkpt>
      <trkpt lat="42.8715670" lon="-5.4448640">
        <ele>1326.8</ele>
        <time>2022-06-11T09:38:40Z</time>
      </trkpt>
      <trkpt lat="42.8715630" lon="-5.4448590">
        <ele>1326.0</ele>
        <time>2022-06-11T09:38:42Z</time>
      </trkpt>
      <trkpt lat="42.8715640" lon="-5.4448590">
        <ele>1325.8</ele>
        <time>2022-06-11T09:38:45Z</time>
      </trkpt>
      <trkpt lat="42.8715620" lon="-5.4448980">
        <ele>1325.6</ele>
        <time>2022-06-11T09:38:48Z</time>
      </trkpt>
      <trkpt lat="42.8715580" lon="-5.4449220">
        <ele>1325.6</ele>
        <time>2022-06-11T09:38:50Z</time>
      </trkpt>
      <trkpt lat="42.8715330" lon="-5.4449450">
        <ele>1325.4</ele>
        <time>2022-06-11T09:38:56Z</time>
      </trkpt>
      <trkpt lat="42.8715250" lon="-5.4449490">
        <ele>1325.0</ele>
        <time>2022-06-11T09:38:58Z</time>
      </trkpt>
      <trkpt lat="42.8714920" lon="-5.4449580">
        <ele>1324.4</ele>
        <time>2022-06-11T09:39:02Z</time>
      </trkpt>
      <trkpt lat="42.8714840" lon="-5.4449700">
        <ele>1324.0</ele>
        <time>2022-06-11T09:39:03Z</time>
      </trkpt>
      <trkpt lat="42.8714340" lon="-5.4450020">
        <ele>1323.2</ele>
        <time>2022-06-11T09:39:07Z</time>
      </trkpt>
      <trkpt lat="42.8714240" lon="-5.4450040">
        <ele>1322.8</ele>
        <time>2022-06-11T09:39:08Z</time>
      </trkpt>
      <trkpt lat="42.8713790" lon="-5.4450040">
        <ele>1321.8</ele>
        <time>2022-06-11T09:39:11Z</time>
      </trkpt>
      <trkpt lat="42.8713430" lon="-5.4449830">
        <ele>1320.6</ele>
        <time>2022-06-11T09:39:14Z</time>
      </trkpt>
      <trkpt lat="42.8713120" lon="-5.4449730">
        <ele>1319.4</ele>
        <time>2022-06-11T09:39:17Z</time>
      </trkpt>
      <trkpt lat="42.8712780" lon="-5.4449730">
        <ele>1318.4</ele>
        <time>2022-06-11T09:39:19Z</time>
      </trkpt>
      <trkpt lat="42.8712600" lon="-5.4449800">
        <ele>1317.6</ele>
        <time>2022-06-11T09:39:20Z</time>
      </trkpt>
      <trkpt lat="42.8712220" lon="-5.4450000">
        <ele>1316.8</ele>
        <time>2022-06-11T09:39:22Z</time>
      </trkpt>
      <trkpt lat="42.8712050" lon="-5.4450040">
        <ele>1316.2</ele>
        <time>2022-06-11T09:39:23Z</time>
      </trkpt>
      <trkpt lat="42.8711920" lon="-5.4450100">
        <ele>1315.6</ele>
        <time>2022-06-11T09:39:24Z</time>
      </trkpt>
      <trkpt lat="42.8711790" lon="-5.4450230">
        <ele>1315.2</ele>
        <time>2022-06-11T09:39:25Z</time>
      </trkpt>
      <trkpt lat="42.8711430" lon="-5.4450480">
        <ele>1314.2</ele>
        <time>2022-06-11T09:39:27Z</time>
      </trkpt>
      <trkpt lat="42.8711200" lon="-5.4450840">
        <ele>1312.8</ele>
        <time>2022-06-11T09:39:29Z</time>
      </trkpt>
      <trkpt lat="42.8711090" lon="-5.4450910">
        <ele>1312.4</ele>
        <time>2022-06-11T09:39:30Z</time>
      </trkpt>
      <trkpt lat="42.8710690" lon="-5.4450860">
        <ele>1311.8</ele>
        <time>2022-06-11T09:39:32Z</time>
      </trkpt>
      <trkpt lat="42.8710250" lon="-5.4450600">
        <ele>1310.6</ele>
        <time>2022-06-11T09:39:35Z</time>
      </trkpt>
      <trkpt lat="42.8709920" lon="-5.4450420">
        <ele>1309.8</ele>
        <time>2022-06-11T09:39:37Z</time>
      </trkpt>
      <trkpt lat="42.8709790" lon="-5.4450400">
        <ele>1309.2</ele>
        <time>2022-06-11T09:39:38Z</time>
      </trkpt>
      <trkpt lat="42.8709740" lon="-5.4450430">
        <ele>1309.0</ele>
        <time>2022-06-11T09:39:39Z</time>
      </trkpt>
      <trkpt lat="42.8709630" lon="-5.4450420">
        <ele>1308.0</ele>
        <time>2022-06-11T09:39:41Z</time>
      </trkpt>
      <trkpt lat="42.8709350" lon="-5.4450510">
        <ele>1307.0</ele>
        <time>2022-06-11T09:39:44Z</time>
      </trkpt>
      <trkpt lat="42.8709080" lon="-5.4450440">
        <ele>1306.2</ele>
        <time>2022-06-11T09:39:46Z</time>
      </trkpt>
      <trkpt lat="42.8709030" lon="-5.4450350">
        <ele>1306.0</ele>
        <time>2022-06-11T09:39:47Z</time>
      </trkpt>
      <trkpt lat="42.8708670" lon="-5.4450270">
        <ele>1304.8</ele>
        <time>2022-06-11T09:39:50Z</time>
      </trkpt>
      <trkpt lat="42.8708480" lon="-5.4450230">
        <ele>1303.8</ele>
        <time>2022-06-11T09:39:52Z</time>
      </trkpt>
      <trkpt lat="42.8707980" lon="-5.4450280">
        <ele>1302.6</ele>
        <time>2022-06-11T09:39:55Z</time>
      </trkpt>
      <trkpt lat="42.8707520" lon="-5.4450470">
        <ele>1301.6</ele>
        <time>2022-06-11T09:39:58Z</time>
      </trkpt>
      <trkpt lat="42.8707020" lon="-5.4450430">
        <ele>1300.2</ele>
        <time>2022-06-11T09:40:01Z</time>
      </trkpt>
      <trkpt lat="42.8706480" lon="-5.4450430">
        <ele>1299.0</ele>
        <time>2022-06-11T09:40:04Z</time>
      </trkpt>
      <trkpt lat="42.8706300" lon="-5.4450530">
        <ele>1298.6</ele>
        <time>2022-06-11T09:40:05Z</time>
      </trkpt>
      <trkpt lat="42.8706120" lon="-5.4450620">
        <ele>1298.0</ele>
        <time>2022-06-11T09:40:06Z</time>
      </trkpt>
      <trkpt lat="42.8705560" lon="-5.4450970">
        <ele>1296.8</ele>
        <time>2022-06-11T09:40:09Z</time>
      </trkpt>
      <trkpt lat="42.8705310" lon="-5.4451040">
        <ele>1296.4</ele>
        <time>2022-06-11T09:40:10Z</time>
      </trkpt>
      <trkpt lat="42.8705160" lon="-5.4451120">
        <ele>1296.0</ele>
        <time>2022-06-11T09:40:11Z</time>
      </trkpt>
      <trkpt lat="42.8704940" lon="-5.4451110">
        <ele>1295.6</ele>
        <time>2022-06-11T09:40:12Z</time>
      </trkpt>
      <trkpt lat="42.8704260" lon="-5.4451160">
        <ele>1294.2</ele>
        <time>2022-06-11T09:40:15Z</time>
      </trkpt>
      <trkpt lat="42.8704000" lon="-5.4451250">
        <ele>1294.0</ele>
        <time>2022-06-11T09:40:16Z</time>
      </trkpt>
      <trkpt lat="42.8703550" lon="-5.4451510">
        <ele>1293.4</ele>
        <time>2022-06-11T09:40:18Z</time>
      </trkpt>
      <trkpt lat="42.8703360" lon="-5.4451610">
        <ele>1292.8</ele>
        <time>2022-06-11T09:40:19Z</time>
      </trkpt>
      <trkpt lat="42.8702720" lon="-5.4451790">
        <ele>1291.6</ele>
        <time>2022-06-11T09:40:22Z</time>
      </trkpt>
      <trkpt lat="42.8702520" lon="-5.4451850">
        <ele>1291.2</ele>
        <time>2022-06-11T09:40:23Z</time>
      </trkpt>
      <trkpt lat="42.8702100" lon="-5.4452070">
        <ele>1290.4</ele>
        <time>2022-06-11T09:40:25Z</time>
      </trkpt>
      <trkpt lat="42.8701700" lon="-5.4452430">
        <ele>1289.2</ele>
        <time>2022-06-11T09:40:27Z</time>
      </trkpt>
      <trkpt lat="42.8701260" lon="-5.4452870">
        <ele>1288.0</ele>
        <time>2022-06-11T09:40:29Z</time>
      </trkpt>
      <trkpt lat="42.8700920" lon="-5.4453110">
        <ele>1287.2</ele>
        <time>2022-06-11T09:40:31Z</time>
      </trkpt>
      <trkpt lat="42.8700480" lon="-5.4453360">
        <ele>1286.8</ele>
        <time>2022-06-11T09:40:33Z</time>
      </trkpt>
      <trkpt lat="42.8699830" lon="-5.4453590">
        <ele>1285.8</ele>
        <time>2022-06-11T09:40:36Z</time>
      </trkpt>
      <trkpt lat="42.8699520" lon="-5.4453700">
        <ele>1285.2</ele>
        <time>2022-06-11T09:40:37Z</time>
      </trkpt>
      <trkpt lat="42.8699290" lon="-5.4453860">
        <ele>1284.6</ele>
        <time>2022-06-11T09:40:38Z</time>
      </trkpt>
      <trkpt lat="42.8698430" lon="-5.4454510">
        <ele>1283.4</ele>
        <time>2022-06-11T09:40:42Z</time>
      </trkpt>
      <trkpt lat="42.8698020" lon="-5.4454830">
        <ele>1282.8</ele>
        <time>2022-06-11T09:40:44Z</time>
      </trkpt>
      <trkpt lat="42.8697590" lon="-5.4455150">
        <ele>1282.0</ele>
        <time>2022-06-11T09:40:46Z</time>
      </trkpt>
      <trkpt lat="42.8696590" lon="-5.4455990">
        <ele>1281.0</ele>
        <time>2022-06-11T09:40:51Z</time>
      </trkpt>
      <trkpt lat="42.8695600" lon="-5.4456760">
        <ele>1279.8</ele>
        <time>2022-06-11T09:40:56Z</time>
      </trkpt>
      <trkpt lat="42.8695150" lon="-5.4456900">
        <ele>1279.0</ele>
        <time>2022-06-11T09:40:58Z</time>
      </trkpt>
      <trkpt lat="42.8695000" lon="-5.4456970">
        <ele>1278.6</ele>
        <time>2022-06-11T09:40:59Z</time>
      </trkpt>
      <trkpt lat="42.8694400" lon="-5.4457200">
        <ele>1277.8</ele>
        <time>2022-06-11T09:41:02Z</time>
      </trkpt>
      <trkpt lat="42.8694130" lon="-5.4457350">
        <ele>1277.6</ele>
        <time>2022-06-11T09:41:03Z</time>
      </trkpt>
      <trkpt lat="42.8693700" lon="-5.4457670">
        <ele>1276.6</ele>
        <time>2022-06-11T09:41:05Z</time>
      </trkpt>
      <trkpt lat="42.8693500" lon="-5.4457850">
        <ele>1276.2</ele>
        <time>2022-06-11T09:41:06Z</time>
      </trkpt>
      <trkpt lat="42.8692990" lon="-5.4458080">
        <ele>1275.4</ele>
        <time>2022-06-11T09:41:08Z</time>
      </trkpt>
      <trkpt lat="42.8692620" lon="-5.4458200">
        <ele>1275.2</ele>
        <time>2022-06-11T09:41:10Z</time>
      </trkpt>
      <trkpt lat="42.8692340" lon="-5.4458210">
        <ele>1275.0</ele>
        <time>2022-06-11T09:41:11Z</time>
      </trkpt>
      <trkpt lat="42.8691880" lon="-5.4458250">
        <ele>1273.8</ele>
        <time>2022-06-11T09:41:13Z</time>
      </trkpt>
      <trkpt lat="42.8691190" lon="-5.4458400">
        <ele>1272.4</ele>
        <time>2022-06-11T09:41:16Z</time>
      </trkpt>
      <trkpt lat="42.8690740" lon="-5.4458420">
        <ele>1271.4</ele>
        <time>2022-06-11T09:41:18Z</time>
      </trkpt>
      <trkpt lat="42.8690550" lon="-5.4458450">
        <ele>1270.4</ele>
        <time>2022-06-11T09:41:19Z</time>
      </trkpt>
      <trkpt lat="42.8689840" lon="-5.4459130">
        <ele>1269.0</ele>
        <time>2022-06-11T09:41:22Z</time>
      </trkpt>
      <trkpt lat="42.8689650" lon="-5.4459390">
        <ele>1268.0</ele>
        <time>2022-06-11T09:41:23Z</time>
      </trkpt>
      <trkpt lat="42.8689480" lon="-5.4459590">
        <ele>1267.6</ele>
        <time>2022-06-11T09:41:24Z</time>
      </trkpt>
      <trkpt lat="42.8688620" lon="-5.4460380">
        <ele>1266.4</ele>
        <time>2022-06-11T09:41:28Z</time>
      </trkpt>
      <trkpt lat="42.8688240" lon="-5.4460750">
        <ele>1265.8</ele>
        <time>2022-06-11T09:41:30Z</time>
      </trkpt>
      <trkpt lat="42.8688030" lon="-5.4460900">
        <ele>1265.2</ele>
        <time>2022-06-11T09:41:31Z</time>
      </trkpt>
      <trkpt lat="42.8687300" lon="-5.4461440">
        <ele>1264.0</ele>
        <time>2022-06-11T09:41:34Z</time>
      </trkpt>
      <trkpt lat="42.8686430" lon="-5.4462050">
        <ele>1263.0</ele>
        <time>2022-06-11T09:41:38Z</time>
      </trkpt>
      <trkpt lat="42.8685330" lon="-5.4462800">
        <ele>1261.8</ele>
        <time>2022-06-11T09:41:43Z</time>
      </trkpt>
      <trkpt lat="42.8684690" lon="-5.4462980">
        <ele>1261.0</ele>
        <time>2022-06-11T09:41:46Z</time>
      </trkpt>
      <trkpt lat="42.8684210" lon="-5.4463260">
        <ele>1260.6</ele>
        <time>2022-06-11T09:41:48Z</time>
      </trkpt>
      <trkpt lat="42.8683570" lon="-5.4463130">
        <ele>1259.4</ele>
        <time>2022-06-11T09:41:51Z</time>
      </trkpt>
      <trkpt lat="42.8683550" lon="-5.4462670">
        <ele>1258.8</ele>
        <time>2022-06-11T09:41:53Z</time>
      </trkpt>
      <trkpt lat="42.8683680" lon="-5.4462400">
        <ele>1258.6</ele>
        <time>2022-06-11T09:41:54Z</time>
      </trkpt>
      <trkpt lat="42.8683790" lon="-5.4462170">
        <ele>1258.2</ele>
        <time>2022-06-11T09:41:55Z</time>
      </trkpt>
      <trkpt lat="42.8684110" lon="-5.4461100">
        <ele>1256.8</ele>
        <time>2022-06-11T09:41:59Z</time>
      </trkpt>
      <trkpt lat="42.8684190" lon="-5.4460780">
        <ele>1256.4</ele>
        <time>2022-06-11T09:42:00Z</time>
      </trkpt>
      <trkpt lat="42.8684190" lon="-5.4459710">
        <ele>1255.4</ele>
        <time>2022-06-11T09:42:03Z</time>
      </trkpt>
      <trkpt lat="42.8683990" lon="-5.4458710">
        <ele>1254.4</ele>
        <time>2022-06-11T09:42:06Z</time>
      </trkpt>
      <trkpt lat="42.8683480" lon="-5.4457680">
        <ele>1253.0</ele>
        <time>2022-06-11T09:42:09Z</time>
      </trkpt>
      <trkpt lat="42.8682960" lon="-5.4456680">
        <ele>1252.4</ele>
        <time>2022-06-11T09:42:13Z</time>
      </trkpt>
      <trkpt lat="42.8682300" lon="-5.4456560">
        <ele>1251.8</ele>
        <time>2022-06-11T09:42:16Z</time>
      </trkpt>
      <trkpt lat="42.8682080" lon="-5.4456650">
        <ele>1251.2</ele>
        <time>2022-06-11T09:42:17Z</time>
      </trkpt>
      <trkpt lat="42.8681850" lon="-5.4456770">
        <ele>1250.8</ele>
        <time>2022-06-11T09:42:18Z</time>
      </trkpt>
      <trkpt lat="42.8681070" lon="-5.4457000">
        <ele>1249.6</ele>
        <time>2022-06-11T09:42:21Z</time>
      </trkpt>
      <trkpt lat="42.8680850" lon="-5.4457140">
        <ele>1249.2</ele>
        <time>2022-06-11T09:42:22Z</time>
      </trkpt>
      <trkpt lat="42.8680610" lon="-5.4457240">
        <ele>1248.6</ele>
        <time>2022-06-11T09:42:23Z</time>
      </trkpt>
      <trkpt lat="42.8679960" lon="-5.4457560">
        <ele>1247.4</ele>
        <time>2022-06-11T09:42:26Z</time>
      </trkpt>
      <trkpt lat="42.8679080" lon="-5.4457820">
        <ele>1246.2</ele>
        <time>2022-06-11T09:42:29Z</time>
      </trkpt>
      <trkpt lat="42.8678350" lon="-5.4458060">
        <ele>1245.2</ele>
        <time>2022-06-11T09:42:32Z</time>
      </trkpt>
      <trkpt lat="42.8677810" lon="-5.4458070">
        <ele>1244.2</ele>
        <time>2022-06-11T09:42:34Z</time>
      </trkpt>
      <trkpt lat="42.8677520" lon="-5.4458050">
        <ele>1243.6</ele>
        <time>2022-06-11T09:42:35Z</time>
      </trkpt>
      <trkpt lat="42.8677220" lon="-5.4458050">
        <ele>1243.2</ele>
        <time>2022-06-11T09:42:36Z</time>
      </trkpt>
      <trkpt lat="42.8676930" lon="-5.4458130">
        <ele>1243.0</ele>
        <time>2022-06-11T09:42:37Z</time>
      </trkpt>
      <trkpt lat="42.8676100" lon="-5.4458350">
        <ele>1241.6</ele>
        <time>2022-06-11T09:42:40Z</time>
      </trkpt>
      <trkpt lat="42.8675820" lon="-5.4458390">
        <ele>1241.4</ele>
        <time>2022-06-11T09:42:41Z</time>
      </trkpt>
      <trkpt lat="42.8674990" lon="-5.4458530">
        <ele>1240.2</ele>
        <time>2022-06-11T09:42:44Z</time>
      </trkpt>
      <trkpt lat="42.8674090" lon="-5.4458560">
        <ele>1238.8</ele>
        <time>2022-06-11T09:42:47Z</time>
      </trkpt>
      <trkpt lat="42.8673830" lon="-5.4458520">
        <ele>1238.6</ele>
        <time>2022-06-11T09:42:48Z</time>
      </trkpt>
      <trkpt lat="42.8673110" lon="-5.4458310">
        <ele>1237.6</ele>
        <time>2022-06-11T09:42:51Z</time>
      </trkpt>
      <trkpt lat="42.8672490" lon="-5.4458000">
        <ele>1236.6</ele>
        <time>2022-06-11T09:42:54Z</time>
      </trkpt>
      <trkpt lat="42.8672240" lon="-5.4457970">
        <ele>1236.6</ele>
        <time>2022-06-11T09:42:55Z</time>
      </trkpt>
      <trkpt lat="42.8670890" lon="-5.4457980">
        <ele>1235.4</ele>
        <time>2022-06-11T09:43:00Z</time>
      </trkpt>
      <trkpt lat="42.8670310" lon="-5.4457920">
        <ele>1234.8</ele>
        <time>2022-06-11T09:43:02Z</time>
      </trkpt>
      <trkpt lat="42.8669970" lon="-5.4457880">
        <ele>1234.6</ele>
        <time>2022-06-11T09:43:03Z</time>
      </trkpt>
      <trkpt lat="42.8669600" lon="-5.4457880">
        <ele>1234.4</ele>
        <time>2022-06-11T09:43:04Z</time>
      </trkpt>
      <trkpt lat="42.8668720" lon="-5.4458130">
        <ele>1233.2</ele>
        <time>2022-06-11T09:43:07Z</time>
      </trkpt>
      <trkpt lat="42.8668350" lon="-5.4458220">
        <ele>1232.4</ele>
        <time>2022-06-11T09:43:09Z</time>
      </trkpt>
      <trkpt lat="42.8667820" lon="-5.4458400">
        <ele>1232.0</ele>
        <time>2022-06-11T09:43:11Z</time>
      </trkpt>
      <trkpt lat="42.8666950" lon="-5.4458680">
        <ele>1230.6</ele>
        <time>2022-06-11T09:43:14Z</time>
      </trkpt>
      <trkpt lat="42.8666180" lon="-5.4459030">
        <ele>1229.8</ele>
        <time>2022-06-11T09:43:17Z</time>
      </trkpt>
      <trkpt lat="42.8665880" lon="-5.4459060">
        <ele>1229.4</ele>
        <time>2022-06-11T09:43:18Z</time>
      </trkpt>
      <trkpt lat="42.8665310" lon="-5.4458990">
        <ele>1228.4</ele>
        <time>2022-06-11T09:43:20Z</time>
      </trkpt>
      <trkpt lat="42.8664700" lon="-5.4459050">
        <ele>1227.8</ele>
        <time>2022-06-11T09:43:22Z</time>
      </trkpt>
      <trkpt lat="42.8664110" lon="-5.4459230">
        <ele>1227.2</ele>
        <time>2022-06-11T09:43:24Z</time>
      </trkpt>
      <trkpt lat="42.8662950" lon="-5.4459500">
        <ele>1226.0</ele>
        <time>2022-06-11T09:43:28Z</time>
      </trkpt>
      <trkpt lat="42.8661910" lon="-5.4459670">
        <ele>1225.0</ele>
        <time>2022-06-11T09:43:32Z</time>
      </trkpt>
      <trkpt lat="42.8661110" lon="-5.4459860">
        <ele>1223.6</ele>
        <time>2022-06-11T09:43:35Z</time>
      </trkpt>
      <trkpt lat="42.8659740" lon="-5.4460460">
        <ele>1222.6</ele>
        <time>2022-06-11T09:43:40Z</time>
      </trkpt>
      <trkpt lat="42.8659480" lon="-5.4460590">
        <ele>1222.2</ele>
        <time>2022-06-11T09:43:41Z</time>
      </trkpt>
      <trkpt lat="42.8658440" lon="-5.4461280">
        <ele>1220.8</ele>
        <time>2022-06-11T09:43:45Z</time>
      </trkpt>
      <trkpt lat="42.8657930" lon="-5.4461520">
        <ele>1220.0</ele>
        <time>2022-06-11T09:43:47Z</time>
      </trkpt>
      <trkpt lat="42.8657580" lon="-5.4461810">
        <ele>1219.6</ele>
        <time>2022-06-11T09:43:49Z</time>
      </trkpt>
      <trkpt lat="42.8657220" lon="-5.4462450">
        <ele>1218.8</ele>
        <time>2022-06-11T09:43:52Z</time>
      </trkpt>
      <trkpt lat="42.8656900" lon="-5.4462680">
        <ele>1218.6</ele>
        <time>2022-06-11T09:43:53Z</time>
      </trkpt>
      <trkpt lat="42.8656460" lon="-5.4463410">
        <ele>1218.6</ele>
        <time>2022-06-11T09:43:56Z</time>
      </trkpt>
      <trkpt lat="42.8655970" lon="-5.4463740">
        <ele>1218.6</ele>
        <time>2022-06-11T09:43:58Z</time>
      </trkpt>
      <trkpt lat="42.8655070" lon="-5.4463780">
        <ele>1218.6</ele>
        <time>2022-06-11T09:44:01Z</time>
      </trkpt>
      <trkpt lat="42.8654610" lon="-5.4463910">
        <ele>1218.8</ele>
        <time>2022-06-11T09:44:03Z</time>
      </trkpt>
      <trkpt lat="42.8654180" lon="-5.4464160">
        <ele>1219.2</ele>
        <time>2022-06-11T09:44:05Z</time>
      </trkpt>
      <trkpt lat="42.8653430" lon="-5.4464220">
        <ele>1219.2</ele>
        <time>2022-06-11T09:44:08Z</time>
      </trkpt>
      <trkpt lat="42.8652900" lon="-5.4464050">
        <ele>1218.8</ele>
        <time>2022-06-11T09:44:10Z</time>
      </trkpt>
      <trkpt lat="42.8651880" lon="-5.4463310">
        <ele>1217.6</ele>
        <time>2022-06-11T09:44:14Z</time>
      </trkpt>
      <trkpt lat="42.8651510" lon="-5.4462960">
        <ele>1216.8</ele>
        <time>2022-06-11T09:44:16Z</time>
      </trkpt>
      <trkpt lat="42.8651250" lon="-5.4462730">
        <ele>1216.4</ele>
        <time>2022-06-11T09:44:17Z</time>
      </trkpt>
      <trkpt lat="42.8649800" lon="-5.4461610">
        <ele>1215.2</ele>
        <time>2022-06-11T09:44:23Z</time>
      </trkpt>
      <trkpt lat="42.8649290" lon="-5.4461430">
        <ele>1215.0</ele>
        <time>2022-06-11T09:44:25Z</time>
      </trkpt>
      <trkpt lat="42.8648720" lon="-5.4461390">
        <ele>1214.6</ele>
        <time>2022-06-11T09:44:27Z</time>
      </trkpt>
      <trkpt lat="42.8648160" lon="-5.4461340">
        <ele>1213.8</ele>
        <time>2022-06-11T09:44:29Z</time>
      </trkpt>
      <trkpt lat="42.8647210" lon="-5.4461250">
        <ele>1212.8</ele>
        <time>2022-06-11T09:44:32Z</time>
      </trkpt>
      <trkpt lat="42.8646340" lon="-5.4461000">
        <ele>1211.6</ele>
        <time>2022-06-11T09:44:35Z</time>
      </trkpt>
      <trkpt lat="42.8645090" lon="-5.4460330">
        <ele>1210.8</ele>
        <time>2022-06-11T09:44:40Z</time>
      </trkpt>
      <trkpt lat="42.8644700" lon="-5.4460070">
        <ele>1210.4</ele>
        <time>2022-06-11T09:44:42Z</time>
      </trkpt>
      <trkpt lat="42.8644060" lon="-5.4459470">
        <ele>1209.6</ele>
        <time>2022-06-11T09:44:46Z</time>
      </trkpt>
      <trkpt lat="42.8643890" lon="-5.4459300">
        <ele>1209.4</ele>
        <time>2022-06-11T09:44:47Z</time>
      </trkpt>
      <trkpt lat="42.8642860" lon="-5.4458470">
        <ele>1208.4</ele>
        <time>2022-06-11T09:44:51Z</time>
      </trkpt>
      <trkpt lat="42.8642440" lon="-5.4458240">
        <ele>1207.4</ele>
        <time>2022-06-11T09:44:53Z</time>
      </trkpt>
      <trkpt lat="42.8642150" lon="-5.4458040">
        <ele>1206.8</ele>
        <time>2022-06-11T09:44:54Z</time>
      </trkpt>
      <trkpt lat="42.8641490" lon="-5.4457710">
        <ele>1205.6</ele>
        <time>2022-06-11T09:44:57Z</time>
      </trkpt>
      <trkpt lat="42.8640790" lon="-5.4457510">
        <ele>1204.6</ele>
        <time>2022-06-11T09:45:00Z</time>
      </trkpt>
      <trkpt lat="42.8640630" lon="-5.4457440">
        <ele>1204.4</ele>
        <time>2022-06-11T09:45:01Z</time>
      </trkpt>
      <trkpt lat="42.8639350" lon="-5.4456660">
        <ele>1203.6</ele>
        <time>2022-06-11T09:45:06Z</time>
      </trkpt>
      <trkpt lat="42.8639150" lon="-5.4456660">
        <ele>1203.2</ele>
        <time>2022-06-11T09:45:07Z</time>
      </trkpt>
      <trkpt lat="42.8638450" lon="-5.4456250">
        <ele>1202.4</ele>
        <time>2022-06-11T09:45:10Z</time>
      </trkpt>
      <trkpt lat="42.8637840" lon="-5.4455940">
        <ele>1201.4</ele>
        <time>2022-06-11T09:45:13Z</time>
      </trkpt>
      <trkpt lat="42.8637710" lon="-5.4455860">
        <ele>1201.0</ele>
        <time>2022-06-11T09:45:14Z</time>
      </trkpt>
      <trkpt lat="42.8637330" lon="-5.4455580">
        <ele>1200.0</ele>
        <time>2022-06-11T09:45:16Z</time>
      </trkpt>
      <trkpt lat="42.8636820" lon="-5.4455180">
        <ele>1198.6</ele>
        <time>2022-06-11T09:45:19Z</time>
      </trkpt>
      <trkpt lat="42.8636430" lon="-5.4454870">
        <ele>1197.6</ele>
        <time>2022-06-11T09:45:21Z</time>
      </trkpt>
      <trkpt lat="42.8636250" lon="-5.4454790">
        <ele>1197.2</ele>
        <time>2022-06-11T09:45:22Z</time>
      </trkpt>
      <trkpt lat="42.8635710" lon="-5.4454400">
        <ele>1196.0</ele>
        <time>2022-06-11T09:45:24Z</time>
      </trkpt>
      <trkpt lat="42.8634760" lon="-5.4453730">
        <ele>1194.6</ele>
        <time>2022-06-11T09:45:28Z</time>
      </trkpt>
      <trkpt lat="42.8634100" lon="-5.4453150">
        <ele>1193.4</ele>
        <time>2022-06-11T09:45:31Z</time>
      </trkpt>
      <trkpt lat="42.8633640" lon="-5.4452490">
        <ele>1192.4</ele>
        <time>2022-06-11T09:45:34Z</time>
      </trkpt>
      <trkpt lat="42.8633430" lon="-5.4452360">
        <ele>1192.2</ele>
        <time>2022-06-11T09:45:35Z</time>
      </trkpt>
      <trkpt lat="42.8632600" lon="-5.4451900">
        <ele>1191.2</ele>
        <time>2022-06-11T09:45:39Z</time>
      </trkpt>
      <trkpt lat="42.8631950" lon="-5.4451200">
        <ele>1190.2</ele>
        <time>2022-06-11T09:45:42Z</time>
      </trkpt>
      <trkpt lat="42.8631390" lon="-5.4450710">
        <ele>1189.0</ele>
        <time>2022-06-11T09:45:45Z</time>
      </trkpt>
      <trkpt lat="42.8630910" lon="-5.4450380">
        <ele>1188.0</ele>
        <time>2022-06-11T09:45:47Z</time>
      </trkpt>
      <trkpt lat="42.8630600" lon="-5.4450210">
        <ele>1187.6</ele>
        <time>2022-06-11T09:45:48Z</time>
      </trkpt>
      <trkpt lat="42.8630050" lon="-5.4450020">
        <ele>1186.6</ele>
        <time>2022-06-11T09:45:51Z</time>
      </trkpt>
      <trkpt lat="42.8629350" lon="-5.4449900">
        <ele>1185.4</ele>
        <time>2022-06-11T09:45:54Z</time>
      </trkpt>
      <trkpt lat="42.8628610" lon="-5.4449820">
        <ele>1184.2</ele>
        <time>2022-06-11T09:45:57Z</time>
      </trkpt>
      <trkpt lat="42.8627620" lon="-5.4449690">
        <ele>1183.0</ele>
        <time>2022-06-11T09:46:01Z</time>
      </trkpt>
      <trkpt lat="42.8627040" lon="-5.4449710">
        <ele>1182.2</ele>
        <time>2022-06-11T09:46:04Z</time>
      </trkpt>
      <trkpt lat="42.8626860" lon="-5.4449610">
        <ele>1182.0</ele>
        <time>2022-06-11T09:46:05Z</time>
      </trkpt>
      <trkpt lat="42.8626390" lon="-5.4449400">
        <ele>1181.4</ele>
        <time>2022-06-11T09:46:07Z</time>
      </trkpt>
      <trkpt lat="42.8626120" lon="-5.4449340">
        <ele>1181.2</ele>
        <time>2022-06-11T09:46:08Z</time>
      </trkpt>
      <trkpt lat="42.8625570" lon="-5.4449310">
        <ele>1180.6</ele>
        <time>2022-06-11T09:46:10Z</time>
      </trkpt>
      <trkpt lat="42.8624760" lon="-5.4449260">
        <ele>1179.6</ele>
        <time>2022-06-11T09:46:13Z</time>
      </trkpt>
      <trkpt lat="42.8623970" lon="-5.4449190">
        <ele>1179.0</ele>
        <time>2022-06-11T09:46:16Z</time>
      </trkpt>
      <trkpt lat="42.8623660" lon="-5.4449170">
        <ele>1178.6</ele>
        <time>2022-06-11T09:46:17Z</time>
      </trkpt>
      <trkpt lat="42.8623030" lon="-5.4449220">
        <ele>1178.0</ele>
        <time>2022-06-11T09:46:19Z</time>
      </trkpt>
      <trkpt lat="42.8622750" lon="-5.4449340">
        <ele>1177.8</ele>
        <time>2022-06-11T09:46:20Z</time>
      </trkpt>
      <trkpt lat="42.8622230" lon="-5.4449570">
        <ele>1177.6</ele>
        <time>2022-06-11T09:46:22Z</time>
      </trkpt>
      <trkpt lat="42.8622020" lon="-5.4449700">
        <ele>1177.4</ele>
        <time>2022-06-11T09:46:23Z</time>
      </trkpt>
      <trkpt lat="42.8621060" lon="-5.4450030">
        <ele>1177.0</ele>
        <time>2022-06-11T09:46:27Z</time>
      </trkpt>
      <trkpt lat="42.8620200" lon="-5.4450350">
        <ele>1176.2</ele>
        <time>2022-06-11T09:46:30Z</time>
      </trkpt>
      <trkpt lat="42.8619410" lon="-5.4450770">
        <ele>1175.2</ele>
        <time>2022-06-11T09:46:33Z</time>
      </trkpt>
      <trkpt lat="42.8619220" lon="-5.4451000">
        <ele>1175.0</ele>
        <time>2022-06-11T09:46:34Z</time>
      </trkpt>
      <trkpt lat="42.8618220" lon="-5.4451600">
        <ele>1174.2</ele>
        <time>2022-06-11T09:46:38Z</time>
      </trkpt>
      <trkpt lat="42.8617930" lon="-5.4451690">
        <ele>1173.8</ele>
        <time>2022-06-11T09:46:39Z</time>
      </trkpt>
      <trkpt lat="42.8616730" lon="-5.4452330">
        <ele>1173.2</ele>
        <time>2022-06-11T09:46:43Z</time>
      </trkpt>
      <trkpt lat="42.8616270" lon="-5.4452590">
        <ele>1172.6</ele>
        <time>2022-06-11T09:46:45Z</time>
      </trkpt>
      <trkpt lat="42.8615140" lon="-5.4453550">
        <ele>1172.0</ele>
        <time>2022-06-11T09:46:50Z</time>
      </trkpt>
      <trkpt lat="42.8614590" lon="-5.4454060">
        <ele>1171.6</ele>
        <time>2022-06-11T09:46:53Z</time>
      </trkpt>
      <trkpt lat="42.8613950" lon="-5.4454580">
        <ele>1171.0</ele>
        <time>2022-06-11T09:46:56Z</time>
      </trkpt>
      <trkpt lat="42.8613730" lon="-5.4454810">
        <ele>1170.8</ele>
        <time>2022-06-11T09:46:57Z</time>
      </trkpt>
      <trkpt lat="42.8613300" lon="-5.4455230">
        <ele>1169.4</ele>
        <time>2022-06-11T09:46:59Z</time>
      </trkpt>
      <trkpt lat="42.8612980" lon="-5.4455380">
        <ele>1169.0</ele>
        <time>2022-06-11T09:47:01Z</time>
      </trkpt>
      <trkpt lat="42.8612760" lon="-5.4455280">
        <ele>1168.8</ele>
        <time>2022-06-11T09:47:02Z</time>
      </trkpt>
      <trkpt lat="42.8612480" lon="-5.4455150">
        <ele>1168.0</ele>
        <time>2022-06-11T09:47:04Z</time>
      </trkpt>
      <trkpt lat="42.8611780" lon="-5.4454770">
        <ele>1167.0</ele>
        <time>2022-06-11T09:47:08Z</time>
      </trkpt>
      <trkpt lat="42.8611080" lon="-5.4454340">
        <ele>1165.8</ele>
        <time>2022-06-11T09:47:11Z</time>
      </trkpt>
      <trkpt lat="42.8610850" lon="-5.4454180">
        <ele>1165.4</ele>
        <time>2022-06-11T09:47:12Z</time>
      </trkpt>
      <trkpt lat="42.8610400" lon="-5.4453940">
        <ele>1164.8</ele>
        <time>2022-06-11T09:47:14Z</time>
      </trkpt>
      <trkpt lat="42.8609510" lon="-5.4453700">
        <ele>1163.6</ele>
        <time>2022-06-11T09:47:17Z</time>
      </trkpt>
      <trkpt lat="42.8609090" lon="-5.4453600">
        <ele>1163.0</ele>
        <time>2022-06-11T09:47:19Z</time>
      </trkpt>
      <trkpt lat="42.8608580" lon="-5.4453540">
        <ele>1162.4</ele>
        <time>2022-06-11T09:47:21Z</time>
      </trkpt>
      <trkpt lat="42.8608060" lon="-5.4453150">
        <ele>1161.6</ele>
        <time>2022-06-11T09:47:24Z</time>
      </trkpt>
      <trkpt lat="42.8607780" lon="-5.4452960">
        <ele>1161.4</ele>
        <time>2022-06-11T09:47:25Z</time>
      </trkpt>
      <trkpt lat="42.8606550" lon="-5.4452250">
        <ele>1160.4</ele>
        <time>2022-06-11T09:47:31Z</time>
      </trkpt>
      <trkpt lat="42.8606340" lon="-5.4452140">
        <ele>1160.2</ele>
        <time>2022-06-11T09:47:32Z</time>
      </trkpt>
      <trkpt lat="42.8605210" lon="-5.4451490">
        <ele>1159.8</ele>
        <time>2022-06-11T09:47:37Z</time>
      </trkpt>
      <trkpt lat="42.8603980" lon="-5.4450210">
        <ele>1159.4</ele>
        <time>2022-06-11T09:47:44Z</time>
      </trkpt>
      <trkpt lat="42.8603560" lon="-5.4449810">
        <ele>1159.2</ele>
        <time>2022-06-11T09:47:46Z</time>
      </trkpt>
      <trkpt lat="42.8602720" lon="-5.4448920">
        <ele>1158.0</ele>
        <time>2022-06-11T09:47:51Z</time>
      </trkpt>
      <trkpt lat="42.8602320" lon="-5.4448600">
        <ele>1157.8</ele>
        <time>2022-06-11T09:47:53Z</time>
      </trkpt>
      <trkpt lat="42.8601330" lon="-5.4448160">
        <ele>1157.0</ele>
        <time>2022-06-11T09:47:57Z</time>
      </trkpt>
      <trkpt lat="42.8600490" lon="-5.4448040">
        <ele>1156.0</ele>
        <time>2022-06-11T09:48:00Z</time>
      </trkpt>
      <trkpt lat="42.8600210" lon="-5.4448040">
        <ele>1155.6</ele>
        <time>2022-06-11T09:48:01Z</time>
      </trkpt>
      <trkpt lat="42.8600040" lon="-5.4448050">
        <ele>1155.2</ele>
        <time>2022-06-11T09:48:02Z</time>
      </trkpt>
      <trkpt lat="42.8599630" lon="-5.4448070">
        <ele>1154.8</ele>
        <time>2022-06-11T09:48:04Z</time>
      </trkpt>
      <trkpt lat="42.8599430" lon="-5.4447950">
        <ele>1154.6</ele>
        <time>2022-06-11T09:48:05Z</time>
      </trkpt>
      <trkpt lat="42.8599250" lon="-5.4447790">
        <ele>1154.4</ele>
        <time>2022-06-11T09:48:06Z</time>
      </trkpt>
      <trkpt lat="42.8598480" lon="-5.4446740">
        <ele>1153.2</ele>
        <time>2022-06-11T09:48:11Z</time>
      </trkpt>
      <trkpt lat="42.8597300" lon="-5.4445610">
        <ele>1152.2</ele>
        <time>2022-06-11T09:48:17Z</time>
      </trkpt>
      <trkpt lat="42.8597080" lon="-5.4445540">
        <ele>1152.0</ele>
        <time>2022-06-11T09:48:18Z</time>
      </trkpt>
      <trkpt lat="42.8596420" lon="-5.4445460">
        <ele>1151.4</ele>
        <time>2022-06-11T09:48:21Z</time>
      </trkpt>
      <trkpt lat="42.8596050" lon="-5.4445710">
        <ele>1151.0</ele>
        <time>2022-06-11T09:48:23Z</time>
      </trkpt>
      <trkpt lat="42.8594380" lon="-5.4446360">
        <ele>1150.0</ele>
        <time>2022-06-11T09:48:30Z</time>
      </trkpt>
      <trkpt lat="42.8594150" lon="-5.4446480">
        <ele>1149.6</ele>
        <time>2022-06-11T09:48:31Z</time>
      </trkpt>
      <trkpt lat="42.8593140" lon="-5.4447050">
        <ele>1148.8</ele>
        <time>2022-06-11T09:48:36Z</time>
      </trkpt>
      <trkpt lat="42.8593020" lon="-5.4446990">
        <ele>1148.6</ele>
        <time>2022-06-11T09:48:37Z</time>
      </trkpt>
      <trkpt lat="42.8592590" lon="-5.4445930">
        <ele>1148.2</ele>
        <time>2022-06-11T09:48:41Z</time>
      </trkpt>
      <trkpt lat="42.8592260" lon="-5.4444330">
        <ele>1147.8</ele>
        <time>2022-06-11T09:48:46Z</time>
      </trkpt>
      <trkpt lat="42.8592290" lon="-5.4444010">
        <ele>1147.6</ele>
        <time>2022-06-11T09:48:47Z</time>
      </trkpt>
      <trkpt lat="42.8592570" lon="-5.4442720">
        <ele>1147.2</ele>
        <time>2022-06-11T09:48:51Z</time>
      </trkpt>
      <trkpt lat="42.8592760" lon="-5.4441990">
        <ele>1147.0</ele>
        <time>2022-06-11T09:48:54Z</time>
      </trkpt>
    </trkseg>
  </trk>
</gpx>
